<?xml version='1.0' encoding='UTF-8'?><gpx version="1.1" creator="JPX - https://github.com/jenetics/jpx" xmlns="http://www.topografix.com/GPX/1/1"><trk><trkseg><trkpt lat="41.68058870912907" lon="13.373603077239322"><ele>246.0</ele><time>2026-04-04T08:32:20.999Z</time></trkpt><trkpt lat="41.680539740771884" lon="13.373671534673012"><ele>246.0</ele><time>2026-04-04T08:34:43Z</time></trkpt><trkpt lat="41.68045090291062" lon="13.373643113471331"><ele>246.0</ele><time>2026-04-04T08:34:47Z</time></trkpt><trkpt lat="41.680431363999055" lon="13.3735552544328"><ele>246.0</ele><time>2026-04-04T08:34:49Z</time></trkpt><trkpt lat="41.680414833054385" lon="13.373451620600054"><ele>246.0</ele><time>2026-04-04T08:34:52Z</time></trkpt><trkpt lat="41.68038808495568" lon="13.373360663434314"><ele>246.0</ele><time>2026-04-04T08:34:55Z</time></trkpt><trkpt lat="41.680377126307405" lon="13.373270349079958"><ele>246.0</ele><time>2026-04-04T08:34:59Z</time></trkpt><trkpt lat="41.680294876576816" lon="13.373181965363345"><ele>246.0</ele><time>2026-04-04T08:35:09Z</time></trkpt><trkpt lat="41.68022479111764" lon="13.373187239105519"><ele>246.0</ele><time>2026-04-04T08:35:10Z</time></trkpt><trkpt lat="41.6801487758932" lon="13.373204703781894"><ele>246.0</ele><time>2026-04-04T08:35:11Z</time></trkpt><trkpt lat="41.68006956814475" lon="13.373224687980597"><ele>246.0</ele><time>2026-04-04T08:35:12Z</time></trkpt><trkpt lat="41.67998537103362" lon="13.373192916611698"><ele>246.0</ele><time>2026-04-04T08:35:13Z</time></trkpt><trkpt lat="41.6798945162055" lon="13.373210552850582"><ele>245.60000000000002</ele><time>2026-04-04T08:35:14Z</time></trkpt><trkpt lat="41.67980461138376" lon="13.373227488897529"><ele>245.20000000000002</ele><time>2026-04-04T08:35:15Z</time></trkpt><trkpt lat="41.67971407962541" lon="13.373245091322397"><ele>244.79999999999998</ele><time>2026-04-04T08:35:16Z</time></trkpt><trkpt lat="41.67961911601452" lon="13.373264438840442"><ele>244.39999999999998</ele><time>2026-04-04T08:35:17Z</time></trkpt><trkpt lat="41.67952423072283" lon="13.373285436518605"><ele>244.0</ele><time>2026-04-04T08:35:18Z</time></trkpt><trkpt lat="41.67944074720196" lon="13.373305022412433"><ele>243.49999999999997</ele><time>2026-04-04T08:35:19Z</time></trkpt><trkpt lat="41.679374758202634" lon="13.373321872379929"><ele>243.0</ele><time>2026-04-04T08:35:20Z</time></trkpt><trkpt lat="41.67927978209429" lon="13.373346818345803"><ele>242.5</ele><time>2026-04-04T08:35:22Z</time></trkpt><trkpt lat="41.679196783245416" lon="13.373259143237954"><ele>242.0</ele><time>2026-04-04T08:35:27Z</time></trkpt><trkpt lat="41.67917238157471" lon="13.373160655315738"><ele>241.49999999999997</ele><time>2026-04-04T08:35:28Z</time></trkpt><trkpt lat="41.67913066881456" lon="13.373061385533608"><ele>241.0</ele><time>2026-04-04T08:35:29Z</time></trkpt><trkpt lat="41.679056385550915" lon="13.372971843226297"><ele>240.25</ele><time>2026-04-04T08:35:30Z</time></trkpt><trkpt lat="41.67895245873263" lon="13.372914835332983"><ele>239.5</ele><time>2026-04-04T08:35:31Z</time></trkpt><trkpt lat="41.67882666111706" lon="13.372894596567003"><ele>238.75</ele><time>2026-04-04T08:35:32Z</time></trkpt><trkpt lat="41.678687797478794" lon="13.37289156610881"><ele>238.0</ele><time>2026-04-04T08:35:33Z</time></trkpt><trkpt lat="41.678550531788666" lon="13.37286406149186"><ele>237.5</ele><time>2026-04-04T08:35:34Z</time></trkpt><trkpt lat="41.6784340489518" lon="13.372798864156625"><ele>237.0</ele><time>2026-04-04T08:35:35Z</time></trkpt><trkpt lat="41.67833585256787" lon="13.372701270511463"><ele>236.5</ele><time>2026-04-04T08:35:36Z</time></trkpt><trkpt lat="41.678277929883826" lon="13.372549236090968"><ele>236.0</ele><time>2026-04-04T08:35:37Z</time></trkpt><trkpt lat="41.67821106551553" lon="13.372380800262228"><ele>236.0</ele><time>2026-04-04T08:35:38Z</time></trkpt><trkpt lat="41.67815472945863" lon="13.37219764693442"><ele>236.0</ele><time>2026-04-04T08:35:39Z</time></trkpt><trkpt lat="41.6780936352709" lon="13.37201831854388"><ele>236.0</ele><time>2026-04-04T08:35:40Z</time></trkpt><trkpt lat="41.67800178644651" lon="13.371867072275993"><ele>236.0</ele><time>2026-04-04T08:35:41Z</time></trkpt><trkpt lat="41.67788367078841" lon="13.37174139750383"><ele>235.0</ele><time>2026-04-04T08:35:42Z</time></trkpt><trkpt lat="41.67775108701977" lon="13.371627187426146"><ele>234.0</ele><time>2026-04-04T08:35:43Z</time></trkpt><trkpt lat="41.677606344062234" lon="13.371527377497822"><ele>233.0</ele><time>2026-04-04T08:35:44Z</time></trkpt><trkpt lat="41.677459648696775" lon="13.371434203886686"><ele>234.0</ele><time>2026-04-04T08:35:45Z</time></trkpt><trkpt lat="41.67731228995117" lon="13.371338906815526"><ele>235.0</ele><time>2026-04-04T08:35:46Z</time></trkpt><trkpt lat="41.67716073490011" lon="13.371248131103824"><ele>236.0</ele><time>2026-04-04T08:35:47Z</time></trkpt><trkpt lat="41.67700640740136" lon="13.37115752548773"><ele>235.33333333333334</ele><time>2026-04-04T08:35:48Z</time></trkpt><trkpt lat="41.676845804540555" lon="13.371072010212131"><ele>234.66666666666669</ele><time>2026-04-04T08:35:49Z</time></trkpt><trkpt lat="41.67668244869897" lon="13.370994625523016"><ele>234.0</ele><time>2026-04-04T08:35:50Z</time></trkpt><trkpt lat="41.67651988975698" lon="13.370913857497357"><ele>234.0</ele><time>2026-04-04T08:35:51Z</time></trkpt><trkpt lat="41.676400908329626" lon="13.370771903189738"><ele>234.0</ele><time>2026-04-04T08:35:52Z</time></trkpt><trkpt lat="41.676294890240875" lon="13.370644836237581"><ele>234.0</ele><time>2026-04-04T08:35:53Z</time></trkpt><trkpt lat="41.676200186712045" lon="13.370516504861945"><ele>234.0</ele><time>2026-04-04T08:35:54Z</time></trkpt><trkpt lat="41.67613673180549" lon="13.370410041482689"><ele>234.16666666666666</ele><time>2026-04-04T08:35:55Z</time></trkpt><trkpt lat="41.67608705232022" lon="13.370328162405745"><ele>234.33333333333331</ele><time>2026-04-04T08:35:56Z</time></trkpt><trkpt lat="41.676047556831854" lon="13.370226305578333"><ele>234.5</ele><time>2026-04-04T08:35:58Z</time></trkpt><trkpt lat="41.67599125409697" lon="13.37013393580794"><ele>234.66666666666666</ele><time>2026-04-04T08:36:04Z</time></trkpt><trkpt lat="41.67594855117381" lon="13.370032582476782"><ele>234.83333333333331</ele><time>2026-04-04T08:36:05Z</time></trkpt><trkpt lat="41.67593565508829" lon="13.369893125337383"><ele>235.0</ele><time>2026-04-04T08:36:06Z</time></trkpt><trkpt lat="41.675941961752116" lon="13.369735752065958"><ele>234.75</ele><time>2026-04-04T08:36:07Z</time></trkpt><trkpt lat="41.675940154390965" lon="13.369558178924658"><ele>234.5</ele><time>2026-04-04T08:36:08Z</time></trkpt><trkpt lat="41.67593481176665" lon="13.369372770088194"><ele>234.25</ele><time>2026-04-04T08:36:09Z</time></trkpt><trkpt lat="41.67591692771105" lon="13.369181969718806"><ele>234.0</ele><time>2026-04-04T08:36:10Z</time></trkpt><trkpt lat="41.67588039108202" lon="13.369000777452378"><ele>233.66666666666669</ele><time>2026-04-04T08:36:11.001Z</time></trkpt><trkpt lat="41.6758193476488" lon="13.368827297623202"><ele>233.33333333333334</ele><time>2026-04-04T08:36:12.001Z</time></trkpt><trkpt lat="41.67573466405222" lon="13.368651716300457"><ele>233.0</ele><time>2026-04-04T08:36:13.001Z</time></trkpt><trkpt lat="41.675647297710526" lon="13.368468881899062"><ele>233.0</ele><time>2026-04-04T08:36:14.001Z</time></trkpt><trkpt lat="41.675565971356434" lon="13.368289182024256"><ele>233.0</ele><time>2026-04-04T08:36:15.001Z</time></trkpt><trkpt lat="41.675497748559984" lon="13.368133911586092"><ele>233.0</ele><time>2026-04-04T08:36:16.001Z</time></trkpt><trkpt lat="41.675434472082685" lon="13.368004297740491"><ele>233.0</ele><time>2026-04-04T08:36:17.001Z</time></trkpt><trkpt lat="41.675361362930005" lon="13.36790680275629"><ele>232.0</ele><time>2026-04-04T08:36:18.001Z</time></trkpt><trkpt lat="41.67525919124849" lon="13.367856278333822"><ele>231.0</ele><time>2026-04-04T08:36:19.001Z</time></trkpt><trkpt lat="41.67513326881326" lon="13.36785353243061"><ele>230.0</ele><time>2026-04-04T08:36:20.001Z</time></trkpt><trkpt lat="41.674996770718685" lon="13.367875848118285"><ele>229.0</ele><time>2026-04-04T08:36:21.001Z</time></trkpt><trkpt lat="41.674851733733" lon="13.367872308828222"><ele>229.0</ele><time>2026-04-04T08:36:22.001Z</time></trkpt><trkpt lat="41.67471938179103" lon="13.367884830375344"><ele>228.99999999999997</ele><time>2026-04-04T08:36:23.001Z</time></trkpt><trkpt lat="41.6746169230918" lon="13.367887812784016"><ele>228.99999999999997</ele><time>2026-04-04T08:36:24.001Z</time></trkpt><trkpt lat="41.674525846104736" lon="13.36789501301716"><ele>229.0</ele><time>2026-04-04T08:36:25.001Z</time></trkpt><trkpt lat="41.67445485213156" lon="13.367834807870569"><ele>229.0</ele><time>2026-04-04T08:36:26.001Z</time></trkpt><trkpt lat="41.6744043794596" lon="13.367733940893118"><ele>228.75</ele><time>2026-04-04T08:36:27.001Z</time></trkpt><trkpt lat="41.67439129399254" lon="13.367592958112978"><ele>228.5</ele><time>2026-04-04T08:36:28.001Z</time></trkpt><trkpt lat="41.67439462294807" lon="13.367433269983326"><ele>228.25</ele><time>2026-04-04T08:36:29.001Z</time></trkpt><trkpt lat="41.67439776663822" lon="13.367253792896719"><ele>228.0</ele><time>2026-04-04T08:36:30.001Z</time></trkpt><trkpt lat="41.674388509663444" lon="13.367056934228772"><ele>228.66666666666669</ele><time>2026-04-04T08:36:31.001Z</time></trkpt><trkpt lat="41.67437660743097" lon="13.366849787842602"><ele>229.33333333333334</ele><time>2026-04-04T08:36:32.001Z</time></trkpt><trkpt lat="41.674362478142356" lon="13.366633004052773"><ele>230.0</ele><time>2026-04-04T08:36:33.001Z</time></trkpt><trkpt lat="41.67435487159144" lon="13.366419442790514"><ele>230.5</ele><time>2026-04-04T08:36:34Z</time></trkpt><trkpt lat="41.674343814049394" lon="13.366231057403613"><ele>231.0</ele><time>2026-04-04T08:36:35Z</time></trkpt><trkpt lat="41.67430068575198" lon="13.366050217024615"><ele>231.5</ele><time>2026-04-04T08:36:36Z</time></trkpt><trkpt lat="41.6742220718298" lon="13.365876013288258"><ele>232.0</ele><time>2026-04-04T08:36:37Z</time></trkpt><trkpt lat="41.67412146218207" lon="13.365711526820553"><ele>232.0</ele><time>2026-04-04T08:36:38Z</time></trkpt><trkpt lat="41.674030280579956" lon="13.36553630543471"><ele>232.0</ele><time>2026-04-04T08:36:39Z</time></trkpt><trkpt lat="41.67395351764456" lon="13.365379455480062"><ele>232.0</ele><time>2026-04-04T08:36:40Z</time></trkpt><trkpt lat="41.673892166734845" lon="13.365251020470886"><ele>232.0</ele><time>2026-04-04T08:36:41Z</time></trkpt><trkpt lat="41.673846741282425" lon="13.365157551234613"><ele>232.0</ele><time>2026-04-04T08:36:42Z</time></trkpt><trkpt lat="41.67380956882003" lon="13.365038816509031"><ele>232.0</ele><time>2026-04-04T08:36:44Z</time></trkpt><trkpt lat="41.673758186288964" lon="13.36493179493794"><ele>232.0</ele><time>2026-04-04T08:36:49Z</time></trkpt><trkpt lat="41.67360352135863" lon="13.364954565603908"><ele>232.0</ele><time>2026-04-04T08:36:50Z</time></trkpt><trkpt lat="41.6734922145199" lon="13.36495988073969"><ele>232.25</ele><time>2026-04-04T08:36:51Z</time></trkpt><trkpt lat="41.673356169276936" lon="13.364966594276462"><ele>232.5</ele><time>2026-04-04T08:36:52Z</time></trkpt><trkpt lat="41.67322193022597" lon="13.364993045458933"><ele>232.75</ele><time>2026-04-04T08:36:53Z</time></trkpt><trkpt lat="41.673072468224305" lon="13.36500007608296"><ele>233.0</ele><time>2026-04-04T08:36:54Z</time></trkpt><trkpt lat="41.67291211755358" lon="13.365015709846844"><ele>232.5</ele><time>2026-04-04T08:36:55Z</time></trkpt><trkpt lat="41.67274912178821" lon="13.365024809366242"><ele>232.0</ele><time>2026-04-04T08:36:56Z</time></trkpt><trkpt lat="41.67259898357488" lon="13.364985267376222"><ele>231.5</ele><time>2026-04-04T08:36:57Z</time></trkpt><trkpt lat="41.67246759780578" lon="13.364961370688706"><ele>231.0</ele><time>2026-04-04T08:36:58Z</time></trkpt><trkpt lat="41.672349452193885" lon="13.36493729500163"><ele>231.0</ele><time>2026-04-04T08:36:59Z</time></trkpt><trkpt lat="41.67224263877818" lon="13.364915528489602"><ele>231.00000000000003</ele><time>2026-04-04T08:37:00Z</time></trkpt><trkpt lat="41.672146086009406" lon="13.36491188083599"><ele>231.00000000000003</ele><time>2026-04-04T08:37:01Z</time></trkpt><trkpt lat="41.67206735762868" lon="13.36486993327753"><ele>231.0</ele><time>2026-04-04T08:37:02Z</time></trkpt><trkpt lat="41.67199619773719" lon="13.364848153227642"><ele>231.0</ele><time>2026-04-04T08:37:03Z</time></trkpt><trkpt lat="41.67193883611006" lon="13.364703799850844"><ele>231.0</ele><time>2026-04-04T08:37:04Z</time></trkpt><trkpt lat="41.6718853212002" lon="13.364540334161315"><ele>231.0</ele><time>2026-04-04T08:37:05Z</time></trkpt><trkpt lat="41.671821433065844" lon="13.364355765357415"><ele>231.0</ele><time>2026-04-04T08:37:06Z</time></trkpt><trkpt lat="41.671749420836456" lon="13.364176061311317"><ele>231.0</ele><time>2026-04-04T08:37:07Z</time></trkpt><trkpt lat="41.67167454064927" lon="13.363989619002904"><ele>230.33333333333331</ele><time>2026-04-04T08:37:08Z</time></trkpt><trkpt lat="41.671592882386356" lon="13.363792984442812"><ele>229.66666666666666</ele><time>2026-04-04T08:37:09Z</time></trkpt><trkpt lat="41.671517085103346" lon="13.363606019497535"><ele>229.0</ele><time>2026-04-04T08:37:10Z</time></trkpt><trkpt lat="41.67145972768486" lon="13.36343558234647"><ele>229.0</ele><time>2026-04-04T08:37:11Z</time></trkpt><trkpt lat="41.67142323088605" lon="13.36325311267779"><ele>229.0</ele><time>2026-04-04T08:37:12Z</time></trkpt><trkpt lat="41.671410344384846" lon="13.363039457157251"><ele>229.0</ele><time>2026-04-04T08:37:13Z</time></trkpt><trkpt lat="41.67140175739065" lon="13.362808265582073"><ele>228.33333333333331</ele><time>2026-04-04T08:37:14Z</time></trkpt><trkpt lat="41.67138894609426" lon="13.362565622796803"><ele>227.66666666666669</ele><time>2026-04-04T08:37:15Z</time></trkpt><trkpt lat="41.67137171467376" lon="13.362320428591271"><ele>227.0</ele><time>2026-04-04T08:37:16Z</time></trkpt><trkpt lat="41.67135384578584" lon="13.3620632976015"><ele>226.66666666666669</ele><time>2026-04-04T08:37:17Z</time></trkpt><trkpt lat="41.67133907863731" lon="13.361806959003795"><ele>226.33333333333331</ele><time>2026-04-04T08:37:18Z</time></trkpt><trkpt lat="41.67133689503064" lon="13.361560901124706"><ele>226.0</ele><time>2026-04-04T08:37:19Z</time></trkpt><trkpt lat="41.67133705166682" lon="13.361319961465451"><ele>226.66666666666666</ele><time>2026-04-04T08:37:20Z</time></trkpt><trkpt lat="41.67134089857028" lon="13.36109213180019"><ele>227.33333333333331</ele><time>2026-04-04T08:37:21Z</time></trkpt><trkpt lat="41.6713529403524" lon="13.360884302073375"><ele>228.0</ele><time>2026-04-04T08:37:22Z</time></trkpt><trkpt lat="41.67137398562541" lon="13.360704747425947"><ele>228.0</ele><time>2026-04-04T08:37:23Z</time></trkpt><trkpt lat="41.67140175495719" lon="13.360531665067692"><ele>228.0</ele><time>2026-04-04T08:37:24Z</time></trkpt><trkpt lat="41.67142983038601" lon="13.360371804219794"><ele>228.0</ele><time>2026-04-04T08:37:25Z</time></trkpt><trkpt lat="41.671457625132454" lon="13.360230067049818"><ele>228.0</ele><time>2026-04-04T08:37:26Z</time></trkpt><trkpt lat="41.67148547584665" lon="13.360080366545265"><ele>228.0</ele><time>2026-04-04T08:37:27Z</time></trkpt><trkpt lat="41.671513707992986" lon="13.35990963757525"><ele>228.0</ele><time>2026-04-04T08:37:28Z</time></trkpt><trkpt lat="41.671540895851216" lon="13.359717905579194"><ele>228.0</ele><time>2026-04-04T08:37:29Z</time></trkpt><trkpt lat="41.6715784127405" lon="13.359503231687507"><ele>228.0</ele><time>2026-04-04T08:37:30Z</time></trkpt><trkpt lat="41.671636079782694" lon="13.359285824397789"><ele>228.0</ele><time>2026-04-04T08:37:31Z</time></trkpt><trkpt lat="41.67169593052228" lon="13.359060089871866"><ele>228.0</ele><time>2026-04-04T08:37:32Z</time></trkpt><trkpt lat="41.6717475573443" lon="13.358882214338227"><ele>228.0</ele><time>2026-04-04T08:37:33Z</time></trkpt><trkpt lat="41.67179325827068" lon="13.358717413428739"><ele>228.0</ele><time>2026-04-04T08:37:34Z</time></trkpt><trkpt lat="41.671830772655056" lon="13.358573080097727"><ele>228.0</ele><time>2026-04-04T08:37:35Z</time></trkpt><trkpt lat="41.67186036442249" lon="13.358437706828248"><ele>228.0</ele><time>2026-04-04T08:37:36Z</time></trkpt><trkpt lat="41.67188772526267" lon="13.358317659917617"><ele>228.0</ele><time>2026-04-04T08:37:37Z</time></trkpt><trkpt lat="41.6719119263583" lon="13.358213319666946"><ele>228.0</ele><time>2026-04-04T08:37:38Z</time></trkpt><trkpt lat="41.671929192714735" lon="13.358110690168399"><ele>227.75</ele><time>2026-04-04T08:37:39Z</time></trkpt><trkpt lat="41.67195145288957" lon="13.357972494213943"><ele>227.5</ele><time>2026-04-04T08:37:40Z</time></trkpt><trkpt lat="41.67197599172138" lon="13.357804967037174"><ele>227.25</ele><time>2026-04-04T08:37:41Z</time></trkpt><trkpt lat="41.67200926964907" lon="13.357615578575654"><ele>227.0</ele><time>2026-04-04T08:37:42Z</time></trkpt><trkpt lat="41.672046591698994" lon="13.357405305872394"><ele>226.66666666666669</ele><time>2026-04-04T08:37:43Z</time></trkpt><trkpt lat="41.67208474279741" lon="13.357179506275415"><ele>226.33333333333331</ele><time>2026-04-04T08:37:44Z</time></trkpt><trkpt lat="41.6721488631335" lon="13.356948494482982"><ele>226.0</ele><time>2026-04-04T08:37:45Z</time></trkpt><trkpt lat="41.672226472738195" lon="13.35671918356785"><ele>226.0</ele><time>2026-04-04T08:37:46Z</time></trkpt><trkpt lat="41.67232555541959" lon="13.356480459686422"><ele>226.0</ele><time>2026-04-04T08:37:47Z</time></trkpt><trkpt lat="41.67241721232662" lon="13.356227332466373"><ele>226.0</ele><time>2026-04-04T08:37:48Z</time></trkpt><trkpt lat="41.67249602265031" lon="13.355945568400681"><ele>227.0</ele><time>2026-04-04T08:37:49Z</time></trkpt><trkpt lat="41.67256415435434" lon="13.355646788208132"><ele>228.0</ele><time>2026-04-04T08:37:50Z</time></trkpt><trkpt lat="41.67262706740665" lon="13.355339840143362"><ele>228.5</ele><time>2026-04-04T08:37:51Z</time></trkpt><trkpt lat="41.67268971268628" lon="13.35502928529251"><ele>229.0</ele><time>2026-04-04T08:37:52Z</time></trkpt><trkpt lat="41.67275446408813" lon="13.354720613058396"><ele>229.5</ele><time>2026-04-04T08:37:53Z</time></trkpt><trkpt lat="41.672827799351566" lon="13.354415015532089"><ele>230.0</ele><time>2026-04-04T08:37:54Z</time></trkpt><trkpt lat="41.67289636365433" lon="13.354110153627001"><ele>229.0</ele><time>2026-04-04T08:37:55Z</time></trkpt><trkpt lat="41.67295497741442" lon="13.353804204589325"><ele>228.0</ele><time>2026-04-04T08:37:56Z</time></trkpt><trkpt lat="41.672998357954576" lon="13.353503492890084"><ele>228.0</ele><time>2026-04-04T08:37:57Z</time></trkpt><trkpt lat="41.67303837040601" lon="13.353202716454934"><ele>228.0</ele><time>2026-04-04T08:37:58Z</time></trkpt><trkpt lat="41.673075499072766" lon="13.352906580592048"><ele>228.0</ele><time>2026-04-04T08:37:59Z</time></trkpt><trkpt lat="41.6730899008323" lon="13.35259747485645"><ele>228.0</ele><time>2026-04-04T08:38:00Z</time></trkpt><trkpt lat="41.6730856840032" lon="13.35228096403673"><ele>228.5</ele><time>2026-04-04T08:38:01Z</time></trkpt><trkpt lat="41.673075176669734" lon="13.35195561719468"><ele>229.0</ele><time>2026-04-04T08:38:02Z</time></trkpt><trkpt lat="41.67307203868368" lon="13.35165326990644"><ele>229.0</ele><time>2026-04-04T08:38:03Z</time></trkpt><trkpt lat="41.67308171351722" lon="13.351361830951712"><ele>229.0</ele><time>2026-04-04T08:38:04Z</time></trkpt><trkpt lat="41.67310825703259" lon="13.351065485819252"><ele>229.0</ele><time>2026-04-04T08:38:05Z</time></trkpt><trkpt lat="41.673154932923204" lon="13.350765634565551"><ele>229.0</ele><time>2026-04-04T08:38:06Z</time></trkpt><trkpt lat="41.67321108663394" lon="13.350460111881699"><ele>229.0</ele><time>2026-04-04T08:38:07Z</time></trkpt><trkpt lat="41.67327424027004" lon="13.350153025848703"><ele>229.0</ele><time>2026-04-04T08:38:08Z</time></trkpt><trkpt lat="41.673344559475396" lon="13.349844347516155"><ele>229.0</ele><time>2026-04-04T08:38:09Z</time></trkpt><trkpt lat="41.67341423934918" lon="13.349558124106169"><ele>228.66666666666666</ele><time>2026-04-04T08:38:10Z</time></trkpt><trkpt lat="41.67346815675344" lon="13.349273047916922"><ele>228.33333333333331</ele><time>2026-04-04T08:38:11Z</time></trkpt><trkpt lat="41.673520273428984" lon="13.349001922416372"><ele>228.0</ele><time>2026-04-04T08:38:12Z</time></trkpt><trkpt lat="41.67356788916071" lon="13.348757385452052"><ele>229.25</ele><time>2026-04-04T08:38:13Z</time></trkpt><trkpt lat="41.673605888717965" lon="13.34855012024458"><ele>230.5</ele><time>2026-04-04T08:38:14Z</time></trkpt><trkpt lat="41.67363970002441" lon="13.34837109233109"><ele>231.75</ele><time>2026-04-04T08:38:15Z</time></trkpt><trkpt lat="41.67367113939512" lon="13.34822484421939"><ele>233.0</ele><time>2026-04-04T08:38:16Z</time></trkpt><trkpt lat="41.67369366451608" lon="13.348107799138049"><ele>232.8</ele><time>2026-04-04T08:38:17.001Z</time></trkpt><trkpt lat="41.673714734716654" lon="13.347998975296807"><ele>232.60000000000002</ele><time>2026-04-04T08:38:19.001Z</time></trkpt><trkpt lat="41.67370301152784" lon="13.347887891647852"><ele>232.39999999999998</ele><time>2026-04-04T08:38:45Z</time></trkpt><trkpt lat="41.673641861724946" lon="13.347822127881834"><ele>232.2</ele><time>2026-04-04T08:38:46Z</time></trkpt><trkpt lat="41.67351815296169" lon="13.347802452555849"><ele>232.0</ele><time>2026-04-04T08:38:47Z</time></trkpt><trkpt lat="41.6733960586677" lon="13.347775064565848"><ele>231.5</ele><time>2026-04-04T08:38:48Z</time></trkpt><trkpt lat="41.673255727040974" lon="13.347737393331156"><ele>231.0</ele><time>2026-04-04T08:38:49Z</time></trkpt><trkpt lat="41.67310475993119" lon="13.347698631179735"><ele>230.5</ele><time>2026-04-04T08:38:50Z</time></trkpt><trkpt lat="41.67295776078062" lon="13.347667292245205"><ele>230.0</ele><time>2026-04-04T08:38:51Z</time></trkpt><trkpt lat="41.672827294946735" lon="13.34765944132127"><ele>229.75</ele><time>2026-04-04T08:38:52Z</time></trkpt><trkpt lat="41.67270747494201" lon="13.34766534305533"><ele>229.5</ele><time>2026-04-04T08:38:53Z</time></trkpt><trkpt lat="41.6725862743927" lon="13.347673400731676"><ele>229.25</ele><time>2026-04-04T08:38:54Z</time></trkpt><trkpt lat="41.67246432825276" lon="13.347682528147061"><ele>229.0</ele><time>2026-04-04T08:38:55Z</time></trkpt><trkpt lat="41.67234695163501" lon="13.34769454819"><ele>229.0</ele><time>2026-04-04T08:38:56Z</time></trkpt><trkpt lat="41.67223097604806" lon="13.347710378584534"><ele>228.99999999999997</ele><time>2026-04-04T08:38:57Z</time></trkpt><trkpt lat="41.67212162819897" lon="13.347724604939405"><ele>228.99999999999997</ele><time>2026-04-04T08:38:58Z</time></trkpt><trkpt lat="41.67201173793796" lon="13.347736002731763"><ele>229.0</ele><time>2026-04-04T08:38:59Z</time></trkpt><trkpt lat="41.671918150927894" lon="13.347737702426764"><ele>229.0</ele><time>2026-04-04T08:39:00Z</time></trkpt><trkpt lat="41.67184277313793" lon="13.347739185618506"><ele>228.83333333333331</ele><time>2026-04-04T08:39:02Z</time></trkpt><trkpt lat="41.671769082559614" lon="13.347741810477762"><ele>228.66666666666666</ele><time>2026-04-04T08:39:05Z</time></trkpt><trkpt lat="41.671705754158296" lon="13.347747801866307"><ele>228.5</ele><time>2026-04-04T08:39:10Z</time></trkpt><trkpt lat="41.67163460735311" lon="13.347758136821373"><ele>228.33333333333331</ele><time>2026-04-04T08:39:16Z</time></trkpt><trkpt lat="41.671551675609074" lon="13.347766221259732"><ele>228.16666666666666</ele><time>2026-04-04T08:39:19Z</time></trkpt><trkpt lat="41.671428554124" lon="13.347777487132008"><ele>228.0</ele><time>2026-04-04T08:39:21Z</time></trkpt><trkpt lat="41.67135839444675" lon="13.34778708886433"><ele>228.0</ele><time>2026-04-04T08:39:22Z</time></trkpt><trkpt lat="41.6712861827374" lon="13.347795895668481"><ele>228.0</ele><time>2026-04-04T08:39:23Z</time></trkpt><trkpt lat="41.67121066510024" lon="13.347781261251699"><ele>228.0</ele><time>2026-04-04T08:39:24Z</time></trkpt><trkpt lat="41.67110664911523" lon="13.347726238674303"><ele>228.0</ele><time>2026-04-04T08:39:26Z</time></trkpt><trkpt lat="41.671077106452145" lon="13.347497475759154"><ele>228.0</ele><time>2026-04-04T08:39:27Z</time></trkpt><trkpt lat="41.67106409677006" lon="13.347312423604684"><ele>227.0</ele><time>2026-04-04T08:39:28Z</time></trkpt><trkpt lat="41.67105249438879" lon="13.347116344249343"><ele>226.0</ele><time>2026-04-04T08:39:29Z</time></trkpt><trkpt lat="41.671041774256786" lon="13.346900154061107"><ele>225.0</ele><time>2026-04-04T08:39:30Z</time></trkpt><trkpt lat="41.67106262108977" lon="13.346709945298626"><ele>225.33333333333331</ele><time>2026-04-04T08:39:31Z</time></trkpt><trkpt lat="41.671122890606185" lon="13.346522388696126"><ele>225.66666666666666</ele><time>2026-04-04T08:39:32Z</time></trkpt><trkpt lat="41.67122242610284" lon="13.346349159966993"><ele>226.0</ele><time>2026-04-04T08:39:33Z</time></trkpt><trkpt lat="41.67136078008142" lon="13.346185495218133"><ele>225.33333333333331</ele><time>2026-04-04T08:39:34Z</time></trkpt><trkpt lat="41.67151577957883" lon="13.346031611465895"><ele>224.66666666666669</ele><time>2026-04-04T08:39:35Z</time></trkpt><trkpt lat="41.6716756814744" lon="13.345853066570825"><ele>224.0</ele><time>2026-04-04T08:39:36Z</time></trkpt><trkpt lat="41.671836300739265" lon="13.345660806725796"><ele>225.0</ele><time>2026-04-04T08:39:37Z</time></trkpt><trkpt lat="41.67198039585737" lon="13.345485842824697"><ele>226.0</ele><time>2026-04-04T08:39:38Z</time></trkpt><trkpt lat="41.67210496499922" lon="13.34534495102186"><ele>227.0</ele><time>2026-04-04T08:39:39Z</time></trkpt><trkpt lat="41.672226705807226" lon="13.345240321988777"><ele>227.0</ele><time>2026-04-04T08:39:40Z</time></trkpt><trkpt lat="41.67236312014303" lon="13.345181006091016"><ele>227.0</ele><time>2026-04-04T08:39:41Z</time></trkpt><trkpt lat="41.67252908916709" lon="13.34518486049145"><ele>227.0</ele><time>2026-04-04T08:39:42Z</time></trkpt><trkpt lat="41.67267647698395" lon="13.345238183045586"><ele>227.0</ele><time>2026-04-04T08:39:43Z</time></trkpt><trkpt lat="41.672851552324495" lon="13.34531227193411"><ele>227.0</ele><time>2026-04-04T08:39:44Z</time></trkpt><trkpt lat="41.673090984277884" lon="13.34540096755108"><ele>227.0</ele><time>2026-04-04T08:39:45Z</time></trkpt><trkpt lat="41.67328317318913" lon="13.345495338415757"><ele>227.25</ele><time>2026-04-04T08:39:46Z</time></trkpt><trkpt lat="41.6734168329795" lon="13.34555944273131"><ele>227.5</ele><time>2026-04-04T08:39:47Z</time></trkpt><trkpt lat="41.673512957912074" lon="13.345668457374485"><ele>227.75</ele><time>2026-04-04T08:39:48Z</time></trkpt><trkpt lat="41.67358289639016" lon="13.345806932913478"><ele>228.0</ele><time>2026-04-04T08:39:49Z</time></trkpt><trkpt lat="41.673643293280534" lon="13.345965681441628"><ele>228.0</ele><time>2026-04-04T08:39:50Z</time></trkpt><trkpt lat="41.67364564964667" lon="13.346128621675444"><ele>228.0</ele><time>2026-04-04T08:39:51Z</time></trkpt><trkpt lat="41.67361149084989" lon="13.346270473281056"><ele>228.0</ele><time>2026-04-04T08:39:52Z</time></trkpt><trkpt lat="41.673547978938664" lon="13.346404175411124"><ele>228.0</ele><time>2026-04-04T08:39:53Z</time></trkpt><trkpt lat="41.6734554934006" lon="13.346509313685166"><ele>228.25</ele><time>2026-04-04T08:39:54Z</time></trkpt><trkpt lat="41.67334414640983" lon="13.346581625060676"><ele>228.5</ele><time>2026-04-04T08:39:55Z</time></trkpt><trkpt lat="41.67321101162724" lon="13.346610342296042"><ele>228.75</ele><time>2026-04-04T08:39:56Z</time></trkpt><trkpt lat="41.673070116336156" lon="13.346560179815222"><ele>229.0</ele><time>2026-04-04T08:39:57Z</time></trkpt><trkpt lat="41.6729606972732" lon="13.346454825140311"><ele>228.75</ele><time>2026-04-04T08:39:58Z</time></trkpt><trkpt lat="41.67288786829342" lon="13.346298717320106"><ele>228.5</ele><time>2026-04-04T08:39:59Z</time></trkpt><trkpt lat="41.67285507084954" lon="13.346104968168543"><ele>228.25</ele><time>2026-04-04T08:40:00Z</time></trkpt><trkpt lat="41.67287274403421" lon="13.345898589807597"><ele>228.0</ele><time>2026-04-04T08:40:01Z</time></trkpt><trkpt lat="41.67293015503125" lon="13.345665247406318"><ele>227.66666666666669</ele><time>2026-04-04T08:40:02Z</time></trkpt><trkpt lat="41.6730172388606" lon="13.345383544328957"><ele>227.33333333333334</ele><time>2026-04-04T08:40:03Z</time></trkpt><trkpt lat="41.673081707132326" lon="13.34511039331191"><ele>227.0</ele><time>2026-04-04T08:40:04Z</time></trkpt><trkpt lat="41.67314321239026" lon="13.344828694304116"><ele>227.0</ele><time>2026-04-04T08:40:05Z</time></trkpt><trkpt lat="41.673197050104214" lon="13.344529184104815"><ele>227.0</ele><time>2026-04-04T08:40:06Z</time></trkpt><trkpt lat="41.67324182847697" lon="13.344211757983027"><ele>227.5</ele><time>2026-04-04T08:40:07Z</time></trkpt><trkpt lat="41.67330064002835" lon="13.343831114142754"><ele>228.0</ele><time>2026-04-04T08:40:08Z</time></trkpt><trkpt lat="41.67336415587352" lon="13.343428120207308"><ele>227.0</ele><time>2026-04-04T08:40:09Z</time></trkpt><trkpt lat="41.673431557669254" lon="13.343001277660084"><ele>226.0</ele><time>2026-04-04T08:40:10Z</time></trkpt><trkpt lat="41.673497792715814" lon="13.342551702596937"><ele>227.0</ele><time>2026-04-04T08:40:11Z</time></trkpt><trkpt lat="41.673547741467566" lon="13.342066488443974"><ele>228.0</ele><time>2026-04-04T08:40:12Z</time></trkpt><trkpt lat="41.67358754860786" lon="13.341580725587272"><ele>227.5</ele><time>2026-04-04T08:40:13Z</time></trkpt><trkpt lat="41.673614167801745" lon="13.34108033852344"><ele>227.0</ele><time>2026-04-04T08:40:14Z</time></trkpt><trkpt lat="41.67362829803502" lon="13.340564516149437"><ele>227.0</ele><time>2026-04-04T08:40:15Z</time></trkpt><trkpt lat="41.673639748111746" lon="13.340053941767108"><ele>227.0</ele><time>2026-04-04T08:40:16Z</time></trkpt><trkpt lat="41.67363977405296" lon="13.339538475573383"><ele>227.0</ele><time>2026-04-04T08:40:17Z</time></trkpt><trkpt lat="41.67362935898298" lon="13.339026068889792"><ele>227.0</ele><time>2026-04-04T08:40:18Z</time></trkpt><trkpt lat="41.67361545284803" lon="13.338513507047388"><ele>231.0</ele><time>2026-04-04T08:40:19Z</time></trkpt><trkpt lat="41.673598416774" lon="13.338003583290655"><ele>235.0</ele><time>2026-04-04T08:40:20Z</time></trkpt><trkpt lat="41.673579082113434" lon="13.337495790795382"><ele>237.0</ele><time>2026-04-04T08:40:21Z</time></trkpt><trkpt lat="41.67356282717765" lon="13.336989014611973"><ele>239.0</ele><time>2026-04-04T08:40:22.001Z</time></trkpt><trkpt lat="41.673543195601056" lon="13.336489998260511"><ele>242.0</ele><time>2026-04-04T08:40:23.001Z</time></trkpt><trkpt lat="41.673522613196376" lon="13.335989190166641"><ele>245.0</ele><time>2026-04-04T08:40:24.001Z</time></trkpt><trkpt lat="41.673492373293755" lon="13.335492792569296"><ele>247.0</ele><time>2026-04-04T08:40:25.001Z</time></trkpt><trkpt lat="41.6734467939805" lon="13.334998313550004"><ele>249.0</ele><time>2026-04-04T08:40:26.001Z</time></trkpt><trkpt lat="41.67337925838442" lon="13.334517361855362"><ele>250.0</ele><time>2026-04-04T08:40:27.001Z</time></trkpt><trkpt lat="41.673303710128465" lon="13.334038006283928"><ele>251.0</ele><time>2026-04-04T08:40:28.001Z</time></trkpt><trkpt lat="41.67321776436517" lon="13.333570057387536"><ele>253.5</ele><time>2026-04-04T08:40:29.001Z</time></trkpt><trkpt lat="41.673109968020995" lon="13.333113158874285"><ele>256.0</ele><time>2026-04-04T08:40:30.001Z</time></trkpt><trkpt lat="41.67299223655462" lon="13.332668569451814"><ele>257.0</ele><time>2026-04-04T08:40:31.001Z</time></trkpt><trkpt lat="41.67286576084603" lon="13.332235680425608"><ele>258.0</ele><time>2026-04-04T08:40:32.001Z</time></trkpt><trkpt lat="41.67273453235899" lon="13.331807053212444"><ele>262.0</ele><time>2026-04-04T08:40:33.001Z</time></trkpt><trkpt lat="41.67259819327233" lon="13.331381865012519"><ele>266.0</ele><time>2026-04-04T08:40:34.001Z</time></trkpt><trkpt lat="41.67245871343092" lon="13.330951403762715"><ele>264.0</ele><time>2026-04-04T08:40:35.001Z</time></trkpt><trkpt lat="41.672328790690145" lon="13.330527067376067"><ele>262.0</ele><time>2026-04-04T08:40:36.001Z</time></trkpt><trkpt lat="41.67219587113489" lon="13.330089138703022"><ele>262.0</ele><time>2026-04-04T08:40:37Z</time></trkpt><trkpt lat="41.672063710948386" lon="13.329651370885278"><ele>262.0</ele><time>2026-04-04T08:40:38Z</time></trkpt><trkpt lat="41.67192808769664" lon="13.329216118556687"><ele>261.0</ele><time>2026-04-04T08:40:39Z</time></trkpt><trkpt lat="41.671788405721045" lon="13.328784066633107"><ele>260.0</ele><time>2026-04-04T08:40:40Z</time></trkpt><trkpt lat="41.67165222438668" lon="13.328358332510076"><ele>258.0</ele><time>2026-04-04T08:40:41Z</time></trkpt><trkpt lat="41.67151612714277" lon="13.327938344779758"><ele>256.0</ele><time>2026-04-04T08:40:42Z</time></trkpt><trkpt lat="41.67138985068928" lon="13.327537298548368"><ele>257.0</ele><time>2026-04-04T08:40:43Z</time></trkpt><trkpt lat="41.67127195222174" lon="13.32715640303803"><ele>258.0</ele><time>2026-04-04T08:40:44Z</time></trkpt><trkpt lat="41.671150423467864" lon="13.326768062923597"><ele>258.5</ele><time>2026-04-04T08:40:45Z</time></trkpt><trkpt lat="41.671015891859426" lon="13.326352170613626"><ele>259.0</ele><time>2026-04-04T08:40:46Z</time></trkpt><trkpt lat="41.67087905661639" lon="13.32592295077954"><ele>260.0</ele><time>2026-04-04T08:40:47Z</time></trkpt><trkpt lat="41.67073374681097" lon="13.325477805490403"><ele>261.0</ele><time>2026-04-04T08:40:48Z</time></trkpt><trkpt lat="41.67058699444565" lon="13.325017613887896"><ele>262.0</ele><time>2026-04-04T08:40:49Z</time></trkpt><trkpt lat="41.670435988491036" lon="13.324540708417164"><ele>263.0</ele><time>2026-04-04T08:40:50Z</time></trkpt><trkpt lat="41.670284080358414" lon="13.324050589193403"><ele>261.5</ele><time>2026-04-04T08:40:51Z</time></trkpt><trkpt lat="41.67014449045398" lon="13.323543977075534"><ele>260.0</ele><time>2026-04-04T08:40:52Z</time></trkpt><trkpt lat="41.67001640179644" lon="13.323015091753179"><ele>258.0</ele><time>2026-04-04T08:40:53Z</time></trkpt><trkpt lat="41.669906288639396" lon="13.322473210739506"><ele>256.0</ele><time>2026-04-04T08:40:54Z</time></trkpt><trkpt lat="41.66982195171944" lon="13.321915193149911"><ele>253.0</ele><time>2026-04-04T08:40:55Z</time></trkpt><trkpt lat="41.669756906383114" lon="13.321349714869154"><ele>250.0</ele><time>2026-04-04T08:40:56Z</time></trkpt><trkpt lat="41.6697175268925" lon="13.320813161440299"><ele>248.0</ele><time>2026-04-04T08:40:57Z</time></trkpt><trkpt lat="41.66969124617543" lon="13.320330469536055"><ele>246.0</ele><time>2026-04-04T08:40:58Z</time></trkpt><trkpt lat="41.66967963803807" lon="13.319875208410014"><ele>243.0</ele><time>2026-04-04T08:40:59Z</time></trkpt><trkpt lat="41.66968649540329" lon="13.319429003885304"><ele>240.0</ele><time>2026-04-04T08:41:00Z</time></trkpt><trkpt lat="41.66970842794148" lon="13.318984563244305"><ele>240.0</ele><time>2026-04-04T08:41:01Z</time></trkpt><trkpt lat="41.6697405414577" lon="13.318544810429655"><ele>240.0</ele><time>2026-04-04T08:41:02Z</time></trkpt><trkpt lat="41.669784429535454" lon="13.318109030181153"><ele>241.5</ele><time>2026-04-04T08:41:03Z</time></trkpt><trkpt lat="41.66983394157479" lon="13.317676906172183"><ele>243.0</ele><time>2026-04-04T08:41:04Z</time></trkpt><trkpt lat="41.66988819116565" lon="13.31724488619925"><ele>244.5</ele><time>2026-04-04T08:41:05Z</time></trkpt><trkpt lat="41.669948010192684" lon="13.31680441284636"><ele>246.0</ele><time>2026-04-04T08:41:06Z</time></trkpt><trkpt lat="41.670010306173815" lon="13.316391266195273"><ele>246.0</ele><time>2026-04-04T08:41:07Z</time></trkpt><trkpt lat="41.6700706812791" lon="13.316027068368218"><ele>246.0</ele><time>2026-04-04T08:41:08Z</time></trkpt><trkpt lat="41.67012562451876" lon="13.315682157074782"><ele>246.0</ele><time>2026-04-04T08:41:09Z</time></trkpt><trkpt lat="41.67017993117973" lon="13.315341142816074"><ele>246.0</ele><time>2026-04-04T08:41:10Z</time></trkpt><trkpt lat="41.67022908951155" lon="13.315021931638219"><ele>245.66666666666669</ele><time>2026-04-04T08:41:11Z</time></trkpt><trkpt lat="41.670271096376744" lon="13.314735480483263"><ele>245.33333333333334</ele><time>2026-04-04T08:41:12Z</time></trkpt><trkpt lat="41.670310448522564" lon="13.314471471777958"><ele>245.0</ele><time>2026-04-04T08:41:13Z</time></trkpt><trkpt lat="41.67035732977085" lon="13.314236762804986"><ele>245.0</ele><time>2026-04-04T08:41:14Z</time></trkpt><trkpt lat="41.670417436061406" lon="13.314040656274138"><ele>245.0</ele><time>2026-04-04T08:41:15Z</time></trkpt><trkpt lat="41.67050492151613" lon="13.313879762680052"><ele>245.0</ele><time>2026-04-04T08:41:16Z</time></trkpt><trkpt lat="41.67061210927708" lon="13.31374212121172"><ele>244.25</ele><time>2026-04-04T08:41:17Z</time></trkpt><trkpt lat="41.67072306650861" lon="13.31363811356649"><ele>243.5</ele><time>2026-04-04T08:41:18Z</time></trkpt><trkpt lat="41.67083293532687" lon="13.313541947722504"><ele>242.75</ele><time>2026-04-04T08:41:19Z</time></trkpt><trkpt lat="41.67095186501069" lon="13.313425362700226"><ele>242.0</ele><time>2026-04-04T08:41:20Z</time></trkpt><trkpt lat="41.67107314501709" lon="13.313292951786739"><ele>242.39999999999998</ele><time>2026-04-04T08:41:21Z</time></trkpt><trkpt lat="41.671178002189244" lon="13.313169986156504"><ele>242.79999999999998</ele><time>2026-04-04T08:41:22Z</time></trkpt><trkpt lat="41.67126423934405" lon="13.31307507618307"><ele>243.2</ele><time>2026-04-04T08:41:23Z</time></trkpt><trkpt lat="41.671324697514706" lon="13.313014246994193"><ele>243.6</ele><time>2026-04-04T08:41:24Z</time></trkpt><trkpt lat="41.671377259260204" lon="13.312952398923638"><ele>244.0</ele><time>2026-04-04T08:41:26Z</time></trkpt><trkpt lat="41.67137962357004" lon="13.312855650543552"><ele>244.0</ele><time>2026-04-04T08:41:38Z</time></trkpt><trkpt lat="41.67133765742541" lon="13.312736593243645"><ele>244.0</ele><time>2026-04-04T08:41:39Z</time></trkpt><trkpt lat="41.671243439551745" lon="13.312574531971887"><ele>244.0</ele><time>2026-04-04T08:41:40Z</time></trkpt><trkpt lat="41.67112895229237" lon="13.312390616510937"><ele>244.0</ele><time>2026-04-04T08:41:41Z</time></trkpt><trkpt lat="41.67101515591185" lon="13.312204265357773"><ele>242.66666666666666</ele><time>2026-04-04T08:41:42Z</time></trkpt><trkpt lat="41.67090377887889" lon="13.312001406352374"><ele>241.33333333333331</ele><time>2026-04-04T08:41:43Z</time></trkpt><trkpt lat="41.67078739521354" lon="13.311785653622193"><ele>240.0</ele><time>2026-04-04T08:41:44Z</time></trkpt><trkpt lat="41.670664797904976" lon="13.311565340424512"><ele>239.66666666666669</ele><time>2026-04-04T08:41:45Z</time></trkpt><trkpt lat="41.67054522124451" lon="13.311331066944975"><ele>239.33333333333334</ele><time>2026-04-04T08:41:46Z</time></trkpt><trkpt lat="41.67043479574823" lon="13.31107900961473"><ele>239.0</ele><time>2026-04-04T08:41:47Z</time></trkpt><trkpt lat="41.67032425497471" lon="13.310836616692116"><ele>238.0</ele><time>2026-04-04T08:41:48Z</time></trkpt><trkpt lat="41.67020340776496" lon="13.310623336632815"><ele>237.0</ele><time>2026-04-04T08:41:49Z</time></trkpt><trkpt lat="41.67009989749705" lon="13.310425119098651"><ele>236.0</ele><time>2026-04-04T08:41:50Z</time></trkpt><trkpt lat="41.67001108457287" lon="13.310218781636069"><ele>235.66666666666669</ele><time>2026-04-04T08:41:51Z</time></trkpt><trkpt lat="41.66990990830192" lon="13.309987795140099"><ele>235.33333333333331</ele><time>2026-04-04T08:41:52Z</time></trkpt><trkpt lat="41.66980249767424" lon="13.309739666688174"><ele>235.0</ele><time>2026-04-04T08:41:53Z</time></trkpt><trkpt lat="41.66969251250254" lon="13.309475747830371"><ele>235.0</ele><time>2026-04-04T08:41:54Z</time></trkpt><trkpt lat="41.66957001757285" lon="13.309190161731978"><ele>235.0</ele><time>2026-04-04T08:41:55Z</time></trkpt><trkpt lat="41.669432007342564" lon="13.30887317256298"><ele>234.0</ele><time>2026-04-04T08:41:56Z</time></trkpt><trkpt lat="41.669316320569166" lon="13.308566922214476"><ele>233.0</ele><time>2026-04-04T08:41:57Z</time></trkpt><trkpt lat="41.66921681533868" lon="13.308287136350616"><ele>233.0</ele><time>2026-04-04T08:41:58Z</time></trkpt><trkpt lat="41.66910765680867" lon="13.308020779505913"><ele>233.0</ele><time>2026-04-04T08:41:59Z</time></trkpt><trkpt lat="41.669005015880465" lon="13.307785903064929"><ele>233.0</ele><time>2026-04-04T08:42:00Z</time></trkpt><trkpt lat="41.66891304210632" lon="13.307566664027549"><ele>233.0</ele><time>2026-04-04T08:42:01Z</time></trkpt><trkpt lat="41.6688253532749" lon="13.307354921477009"><ele>233.0</ele><time>2026-04-04T08:42:02Z</time></trkpt><trkpt lat="41.668741429934386" lon="13.307146793817324"><ele>233.0</ele><time>2026-04-04T08:42:03Z</time></trkpt><trkpt lat="41.66865518338951" lon="13.306949038963204"><ele>233.33333333333334</ele><time>2026-04-04T08:42:04Z</time></trkpt><trkpt lat="41.66857104106886" lon="13.306721850611773"><ele>233.66666666666669</ele><time>2026-04-04T08:42:05Z</time></trkpt><trkpt lat="41.66846111564578" lon="13.306454967534995"><ele>234.0</ele><time>2026-04-04T08:42:06Z</time></trkpt><trkpt lat="41.66833228226811" lon="13.306169009585972"><ele>234.0</ele><time>2026-04-04T08:42:07Z</time></trkpt><trkpt lat="41.66821547606428" lon="13.305860426373053"><ele>234.0</ele><time>2026-04-04T08:42:08Z</time></trkpt><trkpt lat="41.668098247708265" lon="13.305568900108184"><ele>234.0</ele><time>2026-04-04T08:42:09Z</time></trkpt><trkpt lat="41.667979493898684" lon="13.305283464048243"><ele>234.0</ele><time>2026-04-04T08:42:10Z</time></trkpt><trkpt lat="41.667868033521664" lon="13.305006836781631"><ele>232.0</ele><time>2026-04-04T08:42:11Z</time></trkpt><trkpt lat="41.66776267145327" lon="13.304738115347286"><ele>230.0</ele><time>2026-04-04T08:42:12Z</time></trkpt><trkpt lat="41.667671050048426" lon="13.304465959261654"><ele>230.0</ele><time>2026-04-04T08:42:13Z</time></trkpt><trkpt lat="41.66760244860504" lon="13.304171953634523"><ele>230.0</ele><time>2026-04-04T08:42:14Z</time></trkpt><trkpt lat="41.66755406060124" lon="13.303833297127666"><ele>229.0</ele><time>2026-04-04T08:42:15Z</time></trkpt><trkpt lat="41.66750213911264" lon="13.303470730547053"><ele>228.0</ele><time>2026-04-04T08:42:16Z</time></trkpt><trkpt lat="41.667451761222175" lon="13.30315562617584"><ele>227.33333333333331</ele><time>2026-04-04T08:42:17Z</time></trkpt><trkpt lat="41.66738042253246" lon="13.302874981254785"><ele>226.66666666666666</ele><time>2026-04-04T08:42:18Z</time></trkpt><trkpt lat="41.667282092750035" lon="13.302627618827165"><ele>226.0</ele><time>2026-04-04T08:42:19Z</time></trkpt><trkpt lat="41.667159786740335" lon="13.302384713580443"><ele>225.33333333333331</ele><time>2026-04-04T08:42:20Z</time></trkpt><trkpt lat="41.66704530037666" lon="13.302154182365538"><ele>224.66666666666669</ele><time>2026-04-04T08:42:21Z</time></trkpt><trkpt lat="41.66694507282227" lon="13.301946016364045"><ele>224.0</ele><time>2026-04-04T08:42:22Z</time></trkpt><trkpt lat="41.6668599216409" lon="13.30177124442002"><ele>223.79999999999998</ele><time>2026-04-04T08:42:23Z</time></trkpt><trkpt lat="41.666789233974264" lon="13.301628630565462"><ele>223.59999999999997</ele><time>2026-04-04T08:42:24Z</time></trkpt><trkpt lat="41.66672712927157" lon="13.301509494576326"><ele>223.4</ele><time>2026-04-04T08:42:25Z</time></trkpt><trkpt lat="41.66667969965424" lon="13.301415273333708"><ele>223.2</ele><time>2026-04-04T08:42:26Z</time></trkpt><trkpt lat="41.66663047559133" lon="13.301329723458236"><ele>223.0</ele><time>2026-04-04T08:42:27Z</time></trkpt><trkpt lat="41.66659049788974" lon="13.301264440578"><ele>223.0</ele><time>2026-04-04T08:42:28Z</time></trkpt><trkpt lat="41.66654201450078" lon="13.301208830947614"><ele>223.0</ele><time>2026-04-04T08:42:30Z</time></trkpt><trkpt lat="41.66646019836297" lon="13.301178734284584"><ele>223.0</ele><time>2026-04-04T08:42:48Z</time></trkpt><trkpt lat="41.66635157877552" lon="13.301221753007816"><ele>223.0</ele><time>2026-04-04T08:42:49Z</time></trkpt><trkpt lat="41.66625769086207" lon="13.301380445542746"><ele>223.0</ele><time>2026-04-04T08:42:50Z</time></trkpt><trkpt lat="41.66613319757359" lon="13.301555850630542"><ele>221.0</ele><time>2026-04-04T08:42:51Z</time></trkpt><trkpt lat="41.665998288902166" lon="13.30175873202688"><ele>219.0</ele><time>2026-04-04T08:42:52Z</time></trkpt><trkpt lat="41.66583134734785" lon="13.301962629784835"><ele>217.0</ele><time>2026-04-04T08:42:53Z</time></trkpt><trkpt lat="41.66565128176159" lon="13.30220111814083"><ele>217.0</ele><time>2026-04-04T08:42:54Z</time></trkpt><trkpt lat="41.66546213129175" lon="13.302439753842439"><ele>217.0</ele><time>2026-04-04T08:42:55Z</time></trkpt><trkpt lat="41.66527176790422" lon="13.302675088354489"><ele>217.0</ele><time>2026-04-04T08:42:56Z</time></trkpt><trkpt lat="41.66508768685072" lon="13.302925970691803"><ele>217.0</ele><time>2026-04-04T08:42:57Z</time></trkpt><trkpt lat="41.66488254567498" lon="13.303141498985722"><ele>218.0</ele><time>2026-04-04T08:42:58Z</time></trkpt><trkpt lat="41.6646789633476" lon="13.30338978970316"><ele>219.0</ele><time>2026-04-04T08:42:59Z</time></trkpt><trkpt lat="41.66449114925801" lon="13.303702942438969"><ele>218.0</ele><time>2026-04-04T08:43:00Z</time></trkpt><trkpt lat="41.66429007399343" lon="13.304040276564361"><ele>217.0</ele><time>2026-04-04T08:43:01Z</time></trkpt><trkpt lat="41.664088386787085" lon="13.304381177349335"><ele>217.0</ele><time>2026-04-04T08:43:02Z</time></trkpt><trkpt lat="41.663905152454326" lon="13.304684560735014"><ele>217.0</ele><time>2026-04-04T08:43:03Z</time></trkpt><trkpt lat="41.66373478058941" lon="13.304975035979634"><ele>216.0</ele><time>2026-04-04T08:43:04Z</time></trkpt><trkpt lat="41.66355796680618" lon="13.305231948955239"><ele>215.0</ele><time>2026-04-04T08:43:05Z</time></trkpt><trkpt lat="41.66341738267296" lon="13.305498745949093"><ele>214.33333333333334</ele><time>2026-04-04T08:43:06Z</time></trkpt><trkpt lat="41.66326094637542" lon="13.30572362108151"><ele>213.66666666666669</ele><time>2026-04-04T08:43:07Z</time></trkpt><trkpt lat="41.66314462176746" lon="13.305949513994229"><ele>213.0</ele><time>2026-04-04T08:43:08Z</time></trkpt><trkpt lat="41.663009972154974" lon="13.306136004894386"><ele>213.0</ele><time>2026-04-04T08:43:09Z</time></trkpt><trkpt lat="41.6628967196362" lon="13.306328624241164"><ele>213.0</ele><time>2026-04-04T08:43:10Z</time></trkpt><trkpt lat="41.66279585132717" lon="13.306504924820407"><ele>213.0</ele><time>2026-04-04T08:43:11Z</time></trkpt><trkpt lat="41.66270630239708" lon="13.306668925744477"><ele>212.2</ele><time>2026-04-04T08:43:12Z</time></trkpt><trkpt lat="41.66264213927046" lon="13.3068320455488"><ele>211.4</ele><time>2026-04-04T08:43:13Z</time></trkpt><trkpt lat="41.66256540146202" lon="13.306951643009763"><ele>210.6</ele><time>2026-04-04T08:43:14Z</time></trkpt><trkpt lat="41.66251815907766" lon="13.307053509343293"><ele>209.79999999999998</ele><time>2026-04-04T08:43:15Z</time></trkpt><trkpt lat="41.66248663311485" lon="13.307144782922174"><ele>209.0</ele><time>2026-04-04T08:43:16Z</time></trkpt><trkpt lat="41.66238237387376" lon="13.307193728318087"><ele>209.00000000000003</ele><time>2026-04-04T08:43:18Z</time></trkpt><trkpt lat="41.662308403397745" lon="13.307184250883306"><ele>209.0</ele><time>2026-04-04T08:43:19Z</time></trkpt><trkpt lat="41.66221695167467" lon="13.307184768728517"><ele>209.0</ele><time>2026-04-04T08:43:20Z</time></trkpt><trkpt lat="41.66214469053395" lon="13.307197198466378"><ele>209.0</ele><time>2026-04-04T08:43:21Z</time></trkpt><trkpt lat="41.66204512833168" lon="13.30718405358441"><ele>209.00000000000003</ele><time>2026-04-04T08:43:23Z</time></trkpt><trkpt lat="41.66198678173307" lon="13.307218213115396"><ele>209.0</ele><time>2026-04-04T08:46:03Z</time></trkpt><trkpt lat="41.66210486653198" lon="13.307255728298232"><ele>209.00000000000003</ele><time>2026-04-04T08:57:39Z</time></trkpt><trkpt lat="41.66218987125451" lon="13.307246426726847"><ele>209.0</ele><time>2026-04-04T08:57:41Z</time></trkpt><trkpt lat="41.66228147026478" lon="13.307260120057208"><ele>209.0</ele><time>2026-04-04T08:57:44Z</time></trkpt><trkpt lat="41.66236079687631" lon="13.307275962606706"><ele>209.0</ele><time>2026-04-04T08:57:47Z</time></trkpt><trkpt lat="41.662405742375114" lon="13.307344254425685"><ele>209.00000000000003</ele><time>2026-04-04T08:58:06Z</time></trkpt><trkpt lat="41.66235275489583" lon="13.307461727250745"><ele>209.0</ele><time>2026-04-04T08:58:08Z</time></trkpt><trkpt lat="41.66231342411807" lon="13.307544936430256"><ele>209.00000000000003</ele><time>2026-04-04T08:58:09Z</time></trkpt><trkpt lat="41.66227595210209" lon="13.30765268426886"><ele>209.0</ele><time>2026-04-04T08:58:10Z</time></trkpt><trkpt lat="41.66223624911665" lon="13.307753126310399"><ele>209.0</ele><time>2026-04-04T08:58:11Z</time></trkpt><trkpt lat="41.662184983895486" lon="13.307853460663845"><ele>209.0</ele><time>2026-04-04T08:58:12Z</time></trkpt><trkpt lat="41.66213757762052" lon="13.30795371272477"><ele>209.00000000000003</ele><time>2026-04-04T08:58:13Z</time></trkpt><trkpt lat="41.66209322379303" lon="13.308051507880814"><ele>209.0</ele><time>2026-04-04T08:58:14Z</time></trkpt><trkpt lat="41.66204686290426" lon="13.308162781453897"><ele>208.5</ele><time>2026-04-04T08:58:15Z</time></trkpt><trkpt lat="41.6619935842" lon="13.308292005081341"><ele>208.0</ele><time>2026-04-04T08:58:16Z</time></trkpt><trkpt lat="41.661935621265684" lon="13.308433222494118"><ele>207.5</ele><time>2026-04-04T08:58:17Z</time></trkpt><trkpt lat="41.66187391214291" lon="13.3085851158034"><ele>207.0</ele><time>2026-04-04T08:58:18Z</time></trkpt><trkpt lat="41.661812176809036" lon="13.308722747516722"><ele>207.0</ele><time>2026-04-04T08:58:19Z</time></trkpt><trkpt lat="41.66175097407179" lon="13.308860819271912"><ele>207.0</ele><time>2026-04-04T08:58:20Z</time></trkpt><trkpt lat="41.661690363899496" lon="13.309004307926191"><ele>207.0</ele><time>2026-04-04T08:58:21Z</time></trkpt><trkpt lat="41.66162745672854" lon="13.309160718294063"><ele>207.0</ele><time>2026-04-04T08:58:22Z</time></trkpt><trkpt lat="41.661559099380014" lon="13.309328755941198"><ele>205.75</ele><time>2026-04-04T08:58:23Z</time></trkpt><trkpt lat="41.66149118029705" lon="13.309491780605825"><ele>204.5</ele><time>2026-04-04T08:58:24Z</time></trkpt><trkpt lat="41.661418822608354" lon="13.30965943337563"><ele>203.25</ele><time>2026-04-04T08:58:25Z</time></trkpt><trkpt lat="41.66134911460602" lon="13.309830615810618"><ele>202.0</ele><time>2026-04-04T08:58:26Z</time></trkpt><trkpt lat="41.6612866954007" lon="13.30998492568439"><ele>201.0</ele><time>2026-04-04T08:58:27Z</time></trkpt><trkpt lat="41.66122537586054" lon="13.310134865842048"><ele>200.0</ele><time>2026-04-04T08:58:28Z</time></trkpt><trkpt lat="41.66115869289057" lon="13.310286901683138"><ele>199.0</ele><time>2026-04-04T08:58:29Z</time></trkpt><trkpt lat="41.66108782442832" lon="13.310448872520947"><ele>198.0</ele><time>2026-04-04T08:58:30Z</time></trkpt><trkpt lat="41.66101730045708" lon="13.310617196097521"><ele>197.0</ele><time>2026-04-04T08:58:31Z</time></trkpt><trkpt lat="41.66094625590056" lon="13.310780929213914"><ele>196.0</ele><time>2026-04-04T08:58:32Z</time></trkpt><trkpt lat="41.66087572082284" lon="13.310946039204078"><ele>195.0</ele><time>2026-04-04T08:58:33Z</time></trkpt><trkpt lat="41.660801624733494" lon="13.311119048662842"><ele>194.0</ele><time>2026-04-04T08:58:34Z</time></trkpt><trkpt lat="41.660725171457564" lon="13.311296372120097"><ele>193.66666666666669</ele><time>2026-04-04T08:58:35Z</time></trkpt><trkpt lat="41.660650411420356" lon="13.311475173394395"><ele>193.33333333333331</ele><time>2026-04-04T08:58:36Z</time></trkpt><trkpt lat="41.660576381594886" lon="13.311653302907988"><ele>193.0</ele><time>2026-04-04T08:58:37Z</time></trkpt><trkpt lat="41.66050214603521" lon="13.311829753617268"><ele>193.0</ele><time>2026-04-04T08:58:38Z</time></trkpt><trkpt lat="41.66042843627279" lon="13.312005526195613"><ele>193.0</ele><time>2026-04-04T08:58:39Z</time></trkpt><trkpt lat="41.66035351135597" lon="13.312179733094661"><ele>193.0</ele><time>2026-04-04T08:58:40Z</time></trkpt><trkpt lat="41.66027865302067" lon="13.312356424057228"><ele>192.66666666666666</ele><time>2026-04-04T08:58:41Z</time></trkpt><trkpt lat="41.660203254377244" lon="13.312536375678762"><ele>192.33333333333331</ele><time>2026-04-04T08:58:42Z</time></trkpt><trkpt lat="41.66012525180649" lon="13.312715946332267"><ele>192.0</ele><time>2026-04-04T08:58:43Z</time></trkpt><trkpt lat="41.660050678099566" lon="13.31289514076702"><ele>192.0</ele><time>2026-04-04T08:58:44Z</time></trkpt><trkpt lat="41.65997727978834" lon="13.313070393091914"><ele>192.0</ele><time>2026-04-04T08:58:45Z</time></trkpt><trkpt lat="41.65990222587282" lon="13.31324221742541"><ele>192.0</ele><time>2026-04-04T08:58:46Z</time></trkpt><trkpt lat="41.659828713034564" lon="13.313412002570566"><ele>192.0</ele><time>2026-04-04T08:58:47Z</time></trkpt><trkpt lat="41.6597562463216" lon="13.31358665949894"><ele>193.0</ele><time>2026-04-04T08:58:48Z</time></trkpt><trkpt lat="41.65968097164013" lon="13.313763876785288"><ele>194.0</ele><time>2026-04-04T08:58:49Z</time></trkpt><trkpt lat="41.65960574662332" lon="13.313944851105953"><ele>195.0</ele><time>2026-04-04T08:58:50Z</time></trkpt><trkpt lat="41.65952714958837" lon="13.314131913075705"><ele>194.66666666666669</ele><time>2026-04-04T08:58:51Z</time></trkpt><trkpt lat="41.65944889022866" lon="13.314320913767723"><ele>194.33333333333334</ele><time>2026-04-04T08:58:52Z</time></trkpt><trkpt lat="41.65937106604585" lon="13.314511490184255"><ele>194.0</ele><time>2026-04-04T08:58:53Z</time></trkpt><trkpt lat="41.65928920987121" lon="13.314708660575224"><ele>194.66666666666669</ele><time>2026-04-04T08:58:54Z</time></trkpt><trkpt lat="41.65920392634598" lon="13.314904694504241"><ele>195.33333333333331</ele><time>2026-04-04T08:58:55Z</time></trkpt><trkpt lat="41.65911913948133" lon="13.315100931200753"><ele>196.0</ele><time>2026-04-04T08:58:56Z</time></trkpt><trkpt lat="41.659035774549984" lon="13.315291233902906"><ele>196.0</ele><time>2026-04-04T08:58:57Z</time></trkpt><trkpt lat="41.65895350368685" lon="13.315478186587493"><ele>196.0</ele><time>2026-04-04T08:58:58Z</time></trkpt><trkpt lat="41.658870035761055" lon="13.315664795709212"><ele>196.0</ele><time>2026-04-04T08:58:59Z</time></trkpt><trkpt lat="41.65878574579468" lon="13.315849981389048"><ele>196.33333333333331</ele><time>2026-04-04T08:59:00Z</time></trkpt><trkpt lat="41.658702863230054" lon="13.316035888011152"><ele>196.66666666666669</ele><time>2026-04-04T08:59:01Z</time></trkpt><trkpt lat="41.65861991949549" lon="13.31622203717761"><ele>197.0</ele><time>2026-04-04T08:59:02Z</time></trkpt><trkpt lat="41.65853829617885" lon="13.31640661741817"><ele>198.0</ele><time>2026-04-04T08:59:03Z</time></trkpt><trkpt lat="41.658457832670564" lon="13.31659003247219"><ele>199.0</ele><time>2026-04-04T08:59:04Z</time></trkpt><trkpt lat="41.6583779588532" lon="13.31677124955074"><ele>200.0</ele><time>2026-04-04T08:59:05Z</time></trkpt><trkpt lat="41.65830006151615" lon="13.316948741167103"><ele>200.0</ele><time>2026-04-04T08:59:06Z</time></trkpt><trkpt lat="41.65822097791605" lon="13.317124427816516"><ele>200.0</ele><time>2026-04-04T08:59:07Z</time></trkpt><trkpt lat="41.65813651732205" lon="13.317308578454991"><ele>200.0</ele><time>2026-04-04T08:59:08Z</time></trkpt><trkpt lat="41.658049189107956" lon="13.317501415794167"><ele>200.0</ele><time>2026-04-04T08:59:09Z</time></trkpt><trkpt lat="41.65795553433485" lon="13.317703377324237"><ele>200.0</ele><time>2026-04-04T08:59:10Z</time></trkpt><trkpt lat="41.6578588339792" lon="13.317912959203063"><ele>200.0</ele><time>2026-04-04T08:59:11Z</time></trkpt><trkpt lat="41.657760212235296" lon="13.318123812209208"><ele>198.33333333333334</ele><time>2026-04-04T08:59:12Z</time></trkpt><trkpt lat="41.657673202893285" lon="13.318309730133011"><ele>196.66666666666669</ele><time>2026-04-04T08:59:13Z</time></trkpt><trkpt lat="41.65759064820976" lon="13.31848930847773"><ele>195.0</ele><time>2026-04-04T08:59:14Z</time></trkpt><trkpt lat="41.657517773786786" lon="13.318646662692796"><ele>195.0</ele><time>2026-04-04T08:59:15Z</time></trkpt><trkpt lat="41.65745087820537" lon="13.318794738206657"><ele>195.0</ele><time>2026-04-04T08:59:16Z</time></trkpt><trkpt lat="41.6573920771309" lon="13.318929100333882"><ele>195.0</ele><time>2026-04-04T08:59:17Z</time></trkpt><trkpt lat="41.65733460044727" lon="13.319062842471089"><ele>195.0</ele><time>2026-04-04T08:59:18Z</time></trkpt><trkpt lat="41.65727557848536" lon="13.319202632313457"><ele>195.0</ele><time>2026-04-04T08:59:19Z</time></trkpt><trkpt lat="41.65721921752179" lon="13.319337785427052"><ele>195.0</ele><time>2026-04-04T08:59:20Z</time></trkpt><trkpt lat="41.65716990437477" lon="13.319454276530898"><ele>195.0</ele><time>2026-04-04T08:59:21Z</time></trkpt><trkpt lat="41.65712519253614" lon="13.319556943243285"><ele>195.0</ele><time>2026-04-04T08:59:22Z</time></trkpt><trkpt lat="41.65708524870488" lon="13.319652865408795"><ele>195.0</ele><time>2026-04-04T08:59:23Z</time></trkpt><trkpt lat="41.6570439871216" lon="13.319745030857025"><ele>195.4</ele><time>2026-04-04T08:59:24Z</time></trkpt><trkpt lat="41.657002690477476" lon="13.319836956867066"><ele>195.8</ele><time>2026-04-04T08:59:25Z</time></trkpt><trkpt lat="41.656959739424245" lon="13.319934901852285"><ele>196.2</ele><time>2026-04-04T08:59:26Z</time></trkpt><trkpt lat="41.65691338466436" lon="13.320040863926378"><ele>196.6</ele><time>2026-04-04T08:59:27Z</time></trkpt><trkpt lat="41.65686499438492" lon="13.320153402890437"><ele>197.0</ele><time>2026-04-04T08:59:28Z</time></trkpt><trkpt lat="41.656813894306225" lon="13.320277069828995"><ele>197.0</ele><time>2026-04-04T08:59:29Z</time></trkpt><trkpt lat="41.6567583702316" lon="13.320405659416608"><ele>197.0</ele><time>2026-04-04T08:59:30Z</time></trkpt><trkpt lat="41.65670214388072" lon="13.32053450268861"><ele>197.0</ele><time>2026-04-04T08:59:31Z</time></trkpt><trkpt lat="41.65664873841802" lon="13.320656987099607"><ele>197.0</ele><time>2026-04-04T08:59:32Z</time></trkpt><trkpt lat="41.6565989727789" lon="13.320777355985399"><ele>197.0</ele><time>2026-04-04T08:59:33Z</time></trkpt><trkpt lat="41.65654531958789" lon="13.320904060942016"><ele>197.25</ele><time>2026-04-04T08:59:34Z</time></trkpt><trkpt lat="41.65648830529959" lon="13.321036837812338"><ele>197.5</ele><time>2026-04-04T08:59:35Z</time></trkpt><trkpt lat="41.65643037491077" lon="13.321173870605538"><ele>197.75</ele><time>2026-04-04T08:59:36Z</time></trkpt><trkpt lat="41.65637071831228" lon="13.321312586737795"><ele>198.0</ele><time>2026-04-04T08:59:37Z</time></trkpt><trkpt lat="41.65631230730682" lon="13.321448718631983"><ele>198.2</ele><time>2026-04-04T08:59:38Z</time></trkpt><trkpt lat="41.65625748199015" lon="13.321570531146298"><ele>198.4</ele><time>2026-04-04T08:59:39Z</time></trkpt><trkpt lat="41.65620161868912" lon="13.321688340956438"><ele>198.6</ele><time>2026-04-04T08:59:40Z</time></trkpt><trkpt lat="41.656142517526206" lon="13.32181780131301"><ele>198.79999999999998</ele><time>2026-04-04T08:59:41Z</time></trkpt><trkpt lat="41.65608339071149" lon="13.321953259853593"><ele>199.0</ele><time>2026-04-04T08:59:42Z</time></trkpt><trkpt lat="41.65602486497811" lon="13.32209035370559"><ele>197.5</ele><time>2026-04-04T08:59:43Z</time></trkpt><trkpt lat="41.65596514048362" lon="13.322227457709168"><ele>196.0</ele><time>2026-04-04T08:59:44Z</time></trkpt><trkpt lat="41.655901347222944" lon="13.322366339505331"><ele>194.5</ele><time>2026-04-04T08:59:45Z</time></trkpt><trkpt lat="41.65583138159143" lon="13.322519073215972"><ele>193.0</ele><time>2026-04-04T08:59:46Z</time></trkpt><trkpt lat="41.655762304028" lon="13.322670995932379"><ele>192.25</ele><time>2026-04-04T08:59:47Z</time></trkpt><trkpt lat="41.655694151158734" lon="13.322824014696755"><ele>191.5</ele><time>2026-04-04T08:59:48Z</time></trkpt><trkpt lat="41.655625726239734" lon="13.322975437932781"><ele>190.75</ele><time>2026-04-04T08:59:49Z</time></trkpt><trkpt lat="41.65555736783402" lon="13.3231258649779"><ele>190.0</ele><time>2026-04-04T08:59:50Z</time></trkpt><trkpt lat="41.65549273789369" lon="13.323272254533025"><ele>189.0</ele><time>2026-04-04T08:59:51Z</time></trkpt><trkpt lat="41.65543571884936" lon="13.323404235186327"><ele>188.0</ele><time>2026-04-04T08:59:52Z</time></trkpt><trkpt lat="41.65537611558502" lon="13.323536711519454"><ele>187.0</ele><time>2026-04-04T08:59:53Z</time></trkpt><trkpt lat="41.65530682161379" lon="13.32367571065694"><ele>186.0</ele><time>2026-04-04T08:59:54Z</time></trkpt><trkpt lat="41.65524102057063" lon="13.323830008124231"><ele>184.75</ele><time>2026-04-04T08:59:55Z</time></trkpt><trkpt lat="41.65517742251604" lon="13.323978215306884"><ele>183.5</ele><time>2026-04-04T08:59:56Z</time></trkpt><trkpt lat="41.65511225920838" lon="13.324128526052489"><ele>182.25</ele><time>2026-04-04T08:59:57Z</time></trkpt><trkpt lat="41.65504816366762" lon="13.324281254258436"><ele>181.0</ele><time>2026-04-04T08:59:58Z</time></trkpt><trkpt lat="41.65498529901222" lon="13.324432511775965"><ele>181.0</ele><time>2026-04-04T08:59:59Z</time></trkpt><trkpt lat="41.654921714228735" lon="13.324576654313773"><ele>181.0</ele><time>2026-04-04T09:00:00Z</time></trkpt><trkpt lat="41.65485823799837" lon="13.324721432183228"><ele>181.0</ele><time>2026-04-04T09:00:01Z</time></trkpt><trkpt lat="41.654794815462516" lon="13.324865024675638"><ele>181.0</ele><time>2026-04-04T09:00:02Z</time></trkpt><trkpt lat="41.65473283668565" lon="13.325008803197402"><ele>181.25</ele><time>2026-04-04T09:00:03Z</time></trkpt><trkpt lat="41.6546725931551" lon="13.325154064933635"><ele>181.5</ele><time>2026-04-04T09:00:04Z</time></trkpt><trkpt lat="41.65461063331868" lon="13.325299835029957"><ele>181.75</ele><time>2026-04-04T09:00:05Z</time></trkpt><trkpt lat="41.65454619206606" lon="13.325447936968844"><ele>182.0</ele><time>2026-04-04T09:00:06Z</time></trkpt><trkpt lat="41.654485435101265" lon="13.325589597131872"><ele>183.2</ele><time>2026-04-04T09:00:07Z</time></trkpt><trkpt lat="41.65442955165555" lon="13.325721139128182"><ele>184.39999999999998</ele><time>2026-04-04T09:00:08Z</time></trkpt><trkpt lat="41.65437494580075" lon="13.325850571778837"><ele>185.60000000000002</ele><time>2026-04-04T09:00:09Z</time></trkpt><trkpt lat="41.65432162366973" lon="13.325976474736285"><ele>186.8</ele><time>2026-04-04T09:00:10Z</time></trkpt><trkpt lat="41.654269254955416" lon="13.326095524285295"><ele>188.0</ele><time>2026-04-04T09:00:11Z</time></trkpt><trkpt lat="41.654220952413816" lon="13.326208789761312"><ele>188.0</ele><time>2026-04-04T09:00:12Z</time></trkpt><trkpt lat="41.654174289317965" lon="13.326315287093431"><ele>188.0</ele><time>2026-04-04T09:00:13Z</time></trkpt><trkpt lat="41.65412786205956" lon="13.326419819029448"><ele>188.0</ele><time>2026-04-04T09:00:14Z</time></trkpt><trkpt lat="41.654082476691855" lon="13.326523559237485"><ele>188.0</ele><time>2026-04-04T09:00:15Z</time></trkpt><trkpt lat="41.65403443462894" lon="13.32663313344909"><ele>188.0</ele><time>2026-04-04T09:00:16Z</time></trkpt><trkpt lat="41.6539821580817" lon="13.32674564852218"><ele>187.75</ele><time>2026-04-04T09:00:17Z</time></trkpt><trkpt lat="41.65392206468043" lon="13.326865845258014"><ele>187.5</ele><time>2026-04-04T09:00:18Z</time></trkpt><trkpt lat="41.65385719997246" lon="13.326997856449092"><ele>187.25</ele><time>2026-04-04T09:00:19Z</time></trkpt><trkpt lat="41.65379177652441" lon="13.327148355012902"><ele>187.0</ele><time>2026-04-04T09:00:20Z</time></trkpt><trkpt lat="41.65372350111307" lon="13.327297582345267"><ele>187.0</ele><time>2026-04-04T09:00:21Z</time></trkpt><trkpt lat="41.653654284292166" lon="13.327444633830991"><ele>187.0</ele><time>2026-04-04T09:00:22Z</time></trkpt><trkpt lat="41.65358527604452" lon="13.327598404236916"><ele>187.0</ele><time>2026-04-04T09:00:23Z</time></trkpt><trkpt lat="41.65351509072607" lon="13.327759384547806"><ele>187.0</ele><time>2026-04-04T09:00:24Z</time></trkpt><trkpt lat="41.65344176471462" lon="13.327926002297607"><ele>187.33333333333334</ele><time>2026-04-04T09:00:25Z</time></trkpt><trkpt lat="41.653367114841394" lon="13.328100056693984"><ele>187.66666666666666</ele><time>2026-04-04T09:00:26Z</time></trkpt><trkpt lat="41.65329046289702" lon="13.32828035419809"><ele>188.0</ele><time>2026-04-04T09:00:27Z</time></trkpt><trkpt lat="41.65321299659482" lon="13.32845847552493"><ele>188.0</ele><time>2026-04-04T09:00:28Z</time></trkpt><trkpt lat="41.65313745118901" lon="13.328628115140532"><ele>188.0</ele><time>2026-04-04T09:00:29Z</time></trkpt><trkpt lat="41.65306352492241" lon="13.328799148163736"><ele>188.0</ele><time>2026-04-04T09:00:30Z</time></trkpt><trkpt lat="41.652989631528" lon="13.328973352303281"><ele>188.0</ele><time>2026-04-04T09:00:31Z</time></trkpt><trkpt lat="41.65291559216113" lon="13.32914895074988"><ele>188.66666666666666</ele><time>2026-04-04T09:00:32Z</time></trkpt><trkpt lat="41.652838216075764" lon="13.329329194325924"><ele>189.33333333333334</ele><time>2026-04-04T09:00:33Z</time></trkpt><trkpt lat="41.652755539168126" lon="13.32951593120498"><ele>190.0</ele><time>2026-04-04T09:00:34Z</time></trkpt><trkpt lat="41.65266938484563" lon="13.329712872324924"><ele>191.33333333333334</ele><time>2026-04-04T09:00:35Z</time></trkpt><trkpt lat="41.65257421250693" lon="13.329927666801293"><ele>192.66666666666669</ele><time>2026-04-04T09:00:36Z</time></trkpt><trkpt lat="41.65248107467347" lon="13.330138519906752"><ele>194.0</ele><time>2026-04-04T09:00:37Z</time></trkpt><trkpt lat="41.652394970049976" lon="13.330342459657706"><ele>194.0</ele><time>2026-04-04T09:00:38Z</time></trkpt><trkpt lat="41.65230929396302" lon="13.33053968341241"><ele>194.0</ele><time>2026-04-04T09:00:39Z</time></trkpt><trkpt lat="41.65222608189804" lon="13.330724431665722"><ele>194.0</ele><time>2026-04-04T09:00:40Z</time></trkpt><trkpt lat="41.652150837393975" lon="13.330897289688346"><ele>196.0</ele><time>2026-04-04T09:00:41Z</time></trkpt><trkpt lat="41.65207360589646" lon="13.33107292208312"><ele>198.0</ele><time>2026-04-04T09:00:42Z</time></trkpt><trkpt lat="41.65199589041193" lon="13.331251133329987"><ele>200.0</ele><time>2026-04-04T09:00:43Z</time></trkpt><trkpt lat="41.65191600180364" lon="13.331435168916316"><ele>200.33333333333334</ele><time>2026-04-04T09:00:44Z</time></trkpt><trkpt lat="41.65183588524338" lon="13.331619085785457"><ele>200.66666666666669</ele><time>2026-04-04T09:00:45Z</time></trkpt><trkpt lat="41.65175376929422" lon="13.331802186014558"><ele>201.0</ele><time>2026-04-04T09:00:46Z</time></trkpt><trkpt lat="41.651671988250534" lon="13.33198403661246"><ele>201.0</ele><time>2026-04-04T09:00:47Z</time></trkpt><trkpt lat="41.65158866235034" lon="13.332166089693153"><ele>201.0</ele><time>2026-04-04T09:00:48Z</time></trkpt><trkpt lat="41.65150740976066" lon="13.33234999558452"><ele>201.0</ele><time>2026-04-04T09:00:49Z</time></trkpt><trkpt lat="41.65142883439951" lon="13.332533401549618"><ele>201.33333333333331</ele><time>2026-04-04T09:00:50Z</time></trkpt><trkpt lat="41.651352402661814" lon="13.332720119723907"><ele>201.66666666666666</ele><time>2026-04-04T09:00:51Z</time></trkpt><trkpt lat="41.65127726043835" lon="13.332910761473087"><ele>202.0</ele><time>2026-04-04T09:00:52Z</time></trkpt><trkpt lat="41.651210721094955" lon="13.333085649257464"><ele>202.0</ele><time>2026-04-04T09:00:53Z</time></trkpt><trkpt lat="41.65115318978839" lon="13.333247033627234"><ele>202.0</ele><time>2026-04-04T09:00:54Z</time></trkpt><trkpt lat="41.651105335904845" lon="13.33339202134802"><ele>202.0</ele><time>2026-04-04T09:00:55Z</time></trkpt><trkpt lat="41.651062690652516" lon="13.333524933276884"><ele>202.0</ele><time>2026-04-04T09:00:56Z</time></trkpt><trkpt lat="41.65102682834825" lon="13.333642800098817"><ele>201.16666666666666</ele><time>2026-04-04T09:00:57Z</time></trkpt><trkpt lat="41.65099722740301" lon="13.333740654601803"><ele>200.33333333333331</ele><time>2026-04-04T09:00:58Z</time></trkpt><trkpt lat="41.6509707016799" lon="13.333825679255927"><ele>199.5</ele><time>2026-04-04T09:00:59Z</time></trkpt><trkpt lat="41.650934563227715" lon="13.333934669544567"><ele>198.66666666666669</ele><time>2026-04-04T09:01:01Z</time></trkpt><trkpt lat="41.65089897288474" lon="13.334025330051995"><ele>197.83333333333334</ele><time>2026-04-04T09:01:18Z</time></trkpt><trkpt lat="41.65086371043335" lon="13.334115308092448"><ele>197.0</ele><time>2026-04-04T09:01:20Z</time></trkpt><trkpt lat="41.650827459676634" lon="13.334253613142751"><ele>196.83333333333334</ele><time>2026-04-04T09:01:22Z</time></trkpt><trkpt lat="41.650796127785185" lon="13.334385243878893"><ele>196.66666666666669</ele><time>2026-04-04T09:01:24Z</time></trkpt><trkpt lat="41.650765003717936" lon="13.334461690215907"><ele>196.5</ele><time>2026-04-04T09:01:26Z</time></trkpt><trkpt lat="41.650727887256714" lon="13.33458276823154"><ele>196.33333333333331</ele><time>2026-04-04T09:01:29Z</time></trkpt><trkpt lat="41.650701122072036" lon="13.33466733537827"><ele>196.16666666666666</ele><time>2026-04-04T09:01:31Z</time></trkpt><trkpt lat="41.650677014386254" lon="13.334756731865882"><ele>196.0</ele><time>2026-04-04T09:01:33Z</time></trkpt><trkpt lat="41.65065123196278" lon="13.334840184119512"><ele>195.83333333333331</ele><time>2026-04-04T09:01:35Z</time></trkpt><trkpt lat="41.65061766813121" lon="13.33494491920164"><ele>195.66666666666666</ele><time>2026-04-04T09:01:37Z</time></trkpt><trkpt lat="41.65058324719314" lon="13.335057702031872"><ele>195.5</ele><time>2026-04-04T09:01:39Z</time></trkpt><trkpt lat="41.65055135630249" lon="13.335156292484896"><ele>195.33333333333331</ele><time>2026-04-04T09:01:41Z</time></trkpt><trkpt lat="41.65052438810501" lon="13.335234470117536"><ele>195.16666666666666</ele><time>2026-04-04T09:01:45Z</time></trkpt><trkpt lat="41.65049064442564" lon="13.335328559084514"><ele>195.0</ele><time>2026-04-04T09:01:53Z</time></trkpt><trkpt lat="41.6504535097325" lon="13.335464893188828"><ele>195.0</ele><time>2026-04-04T09:01:55Z</time></trkpt><trkpt lat="41.650429419211875" lon="13.33555587563221"><ele>195.0</ele><time>2026-04-04T09:01:56Z</time></trkpt><trkpt lat="41.65038029569187" lon="13.335716631605575"><ele>195.0</ele><time>2026-04-04T09:01:58Z</time></trkpt><trkpt lat="41.6503505975458" lon="13.335835664090835"><ele>195.0</ele><time>2026-04-04T09:01:59Z</time></trkpt><trkpt lat="41.65031564137519" lon="13.335937589398842"><ele>195.0</ele><time>2026-04-04T09:02:00Z</time></trkpt><trkpt lat="41.65028543517352" lon="13.336016690688865"><ele>195.0</ele><time>2026-04-04T09:02:01Z</time></trkpt><trkpt lat="41.6502583629913" lon="13.33610881017955"><ele>195.0</ele><time>2026-04-04T09:02:02Z</time></trkpt><trkpt lat="41.65023346760442" lon="13.336202399159479"><ele>195.0</ele><time>2026-04-04T09:02:03Z</time></trkpt><trkpt lat="41.650206297861175" lon="13.336291722963663"><ele>195.0</ele><time>2026-04-04T09:02:04Z</time></trkpt><trkpt lat="41.65017656129573" lon="13.336375725226086"><ele>195.0</ele><time>2026-04-04T09:02:05Z</time></trkpt><trkpt lat="41.6501481700917" lon="13.33645509791906"><ele>195.0</ele><time>2026-04-04T09:02:06Z</time></trkpt><trkpt lat="41.65010296050767" lon="13.33659833919163"><ele>195.0</ele><time>2026-04-04T09:02:08Z</time></trkpt><trkpt lat="41.65005748648831" lon="13.336743394497532"><ele>195.0</ele><time>2026-04-04T09:02:10Z</time></trkpt><trkpt lat="41.65002823367948" lon="13.336829290821592"><ele>195.0</ele><time>2026-04-04T09:02:11Z</time></trkpt><trkpt lat="41.650000099673115" lon="13.336923846791064"><ele>195.0</ele><time>2026-04-04T09:02:12Z</time></trkpt><trkpt lat="41.649969314779035" lon="13.337017850945028"><ele>195.0</ele><time>2026-04-04T09:02:13Z</time></trkpt><trkpt lat="41.64993905129892" lon="13.337113083228829"><ele>195.0</ele><time>2026-04-04T09:02:14Z</time></trkpt><trkpt lat="41.64990792728684" lon="13.337209931447315"><ele>195.0</ele><time>2026-04-04T09:02:15Z</time></trkpt><trkpt lat="41.649874582307305" lon="13.337312883761545"><ele>194.83333333333334</ele><time>2026-04-04T09:02:16Z</time></trkpt><trkpt lat="41.649837552478125" lon="13.337422769181071"><ele>194.66666666666669</ele><time>2026-04-04T09:02:17Z</time></trkpt><trkpt lat="41.64980011413331" lon="13.337534659666069"><ele>194.5</ele><time>2026-04-04T09:02:18Z</time></trkpt><trkpt lat="41.649770671849126" lon="13.33763308880434"><ele>194.33333333333334</ele><time>2026-04-04T09:02:19Z</time></trkpt><trkpt lat="41.649744352601914" lon="13.337715170249934"><ele>194.16666666666669</ele><time>2026-04-04T09:02:20Z</time></trkpt><trkpt lat="41.64971928645716" lon="13.337794996989345"><ele>194.0</ele><time>2026-04-04T09:02:21Z</time></trkpt><trkpt lat="41.64969270968148" lon="13.337876698532336"><ele>194.00000000000003</ele><time>2026-04-04T09:02:22Z</time></trkpt><trkpt lat="41.64966701386945" lon="13.337955370557882"><ele>194.0</ele><time>2026-04-04T09:02:23Z</time></trkpt><trkpt lat="41.64962761698204" lon="13.338067248857035"><ele>194.0</ele><time>2026-04-04T09:02:25Z</time></trkpt><trkpt lat="41.649571125855346" lon="13.338139370493375"><ele>194.0</ele><time>2026-04-04T09:02:28Z</time></trkpt><trkpt lat="41.649512859519774" lon="13.338199781962441"><ele>194.00000000000003</ele><time>2026-04-04T09:02:31Z</time></trkpt><trkpt lat="41.64941476032013" lon="13.338253818616291"><ele>194.0</ele><time>2026-04-04T09:02:33Z</time></trkpt><trkpt lat="41.64934495841841" lon="13.338325017189868"><ele>193.79999999999998</ele><time>2026-04-04T09:02:35Z</time></trkpt><trkpt lat="41.64930274363948" lon="13.338440590353024"><ele>193.6</ele><time>2026-04-04T09:02:38Z</time></trkpt><trkpt lat="41.64930652465387" lon="13.338580753670099"><ele>193.4</ele><time>2026-04-04T09:02:41Z</time></trkpt><trkpt lat="41.64933091713099" lon="13.338699281350507"><ele>193.2</ele><time>2026-04-04T09:02:43Z</time></trkpt><trkpt lat="41.649375354888086" lon="13.338805177507469"><ele>193.0</ele><time>2026-04-04T09:02:45Z</time></trkpt><trkpt lat="41.64932910654842" lon="13.338908022900013"><ele>192.99999999999997</ele><time>2026-04-04T09:02:46Z</time></trkpt><trkpt lat="41.64928975024715" lon="13.339025006712887"><ele>193.0</ele><time>2026-04-04T09:02:48Z</time></trkpt><trkpt lat="41.64925633143823" lon="13.339120421687573"><ele>193.0</ele><time>2026-04-04T09:02:50Z</time></trkpt><trkpt lat="41.64921435898397" lon="13.339237338154321"><ele>193.0</ele><time>2026-04-04T09:02:53Z</time></trkpt><trkpt lat="41.649185250419" lon="13.339325173589346"><ele>192.99999999999997</ele><time>2026-04-04T09:02:55Z</time></trkpt><trkpt lat="41.64915046605082" lon="13.33942438484147"><ele>193.0</ele><time>2026-04-04T09:03:06Z</time></trkpt><trkpt lat="41.649115978590196" lon="13.339516164056315"><ele>193.0</ele><time>2026-04-04T09:03:08Z</time></trkpt><trkpt lat="41.64907010898406" lon="13.339629878226821"><ele>193.0</ele><time>2026-04-04T09:03:10Z</time></trkpt><trkpt lat="41.64903290395154" lon="13.339724933158482"><ele>193.0</ele><time>2026-04-04T09:03:12Z</time></trkpt><trkpt lat="41.64899088748669" lon="13.339840254248264"><ele>193.0</ele><time>2026-04-04T09:03:14Z</time></trkpt><trkpt lat="41.64894793273107" lon="13.339966308821992"><ele>193.0</ele><time>2026-04-04T09:03:16Z</time></trkpt><trkpt lat="41.64890286930752" lon="13.34008901732674"><ele>193.49999999999997</ele><time>2026-04-04T09:03:18Z</time></trkpt><trkpt lat="41.64886354208548" lon="13.340192427773054"><ele>194.0</ele><time>2026-04-04T09:03:20Z</time></trkpt><trkpt lat="41.648829707359496" lon="13.340275739242466"><ele>194.5</ele><time>2026-04-04T09:03:22Z</time></trkpt><trkpt lat="41.648788410087235" lon="13.34038128597037"><ele>195.0</ele><time>2026-04-04T09:03:25Z</time></trkpt><trkpt lat="41.64875581874566" lon="13.340465973595993"><ele>195.49999999999997</ele><time>2026-04-04T09:03:27Z</time></trkpt><trkpt lat="41.64872257821167" lon="13.34056605700128"><ele>196.0</ele><time>2026-04-04T09:03:29Z</time></trkpt><trkpt lat="41.64869385242381" lon="13.34065617755529"><ele>195.99999999999997</ele><time>2026-04-04T09:03:31Z</time></trkpt><trkpt lat="41.64866452218921" lon="13.340742442789931"><ele>196.0</ele><time>2026-04-04T09:03:33Z</time></trkpt><trkpt lat="41.648636338709906" lon="13.340827514334267"><ele>196.0</ele><time>2026-04-04T09:03:35Z</time></trkpt><trkpt lat="41.648614050023426" lon="13.340911231440156"><ele>196.0</ele><time>2026-04-04T09:03:40Z</time></trkpt><trkpt lat="41.648558405339514" lon="13.341028526074565"><ele>195.99999999999997</ele><time>2026-04-04T09:03:45Z</time></trkpt><trkpt lat="41.64853041376096" lon="13.341165179180054"><ele>196.0</ele><time>2026-04-04T09:03:47Z</time></trkpt><trkpt lat="41.64850111446904" lon="13.3412583319956"><ele>195.83333333333331</ele><time>2026-04-04T09:03:49Z</time></trkpt><trkpt lat="41.64846471187093" lon="13.341355510556799"><ele>195.66666666666666</ele><time>2026-04-04T09:03:51Z</time></trkpt><trkpt lat="41.64843564163887" lon="13.341442381851076"><ele>195.5</ele><time>2026-04-04T09:03:53Z</time></trkpt><trkpt lat="41.6484066811321" lon="13.341528449432175"><ele>195.33333333333331</ele><time>2026-04-04T09:03:55Z</time></trkpt><trkpt lat="41.648368693543546" lon="13.341630752443683"><ele>195.16666666666666</ele><time>2026-04-04T09:03:57Z</time></trkpt><trkpt lat="41.64833452395859" lon="13.341741196006147"><ele>195.0</ele><time>2026-04-04T09:03:59Z</time></trkpt><trkpt lat="41.648299537975646" lon="13.341846616852555"><ele>195.16666666666666</ele><time>2026-04-04T09:04:01Z</time></trkpt><trkpt lat="41.648263484416866" lon="13.341944362697834"><ele>195.33333333333331</ele><time>2026-04-04T09:04:03Z</time></trkpt><trkpt lat="41.64823031900107" lon="13.342064411083596"><ele>195.5</ele><time>2026-04-04T09:04:05Z</time></trkpt><trkpt lat="41.648195104186605" lon="13.34217102467736"><ele>195.66666666666666</ele><time>2026-04-04T09:04:08Z</time></trkpt><trkpt lat="41.648165654987025" lon="13.34225907843832"><ele>195.83333333333331</ele><time>2026-04-04T09:04:10Z</time></trkpt><trkpt lat="41.648124518591516" lon="13.342375413823431"><ele>196.0</ele><time>2026-04-04T09:04:12Z</time></trkpt><trkpt lat="41.648096352739614" lon="13.342476006320776"><ele>195.99999999999997</ele><time>2026-04-04T09:04:14Z</time></trkpt><trkpt lat="41.64806990080899" lon="13.342557736722899"><ele>196.0</ele><time>2026-04-04T09:04:16Z</time></trkpt><trkpt lat="41.648032761696506" lon="13.342658312000392"><ele>196.0</ele><time>2026-04-04T09:04:19Z</time></trkpt><trkpt lat="41.64799628878408" lon="13.34275089594561"><ele>196.0</ele><time>2026-04-04T09:04:22Z</time></trkpt><trkpt lat="41.64796067064363" lon="13.342842375984667"><ele>195.99999999999997</ele><time>2026-04-04T09:04:26Z</time></trkpt><trkpt lat="41.64793090964577" lon="13.342949058877487"><ele>196.0</ele><time>2026-04-04T09:04:29Z</time></trkpt><trkpt lat="41.64791242833027" lon="13.343033167425263"><ele>196.0</ele><time>2026-04-04T09:04:31Z</time></trkpt><trkpt lat="41.64788279048333" lon="13.343145784914473"><ele>196.0</ele><time>2026-04-04T09:04:34Z</time></trkpt><trkpt lat="41.64785334626047" lon="13.343260597898782"><ele>196.0</ele><time>2026-04-04T09:04:37Z</time></trkpt><trkpt lat="41.6478255815175" lon="13.343367014252575"><ele>196.0</ele><time>2026-04-04T09:04:39Z</time></trkpt><trkpt lat="41.64778980072853" lon="13.343497751321028"><ele>196.0</ele><time>2026-04-04T09:04:41Z</time></trkpt><trkpt lat="41.647755131072756" lon="13.343629521470808"><ele>195.60000000000002</ele><time>2026-04-04T09:04:43Z</time></trkpt><trkpt lat="41.64772692951607" lon="13.343749776238887"><ele>195.2</ele><time>2026-04-04T09:04:45Z</time></trkpt><trkpt lat="41.64769373816213" lon="13.343894863002593"><ele>194.8</ele><time>2026-04-04T09:04:47Z</time></trkpt><trkpt lat="41.64765928709255" lon="13.344038168374427"><ele>194.39999999999998</ele><time>2026-04-04T09:04:49Z</time></trkpt><trkpt lat="41.64762935271391" lon="13.344166024129356"><ele>194.0</ele><time>2026-04-04T09:04:51Z</time></trkpt><trkpt lat="41.647607274812124" lon="13.344262645098514"><ele>194.0</ele><time>2026-04-04T09:04:52Z</time></trkpt><trkpt lat="41.647578716064395" lon="13.344386559859013"><ele>194.0</ele><time>2026-04-04T09:04:53Z</time></trkpt><trkpt lat="41.64754239605819" lon="13.34454302376553"><ele>194.0</ele><time>2026-04-04T09:04:54Z</time></trkpt><trkpt lat="41.64751117528414" lon="13.34466656722184"><ele>194.0</ele><time>2026-04-04T09:04:55Z</time></trkpt><trkpt lat="41.6474842899533" lon="13.344785013832245"><ele>194.0</ele><time>2026-04-04T09:04:56Z</time></trkpt><trkpt lat="41.6474589340111" lon="13.344907111259872"><ele>194.28571428571428</ele><time>2026-04-04T09:04:57Z</time></trkpt><trkpt lat="41.64743745819466" lon="13.345015923855982"><ele>194.57142857142858</ele><time>2026-04-04T09:04:58Z</time></trkpt><trkpt lat="41.64741709989328" lon="13.34511208577662"><ele>194.85714285714286</ele><time>2026-04-04T09:04:59Z</time></trkpt><trkpt lat="41.647399077791995" lon="13.34520152796167"><ele>195.14285714285714</ele><time>2026-04-04T09:05:00Z</time></trkpt><trkpt lat="41.64738268967428" lon="13.345290246067831"><ele>195.42857142857144</ele><time>2026-04-04T09:05:01Z</time></trkpt><trkpt lat="41.64736343812517" lon="13.345378391290948"><ele>195.71428571428572</ele><time>2026-04-04T09:05:02Z</time></trkpt><trkpt lat="41.64734148686469" lon="13.345483123083344"><ele>196.0</ele><time>2026-04-04T09:05:03Z</time></trkpt><trkpt lat="41.64731957684974" lon="13.34559696046843"><ele>196.0</ele><time>2026-04-04T09:05:04Z</time></trkpt><trkpt lat="41.64729734189901" lon="13.34570825020553"><ele>196.0</ele><time>2026-04-04T09:05:05Z</time></trkpt><trkpt lat="41.64727323434105" lon="13.345828111630361"><ele>196.0</ele><time>2026-04-04T09:05:06Z</time></trkpt><trkpt lat="41.647250309953805" lon="13.345952241478853"><ele>196.0</ele><time>2026-04-04T09:05:07Z</time></trkpt><trkpt lat="41.647225563113196" lon="13.34607981613121"><ele>196.0</ele><time>2026-04-04T09:05:08Z</time></trkpt><trkpt lat="41.64719618379423" lon="13.346217482624862"><ele>196.0</ele><time>2026-04-04T09:05:09Z</time></trkpt><trkpt lat="41.64716655630609" lon="13.346365139978593"><ele>196.0</ele><time>2026-04-04T09:05:10Z</time></trkpt><trkpt lat="41.647140965571104" lon="13.346499669142068"><ele>196.0</ele><time>2026-04-04T09:05:11Z</time></trkpt><trkpt lat="41.64711705167227" lon="13.346615727604952"><ele>196.0</ele><time>2026-04-04T09:05:12Z</time></trkpt><trkpt lat="41.647098830520086" lon="13.346718016843147"><ele>196.0</ele><time>2026-04-04T09:05:13Z</time></trkpt><trkpt lat="41.64708001063766" lon="13.346810070398634"><ele>195.8</ele><time>2026-04-04T09:05:14Z</time></trkpt><trkpt lat="41.647063018127646" lon="13.34689266114701"><ele>195.60000000000002</ele><time>2026-04-04T09:05:15Z</time></trkpt><trkpt lat="41.64703173610325" lon="13.347021833049196"><ele>195.4</ele><time>2026-04-04T09:05:17Z</time></trkpt><trkpt lat="41.64700237886466" lon="13.34710886731117"><ele>195.2</ele><time>2026-04-04T09:05:19Z</time></trkpt><trkpt lat="41.64698214441353" lon="13.34726145932481"><ele>195.0</ele><time>2026-04-04T09:05:23Z</time></trkpt><trkpt lat="41.646952502834765" lon="13.347413736581778"><ele>195.0</ele><time>2026-04-04T09:05:25Z</time></trkpt><trkpt lat="41.6469169655688" lon="13.347541947353202"><ele>195.0</ele><time>2026-04-04T09:05:27Z</time></trkpt><trkpt lat="41.64689452855284" lon="13.347669207738853"><ele>195.0</ele><time>2026-04-04T09:05:29Z</time></trkpt><trkpt lat="41.64686946352531" lon="13.3477846564994"><ele>195.0</ele><time>2026-04-04T09:05:31Z</time></trkpt><trkpt lat="41.64685142584877" lon="13.347890583341783"><ele>195.0</ele><time>2026-04-04T09:05:33Z</time></trkpt><trkpt lat="41.64683325982505" lon="13.347989165844778"><ele>195.0</ele><time>2026-04-04T09:05:35Z</time></trkpt><trkpt lat="41.64681444422242" lon="13.348079603819487"><ele>195.0</ele><time>2026-04-04T09:05:37Z</time></trkpt><trkpt lat="41.64678157513675" lon="13.348184236827155"><ele>195.0</ele><time>2026-04-04T09:05:40Z</time></trkpt><trkpt lat="41.64674421696294" lon="13.348256600468213"><ele>195.0</ele><time>2026-04-04T09:05:43Z</time></trkpt><trkpt lat="41.646682001779396" lon="13.34832175056723"><ele>195.0</ele><time>2026-04-04T09:05:47Z</time></trkpt><trkpt lat="41.64662889128582" lon="13.348408054769605"><ele>195.0</ele><time>2026-04-04T09:05:50Z</time></trkpt><trkpt lat="41.64667325507869" lon="13.34854208291468"><ele>195.0</ele><time>2026-04-04T09:05:52Z</time></trkpt><trkpt lat="41.64669771636201" lon="13.348628887294439"><ele>195.0</ele><time>2026-04-04T09:05:54Z</time></trkpt><trkpt lat="41.64669357915476" lon="13.348753614017202"><ele>195.0</ele><time>2026-04-04T09:05:57Z</time></trkpt><trkpt lat="41.646671743049765" lon="13.348852439146064"><ele>195.0</ele><time>2026-04-04T09:05:59Z</time></trkpt><trkpt lat="41.64663586472421" lon="13.34897053534186"><ele>195.0</ele><time>2026-04-04T09:06:01Z</time></trkpt><trkpt lat="41.64660093831809" lon="13.34908064106718"><ele>195.0</ele><time>2026-04-04T09:06:03Z</time></trkpt><trkpt lat="41.646570071692324" lon="13.349190500476666"><ele>195.0</ele><time>2026-04-04T09:06:05Z</time></trkpt><trkpt lat="41.64656372482725" lon="13.34929564169471"><ele>195.2</ele><time>2026-04-04T09:06:07Z</time></trkpt><trkpt lat="41.64652538038393" lon="13.349444346584537"><ele>195.4</ele><time>2026-04-04T09:06:09Z</time></trkpt><trkpt lat="41.64649949049848" lon="13.349546529894893"><ele>195.60000000000002</ele><time>2026-04-04T09:06:10Z</time></trkpt><trkpt lat="41.64643186804716" lon="13.349644030718727"><ele>195.8</ele><time>2026-04-04T09:06:11Z</time></trkpt><trkpt lat="41.64639338663904" lon="13.349761818626455"><ele>196.0</ele><time>2026-04-04T09:06:12Z</time></trkpt><trkpt lat="41.646361812040865" lon="13.34988345129719"><ele>195.20000000000002</ele><time>2026-04-04T09:06:13Z</time></trkpt><trkpt lat="41.64633121740936" lon="13.350002565192673"><ele>194.4</ele><time>2026-04-04T09:06:14Z</time></trkpt><trkpt lat="41.646301577539646" lon="13.350117750149225"><ele>193.6</ele><time>2026-04-04T09:06:15Z</time></trkpt><trkpt lat="41.6462725292865" lon="13.35022846690922"><ele>192.8</ele><time>2026-04-04T09:06:16Z</time></trkpt><trkpt lat="41.646242469747804" lon="13.350338817206465"><ele>192.0</ele><time>2026-04-04T09:06:17Z</time></trkpt><trkpt lat="41.64621159203884" lon="13.350457965560826"><ele>191.39999999999998</ele><time>2026-04-04T09:06:18Z</time></trkpt><trkpt lat="41.646176522574194" lon="13.350591944143845"><ele>190.79999999999998</ele><time>2026-04-04T09:06:19Z</time></trkpt><trkpt lat="41.64614267098718" lon="13.35072414926817"><ele>190.2</ele><time>2026-04-04T09:06:20Z</time></trkpt><trkpt lat="41.646108074386895" lon="13.350849584147953"><ele>189.6</ele><time>2026-04-04T09:06:21Z</time></trkpt><trkpt lat="41.646077444749054" lon="13.35096053552575"><ele>189.0</ele><time>2026-04-04T09:06:22Z</time></trkpt><trkpt lat="41.64605174348239" lon="13.351065232193504"><ele>188.6</ele><time>2026-04-04T09:06:23Z</time></trkpt><trkpt lat="41.646022038403764" lon="13.351177143952992"><ele>188.2</ele><time>2026-04-04T09:06:24Z</time></trkpt><trkpt lat="41.64599525757406" lon="13.351294269846429"><ele>187.79999999999998</ele><time>2026-04-04T09:06:25Z</time></trkpt><trkpt lat="41.64596613410682" lon="13.351413273434368"><ele>187.39999999999998</ele><time>2026-04-04T09:06:26Z</time></trkpt><trkpt lat="41.64594282482654" lon="13.351548818197642"><ele>187.0</ele><time>2026-04-04T09:06:27Z</time></trkpt><trkpt lat="41.64591084102013" lon="13.351690813529869"><ele>187.0</ele><time>2026-04-04T09:06:28Z</time></trkpt><trkpt lat="41.64587367232794" lon="13.351838396583785"><ele>187.0</ele><time>2026-04-04T09:06:29Z</time></trkpt><trkpt lat="41.645835876146876" lon="13.351985394640922"><ele>187.0</ele><time>2026-04-04T09:06:30Z</time></trkpt><trkpt lat="41.645800903389635" lon="13.352132107840765"><ele>187.0</ele><time>2026-04-04T09:06:31Z</time></trkpt><trkpt lat="41.64577059534047" lon="13.352269335239281"><ele>187.5</ele><time>2026-04-04T09:06:32Z</time></trkpt><trkpt lat="41.645742039904775" lon="13.352407152395266"><ele>188.0</ele><time>2026-04-04T09:06:33Z</time></trkpt><trkpt lat="41.64571503167339" lon="13.352539401726407"><ele>188.5</ele><time>2026-04-04T09:06:34Z</time></trkpt><trkpt lat="41.64568437902951" lon="13.352686786170937"><ele>189.0</ele><time>2026-04-04T09:06:35Z</time></trkpt><trkpt lat="41.64565627562753" lon="13.352863365623534"><ele>189.5</ele><time>2026-04-04T09:06:36Z</time></trkpt><trkpt lat="41.64559979475442" lon="13.353079445244504"><ele>190.0</ele><time>2026-04-04T09:06:37Z</time></trkpt><trkpt lat="41.64556026328369" lon="13.353259528320704"><ele>190.5</ele><time>2026-04-04T09:06:38Z</time></trkpt><trkpt lat="41.64553458033677" lon="13.353395911178477"><ele>191.0</ele><time>2026-04-04T09:06:39Z</time></trkpt><trkpt lat="41.64551792546091" lon="13.353507094518996"><ele>191.0</ele><time>2026-04-04T09:06:40Z</time></trkpt><trkpt lat="41.64548714756035" lon="13.353605722725389"><ele>191.0</ele><time>2026-04-04T09:06:41Z</time></trkpt><trkpt lat="41.64542989811458" lon="13.35367323643242"><ele>191.0</ele><time>2026-04-04T09:06:42Z</time></trkpt><trkpt lat="41.64535419956449" lon="13.353695526273272"><ele>191.0</ele><time>2026-04-04T09:06:43Z</time></trkpt><trkpt lat="41.64527326136854" lon="13.353669143252157"><ele>191.0</ele><time>2026-04-04T09:06:44Z</time></trkpt><trkpt lat="41.645202538444636" lon="13.353572207202347"><ele>191.0</ele><time>2026-04-04T09:06:45Z</time></trkpt><trkpt lat="41.645138792696834" lon="13.353443192306704"><ele>194.33333333333331</ele><time>2026-04-04T09:06:46Z</time></trkpt><trkpt lat="41.64507385364982" lon="13.353270609306877"><ele>197.66666666666666</ele><time>2026-04-04T09:06:47Z</time></trkpt><trkpt lat="41.64499634124386" lon="13.353102719887524"><ele>201.0</ele><time>2026-04-04T09:06:48Z</time></trkpt><trkpt lat="41.64490594469663" lon="13.352925899756656"><ele>201.0</ele><time>2026-04-04T09:06:49Z</time></trkpt><trkpt lat="41.64483819421758" lon="13.352837988954597"><ele>201.0</ele><time>2026-04-04T09:06:50Z</time></trkpt><trkpt lat="41.644729835232425" lon="13.352596507205181"><ele>201.0</ele><time>2026-04-04T09:06:51Z</time></trkpt><trkpt lat="41.64463679552635" lon="13.35238315610505"><ele>199.25</ele><time>2026-04-04T09:06:52Z</time></trkpt><trkpt lat="41.64455937917572" lon="13.352205671659425"><ele>197.5</ele><time>2026-04-04T09:06:53Z</time></trkpt><trkpt lat="41.64449684886849" lon="13.352029970258354"><ele>195.75</ele><time>2026-04-04T09:06:54Z</time></trkpt><trkpt lat="41.64446178929237" lon="13.351863163123303"><ele>194.0</ele><time>2026-04-04T09:06:55Z</time></trkpt><trkpt lat="41.64443461851983" lon="13.351696313472463"><ele>196.5</ele><time>2026-04-04T09:06:56Z</time></trkpt><trkpt lat="41.644410175607156" lon="13.351534471094055"><ele>199.0</ele><time>2026-04-04T09:06:57Z</time></trkpt><trkpt lat="41.644340421522166" lon="13.351400001226668"><ele>201.5</ele><time>2026-04-04T09:06:58Z</time></trkpt><trkpt lat="41.644264771310326" lon="13.351288967606422"><ele>204.0</ele><time>2026-04-04T09:06:59Z</time></trkpt><trkpt lat="41.644176567209726" lon="13.351166532058176"><ele>204.0</ele><time>2026-04-04T09:07:00Z</time></trkpt><trkpt lat="41.64404401210622" lon="13.351002904118705"><ele>204.0</ele><time>2026-04-04T09:07:01Z</time></trkpt><trkpt lat="41.64389637328837" lon="13.35089219727155"><ele>204.0</ele><time>2026-04-04T09:07:02Z</time></trkpt><trkpt lat="41.643762261718614" lon="13.35077169203719"><ele>206.33333333333331</ele><time>2026-04-04T09:07:03Z</time></trkpt><trkpt lat="41.64361597420016" lon="13.350633745749185"><ele>208.66666666666666</ele><time>2026-04-04T09:07:04Z</time></trkpt><trkpt lat="41.6434617400455" lon="13.350491455100945"><ele>211.0</ele><time>2026-04-04T09:07:05Z</time></trkpt><trkpt lat="41.643281777705134" lon="13.350331772766507"><ele>211.0</ele><time>2026-04-04T09:07:06Z</time></trkpt><trkpt lat="41.643120581589464" lon="13.350186094247732"><ele>211.0</ele><time>2026-04-04T09:07:07Z</time></trkpt><trkpt lat="41.64296299872362" lon="13.350040064974978"><ele>211.0</ele><time>2026-04-04T09:07:08Z</time></trkpt><trkpt lat="41.642806190922606" lon="13.34989265956661"><ele>212.66666666666666</ele><time>2026-04-04T09:07:09Z</time></trkpt><trkpt lat="41.64265070494794" lon="13.349743346919965"><ele>214.33333333333331</ele><time>2026-04-04T09:07:10Z</time></trkpt><trkpt lat="41.642510478202844" lon="13.349596461590895"><ele>216.0</ele><time>2026-04-04T09:07:11Z</time></trkpt><trkpt lat="41.64236471495623" lon="13.349447748939541"><ele>216.0</ele><time>2026-04-04T09:07:12Z</time></trkpt><trkpt lat="41.64222701924701" lon="13.349316698335564"><ele>216.0</ele><time>2026-04-04T09:07:13Z</time></trkpt><trkpt lat="41.64208142953754" lon="13.349192334574468"><ele>216.0</ele><time>2026-04-04T09:07:14Z</time></trkpt><trkpt lat="41.64193903721104" lon="13.349079585720315"><ele>216.0</ele><time>2026-04-04T09:07:15Z</time></trkpt><trkpt lat="41.64179474260372" lon="13.348965855551286"><ele>216.0</ele><time>2026-04-04T09:07:16Z</time></trkpt><trkpt lat="41.6416659967249" lon="13.34887575680054"><ele>216.0</ele><time>2026-04-04T09:07:17Z</time></trkpt><trkpt lat="41.641536959749615" lon="13.34878575631868"><ele>216.0</ele><time>2026-04-04T09:07:18Z</time></trkpt><trkpt lat="41.641431757890636" lon="13.34867656618788"><ele>216.0</ele><time>2026-04-04T09:07:19Z</time></trkpt><trkpt lat="41.64131724622202" lon="13.348607272030398"><ele>216.0</ele><time>2026-04-04T09:07:20Z</time></trkpt><trkpt lat="41.641229097155396" lon="13.348523395818118"><ele>216.0</ele><time>2026-04-04T09:07:21Z</time></trkpt><trkpt lat="41.64115334497956" lon="13.34843890769467"><ele>217.8</ele><time>2026-04-04T09:07:22Z</time></trkpt><trkpt lat="41.64109641318717" lon="13.348343173187775"><ele>219.60000000000002</ele><time>2026-04-04T09:07:23Z</time></trkpt><trkpt lat="41.64103032766467" lon="13.348245374197191"><ele>221.4</ele><time>2026-04-04T09:07:24Z</time></trkpt><trkpt lat="41.64096063228262" lon="13.348147201435113"><ele>223.2</ele><time>2026-04-04T09:07:25Z</time></trkpt><trkpt lat="41.640883221539724" lon="13.348054385244835"><ele>225.0</ele><time>2026-04-04T09:07:26Z</time></trkpt><trkpt lat="41.64080513458487" lon="13.34796980036652"><ele>225.0</ele><time>2026-04-04T09:07:27Z</time></trkpt><trkpt lat="41.64071777519608" lon="13.347909732875447"><ele>225.0</ele><time>2026-04-04T09:07:28Z</time></trkpt><trkpt lat="41.64063033665095" lon="13.347877794225612"><ele>225.0</ele><time>2026-04-04T09:07:29Z</time></trkpt><trkpt lat="41.64055321314411" lon="13.347855666193512"><ele>225.0</ele><time>2026-04-04T09:07:30Z</time></trkpt><trkpt lat="41.640490821252676" lon="13.347828177080098"><ele>225.0</ele><time>2026-04-04T09:07:31Z</time></trkpt><trkpt lat="41.64037888554426" lon="13.347795733253353"><ele>225.0</ele><time>2026-04-04T09:07:33Z</time></trkpt><trkpt lat="41.6403119881019" lon="13.347743496893521"><ele>227.0</ele><time>2026-04-04T09:07:35Z</time></trkpt><trkpt lat="41.640223499588814" lon="13.347680045990803"><ele>229.0</ele><time>2026-04-04T09:07:39Z</time></trkpt><trkpt lat="41.64008095751857" lon="13.347793600337534"><ele>231.0</ele><time>2026-04-04T09:07:41Z</time></trkpt><trkpt lat="41.64000699491384" lon="13.347890487620116"><ele>233.0</ele><time>2026-04-04T09:07:42Z</time></trkpt><trkpt lat="41.63992644530477" lon="13.347987374476403"><ele>236.0</ele><time>2026-04-04T09:07:43Z</time></trkpt><trkpt lat="41.63985089967786" lon="13.34809262513164"><ele>239.0</ele><time>2026-04-04T09:07:44Z</time></trkpt><trkpt lat="41.63976558589095" lon="13.348181701257298"><ele>242.0</ele><time>2026-04-04T09:07:45Z</time></trkpt><trkpt lat="41.639698422568685" lon="13.348276488624622"><ele>245.0</ele><time>2026-04-04T09:07:46Z</time></trkpt><trkpt lat="41.639656581311804" lon="13.348377460760815"><ele>248.0</ele><time>2026-04-04T09:07:47Z</time></trkpt><trkpt lat="41.63964759955773" lon="13.348508242432404"><ele>248.0</ele><time>2026-04-04T09:07:48Z</time></trkpt><trkpt lat="41.639736873809724" lon="13.348666618272388"><ele>248.0</ele><time>2026-04-04T09:07:49Z</time></trkpt><trkpt lat="41.63982452032082" lon="13.348829293991084"><ele>248.0</ele><time>2026-04-04T09:07:50Z</time></trkpt><trkpt lat="41.6399091978981" lon="13.348998851175217"><ele>248.25</ele><time>2026-04-04T09:07:51Z</time></trkpt><trkpt lat="41.63998907987163" lon="13.349160068106888"><ele>248.5</ele><time>2026-04-04T09:07:52Z</time></trkpt><trkpt lat="41.640044865417586" lon="13.349328787424787"><ele>248.75</ele><time>2026-04-04T09:07:53Z</time></trkpt><trkpt lat="41.64011089490945" lon="13.349484962708436"><ele>249.0</ele><time>2026-04-04T09:07:54Z</time></trkpt><trkpt lat="41.64010684394036" lon="13.34965914592309"><ele>251.75</ele><time>2026-04-04T09:07:55Z</time></trkpt><trkpt lat="41.64006989087686" lon="13.349833698891365"><ele>254.5</ele><time>2026-04-04T09:07:56Z</time></trkpt><trkpt lat="41.64002773490408" lon="13.350017283817976"><ele>257.25</ele><time>2026-04-04T09:07:57Z</time></trkpt><trkpt lat="41.63999454027028" lon="13.350201917405144"><ele>260.0</ele><time>2026-04-04T09:07:58Z</time></trkpt><trkpt lat="41.639957522886256" lon="13.350357261273494"><ele>260.0</ele><time>2026-04-04T09:07:59Z</time></trkpt><trkpt lat="41.63990984595109" lon="13.350470509712167"><ele>260.0</ele><time>2026-04-04T09:08:00Z</time></trkpt><trkpt lat="41.63989300474727" lon="13.350580771512933"><ele>260.0</ele><time>2026-04-04T09:08:01Z</time></trkpt><trkpt lat="41.63983277280028" lon="13.350665802530703"><ele>260.0</ele><time>2026-04-04T09:08:02Z</time></trkpt><trkpt lat="41.63976296871303" lon="13.350720519511556"><ele>260.0</ele><time>2026-04-04T09:08:03Z</time></trkpt><trkpt lat="41.63968855426383" lon="13.350759641292685"><ele>260.0</ele><time>2026-04-04T09:08:04Z</time></trkpt><trkpt lat="41.63959670060698" lon="13.350796464617313"><ele>258.4</ele><time>2026-04-04T09:08:05Z</time></trkpt><trkpt lat="41.63949162071663" lon="13.350824055146335"><ele>256.8</ele><time>2026-04-04T09:08:06Z</time></trkpt><trkpt lat="41.63941258405969" lon="13.35086421612197"><ele>255.2</ele><time>2026-04-04T09:08:07Z</time></trkpt><trkpt lat="41.639329013486744" lon="13.350904073454783"><ele>253.6</ele><time>2026-04-04T09:08:08Z</time></trkpt><trkpt lat="41.63922947304045" lon="13.350935344188857"><ele>252.0</ele><time>2026-04-04T09:08:09Z</time></trkpt><trkpt lat="41.639113882091955" lon="13.350959853593087"><ele>252.0</ele><time>2026-04-04T09:08:10Z</time></trkpt><trkpt lat="41.638993442856254" lon="13.350969646387215"><ele>252.0</ele><time>2026-04-04T09:08:11Z</time></trkpt><trkpt lat="41.63888045303506" lon="13.350965331623236"><ele>252.0</ele><time>2026-04-04T09:08:12Z</time></trkpt><trkpt lat="41.63876185668211" lon="13.35094314378068"><ele>252.0</ele><time>2026-04-04T09:08:13Z</time></trkpt><trkpt lat="41.638654186574435" lon="13.35092842509636"><ele>249.6</ele><time>2026-04-04T09:08:14Z</time></trkpt><trkpt lat="41.63856555152185" lon="13.350942439233691"><ele>247.2</ele><time>2026-04-04T09:08:15Z</time></trkpt><trkpt lat="41.63849858937822" lon="13.351003094676841"><ele>244.8</ele><time>2026-04-04T09:08:16Z</time></trkpt><trkpt lat="41.638437440431844" lon="13.351102930968736"><ele>242.4</ele><time>2026-04-04T09:08:17Z</time></trkpt><trkpt lat="41.638382581275245" lon="13.351220884023256"><ele>240.0</ele><time>2026-04-04T09:08:18Z</time></trkpt><trkpt lat="41.63832216054879" lon="13.35132538968103"><ele>243.6</ele><time>2026-04-04T09:08:19Z</time></trkpt><trkpt lat="41.6382668852657" lon="13.351405354250506"><ele>247.2</ele><time>2026-04-04T09:08:20Z</time></trkpt><trkpt lat="41.63820106485993" lon="13.351483207281712"><ele>250.8</ele><time>2026-04-04T09:08:21Z</time></trkpt><trkpt lat="41.63811652808407" lon="13.351550779849608"><ele>254.4</ele><time>2026-04-04T09:08:22Z</time></trkpt><trkpt lat="41.6380234575164" lon="13.351605066692347"><ele>258.0</ele><time>2026-04-04T09:08:23Z</time></trkpt><trkpt lat="41.63791723495614" lon="13.351640294423923"><ele>258.0</ele><time>2026-04-04T09:08:24Z</time></trkpt><trkpt lat="41.63780967697174" lon="13.351662918183441"><ele>258.0</ele><time>2026-04-04T09:08:25Z</time></trkpt><trkpt lat="41.6377104204733" lon="13.351664694792085"><ele>258.0</ele><time>2026-04-04T09:08:26Z</time></trkpt><trkpt lat="41.63762162620978" lon="13.351669597389153"><ele>258.0</ele><time>2026-04-04T09:08:27Z</time></trkpt><trkpt lat="41.6375329065107" lon="13.351681346230848"><ele>258.0</ele><time>2026-04-04T09:08:28Z</time></trkpt><trkpt lat="41.63745435430736" lon="13.351703622264449"><ele>256.3333333333333</ele><time>2026-04-04T09:08:29Z</time></trkpt><trkpt lat="41.63739216206193" lon="13.351729571823752"><ele>254.66666666666669</ele><time>2026-04-04T09:08:30Z</time></trkpt><trkpt lat="41.637311835313376" lon="13.35178070005025"><ele>253.0</ele><time>2026-04-04T09:08:32Z</time></trkpt><trkpt lat="41.637236531155956" lon="13.351837388812449"><ele>251.33333333333334</ele><time>2026-04-04T09:08:40Z</time></trkpt><trkpt lat="41.63716411869657" lon="13.35188444759454"><ele>249.66666666666669</ele><time>2026-04-04T09:08:42Z</time></trkpt><trkpt lat="41.63709918420965" lon="13.351926494588778"><ele>248.0</ele><time>2026-04-04T09:08:49Z</time></trkpt><trkpt lat="41.63703074493674" lon="13.351951876733626"><ele>248.00000000000003</ele><time>2026-04-04T09:08:51Z</time></trkpt><trkpt lat="41.63694017843807" lon="13.352072757140652"><ele>248.0</ele><time>2026-04-04T09:08:53Z</time></trkpt><trkpt lat="41.63690648109089" lon="13.3521472105048"><ele>248.0</ele><time>2026-04-04T09:08:54Z</time></trkpt><trkpt lat="41.636881470838084" lon="13.352229842281007"><ele>248.0</ele><time>2026-04-04T09:08:55Z</time></trkpt><trkpt lat="41.636853422960584" lon="13.352311178425987"><ele>248.00000000000003</ele><time>2026-04-04T09:08:56Z</time></trkpt><trkpt lat="41.63677779116551" lon="13.352407004892486"><ele>248.0</ele><time>2026-04-04T09:08:58Z</time></trkpt><trkpt lat="41.636674959186216" lon="13.35246353047536"><ele>249.66666666666669</ele><time>2026-04-04T09:09:00Z</time></trkpt><trkpt lat="41.636614420000505" lon="13.352527992997318"><ele>251.33333333333334</ele><time>2026-04-04T09:09:02Z</time></trkpt><trkpt lat="41.636549945087424" lon="13.35257832362615"><ele>253.0</ele><time>2026-04-04T09:09:04Z</time></trkpt><trkpt lat="41.63645855912395" lon="13.352701363289862"><ele>254.66666666666669</ele><time>2026-04-04T09:09:06Z</time></trkpt><trkpt lat="41.636393760331224" lon="13.352737487413716"><ele>256.3333333333333</ele><time>2026-04-04T09:09:07Z</time></trkpt><trkpt lat="41.6363412695701" lon="13.352804297043"><ele>258.0</ele><time>2026-04-04T09:09:08Z</time></trkpt><trkpt lat="41.63628480839967" lon="13.352863459683483"><ele>258.0</ele><time>2026-04-04T09:09:09Z</time></trkpt><trkpt lat="41.63620930473246" lon="13.35293071260866"><ele>258.0</ele><time>2026-04-04T09:09:10Z</time></trkpt><trkpt lat="41.63614382386849" lon="13.35299973833287"><ele>258.0</ele><time>2026-04-04T09:09:11Z</time></trkpt><trkpt lat="41.6360789673675" lon="13.353056838176768"><ele>258.0</ele><time>2026-04-04T09:09:12Z</time></trkpt><trkpt lat="41.63601732244266" lon="13.353124132203085"><ele>258.0</ele><time>2026-04-04T09:09:13Z</time></trkpt><trkpt lat="41.63595274349818" lon="13.353169581868576"><ele>258.0</ele><time>2026-04-04T09:09:14Z</time></trkpt><trkpt lat="41.63588428640489" lon="13.353229808234644"><ele>259.0</ele><time>2026-04-04T09:09:15Z</time></trkpt><trkpt lat="41.635830398597854" lon="13.35327849097485"><ele>260.0</ele><time>2026-04-04T09:09:16Z</time></trkpt><trkpt lat="41.6357774534777" lon="13.353328836693487"><ele>261.0</ele><time>2026-04-04T09:09:17Z</time></trkpt><trkpt lat="41.635712908035" lon="13.353358771587935"><ele>262.0</ele><time>2026-04-04T09:09:18Z</time></trkpt><trkpt lat="41.63563532233756" lon="13.353466730299019"><ele>263.0</ele><time>2026-04-04T09:09:20Z</time></trkpt><trkpt lat="41.63557689851684" lon="13.353526308629979"><ele>264.0</ele><time>2026-04-04T09:09:22Z</time></trkpt><trkpt lat="41.63552488123627" lon="13.35358088358887"><ele>264.0</ele><time>2026-04-04T09:09:26Z</time></trkpt><trkpt lat="41.635457643786374" lon="13.353638269628796"><ele>264.0</ele><time>2026-04-04T09:09:29Z</time></trkpt><trkpt lat="41.63539218696899" lon="13.353676715869938"><ele>264.0</ele><time>2026-04-04T09:09:31Z</time></trkpt><trkpt lat="41.6353258450464" lon="13.353702154641224"><ele>264.0</ele><time>2026-04-04T09:09:33Z</time></trkpt><trkpt lat="41.63522184299886" lon="13.353794153157526"><ele>264.0</ele><time>2026-04-04T09:09:37Z</time></trkpt><trkpt lat="41.635180485083325" lon="13.353859993198727"><ele>264.0</ele><time>2026-04-04T09:09:38Z</time></trkpt><trkpt lat="41.635140459674346" lon="13.35393472128331"><ele>262.8333333333333</ele><time>2026-04-04T09:09:39Z</time></trkpt><trkpt lat="41.63508206269285" lon="13.353999962275365"><ele>261.6666666666667</ele><time>2026-04-04T09:09:40Z</time></trkpt><trkpt lat="41.63505390145563" lon="13.354096952589089"><ele>260.5</ele><time>2026-04-04T09:09:41Z</time></trkpt><trkpt lat="41.635022435187096" lon="13.354191016678218"><ele>259.33333333333337</ele><time>2026-04-04T09:09:42Z</time></trkpt><trkpt lat="41.63493730674792" lon="13.35419892468333"><ele>258.1666666666667</ele><time>2026-04-04T09:09:43Z</time></trkpt><trkpt lat="41.634869027463594" lon="13.354346972665248"><ele>257.0</ele><time>2026-04-04T09:09:44Z</time></trkpt><trkpt lat="41.63480057151964" lon="13.35451439094606"><ele>257.0</ele><time>2026-04-04T09:09:45Z</time></trkpt><trkpt lat="41.634739393242995" lon="13.35466246826468"><ele>257.0</ele><time>2026-04-04T09:09:46Z</time></trkpt><trkpt lat="41.63467577989866" lon="13.354832392923573"><ele>257.0</ele><time>2026-04-04T09:09:47Z</time></trkpt><trkpt lat="41.6346021152542" lon="13.354993300511403"><ele>257.0</ele><time>2026-04-04T09:09:48Z</time></trkpt><trkpt lat="41.6345387062338" lon="13.355174229697727"><ele>258.25</ele><time>2026-04-04T09:09:49Z</time></trkpt><trkpt lat="41.63448143126233" lon="13.355305619756328"><ele>259.5</ele><time>2026-04-04T09:09:50Z</time></trkpt><trkpt lat="41.634438009834945" lon="13.355452740760967"><ele>260.75</ele><time>2026-04-04T09:09:51Z</time></trkpt><trkpt lat="41.63437303379272" lon="13.355623482053318"><ele>262.0</ele><time>2026-04-04T09:09:52Z</time></trkpt><trkpt lat="41.63430189464752" lon="13.355799244907292"><ele>257.0</ele><time>2026-04-04T09:09:53Z</time></trkpt><trkpt lat="41.63425035235804" lon="13.35594910442918"><ele>252.0</ele><time>2026-04-04T09:09:54Z</time></trkpt><trkpt lat="41.634203623775115" lon="13.356096221253399"><ele>247.0</ele><time>2026-04-04T09:09:55Z</time></trkpt><trkpt lat="41.63417763039435" lon="13.356246689535071"><ele>242.0</ele><time>2026-04-04T09:09:56Z</time></trkpt><trkpt lat="41.63419298822476" lon="13.356403927592098"><ele>241.75</ele><time>2026-04-04T09:09:57Z</time></trkpt><trkpt lat="41.63422300306133" lon="13.356575109398438"><ele>241.5</ele><time>2026-04-04T09:09:58Z</time></trkpt><trkpt lat="41.63422791769503" lon="13.356749173499706"><ele>241.25</ele><time>2026-04-04T09:09:59Z</time></trkpt><trkpt lat="41.63420509188205" lon="13.356920175622951"><ele>241.0</ele><time>2026-04-04T09:10:00Z</time></trkpt><trkpt lat="41.63415420142837" lon="13.357071200842153"><ele>241.0</ele><time>2026-04-04T09:10:01Z</time></trkpt><trkpt lat="41.63407158688551" lon="13.35719261988792"><ele>241.00000000000003</ele><time>2026-04-04T09:10:02Z</time></trkpt><trkpt lat="41.634006080135514" lon="13.35730406736642"><ele>241.00000000000003</ele><time>2026-04-04T09:10:03Z</time></trkpt><trkpt lat="41.633950234413334" lon="13.35741664683336"><ele>241.0</ele><time>2026-04-04T09:10:04Z</time></trkpt><trkpt lat="41.63388005122524" lon="13.357531624783944"><ele>241.0</ele><time>2026-04-04T09:10:05Z</time></trkpt><trkpt lat="41.63381938600967" lon="13.357628066040679"><ele>241.4</ele><time>2026-04-04T09:10:06Z</time></trkpt><trkpt lat="41.63377308917752" lon="13.357698191729153"><ele>241.8</ele><time>2026-04-04T09:10:07Z</time></trkpt><trkpt lat="41.63369940254982" lon="13.357801974287929"><ele>242.20000000000002</ele><time>2026-04-04T09:10:09Z</time></trkpt><trkpt lat="41.63365011626243" lon="13.357870294269638"><ele>242.60000000000002</ele><time>2026-04-04T09:10:11Z</time></trkpt><trkpt lat="41.633581190522484" lon="13.357977348906882"><ele>243.0</ele><time>2026-04-04T09:10:13Z</time></trkpt><trkpt lat="41.63351732658032" lon="13.358089024200057"><ele>239.5</ele><time>2026-04-04T09:10:14Z</time></trkpt><trkpt lat="41.63342956025599" lon="13.358207917666098"><ele>236.0</ele><time>2026-04-04T09:10:15Z</time></trkpt><trkpt lat="41.633307648216956" lon="13.35833541618061"><ele>232.5</ele><time>2026-04-04T09:10:16Z</time></trkpt><trkpt lat="41.63317403499779" lon="13.358431046592669"><ele>229.0</ele><time>2026-04-04T09:10:17Z</time></trkpt><trkpt lat="41.63304096857789" lon="13.358534886099893"><ele>229.0</ele><time>2026-04-04T09:10:18Z</time></trkpt><trkpt lat="41.6329230938842" lon="13.35865908796409"><ele>229.0</ele><time>2026-04-04T09:10:19Z</time></trkpt><trkpt lat="41.632793345888665" lon="13.358790944647556"><ele>229.0</ele><time>2026-04-04T09:10:20Z</time></trkpt><trkpt lat="41.63266118512817" lon="13.358930461002256"><ele>226.5</ele><time>2026-04-04T09:10:21Z</time></trkpt><trkpt lat="41.63254399492473" lon="13.35905524933753"><ele>224.0</ele><time>2026-04-04T09:10:22Z</time></trkpt><trkpt lat="41.632439309492874" lon="13.359173764311283"><ele>221.5</ele><time>2026-04-04T09:10:23Z</time></trkpt><trkpt lat="41.63233403089102" lon="13.359275248724327"><ele>219.0</ele><time>2026-04-04T09:10:24Z</time></trkpt><trkpt lat="41.63222663399423" lon="13.359380019892217"><ele>219.0</ele><time>2026-04-04T09:10:25Z</time></trkpt><trkpt lat="41.63211503066624" lon="13.359482706939438"><ele>219.0</ele><time>2026-04-04T09:10:26Z</time></trkpt><trkpt lat="41.63201114499551" lon="13.359614158079864"><ele>219.0</ele><time>2026-04-04T09:10:27Z</time></trkpt><trkpt lat="41.63187687802496" lon="13.359717031306673"><ele>219.0</ele><time>2026-04-04T09:10:28Z</time></trkpt><trkpt lat="41.631719741276385" lon="13.35983363964974"><ele>216.5</ele><time>2026-04-04T09:10:29Z</time></trkpt><trkpt lat="41.63152440373167" lon="13.359968307799031"><ele>214.0</ele><time>2026-04-04T09:10:30Z</time></trkpt><trkpt lat="41.63129109360587" lon="13.360115716738322"><ele>211.66666666666666</ele><time>2026-04-04T09:10:31Z</time></trkpt><trkpt lat="41.63109944925422" lon="13.360250306318664"><ele>209.33333333333331</ele><time>2026-04-04T09:10:32Z</time></trkpt><trkpt lat="41.630932579703206" lon="13.360380784233138"><ele>207.0</ele><time>2026-04-04T09:10:33Z</time></trkpt><trkpt lat="41.630777401255294" lon="13.360502733054735"><ele>207.33333333333331</ele><time>2026-04-04T09:10:34Z</time></trkpt><trkpt lat="41.6306327884176" lon="13.360623885163685"><ele>207.66666666666666</ele><time>2026-04-04T09:10:35Z</time></trkpt><trkpt lat="41.630493281610576" lon="13.360739124601597"><ele>208.0</ele><time>2026-04-04T09:10:36Z</time></trkpt><trkpt lat="41.630342350416356" lon="13.360855805672328"><ele>206.66666666666666</ele><time>2026-04-04T09:10:37Z</time></trkpt><trkpt lat="41.63018856307555" lon="13.360993045822593"><ele>205.33333333333331</ele><time>2026-04-04T09:10:38Z</time></trkpt><trkpt lat="41.63005236126175" lon="13.361183156150004"><ele>204.0</ele><time>2026-04-04T09:10:39Z</time></trkpt><trkpt lat="41.62993044303552" lon="13.361392771384338"><ele>204.0</ele><time>2026-04-04T09:10:40Z</time></trkpt><trkpt lat="41.62980462611301" lon="13.361614111429411"><ele>204.0</ele><time>2026-04-04T09:10:41Z</time></trkpt><trkpt lat="41.62966975579046" lon="13.361839427668373"><ele>204.0</ele><time>2026-04-04T09:10:42Z</time></trkpt><trkpt lat="41.62953389399822" lon="13.362073477057939"><ele>200.33333333333331</ele><time>2026-04-04T09:10:43Z</time></trkpt><trkpt lat="41.629405587093835" lon="13.362313860114558"><ele>196.66666666666666</ele><time>2026-04-04T09:10:44Z</time></trkpt><trkpt lat="41.62929900930404" lon="13.362554516017768"><ele>193.0</ele><time>2026-04-04T09:10:45Z</time></trkpt><trkpt lat="41.62920061496191" lon="13.362778642546624"><ele>193.0</ele><time>2026-04-04T09:10:46Z</time></trkpt><trkpt lat="41.629100281500946" lon="13.362974329032623"><ele>193.0</ele><time>2026-04-04T09:10:47Z</time></trkpt><trkpt lat="41.628971346990234" lon="13.363109468819035"><ele>193.0</ele><time>2026-04-04T09:10:48Z</time></trkpt><trkpt lat="41.62882651468403" lon="13.363228706714645"><ele>194.33333333333331</ele><time>2026-04-04T09:10:49Z</time></trkpt><trkpt lat="41.62866338349762" lon="13.36330706915324"><ele>195.66666666666669</ele><time>2026-04-04T09:10:50Z</time></trkpt><trkpt lat="41.62850575133058" lon="13.363383880677912"><ele>197.0</ele><time>2026-04-04T09:10:51Z</time></trkpt><trkpt lat="41.628369963224095" lon="13.363473521746055"><ele>194.25</ele><time>2026-04-04T09:10:52Z</time></trkpt><trkpt lat="41.628252372687605" lon="13.363538336854631"><ele>191.5</ele><time>2026-04-04T09:10:53Z</time></trkpt><trkpt lat="41.62814850236325" lon="13.363611809869415"><ele>188.75</ele><time>2026-04-04T09:10:54Z</time></trkpt><trkpt lat="41.6280784313166" lon="13.363730914162227"><ele>186.0</ele><time>2026-04-04T09:10:55Z</time></trkpt><trkpt lat="41.62806989812694" lon="13.36389343311962"><ele>185.66666666666666</ele><time>2026-04-04T09:10:56Z</time></trkpt><trkpt lat="41.628120068169316" lon="13.36406833430093"><ele>185.33333333333331</ele><time>2026-04-04T09:10:57Z</time></trkpt><trkpt lat="41.628218839300736" lon="13.364236894491178"><ele>185.0</ele><time>2026-04-04T09:10:58Z</time></trkpt><trkpt lat="41.62836454347378" lon="13.364395072731561"><ele>185.0</ele><time>2026-04-04T09:10:59Z</time></trkpt><trkpt lat="41.62852530591679" lon="13.364562343997278"><ele>185.0</ele><time>2026-04-04T09:11:00Z</time></trkpt><trkpt lat="41.62867210674019" lon="13.36475031490172"><ele>185.0</ele><time>2026-04-04T09:11:01Z</time></trkpt><trkpt lat="41.62881284083948" lon="13.364924467807226"><ele>184.66666666666666</ele><time>2026-04-04T09:11:02Z</time></trkpt><trkpt lat="41.62895069689315" lon="13.36509837547514"><ele>184.33333333333334</ele><time>2026-04-04T09:11:03Z</time></trkpt><trkpt lat="41.6290800965799" lon="13.365270025021507"><ele>184.0</ele><time>2026-04-04T09:11:04Z</time></trkpt><trkpt lat="41.629199238431454" lon="13.36542434450473"><ele>181.33333333333334</ele><time>2026-04-04T09:11:05Z</time></trkpt><trkpt lat="41.6293165102568" lon="13.365570593687398"><ele>178.66666666666666</ele><time>2026-04-04T09:11:06Z</time></trkpt><trkpt lat="41.629435908584064" lon="13.365728045677187"><ele>176.0</ele><time>2026-04-04T09:11:07Z</time></trkpt><trkpt lat="41.62956062134959" lon="13.365888568690927"><ele>176.0</ele><time>2026-04-04T09:11:08Z</time></trkpt><trkpt lat="41.62967186935151" lon="13.366028915102243"><ele>176.0</ele><time>2026-04-04T09:11:09Z</time></trkpt><trkpt lat="41.62977792923423" lon="13.366158858583182"><ele>176.0</ele><time>2026-04-04T09:11:10Z</time></trkpt><trkpt lat="41.62984581102244" lon="13.36630082585276"><ele>176.0</ele><time>2026-04-04T09:11:11Z</time></trkpt><trkpt lat="41.62988579896465" lon="13.36643152362373"><ele>174.5</ele><time>2026-04-04T09:11:12Z</time></trkpt><trkpt lat="41.62988137269045" lon="13.366569692790964"><ele>173.0</ele><time>2026-04-04T09:11:13Z</time></trkpt><trkpt lat="41.62984081822112" lon="13.366702729249061"><ele>171.5</ele><time>2026-04-04T09:11:14Z</time></trkpt><trkpt lat="41.62976153445552" lon="13.366838602376852"><ele>170.0</ele><time>2026-04-04T09:11:15Z</time></trkpt><trkpt lat="41.62966018312329" lon="13.367018504837288"><ele>170.33333333333331</ele><time>2026-04-04T09:11:16Z</time></trkpt><trkpt lat="41.62954242726132" lon="13.367218033185145"><ele>170.66666666666666</ele><time>2026-04-04T09:11:17Z</time></trkpt><trkpt lat="41.62942843107315" lon="13.367428100228237"><ele>171.0</ele><time>2026-04-04T09:11:18Z</time></trkpt><trkpt lat="41.629305365955545" lon="13.367632834165617"><ele>171.33333333333334</ele><time>2026-04-04T09:11:19Z</time></trkpt><trkpt lat="41.62918542570482" lon="13.367828632886228"><ele>171.66666666666669</ele><time>2026-04-04T09:11:20Z</time></trkpt><trkpt lat="41.62906371115501" lon="13.36802932462814"><ele>172.0</ele><time>2026-04-04T09:11:21Z</time></trkpt><trkpt lat="41.628982379241215" lon="13.368251176651242"><ele>173.0</ele><time>2026-04-04T09:11:22Z</time></trkpt><trkpt lat="41.628946988931524" lon="13.368502002745583"><ele>174.0</ele><time>2026-04-04T09:11:23Z</time></trkpt><trkpt lat="41.6289242938141" lon="13.368779845390172"><ele>175.0</ele><time>2026-04-04T09:11:24Z</time></trkpt><trkpt lat="41.628925164932724" lon="13.36906770858359"><ele>176.5</ele><time>2026-04-04T09:11:25Z</time></trkpt><trkpt lat="41.62894758827377" lon="13.369360863945545"><ele>178.0</ele><time>2026-04-04T09:11:26Z</time></trkpt><trkpt lat="41.6289889708735" lon="13.369665231615173"><ele>179.0</ele><time>2026-04-04T09:11:27Z</time></trkpt><trkpt lat="41.629049677906785" lon="13.370005051513889"><ele>180.0</ele><time>2026-04-04T09:11:28Z</time></trkpt><trkpt lat="41.629089642573284" lon="13.370385343125058"><ele>180.5</ele><time>2026-04-04T09:11:29Z</time></trkpt><trkpt lat="41.62913041927383" lon="13.370745967475077"><ele>181.0</ele><time>2026-04-04T09:11:30Z</time></trkpt><trkpt lat="41.629168054475954" lon="13.371065675572968"><ele>183.0</ele><time>2026-04-04T09:11:31Z</time></trkpt><trkpt lat="41.62918692846951" lon="13.371399305990128"><ele>185.0</ele><time>2026-04-04T09:11:32Z</time></trkpt><trkpt lat="41.62921667618058" lon="13.371767675186337"><ele>185.0</ele><time>2026-04-04T09:11:33Z</time></trkpt><trkpt lat="41.62924338225752" lon="13.372087700947075"><ele>185.0</ele><time>2026-04-04T09:11:34Z</time></trkpt><trkpt lat="41.62928317508125" lon="13.37236950028497"><ele>186.0</ele><time>2026-04-04T09:11:35Z</time></trkpt><trkpt lat="41.62929389307348" lon="13.372636867160145"><ele>187.0</ele><time>2026-04-04T09:11:36Z</time></trkpt><trkpt lat="41.62928566454091" lon="13.372894640390435"><ele>188.0</ele><time>2026-04-04T09:11:37Z</time></trkpt><trkpt lat="41.62926152116152" lon="13.373131510119235"><ele>190.0</ele><time>2026-04-04T09:11:38Z</time></trkpt><trkpt lat="41.629222204513866" lon="13.373364444569072"><ele>192.0</ele><time>2026-04-04T09:11:39Z</time></trkpt><trkpt lat="41.629166639559706" lon="13.373602405127652"><ele>194.0</ele><time>2026-04-04T09:11:40Z</time></trkpt><trkpt lat="41.629089489559604" lon="13.373833424383"><ele>197.33333333333334</ele><time>2026-04-04T09:11:41Z</time></trkpt><trkpt lat="41.629003312060654" lon="13.374050375173082"><ele>200.66666666666669</ele><time>2026-04-04T09:11:42Z</time></trkpt><trkpt lat="41.62888757765309" lon="13.374214037719907"><ele>204.0</ele><time>2026-04-04T09:11:43Z</time></trkpt><trkpt lat="41.62878326018133" lon="13.37437364434671"><ele>200.66666666666669</ele><time>2026-04-04T09:11:44Z</time></trkpt><trkpt lat="41.628639830590046" lon="13.374472725356544"><ele>197.33333333333334</ele><time>2026-04-04T09:11:45Z</time></trkpt><trkpt lat="41.628483125143674" lon="13.374543967627348"><ele>194.0</ele><time>2026-04-04T09:11:46Z</time></trkpt><trkpt lat="41.62832838511917" lon="13.374585561172362"><ele>194.0</ele><time>2026-04-04T09:11:47Z</time></trkpt><trkpt lat="41.6281767319381" lon="13.374587144272478"><ele>194.0</ele><time>2026-04-04T09:11:48Z</time></trkpt><trkpt lat="41.628037424911895" lon="13.37450565665508"><ele>194.0</ele><time>2026-04-04T09:11:49Z</time></trkpt><trkpt lat="41.62792356998717" lon="13.374401889013848"><ele>194.0</ele><time>2026-04-04T09:11:50Z</time></trkpt><trkpt lat="41.62781243196428" lon="13.374290849042485"><ele>197.25</ele><time>2026-04-04T09:11:51Z</time></trkpt><trkpt lat="41.62772100995297" lon="13.37413007555894"><ele>200.5</ele><time>2026-04-04T09:11:52Z</time></trkpt><trkpt lat="41.62762258473418" lon="13.374010530331011"><ele>203.75</ele><time>2026-04-04T09:11:53Z</time></trkpt><trkpt lat="41.62752592903239" lon="13.373958919039222"><ele>207.0</ele><time>2026-04-04T09:11:54Z</time></trkpt><trkpt lat="41.62743150623589" lon="13.373968434240851"><ele>207.0</ele><time>2026-04-04T09:11:55Z</time></trkpt><trkpt lat="41.62734779160449" lon="13.374021948120793"><ele>207.0</ele><time>2026-04-04T09:11:56Z</time></trkpt><trkpt lat="41.627280140340346" lon="13.374133306463083"><ele>207.0</ele><time>2026-04-04T09:11:57Z</time></trkpt><trkpt lat="41.627265943056294" lon="13.374288874329107"><ele>207.0</ele><time>2026-04-04T09:11:58Z</time></trkpt><trkpt lat="41.62727697100627" lon="13.374451885111206"><ele>207.0</ele><time>2026-04-04T09:11:59Z</time></trkpt><trkpt lat="41.62732354823655" lon="13.374627359838012"><ele>209.0</ele><time>2026-04-04T09:12:00Z</time></trkpt><trkpt lat="41.627402342492104" lon="13.374787809851565"><ele>211.0</ele><time>2026-04-04T09:12:01Z</time></trkpt><trkpt lat="41.62750993435822" lon="13.374937796134153"><ele>213.0</ele><time>2026-04-04T09:12:02Z</time></trkpt><trkpt lat="41.62759492889891" lon="13.375102431186031"><ele>215.0</ele><time>2026-04-04T09:12:03Z</time></trkpt><trkpt lat="41.62767522709497" lon="13.37527575734396"><ele>215.0</ele><time>2026-04-04T09:12:04Z</time></trkpt><trkpt lat="41.62771674959633" lon="13.375431577794835"><ele>215.0</ele><time>2026-04-04T09:12:05Z</time></trkpt><trkpt lat="41.62772337116958" lon="13.375594128475027"><ele>215.0</ele><time>2026-04-04T09:12:06Z</time></trkpt><trkpt lat="41.62768668335279" lon="13.375770273096675"><ele>215.0</ele><time>2026-04-04T09:12:07Z</time></trkpt><trkpt lat="41.627610515794615" lon="13.375952553630336"><ele>214.0</ele><time>2026-04-04T09:12:08Z</time></trkpt><trkpt lat="41.62751427794086" lon="13.376149271448448"><ele>213.0</ele><time>2026-04-04T09:12:09Z</time></trkpt><trkpt lat="41.627401714736365" lon="13.376314745525224"><ele>212.0</ele><time>2026-04-04T09:12:10Z</time></trkpt><trkpt lat="41.62727256590227" lon="13.376443406057172"><ele>212.0</ele><time>2026-04-04T09:12:11Z</time></trkpt><trkpt lat="41.62712382833355" lon="13.376554303969389"><ele>212.0</ele><time>2026-04-04T09:12:12Z</time></trkpt><trkpt lat="41.62695004193724" lon="13.376645026203008"><ele>212.0</ele><time>2026-04-04T09:12:13Z</time></trkpt><trkpt lat="41.626771748474034" lon="13.376676030112494"><ele>209.66666666666669</ele><time>2026-04-04T09:12:14Z</time></trkpt><trkpt lat="41.626585922983324" lon="13.37667549327181"><ele>207.33333333333331</ele><time>2026-04-04T09:12:15Z</time></trkpt><trkpt lat="41.62640817795733" lon="13.376688268015823"><ele>205.0</ele><time>2026-04-04T09:12:16Z</time></trkpt><trkpt lat="41.626260574536325" lon="13.376666465415362"><ele>204.75</ele><time>2026-04-04T09:12:17Z</time></trkpt><trkpt lat="41.626132766109016" lon="13.376587912249288"><ele>204.5</ele><time>2026-04-04T09:12:18Z</time></trkpt><trkpt lat="41.62602980413968" lon="13.376471931359943"><ele>204.25</ele><time>2026-04-04T09:12:19Z</time></trkpt><trkpt lat="41.6259566720577" lon="13.376293710947872"><ele>204.0</ele><time>2026-04-04T09:12:20Z</time></trkpt><trkpt lat="41.625880275361624" lon="13.376104553937505"><ele>204.0</ele><time>2026-04-04T09:12:21Z</time></trkpt><trkpt lat="41.62582517691595" lon="13.375921451807297"><ele>204.0</ele><time>2026-04-04T09:12:22Z</time></trkpt><trkpt lat="41.625730200373766" lon="13.375790145004386"><ele>204.0</ele><time>2026-04-04T09:12:23Z</time></trkpt><trkpt lat="41.6256201821922" lon="13.375701670728148"><ele>204.0</ele><time>2026-04-04T09:12:24Z</time></trkpt><trkpt lat="41.62550940196424" lon="13.375644106388023"><ele>204.0</ele><time>2026-04-04T09:12:25Z</time></trkpt><trkpt lat="41.62539341363884" lon="13.375603241410312"><ele>204.0</ele><time>2026-04-04T09:12:26Z</time></trkpt><trkpt lat="41.62527303163442" lon="13.375588060892724"><ele>204.0</ele><time>2026-04-04T09:12:27Z</time></trkpt><trkpt lat="41.625148389505696" lon="13.375605273472376"><ele>204.0</ele><time>2026-04-04T09:12:28Z</time></trkpt><trkpt lat="41.625035481347346" lon="13.375657023201065"><ele>201.25</ele><time>2026-04-04T09:12:29Z</time></trkpt><trkpt lat="41.62493651822939" lon="13.375766785633678"><ele>198.5</ele><time>2026-04-04T09:12:30Z</time></trkpt><trkpt lat="41.62487034597141" lon="13.3759254867626"><ele>195.75</ele><time>2026-04-04T09:12:31Z</time></trkpt><trkpt lat="41.62480424389546" lon="13.376113871391803"><ele>193.0</ele><time>2026-04-04T09:12:32Z</time></trkpt><trkpt lat="41.6247351885834" lon="13.37632325934968"><ele>189.66666666666666</ele><time>2026-04-04T09:12:33Z</time></trkpt><trkpt lat="41.624654877482634" lon="13.376531942792369"><ele>186.33333333333331</ele><time>2026-04-04T09:12:34Z</time></trkpt><trkpt lat="41.62457124479181" lon="13.376742669314636"><ele>183.0</ele><time>2026-04-04T09:12:35Z</time></trkpt><trkpt lat="41.62449524217671" lon="13.376956473530344"><ele>184.66666666666666</ele><time>2026-04-04T09:12:36Z</time></trkpt><trkpt lat="41.62443789433166" lon="13.377175639271723"><ele>186.33333333333331</ele><time>2026-04-04T09:12:37Z</time></trkpt><trkpt lat="41.62440750319923" lon="13.37740790608753"><ele>188.0</ele><time>2026-04-04T09:12:38Z</time></trkpt><trkpt lat="41.62439532135881" lon="13.3776535988972"><ele>188.0</ele><time>2026-04-04T09:12:39Z</time></trkpt><trkpt lat="41.62439992747392" lon="13.377904971477301"><ele>188.0</ele><time>2026-04-04T09:12:40Z</time></trkpt><trkpt lat="41.62440366200384" lon="13.37814011355232"><ele>188.0</ele><time>2026-04-04T09:12:41Z</time></trkpt><trkpt lat="41.62439883115615" lon="13.37835921622887"><ele>186.0</ele><time>2026-04-04T09:12:42Z</time></trkpt><trkpt lat="41.62439247900387" lon="13.378576494923475"><ele>184.0</ele><time>2026-04-04T09:12:43Z</time></trkpt><trkpt lat="41.62438882243394" lon="13.378804707971565"><ele>182.0</ele><time>2026-04-04T09:12:44Z</time></trkpt><trkpt lat="41.62438484384031" lon="13.379046043673295"><ele>180.33333333333331</ele><time>2026-04-04T09:12:45Z</time></trkpt><trkpt lat="41.62437949119652" lon="13.379281581783184"><ele>178.66666666666666</ele><time>2026-04-04T09:12:46Z</time></trkpt><trkpt lat="41.6243753547579" lon="13.379503925758371"><ele>177.0</ele><time>2026-04-04T09:12:47Z</time></trkpt><trkpt lat="41.62437375905518" lon="13.379721493515897"><ele>175.0</ele><time>2026-04-04T09:12:48Z</time></trkpt><trkpt lat="41.62437062411603" lon="13.379947525726362"><ele>173.0</ele><time>2026-04-04T09:12:49Z</time></trkpt><trkpt lat="41.62436744015717" lon="13.380167216904107"><ele>171.0</ele><time>2026-04-04T09:12:50Z</time></trkpt><trkpt lat="41.624362823233575" lon="13.380381072330142"><ele>170.33333333333334</ele><time>2026-04-04T09:12:51Z</time></trkpt><trkpt lat="41.624360649468784" lon="13.380595362788867"><ele>169.66666666666669</ele><time>2026-04-04T09:12:52Z</time></trkpt><trkpt lat="41.62436046524609" lon="13.380851067337924"><ele>169.0</ele><time>2026-04-04T09:12:53Z</time></trkpt><trkpt lat="41.624358887691066" lon="13.381125347489592"><ele>167.66666666666669</ele><time>2026-04-04T09:12:54Z</time></trkpt><trkpt lat="41.62435227303597" lon="13.381390773265961"><ele>166.33333333333334</ele><time>2026-04-04T09:12:55Z</time></trkpt><trkpt lat="41.62434245815358" lon="13.381643783865519"><ele>165.0</ele><time>2026-04-04T09:12:56Z</time></trkpt><trkpt lat="41.624338619005485" lon="13.381893655463706"><ele>165.0</ele><time>2026-04-04T09:12:57Z</time></trkpt><trkpt lat="41.62433482947161" lon="13.38213157184385"><ele>165.0</ele><time>2026-04-04T09:12:58Z</time></trkpt><trkpt lat="41.62432990898915" lon="13.382342151302142"><ele>165.0</ele><time>2026-04-04T09:12:59Z</time></trkpt><trkpt lat="41.62430704270261" lon="13.3825369374427"><ele>164.25</ele><time>2026-04-04T09:13:00Z</time></trkpt><trkpt lat="41.62428835675305" lon="13.382709858077403"><ele>163.5</ele><time>2026-04-04T09:13:01Z</time></trkpt><trkpt lat="41.62425200860371" lon="13.38287322313918"><ele>162.75</ele><time>2026-04-04T09:13:02Z</time></trkpt><trkpt lat="41.62419509459495" lon="13.383031892644818"><ele>162.0</ele><time>2026-04-04T09:13:03Z</time></trkpt><trkpt lat="41.624120601845895" lon="13.383191613296239"><ele>161.0</ele><time>2026-04-04T09:13:04Z</time></trkpt><trkpt lat="41.62402212339842" lon="13.383338279903452"><ele>160.0</ele><time>2026-04-04T09:13:05Z</time></trkpt><trkpt lat="41.62390809140586" lon="13.383475541167254"><ele>159.0</ele><time>2026-04-04T09:13:06Z</time></trkpt><trkpt lat="41.62378930705575" lon="13.383611258502606"><ele>159.0</ele><time>2026-04-04T09:13:07Z</time></trkpt><trkpt lat="41.62368362568044" lon="13.383732005857937"><ele>159.0</ele><time>2026-04-04T09:13:08Z</time></trkpt><trkpt lat="41.623586519733095" lon="13.38386240471823"><ele>159.0</ele><time>2026-04-04T09:13:09Z</time></trkpt><trkpt lat="41.623471272153125" lon="13.38398452880683"><ele>159.0</ele><time>2026-04-04T09:13:10Z</time></trkpt><trkpt lat="41.62334457745432" lon="13.384125260525503"><ele>157.66666666666666</ele><time>2026-04-04T09:13:11Z</time></trkpt><trkpt lat="41.62320641411687" lon="13.384281614407497"><ele>156.33333333333331</ele><time>2026-04-04T09:13:12Z</time></trkpt><trkpt lat="41.62306121752679" lon="13.384449249337418"><ele>155.0</ele><time>2026-04-04T09:13:13Z</time></trkpt><trkpt lat="41.62292662415523" lon="13.384606957668794"><ele>155.0</ele><time>2026-04-04T09:13:14Z</time></trkpt><trkpt lat="41.62279758591771" lon="13.384753683903055"><ele>155.0</ele><time>2026-04-04T09:13:15Z</time></trkpt><trkpt lat="41.622674876568006" lon="13.384890618379895"><ele>155.0</ele><time>2026-04-04T09:13:16Z</time></trkpt><trkpt lat="41.62256096449877" lon="13.385027677838318"><ele>155.0</ele><time>2026-04-04T09:13:17Z</time></trkpt><trkpt lat="41.62245695329749" lon="13.38514828673767"><ele>155.0</ele><time>2026-04-04T09:13:18Z</time></trkpt><trkpt lat="41.62236027319127" lon="13.385261676729352"><ele>155.0</ele><time>2026-04-04T09:13:19Z</time></trkpt><trkpt lat="41.62226938337639" lon="13.385369832403043"><ele>155.0</ele><time>2026-04-04T09:13:20Z</time></trkpt><trkpt lat="41.62218550633745" lon="13.38546833836793"><ele>155.0</ele><time>2026-04-04T09:13:21Z</time></trkpt><trkpt lat="41.622105435322815" lon="13.385561546364745"><ele>155.0</ele><time>2026-04-04T09:13:22Z</time></trkpt><trkpt lat="41.62202101348701" lon="13.385665544278707"><ele>155.0</ele><time>2026-04-04T09:13:23Z</time></trkpt><trkpt lat="41.621930872501196" lon="13.38576958388309"><ele>155.0</ele><time>2026-04-04T09:13:24Z</time></trkpt><trkpt lat="41.62184633547848" lon="13.385864384374658"><ele>155.0</ele><time>2026-04-04T09:13:25Z</time></trkpt><trkpt lat="41.621770562716144" lon="13.385945304219005"><ele>155.0</ele><time>2026-04-04T09:13:26Z</time></trkpt><trkpt lat="41.621691688457126" lon="13.38604327205167"><ele>155.0</ele><time>2026-04-04T09:13:27Z</time></trkpt><trkpt lat="41.62160008731692" lon="13.38615231200279"><ele>155.0</ele><time>2026-04-04T09:13:28Z</time></trkpt><trkpt lat="41.621485206204554" lon="13.386234868180313"><ele>155.5</ele><time>2026-04-04T09:13:29Z</time></trkpt><trkpt lat="41.62138598881764" lon="13.386344904189318"><ele>156.0</ele><time>2026-04-04T09:13:30Z</time></trkpt><trkpt lat="41.621275859749694" lon="13.386455517770381"><ele>156.5</ele><time>2026-04-04T09:13:31Z</time></trkpt><trkpt lat="41.62114746560905" lon="13.386572630091907"><ele>157.0</ele><time>2026-04-04T09:13:32Z</time></trkpt><trkpt lat="41.62098009673997" lon="13.386660164223878"><ele>157.66666666666669</ele><time>2026-04-04T09:13:33Z</time></trkpt><trkpt lat="41.62079406224805" lon="13.38673925703661"><ele>158.33333333333334</ele><time>2026-04-04T09:13:34Z</time></trkpt><trkpt lat="41.62059498453682" lon="13.386830135737686"><ele>159.0</ele><time>2026-04-04T09:13:35Z</time></trkpt><trkpt lat="41.62042836691851" lon="13.386922095111647"><ele>159.0</ele><time>2026-04-04T09:13:36Z</time></trkpt><trkpt lat="41.62031913722799" lon="13.38706352335608"><ele>159.0</ele><time>2026-04-04T09:13:37Z</time></trkpt><trkpt lat="41.62023485352103" lon="13.387240921286931"><ele>159.0</ele><time>2026-04-04T09:13:38Z</time></trkpt><trkpt lat="41.62017484306146" lon="13.387469753504337"><ele>159.33333333333334</ele><time>2026-04-04T09:13:39Z</time></trkpt><trkpt lat="41.62011194955774" lon="13.387688808431154"><ele>159.66666666666669</ele><time>2026-04-04T09:13:40Z</time></trkpt><trkpt lat="41.620036435350045" lon="13.387864666661581"><ele>160.0</ele><time>2026-04-04T09:13:41Z</time></trkpt><trkpt lat="41.6199909675374" lon="13.388057163480603"><ele>162.33333333333334</ele><time>2026-04-04T09:13:42Z</time></trkpt><trkpt lat="41.6198931985226" lon="13.388306308760592"><ele>164.66666666666666</ele><time>2026-04-04T09:13:43Z</time></trkpt><trkpt lat="41.61981610496686" lon="13.388585024833775"><ele>167.0</ele><time>2026-04-04T09:13:44Z</time></trkpt><trkpt lat="41.619703024680554" lon="13.388884394605926"><ele>171.0</ele><time>2026-04-04T09:13:45Z</time></trkpt><trkpt lat="41.61959107405395" lon="13.389232215382863"><ele>175.0</ele><time>2026-04-04T09:13:46Z</time></trkpt><trkpt lat="41.619485858433215" lon="13.389575482972484"><ele>172.5</ele><time>2026-04-04T09:13:47Z</time></trkpt><trkpt lat="41.61937696897979" lon="13.389915674703028"><ele>170.0</ele><time>2026-04-04T09:13:48Z</time></trkpt><trkpt lat="41.61926961189945" lon="13.39023992213141"><ele>175.0</ele><time>2026-04-04T09:13:49Z</time></trkpt><trkpt lat="41.619168174104296" lon="13.390554498091308"><ele>180.0</ele><time>2026-04-04T09:13:50Z</time></trkpt><trkpt lat="41.619067310285956" lon="13.3908640363196"><ele>180.0</ele><time>2026-04-04T09:13:51Z</time></trkpt><trkpt lat="41.618969544017055" lon="13.39116115979923"><ele>180.0</ele><time>2026-04-04T09:13:52Z</time></trkpt><trkpt lat="41.61888396655407" lon="13.391432306261745"><ele>183.5</ele><time>2026-04-04T09:13:53Z</time></trkpt><trkpt lat="41.618814567995365" lon="13.391713094979357"><ele>187.0</ele><time>2026-04-04T09:13:54Z</time></trkpt><trkpt lat="41.61877044528481" lon="13.392023860788992"><ele>190.5</ele><time>2026-04-04T09:13:55Z</time></trkpt><trkpt lat="41.61875044707471" lon="13.392363330043617"><ele>194.0</ele><time>2026-04-04T09:13:56Z</time></trkpt><trkpt lat="41.61872624259007" lon="13.392715484614868"><ele>197.5</ele><time>2026-04-04T09:13:57Z</time></trkpt><trkpt lat="41.618702633449324" lon="13.393059681835643"><ele>201.0</ele><time>2026-04-04T09:13:58Z</time></trkpt><trkpt lat="41.61868244953625" lon="13.39337547374494"><ele>201.0</ele><time>2026-04-04T09:13:59Z</time></trkpt><trkpt lat="41.61866414072737" lon="13.393668390820238"><ele>201.0</ele><time>2026-04-04T09:14:00Z</time></trkpt><trkpt lat="41.618647415372266" lon="13.39395791712782"><ele>201.0</ele><time>2026-04-04T09:14:01Z</time></trkpt><trkpt lat="41.618633843136564" lon="13.394240752967493"><ele>200.66666666666669</ele><time>2026-04-04T09:14:02Z</time></trkpt><trkpt lat="41.61861936900348" lon="13.39450751044316"><ele>200.33333333333334</ele><time>2026-04-04T09:14:03Z</time></trkpt><trkpt lat="41.61860237127312" lon="13.394747430901235"><ele>200.0</ele><time>2026-04-04T09:14:04Z</time></trkpt><trkpt lat="41.61857430619076" lon="13.394957544003569"><ele>200.0</ele><time>2026-04-04T09:14:05Z</time></trkpt><trkpt lat="41.61851681321169" lon="13.395137767235438"><ele>200.0</ele><time>2026-04-04T09:14:06Z</time></trkpt><trkpt lat="41.61842415774329" lon="13.39528165000229"><ele>200.0</ele><time>2026-04-04T09:14:07Z</time></trkpt><trkpt lat="41.61828847569858" lon="13.395379340103023"><ele>200.0</ele><time>2026-04-04T09:14:08Z</time></trkpt><trkpt lat="41.61813433635265" lon="13.395449691443647"><ele>201.5</ele><time>2026-04-04T09:14:09Z</time></trkpt><trkpt lat="41.61798111415611" lon="13.39551580476002"><ele>203.0</ele><time>2026-04-04T09:14:10Z</time></trkpt><trkpt lat="41.617847862292614" lon="13.39557823495185"><ele>204.5</ele><time>2026-04-04T09:14:11Z</time></trkpt><trkpt lat="41.6177170281225" lon="13.395636796128946"><ele>206.0</ele><time>2026-04-04T09:14:12Z</time></trkpt><trkpt lat="41.61757920532127" lon="13.39569619019327"><ele>206.0</ele><time>2026-04-04T09:14:13Z</time></trkpt><trkpt lat="41.617443880157005" lon="13.395755989649311"><ele>206.0</ele><time>2026-04-04T09:14:14Z</time></trkpt><trkpt lat="41.61731769568262" lon="13.395811393585175"><ele>206.0</ele><time>2026-04-04T09:14:15Z</time></trkpt><trkpt lat="41.61720403530555" lon="13.395849934704518"><ele>206.0</ele><time>2026-04-04T09:14:16Z</time></trkpt><trkpt lat="41.61709772137125" lon="13.395895279615429"><ele>206.00000000000003</ele><time>2026-04-04T09:14:17Z</time></trkpt><trkpt lat="41.61700555418122" lon="13.395936495883044"><ele>206.0</ele><time>2026-04-04T09:14:18Z</time></trkpt><trkpt lat="41.61692609535" lon="13.39597643612473"><ele>206.0</ele><time>2026-04-04T09:14:19Z</time></trkpt><trkpt lat="41.61684914360156" lon="13.396023987624542"><ele>206.0</ele><time>2026-04-04T09:14:20Z</time></trkpt><trkpt lat="41.61678280619019" lon="13.396086912958442"><ele>206.00000000000003</ele><time>2026-04-04T09:14:21Z</time></trkpt><trkpt lat="41.61672714525084" lon="13.39616259666308"><ele>206.0</ele><time>2026-04-04T09:14:22Z</time></trkpt><trkpt lat="41.61668845074669" lon="13.396258172964867"><ele>208.0</ele><time>2026-04-04T09:14:23Z</time></trkpt><trkpt lat="41.61666829992004" lon="13.396385858245878"><ele>210.0</ele><time>2026-04-04T09:14:24Z</time></trkpt><trkpt lat="41.616656811778505" lon="13.396521438530437"><ele>212.00000000000003</ele><time>2026-04-04T09:14:25Z</time></trkpt><trkpt lat="41.61665136977575" lon="13.396641524121948"><ele>214.0</ele><time>2026-04-04T09:14:26Z</time></trkpt><trkpt lat="41.61664725786273" lon="13.39675534952374"><ele>216.0</ele><time>2026-04-04T09:14:27Z</time></trkpt><trkpt lat="41.6166434013532" lon="13.39686308606884"><ele>216.0</ele><time>2026-04-04T09:14:28Z</time></trkpt><trkpt lat="41.61664011150178" lon="13.396964873203707"><ele>216.0</ele><time>2026-04-04T09:14:29Z</time></trkpt><trkpt lat="41.61663558656446" lon="13.397075495411991"><ele>216.0</ele><time>2026-04-04T09:14:30Z</time></trkpt><trkpt lat="41.616632849314115" lon="13.397188426937186"><ele>216.0</ele><time>2026-04-04T09:14:31Z</time></trkpt><trkpt lat="41.61662835341725" lon="13.397285999212192"><ele>216.0</ele><time>2026-04-04T09:14:32Z</time></trkpt><trkpt lat="41.61662470157397" lon="13.39737492071658"><ele>216.0</ele><time>2026-04-04T09:14:33Z</time></trkpt><trkpt lat="41.61662024764539" lon="13.397541019830529"><ele>216.16666666666666</ele><time>2026-04-04T09:14:35Z</time></trkpt><trkpt lat="41.61661895175913" lon="13.397625841823485"><ele>216.33333333333331</ele><time>2026-04-04T09:14:36Z</time></trkpt><trkpt lat="41.616622335828225" lon="13.397729520131362"><ele>216.5</ele><time>2026-04-04T09:14:37Z</time></trkpt><trkpt lat="41.616630592054804" lon="13.397840261333139"><ele>216.66666666666666</ele><time>2026-04-04T09:14:38Z</time></trkpt><trkpt lat="41.616631969320316" lon="13.397950650886674"><ele>216.83333333333331</ele><time>2026-04-04T09:14:39Z</time></trkpt><trkpt lat="41.61663012793893" lon="13.398067923406607"><ele>217.0</ele><time>2026-04-04T09:14:40Z</time></trkpt><trkpt lat="41.61662904510179" lon="13.398206705360801"><ele>216.0</ele><time>2026-04-04T09:14:41Z</time></trkpt><trkpt lat="41.61663242342223" lon="13.398377794346404"><ele>215.0</ele><time>2026-04-04T09:14:42Z</time></trkpt><trkpt lat="41.616632839507176" lon="13.398562894575319"><ele>214.0</ele><time>2026-04-04T09:14:43Z</time></trkpt><trkpt lat="41.61662863179444" lon="13.398767605122586"><ele>213.0</ele><time>2026-04-04T09:14:44Z</time></trkpt><trkpt lat="41.61662128381493" lon="13.398979164198895"><ele>212.0</ele><time>2026-04-04T09:14:45Z</time></trkpt><trkpt lat="41.61661048665087" lon="13.399180445714132"><ele>211.0</ele><time>2026-04-04T09:14:46Z</time></trkpt><trkpt lat="41.61659174450608" lon="13.399367177451246"><ele>210.0</ele><time>2026-04-04T09:14:47Z</time></trkpt><trkpt lat="41.61656514268237" lon="13.399552732719545"><ele>209.0</ele><time>2026-04-04T09:14:48Z</time></trkpt><trkpt lat="41.6165161636685" lon="13.399734779298573"><ele>208.75</ele><time>2026-04-04T09:14:49Z</time></trkpt><trkpt lat="41.6164578232482" lon="13.39991556521153"><ele>208.5</ele><time>2026-04-04T09:14:50Z</time></trkpt><trkpt lat="41.61639255114281" lon="13.400100441514967"><ele>208.25</ele><time>2026-04-04T09:14:51Z</time></trkpt><trkpt lat="41.616325876994765" lon="13.400266848132421"><ele>208.0</ele><time>2026-04-04T09:14:52Z</time></trkpt><trkpt lat="41.616258232455436" lon="13.4004112157834"><ele>207.25</ele><time>2026-04-04T09:14:53Z</time></trkpt><trkpt lat="41.61619774149592" lon="13.40054812587738"><ele>206.5</ele><time>2026-04-04T09:14:54Z</time></trkpt><trkpt lat="41.61614435443414" lon="13.400680099046996"><ele>205.75</ele><time>2026-04-04T09:14:55Z</time></trkpt><trkpt lat="41.616092379971924" lon="13.400807364030573"><ele>205.0</ele><time>2026-04-04T09:14:56Z</time></trkpt><trkpt lat="41.61603537206493" lon="13.400948822317439"><ele>203.0</ele><time>2026-04-04T09:14:57Z</time></trkpt><trkpt lat="41.61597630548527" lon="13.401101004388723"><ele>201.0</ele><time>2026-04-04T09:14:58Z</time></trkpt><trkpt lat="41.61591296505107" lon="13.401259303222194"><ele>199.0</ele><time>2026-04-04T09:14:59Z</time></trkpt><trkpt lat="41.61584965809364" lon="13.401418697389254"><ele>197.0</ele><time>2026-04-04T09:15:00Z</time></trkpt><trkpt lat="41.615786562857984" lon="13.401572924922277"><ele>197.0</ele><time>2026-04-04T09:15:01Z</time></trkpt><trkpt lat="41.61572401214902" lon="13.401720524955097"><ele>197.0</ele><time>2026-04-04T09:15:02Z</time></trkpt><trkpt lat="41.615649748615226" lon="13.401853926543193"><ele>197.0</ele><time>2026-04-04T09:15:03Z</time></trkpt><trkpt lat="41.615554875942436" lon="13.401972324461221"><ele>197.0</ele><time>2026-04-04T09:15:04Z</time></trkpt><trkpt lat="41.615450855402514" lon="13.402086009097713"><ele>196.5</ele><time>2026-04-04T09:15:05Z</time></trkpt><trkpt lat="41.6153324500584" lon="13.402184872739756"><ele>196.0</ele><time>2026-04-04T09:15:06Z</time></trkpt><trkpt lat="41.61520431629775" lon="13.402267949136853"><ele>195.5</ele><time>2026-04-04T09:15:07Z</time></trkpt><trkpt lat="41.61507492574154" lon="13.40234502921733"><ele>195.0</ele><time>2026-04-04T09:15:08Z</time></trkpt><trkpt lat="41.61494587243437" lon="13.402435688002031"><ele>194.0</ele><time>2026-04-04T09:15:09Z</time></trkpt><trkpt lat="41.614822547822776" lon="13.402544715271262"><ele>193.0</ele><time>2026-04-04T09:15:10Z</time></trkpt><trkpt lat="41.6147153058686" lon="13.402678978701442"><ele>192.0</ele><time>2026-04-04T09:15:11Z</time></trkpt><trkpt lat="41.61462384478326" lon="13.40282471625854"><ele>191.0</ele><time>2026-04-04T09:15:12Z</time></trkpt><trkpt lat="41.614545049257764" lon="13.402979404715573"><ele>189.25</ele><time>2026-04-04T09:15:13Z</time></trkpt><trkpt lat="41.614470186649356" lon="13.403134635879143"><ele>187.5</ele><time>2026-04-04T09:15:14Z</time></trkpt><trkpt lat="41.614400979546666" lon="13.403276804573645"><ele>185.75</ele><time>2026-04-04T09:15:15Z</time></trkpt><trkpt lat="41.61433695075896" lon="13.403411910552716"><ele>184.0</ele><time>2026-04-04T09:15:16Z</time></trkpt><trkpt lat="41.6142739417191" lon="13.403553368950847"><ele>184.0</ele><time>2026-04-04T09:15:17Z</time></trkpt><trkpt lat="41.61419221211838" lon="13.403687379786657"><ele>184.0</ele><time>2026-04-04T09:15:18Z</time></trkpt><trkpt lat="41.61411734634848" lon="13.403840640400094"><ele>184.0</ele><time>2026-04-04T09:15:19Z</time></trkpt><trkpt lat="41.61404134631353" lon="13.40399622326292"><ele>184.0</ele><time>2026-04-04T09:15:20Z</time></trkpt><trkpt lat="41.61397297366987" lon="13.404134860174908"><ele>184.25</ele><time>2026-04-04T09:15:21Z</time></trkpt><trkpt lat="41.613908032874335" lon="13.40426627505977"><ele>184.5</ele><time>2026-04-04T09:15:22Z</time></trkpt><trkpt lat="41.61383776164513" lon="13.404408476728428"><ele>184.75</ele><time>2026-04-04T09:15:23Z</time></trkpt><trkpt lat="41.613766741029885" lon="13.404552422398712"><ele>185.0</ele><time>2026-04-04T09:15:24Z</time></trkpt><trkpt lat="41.613696297656695" lon="13.404695441884833"><ele>183.25</ele><time>2026-04-04T09:15:25Z</time></trkpt><trkpt lat="41.61363297004578" lon="13.404823524333876"><ele>181.5</ele><time>2026-04-04T09:15:26Z</time></trkpt><trkpt lat="41.61356803506637" lon="13.404954788327903"><ele>179.75</ele><time>2026-04-04T09:15:27Z</time></trkpt><trkpt lat="41.61349195038975" lon="13.405108591251476"><ele>178.0</ele><time>2026-04-04T09:15:28Z</time></trkpt><trkpt lat="41.61342639799763" lon="13.405299991275822"><ele>178.0</ele><time>2026-04-04T09:15:29Z</time></trkpt><trkpt lat="41.61333332429828" lon="13.405482943161216"><ele>178.0</ele><time>2026-04-04T09:15:30Z</time></trkpt><trkpt lat="41.61323348847849" lon="13.405670836483756"><ele>178.0</ele><time>2026-04-04T09:15:31Z</time></trkpt><trkpt lat="41.61313907217339" lon="13.405863491932768"><ele>177.75</ele><time>2026-04-04T09:15:32Z</time></trkpt><trkpt lat="41.61305382102105" lon="13.406038037501432"><ele>177.5</ele><time>2026-04-04T09:15:33Z</time></trkpt><trkpt lat="41.61297295589199" lon="13.406199089727842"><ele>177.25</ele><time>2026-04-04T09:15:34Z</time></trkpt><trkpt lat="41.61288122619972" lon="13.406336517233616"><ele>177.0</ele><time>2026-04-04T09:15:35Z</time></trkpt><trkpt lat="41.612798412545004" lon="13.406479635571658"><ele>175.75</ele><time>2026-04-04T09:15:36Z</time></trkpt><trkpt lat="41.61270878780458" lon="13.406617848360602"><ele>174.5</ele><time>2026-04-04T09:15:37Z</time></trkpt><trkpt lat="41.612606418367676" lon="13.406759166681685"><ele>173.25</ele><time>2026-04-04T09:15:38Z</time></trkpt><trkpt lat="41.61250084489623" lon="13.40690252423022"><ele>172.0</ele><time>2026-04-04T09:15:39Z</time></trkpt><trkpt lat="41.61240298674422" lon="13.407029091596119"><ele>172.0</ele><time>2026-04-04T09:15:40Z</time></trkpt><trkpt lat="41.61230530672302" lon="13.407154913230304"><ele>172.0</ele><time>2026-04-04T09:15:41Z</time></trkpt><trkpt lat="41.61219595677199" lon="13.40729354345067"><ele>172.0</ele><time>2026-04-04T09:15:42Z</time></trkpt><trkpt lat="41.61207525113714" lon="13.407445393422442"><ele>171.33333333333334</ele><time>2026-04-04T09:15:43Z</time></trkpt><trkpt lat="41.61194759711224" lon="13.407599554477722"><ele>170.66666666666666</ele><time>2026-04-04T09:15:44Z</time></trkpt><trkpt lat="41.61180537759622" lon="13.407768383139357"><ele>170.0</ele><time>2026-04-04T09:15:45Z</time></trkpt><trkpt lat="41.6116644797495" lon="13.407933518226395"><ele>169.66666666666666</ele><time>2026-04-04T09:15:46Z</time></trkpt><trkpt lat="41.611533397556975" lon="13.408087149102972"><ele>169.33333333333334</ele><time>2026-04-04T09:15:47Z</time></trkpt><trkpt lat="41.61140658840512" lon="13.408235772073363"><ele>169.0</ele><time>2026-04-04T09:15:48Z</time></trkpt><trkpt lat="41.61129417671837" lon="13.408396394212035"><ele>169.0</ele><time>2026-04-04T09:15:49Z</time></trkpt><trkpt lat="41.61116897667504" lon="13.408533915226512"><ele>169.0</ele><time>2026-04-04T09:15:50Z</time></trkpt><trkpt lat="41.61103911654088" lon="13.408666443455637"><ele>169.0</ele><time>2026-04-04T09:15:51Z</time></trkpt><trkpt lat="41.610900199174466" lon="13.408782761856768"><ele>169.0</ele><time>2026-04-04T09:15:52Z</time></trkpt><trkpt lat="41.61075320792883" lon="13.408881982141448"><ele>169.0</ele><time>2026-04-04T09:15:53Z</time></trkpt><trkpt lat="41.61059444206188" lon="13.408962806280812"><ele>169.0</ele><time>2026-04-04T09:15:54Z</time></trkpt><trkpt lat="41.61043371946024" lon="13.409025471510143"><ele>168.33333333333334</ele><time>2026-04-04T09:15:55Z</time></trkpt><trkpt lat="41.6102688249166" lon="13.409049279562689"><ele>167.66666666666666</ele><time>2026-04-04T09:15:56Z</time></trkpt><trkpt lat="41.610121186072114" lon="13.409121119468326"><ele>167.0</ele><time>2026-04-04T09:15:57Z</time></trkpt><trkpt lat="41.609971455576925" lon="13.409168027157769"><ele>167.0</ele><time>2026-04-04T09:15:58Z</time></trkpt><trkpt lat="41.609794330140424" lon="13.4092286589799"><ele>167.0</ele><time>2026-04-04T09:15:59Z</time></trkpt><trkpt lat="41.60958750695212" lon="13.409290284629886"><ele>167.0</ele><time>2026-04-04T09:16:00Z</time></trkpt><trkpt lat="41.609363246843465" lon="13.409329221511848"><ele>166.33333333333331</ele><time>2026-04-04T09:16:01Z</time></trkpt><trkpt lat="41.60914432600039" lon="13.409386449690151"><ele>165.66666666666666</ele><time>2026-04-04T09:16:02Z</time></trkpt><trkpt lat="41.60892473623836" lon="13.409453973956893"><ele>165.0</ele><time>2026-04-04T09:16:03Z</time></trkpt><trkpt lat="41.60870671512274" lon="13.409542428416032"><ele>164.66666666666666</ele><time>2026-04-04T09:16:04Z</time></trkpt><trkpt lat="41.60849707922235" lon="13.409660906162776"><ele>164.33333333333331</ele><time>2026-04-04T09:16:05Z</time></trkpt><trkpt lat="41.60830838046966" lon="13.409815211104519"><ele>164.0</ele><time>2026-04-04T09:16:06Z</time></trkpt><trkpt lat="41.608138698509926" lon="13.410002353062978"><ele>164.0</ele><time>2026-04-04T09:16:07Z</time></trkpt><trkpt lat="41.60798709529044" lon="13.410211205967157"><ele>164.0</ele><time>2026-04-04T09:16:08Z</time></trkpt><trkpt lat="41.6078559424061" lon="13.410439180675658"><ele>164.0</ele><time>2026-04-04T09:16:09Z</time></trkpt><trkpt lat="41.60773724692931" lon="13.410674544425975"><ele>165.0</ele><time>2026-04-04T09:16:10Z</time></trkpt><trkpt lat="41.607629757583354" lon="13.410888311522928"><ele>166.0</ele><time>2026-04-04T09:16:11Z</time></trkpt><trkpt lat="41.60752612621031" lon="13.411084740130399"><ele>167.0</ele><time>2026-04-04T09:16:12Z</time></trkpt><trkpt lat="41.60742264060537" lon="13.411272722146027"><ele>167.66666666666666</ele><time>2026-04-04T09:16:13Z</time></trkpt><trkpt lat="41.6073350551714" lon="13.411438559549534"><ele>168.33333333333334</ele><time>2026-04-04T09:16:14Z</time></trkpt><trkpt lat="41.607246922456305" lon="13.411602511135222"><ele>169.0</ele><time>2026-04-04T09:16:15Z</time></trkpt><trkpt lat="41.60713984247246" lon="13.411764957114475"><ele>169.0</ele><time>2026-04-04T09:16:16Z</time></trkpt><trkpt lat="41.60702334261858" lon="13.411921275415724"><ele>169.0</ele><time>2026-04-04T09:16:17Z</time></trkpt><trkpt lat="41.60690945205574" lon="13.41205119469507"><ele>169.0</ele><time>2026-04-04T09:16:18Z</time></trkpt><trkpt lat="41.60678531073022" lon="13.412155421143524"><ele>169.66666666666669</ele><time>2026-04-04T09:16:19Z</time></trkpt><trkpt lat="41.606643010303685" lon="13.412241445793674"><ele>170.33333333333334</ele><time>2026-04-04T09:16:20Z</time></trkpt><trkpt lat="41.606490355802094" lon="13.412300274379737"><ele>171.0</ele><time>2026-04-04T09:16:21Z</time></trkpt><trkpt lat="41.606339662773024" lon="13.412344628870958"><ele>171.0</ele><time>2026-04-04T09:16:22Z</time></trkpt><trkpt lat="41.60618879514605" lon="13.41238173053355"><ele>171.0</ele><time>2026-04-04T09:16:23Z</time></trkpt><trkpt lat="41.60605063433685" lon="13.412406098623215"><ele>171.0</ele><time>2026-04-04T09:16:24Z</time></trkpt><trkpt lat="41.60591999491029" lon="13.41240521841479"><ele>171.0</ele><time>2026-04-04T09:16:25Z</time></trkpt><trkpt lat="41.605788040229" lon="13.412425671755612"><ele>170.0</ele><time>2026-04-04T09:16:26Z</time></trkpt><trkpt lat="41.605655337083014" lon="13.41246933257561"><ele>169.0</ele><time>2026-04-04T09:16:27Z</time></trkpt><trkpt lat="41.60553236893193" lon="13.412485237781189"><ele>168.0</ele><time>2026-04-04T09:16:28Z</time></trkpt><trkpt lat="41.605421750762616" lon="13.412503676454698"><ele>167.0</ele><time>2026-04-04T09:16:29Z</time></trkpt><trkpt lat="41.605333819659464" lon="13.412512356372867"><ele>166.6</ele><time>2026-04-04T09:16:30Z</time></trkpt><trkpt lat="41.605250996263834" lon="13.41251718712209"><ele>166.2</ele><time>2026-04-04T09:16:31Z</time></trkpt><trkpt lat="41.60515723903387" lon="13.412520072748938"><ele>165.8</ele><time>2026-04-04T09:16:32Z</time></trkpt><trkpt lat="41.605048635463355" lon="13.412513404519023"><ele>165.4</ele><time>2026-04-04T09:16:33Z</time></trkpt><trkpt lat="41.604925002499904" lon="13.41249085776028"><ele>165.0</ele><time>2026-04-04T09:16:34Z</time></trkpt><trkpt lat="41.604786744060185" lon="13.412472020875448"><ele>165.0</ele><time>2026-04-04T09:16:35Z</time></trkpt><trkpt lat="41.60463104095365" lon="13.412451349369707"><ele>165.0</ele><time>2026-04-04T09:16:36Z</time></trkpt><trkpt lat="41.60445360022599" lon="13.41242972738178"><ele>165.0</ele><time>2026-04-04T09:16:37Z</time></trkpt><trkpt lat="41.60425200387802" lon="13.412402530625117"><ele>165.5</ele><time>2026-04-04T09:16:38Z</time></trkpt><trkpt lat="41.60402323123803" lon="13.412372391061723"><ele>166.0</ele><time>2026-04-04T09:16:39Z</time></trkpt><trkpt lat="41.603800083291986" lon="13.412349135728372"><ele>167.0</ele><time>2026-04-04T09:16:40Z</time></trkpt><trkpt lat="41.603569702750185" lon="13.412357863351716"><ele>168.0</ele><time>2026-04-04T09:16:41Z</time></trkpt><trkpt lat="41.60332108372319" lon="13.41241530111273"><ele>168.0</ele><time>2026-04-04T09:16:42Z</time></trkpt><trkpt lat="41.603057875365025" lon="13.412461288574672"><ele>168.0</ele><time>2026-04-04T09:16:43Z</time></trkpt><trkpt lat="41.60283201903612" lon="13.412518751156565"><ele>166.66666666666666</ele><time>2026-04-04T09:16:44Z</time></trkpt><trkpt lat="41.602615977292054" lon="13.412571710902254"><ele>165.33333333333331</ele><time>2026-04-04T09:16:45Z</time></trkpt><trkpt lat="41.60240035454772" lon="13.412620091666945"><ele>164.0</ele><time>2026-04-04T09:16:46Z</time></trkpt><trkpt lat="41.60217813244378" lon="13.412657570073753"><ele>164.33333333333331</ele><time>2026-04-04T09:16:47Z</time></trkpt><trkpt lat="41.60195587502745" lon="13.412680668424162"><ele>164.66666666666666</ele><time>2026-04-04T09:16:48Z</time></trkpt><trkpt lat="41.60173282273923" lon="13.41268336537585"><ele>165.0</ele><time>2026-04-04T09:16:49Z</time></trkpt><trkpt lat="41.60150929947315" lon="13.412661621618527"><ele>165.0</ele><time>2026-04-04T09:16:50Z</time></trkpt><trkpt lat="41.60128796738401" lon="13.41261607591952"><ele>165.0</ele><time>2026-04-04T09:16:51Z</time></trkpt><trkpt lat="41.6010686322117" lon="13.412549640082311"><ele>165.0</ele><time>2026-04-04T09:16:52Z</time></trkpt><trkpt lat="41.60085603861091" lon="13.412468195662143"><ele>165.33333333333334</ele><time>2026-04-04T09:16:53Z</time></trkpt><trkpt lat="41.6006611724789" lon="13.412391142236427"><ele>165.66666666666669</ele><time>2026-04-04T09:16:54Z</time></trkpt><trkpt lat="41.60046565670437" lon="13.412314914293821"><ele>166.0</ele><time>2026-04-04T09:16:55Z</time></trkpt><trkpt lat="41.600272287851766" lon="13.412240371785881"><ele>166.66666666666669</ele><time>2026-04-04T09:16:56Z</time></trkpt><trkpt lat="41.60009343532582" lon="13.41217079033681"><ele>167.33333333333334</ele><time>2026-04-04T09:16:57Z</time></trkpt><trkpt lat="41.59992548163761" lon="13.412105521628787"><ele>168.0</ele><time>2026-04-04T09:16:58Z</time></trkpt><trkpt lat="41.59977232118074" lon="13.41204600172257"><ele>166.66666666666666</ele><time>2026-04-04T09:16:59Z</time></trkpt><trkpt lat="41.599627830144385" lon="13.411989850840927"><ele>165.33333333333331</ele><time>2026-04-04T09:17:00Z</time></trkpt><trkpt lat="41.59948604163141" lon="13.411934750239865"><ele>164.0</ele><time>2026-04-04T09:17:01Z</time></trkpt><trkpt lat="41.5993327919274" lon="13.411875195660608"><ele>164.0</ele><time>2026-04-04T09:17:02Z</time></trkpt><trkpt lat="41.59916228344403" lon="13.411808878218315"><ele>164.0</ele><time>2026-04-04T09:17:03Z</time></trkpt><trkpt lat="41.598953435648305" lon="13.41172641214584"><ele>164.0</ele><time>2026-04-04T09:17:04Z</time></trkpt><trkpt lat="41.598722069484666" lon="13.411635473300256"><ele>164.0</ele><time>2026-04-04T09:17:05Z</time></trkpt><trkpt lat="41.5984707189698" lon="13.411537102786921"><ele>164.0</ele><time>2026-04-04T09:17:06Z</time></trkpt><trkpt lat="41.598222667150964" lon="13.411440091155397"><ele>164.0</ele><time>2026-04-04T09:17:07Z</time></trkpt><trkpt lat="41.598000015091905" lon="13.411353013299479"><ele>164.0</ele><time>2026-04-04T09:17:08Z</time></trkpt><trkpt lat="41.59777175891945" lon="13.411286156270954"><ele>163.0</ele><time>2026-04-04T09:17:09Z</time></trkpt><trkpt lat="41.59754673683579" lon="13.411196241959741"><ele>162.0</ele><time>2026-04-04T09:17:10Z</time></trkpt><trkpt lat="41.5973281651448" lon="13.411110183881124"><ele>162.0</ele><time>2026-04-04T09:17:11Z</time></trkpt><trkpt lat="41.59711976657433" lon="13.411028476647012"><ele>162.0</ele><time>2026-04-04T09:17:12Z</time></trkpt><trkpt lat="41.596910394368955" lon="13.410946699291642"><ele>162.0</ele><time>2026-04-04T09:17:13Z</time></trkpt><trkpt lat="41.596699675957396" lon="13.410864575161701"><ele>164.0</ele><time>2026-04-04T09:17:14Z</time></trkpt><trkpt lat="41.59647911256095" lon="13.410786936102044"><ele>166.0</ele><time>2026-04-04T09:17:15Z</time></trkpt><trkpt lat="41.596254287296276" lon="13.410708142813462"><ele>165.0</ele><time>2026-04-04T09:17:16Z</time></trkpt><trkpt lat="41.59602127174455" lon="13.410674156903665"><ele>164.0</ele><time>2026-04-04T09:17:17Z</time></trkpt><trkpt lat="41.59579079010188" lon="13.410664614331273"><ele>164.0</ele><time>2026-04-04T09:17:18Z</time></trkpt><trkpt lat="41.59556287227971" lon="13.41067454707574"><ele>164.0</ele><time>2026-04-04T09:17:19Z</time></trkpt><trkpt lat="41.59535518562209" lon="13.410707040658167"><ele>164.0</ele><time>2026-04-04T09:17:20Z</time></trkpt><trkpt lat="41.595153230194626" lon="13.410761683804715"><ele>163.33333333333331</ele><time>2026-04-04T09:17:21Z</time></trkpt><trkpt lat="41.59495289219853" lon="13.410836918216333"><ele>162.66666666666666</ele><time>2026-04-04T09:17:22Z</time></trkpt><trkpt lat="41.59476010953739" lon="13.410939848450566"><ele>162.0</ele><time>2026-04-04T09:17:23Z</time></trkpt><trkpt lat="41.594586544097055" lon="13.411049353014834"><ele>161.66666666666666</ele><time>2026-04-04T09:17:24Z</time></trkpt><trkpt lat="41.59442872925337" lon="13.411163046791302"><ele>161.33333333333331</ele><time>2026-04-04T09:17:25Z</time></trkpt><trkpt lat="41.594274160779726" lon="13.411288997721623"><ele>161.0</ele><time>2026-04-04T09:17:26Z</time></trkpt><trkpt lat="41.59412985347004" lon="13.41142498470537"><ele>161.0</ele><time>2026-04-04T09:17:27Z</time></trkpt><trkpt lat="41.59399608700617" lon="13.41157009702146"><ele>161.0</ele><time>2026-04-04T09:17:28Z</time></trkpt><trkpt lat="41.59386470366331" lon="13.411730003490115"><ele>161.0</ele><time>2026-04-04T09:17:29Z</time></trkpt><trkpt lat="41.593729676744736" lon="13.411905536824776"><ele>160.33333333333331</ele><time>2026-04-04T09:17:30Z</time></trkpt><trkpt lat="41.59357805349211" lon="13.412108283554733"><ele>159.66666666666666</ele><time>2026-04-04T09:17:31Z</time></trkpt><trkpt lat="41.59341652660755" lon="13.41232427318284"><ele>159.0</ele><time>2026-04-04T09:17:32Z</time></trkpt><trkpt lat="41.59325384627493" lon="13.412542682798673"><ele>161.0</ele><time>2026-04-04T09:17:33Z</time></trkpt><trkpt lat="41.59309199446328" lon="13.412760775478919"><ele>163.0</ele><time>2026-04-04T09:17:34Z</time></trkpt><trkpt lat="41.59294262671131" lon="13.412989986487641"><ele>163.0</ele><time>2026-04-04T09:17:35Z</time></trkpt><trkpt lat="41.59278068258035" lon="13.413209851014951"><ele>163.0</ele><time>2026-04-04T09:17:36Z</time></trkpt><trkpt lat="41.59260528374394" lon="13.413414948247109"><ele>163.0</ele><time>2026-04-04T09:17:37Z</time></trkpt><trkpt lat="41.59243856405228" lon="13.413638300072542"><ele>163.0</ele><time>2026-04-04T09:17:38Z</time></trkpt><trkpt lat="41.592269428149926" lon="13.41386451803002"><ele>163.0</ele><time>2026-04-04T09:17:39Z</time></trkpt><trkpt lat="41.59209798011725" lon="13.414092041678005"><ele>163.0</ele><time>2026-04-04T09:17:40Z</time></trkpt><trkpt lat="41.59192406522537" lon="13.414322840965017"><ele>162.0</ele><time>2026-04-04T09:17:41Z</time></trkpt><trkpt lat="41.59174992191993" lon="13.414553944093598"><ele>161.0</ele><time>2026-04-04T09:17:42Z</time></trkpt><trkpt lat="41.59157623869308" lon="13.414787257757487"><ele>161.0</ele><time>2026-04-04T09:17:43Z</time></trkpt><trkpt lat="41.59142571633989" lon="13.415047558909318"><ele>161.0</ele><time>2026-04-04T09:17:44Z</time></trkpt><trkpt lat="41.59125204451747" lon="13.41528208965487"><ele>163.0</ele><time>2026-04-04T09:17:45Z</time></trkpt><trkpt lat="41.59107406851589" lon="13.41551906583813"><ele>165.0</ele><time>2026-04-04T09:17:46Z</time></trkpt><trkpt lat="41.59089441978559" lon="13.415755971283474"><ele>165.0</ele><time>2026-04-04T09:17:47Z</time></trkpt><trkpt lat="41.59071706088357" lon="13.41599078529217"><ele>165.0</ele><time>2026-04-04T09:17:48Z</time></trkpt><trkpt lat="41.59054081820441" lon="13.416228115824849"><ele>165.5</ele><time>2026-04-04T09:17:49Z</time></trkpt><trkpt lat="41.59035050982553" lon="13.416477292687127"><ele>166.0</ele><time>2026-04-04T09:17:50Z</time></trkpt><trkpt lat="41.59016477597675" lon="13.41672419021702"><ele>168.5</ele><time>2026-04-04T09:17:51Z</time></trkpt><trkpt lat="41.589989467962035" lon="13.41695989130776"><ele>171.0</ele><time>2026-04-04T09:17:52Z</time></trkpt><trkpt lat="41.58982692956804" lon="13.417178392418514"><ele>171.0</ele><time>2026-04-04T09:17:53Z</time></trkpt><trkpt lat="41.58966914820985" lon="13.41738291721014"><ele>171.0</ele><time>2026-04-04T09:17:54Z</time></trkpt><trkpt lat="41.589503438966894" lon="13.417581661120384"><ele>171.0</ele><time>2026-04-04T09:17:55Z</time></trkpt><trkpt lat="41.589327483376216" lon="13.41776288853049"><ele>171.66666666666666</ele><time>2026-04-04T09:17:56Z</time></trkpt><trkpt lat="41.58914391790768" lon="13.41793226885794"><ele>172.33333333333331</ele><time>2026-04-04T09:17:57Z</time></trkpt><trkpt lat="41.588956894781184" lon="13.418090125087907"><ele>173.0</ele><time>2026-04-04T09:17:58Z</time></trkpt><trkpt lat="41.58875113984063" lon="13.418226386111586"><ele>171.5</ele><time>2026-04-04T09:17:59Z</time></trkpt><trkpt lat="41.588534917045706" lon="13.418348978358548"><ele>170.0</ele><time>2026-04-04T09:18:00Z</time></trkpt><trkpt lat="41.588305893758324" lon="13.418454372753214"><ele>170.0</ele><time>2026-04-04T09:18:01Z</time></trkpt><trkpt lat="41.58806639147074" lon="13.41854593045083"><ele>170.0</ele><time>2026-04-04T09:18:02Z</time></trkpt><trkpt lat="41.58782175919471" lon="13.41863542395282"><ele>170.5</ele><time>2026-04-04T09:18:03Z</time></trkpt><trkpt lat="41.58756950883183" lon="13.418721891313577"><ele>171.0</ele><time>2026-04-04T09:18:04Z</time></trkpt><trkpt lat="41.587306183268645" lon="13.418799570544525"><ele>169.5</ele><time>2026-04-04T09:18:05Z</time></trkpt><trkpt lat="41.587023926365084" lon="13.418877201000415"><ele>168.0</ele><time>2026-04-04T09:18:06Z</time></trkpt><trkpt lat="41.58674766803874" lon="13.418952873869971"><ele>168.0</ele><time>2026-04-04T09:18:07Z</time></trkpt><trkpt lat="41.58649797176253" lon="13.419025598401067"><ele>168.0</ele><time>2026-04-04T09:18:08Z</time></trkpt><trkpt lat="41.58625546036803" lon="13.41911071446076"><ele>168.0</ele><time>2026-04-04T09:18:09Z</time></trkpt><trkpt lat="41.58601818801521" lon="13.419225231192067"><ele>168.0</ele><time>2026-04-04T09:18:10Z</time></trkpt><trkpt lat="41.58578768623186" lon="13.419385332261044"><ele>168.0</ele><time>2026-04-04T09:18:11Z</time></trkpt><trkpt lat="41.5855638581728" lon="13.419573991884905"><ele>168.0</ele><time>2026-04-04T09:18:12Z</time></trkpt><trkpt lat="41.58535276702739" lon="13.419781322678006"><ele>166.0</ele><time>2026-04-04T09:18:13Z</time></trkpt><trkpt lat="41.58515031741636" lon="13.419991828033808"><ele>164.0</ele><time>2026-04-04T09:18:14Z</time></trkpt><trkpt lat="41.58495386714854" lon="13.42018796111322"><ele>164.0</ele><time>2026-04-04T09:18:15Z</time></trkpt><trkpt lat="41.58476326920018" lon="13.42037763163549"><ele>164.0</ele><time>2026-04-04T09:18:16Z</time></trkpt><trkpt lat="41.584573137285474" lon="13.420571988545964"><ele>163.0</ele><time>2026-04-04T09:18:17Z</time></trkpt><trkpt lat="41.58438685452557" lon="13.420759098357767"><ele>162.0</ele><time>2026-04-04T09:18:18Z</time></trkpt><trkpt lat="41.58420213308983" lon="13.420945453991102"><ele>162.0</ele><time>2026-04-04T09:18:19Z</time></trkpt><trkpt lat="41.58401885372623" lon="13.421129682194614"><ele>162.0</ele><time>2026-04-04T09:18:20Z</time></trkpt><trkpt lat="41.583833176372096" lon="13.421316987518715"><ele>160.5</ele><time>2026-04-04T09:18:21Z</time></trkpt><trkpt lat="41.583650909262516" lon="13.421510434001418"><ele>159.0</ele><time>2026-04-04T09:18:22Z</time></trkpt><trkpt lat="41.58347848692934" lon="13.421727776589561"><ele>159.0</ele><time>2026-04-04T09:18:23Z</time></trkpt><trkpt lat="41.58332292281093" lon="13.421963562145178"><ele>159.0</ele><time>2026-04-04T09:18:24Z</time></trkpt><trkpt lat="41.583183185227405" lon="13.422198969144922"><ele>159.0</ele><time>2026-04-04T09:18:25Z</time></trkpt><trkpt lat="41.58305623896382" lon="13.422427194236421"><ele>159.0</ele><time>2026-04-04T09:18:26Z</time></trkpt><trkpt lat="41.582939844641515" lon="13.42264022259368"><ele>159.0</ele><time>2026-04-04T09:18:27Z</time></trkpt><trkpt lat="41.582812322356716" lon="13.42284319700646"><ele>158.0</ele><time>2026-04-04T09:18:28Z</time></trkpt><trkpt lat="41.58266237668685" lon="13.423021582809305"><ele>157.0</ele><time>2026-04-04T09:18:29Z</time></trkpt><trkpt lat="41.58249426154352" lon="13.423167069165771"><ele>156.0</ele><time>2026-04-04T09:18:30Z</time></trkpt><trkpt lat="41.58231118824857" lon="13.42328246766517"><ele>156.0</ele><time>2026-04-04T09:18:31Z</time></trkpt><trkpt lat="41.58213134748125" lon="13.423373968680973"><ele>156.0</ele><time>2026-04-04T09:18:32Z</time></trkpt><trkpt lat="41.58196218851275" lon="13.423439851801886"><ele>156.0</ele><time>2026-04-04T09:18:33Z</time></trkpt><trkpt lat="41.58180150638868" lon="13.423490781869141"><ele>155.33333333333334</ele><time>2026-04-04T09:18:34Z</time></trkpt><trkpt lat="41.581641161916316" lon="13.42355771534275"><ele>154.66666666666669</ele><time>2026-04-04T09:18:35Z</time></trkpt><trkpt lat="41.58149027378042" lon="13.42365178625184"><ele>154.0</ele><time>2026-04-04T09:18:36Z</time></trkpt><trkpt lat="41.58133999478913" lon="13.423758053660833"><ele>154.0</ele><time>2026-04-04T09:18:37Z</time></trkpt><trkpt lat="41.58118443013843" lon="13.42386641686583"><ele>154.0</ele><time>2026-04-04T09:18:38Z</time></trkpt><trkpt lat="41.58103359925036" lon="13.423988319815042"><ele>154.0</ele><time>2026-04-04T09:18:39Z</time></trkpt><trkpt lat="41.58089349729767" lon="13.424129737704392"><ele>154.0</ele><time>2026-04-04T09:18:40Z</time></trkpt><trkpt lat="41.580783936346414" lon="13.424290207487067"><ele>154.0</ele><time>2026-04-04T09:18:41Z</time></trkpt><trkpt lat="41.580693264155656" lon="13.424449471251048"><ele>154.0</ele><time>2026-04-04T09:18:42Z</time></trkpt><trkpt lat="41.58061266595077" lon="13.424598428894894"><ele>153.5</ele><time>2026-04-04T09:18:43Z</time></trkpt><trkpt lat="41.58053472122439" lon="13.42473557812095"><ele>153.0</ele><time>2026-04-04T09:18:44Z</time></trkpt><trkpt lat="41.58046068613918" lon="13.424853498780472"><ele>152.5</ele><time>2026-04-04T09:18:45Z</time></trkpt><trkpt lat="41.58038461122279" lon="13.424954623691388"><ele>152.0</ele><time>2026-04-04T09:18:46Z</time></trkpt><trkpt lat="41.5802849925651" lon="13.425034525013151"><ele>152.0</ele><time>2026-04-04T09:18:47Z</time></trkpt><trkpt lat="41.58016570680521" lon="13.425092831571925"><ele>152.0</ele><time>2026-04-04T09:18:48Z</time></trkpt><trkpt lat="41.58004773772499" lon="13.425149352837426"><ele>152.0</ele><time>2026-04-04T09:18:49Z</time></trkpt><trkpt lat="41.579937499047674" lon="13.425212051939642"><ele>152.0</ele><time>2026-04-04T09:18:50Z</time></trkpt><trkpt lat="41.579828103764115" lon="13.425276796197222"><ele>152.0</ele><time>2026-04-04T09:18:51Z</time></trkpt><trkpt lat="41.579715637420975" lon="13.425345528472226"><ele>152.0</ele><time>2026-04-04T09:18:52Z</time></trkpt><trkpt lat="41.579599385571974" lon="13.425417262135822"><ele>152.0</ele><time>2026-04-04T09:18:53Z</time></trkpt><trkpt lat="41.57947701750457" lon="13.42549232513227"><ele>152.0</ele><time>2026-04-04T09:18:54Z</time></trkpt><trkpt lat="41.579345241466" lon="13.425538373595518"><ele>151.25</ele><time>2026-04-04T09:18:55Z</time></trkpt><trkpt lat="41.579228323481225" lon="13.425594552701591"><ele>150.5</ele><time>2026-04-04T09:18:56Z</time></trkpt><trkpt lat="41.57911354132031" lon="13.425647415148221"><ele>149.75</ele><time>2026-04-04T09:18:57Z</time></trkpt><trkpt lat="41.57899524047942" lon="13.425686580516503"><ele>149.0</ele><time>2026-04-04T09:18:58Z</time></trkpt><trkpt lat="41.57886946440804" lon="13.425697976566584"><ele>149.0</ele><time>2026-04-04T09:18:59Z</time></trkpt><trkpt lat="41.57873902303219" lon="13.425681665559708"><ele>149.0</ele><time>2026-04-04T09:19:00Z</time></trkpt><trkpt lat="41.57860521456825" lon="13.425670557683349"><ele>149.0</ele><time>2026-04-04T09:19:01Z</time></trkpt><trkpt lat="41.57847815889818" lon="13.425633314069096"><ele>149.0</ele><time>2026-04-04T09:19:02Z</time></trkpt><trkpt lat="41.57835394635887" lon="13.425598484280066"><ele>149.0</ele><time>2026-04-04T09:19:03Z</time></trkpt><trkpt lat="41.578229787643714" lon="13.425559746747291"><ele>149.0</ele><time>2026-04-04T09:19:04Z</time></trkpt><trkpt lat="41.578104940616804" lon="13.425510645667117"><ele>149.0</ele><time>2026-04-04T09:19:05Z</time></trkpt><trkpt lat="41.57798876607916" lon="13.425447967586893"><ele>149.0</ele><time>2026-04-04T09:19:06Z</time></trkpt><trkpt lat="41.57787919192628" lon="13.42537580376162"><ele>150.0</ele><time>2026-04-04T09:19:07Z</time></trkpt><trkpt lat="41.5777732137569" lon="13.42529759306457"><ele>151.0</ele><time>2026-04-04T09:19:08Z</time></trkpt><trkpt lat="41.57767382058263" lon="13.425214283158494"><ele>152.0</ele><time>2026-04-04T09:19:09Z</time></trkpt><trkpt lat="41.57757842841286" lon="13.425128282590949"><ele>153.0</ele><time>2026-04-04T09:19:10Z</time></trkpt><trkpt lat="41.577488240148774" lon="13.425038743986532"><ele>153.0</ele><time>2026-04-04T09:19:11Z</time></trkpt><trkpt lat="41.57740221654716" lon="13.424941951525332"><ele>153.0</ele><time>2026-04-04T09:19:12Z</time></trkpt><trkpt lat="41.577318935575555" lon="13.424842575025442"><ele>153.0</ele><time>2026-04-04T09:19:13Z</time></trkpt><trkpt lat="41.57724335034175" lon="13.42473911409096"><ele>153.0</ele><time>2026-04-04T09:19:14Z</time></trkpt><trkpt lat="41.57717171410958" lon="13.424629829325392"><ele>153.0</ele><time>2026-04-04T09:19:15Z</time></trkpt><trkpt lat="41.57711289045059" lon="13.424514762627895"><ele>153.6</ele><time>2026-04-04T09:19:16Z</time></trkpt><trkpt lat="41.57705939902313" lon="13.424398136845035"><ele>154.20000000000002</ele><time>2026-04-04T09:19:17Z</time></trkpt><trkpt lat="41.577000692092476" lon="13.424284062392871"><ele>154.8</ele><time>2026-04-04T09:19:18Z</time></trkpt><trkpt lat="41.576942889757966" lon="13.424167867958742"><ele>155.4</ele><time>2026-04-04T09:19:19Z</time></trkpt><trkpt lat="41.57688606957629" lon="13.424050016749145"><ele>156.0</ele><time>2026-04-04T09:19:20Z</time></trkpt><trkpt lat="41.576826309287604" lon="13.42393443116501"><ele>157.6</ele><time>2026-04-04T09:19:21Z</time></trkpt><trkpt lat="41.57676115904035" lon="13.423824136233378"><ele>159.2</ele><time>2026-04-04T09:19:22Z</time></trkpt><trkpt lat="41.576688344610524" lon="13.423720461832051"><ele>160.79999999999998</ele><time>2026-04-04T09:19:23Z</time></trkpt><trkpt lat="41.57660919676141" lon="13.423624257860066"><ele>162.39999999999998</ele><time>2026-04-04T09:19:24Z</time></trkpt><trkpt lat="41.5765289019671" lon="13.423521814581871"><ele>164.0</ele><time>2026-04-04T09:19:25Z</time></trkpt><trkpt lat="41.576445600744925" lon="13.423420553773497"><ele>164.75</ele><time>2026-04-04T09:19:26Z</time></trkpt><trkpt lat="41.57635661994113" lon="13.423320504559111"><ele>165.5</ele><time>2026-04-04T09:19:27Z</time></trkpt><trkpt lat="41.57626966896205" lon="13.423219902327805"><ele>166.25</ele><time>2026-04-04T09:19:28Z</time></trkpt><trkpt lat="41.57617917945269" lon="13.423123088829874"><ele>167.0</ele><time>2026-04-04T09:19:29Z</time></trkpt><trkpt lat="41.57608600382907" lon="13.42303265316059"><ele>168.6</ele><time>2026-04-04T09:19:30Z</time></trkpt><trkpt lat="41.57598645895627" lon="13.422959811818467"><ele>170.2</ele><time>2026-04-04T09:19:31Z</time></trkpt><trkpt lat="41.57588596110538" lon="13.422898739311487"><ele>171.8</ele><time>2026-04-04T09:19:32Z</time></trkpt><trkpt lat="41.57579165365133" lon="13.422825248035755"><ele>173.4</ele><time>2026-04-04T09:19:33Z</time></trkpt><trkpt lat="41.575686608873596" lon="13.422774363800125"><ele>175.0</ele><time>2026-04-04T09:19:34Z</time></trkpt><trkpt lat="41.5755784134727" lon="13.422725245053437"><ele>175.0</ele><time>2026-04-04T09:19:35Z</time></trkpt><trkpt lat="41.57546507361149" lon="13.42268646461193"><ele>175.0</ele><time>2026-04-04T09:19:36Z</time></trkpt><trkpt lat="41.57534548369036" lon="13.422618075966206"><ele>175.0</ele><time>2026-04-04T09:19:37Z</time></trkpt><trkpt lat="41.57522181961644" lon="13.422540697399159"><ele>175.0</ele><time>2026-04-04T09:19:38Z</time></trkpt><trkpt lat="41.5751094971214" lon="13.42242697061087"><ele>175.33333333333334</ele><time>2026-04-04T09:19:39Z</time></trkpt><trkpt lat="41.574975204298354" lon="13.422326636858894"><ele>175.66666666666666</ele><time>2026-04-04T09:19:40Z</time></trkpt><trkpt lat="41.57484051563245" lon="13.422197335573571"><ele>176.0</ele><time>2026-04-04T09:19:41Z</time></trkpt><trkpt lat="41.57469950470029" lon="13.422079204679926"><ele>176.0</ele><time>2026-04-04T09:19:42Z</time></trkpt><trkpt lat="41.57455731383773" lon="13.421974370794759"><ele>176.0</ele><time>2026-04-04T09:19:43Z</time></trkpt><trkpt lat="41.57441623026463" lon="13.421872266179749"><ele>176.0</ele><time>2026-04-04T09:19:44Z</time></trkpt><trkpt lat="41.57427271606592" lon="13.421789603852842"><ele>176.75</ele><time>2026-04-04T09:19:45Z</time></trkpt><trkpt lat="41.57413699351549" lon="13.421713562042038"><ele>177.5</ele><time>2026-04-04T09:19:46Z</time></trkpt><trkpt lat="41.5740163646198" lon="13.421644847872463"><ele>178.25</ele><time>2026-04-04T09:19:47Z</time></trkpt><trkpt lat="41.57391113657606" lon="13.421583894355722"><ele>179.0</ele><time>2026-04-04T09:19:48Z</time></trkpt><trkpt lat="41.57382618970307" lon="13.421534688736026"><ele>179.0</ele><time>2026-04-04T09:19:49Z</time></trkpt><trkpt lat="41.57375387967994" lon="13.421492802939095"><ele>179.0</ele><time>2026-04-04T09:19:50Z</time></trkpt><trkpt lat="41.57366506911269" lon="13.421449878196201"><ele>179.0</ele><time>2026-04-04T09:19:52Z</time></trkpt><trkpt lat="41.573574970847325" lon="13.421407015478875"><ele>179.0</ele><time>2026-04-04T09:20:23Z</time></trkpt><trkpt lat="41.573483150208105" lon="13.421402352355999"><ele>179.0</ele><time>2026-04-04T09:20:25Z</time></trkpt><trkpt lat="41.57340861001111" lon="13.421399576865344"><ele>179.0</ele><time>2026-04-04T09:20:26Z</time></trkpt><trkpt lat="41.57331339721601" lon="13.421342585620428"><ele>180.0</ele><time>2026-04-04T09:20:27Z</time></trkpt><trkpt lat="41.573214431809355" lon="13.421335578443916"><ele>181.0</ele><time>2026-04-04T09:20:28Z</time></trkpt><trkpt lat="41.57310199534733" lon="13.421334523456542"><ele>182.0</ele><time>2026-04-04T09:20:29Z</time></trkpt><trkpt lat="41.57298423967284" lon="13.4213364326681"><ele>183.0</ele><time>2026-04-04T09:20:30Z</time></trkpt><trkpt lat="41.57285702880854" lon="13.421341651307293"><ele>182.75</ele><time>2026-04-04T09:20:31Z</time></trkpt><trkpt lat="41.57273526184512" lon="13.421349396349274"><ele>182.5</ele><time>2026-04-04T09:20:32Z</time></trkpt><trkpt lat="41.57261509885921" lon="13.421357039372278"><ele>182.25</ele><time>2026-04-04T09:20:33Z</time></trkpt><trkpt lat="41.57248722745745" lon="13.421372591599804"><ele>182.0</ele><time>2026-04-04T09:20:34Z</time></trkpt><trkpt lat="41.57235571065892" lon="13.421394716929642"><ele>182.0</ele><time>2026-04-04T09:20:35Z</time></trkpt><trkpt lat="41.572228453597326" lon="13.42141908251409"><ele>182.0</ele><time>2026-04-04T09:20:36Z</time></trkpt><trkpt lat="41.572097415081835" lon="13.421444308342194"><ele>182.0</ele><time>2026-04-04T09:20:37Z</time></trkpt><trkpt lat="41.57195619841961" lon="13.421486659426572"><ele>182.0</ele><time>2026-04-04T09:20:38Z</time></trkpt><trkpt lat="41.571800700289444" lon="13.421571069382527"><ele>182.0</ele><time>2026-04-04T09:20:39Z</time></trkpt><trkpt lat="41.571655355768144" lon="13.421704712861482"><ele>182.0</ele><time>2026-04-04T09:20:40Z</time></trkpt><trkpt lat="41.5715071607378" lon="13.421842731829427"><ele>182.0</ele><time>2026-04-04T09:20:41Z</time></trkpt><trkpt lat="41.57135702034182" lon="13.421986853099549"><ele>182.0</ele><time>2026-04-04T09:20:42Z</time></trkpt><trkpt lat="41.57120484966848" lon="13.422130654077149"><ele>182.0</ele><time>2026-04-04T09:20:43Z</time></trkpt><trkpt lat="41.5710529397624" lon="13.422257319250356"><ele>182.0</ele><time>2026-04-04T09:20:44Z</time></trkpt><trkpt lat="41.57090540719717" lon="13.422385597826288"><ele>183.0</ele><time>2026-04-04T09:20:45Z</time></trkpt><trkpt lat="41.5707432009352" lon="13.422460759783165"><ele>184.0</ele><time>2026-04-04T09:20:46Z</time></trkpt><trkpt lat="41.57058155852055" lon="13.422512083513979"><ele>185.0</ele><time>2026-04-04T09:20:47Z</time></trkpt><trkpt lat="41.57041638034362" lon="13.422546472682821"><ele>185.75</ele><time>2026-04-04T09:20:48Z</time></trkpt><trkpt lat="41.570250891228135" lon="13.422519988972835"><ele>186.5</ele><time>2026-04-04T09:20:49Z</time></trkpt><trkpt lat="41.57010364353102" lon="13.422528510085506"><ele>187.25</ele><time>2026-04-04T09:20:50Z</time></trkpt><trkpt lat="41.56998065099645" lon="13.42250057958285"><ele>188.0</ele><time>2026-04-04T09:20:51Z</time></trkpt><trkpt lat="41.569877952661955" lon="13.42244223367091"><ele>188.0</ele><time>2026-04-04T09:20:52Z</time></trkpt><trkpt lat="41.56978648645591" lon="13.42234297014124"><ele>188.0</ele><time>2026-04-04T09:20:53Z</time></trkpt><trkpt lat="41.56970424024242" lon="13.422197461653427"><ele>188.0</ele><time>2026-04-04T09:20:54Z</time></trkpt><trkpt lat="41.56963334723844" lon="13.422021397932253"><ele>188.0</ele><time>2026-04-04T09:20:55Z</time></trkpt><trkpt lat="41.5695208409613" lon="13.421828239154024"><ele>187.0</ele><time>2026-04-04T09:20:56Z</time></trkpt><trkpt lat="41.569403441131556" lon="13.421629424593332"><ele>186.0</ele><time>2026-04-04T09:20:57Z</time></trkpt><trkpt lat="41.56928281679931" lon="13.421423260530162"><ele>185.0</ele><time>2026-04-04T09:20:58Z</time></trkpt><trkpt lat="41.56914778182166" lon="13.421213314639328"><ele>186.0</ele><time>2026-04-04T09:20:59Z</time></trkpt><trkpt lat="41.568992210059655" lon="13.421022551216659"><ele>187.0</ele><time>2026-04-04T09:21:00Z</time></trkpt><trkpt lat="41.56882305060174" lon="13.420852019558962"><ele>188.0</ele><time>2026-04-04T09:21:01Z</time></trkpt><trkpt lat="41.568640233002874" lon="13.420697856406147"><ele>188.0</ele><time>2026-04-04T09:21:02Z</time></trkpt><trkpt lat="41.56846801509324" lon="13.420521829496035"><ele>188.0</ele><time>2026-04-04T09:21:03Z</time></trkpt><trkpt lat="41.56829399374273" lon="13.420365357401687"><ele>188.0</ele><time>2026-04-04T09:21:04Z</time></trkpt><trkpt lat="41.56814049651548" lon="13.420225633035045"><ele>190.0</ele><time>2026-04-04T09:21:05Z</time></trkpt><trkpt lat="41.56799180498928" lon="13.420113269786475"><ele>192.0</ele><time>2026-04-04T09:21:06Z</time></trkpt><trkpt lat="41.56786507715046" lon="13.419995757644234"><ele>194.0</ele><time>2026-04-04T09:21:07Z</time></trkpt><trkpt lat="41.567757230589784" lon="13.419885857287658"><ele>194.0</ele><time>2026-04-04T09:21:08Z</time></trkpt><trkpt lat="41.567668113305544" lon="13.419796707238332"><ele>194.0</ele><time>2026-04-04T09:21:09Z</time></trkpt><trkpt lat="41.56760945137745" lon="13.419694593129385"><ele>194.0</ele><time>2026-04-04T09:21:10Z</time></trkpt><trkpt lat="41.567603760478434" lon="13.419583035837652"><ele>194.0</ele><time>2026-04-04T09:21:11Z</time></trkpt><trkpt lat="41.56764451236104" lon="13.419459325022432"><ele>194.0</ele><time>2026-04-04T09:21:12Z</time></trkpt><trkpt lat="41.56771212594785" lon="13.41931925908095"><ele>197.0</ele><time>2026-04-04T09:21:13Z</time></trkpt><trkpt lat="41.567792517399894" lon="13.419145612164655"><ele>200.0</ele><time>2026-04-04T09:21:14Z</time></trkpt><trkpt lat="41.56787426466028" lon="13.418955349755906"><ele>203.0</ele><time>2026-04-04T09:21:15Z</time></trkpt><trkpt lat="41.56795946991488" lon="13.418751584250087"><ele>204.0</ele><time>2026-04-04T09:21:16Z</time></trkpt><trkpt lat="41.56804600574823" lon="13.418541734074196"><ele>205.0</ele><time>2026-04-04T09:21:17Z</time></trkpt><trkpt lat="41.56813538528961" lon="13.41833500218814"><ele>206.0</ele><time>2026-04-04T09:21:18Z</time></trkpt><trkpt lat="41.5682178242708" lon="13.41814203846823"><ele>207.66666666666669</ele><time>2026-04-04T09:21:19Z</time></trkpt><trkpt lat="41.56829272382494" lon="13.417951225160818"><ele>209.33333333333331</ele><time>2026-04-04T09:21:20Z</time></trkpt><trkpt lat="41.56836340573278" lon="13.417751147884646"><ele>211.0</ele><time>2026-04-04T09:21:21Z</time></trkpt><trkpt lat="41.56842880539268" lon="13.417542787250374"><ele>211.0</ele><time>2026-04-04T09:21:22Z</time></trkpt><trkpt lat="41.56849049813921" lon="13.417328023305474"><ele>211.0</ele><time>2026-04-04T09:21:23Z</time></trkpt><trkpt lat="41.56854679191069" lon="13.417109271936997"><ele>211.0</ele><time>2026-04-04T09:21:24Z</time></trkpt><trkpt lat="41.568598544431346" lon="13.416904169728907"><ele>211.0</ele><time>2026-04-04T09:21:25Z</time></trkpt><trkpt lat="41.568643793553356" lon="13.41673803786334"><ele>211.0</ele><time>2026-04-04T09:21:26Z</time></trkpt><trkpt lat="41.568689743375494" lon="13.41657148622164"><ele>211.0</ele><time>2026-04-04T09:21:27Z</time></trkpt><trkpt lat="41.568724200434254" lon="13.416423603406084"><ele>211.0</ele><time>2026-04-04T09:21:28Z</time></trkpt><trkpt lat="41.568743505258354" lon="13.41629032284921"><ele>211.0</ele><time>2026-04-04T09:21:29Z</time></trkpt><trkpt lat="41.56872753598866" lon="13.41616073998144"><ele>211.0</ele><time>2026-04-04T09:21:30Z</time></trkpt><trkpt lat="41.56867260641818" lon="13.416038386664612"><ele>211.0</ele><time>2026-04-04T09:21:31Z</time></trkpt><trkpt lat="41.5685876463661" lon="13.415933450606989"><ele>211.0</ele><time>2026-04-04T09:21:32Z</time></trkpt><trkpt lat="41.56848502031069" lon="13.415834085981853"><ele>211.0</ele><time>2026-04-04T09:21:33Z</time></trkpt><trkpt lat="41.56838940941958" lon="13.415706248306659"><ele>212.5</ele><time>2026-04-04T09:21:34Z</time></trkpt><trkpt lat="41.56827200818569" lon="13.415611941025073"><ele>214.0</ele><time>2026-04-04T09:21:35Z</time></trkpt><trkpt lat="41.568181745806605" lon="13.41551441514303"><ele>215.5</ele><time>2026-04-04T09:21:36Z</time></trkpt><trkpt lat="41.56810471081316" lon="13.415422055320773"><ele>217.0</ele><time>2026-04-04T09:21:37Z</time></trkpt><trkpt lat="41.56804481304815" lon="13.415303645559973"><ele>217.0</ele><time>2026-04-04T09:21:38Z</time></trkpt><trkpt lat="41.56799958204604" lon="13.415156441833176"><ele>217.0</ele><time>2026-04-04T09:21:39Z</time></trkpt><trkpt lat="41.56795235676505" lon="13.414998611418866"><ele>217.0</ele><time>2026-04-04T09:21:40Z</time></trkpt><trkpt lat="41.56790771574259" lon="13.414831700766852"><ele>217.0</ele><time>2026-04-04T09:21:41Z</time></trkpt><trkpt lat="41.56785948154374" lon="13.414660296449664"><ele>219.75</ele><time>2026-04-04T09:21:42Z</time></trkpt><trkpt lat="41.56781555140237" lon="13.414499306085993"><ele>222.5</ele><time>2026-04-04T09:21:43Z</time></trkpt><trkpt lat="41.56777737338772" lon="13.41435692864575"><ele>225.25</ele><time>2026-04-04T09:21:44Z</time></trkpt><trkpt lat="41.56773780626971" lon="13.414211527003893"><ele>228.0</ele><time>2026-04-04T09:21:45Z</time></trkpt><trkpt lat="41.56770026127231" lon="13.414065457184833"><ele>228.0</ele><time>2026-04-04T09:21:46Z</time></trkpt><trkpt lat="41.56767197307327" lon="13.413947440996793"><ele>228.0</ele><time>2026-04-04T09:21:47Z</time></trkpt><trkpt lat="41.5676452542927" lon="13.413842678735305"><ele>228.0</ele><time>2026-04-04T09:21:48Z</time></trkpt><trkpt lat="41.567618657871606" lon="13.413745200956733"><ele>228.0</ele><time>2026-04-04T09:21:49Z</time></trkpt><trkpt lat="41.56759247034674" lon="13.413648109396625"><ele>228.0</ele><time>2026-04-04T09:21:50Z</time></trkpt><trkpt lat="41.56755092953873" lon="13.413497702112386"><ele>228.0</ele><time>2026-04-04T09:21:52Z</time></trkpt><trkpt lat="41.56752193801152" lon="13.413370655409071"><ele>228.0</ele><time>2026-04-04T09:21:54Z</time></trkpt><trkpt lat="41.56750630525372" lon="13.413288668820302"><ele>228.0</ele><time>2026-04-04T09:21:55Z</time></trkpt><trkpt lat="41.56749142446396" lon="13.413196273318782"><ele>228.0</ele><time>2026-04-04T09:21:56Z</time></trkpt><trkpt lat="41.56748187985484" lon="13.413110834217184"><ele>228.0</ele><time>2026-04-04T09:21:57Z</time></trkpt><trkpt lat="41.56749104513221" lon="13.413009751051202"><ele>228.0</ele><time>2026-04-04T09:21:59Z</time></trkpt><trkpt lat="41.56753505418834" lon="13.41287659617752"><ele>228.0</ele><time>2026-04-04T09:22:01Z</time></trkpt><trkpt lat="41.56754385360655" lon="13.4127770613615"><ele>228.0</ele><time>2026-04-04T09:22:02Z</time></trkpt><trkpt lat="41.567563817894204" lon="13.412684434856985"><ele>228.0</ele><time>2026-04-04T09:22:03Z</time></trkpt><trkpt lat="41.56753549362953" lon="13.412550734335815"><ele>228.0</ele><time>2026-04-04T09:22:04Z</time></trkpt><trkpt lat="41.56749534745955" lon="13.412386681986028"><ele>228.0</ele><time>2026-04-04T09:22:05Z</time></trkpt><trkpt lat="41.56739313112643" lon="13.412256449230739"><ele>228.25</ele><time>2026-04-04T09:22:06Z</time></trkpt><trkpt lat="41.567284180594086" lon="13.412133040467774"><ele>228.5</ele><time>2026-04-04T09:22:07Z</time></trkpt><trkpt lat="41.56717244533146" lon="13.412017085569856"><ele>228.75</ele><time>2026-04-04T09:22:08Z</time></trkpt><trkpt lat="41.56707551344593" lon="13.411909597355386"><ele>229.0</ele><time>2026-04-04T09:22:09Z</time></trkpt><trkpt lat="41.56697628024056" lon="13.41183690606123"><ele>229.0</ele><time>2026-04-04T09:22:10Z</time></trkpt><trkpt lat="41.56686719567107" lon="13.411808968041855"><ele>229.0</ele><time>2026-04-04T09:22:11Z</time></trkpt><trkpt lat="41.56675316535831" lon="13.41182665619257"><ele>229.0</ele><time>2026-04-04T09:22:12Z</time></trkpt><trkpt lat="41.5666379576504" lon="13.411869785397526"><ele>229.0</ele><time>2026-04-04T09:22:13Z</time></trkpt><trkpt lat="41.56653588261651" lon="13.411926470521939"><ele>229.0</ele><time>2026-04-04T09:22:14Z</time></trkpt><trkpt lat="41.56644986486665" lon="13.411984990168097"><ele>228.99999999999997</ele><time>2026-04-04T09:22:15Z</time></trkpt><trkpt lat="41.56636629013926" lon="13.412043065327419"><ele>228.99999999999997</ele><time>2026-04-04T09:22:15.999Z</time></trkpt><trkpt lat="41.566285716721644" lon="13.41210287719484"><ele>229.0</ele><time>2026-04-04T09:22:16.999Z</time></trkpt><trkpt lat="41.566205816814836" lon="13.412167982599692"><ele>229.0</ele><time>2026-04-04T09:22:18Z</time></trkpt><trkpt lat="41.566123879072826" lon="13.412247711912801"><ele>229.49999999999997</ele><time>2026-04-04T09:22:19Z</time></trkpt><trkpt lat="41.5660514812026" lon="13.412349093646473"><ele>230.0</ele><time>2026-04-04T09:22:20Z</time></trkpt><trkpt lat="41.565999548048495" lon="13.4124344208321"><ele>230.5</ele><time>2026-04-04T09:22:21Z</time></trkpt><trkpt lat="41.565951663080334" lon="13.412515141956492"><ele>231.0</ele><time>2026-04-04T09:22:22Z</time></trkpt><trkpt lat="41.565899959649535" lon="13.41260230000126"><ele>231.49999999999997</ele><time>2026-04-04T09:22:23Z</time></trkpt><trkpt lat="41.565839921705106" lon="13.412703507865189"><ele>232.0</ele><time>2026-04-04T09:22:24Z</time></trkpt><trkpt lat="41.565774894772005" lon="13.412808369878013"><ele>232.0</ele><time>2026-04-04T09:22:25Z</time></trkpt><trkpt lat="41.56571134526739" lon="13.412911125915697"><ele>232.0</ele><time>2026-04-04T09:22:26Z</time></trkpt><trkpt lat="41.56565938302652" lon="13.41302318463068"><ele>232.0</ele><time>2026-04-04T09:22:27Z</time></trkpt><trkpt lat="41.565596711537715" lon="13.413122318955141"><ele>232.0</ele><time>2026-04-04T09:22:28Z</time></trkpt><trkpt lat="41.56555732419158" lon="13.413237883145399"><ele>232.0</ele><time>2026-04-04T09:22:29Z</time></trkpt><trkpt lat="41.565534227364324" lon="13.413358642950925"><ele>231.16666666666666</ele><time>2026-04-04T09:22:30Z</time></trkpt><trkpt lat="41.56553090247961" lon="13.41344272835564"><ele>230.33333333333331</ele><time>2026-04-04T09:22:31Z</time></trkpt><trkpt lat="41.565504449015954" lon="13.413521744066461"><ele>229.5</ele><time>2026-04-04T09:22:32Z</time></trkpt><trkpt lat="41.56545655464089" lon="13.413619788201078"><ele>228.66666666666669</ele><time>2026-04-04T09:22:33Z</time></trkpt><trkpt lat="41.56538404415586" lon="13.413712911776837"><ele>227.83333333333334</ele><time>2026-04-04T09:22:34Z</time></trkpt><trkpt lat="41.56528291319674" lon="13.413774346778945"><ele>227.0</ele><time>2026-04-04T09:22:35Z</time></trkpt><trkpt lat="41.565172559047404" lon="13.413816700618176"><ele>227.00000000000003</ele><time>2026-04-04T09:22:36Z</time></trkpt><trkpt lat="41.565059598146675" lon="13.41383184843664"><ele>227.0</ele><time>2026-04-04T09:22:37Z</time></trkpt><trkpt lat="41.56496116704886" lon="13.413832573604152"><ele>227.0</ele><time>2026-04-04T09:22:38Z</time></trkpt><trkpt lat="41.56487415182946" lon="13.413830053327533"><ele>227.0</ele><time>2026-04-04T09:22:39Z</time></trkpt><trkpt lat="41.56479472759639" lon="13.4138167336787"><ele>227.00000000000003</ele><time>2026-04-04T09:22:40Z</time></trkpt><trkpt lat="41.564727305415026" lon="13.413805694327086"><ele>227.0</ele><time>2026-04-04T09:22:41Z</time></trkpt><trkpt lat="41.56460029444225" lon="13.41379517313051"><ele>224.8</ele><time>2026-04-04T09:22:43Z</time></trkpt><trkpt lat="41.56450912859382" lon="13.413794339504546"><ele>222.6</ele><time>2026-04-04T09:22:44Z</time></trkpt><trkpt lat="41.56440154993649" lon="13.413797294809388"><ele>220.40000000000003</ele><time>2026-04-04T09:22:45Z</time></trkpt><trkpt lat="41.56428458455691" lon="13.413796201599467"><ele>218.20000000000002</ele><time>2026-04-04T09:22:46Z</time></trkpt><trkpt lat="41.56416293620475" lon="13.41379524284825"><ele>216.0</ele><time>2026-04-04T09:22:47Z</time></trkpt><trkpt lat="41.56403076984625" lon="13.413794788251606"><ele>216.0</ele><time>2026-04-04T09:22:48Z</time></trkpt><trkpt lat="41.56388888928404" lon="13.413800223375224"><ele>216.0</ele><time>2026-04-04T09:22:49Z</time></trkpt><trkpt lat="41.5637404143507" lon="13.413812285654085"><ele>216.0</ele><time>2026-04-04T09:22:50Z</time></trkpt><trkpt lat="41.56359417566592" lon="13.413825637552423"><ele>216.0</ele><time>2026-04-04T09:22:51Z</time></trkpt><trkpt lat="41.56346180797989" lon="13.413845896855202"><ele>220.4</ele><time>2026-04-04T09:22:52Z</time></trkpt><trkpt lat="41.56334353479501" lon="13.413861693913885"><ele>224.8</ele><time>2026-04-04T09:22:53Z</time></trkpt><trkpt lat="41.56324253135862" lon="13.413882028018381"><ele>229.20000000000002</ele><time>2026-04-04T09:22:54Z</time></trkpt><trkpt lat="41.563150014223886" lon="13.413903510826914"><ele>233.60000000000002</ele><time>2026-04-04T09:22:55Z</time></trkpt><trkpt lat="41.563063606931124" lon="13.41392010084339"><ele>238.0</ele><time>2026-04-04T09:22:56Z</time></trkpt><trkpt lat="41.56297806705212" lon="13.41393803771052"><ele>238.0</ele><time>2026-04-04T09:22:57Z</time></trkpt><trkpt lat="41.562898181409345" lon="13.413955906867827"><ele>238.0</ele><time>2026-04-04T09:22:58Z</time></trkpt><trkpt lat="41.562809280695895" lon="13.413968027596118"><ele>238.0</ele><time>2026-04-04T09:22:59Z</time></trkpt><trkpt lat="41.56271191355531" lon="13.4139666022758"><ele>238.0</ele><time>2026-04-04T09:23:00Z</time></trkpt><trkpt lat="41.562618161549146" lon="13.413961678681423"><ele>238.0</ele><time>2026-04-04T09:23:01Z</time></trkpt><trkpt lat="41.56253022594616" lon="13.413956209984443"><ele>235.4</ele><time>2026-04-04T09:23:02Z</time></trkpt><trkpt lat="41.562447022253615" lon="13.41394255840633"><ele>232.8</ele><time>2026-04-04T09:23:03Z</time></trkpt><trkpt lat="41.56234563406846" lon="13.413921516310266"><ele>230.2</ele><time>2026-04-04T09:23:04Z</time></trkpt><trkpt lat="41.56223038977332" lon="13.413875323396239"><ele>227.6</ele><time>2026-04-04T09:23:05Z</time></trkpt><trkpt lat="41.56212985805437" lon="13.413805597220001"><ele>225.0</ele><time>2026-04-04T09:23:06Z</time></trkpt><trkpt lat="41.56204544488625" lon="13.413708767726899"><ele>221.25</ele><time>2026-04-04T09:23:07Z</time></trkpt><trkpt lat="41.56196133741355" lon="13.413594943964581"><ele>217.5</ele><time>2026-04-04T09:23:08Z</time></trkpt><trkpt lat="41.56186647564856" lon="13.41347646375428"><ele>213.75</ele><time>2026-04-04T09:23:09Z</time></trkpt><trkpt lat="41.56176478457596" lon="13.413366665045382"><ele>210.0</ele><time>2026-04-04T09:23:10Z</time></trkpt><trkpt lat="41.561667239325345" lon="13.413282637351431"><ele>210.0</ele><time>2026-04-04T09:23:11Z</time></trkpt><trkpt lat="41.561562680689704" lon="13.41320505065038"><ele>210.0</ele><time>2026-04-04T09:23:12Z</time></trkpt><trkpt lat="41.56146095983141" lon="13.4131429786344"><ele>210.0</ele><time>2026-04-04T09:23:13Z</time></trkpt><trkpt lat="41.561361803141686" lon="13.413092247812925"><ele>210.0</ele><time>2026-04-04T09:23:14Z</time></trkpt><trkpt lat="41.56126802217718" lon="13.41306068104567"><ele>210.0</ele><time>2026-04-04T09:23:15Z</time></trkpt><trkpt lat="41.56117901248935" lon="13.413040681033763"><ele>208.6</ele><time>2026-04-04T09:23:16Z</time></trkpt><trkpt lat="41.56108269965395" lon="13.413055753804853"><ele>207.2</ele><time>2026-04-04T09:23:17Z</time></trkpt><trkpt lat="41.56098801461731" lon="13.413129846464978"><ele>205.8</ele><time>2026-04-04T09:23:18Z</time></trkpt><trkpt lat="41.56091183019664" lon="13.413227959283516"><ele>204.4</ele><time>2026-04-04T09:23:19Z</time></trkpt><trkpt lat="41.56085196504373" lon="13.413352130683993"><ele>203.0</ele><time>2026-04-04T09:23:20Z</time></trkpt><trkpt lat="41.56078441128353" lon="13.413453725107242"><ele>203.0</ele><time>2026-04-04T09:23:21Z</time></trkpt><trkpt lat="41.56073128093689" lon="13.413568827154396"><ele>203.0</ele><time>2026-04-04T09:23:22Z</time></trkpt><trkpt lat="41.56068535781779" lon="13.413704096434216"><ele>203.0</ele><time>2026-04-04T09:23:23Z</time></trkpt><trkpt lat="41.56062296822608" lon="13.413841861215714"><ele>203.0</ele><time>2026-04-04T09:23:24Z</time></trkpt><trkpt lat="41.56056337173674" lon="13.413998239693004"><ele>202.75</ele><time>2026-04-04T09:23:25Z</time></trkpt><trkpt lat="41.56051951062796" lon="13.414162374430532"><ele>202.5</ele><time>2026-04-04T09:23:26Z</time></trkpt><trkpt lat="41.56050216563112" lon="13.41432303883217"><ele>202.25</ele><time>2026-04-04T09:23:27Z</time></trkpt><trkpt lat="41.5604785160303" lon="13.414492803629056"><ele>202.0</ele><time>2026-04-04T09:23:28Z</time></trkpt><trkpt lat="41.560469474371374" lon="13.414670580432427"><ele>201.0</ele><time>2026-04-04T09:23:29Z</time></trkpt><trkpt lat="41.56045475202099" lon="13.414820590402762"><ele>200.0</ele><time>2026-04-04T09:23:30Z</time></trkpt><trkpt lat="41.56042947032782" lon="13.414957948818762"><ele>199.0</ele><time>2026-04-04T09:23:31Z</time></trkpt><trkpt lat="41.56034487442615" lon="13.415061807132473"><ele>198.0</ele><time>2026-04-04T09:23:32Z</time></trkpt><trkpt lat="41.560229709847306" lon="13.415140559278248"><ele>194.66666666666666</ele><time>2026-04-04T09:23:33Z</time></trkpt><trkpt lat="41.560080239080435" lon="13.41520960688813"><ele>191.33333333333331</ele><time>2026-04-04T09:23:34Z</time></trkpt><trkpt lat="41.55991610430803" lon="13.415293123480964"><ele>188.0</ele><time>2026-04-04T09:23:35Z</time></trkpt><trkpt lat="41.55974038578482" lon="13.415361658022597"><ele>188.0</ele><time>2026-04-04T09:23:36Z</time></trkpt><trkpt lat="41.55956474147953" lon="13.415430764931937"><ele>188.0</ele><time>2026-04-04T09:23:37Z</time></trkpt><trkpt lat="41.55938820640592" lon="13.415491829700105"><ele>188.0</ele><time>2026-04-04T09:23:38Z</time></trkpt><trkpt lat="41.55921476423677" lon="13.415550779927194"><ele>185.33333333333331</ele><time>2026-04-04T09:23:39Z</time></trkpt><trkpt lat="41.5590474554965" lon="13.415606488287992"><ele>182.66666666666666</ele><time>2026-04-04T09:23:40Z</time></trkpt><trkpt lat="41.558893677193396" lon="13.415673419037303"><ele>180.0</ele><time>2026-04-04T09:23:41Z</time></trkpt><trkpt lat="41.55874422498639" lon="13.41572523939505"><ele>178.66666666666666</ele><time>2026-04-04T09:23:42Z</time></trkpt><trkpt lat="41.55859436595519" lon="13.41580406210458"><ele>177.33333333333331</ele><time>2026-04-04T09:23:43Z</time></trkpt><trkpt lat="41.55845055465276" lon="13.415919927363216"><ele>176.0</ele><time>2026-04-04T09:23:44Z</time></trkpt><trkpt lat="41.55831968291951" lon="13.416067712028394"><ele>176.0</ele><time>2026-04-04T09:23:45Z</time></trkpt><trkpt lat="41.558196204564794" lon="13.416228680962659"><ele>176.0</ele><time>2026-04-04T09:23:46Z</time></trkpt><trkpt lat="41.55808549987323" lon="13.416402425577033"><ele>176.0</ele><time>2026-04-04T09:23:47Z</time></trkpt><trkpt lat="41.55798319423293" lon="13.41658046202574"><ele>175.0</ele><time>2026-04-04T09:23:48Z</time></trkpt><trkpt lat="41.557891270024086" lon="13.416753141617725"><ele>174.0</ele><time>2026-04-04T09:23:49Z</time></trkpt><trkpt lat="41.55780530872011" lon="13.416907715755807"><ele>173.0</ele><time>2026-04-04T09:23:50Z</time></trkpt><trkpt lat="41.557716414382234" lon="13.417038293619179"><ele>172.0</ele><time>2026-04-04T09:23:51Z</time></trkpt><trkpt lat="41.55761009287873" lon="13.417144603836164"><ele>169.75</ele><time>2026-04-04T09:23:52Z</time></trkpt><trkpt lat="41.55748586935006" lon="13.417228922036744"><ele>167.5</ele><time>2026-04-04T09:23:53Z</time></trkpt><trkpt lat="41.55734570530388" lon="13.41725687618086"><ele>165.25</ele><time>2026-04-04T09:23:54Z</time></trkpt><trkpt lat="41.557212756100256" lon="13.41732167932701"><ele>163.0</ele><time>2026-04-04T09:23:55Z</time></trkpt><trkpt lat="41.55707534957274" lon="13.41738103748948"><ele>163.33333333333334</ele><time>2026-04-04T09:23:56Z</time></trkpt><trkpt lat="41.55693718599546" lon="13.41744128207844"><ele>163.66666666666666</ele><time>2026-04-04T09:23:57Z</time></trkpt><trkpt lat="41.55679769664741" lon="13.417500867369439"><ele>164.0</ele><time>2026-04-04T09:23:58Z</time></trkpt><trkpt lat="41.55664651047599" lon="13.417570809000496"><ele>164.0</ele><time>2026-04-04T09:23:59Z</time></trkpt><trkpt lat="41.5564882677379" lon="13.417667822881462"><ele>164.0</ele><time>2026-04-04T09:24:00Z</time></trkpt><trkpt lat="41.556324710539904" lon="13.417771984142913"><ele>164.0</ele><time>2026-04-04T09:24:01Z</time></trkpt><trkpt lat="41.55617460933893" lon="13.417890966232791"><ele>162.0</ele><time>2026-04-04T09:24:02Z</time></trkpt><trkpt lat="41.55603682727575" lon="13.41799897935876"><ele>160.0</ele><time>2026-04-04T09:24:03Z</time></trkpt><trkpt lat="41.55589709000993" lon="13.418104244014549"><ele>158.0</ele><time>2026-04-04T09:24:04Z</time></trkpt><trkpt lat="41.55575697518087" lon="13.418204752523678"><ele>158.0</ele><time>2026-04-04T09:24:05Z</time></trkpt><trkpt lat="41.555612095909986" lon="13.41830608689073"><ele>158.0</ele><time>2026-04-04T09:24:06Z</time></trkpt><trkpt lat="41.555456841754975" lon="13.418408865533376"><ele>158.0</ele><time>2026-04-04T09:24:07Z</time></trkpt><trkpt lat="41.5553023292223" lon="13.418498253164454"><ele>156.66666666666666</ele><time>2026-04-04T09:24:08Z</time></trkpt><trkpt lat="41.55516095742714" lon="13.418578202784037"><ele>155.33333333333334</ele><time>2026-04-04T09:24:09Z</time></trkpt><trkpt lat="41.55501545202056" lon="13.418664100785044"><ele>154.0</ele><time>2026-04-04T09:24:10Z</time></trkpt><trkpt lat="41.55487183275963" lon="13.418761671454211"><ele>153.25</ele><time>2026-04-04T09:24:11Z</time></trkpt><trkpt lat="41.55474690641415" lon="13.418867309884753"><ele>152.5</ele><time>2026-04-04T09:24:12Z</time></trkpt><trkpt lat="41.554628957347816" lon="13.418974565144206"><ele>151.75</ele><time>2026-04-04T09:24:13Z</time></trkpt><trkpt lat="41.5545164101255" lon="13.419081009474475"><ele>151.0</ele><time>2026-04-04T09:24:14Z</time></trkpt><trkpt lat="41.554394994549" lon="13.419178748999336"><ele>150.0</ele><time>2026-04-04T09:24:15Z</time></trkpt><trkpt lat="41.55425337029458" lon="13.419242759905055"><ele>149.0</ele><time>2026-04-04T09:24:16Z</time></trkpt><trkpt lat="41.55410237560609" lon="13.419281523611302"><ele>148.0</ele><time>2026-04-04T09:24:17Z</time></trkpt><trkpt lat="41.5539498895858" lon="13.41931447892743"><ele>148.0</ele><time>2026-04-04T09:24:18Z</time></trkpt><trkpt lat="41.55380009783197" lon="13.419336150194182"><ele>148.0</ele><time>2026-04-04T09:24:18.999Z</time></trkpt><trkpt lat="41.55365450980913" lon="13.419346814911924"><ele>148.0</ele><time>2026-04-04T09:24:19.999Z</time></trkpt><trkpt lat="41.55351409319588" lon="13.419346621811771"><ele>148.0</ele><time>2026-04-04T09:24:20.999Z</time></trkpt><trkpt lat="41.55336389482254" lon="13.41934114655027"><ele>146.66666666666669</ele><time>2026-04-04T09:24:21.999Z</time></trkpt><trkpt lat="41.55320883998773" lon="13.419333782235116"><ele>145.33333333333334</ele><time>2026-04-04T09:24:22.999Z</time></trkpt><trkpt lat="41.55305007343921" lon="13.419322820329432"><ele>144.0</ele><time>2026-04-04T09:24:24Z</time></trkpt><trkpt lat="41.55288437959843" lon="13.419309923382997"><ele>142.33333333333334</ele><time>2026-04-04T09:24:25Z</time></trkpt><trkpt lat="41.55271020839715" lon="13.419297012795253"><ele>140.66666666666669</ele><time>2026-04-04T09:24:26Z</time></trkpt><trkpt lat="41.55255619109096" lon="13.419286362274851"><ele>139.0</ele><time>2026-04-04T09:24:27Z</time></trkpt><trkpt lat="41.55241657464845" lon="13.419298237228634"><ele>139.0</ele><time>2026-04-04T09:24:28Z</time></trkpt><trkpt lat="41.552283880165895" lon="13.419285941363782"><ele>139.0</ele><time>2026-04-04T09:24:29Z</time></trkpt><trkpt lat="41.55216111807094" lon="13.419281568843685"><ele>139.0</ele><time>2026-04-04T09:24:30Z</time></trkpt><trkpt lat="41.5520305094615" lon="13.41926061219658"><ele>139.0</ele><time>2026-04-04T09:24:31Z</time></trkpt><trkpt lat="41.55189369999449" lon="13.419255088191141"><ele>138.66666666666669</ele><time>2026-04-04T09:24:32Z</time></trkpt><trkpt lat="41.55173900997569" lon="13.419251542914814"><ele>138.33333333333334</ele><time>2026-04-04T09:24:33Z</time></trkpt><trkpt lat="41.55154854172818" lon="13.419256151888026"><ele>138.0</ele><time>2026-04-04T09:24:34Z</time></trkpt><trkpt lat="41.55135602491301" lon="13.419264528203538"><ele>137.33333333333334</ele><time>2026-04-04T09:24:35Z</time></trkpt><trkpt lat="41.55116724931982" lon="13.419258970360696"><ele>136.66666666666669</ele><time>2026-04-04T09:24:36Z</time></trkpt><trkpt lat="41.550988391536976" lon="13.419214281875215"><ele>136.0</ele><time>2026-04-04T09:24:37Z</time></trkpt><trkpt lat="41.55081119233499" lon="13.419160151618733"><ele>136.0</ele><time>2026-04-04T09:24:38Z</time></trkpt><trkpt lat="41.55065272659689" lon="13.41906525531717"><ele>136.0</ele><time>2026-04-04T09:24:39Z</time></trkpt><trkpt lat="41.55050273656713" lon="13.418926336797592"><ele>136.0</ele><time>2026-04-04T09:24:40Z</time></trkpt><trkpt lat="41.550360451560046" lon="13.41875236470819"><ele>135.0</ele><time>2026-04-04T09:24:41Z</time></trkpt><trkpt lat="41.55023656038576" lon="13.418575056629289"><ele>134.0</ele><time>2026-04-04T09:24:42Z</time></trkpt><trkpt lat="41.550108213978014" lon="13.418424804458644"><ele>133.0</ele><time>2026-04-04T09:24:43Z</time></trkpt><trkpt lat="41.54996683704476" lon="13.418325276631924"><ele>133.0</ele><time>2026-04-04T09:24:44Z</time></trkpt><trkpt lat="41.54977337090159" lon="13.418264984031739"><ele>133.0</ele><time>2026-04-04T09:24:45Z</time></trkpt><trkpt lat="41.549526364758144" lon="13.41827483957718"><ele>133.0</ele><time>2026-04-04T09:24:46Z</time></trkpt><trkpt lat="41.549265718308284" lon="13.418252563758903"><ele>133.0</ele><time>2026-04-04T09:24:47Z</time></trkpt><trkpt lat="41.54898336972059" lon="13.418190720042745"><ele>133.0</ele><time>2026-04-04T09:24:48Z</time></trkpt><trkpt lat="41.54873558627224" lon="13.418128145976972"><ele>133.5</ele><time>2026-04-04T09:24:49Z</time></trkpt><trkpt lat="41.548510490323196" lon="13.418070680502845"><ele>134.0</ele><time>2026-04-04T09:24:50Z</time></trkpt><trkpt lat="41.548270503340646" lon="13.418038168615329"><ele>134.0</ele><time>2026-04-04T09:24:51Z</time></trkpt><trkpt lat="41.54800775786425" lon="13.41803191434124"><ele>134.0</ele><time>2026-04-04T09:24:52Z</time></trkpt><trkpt lat="41.54774549563378" lon="13.41805128104643"><ele>135.5</ele><time>2026-04-04T09:24:53Z</time></trkpt><trkpt lat="41.547482868635065" lon="13.41807233010648"><ele>137.0</ele><time>2026-04-04T09:24:54Z</time></trkpt><trkpt lat="41.54724465711338" lon="13.418091422319753"><ele>137.33333333333331</ele><time>2026-04-04T09:24:55Z</time></trkpt><trkpt lat="41.547023100127895" lon="13.418109131404133"><ele>137.66666666666666</ele><time>2026-04-04T09:24:56Z</time></trkpt><trkpt lat="41.5468226362097" lon="13.418124114536793"><ele>138.0</ele><time>2026-04-04T09:24:57Z</time></trkpt><trkpt lat="41.54664293333399" lon="13.418139993693908"><ele>138.0</ele><time>2026-04-04T09:24:58Z</time></trkpt><trkpt lat="41.546470739825466" lon="13.418163004149422"><ele>138.0</ele><time>2026-04-04T09:24:59Z</time></trkpt><trkpt lat="41.54628806967397" lon="13.41819762426714"><ele>138.0</ele><time>2026-04-04T09:25:00Z</time></trkpt><trkpt lat="41.546103656536864" lon="13.418243029182825"><ele>138.0</ele><time>2026-04-04T09:25:01Z</time></trkpt><trkpt lat="41.54591598522163" lon="13.418298512076644"><ele>138.0</ele><time>2026-04-04T09:25:02Z</time></trkpt><trkpt lat="41.54572317419365" lon="13.41838486749324"><ele>138.0</ele><time>2026-04-04T09:25:03Z</time></trkpt><trkpt lat="41.545517726075296" lon="13.418457171266137"><ele>136.5</ele><time>2026-04-04T09:25:04Z</time></trkpt><trkpt lat="41.545296483122485" lon="13.418532338530476"><ele>135.0</ele><time>2026-04-04T09:25:05Z</time></trkpt><trkpt lat="41.54509000293298" lon="13.418650563166093"><ele>135.0</ele><time>2026-04-04T09:25:06Z</time></trkpt><trkpt lat="41.54489619257429" lon="13.418747532406215"><ele>135.0</ele><time>2026-04-04T09:25:07Z</time></trkpt><trkpt lat="41.54469887772375" lon="13.418819895726218"><ele>135.0</ele><time>2026-04-04T09:25:08Z</time></trkpt><trkpt lat="41.54449176203553" lon="13.418870579307164"><ele>133.0</ele><time>2026-04-04T09:25:09Z</time></trkpt><trkpt lat="41.54427105573513" lon="13.418905917868836"><ele>131.0</ele><time>2026-04-04T09:25:10Z</time></trkpt><trkpt lat="41.54404271733896" lon="13.418937371755884"><ele>131.0</ele><time>2026-04-04T09:25:11Z</time></trkpt><trkpt lat="41.54380484203364" lon="13.418960288017429"><ele>131.0</ele><time>2026-04-04T09:25:12Z</time></trkpt><trkpt lat="41.54356249436139" lon="13.419002663798029"><ele>130.66666666666666</ele><time>2026-04-04T09:25:13Z</time></trkpt><trkpt lat="41.54333979226334" lon="13.419015136529216"><ele>130.33333333333334</ele><time>2026-04-04T09:25:14Z</time></trkpt><trkpt lat="41.54313250621806" lon="13.419005133044353"><ele>130.0</ele><time>2026-04-04T09:25:15Z</time></trkpt><trkpt lat="41.54294305783359" lon="13.419001940471997"><ele>130.0</ele><time>2026-04-04T09:25:16Z</time></trkpt><trkpt lat="41.54274558426007" lon="13.418976425789813"><ele>130.0</ele><time>2026-04-04T09:25:17Z</time></trkpt><trkpt lat="41.54254612331449" lon="13.418862491758034"><ele>130.0</ele><time>2026-04-04T09:25:18Z</time></trkpt><trkpt lat="41.54232797469736" lon="13.41877752782474"><ele>130.0</ele><time>2026-04-04T09:25:19Z</time></trkpt><trkpt lat="41.5421091565319" lon="13.418669955066996"><ele>130.0</ele><time>2026-04-04T09:25:20Z</time></trkpt><trkpt lat="41.541908475197644" lon="13.418571152033566"><ele>130.0</ele><time>2026-04-04T09:25:21Z</time></trkpt><trkpt lat="41.54171681039611" lon="13.418480739368341"><ele>128.33333333333334</ele><time>2026-04-04T09:25:22Z</time></trkpt><trkpt lat="41.541526120972904" lon="13.41839578627356"><ele>126.66666666666666</ele><time>2026-04-04T09:25:23Z</time></trkpt><trkpt lat="41.54133952573353" lon="13.41831639201057"><ele>125.0</ele><time>2026-04-04T09:25:24Z</time></trkpt><trkpt lat="41.54116201148605" lon="13.418249853533224"><ele>124.0</ele><time>2026-04-04T09:25:25Z</time></trkpt><trkpt lat="41.540994692791664" lon="13.418205425093861"><ele>123.0</ele><time>2026-04-04T09:25:26Z</time></trkpt><trkpt lat="41.54085375978329" lon="13.418186362188866"><ele>122.0</ele><time>2026-04-04T09:25:27Z</time></trkpt><trkpt lat="41.540731966609805" lon="13.418186955740053"><ele>121.0</ele><time>2026-04-04T09:25:28Z</time></trkpt><trkpt lat="41.54062405784467" lon="13.418247635279297"><ele>121.0</ele><time>2026-04-04T09:25:29Z</time></trkpt><trkpt lat="41.54053550221444" lon="13.418354713138402"><ele>121.0</ele><time>2026-04-04T09:25:30Z</time></trkpt><trkpt lat="41.540467936708204" lon="13.418515298793713"><ele>121.0</ele><time>2026-04-04T09:25:31Z</time></trkpt><trkpt lat="41.540409065756194" lon="13.418695150452642"><ele>121.0</ele><time>2026-04-04T09:25:32Z</time></trkpt><trkpt lat="41.540346795456784" lon="13.418839201638272"><ele>120.0</ele><time>2026-04-04T09:25:33Z</time></trkpt><trkpt lat="41.540290516821365" lon="13.418965801105681"><ele>119.0</ele><time>2026-04-04T09:25:34Z</time></trkpt><trkpt lat="41.540233096305535" lon="13.419079979530947"><ele>118.0</ele><time>2026-04-04T09:25:35Z</time></trkpt><trkpt lat="41.54016980209356" lon="13.419182124364102"><ele>117.0</ele><time>2026-04-04T09:25:36Z</time></trkpt><trkpt lat="41.540083170636215" lon="13.41925588214362"><ele>116.0</ele><time>2026-04-04T09:25:37Z</time></trkpt><trkpt lat="41.53996740215236" lon="13.41930531875085"><ele>116.0</ele><time>2026-04-04T09:25:38Z</time></trkpt><trkpt lat="41.53982574392948" lon="13.419325118541485"><ele>116.0</ele><time>2026-04-04T09:25:39Z</time></trkpt><trkpt lat="41.53966127662952" lon="13.419333076515606"><ele>116.0</ele><time>2026-04-04T09:25:40Z</time></trkpt><trkpt lat="41.539486335369034" lon="13.419329671835943"><ele>114.0</ele><time>2026-04-04T09:25:41Z</time></trkpt><trkpt lat="41.53928216477604" lon="13.419328060588368"><ele>112.0</ele><time>2026-04-04T09:25:42Z</time></trkpt><trkpt lat="41.539076593504795" lon="13.419342938793603"><ele>110.0</ele><time>2026-04-04T09:25:43Z</time></trkpt><trkpt lat="41.538857964155596" lon="13.419358818255057"><ele>109.0</ele><time>2026-04-04T09:25:44Z</time></trkpt><trkpt lat="41.538628445889884" lon="13.419369503410536"><ele>108.0</ele><time>2026-04-04T09:25:45Z</time></trkpt><trkpt lat="41.538394496641445" lon="13.419376408620959"><ele>108.0</ele><time>2026-04-04T09:25:46Z</time></trkpt><trkpt lat="41.53816020398994" lon="13.419375683124157"><ele>108.0</ele><time>2026-04-04T09:25:47Z</time></trkpt><trkpt lat="41.537946843775245" lon="13.41936212154363"><ele>108.0</ele><time>2026-04-04T09:25:48Z</time></trkpt><trkpt lat="41.53774708448631" lon="13.4193541133878"><ele>108.0</ele><time>2026-04-04T09:25:49Z</time></trkpt><trkpt lat="41.53757479130648" lon="13.419353658609651"><ele>108.0</ele><time>2026-04-04T09:25:50Z</time></trkpt><trkpt lat="41.53741705818497" lon="13.419349316046976"><ele>108.0</ele><time>2026-04-04T09:25:51Z</time></trkpt><trkpt lat="41.53727621325692" lon="13.41932989825326"><ele>108.0</ele><time>2026-04-04T09:25:52Z</time></trkpt><trkpt lat="41.537145487544535" lon="13.419264684908091"><ele>108.0</ele><time>2026-04-04T09:25:53Z</time></trkpt><trkpt lat="41.537032098929515" lon="13.419146547214352"><ele>108.0</ele><time>2026-04-04T09:25:54Z</time></trkpt><trkpt lat="41.5369420383388" lon="13.418970471679769"><ele>108.0</ele><time>2026-04-04T09:25:55Z</time></trkpt><trkpt lat="41.53687463924634" lon="13.418781165852671"><ele>109.25</ele><time>2026-04-04T09:25:56Z</time></trkpt><trkpt lat="41.53682346942244" lon="13.41859052327387"><ele>110.5</ele><time>2026-04-04T09:25:57Z</time></trkpt><trkpt lat="41.53679827899208" lon="13.418399474578747"><ele>111.75</ele><time>2026-04-04T09:25:58Z</time></trkpt><trkpt lat="41.53680432179695" lon="13.418196063480359"><ele>113.0</ele><time>2026-04-04T09:25:59Z</time></trkpt><trkpt lat="41.5368355159854" lon="13.417985430987649"><ele>114.0</ele><time>2026-04-04T09:26:00Z</time></trkpt><trkpt lat="41.53685207658555" lon="13.417785207697662"><ele>115.0</ele><time>2026-04-04T09:26:01Z</time></trkpt><trkpt lat="41.53684019079913" lon="13.417579298471697"><ele>116.0</ele><time>2026-04-04T09:26:02Z</time></trkpt><trkpt lat="41.53680154163286" lon="13.417376287208747"><ele>116.0</ele><time>2026-04-04T09:26:03Z</time></trkpt><trkpt lat="41.53673881725272" lon="13.417182395232718"><ele>116.0</ele><time>2026-04-04T09:26:04Z</time></trkpt><trkpt lat="41.53664537891719" lon="13.41699393950433"><ele>116.0</ele><time>2026-04-04T09:26:05Z</time></trkpt><trkpt lat="41.536529768027876" lon="13.416807453293426"><ele>116.5</ele><time>2026-04-04T09:26:06Z</time></trkpt><trkpt lat="41.536379261060254" lon="13.416595511757299"><ele>117.0</ele><time>2026-04-04T09:26:07Z</time></trkpt><trkpt lat="41.53621308713708" lon="13.41635042954154"><ele>117.5</ele><time>2026-04-04T09:26:08Z</time></trkpt><trkpt lat="41.53604801485776" lon="13.416098529218344"><ele>118.0</ele><time>2026-04-04T09:26:09Z</time></trkpt><trkpt lat="41.535889443178085" lon="13.415863906815428"><ele>118.0</ele><time>2026-04-04T09:26:10Z</time></trkpt><trkpt lat="41.53572933656714" lon="13.415644449892183"><ele>118.0</ele><time>2026-04-04T09:26:11Z</time></trkpt><trkpt lat="41.53556779919715" lon="13.41542238360936"><ele>118.5</ele><time>2026-04-04T09:26:12Z</time></trkpt><trkpt lat="41.535406693173435" lon="13.415200071577651"><ele>119.0</ele><time>2026-04-04T09:26:13Z</time></trkpt><trkpt lat="41.535255322184554" lon="13.414981881159035"><ele>119.33333333333333</ele><time>2026-04-04T09:26:14Z</time></trkpt><trkpt lat="41.53510342557633" lon="13.414775315455007"><ele>119.66666666666666</ele><time>2026-04-04T09:26:14.999Z</time></trkpt><trkpt lat="41.534959364418036" lon="13.414597880393586"><ele>120.0</ele><time>2026-04-04T09:26:15.999Z</time></trkpt><trkpt lat="41.53479762821334" lon="13.41443490743518"><ele>120.0</ele><time>2026-04-04T09:26:16.999Z</time></trkpt><trkpt lat="41.534641323844866" lon="13.414263047673325"><ele>120.0</ele><time>2026-04-04T09:26:17.999Z</time></trkpt><trkpt lat="41.53449093470564" lon="13.414093012375858"><ele>120.0</ele><time>2026-04-04T09:26:18.999Z</time></trkpt><trkpt lat="41.53434309188881" lon="13.413922858132638"><ele>119.33333333333334</ele><time>2026-04-04T09:26:19.999Z</time></trkpt><trkpt lat="41.53420081327878" lon="13.413774351497462"><ele>118.66666666666667</ele><time>2026-04-04T09:26:20.999Z</time></trkpt><trkpt lat="41.53406889318493" lon="13.41363792810212"><ele>118.0</ele><time>2026-04-04T09:26:21.999Z</time></trkpt><trkpt lat="41.53394675225208" lon="13.413506793330628"><ele>118.0</ele><time>2026-04-04T09:26:22.999Z</time></trkpt><trkpt lat="41.53383178404558" lon="13.413382060562443"><ele>118.0</ele><time>2026-04-04T09:26:23.999Z</time></trkpt><trkpt lat="41.533723328860866" lon="13.413263978643782"><ele>118.0</ele><time>2026-04-04T09:26:24.999Z</time></trkpt><trkpt lat="41.53362887711376" lon="13.413160032808047"><ele>118.0</ele><time>2026-04-04T09:26:25.999Z</time></trkpt><trkpt lat="41.533541609798455" lon="13.413068716658943"><ele>117.66666666666667</ele><time>2026-04-04T09:26:26.999Z</time></trkpt><trkpt lat="41.53346547367134" lon="13.412989184858832"><ele>117.33333333333334</ele><time>2026-04-04T09:26:27.999Z</time></trkpt><trkpt lat="41.53338858041824" lon="13.412945097712218"><ele>117.0</ele><time>2026-04-04T09:26:28.999Z</time></trkpt><trkpt lat="41.53330999580563" lon="13.412936212608853"><ele>116.66666666666666</ele><time>2026-04-04T09:26:30Z</time></trkpt><trkpt lat="41.533232991492255" lon="13.412963114351639"><ele>116.33333333333333</ele><time>2026-04-04T09:26:31Z</time></trkpt><trkpt lat="41.533151174199816" lon="13.413028573404763"><ele>116.0</ele><time>2026-04-04T09:26:32Z</time></trkpt><trkpt lat="41.533042386981116" lon="13.413102265865243"><ele>116.0</ele><time>2026-04-04T09:26:33Z</time></trkpt><trkpt lat="41.53294310229508" lon="13.413221021932694"><ele>116.0</ele><time>2026-04-04T09:26:34Z</time></trkpt><trkpt lat="41.532844032990496" lon="13.413339713138694"><ele>116.0</ele><time>2026-04-04T09:26:35Z</time></trkpt><trkpt lat="41.53275531139389" lon="13.413442471998058"><ele>116.0</ele><time>2026-04-04T09:26:36Z</time></trkpt><trkpt lat="41.53266401725818" lon="13.413539085369163"><ele>115.8</ele><time>2026-04-04T09:26:37Z</time></trkpt><trkpt lat="41.532574714149646" lon="13.413609039848243"><ele>115.6</ele><time>2026-04-04T09:26:38Z</time></trkpt><trkpt lat="41.53249004208639" lon="13.413654293421972"><ele>115.4</ele><time>2026-04-04T09:26:39Z</time></trkpt><trkpt lat="41.53238812477732" lon="13.413632493793484"><ele>115.2</ele><time>2026-04-04T09:26:40Z</time></trkpt><trkpt lat="41.532276040797875" lon="13.413581792841683"><ele>115.0</ele><time>2026-04-04T09:26:41Z</time></trkpt><trkpt lat="41.532190700590895" lon="13.413527610412398"><ele>115.0</ele><time>2026-04-04T09:26:42Z</time></trkpt><trkpt lat="41.53210803607043" lon="13.41347496788324"><ele>115.0</ele><time>2026-04-04T09:26:43Z</time></trkpt><trkpt lat="41.531978628294134" lon="13.413383743346762"><ele>115.0</ele><time>2026-04-04T09:26:44Z</time></trkpt><trkpt lat="41.53190996029704" lon="13.41328071344116"><ele>115.0</ele><time>2026-04-04T09:26:45Z</time></trkpt><trkpt lat="41.53189767497862" lon="13.413163946120275"><ele>115.0</ele><time>2026-04-04T09:26:46Z</time></trkpt><trkpt lat="41.531904898280935" lon="13.413049563302867"><ele>115.25</ele><time>2026-04-04T09:26:47Z</time></trkpt><trkpt lat="41.53195535701082" lon="13.412888219643339"><ele>115.5</ele><time>2026-04-04T09:26:48Z</time></trkpt><trkpt lat="41.532000620523576" lon="13.412719787653192"><ele>115.75</ele><time>2026-04-04T09:26:49Z</time></trkpt><trkpt lat="41.532038005464216" lon="13.412550402574034"><ele>116.0</ele><time>2026-04-04T09:26:50Z</time></trkpt><trkpt lat="41.53207910770891" lon="13.412386771710636"><ele>116.0</ele><time>2026-04-04T09:26:51Z</time></trkpt><trkpt lat="41.53212687062852" lon="13.412189186585815"><ele>116.0</ele><time>2026-04-04T09:26:52Z</time></trkpt><trkpt lat="41.53216470304712" lon="13.41200094704884"><ele>116.0</ele><time>2026-04-04T09:26:53Z</time></trkpt><trkpt lat="41.53219319964164" lon="13.411843730754212"><ele>116.0</ele><time>2026-04-04T09:26:54Z</time></trkpt><trkpt lat="41.5322153948018" lon="13.411715122861068"><ele>116.0</ele><time>2026-04-04T09:26:55Z</time></trkpt><trkpt lat="41.53223292459154" lon="13.411609330539731"><ele>116.0</ele><time>2026-04-04T09:26:56Z</time></trkpt><trkpt lat="41.5322342132431" lon="13.411511053286839"><ele>116.0</ele><time>2026-04-04T09:26:57Z</time></trkpt><trkpt lat="41.53223558720423" lon="13.411415152952992"><ele>116.0</ele><time>2026-04-04T09:26:58Z</time></trkpt><trkpt lat="41.53210172650697" lon="13.411222674400296"><ele>116.0</ele><time>2026-04-04T09:27:00Z</time></trkpt><trkpt lat="41.53198989021812" lon="13.411139067508394"><ele>116.0</ele><time>2026-04-04T09:27:01Z</time></trkpt><trkpt lat="41.53186199592466" lon="13.41102604263159"><ele>116.0</ele><time>2026-04-04T09:27:02Z</time></trkpt><trkpt lat="41.53173207460657" lon="13.410900714491838"><ele>116.0</ele><time>2026-04-04T09:27:03Z</time></trkpt><trkpt lat="41.5315787904877" lon="13.410766457615635"><ele>116.0</ele><time>2026-04-04T09:27:04Z</time></trkpt><trkpt lat="41.531406974361566" lon="13.410661020349847"><ele>116.0</ele><time>2026-04-04T09:27:05Z</time></trkpt><trkpt lat="41.53127123704162" lon="13.410555057597614"><ele>116.0</ele><time>2026-04-04T09:27:06Z</time></trkpt><trkpt lat="41.53111334903116" lon="13.410471056853217"><ele>115.66666666666666</ele><time>2026-04-04T09:27:07Z</time></trkpt><trkpt lat="41.53093254213316" lon="13.410420364115168"><ele>115.33333333333334</ele><time>2026-04-04T09:27:08Z</time></trkpt><trkpt lat="41.53075325964711" lon="13.410341544934344"><ele>115.0</ele><time>2026-04-04T09:27:09Z</time></trkpt><trkpt lat="41.53056556677223" lon="13.410280162447787"><ele>114.33333333333334</ele><time>2026-04-04T09:27:10Z</time></trkpt><trkpt lat="41.53037284472606" lon="13.410216284238588"><ele>113.66666666666666</ele><time>2026-04-04T09:27:11Z</time></trkpt><trkpt lat="41.53017795747211" lon="13.410151354420929"><ele>113.0</ele><time>2026-04-04T09:27:12Z</time></trkpt><trkpt lat="41.529983561716" lon="13.410087944464001"><ele>113.0</ele><time>2026-04-04T09:27:13Z</time></trkpt><trkpt lat="41.5297819776052" lon="13.410052833626025"><ele>113.0</ele><time>2026-04-04T09:27:14Z</time></trkpt><trkpt lat="41.52958037704289" lon="13.410020454045036"><ele>113.0</ele><time>2026-04-04T09:27:15Z</time></trkpt><trkpt lat="41.52937233130382" lon="13.410022333268588"><ele>113.0</ele><time>2026-04-04T09:27:16Z</time></trkpt><trkpt lat="41.52916343705482" lon="13.409991291825898"><ele>113.0</ele><time>2026-04-04T09:27:17Z</time></trkpt><trkpt lat="41.52895247576501" lon="13.409977459659135"><ele>113.0</ele><time>2026-04-04T09:27:18Z</time></trkpt><trkpt lat="41.5287476083865" lon="13.409958509780857"><ele>112.33333333333333</ele><time>2026-04-04T09:27:19Z</time></trkpt><trkpt lat="41.52854624078177" lon="13.409939602550093"><ele>111.66666666666666</ele><time>2026-04-04T09:27:20Z</time></trkpt><trkpt lat="41.52834488996586" lon="13.409920367531237"><ele>111.0</ele><time>2026-04-04T09:27:21Z</time></trkpt><trkpt lat="41.528135891671" lon="13.409898997838123"><ele>111.0</ele><time>2026-04-04T09:27:22Z</time></trkpt><trkpt lat="41.527927597234715" lon="13.409876082450742"><ele>111.0</ele><time>2026-04-04T09:27:23Z</time></trkpt><trkpt lat="41.52771983912714" lon="13.409850076766919"><ele>111.0</ele><time>2026-04-04T09:27:24Z</time></trkpt><trkpt lat="41.52751804637726" lon="13.409820304168653"><ele>110.66666666666666</ele><time>2026-04-04T09:27:25Z</time></trkpt><trkpt lat="41.52732021562066" lon="13.409772843675357"><ele>110.33333333333333</ele><time>2026-04-04T09:27:26Z</time></trkpt><trkpt lat="41.52712367795257" lon="13.409702110527126"><ele>110.0</ele><time>2026-04-04T09:27:27Z</time></trkpt><trkpt lat="41.52692318354198" lon="13.409613140006202"><ele>109.66666666666666</ele><time>2026-04-04T09:27:28Z</time></trkpt><trkpt lat="41.52671609730512" lon="13.409519974415417"><ele>109.33333333333334</ele><time>2026-04-04T09:27:29Z</time></trkpt><trkpt lat="41.526502981093884" lon="13.409423018040702"><ele>109.0</ele><time>2026-04-04T09:27:30Z</time></trkpt><trkpt lat="41.52627908212922" lon="13.409320987209815"><ele>109.0</ele><time>2026-04-04T09:27:31Z</time></trkpt><trkpt lat="41.526045514178264" lon="13.409214325579056"><ele>109.0</ele><time>2026-04-04T09:27:32Z</time></trkpt><trkpt lat="41.52580517500552" lon="13.409126979548697"><ele>109.0</ele><time>2026-04-04T09:27:33Z</time></trkpt><trkpt lat="41.5255819333028" lon="13.409026931988102"><ele>109.0</ele><time>2026-04-04T09:27:34Z</time></trkpt><trkpt lat="41.525374150833" lon="13.408944826790892"><ele>108.66666666666667</ele><time>2026-04-04T09:27:35Z</time></trkpt><trkpt lat="41.52516330268593" lon="13.408868201873055"><ele>108.33333333333334</ele><time>2026-04-04T09:27:36Z</time></trkpt><trkpt lat="41.524954867183595" lon="13.408813100811154"><ele>108.0</ele><time>2026-04-04T09:27:37Z</time></trkpt><trkpt lat="41.524757584225036" lon="13.40879271933832"><ele>108.0</ele><time>2026-04-04T09:27:38Z</time></trkpt><trkpt lat="41.52457758935353" lon="13.40876237190442"><ele>108.0</ele><time>2026-04-04T09:27:39Z</time></trkpt><trkpt lat="41.524416346870325" lon="13.40876243539639"><ele>108.0</ele><time>2026-04-04T09:27:40Z</time></trkpt><trkpt lat="41.52427322912309" lon="13.408758111995803"><ele>107.0</ele><time>2026-04-04T09:27:41Z</time></trkpt><trkpt lat="41.524134639227476" lon="13.40874210115152"><ele>106.0</ele><time>2026-04-04T09:27:42Z</time></trkpt><trkpt lat="41.52401112219878" lon="13.408662568459503"><ele>105.0</ele><time>2026-04-04T09:27:43Z</time></trkpt><trkpt lat="41.52388376740529" lon="13.408570248079148"><ele>104.0</ele><time>2026-04-04T09:27:44Z</time></trkpt><trkpt lat="41.52374791916678" lon="13.40847178192875"><ele>104.25</ele><time>2026-04-04T09:27:45Z</time></trkpt><trkpt lat="41.52362437747671" lon="13.408387937568522"><ele>104.5</ele><time>2026-04-04T09:27:46Z</time></trkpt><trkpt lat="41.52350446552617" lon="13.408306580874607"><ele>104.75</ele><time>2026-04-04T09:27:47Z</time></trkpt><trkpt lat="41.523398601056876" lon="13.408235219607707"><ele>105.0</ele><time>2026-04-04T09:27:48Z</time></trkpt><trkpt lat="41.523287689167624" lon="13.408160155741026"><ele>105.0</ele><time>2026-04-04T09:27:49Z</time></trkpt><trkpt lat="41.52317288901862" lon="13.408095633131348"><ele>105.0</ele><time>2026-04-04T09:27:50Z</time></trkpt><trkpt lat="41.523067370706194" lon="13.408022156347021"><ele>105.0</ele><time>2026-04-04T09:27:51Z</time></trkpt><trkpt lat="41.52299150496937" lon="13.407935015305783"><ele>105.0</ele><time>2026-04-04T09:27:52Z</time></trkpt><trkpt lat="41.52295254496451" lon="13.407825021355062"><ele>105.0</ele><time>2026-04-04T09:27:53Z</time></trkpt><trkpt lat="41.52295701158655" lon="13.407687239347897"><ele>106.5</ele><time>2026-04-04T09:27:54Z</time></trkpt><trkpt lat="41.52293944171878" lon="13.407566697856396"><ele>108.0</ele><time>2026-04-04T09:27:55Z</time></trkpt><trkpt lat="41.522915075532744" lon="13.407446896784174"><ele>109.5</ele><time>2026-04-04T09:27:56Z</time></trkpt><trkpt lat="41.522893903100716" lon="13.407311729241119"><ele>111.0</ele><time>2026-04-04T09:27:57Z</time></trkpt><trkpt lat="41.52318835857865" lon="13.407046425049185"><ele>112.5</ele><time>2026-04-04T09:27:58Z</time></trkpt><trkpt lat="41.52325632571576" lon="13.406855067578142"><ele>114.0</ele><time>2026-04-04T09:27:59Z</time></trkpt><trkpt lat="41.52330763806482" lon="13.406675436765294"><ele>115.5</ele><time>2026-04-04T09:28:00Z</time></trkpt><trkpt lat="41.523332021471155" lon="13.40649560675765"><ele>117.0</ele><time>2026-04-04T09:28:01Z</time></trkpt><trkpt lat="41.523321841944316" lon="13.40627674741315"><ele>117.0</ele><time>2026-04-04T09:28:02Z</time></trkpt><trkpt lat="41.52329356051444" lon="13.406043301811463"><ele>117.0</ele><time>2026-04-04T09:28:03Z</time></trkpt><trkpt lat="41.52327205387652" lon="13.405816207063117"><ele>117.0</ele><time>2026-04-04T09:28:04Z</time></trkpt><trkpt lat="41.523256039237225" lon="13.405619118293606"><ele>117.0</ele><time>2026-04-04T09:28:05Z</time></trkpt><trkpt lat="41.5232294522247" lon="13.405470630151552"><ele>117.0</ele><time>2026-04-04T09:28:06Z</time></trkpt><trkpt lat="41.523168988302075" lon="13.405305545176752"><ele>117.0</ele><time>2026-04-04T09:28:07Z</time></trkpt><trkpt lat="41.523052314946455" lon="13.40515944577968"><ele>117.0</ele><time>2026-04-04T09:28:08Z</time></trkpt><trkpt lat="41.52291035723931" lon="13.405028519598336"><ele>119.0</ele><time>2026-04-04T09:28:09Z</time></trkpt><trkpt lat="41.52276506009962" lon="13.404897262828321"><ele>121.0</ele><time>2026-04-04T09:28:10Z</time></trkpt><trkpt lat="41.52262536582693" lon="13.404752728977215"><ele>123.0</ele><time>2026-04-04T09:28:11Z</time></trkpt><trkpt lat="41.52248155358686" lon="13.404617077325122"><ele>123.0</ele><time>2026-04-04T09:28:12Z</time></trkpt><trkpt lat="41.52234154138153" lon="13.404495810751428"><ele>123.0</ele><time>2026-04-04T09:28:13Z</time></trkpt><trkpt lat="41.522181415802166" lon="13.404409224775192"><ele>123.0</ele><time>2026-04-04T09:28:14Z</time></trkpt><trkpt lat="41.52201951102182" lon="13.404333507788278"><ele>126.66666666666666</ele><time>2026-04-04T09:28:15Z</time></trkpt><trkpt lat="41.52185325699236" lon="13.404290807336398"><ele>130.33333333333331</ele><time>2026-04-04T09:28:16Z</time></trkpt><trkpt lat="41.52168996776002" lon="13.404258225284728"><ele>134.0</ele><time>2026-04-04T09:28:16.999Z</time></trkpt><trkpt lat="41.521527256167296" lon="13.404222361677908"><ele>134.0</ele><time>2026-04-04T09:28:17.999Z</time></trkpt><trkpt lat="41.52136455063438" lon="13.404184421151063"><ele>134.0</ele><time>2026-04-04T09:28:18.999Z</time></trkpt><trkpt lat="41.521201784331375" lon="13.40413996110003"><ele>134.0</ele><time>2026-04-04T09:28:19.999Z</time></trkpt><trkpt lat="41.52103605100397" lon="13.404089399840068"><ele>135.33333333333331</ele><time>2026-04-04T09:28:20.999Z</time></trkpt><trkpt lat="41.520865708075085" lon="13.404045431358412"><ele>136.66666666666666</ele><time>2026-04-04T09:28:21.999Z</time></trkpt><trkpt lat="41.520697516612614" lon="13.403994379437746"><ele>138.0</ele><time>2026-04-04T09:28:22.999Z</time></trkpt><trkpt lat="41.52054446268261" lon="13.403920550283209"><ele>140.33333333333334</ele><time>2026-04-04T09:28:23.999Z</time></trkpt><trkpt lat="41.52039811726823" lon="13.403818677687752"><ele>142.66666666666669</ele><time>2026-04-04T09:28:24.999Z</time></trkpt><trkpt lat="41.52026583125334" lon="13.403699945633353"><ele>145.0</ele><time>2026-04-04T09:28:25.999Z</time></trkpt><trkpt lat="41.5201298620943" lon="13.403579277778276"><ele>145.0</ele><time>2026-04-04T09:28:26.999Z</time></trkpt><trkpt lat="41.520009864676965" lon="13.403450620735134"><ele>145.0</ele><time>2026-04-04T09:28:27.999Z</time></trkpt><trkpt lat="41.51990652242154" lon="13.403308449209014"><ele>145.0</ele><time>2026-04-04T09:28:28.999Z</time></trkpt><trkpt lat="41.51981071844183" lon="13.403176100735468"><ele>145.0</ele><time>2026-04-04T09:28:29.999Z</time></trkpt><trkpt lat="41.51972246189645" lon="13.403084266888076"><ele>145.0</ele><time>2026-04-04T09:28:30.999Z</time></trkpt><trkpt lat="41.519621906288826" lon="13.403035503461398"><ele>145.0</ele><time>2026-04-04T09:28:31.999Z</time></trkpt><trkpt lat="41.51949527012953" lon="13.403039020157854"><ele>145.0</ele><time>2026-04-04T09:28:32.999Z</time></trkpt><trkpt lat="41.51937008841724" lon="13.403085726548712"><ele>145.0</ele><time>2026-04-04T09:28:33.999Z</time></trkpt><trkpt lat="41.51925616643923" lon="13.40318960139142"><ele>146.0</ele><time>2026-04-04T09:28:34.999Z</time></trkpt><trkpt lat="41.51913888785379" lon="13.40331843821385"><ele>147.0</ele><time>2026-04-04T09:28:36Z</time></trkpt><trkpt lat="41.51900422909514" lon="13.403442135360748"><ele>148.0</ele><time>2026-04-04T09:28:37Z</time></trkpt><trkpt lat="41.51885996181743" lon="13.403568308775998"><ele>146.66666666666669</ele><time>2026-04-04T09:28:38Z</time></trkpt><trkpt lat="41.518705455390204" lon="13.403695025381761"><ele>145.33333333333334</ele><time>2026-04-04T09:28:39Z</time></trkpt><trkpt lat="41.51856786044783" lon="13.403819114694093"><ele>144.0</ele><time>2026-04-04T09:28:40Z</time></trkpt><trkpt lat="41.518430697916926" lon="13.403939208426385"><ele>144.0</ele><time>2026-04-04T09:28:41Z</time></trkpt><trkpt lat="41.51830889286777" lon="13.40404915763977"><ele>144.0</ele><time>2026-04-04T09:28:42Z</time></trkpt><trkpt lat="41.51819606200183" lon="13.404150363021358"><ele>144.0</ele><time>2026-04-04T09:28:43Z</time></trkpt><trkpt lat="41.51809113240509" lon="13.4042427844136"><ele>144.0</ele><time>2026-04-04T09:28:44Z</time></trkpt><trkpt lat="41.51799771506831" lon="13.40432275268021"><ele>144.0</ele><time>2026-04-04T09:28:45Z</time></trkpt><trkpt lat="41.51792039344994" lon="13.404386847332857"><ele>144.0</ele><time>2026-04-04T09:28:46Z</time></trkpt><trkpt lat="41.51786263326007" lon="13.404432820075748"><ele>144.0</ele><time>2026-04-04T09:28:47Z</time></trkpt><trkpt lat="41.51775289272522" lon="13.404501793006679"><ele>144.0</ele><time>2026-04-04T09:28:49Z</time></trkpt><trkpt lat="41.51766187375191" lon="13.404609935281114"><ele>144.0</ele><time>2026-04-04T09:28:51Z</time></trkpt><trkpt lat="41.517597797514064" lon="13.40465559103713"><ele>143.5</ele><time>2026-04-04T09:28:52Z</time></trkpt><trkpt lat="41.517531819308246" lon="13.404706071592443"><ele>143.0</ele><time>2026-04-04T09:28:53Z</time></trkpt><trkpt lat="41.51747612233232" lon="13.40475112772396"><ele>142.5</ele><time>2026-04-04T09:28:54Z</time></trkpt><trkpt lat="41.517376583559525" lon="13.404824690167043"><ele>142.0</ele><time>2026-04-04T09:28:56Z</time></trkpt><trkpt lat="41.5172744790117" lon="13.404878490932362"><ele>141.5</ele><time>2026-04-04T09:28:58Z</time></trkpt><trkpt lat="41.517215240437515" lon="13.404908522827691"><ele>141.0</ele><time>2026-04-04T09:28:59Z</time></trkpt><trkpt lat="41.51715428304042" lon="13.404938136972277"><ele>141.0</ele><time>2026-04-04T09:29:00Z</time></trkpt><trkpt lat="41.51708440489256" lon="13.404971883236412"><ele>141.0</ele><time>2026-04-04T09:29:01Z</time></trkpt><trkpt lat="41.51701195523089" lon="13.40500672066241"><ele>141.0</ele><time>2026-04-04T09:29:02Z</time></trkpt><trkpt lat="41.51694555692455" lon="13.405035810716653"><ele>141.0</ele><time>2026-04-04T09:29:03Z</time></trkpt><trkpt lat="41.51683532254436" lon="13.405081508049022"><ele>141.0</ele><time>2026-04-04T09:29:05Z</time></trkpt><trkpt lat="41.51672048203958" lon="13.405119400187385"><ele>140.8</ele><time>2026-04-04T09:29:07Z</time></trkpt><trkpt lat="41.516604424804605" lon="13.405196219995156"><ele>140.6</ele><time>2026-04-04T09:29:09Z</time></trkpt><trkpt lat="41.51653785396359" lon="13.405233838316214"><ele>140.4</ele><time>2026-04-04T09:29:10Z</time></trkpt><trkpt lat="41.5164758830322" lon="13.40527088847645"><ele>140.2</ele><time>2026-04-04T09:29:11Z</time></trkpt><trkpt lat="41.51637647794521" lon="13.405317906606543"><ele>140.0</ele><time>2026-04-04T09:29:13Z</time></trkpt><trkpt lat="41.51625534603415" lon="13.405301506298228"><ele>140.4</ele><time>2026-04-04T09:29:15Z</time></trkpt><trkpt lat="41.516197676936834" lon="13.405266024811235"><ele>140.8</ele><time>2026-04-04T09:29:16Z</time></trkpt><trkpt lat="41.516109307677645" lon="13.405115995539319"><ele>141.2</ele><time>2026-04-04T09:29:18Z</time></trkpt><trkpt lat="41.51606057243192" lon="13.405022904849021"><ele>141.6</ele><time>2026-04-04T09:29:19Z</time></trkpt><trkpt lat="41.51597321111981" lon="13.405006238570897"><ele>142.0</ele><time>2026-04-04T09:29:20Z</time></trkpt><trkpt lat="41.51590713344817" lon="13.40490275834997"><ele>142.0</ele><time>2026-04-04T09:29:21Z</time></trkpt><trkpt lat="41.51583251142243" lon="13.4047953526874"><ele>142.0</ele><time>2026-04-04T09:29:22Z</time></trkpt><trkpt lat="41.515752918580255" lon="13.404701052307232"><ele>142.0</ele><time>2026-04-04T09:29:23Z</time></trkpt><trkpt lat="41.51567065082348" lon="13.404613028650447"><ele>142.0</ele><time>2026-04-04T09:29:24Z</time></trkpt><trkpt lat="41.51558554425479" lon="13.404519774184575"><ele>142.0</ele><time>2026-04-04T09:29:25Z</time></trkpt><trkpt lat="41.51549621042847" lon="13.404439005501217"><ele>142.75</ele><time>2026-04-04T09:29:26Z</time></trkpt><trkpt lat="41.51539875868689" lon="13.404348240698196"><ele>143.5</ele><time>2026-04-04T09:29:27Z</time></trkpt><trkpt lat="41.51529876095858" lon="13.404245087625645"><ele>144.25</ele><time>2026-04-04T09:29:28Z</time></trkpt><trkpt lat="41.51519947589487" lon="13.4041400708079"><ele>145.0</ele><time>2026-04-04T09:29:29Z</time></trkpt><trkpt lat="41.51507926528116" lon="13.404047419334166"><ele>145.0</ele><time>2026-04-04T09:29:30Z</time></trkpt><trkpt lat="41.514956440429536" lon="13.403943253368091"><ele>145.0</ele><time>2026-04-04T09:29:31Z</time></trkpt><trkpt lat="41.51483247107905" lon="13.403821002408266"><ele>145.0</ele><time>2026-04-04T09:29:32Z</time></trkpt><trkpt lat="41.51471735658216" lon="13.403682172474578"><ele>145.33333333333334</ele><time>2026-04-04T09:29:33Z</time></trkpt><trkpt lat="41.51461865083474" lon="13.403522556906076"><ele>145.66666666666666</ele><time>2026-04-04T09:29:34Z</time></trkpt><trkpt lat="41.51453581365467" lon="13.403330905141727"><ele>146.0</ele><time>2026-04-04T09:29:35Z</time></trkpt><trkpt lat="41.51445341620597" lon="13.403123070778317"><ele>147.0</ele><time>2026-04-04T09:29:36Z</time></trkpt><trkpt lat="41.514346323844485" lon="13.402887539471399"><ele>148.0</ele><time>2026-04-04T09:29:37Z</time></trkpt><trkpt lat="41.5142446265091" lon="13.40268763442298"><ele>149.0</ele><time>2026-04-04T09:29:38Z</time></trkpt><trkpt lat="41.51412952463115" lon="13.4024275216814"><ele>149.0</ele><time>2026-04-04T09:29:39Z</time></trkpt><trkpt lat="41.51401107229967" lon="13.402172126020456"><ele>149.0</ele><time>2026-04-04T09:29:40Z</time></trkpt><trkpt lat="41.51388896369258" lon="13.401935479992995"><ele>149.0</ele><time>2026-04-04T09:29:41Z</time></trkpt><trkpt lat="41.513725418802146" lon="13.40173038662652"><ele>150.66666666666666</ele><time>2026-04-04T09:29:42Z</time></trkpt><trkpt lat="41.513556708058495" lon="13.401534246280074"><ele>152.33333333333334</ele><time>2026-04-04T09:29:43Z</time></trkpt><trkpt lat="41.51339242244335" lon="13.401341142977046"><ele>154.0</ele><time>2026-04-04T09:29:44Z</time></trkpt><trkpt lat="41.51322436321414" lon="13.40114850722267"><ele>154.33333333333334</ele><time>2026-04-04T09:29:45Z</time></trkpt><trkpt lat="41.51306686896188" lon="13.400950432003933"><ele>154.66666666666666</ele><time>2026-04-04T09:29:46Z</time></trkpt><trkpt lat="41.51292007884117" lon="13.40075003269649"><ele>155.0</ele><time>2026-04-04T09:29:47Z</time></trkpt><trkpt lat="41.512779121646986" lon="13.400548852445324"><ele>156.0</ele><time>2026-04-04T09:29:48Z</time></trkpt><trkpt lat="41.512638327578415" lon="13.400348145743653"><ele>157.0</ele><time>2026-04-04T09:29:49Z</time></trkpt><trkpt lat="41.51249301288651" lon="13.400154774538457"><ele>158.0</ele><time>2026-04-04T09:29:50Z</time></trkpt><trkpt lat="41.51232925032532" lon="13.399983526887029"><ele>158.0</ele><time>2026-04-04T09:29:51Z</time></trkpt><trkpt lat="41.512140021163226" lon="13.399851248425282"><ele>158.0</ele><time>2026-04-04T09:29:52Z</time></trkpt><trkpt lat="41.511937653467506" lon="13.39974218385512"><ele>158.0</ele><time>2026-04-04T09:29:53Z</time></trkpt><trkpt lat="41.5117349157581" lon="13.3996248932506"><ele>159.66666666666666</ele><time>2026-04-04T09:29:54Z</time></trkpt><trkpt lat="41.511558397504004" lon="13.399462125976264"><ele>161.33333333333334</ele><time>2026-04-04T09:29:55Z</time></trkpt><trkpt lat="41.511400328346056" lon="13.399323859298063"><ele>163.0</ele><time>2026-04-04T09:29:56Z</time></trkpt><trkpt lat="41.51124587718399" lon="13.39919901085581"><ele>164.66666666666669</ele><time>2026-04-04T09:29:57Z</time></trkpt><trkpt lat="41.5110918772468" lon="13.39906156975252"><ele>166.33333333333334</ele><time>2026-04-04T09:29:58Z</time></trkpt><trkpt lat="41.51093889111438" lon="13.39895332528234"><ele>168.0</ele><time>2026-04-04T09:29:59Z</time></trkpt><trkpt lat="41.51077077726868" lon="13.398866511203236"><ele>167.0</ele><time>2026-04-04T09:30:00Z</time></trkpt><trkpt lat="41.51057764332994" lon="13.398818228924654"><ele>166.0</ele><time>2026-04-04T09:30:01Z</time></trkpt><trkpt lat="41.51037110906274" lon="13.398820683702873"><ele>165.0</ele><time>2026-04-04T09:30:02Z</time></trkpt><trkpt lat="41.510164594144754" lon="13.398797409467502"><ele>167.33333333333334</ele><time>2026-04-04T09:30:03Z</time></trkpt><trkpt lat="41.509961217045394" lon="13.398792959905773"><ele>169.66666666666669</ele><time>2026-04-04T09:30:04Z</time></trkpt><trkpt lat="41.50978904631512" lon="13.39878350642933"><ele>172.0</ele><time>2026-04-04T09:30:05Z</time></trkpt><trkpt lat="41.50964487582521" lon="13.39876285472852"><ele>173.66666666666669</ele><time>2026-04-04T09:30:06Z</time></trkpt><trkpt lat="41.50949939580159" lon="13.398714115878796"><ele>175.33333333333334</ele><time>2026-04-04T09:30:07Z</time></trkpt><trkpt lat="41.509365351295955" lon="13.398622056394482"><ele>177.0</ele><time>2026-04-04T09:30:08Z</time></trkpt><trkpt lat="41.50924024471526" lon="13.39849184540826"><ele>177.0</ele><time>2026-04-04T09:30:09Z</time></trkpt><trkpt lat="41.5091144721705" lon="13.398347121977855"><ele>177.0</ele><time>2026-04-04T09:30:10Z</time></trkpt><trkpt lat="41.50896968456745" lon="13.398187649273861"><ele>177.0</ele><time>2026-04-04T09:30:11Z</time></trkpt><trkpt lat="41.50883955161671" lon="13.398009460967844"><ele>177.33333333333334</ele><time>2026-04-04T09:30:12Z</time></trkpt><trkpt lat="41.50870622397989" lon="13.397864804815526"><ele>177.66666666666669</ele><time>2026-04-04T09:30:13Z</time></trkpt><trkpt lat="41.50857928195341" lon="13.397706509985476"><ele>178.0</ele><time>2026-04-04T09:30:14Z</time></trkpt><trkpt lat="41.50845157944691" lon="13.397534135426698"><ele>178.0</ele><time>2026-04-04T09:30:15Z</time></trkpt><trkpt lat="41.508311648049286" lon="13.397349178971075"><ele>178.0</ele><time>2026-04-04T09:30:15.999Z</time></trkpt><trkpt lat="41.50817859072176" lon="13.397169949649514"><ele>178.0</ele><time>2026-04-04T09:30:16.999Z</time></trkpt><trkpt lat="41.508044572120085" lon="13.397010540194788"><ele>176.66666666666669</ele><time>2026-04-04T09:30:17.999Z</time></trkpt><trkpt lat="41.507890229559784" lon="13.396895586357296"><ele>175.33333333333334</ele><time>2026-04-04T09:30:18.999Z</time></trkpt><trkpt lat="41.50769746551545" lon="13.396838784519444"><ele>174.0</ele><time>2026-04-04T09:30:19.999Z</time></trkpt><trkpt lat="41.507495368490765" lon="13.396782648938933"><ele>174.0</ele><time>2026-04-04T09:30:20.999Z</time></trkpt><trkpt lat="41.50726679986746" lon="13.39674096930108"><ele>174.0</ele><time>2026-04-04T09:30:21.999Z</time></trkpt><trkpt lat="41.50702409844339" lon="13.396691528625606"><ele>174.0</ele><time>2026-04-04T09:30:22.999Z</time></trkpt><trkpt lat="41.50678961030446" lon="13.396637503080328"><ele>174.0</ele><time>2026-04-04T09:30:23.999Z</time></trkpt><trkpt lat="41.506585650836946" lon="13.396577350809315"><ele>174.0</ele><time>2026-04-04T09:30:24.999Z</time></trkpt><trkpt lat="41.50640098224265" lon="13.396510201580076"><ele>174.66666666666666</ele><time>2026-04-04T09:30:25.999Z</time></trkpt><trkpt lat="41.506236326204075" lon="13.396433653304111"><ele>175.33333333333331</ele><time>2026-04-04T09:30:26.999Z</time></trkpt><trkpt lat="41.50609430901626" lon="13.396329546707038"><ele>176.0</ele><time>2026-04-04T09:30:27.999Z</time></trkpt><trkpt lat="41.50596163838086" lon="13.396185033350477"><ele>176.0</ele><time>2026-04-04T09:30:28.999Z</time></trkpt><trkpt lat="41.505848181279774" lon="13.395991944431522"><ele>176.0</ele><time>2026-04-04T09:30:29.999Z</time></trkpt><trkpt lat="41.50575189878803" lon="13.395810909865618"><ele>176.0</ele><time>2026-04-04T09:30:30.999Z</time></trkpt><trkpt lat="41.50568335700642" lon="13.395630631103273"><ele>174.75</ele><time>2026-04-04T09:30:31.999Z</time></trkpt><trkpt lat="41.50561663078727" lon="13.39546851852034"><ele>173.5</ele><time>2026-04-04T09:30:32.999Z</time></trkpt><trkpt lat="41.50554448059889" lon="13.395309144122624"><ele>172.25</ele><time>2026-04-04T09:30:33.999Z</time></trkpt><trkpt lat="41.50546259016658" lon="13.395155626584536"><ele>171.0</ele><time>2026-04-04T09:30:34.999Z</time></trkpt><trkpt lat="41.50536361410229" lon="13.395018459598678"><ele>171.0</ele><time>2026-04-04T09:30:35.999Z</time></trkpt><trkpt lat="41.505237523242045" lon="13.394923638654399"><ele>171.0</ele><time>2026-04-04T09:30:36.999Z</time></trkpt><trkpt lat="41.50512595043886" lon="13.394863567512239"><ele>171.0</ele><time>2026-04-04T09:30:37.999Z</time></trkpt><trkpt lat="41.505040554645035" lon="13.394814737923955"><ele>171.0</ele><time>2026-04-04T09:30:38.999Z</time></trkpt><trkpt lat="41.50496182860485" lon="13.394781126675204"><ele>171.0</ele><time>2026-04-04T09:30:39.999Z</time></trkpt><trkpt lat="41.50490044755505" lon="13.394759610112127"><ele>171.0</ele><time>2026-04-04T09:30:40.999Z</time></trkpt><trkpt lat="41.504820334847295" lon="13.394734546202024"><ele>171.0</ele><time>2026-04-04T09:30:43Z</time></trkpt><trkpt lat="41.50474826356584" lon="13.394715129401598"><ele>171.0</ele><time>2026-04-04T09:30:47Z</time></trkpt><trkpt lat="41.5046767603814" lon="13.39472002966887"><ele>171.0</ele><time>2026-04-04T09:30:57Z</time></trkpt><trkpt lat="41.50460218639441" lon="13.394706312533856"><ele>171.0</ele><time>2026-04-04T09:31:00Z</time></trkpt><trkpt lat="41.50453000003112" lon="13.394686702778753"><ele>171.0</ele><time>2026-04-04T09:31:03Z</time></trkpt><trkpt lat="41.5044327301293" lon="13.394632882779707"><ele>170.20000000000002</ele><time>2026-04-04T09:31:06Z</time></trkpt><trkpt lat="41.50435560116968" lon="13.394615553912747"><ele>169.4</ele><time>2026-04-04T09:31:07Z</time></trkpt><trkpt lat="41.50424838470631" lon="13.39462205531312"><ele>168.6</ele><time>2026-04-04T09:31:08Z</time></trkpt><trkpt lat="41.50413883191095" lon="13.394639507640093"><ele>167.8</ele><time>2026-04-04T09:31:09Z</time></trkpt><trkpt lat="41.50402256311034" lon="13.394641657311578"><ele>167.0</ele><time>2026-04-04T09:31:10Z</time></trkpt><trkpt lat="41.503881813378904" lon="13.394679945438966"><ele>167.66666666666666</ele><time>2026-04-04T09:31:11Z</time></trkpt><trkpt lat="41.503733167577344" lon="13.394698538220167"><ele>168.33333333333334</ele><time>2026-04-04T09:31:12Z</time></trkpt><trkpt lat="41.50357224655818" lon="13.394732745088614"><ele>169.0</ele><time>2026-04-04T09:31:13Z</time></trkpt><trkpt lat="41.50340523151612" lon="13.394779646093268"><ele>169.0</ele><time>2026-04-04T09:31:14Z</time></trkpt><trkpt lat="41.50323787796182" lon="13.394850504537114"><ele>169.0</ele><time>2026-04-04T09:31:15Z</time></trkpt><trkpt lat="41.503072244199956" lon="13.394933860018464"><ele>169.0</ele><time>2026-04-04T09:31:16Z</time></trkpt><trkpt lat="41.50290754948034" lon="13.395044690993739"><ele>170.33333333333334</ele><time>2026-04-04T09:31:17Z</time></trkpt><trkpt lat="41.50275037173993" lon="13.395182639422488"><ele>171.66666666666666</ele><time>2026-04-04T09:31:18Z</time></trkpt><trkpt lat="41.50258503322847" lon="13.395315597142536"><ele>173.0</ele><time>2026-04-04T09:31:19Z</time></trkpt><trkpt lat="41.502447094620926" lon="13.395488491875446"><ele>173.33333333333331</ele><time>2026-04-04T09:31:20Z</time></trkpt><trkpt lat="41.50230931322155" lon="13.39566209423715"><ele>173.66666666666666</ele><time>2026-04-04T09:31:21Z</time></trkpt><trkpt lat="41.502187459828065" lon="13.395869785399475"><ele>174.0</ele><time>2026-04-04T09:31:22Z</time></trkpt><trkpt lat="41.50208366828996" lon="13.396100193199874"><ele>171.5</ele><time>2026-04-04T09:31:23Z</time></trkpt><trkpt lat="41.501989084748004" lon="13.396362027554717"><ele>169.0</ele><time>2026-04-04T09:31:24Z</time></trkpt><trkpt lat="41.5018976708938" lon="13.396648524055012"><ele>169.0</ele><time>2026-04-04T09:31:25Z</time></trkpt><trkpt lat="41.50178436562803" lon="13.396946780144402"><ele>169.0</ele><time>2026-04-04T09:31:26Z</time></trkpt><trkpt lat="41.50168853939487" lon="13.397236883221776"><ele>170.66666666666669</ele><time>2026-04-04T09:31:27Z</time></trkpt><trkpt lat="41.50159402426294" lon="13.397510654451732"><ele>172.33333333333334</ele><time>2026-04-04T09:31:28Z</time></trkpt><trkpt lat="41.501502094453514" lon="13.397760937010661"><ele>174.0</ele><time>2026-04-04T09:31:29Z</time></trkpt><trkpt lat="41.50140953891038" lon="13.398011450405019"><ele>172.66666666666666</ele><time>2026-04-04T09:31:30Z</time></trkpt><trkpt lat="41.50132172371564" lon="13.3982720704866"><ele>171.33333333333331</ele><time>2026-04-04T09:31:31Z</time></trkpt><trkpt lat="41.50125766128172" lon="13.398550812052367"><ele>170.0</ele><time>2026-04-04T09:31:32Z</time></trkpt><trkpt lat="41.501177494556345" lon="13.39882554421472"><ele>172.33333333333331</ele><time>2026-04-04T09:31:33Z</time></trkpt><trkpt lat="41.501062016833025" lon="13.399072171398657"><ele>174.66666666666666</ele><time>2026-04-04T09:31:34Z</time></trkpt><trkpt lat="41.50094642921033" lon="13.399276153973489"><ele>177.0</ele><time>2026-04-04T09:31:35Z</time></trkpt><trkpt lat="41.500806463700684" lon="13.399455343915593"><ele>177.0</ele><time>2026-04-04T09:31:36Z</time></trkpt><trkpt lat="41.500655733960805" lon="13.399615911723435"><ele>177.0</ele><time>2026-04-04T09:31:37Z</time></trkpt><trkpt lat="41.500494246462196" lon="13.399751409875178"><ele>177.0</ele><time>2026-04-04T09:31:38Z</time></trkpt><trkpt lat="41.500333870259844" lon="13.399881648639948"><ele>179.66666666666666</ele><time>2026-04-04T09:31:39Z</time></trkpt><trkpt lat="41.500155380988076" lon="13.399953587204841"><ele>182.33333333333331</ele><time>2026-04-04T09:31:40Z</time></trkpt><trkpt lat="41.499975489436935" lon="13.40000403585713"><ele>185.0</ele><time>2026-04-04T09:31:41Z</time></trkpt><trkpt lat="41.49978701088176" lon="13.400025470040333"><ele>185.0</ele><time>2026-04-04T09:31:42Z</time></trkpt><trkpt lat="41.49959153180254" lon="13.400009350553756"><ele>185.0</ele><time>2026-04-04T09:31:43Z</time></trkpt><trkpt lat="41.49939315880394" lon="13.399967958403659"><ele>185.0</ele><time>2026-04-04T09:31:44Z</time></trkpt><trkpt lat="41.49919220435846" lon="13.399906832959848"><ele>184.0</ele><time>2026-04-04T09:31:45Z</time></trkpt><trkpt lat="41.49899421237235" lon="13.39980116532142"><ele>183.0</ele><time>2026-04-04T09:31:46Z</time></trkpt><trkpt lat="41.498782786893486" lon="13.399706562596378"><ele>182.0</ele><time>2026-04-04T09:31:47Z</time></trkpt><trkpt lat="41.49856691878348" lon="13.399559797905912"><ele>182.0</ele><time>2026-04-04T09:31:48Z</time></trkpt><trkpt lat="41.498358150531665" lon="13.399417159619432"><ele>182.0</ele><time>2026-04-04T09:31:49Z</time></trkpt><trkpt lat="41.49814918571277" lon="13.39927911357054"><ele>182.0</ele><time>2026-04-04T09:31:50Z</time></trkpt><trkpt lat="41.497936728484284" lon="13.39914792531374"><ele>182.0</ele><time>2026-04-04T09:31:51Z</time></trkpt><trkpt lat="41.497718262791736" lon="13.399015201721179"><ele>179.5</ele><time>2026-04-04T09:31:52Z</time></trkpt><trkpt lat="41.49749674151849" lon="13.398883711629125"><ele>177.0</ele><time>2026-04-04T09:31:53Z</time></trkpt><trkpt lat="41.49727020478052" lon="13.39876841548638"><ele>182.5</ele><time>2026-04-04T09:31:54Z</time></trkpt><trkpt lat="41.49703994450289" lon="13.398674286143303"><ele>188.0</ele><time>2026-04-04T09:31:55Z</time></trkpt><trkpt lat="41.496806901276734" lon="13.398564299324839"><ele>188.0</ele><time>2026-04-04T09:31:56Z</time></trkpt><trkpt lat="41.49657209967523" lon="13.39848794563928"><ele>188.0</ele><time>2026-04-04T09:31:57Z</time></trkpt><trkpt lat="41.49632780513433" lon="13.398414476236432"><ele>191.5</ele><time>2026-04-04T09:31:58Z</time></trkpt><trkpt lat="41.49609125299694" lon="13.398343335206256"><ele>195.0</ele><time>2026-04-04T09:31:59Z</time></trkpt><trkpt lat="41.49587683547856" lon="13.398276696866036"><ele>195.0</ele><time>2026-04-04T09:32:00Z</time></trkpt><trkpt lat="41.49566646258731" lon="13.398210994002367"><ele>195.0</ele><time>2026-04-04T09:32:01Z</time></trkpt><trkpt lat="41.49546362971151" lon="13.398166535914722"><ele>195.0</ele><time>2026-04-04T09:32:02Z</time></trkpt><trkpt lat="41.49528257115325" lon="13.398097877368784"><ele>192.33333333333334</ele><time>2026-04-04T09:32:03Z</time></trkpt><trkpt lat="41.49509956123187" lon="13.398012310035206"><ele>189.66666666666669</ele><time>2026-04-04T09:32:04Z</time></trkpt><trkpt lat="41.49493371715127" lon="13.397890286245168"><ele>187.0</ele><time>2026-04-04T09:32:05Z</time></trkpt><trkpt lat="41.49480189807056" lon="13.397743830394937"><ele>187.0</ele><time>2026-04-04T09:32:06Z</time></trkpt><trkpt lat="41.494691768449684" lon="13.397586976808505"><ele>187.0</ele><time>2026-04-04T09:32:07Z</time></trkpt><trkpt lat="41.49458241441897" lon="13.397433621661019"><ele>187.0</ele><time>2026-04-04T09:32:08Z</time></trkpt><trkpt lat="41.49443117688886" lon="13.39733013436845"><ele>191.0</ele><time>2026-04-04T09:32:09Z</time></trkpt><trkpt lat="41.494243075539664" lon="13.397285125433458"><ele>195.0</ele><time>2026-04-04T09:32:10Z</time></trkpt><trkpt lat="41.49403357685404" lon="13.397291304827744"><ele>199.0</ele><time>2026-04-04T09:32:11Z</time></trkpt><trkpt lat="41.49383495556932" lon="13.397336847776012"><ele>197.33333333333331</ele><time>2026-04-04T09:32:12Z</time></trkpt><trkpt lat="41.493651453769566" lon="13.397389820174585"><ele>195.66666666666669</ele><time>2026-04-04T09:32:13Z</time></trkpt><trkpt lat="41.493473414859324" lon="13.397498189783104"><ele>194.0</ele><time>2026-04-04T09:32:14Z</time></trkpt><trkpt lat="41.493299236810785" lon="13.397627609197295"><ele>194.0</ele><time>2026-04-04T09:32:15Z</time></trkpt><trkpt lat="41.49312876626928" lon="13.397764486951832"><ele>194.0</ele><time>2026-04-04T09:32:16Z</time></trkpt><trkpt lat="41.492961084726616" lon="13.39790613853165"><ele>194.0</ele><time>2026-04-04T09:32:17Z</time></trkpt><trkpt lat="41.492790831175974" lon="13.398029951549342"><ele>197.66666666666669</ele><time>2026-04-04T09:32:18Z</time></trkpt><trkpt lat="41.492608216123884" lon="13.398122211427491"><ele>201.33333333333331</ele><time>2026-04-04T09:32:19Z</time></trkpt><trkpt lat="41.49242818774203" lon="13.398176113860066"><ele>205.0</ele><time>2026-04-04T09:32:19.999Z</time></trkpt><trkpt lat="41.492266648218816" lon="13.398205681917053"><ele>205.0</ele><time>2026-04-04T09:32:20.999Z</time></trkpt><trkpt lat="41.49212379760041" lon="13.398217144404574"><ele>205.0</ele><time>2026-04-04T09:32:21.999Z</time></trkpt><trkpt lat="41.491993736720694" lon="13.39822219578306"><ele>205.0</ele><time>2026-04-04T09:32:22.999Z</time></trkpt><trkpt lat="41.49187268151135" lon="13.398146268893363"><ele>205.0</ele><time>2026-04-04T09:32:23.999Z</time></trkpt><trkpt lat="41.49175940610865" lon="13.398014394331357"><ele>203.0</ele><time>2026-04-04T09:32:24.999Z</time></trkpt><trkpt lat="41.49165299258749" lon="13.397839716562048"><ele>201.0</ele><time>2026-04-04T09:32:25.999Z</time></trkpt><trkpt lat="41.49150492806149" lon="13.397719589936974"><ele>199.0</ele><time>2026-04-04T09:32:26.999Z</time></trkpt><trkpt lat="41.491343826327984" lon="13.397650074201032"><ele>200.0</ele><time>2026-04-04T09:32:27.999Z</time></trkpt><trkpt lat="41.491166643259454" lon="13.397628898644887"><ele>201.0</ele><time>2026-04-04T09:32:28.999Z</time></trkpt><trkpt lat="41.490995078271496" lon="13.397633262564456"><ele>202.0</ele><time>2026-04-04T09:32:29.999Z</time></trkpt><trkpt lat="41.49082097716968" lon="13.397688709941114"><ele>202.0</ele><time>2026-04-04T09:32:30.999Z</time></trkpt><trkpt lat="41.49064190961955" lon="13.397766082604347"><ele>202.0</ele><time>2026-04-04T09:32:31.999Z</time></trkpt><trkpt lat="41.490459863297986" lon="13.397849473963262"><ele>202.0</ele><time>2026-04-04T09:32:32.999Z</time></trkpt><trkpt lat="41.490278319413285" lon="13.397931643403691"><ele>201.66666666666666</ele><time>2026-04-04T09:32:33.999Z</time></trkpt><trkpt lat="41.490116365261" lon="13.397998217862883"><ele>201.33333333333331</ele><time>2026-04-04T09:32:34.999Z</time></trkpt><trkpt lat="41.48995402686921" lon="13.398039752175748"><ele>201.0</ele><time>2026-04-04T09:32:35.999Z</time></trkpt><trkpt lat="41.489787285422416" lon="13.398032614002659"><ele>201.0</ele><time>2026-04-04T09:32:36.999Z</time></trkpt><trkpt lat="41.48962810830395" lon="13.3979808652481"><ele>201.0</ele><time>2026-04-04T09:32:37.999Z</time></trkpt><trkpt lat="41.489468771555444" lon="13.397878316014328"><ele>201.0</ele><time>2026-04-04T09:32:38.999Z</time></trkpt><trkpt lat="41.48931400917264" lon="13.3977511590422"><ele>204.33333333333331</ele><time>2026-04-04T09:32:39.999Z</time></trkpt><trkpt lat="41.48913623164109" lon="13.397616749397175"><ele>207.66666666666666</ele><time>2026-04-04T09:32:40.999Z</time></trkpt><trkpt lat="41.488937994447845" lon="13.397453080642096"><ele>211.0</ele><time>2026-04-04T09:32:41.999Z</time></trkpt><trkpt lat="41.4887618850191" lon="13.397261004633307"><ele>213.33333333333331</ele><time>2026-04-04T09:32:42.999Z</time></trkpt><trkpt lat="41.488601714610546" lon="13.397058050975076"><ele>215.66666666666669</ele><time>2026-04-04T09:32:43.999Z</time></trkpt><trkpt lat="41.488476344976185" lon="13.396866683626762"><ele>218.0</ele><time>2026-04-04T09:32:44.999Z</time></trkpt><trkpt lat="41.488359215233885" lon="13.396700452010666"><ele>218.0</ele><time>2026-04-04T09:32:45.999Z</time></trkpt><trkpt lat="41.48822834889554" lon="13.396555359392014"><ele>218.0</ele><time>2026-04-04T09:32:46.999Z</time></trkpt><trkpt lat="41.48807342462578" lon="13.396442315169942"><ele>218.0</ele><time>2026-04-04T09:32:48Z</time></trkpt><trkpt lat="41.48790510519774" lon="13.396362794082602"><ele>213.66666666666669</ele><time>2026-04-04T09:32:49Z</time></trkpt><trkpt lat="41.48772163557915" lon="13.39631214853579"><ele>209.33333333333331</ele><time>2026-04-04T09:32:50Z</time></trkpt><trkpt lat="41.487533317260834" lon="13.396284164857404"><ele>205.0</ele><time>2026-04-04T09:32:51Z</time></trkpt><trkpt lat="41.48734058199465" lon="13.396286720374126"><ele>205.0</ele><time>2026-04-04T09:32:52Z</time></trkpt><trkpt lat="41.487138858259826" lon="13.396328857646061"><ele>205.0</ele><time>2026-04-04T09:32:53Z</time></trkpt><trkpt lat="41.4869418755173" lon="13.396392601790566"><ele>205.0</ele><time>2026-04-04T09:32:54Z</time></trkpt><trkpt lat="41.48673090030349" lon="13.396480462823712"><ele>218.0</ele><time>2026-04-04T09:32:55Z</time></trkpt><trkpt lat="41.48650622896634" lon="13.396571319328292"><ele>231.0</ele><time>2026-04-04T09:32:56Z</time></trkpt><trkpt lat="41.486275235320726" lon="13.396661153409982"><ele>227.5</ele><time>2026-04-04T09:32:57Z</time></trkpt><trkpt lat="41.48604624595736" lon="13.39675157605346"><ele>224.0</ele><time>2026-04-04T09:32:58Z</time></trkpt><trkpt lat="41.48584087368907" lon="13.396844114412193"><ele>224.0</ele><time>2026-04-04T09:32:59Z</time></trkpt><trkpt lat="41.48562788661843" lon="13.396968020509032"><ele>224.0</ele><time>2026-04-04T09:33:00Z</time></trkpt><trkpt lat="41.48541569306503" lon="13.397132061205307"><ele>228.5</ele><time>2026-04-04T09:33:01Z</time></trkpt><trkpt lat="41.48518886473588" lon="13.39730688931479"><ele>233.0</ele><time>2026-04-04T09:33:02Z</time></trkpt><trkpt lat="41.48496637687223" lon="13.397479637642698"><ele>233.0</ele><time>2026-04-04T09:33:03Z</time></trkpt><trkpt lat="41.484762471195765" lon="13.397625285330552"><ele>233.0</ele><time>2026-04-04T09:33:04Z</time></trkpt><trkpt lat="41.48457276240326" lon="13.397750085997071"><ele>233.0</ele><time>2026-04-04T09:33:05Z</time></trkpt><trkpt lat="41.48437395592995" lon="13.39784328374013"><ele>229.33333333333334</ele><time>2026-04-04T09:33:06Z</time></trkpt><trkpt lat="41.48415883114584" lon="13.397896656652257"><ele>225.66666666666669</ele><time>2026-04-04T09:33:07Z</time></trkpt><trkpt lat="41.48393272686907" lon="13.397927568318366"><ele>222.0</ele><time>2026-04-04T09:33:08Z</time></trkpt><trkpt lat="41.483709085576386" lon="13.397968813433819"><ele>223.0</ele><time>2026-04-04T09:33:09Z</time></trkpt><trkpt lat="41.48351058341175" lon="13.398009485366487"><ele>224.0</ele><time>2026-04-04T09:33:10Z</time></trkpt><trkpt lat="41.483329061197125" lon="13.398053151362788"><ele>225.0</ele><time>2026-04-04T09:33:11Z</time></trkpt><trkpt lat="41.4831624053932" lon="13.398118226706098"><ele>225.0</ele><time>2026-04-04T09:33:12Z</time></trkpt><trkpt lat="41.483009013361226" lon="13.398193408139646"><ele>225.0</ele><time>2026-04-04T09:33:13Z</time></trkpt><trkpt lat="41.48286648321078" lon="13.398253099541273"><ele>225.0</ele><time>2026-04-04T09:33:14Z</time></trkpt><trkpt lat="41.48271330416663" lon="13.398257830749298"><ele>227.33333333333331</ele><time>2026-04-04T09:33:15Z</time></trkpt><trkpt lat="41.48255445279578" lon="13.398198616595762"><ele>229.66666666666666</ele><time>2026-04-04T09:33:16Z</time></trkpt><trkpt lat="41.48238562229888" lon="13.398096329610567"><ele>232.0</ele><time>2026-04-04T09:33:17Z</time></trkpt><trkpt lat="41.48220958032368" lon="13.397990640207937"><ele>228.66666666666666</ele><time>2026-04-04T09:33:18Z</time></trkpt><trkpt lat="41.48202300934832" lon="13.3978981383577"><ele>225.33333333333331</ele><time>2026-04-04T09:33:19Z</time></trkpt><trkpt lat="41.48183664944828" lon="13.397804266852239"><ele>222.0</ele><time>2026-04-04T09:33:20Z</time></trkpt><trkpt lat="41.48164509207856" lon="13.397728103865306"><ele>222.0</ele><time>2026-04-04T09:33:21Z</time></trkpt><trkpt lat="41.4814475827081" lon="13.39768293662175"><ele>222.0</ele><time>2026-04-04T09:33:22Z</time></trkpt><trkpt lat="41.48124705947766" lon="13.397665627268587"><ele>222.0</ele><time>2026-04-04T09:33:23Z</time></trkpt><trkpt lat="41.48103172423531" lon="13.397669524246588"><ele>222.66666666666669</ele><time>2026-04-04T09:33:24Z</time></trkpt><trkpt lat="41.480809167836846" lon="13.397664511828024"><ele>223.33333333333334</ele><time>2026-04-04T09:33:25Z</time></trkpt><trkpt lat="41.480584523447426" lon="13.39766015984272"><ele>224.0</ele><time>2026-04-04T09:33:26Z</time></trkpt><trkpt lat="41.480357157917474" lon="13.39762570600237"><ele>225.0</ele><time>2026-04-04T09:33:27Z</time></trkpt><trkpt lat="41.48012633335323" lon="13.397620888325285"><ele>226.0</ele><time>2026-04-04T09:33:28Z</time></trkpt><trkpt lat="41.47988958804985" lon="13.397617379594669"><ele>226.0</ele><time>2026-04-04T09:33:29Z</time></trkpt><trkpt lat="41.4796499293634" lon="13.397613790237413"><ele>226.0</ele><time>2026-04-04T09:33:30Z</time></trkpt><trkpt lat="41.47940985447589" lon="13.397602779154061"><ele>226.0</ele><time>2026-04-04T09:33:31Z</time></trkpt><trkpt lat="41.47917072793125" lon="13.397580664137818"><ele>226.0</ele><time>2026-04-04T09:33:32Z</time></trkpt><trkpt lat="41.47893365170456" lon="13.397546521190868"><ele>228.0</ele><time>2026-04-04T09:33:33Z</time></trkpt><trkpt lat="41.47869207631853" lon="13.397510217021647"><ele>230.0</ele><time>2026-04-04T09:33:34Z</time></trkpt><trkpt lat="41.47845355202176" lon="13.397475380702959"><ele>230.0</ele><time>2026-04-04T09:33:35Z</time></trkpt><trkpt lat="41.478234174141576" lon="13.397444516795003"><ele>230.0</ele><time>2026-04-04T09:33:36Z</time></trkpt><trkpt lat="41.47801096069392" lon="13.397408283863621"><ele>230.0</ele><time>2026-04-04T09:33:37Z</time></trkpt><trkpt lat="41.47778664283367" lon="13.397376819404341"><ele>232.66666666666669</ele><time>2026-04-04T09:33:38Z</time></trkpt><trkpt lat="41.47756666042053" lon="13.397345963067105"><ele>235.33333333333331</ele><time>2026-04-04T09:33:39Z</time></trkpt><trkpt lat="41.47734833066331" lon="13.397315338542453"><ele>238.0</ele><time>2026-04-04T09:33:40Z</time></trkpt><trkpt lat="41.47713171451605" lon="13.39728347670618"><ele>238.33333333333331</ele><time>2026-04-04T09:33:41Z</time></trkpt><trkpt lat="41.47692895913327" lon="13.397252679587117"><ele>238.66666666666669</ele><time>2026-04-04T09:33:42Z</time></trkpt><trkpt lat="41.476735368035996" lon="13.397225553854875"><ele>239.0</ele><time>2026-04-04T09:33:43Z</time></trkpt><trkpt lat="41.476536360044655" lon="13.397199879208204"><ele>235.33333333333334</ele><time>2026-04-04T09:33:44Z</time></trkpt><trkpt lat="41.476332752492674" lon="13.39716571747663"><ele>231.66666666666669</ele><time>2026-04-04T09:33:45Z</time></trkpt><trkpt lat="41.47612621445391" lon="13.397147780370382"><ele>228.0</ele><time>2026-04-04T09:33:46Z</time></trkpt><trkpt lat="41.475929653178724" lon="13.397151620868495"><ele>231.33333333333331</ele><time>2026-04-04T09:33:47Z</time></trkpt><trkpt lat="41.47573019222136" lon="13.397188480283349"><ele>234.66666666666666</ele><time>2026-04-04T09:33:48Z</time></trkpt><trkpt lat="41.47552424167688" lon="13.397258326720532"><ele>238.0</ele><time>2026-04-04T09:33:49Z</time></trkpt><trkpt lat="41.47531177956297" lon="13.397342558658773"><ele>238.0</ele><time>2026-04-04T09:33:50Z</time></trkpt><trkpt lat="41.47508263029511" lon="13.397423566723035"><ele>238.0</ele><time>2026-04-04T09:33:51Z</time></trkpt><trkpt lat="41.474833024272215" lon="13.397514206689893"><ele>238.0</ele><time>2026-04-04T09:33:52Z</time></trkpt><trkpt lat="41.47461179916363" lon="13.397592457980519"><ele>238.0</ele><time>2026-04-04T09:33:53Z</time></trkpt><trkpt lat="41.47439581161908" lon="13.397678337762772"><ele>233.0</ele><time>2026-04-04T09:33:54Z</time></trkpt><trkpt lat="41.474174423513624" lon="13.397755050250549"><ele>228.0</ele><time>2026-04-04T09:33:55Z</time></trkpt><trkpt lat="41.47395766958466" lon="13.397855603669074"><ele>221.5</ele><time>2026-04-04T09:33:56Z</time></trkpt><trkpt lat="41.47374417379356" lon="13.397978662400014"><ele>215.0</ele><time>2026-04-04T09:33:57Z</time></trkpt><trkpt lat="41.473536388456814" lon="13.398111181236649"><ele>228.5</ele><time>2026-04-04T09:33:58Z</time></trkpt><trkpt lat="41.473334793810594" lon="13.398252607266752"><ele>242.0</ele><time>2026-04-04T09:33:59Z</time></trkpt><trkpt lat="41.473129780063964" lon="13.398401382504751"><ele>233.5</ele><time>2026-04-04T09:34:00Z</time></trkpt><trkpt lat="41.47292912200436" lon="13.398557106325871"><ele>225.0</ele><time>2026-04-04T09:34:01Z</time></trkpt><trkpt lat="41.47272609154523" lon="13.398704636197436"><ele>240.5</ele><time>2026-04-04T09:34:02Z</time></trkpt><trkpt lat="41.472524001325525" lon="13.398854578946134"><ele>256.0</ele><time>2026-04-04T09:34:03Z</time></trkpt><trkpt lat="41.47232040423548" lon="13.398998502071134"><ele>256.0</ele><time>2026-04-04T09:34:04Z</time></trkpt><trkpt lat="41.4721172838196" lon="13.399139982073626"><ele>256.0</ele><time>2026-04-04T09:34:05Z</time></trkpt><trkpt lat="41.47191666492411" lon="13.399291379882865"><ele>244.5</ele><time>2026-04-04T09:34:06Z</time></trkpt><trkpt lat="41.471715714756535" lon="13.39944415563531"><ele>233.0</ele><time>2026-04-04T09:34:07Z</time></trkpt><trkpt lat="41.47151336659465" lon="13.399599976355226"><ele>238.0</ele><time>2026-04-04T09:34:08Z</time></trkpt><trkpt lat="41.47131232174577" lon="13.399764319888757"><ele>243.0</ele><time>2026-04-04T09:34:09Z</time></trkpt><trkpt lat="41.47111237400513" lon="13.399934452272575"><ele>243.0</ele><time>2026-04-04T09:34:10Z</time></trkpt><trkpt lat="41.470916887220966" lon="13.400107131328182"><ele>243.0</ele><time>2026-04-04T09:34:11Z</time></trkpt><trkpt lat="41.470720233601625" lon="13.400281807024252"><ele>243.0</ele><time>2026-04-04T09:34:12Z</time></trkpt><trkpt lat="41.47052483242521" lon="13.400467390337523"><ele>243.0</ele><time>2026-04-04T09:34:13Z</time></trkpt><trkpt lat="41.47032556872218" lon="13.400653686919465"><ele>244.5</ele><time>2026-04-04T09:34:14Z</time></trkpt><trkpt lat="41.47012938742896" lon="13.400843291254207"><ele>246.0</ele><time>2026-04-04T09:34:15Z</time></trkpt><trkpt lat="41.46993823948958" lon="13.401034166137984"><ele>246.0</ele><time>2026-04-04T09:34:16Z</time></trkpt><trkpt lat="41.469748003243254" lon="13.401232296558858"><ele>246.0</ele><time>2026-04-04T09:34:17Z</time></trkpt><trkpt lat="41.46955553031301" lon="13.40143561072421"><ele>249.0</ele><time>2026-04-04T09:34:18Z</time></trkpt><trkpt lat="41.46936208319549" lon="13.40163566046256"><ele>252.0</ele><time>2026-04-04T09:34:19Z</time></trkpt><trkpt lat="41.4691695322058" lon="13.401835352511187"><ele>252.0</ele><time>2026-04-04T09:34:20Z</time></trkpt><trkpt lat="41.46897858410633" lon="13.402039316877914"><ele>252.0</ele><time>2026-04-04T09:34:21Z</time></trkpt><trkpt lat="41.468784511704435" lon="13.402242723949328"><ele>253.0</ele><time>2026-04-04T09:34:22Z</time></trkpt><trkpt lat="41.468593788173585" lon="13.402445894381389"><ele>254.0</ele><time>2026-04-04T09:34:23Z</time></trkpt><trkpt lat="41.46840508097592" lon="13.402647952762736"><ele>254.0</ele><time>2026-04-04T09:34:24Z</time></trkpt><trkpt lat="41.46821466381249" lon="13.40284393863916"><ele>254.0</ele><time>2026-04-04T09:34:25Z</time></trkpt><trkpt lat="41.4680347053687" lon="13.403031507153651"><ele>254.66666666666669</ele><time>2026-04-04T09:34:25.999Z</time></trkpt><trkpt lat="41.46786501919956" lon="13.40322125935603"><ele>255.33333333333331</ele><time>2026-04-04T09:34:26.999Z</time></trkpt><trkpt lat="41.467690136820906" lon="13.403401410954245"><ele>256.0</ele><time>2026-04-04T09:34:27.999Z</time></trkpt><trkpt lat="41.46750556239323" lon="13.403575442456777"><ele>256.0</ele><time>2026-04-04T09:34:28.999Z</time></trkpt><trkpt lat="41.4673202492947" lon="13.403750239301235"><ele>256.0</ele><time>2026-04-04T09:34:29.999Z</time></trkpt><trkpt lat="41.46714891334802" lon="13.403912971699496"><ele>256.0</ele><time>2026-04-04T09:34:30.999Z</time></trkpt><trkpt lat="41.46697383052742" lon="13.404080760263783"><ele>258.0</ele><time>2026-04-04T09:34:31.999Z</time></trkpt><trkpt lat="41.46679163553763" lon="13.404251899652195"><ele>260.0</ele><time>2026-04-04T09:34:32.999Z</time></trkpt><trkpt lat="41.46660578730623" lon="13.404426662276611"><ele>260.0</ele><time>2026-04-04T09:34:33.999Z</time></trkpt><trkpt lat="41.466420062921635" lon="13.404601778144409"><ele>260.0</ele><time>2026-04-04T09:34:34.999Z</time></trkpt><trkpt lat="41.466231025389334" lon="13.404778154267262"><ele>263.0</ele><time>2026-04-04T09:34:35.999Z</time></trkpt><trkpt lat="41.4660394599484" lon="13.4049592613681"><ele>266.0</ele><time>2026-04-04T09:34:36.999Z</time></trkpt><trkpt lat="41.46584908419487" lon="13.405140748014645"><ele>266.0</ele><time>2026-04-04T09:34:37.999Z</time></trkpt><trkpt lat="41.46567647220466" lon="13.405301248570513"><ele>266.0</ele><time>2026-04-04T09:34:38.999Z</time></trkpt><trkpt lat="41.465515477629154" lon="13.405448171288281"><ele>266.0</ele><time>2026-04-04T09:34:39.999Z</time></trkpt><trkpt lat="41.46538402554891" lon="13.40556522785728"><ele>266.6666666666667</ele><time>2026-04-04T09:34:40.999Z</time></trkpt><trkpt lat="41.4652707277345" lon="13.405701885991647"><ele>267.3333333333333</ele><time>2026-04-04T09:34:41.999Z</time></trkpt><trkpt lat="41.46520561828189" lon="13.405866020489128"><ele>268.0</ele><time>2026-04-04T09:34:42.999Z</time></trkpt><trkpt lat="41.46517323064741" lon="13.406075176225324"><ele>268.0</ele><time>2026-04-04T09:34:43.999Z</time></trkpt><trkpt lat="41.46516455970819" lon="13.406315653718561"><ele>268.0</ele><time>2026-04-04T09:34:44.999Z</time></trkpt><trkpt lat="41.46516000729031" lon="13.406563729710546"><ele>268.0</ele><time>2026-04-04T09:34:45.999Z</time></trkpt><trkpt lat="41.46514934564175" lon="13.40681676973121"><ele>270.0</ele><time>2026-04-04T09:34:46.999Z</time></trkpt><trkpt lat="41.465129941214485" lon="13.407041600679861"><ele>272.0</ele><time>2026-04-04T09:34:47.999Z</time></trkpt><trkpt lat="41.465089395907334" lon="13.407237405937904"><ele>274.0</ele><time>2026-04-04T09:34:48.999Z</time></trkpt><trkpt lat="41.465009039910136" lon="13.407421487721114"><ele>276.0</ele><time>2026-04-04T09:34:49.999Z</time></trkpt><trkpt lat="41.464895076873745" lon="13.407580113617582"><ele>278.0</ele><time>2026-04-04T09:34:50.999Z</time></trkpt><trkpt lat="41.46475168171028" lon="13.407696641226009"><ele>280.0</ele><time>2026-04-04T09:34:51.999Z</time></trkpt><trkpt lat="41.464588982789174" lon="13.407766652612283"><ele>280.0</ele><time>2026-04-04T09:34:52.999Z</time></trkpt><trkpt lat="41.46442334894628" lon="13.407777027501169"><ele>280.0</ele><time>2026-04-04T09:34:54Z</time></trkpt><trkpt lat="41.46425885366045" lon="13.407723429688737"><ele>280.0</ele><time>2026-04-04T09:34:55Z</time></trkpt><trkpt lat="41.46407399400961" lon="13.4076156952117"><ele>280.0</ele><time>2026-04-04T09:34:56Z</time></trkpt><trkpt lat="41.46386371356518" lon="13.407516313727633"><ele>280.0</ele><time>2026-04-04T09:34:57Z</time></trkpt><trkpt lat="41.46365224550813" lon="13.407426226317114"><ele>280.0</ele><time>2026-04-04T09:34:58Z</time></trkpt><trkpt lat="41.46343669949921" lon="13.407338147051519"><ele>281.3333333333333</ele><time>2026-04-04T09:34:59Z</time></trkpt><trkpt lat="41.46322852635927" lon="13.407292385667539"><ele>282.6666666666667</ele><time>2026-04-04T09:35:00Z</time></trkpt><trkpt lat="41.46305708103237" lon="13.407270868227208"><ele>284.0</ele><time>2026-04-04T09:35:01Z</time></trkpt><trkpt lat="41.46290609334761" lon="13.407272414732997"><ele>284.6666666666667</ele><time>2026-04-04T09:35:02Z</time></trkpt><trkpt lat="41.4627547298793" lon="13.407338576075965"><ele>285.3333333333333</ele><time>2026-04-04T09:35:03Z</time></trkpt><trkpt lat="41.462610333137576" lon="13.40746222094713"><ele>286.0</ele><time>2026-04-04T09:35:04Z</time></trkpt><trkpt lat="41.46245089079742" lon="13.407591746451834"><ele>286.0</ele><time>2026-04-04T09:35:05Z</time></trkpt><trkpt lat="41.46226495726592" lon="13.407653684247892"><ele>286.0</ele><time>2026-04-04T09:35:06Z</time></trkpt><trkpt lat="41.46207185459024" lon="13.407656688740495"><ele>286.0</ele><time>2026-04-04T09:35:07Z</time></trkpt><trkpt lat="41.461866413071995" lon="13.407642429509364"><ele>286.3333333333333</ele><time>2026-04-04T09:35:08Z</time></trkpt><trkpt lat="41.46167321590086" lon="13.407650346415785"><ele>286.6666666666667</ele><time>2026-04-04T09:35:09Z</time></trkpt><trkpt lat="41.46146809668318" lon="13.407653597728467"><ele>287.0</ele><time>2026-04-04T09:35:10Z</time></trkpt><trkpt lat="41.461270621066255" lon="13.407663134787496"><ele>287.0</ele><time>2026-04-04T09:35:11Z</time></trkpt><trkpt lat="41.461091711960464" lon="13.407678464366263"><ele>287.0</ele><time>2026-04-04T09:35:12Z</time></trkpt><trkpt lat="41.460916851916224" lon="13.407710624974689"><ele>287.0</ele><time>2026-04-04T09:35:13Z</time></trkpt><trkpt lat="41.46073979197963" lon="13.407781081071903"><ele>287.0</ele><time>2026-04-04T09:35:14Z</time></trkpt><trkpt lat="41.46057075928229" lon="13.40787255502091"><ele>287.0</ele><time>2026-04-04T09:35:15Z</time></trkpt><trkpt lat="41.46040252721605" lon="13.407981459877401"><ele>287.0</ele><time>2026-04-04T09:35:16Z</time></trkpt><trkpt lat="41.46024097824177" lon="13.408106759645673"><ele>289.6666666666667</ele><time>2026-04-04T09:35:17Z</time></trkpt><trkpt lat="41.4600990127061" lon="13.408230957399537"><ele>292.3333333333333</ele><time>2026-04-04T09:35:18Z</time></trkpt><trkpt lat="41.45998238354503" lon="13.40836612335007"><ele>295.0</ele><time>2026-04-04T09:35:19Z</time></trkpt><trkpt lat="41.45989141390295" lon="13.40852574785534"><ele>295.0</ele><time>2026-04-04T09:35:20Z</time></trkpt><trkpt lat="41.45982472750159" lon="13.408723480215562"><ele>295.0</ele><time>2026-04-04T09:35:21Z</time></trkpt><trkpt lat="41.45977040146983" lon="13.408925437767728"><ele>295.0</ele><time>2026-04-04T09:35:22Z</time></trkpt><trkpt lat="41.459711752092026" lon="13.409093830192116"><ele>295.75</ele><time>2026-04-04T09:35:23Z</time></trkpt><trkpt lat="41.459626123841495" lon="13.409222346424386"><ele>296.5</ele><time>2026-04-04T09:35:24Z</time></trkpt><trkpt lat="41.45949949658201" lon="13.409308604573027"><ele>297.25</ele><time>2026-04-04T09:35:25Z</time></trkpt><trkpt lat="41.45934566026928" lon="13.409333487542394"><ele>298.0</ele><time>2026-04-04T09:35:26Z</time></trkpt><trkpt lat="41.45916527474167" lon="13.409307780968042"><ele>298.0</ele><time>2026-04-04T09:35:27Z</time></trkpt><trkpt lat="41.45895243965006" lon="13.409248335805861"><ele>298.0</ele><time>2026-04-04T09:35:28Z</time></trkpt><trkpt lat="41.45874357641573" lon="13.409223642065937"><ele>298.0</ele><time>2026-04-04T09:35:29Z</time></trkpt><trkpt lat="41.458532733309816" lon="13.409203037591336"><ele>299.66666666666663</ele><time>2026-04-04T09:35:30Z</time></trkpt><trkpt lat="41.458337077891585" lon="13.409183256121056"><ele>301.3333333333333</ele><time>2026-04-04T09:35:31Z</time></trkpt><trkpt lat="41.45817100489957" lon="13.409154018593362"><ele>303.0</ele><time>2026-04-04T09:35:32Z</time></trkpt><trkpt lat="41.458040570740465" lon="13.40908349987633"><ele>303.5</ele><time>2026-04-04T09:35:33Z</time></trkpt><trkpt lat="41.45792850653608" lon="13.409009602182932"><ele>304.0</ele><time>2026-04-04T09:35:34Z</time></trkpt><trkpt lat="41.45786520089963" lon="13.40885883971539"><ele>304.5</ele><time>2026-04-04T09:35:35Z</time></trkpt><trkpt lat="41.457825300696" lon="13.408712767151124"><ele>305.0</ele><time>2026-04-04T09:35:36Z</time></trkpt><trkpt lat="41.457830772037006" lon="13.40853778016602"><ele>305.0</ele><time>2026-04-04T09:35:37Z</time></trkpt><trkpt lat="41.45781717300836" lon="13.408378280147387"><ele>305.0</ele><time>2026-04-04T09:35:38Z</time></trkpt><trkpt lat="41.457768151739785" lon="13.408241459403598"><ele>305.0</ele><time>2026-04-04T09:35:39Z</time></trkpt><trkpt lat="41.457668846189165" lon="13.408129599312431"><ele>305.0</ele><time>2026-04-04T09:35:40Z</time></trkpt><trkpt lat="41.457529788182455" lon="13.408061266047998"><ele>305.0</ele><time>2026-04-04T09:35:41Z</time></trkpt><trkpt lat="41.457351387884906" lon="13.408024291293842"><ele>305.0</ele><time>2026-04-04T09:35:42Z</time></trkpt><trkpt lat="41.45715209037432" lon="13.407968508675452"><ele>305.0</ele><time>2026-04-04T09:35:43Z</time></trkpt><trkpt lat="41.456946411895295" lon="13.407924403376375"><ele>304.33333333333337</ele><time>2026-04-04T09:35:44Z</time></trkpt><trkpt lat="41.45674719045324" lon="13.407880173967408"><ele>303.6666666666667</ele><time>2026-04-04T09:35:45Z</time></trkpt><trkpt lat="41.4565710108969" lon="13.407826137634133"><ele>303.0</ele><time>2026-04-04T09:35:46Z</time></trkpt><trkpt lat="41.45641846047891" lon="13.407731919396317"><ele>306.6666666666667</ele><time>2026-04-04T09:35:47Z</time></trkpt><trkpt lat="41.4562608981952" lon="13.407596071748925"><ele>310.33333333333337</ele><time>2026-04-04T09:35:48Z</time></trkpt><trkpt lat="41.456096426815925" lon="13.407459979692312"><ele>314.0</ele><time>2026-04-04T09:35:49Z</time></trkpt><trkpt lat="41.455932850595815" lon="13.407297117556679"><ele>310.0</ele><time>2026-04-04T09:35:50Z</time></trkpt><trkpt lat="41.4557771972511" lon="13.407158338866804"><ele>306.0</ele><time>2026-04-04T09:35:51Z</time></trkpt><trkpt lat="41.45565836186185" lon="13.40705431399615"><ele>302.0</ele><time>2026-04-04T09:35:52Z</time></trkpt><trkpt lat="41.45554354277333" lon="13.406990135564206"><ele>303.6666666666667</ele><time>2026-04-04T09:35:53Z</time></trkpt><trkpt lat="41.455393271021784" lon="13.406991571561175"><ele>305.3333333333333</ele><time>2026-04-04T09:35:54Z</time></trkpt><trkpt lat="41.45521823090989" lon="13.406998594461445"><ele>307.0</ele><time>2026-04-04T09:35:55Z</time></trkpt><trkpt lat="41.4550363562796" lon="13.407017034376317"><ele>307.0</ele><time>2026-04-04T09:35:56Z</time></trkpt><trkpt lat="41.454853706619666" lon="13.407035467020645"><ele>307.0</ele><time>2026-04-04T09:35:57Z</time></trkpt><trkpt lat="41.45468758733741" lon="13.407051560635114"><ele>307.0</ele><time>2026-04-04T09:35:58Z</time></trkpt><trkpt lat="41.45454964208638" lon="13.40706492472882"><ele>307.25</ele><time>2026-04-04T09:35:59Z</time></trkpt><trkpt lat="41.4544228269822" lon="13.407077210537823"><ele>307.5</ele><time>2026-04-04T09:36:00Z</time></trkpt><trkpt lat="41.454301406750716" lon="13.407088973691561"><ele>307.75</ele><time>2026-04-04T09:36:01Z</time></trkpt><trkpt lat="41.4541711858369" lon="13.40710158945383"><ele>308.0</ele><time>2026-04-04T09:36:02Z</time></trkpt><trkpt lat="41.454036865453254" lon="13.407113798014446"><ele>308.0</ele><time>2026-04-04T09:36:03Z</time></trkpt><trkpt lat="41.45390010525244" lon="13.407125277795823"><ele>308.0</ele><time>2026-04-04T09:36:04Z</time></trkpt><trkpt lat="41.45375632615535" lon="13.407136420548001"><ele>308.0</ele><time>2026-04-04T09:36:05Z</time></trkpt><trkpt lat="41.45360965220721" lon="13.407149049322442"><ele>308.0</ele><time>2026-04-04T09:36:06Z</time></trkpt><trkpt lat="41.4534646793939" lon="13.40716337506778"><ele>311.25</ele><time>2026-04-04T09:36:07Z</time></trkpt><trkpt lat="41.45332036707704" lon="13.407177572383254"><ele>314.5</ele><time>2026-04-04T09:36:08Z</time></trkpt><trkpt lat="41.45317753663241" lon="13.407189753679928"><ele>317.75</ele><time>2026-04-04T09:36:09Z</time></trkpt><trkpt lat="41.45303623079151" lon="13.407211931020539"><ele>321.0</ele><time>2026-04-04T09:36:10Z</time></trkpt><trkpt lat="41.452897583812046" lon="13.40724571772454"><ele>321.25</ele><time>2026-04-04T09:36:11Z</time></trkpt><trkpt lat="41.45276077848417" lon="13.407285817179947"><ele>321.5</ele><time>2026-04-04T09:36:12Z</time></trkpt><trkpt lat="41.452633499651085" lon="13.407364473695603"><ele>321.75</ele><time>2026-04-04T09:36:13Z</time></trkpt><trkpt lat="41.452505718604854" lon="13.407437581844018"><ele>322.0</ele><time>2026-04-04T09:36:14Z</time></trkpt><trkpt lat="41.452383893351026" lon="13.40751943625107"><ele>322.0</ele><time>2026-04-04T09:36:15Z</time></trkpt><trkpt lat="41.45225987796616" lon="13.40761121392357"><ele>322.0</ele><time>2026-04-04T09:36:16Z</time></trkpt><trkpt lat="41.452131856993574" lon="13.407704306082147"><ele>322.0</ele><time>2026-04-04T09:36:17Z</time></trkpt><trkpt lat="41.45200398435323" lon="13.40778805703669"><ele>322.0</ele><time>2026-04-04T09:36:18Z</time></trkpt><trkpt lat="41.45187920747615" lon="13.407885463538191"><ele>320.5</ele><time>2026-04-04T09:36:19Z</time></trkpt><trkpt lat="41.45175357197702" lon="13.407968414631558"><ele>319.0</ele><time>2026-04-04T09:36:20Z</time></trkpt><trkpt lat="41.451632814077946" lon="13.4080510165273"><ele>317.5</ele><time>2026-04-04T09:36:21Z</time></trkpt><trkpt lat="41.45151281314393" lon="13.40813512770488"><ele>316.0</ele><time>2026-04-04T09:36:22Z</time></trkpt><trkpt lat="41.45139258720513" lon="13.408214938191477"><ele>317.75</ele><time>2026-04-04T09:36:23Z</time></trkpt><trkpt lat="41.45127559057062" lon="13.408298161148766"><ele>319.5</ele><time>2026-04-04T09:36:24Z</time></trkpt><trkpt lat="41.45116543173006" lon="13.408391615816074"><ele>321.25</ele><time>2026-04-04T09:36:25Z</time></trkpt><trkpt lat="41.45107204992282" lon="13.408510571195139"><ele>323.0</ele><time>2026-04-04T09:36:25.999Z</time></trkpt><trkpt lat="41.45100616012349" lon="13.408665952637179"><ele>324.5</ele><time>2026-04-04T09:36:26.999Z</time></trkpt><trkpt lat="41.45096614216444" lon="13.408840959446636"><ele>326.0</ele><time>2026-04-04T09:36:27.999Z</time></trkpt><trkpt lat="41.45093924104521" lon="13.409022299438288"><ele>327.5</ele><time>2026-04-04T09:36:28.999Z</time></trkpt><trkpt lat="41.45090991865706" lon="13.409189472734408"><ele>329.0</ele><time>2026-04-04T09:36:29.999Z</time></trkpt><trkpt lat="41.45086519871245" lon="13.409330274035415"><ele>329.0</ele><time>2026-04-04T09:36:30.999Z</time></trkpt><trkpt lat="41.45079484569419" lon="13.409455976248385"><ele>329.0</ele><time>2026-04-04T09:36:31.999Z</time></trkpt><trkpt lat="41.450711307274695" lon="13.409545171643972"><ele>329.0</ele><time>2026-04-04T09:36:32.999Z</time></trkpt><trkpt lat="41.450622552505415" lon="13.409589798994793"><ele>329.0</ele><time>2026-04-04T09:36:33.999Z</time></trkpt><trkpt lat="41.45051929187595" lon="13.40960576650542"><ele>329.0</ele><time>2026-04-04T09:36:34.999Z</time></trkpt><trkpt lat="41.450403404619614" lon="13.40960918590977"><ele>329.0</ele><time>2026-04-04T09:36:35.999Z</time></trkpt><trkpt lat="41.450285993882105" lon="13.409612109186638"><ele>329.0</ele><time>2026-04-04T09:36:36.999Z</time></trkpt><trkpt lat="41.45015730462902" lon="13.409599266308552"><ele>329.0</ele><time>2026-04-04T09:36:37.999Z</time></trkpt><trkpt lat="41.45003175604952" lon="13.409553201801375"><ele>329.0</ele><time>2026-04-04T09:36:38.999Z</time></trkpt><trkpt lat="41.44991347552414" lon="13.40948672827572"><ele>329.0</ele><time>2026-04-04T09:36:39.999Z</time></trkpt><trkpt lat="41.44980303134647" lon="13.409399445917975"><ele>329.0</ele><time>2026-04-04T09:36:40.999Z</time></trkpt><trkpt lat="41.44970585419256" lon="13.40928143169928"><ele>329.0</ele><time>2026-04-04T09:36:41.999Z</time></trkpt><trkpt lat="41.44962450118856" lon="13.409147610234552"><ele>329.0</ele><time>2026-04-04T09:36:42.999Z</time></trkpt><trkpt lat="41.449537330146214" lon="13.409019233357348"><ele>328.5</ele><time>2026-04-04T09:36:43.999Z</time></trkpt><trkpt lat="41.44944330000752" lon="13.40889694654403"><ele>328.0</ele><time>2026-04-04T09:36:44.999Z</time></trkpt><trkpt lat="41.449333088261646" lon="13.408801575390447"><ele>327.5</ele><time>2026-04-04T09:36:45.999Z</time></trkpt><trkpt lat="41.44920822011798" lon="13.40873255073044"><ele>327.0</ele><time>2026-04-04T09:36:46.999Z</time></trkpt><trkpt lat="41.44907610244896" lon="13.408677298268902"><ele>327.0</ele><time>2026-04-04T09:36:47.999Z</time></trkpt><trkpt lat="41.448939205393145" lon="13.408633963429212"><ele>327.0</ele><time>2026-04-04T09:36:48.999Z</time></trkpt><trkpt lat="41.44879789578585" lon="13.408602489827137"><ele>327.0</ele><time>2026-04-04T09:36:49.999Z</time></trkpt><trkpt lat="41.448654653802095" lon="13.408569839204848"><ele>327.0</ele><time>2026-04-04T09:36:50.999Z</time></trkpt><trkpt lat="41.44850979617723" lon="13.40853735347885"><ele>329.25</ele><time>2026-04-04T09:36:51.999Z</time></trkpt><trkpt lat="41.448375538123535" lon="13.408505163252007"><ele>331.5</ele><time>2026-04-04T09:36:52.999Z</time></trkpt><trkpt lat="41.44825686374551" lon="13.4084751352569"><ele>333.75</ele><time>2026-04-04T09:36:53.999Z</time></trkpt><trkpt lat="41.44815218551472" lon="13.408450984969482"><ele>336.0</ele><time>2026-04-04T09:36:54.999Z</time></trkpt><trkpt lat="41.448051573909545" lon="13.408426674045616"><ele>337.4</ele><time>2026-04-04T09:36:55.999Z</time></trkpt><trkpt lat="41.447944542504274" lon="13.40839436082382"><ele>338.8</ele><time>2026-04-04T09:36:56.999Z</time></trkpt><trkpt lat="41.447855570607736" lon="13.408362038353024"><ele>340.2</ele><time>2026-04-04T09:36:57.999Z</time></trkpt><trkpt lat="41.447770106015085" lon="13.408307950677072"><ele>341.59999999999997</ele><time>2026-04-04T09:36:58.999Z</time></trkpt><trkpt lat="41.44768392639561" lon="13.408234893795584"><ele>343.0</ele><time>2026-04-04T09:37:00Z</time></trkpt><trkpt lat="41.44760498555642" lon="13.408152250481335"><ele>343.0</ele><time>2026-04-04T09:37:01Z</time></trkpt><trkpt lat="41.44754832890416" lon="13.40803183616486"><ele>343.0</ele><time>2026-04-04T09:37:02Z</time></trkpt><trkpt lat="41.447506105778906" lon="13.407897264386095"><ele>343.0</ele><time>2026-04-04T09:37:03Z</time></trkpt><trkpt lat="41.44746167744161" lon="13.407759987828694"><ele>343.0</ele><time>2026-04-04T09:37:04Z</time></trkpt><trkpt lat="41.44741168361993" lon="13.407624293656076"><ele>343.0</ele><time>2026-04-04T09:37:05Z</time></trkpt><trkpt lat="41.447345103057614" lon="13.407501032380777"><ele>342.2</ele><time>2026-04-04T09:37:06Z</time></trkpt><trkpt lat="41.447263609907495" lon="13.407410717311855"><ele>341.4</ele><time>2026-04-04T09:37:07Z</time></trkpt><trkpt lat="41.44717196658819" lon="13.407337259258021"><ele>340.59999999999997</ele><time>2026-04-04T09:37:08Z</time></trkpt><trkpt lat="41.44708574355906" lon="13.407248744136023"><ele>339.79999999999995</ele><time>2026-04-04T09:37:09Z</time></trkpt><trkpt lat="41.44699154171606" lon="13.407182116776813"><ele>339.0</ele><time>2026-04-04T09:37:10Z</time></trkpt><trkpt lat="41.44690078378874" lon="13.407117912315094"><ele>339.0</ele><time>2026-04-04T09:37:11Z</time></trkpt><trkpt lat="41.44681073124115" lon="13.407054020745177"><ele>339.0</ele><time>2026-04-04T09:37:12Z</time></trkpt><trkpt lat="41.44671657030181" lon="13.406987214305378"><ele>339.0</ele><time>2026-04-04T09:37:13Z</time></trkpt><trkpt lat="41.44662231354745" lon="13.4069203398774"><ele>339.0</ele><time>2026-04-04T09:37:14Z</time></trkpt><trkpt lat="41.44652438994264" lon="13.406849804172674"><ele>339.0</ele><time>2026-04-04T09:37:15Z</time></trkpt><trkpt lat="41.44642910909497" lon="13.406780244241846"><ele>339.0</ele><time>2026-04-04T09:37:16Z</time></trkpt><trkpt lat="41.44633924055785" lon="13.406712383291412"><ele>339.0</ele><time>2026-04-04T09:37:17Z</time></trkpt><trkpt lat="41.44625485216961" lon="13.40664063568887"><ele>339.0</ele><time>2026-04-04T09:37:18Z</time></trkpt><trkpt lat="41.44618056785461" lon="13.406572032597586"><ele>339.0</ele><time>2026-04-04T09:37:19Z</time></trkpt><trkpt lat="41.44611483365518" lon="13.406508689303347"><ele>339.0</ele><time>2026-04-04T09:37:20Z</time></trkpt><trkpt lat="41.44606881021276" lon="13.406399688787491"><ele>342.79999999999995</ele><time>2026-04-04T09:37:21Z</time></trkpt><trkpt lat="41.4460349712553" lon="13.406279461074607"><ele>346.59999999999997</ele><time>2026-04-04T09:37:22Z</time></trkpt><trkpt lat="41.4460109495845" lon="13.406151751823545"><ele>350.4</ele><time>2026-04-04T09:37:23Z</time></trkpt><trkpt lat="41.446002497904786" lon="13.406023138532356"><ele>354.2</ele><time>2026-04-04T09:37:24Z</time></trkpt><trkpt lat="41.44600467557539" lon="13.405913997315286"><ele>358.0</ele><time>2026-04-04T09:37:25Z</time></trkpt><trkpt lat="41.4460037321563" lon="13.405807176767453"><ele>358.0</ele><time>2026-04-04T09:37:26Z</time></trkpt><trkpt lat="41.445995971030136" lon="13.4057059876621"><ele>358.0</ele><time>2026-04-04T09:37:27Z</time></trkpt><trkpt lat="41.445996727678704" lon="13.405607119850332"><ele>358.0</ele><time>2026-04-04T09:37:28Z</time></trkpt><trkpt lat="41.44597388787683" lon="13.405516787788853"><ele>358.0</ele><time>2026-04-04T09:37:29Z</time></trkpt><trkpt lat="41.44595078987739" lon="13.405419764807938"><ele>358.0</ele><time>2026-04-04T09:37:30Z</time></trkpt><trkpt lat="41.44599753145708" lon="13.405289154886024"><ele>358.0</ele><time>2026-04-04T09:37:31Z</time></trkpt><trkpt lat="41.445994168315806" lon="13.405171990722145"><ele>358.16666666666663</ele><time>2026-04-04T09:37:32Z</time></trkpt><trkpt lat="41.44598866170089" lon="13.405050069661556"><ele>358.3333333333333</ele><time>2026-04-04T09:37:33Z</time></trkpt><trkpt lat="41.44598418147562" lon="13.404927201120719"><ele>358.5</ele><time>2026-04-04T09:37:34Z</time></trkpt><trkpt lat="41.44598071559499" lon="13.404801666030492"><ele>358.6666666666667</ele><time>2026-04-04T09:37:35Z</time></trkpt><trkpt lat="41.4459783005419" lon="13.404684235459289"><ele>358.83333333333337</ele><time>2026-04-04T09:37:36Z</time></trkpt><trkpt lat="41.44597483764616" lon="13.404586872279916"><ele>359.0</ele><time>2026-04-04T09:37:37Z</time></trkpt><trkpt lat="41.44597326502029" lon="13.404490465725619"><ele>359.1666666666667</ele><time>2026-04-04T09:37:38Z</time></trkpt><trkpt lat="41.44597162902828" lon="13.404385902811901"><ele>359.33333333333337</ele><time>2026-04-04T09:37:39Z</time></trkpt><trkpt lat="41.44597214383624" lon="13.404273930194483"><ele>359.5</ele><time>2026-04-04T09:37:40Z</time></trkpt><trkpt lat="41.44597516602727" lon="13.404151634119808"><ele>359.6666666666667</ele><time>2026-04-04T09:37:41Z</time></trkpt><trkpt lat="41.44598740470797" lon="13.40402887793594"><ele>359.8333333333333</ele><time>2026-04-04T09:37:42Z</time></trkpt><trkpt lat="41.446014746163165" lon="13.40391369385382"><ele>360.0</ele><time>2026-04-04T09:37:43Z</time></trkpt><trkpt lat="41.44607149484697" lon="13.403805348200052"><ele>360.0</ele><time>2026-04-04T09:37:44Z</time></trkpt><trkpt lat="41.446133371569964" lon="13.403690300261557"><ele>360.0</ele><time>2026-04-04T09:37:45Z</time></trkpt><trkpt lat="41.44617777765127" lon="13.403576099587628"><ele>360.0</ele><time>2026-04-04T09:37:46Z</time></trkpt><trkpt lat="41.44621297360864" lon="13.403478086183352"><ele>360.0</ele><time>2026-04-04T09:37:47Z</time></trkpt><trkpt lat="41.446217833390655" lon="13.403382938134081"><ele>360.0</ele><time>2026-04-04T09:37:48Z</time></trkpt><trkpt lat="41.446203133702625" lon="13.40323255112782"><ele>360.0</ele><time>2026-04-04T09:37:50Z</time></trkpt><trkpt lat="41.44615446932395" lon="13.403093236663315"><ele>360.0</ele><time>2026-04-04T09:37:52Z</time></trkpt><trkpt lat="41.44607196833327" lon="13.402994568097824"><ele>360.0</ele><time>2026-04-04T09:37:54Z</time></trkpt><trkpt lat="41.44596589186677" lon="13.402903344801834"><ele>360.0</ele><time>2026-04-04T09:37:56Z</time></trkpt><trkpt lat="41.4459033837207" lon="13.402857779357255"><ele>360.0</ele><time>2026-04-04T09:37:57Z</time></trkpt><trkpt lat="41.44582918430343" lon="13.402828461886742"><ele>357.8333333333333</ele><time>2026-04-04T09:37:58Z</time></trkpt><trkpt lat="41.44574827212981" lon="13.402776346776633"><ele>355.6666666666667</ele><time>2026-04-04T09:37:59Z</time></trkpt><trkpt lat="41.44566252067338" lon="13.40276225287687"><ele>353.5</ele><time>2026-04-04T09:38:00Z</time></trkpt><trkpt lat="41.44558633543653" lon="13.402763606869355"><ele>351.33333333333337</ele><time>2026-04-04T09:38:01Z</time></trkpt><trkpt lat="41.44551931792773" lon="13.402775763875875"><ele>349.1666666666667</ele><time>2026-04-04T09:38:02Z</time></trkpt><trkpt lat="41.44541733994929" lon="13.402809505598865"><ele>347.0</ele><time>2026-04-04T09:38:04Z</time></trkpt><trkpt lat="41.445344843632796" lon="13.402870183997532"><ele>345.83333333333337</ele><time>2026-04-04T09:38:06Z</time></trkpt><trkpt lat="41.445284275772664" lon="13.402844289046334"><ele>344.6666666666667</ele><time>2026-04-04T09:38:56.999Z</time></trkpt><trkpt lat="41.44522402861148" lon="13.402872322139427"><ele>343.5</ele><time>2026-04-04T09:39:21Z</time></trkpt><trkpt lat="41.445168322344934" lon="13.402957564527647"><ele>342.3333333333333</ele><time>2026-04-04T09:44:06Z</time></trkpt><trkpt lat="41.44507982514855" lon="13.403054716058303"><ele>341.16666666666663</ele><time>2026-04-04T10:01:57.999Z</time></trkpt><trkpt lat="41.44502320170096" lon="13.403105296011974"><ele>340.0</ele><time>2026-04-04T10:01:58.999Z</time></trkpt><trkpt lat="41.44497577012462" lon="13.40316482140553"><ele>344.4</ele><time>2026-04-04T10:01:59.999Z</time></trkpt><trkpt lat="41.44488244583416" lon="13.403258684011595"><ele>348.8</ele><time>2026-04-04T10:02:01.999Z</time></trkpt><trkpt lat="41.444823179664326" lon="13.403355603268594"><ele>353.20000000000005</ele><time>2026-04-04T10:02:03.999Z</time></trkpt><trkpt lat="41.44476471352253" lon="13.403440386112704"><ele>357.6</ele><time>2026-04-04T10:02:05.999Z</time></trkpt><trkpt lat="41.44475963960014" lon="13.40358281203874"><ele>362.0</ele><time>2026-04-04T10:02:07.999Z</time></trkpt><trkpt lat="41.44474426963847" lon="13.403682002158847"><ele>362.0</ele><time>2026-04-04T10:02:08.999Z</time></trkpt><trkpt lat="41.444694073657" lon="13.403787290193003"><ele>362.0</ele><time>2026-04-04T10:02:10Z</time></trkpt><trkpt lat="41.444636581628934" lon="13.40388369288744"><ele>362.0</ele><time>2026-04-04T10:02:11Z</time></trkpt><trkpt lat="41.44455929601075" lon="13.403922466240946"><ele>362.0</ele><time>2026-04-04T10:02:12Z</time></trkpt><trkpt lat="41.44449385697208" lon="13.403952588823522"><ele>362.0</ele><time>2026-04-04T10:02:13Z</time></trkpt><trkpt lat="41.44437933458194" lon="13.404034003076243"><ele>361.5</ele><time>2026-04-04T10:02:15Z</time></trkpt><trkpt lat="41.444318112654685" lon="13.404090920207864"><ele>361.0</ele><time>2026-04-04T10:02:16Z</time></trkpt><trkpt lat="41.44427633206847" lon="13.40417693383788"><ele>360.5</ele><time>2026-04-04T10:02:17Z</time></trkpt><trkpt lat="41.44422558892157" lon="13.404242746694564"><ele>360.0</ele><time>2026-04-04T10:02:18Z</time></trkpt><trkpt lat="41.444189473842556" lon="13.4043379857783"><ele>359.5</ele><time>2026-04-04T10:02:19Z</time></trkpt><trkpt lat="41.444161072264066" lon="13.404446001115772"><ele>359.0</ele><time>2026-04-04T10:02:20Z</time></trkpt><trkpt lat="41.444134394528575" lon="13.404537149096505"><ele>359.0</ele><time>2026-04-04T10:02:21Z</time></trkpt><trkpt lat="41.44411180563411" lon="13.404636631486245"><ele>359.0</ele><time>2026-04-04T10:02:22Z</time></trkpt><trkpt lat="41.44408928934339" lon="13.404728823507936"><ele>359.0</ele><time>2026-04-04T10:02:23Z</time></trkpt><trkpt lat="41.44406771951259" lon="13.404825371814598"><ele>359.0</ele><time>2026-04-04T10:02:24Z</time></trkpt><trkpt lat="41.44405113682968" lon="13.404924681272103"><ele>359.0</ele><time>2026-04-04T10:02:25Z</time></trkpt><trkpt lat="41.44402995802326" lon="13.405021286384708"><ele>359.0</ele><time>2026-04-04T10:02:26Z</time></trkpt><trkpt lat="41.44401353570063" lon="13.405126234124234"><ele>361.2</ele><time>2026-04-04T10:02:27Z</time></trkpt><trkpt lat="41.44398887277287" lon="13.405236171731042"><ele>363.4</ele><time>2026-04-04T10:02:28Z</time></trkpt><trkpt lat="41.44396142866938" lon="13.405358368567702"><ele>365.6</ele><time>2026-04-04T10:02:29Z</time></trkpt><trkpt lat="41.44393916608898" lon="13.405488433643166"><ele>367.8</ele><time>2026-04-04T10:02:30Z</time></trkpt><trkpt lat="41.44390830949841" lon="13.405627417603004"><ele>370.0</ele><time>2026-04-04T10:02:31Z</time></trkpt><trkpt lat="41.443878208441994" lon="13.405766316936027"><ele>370.8</ele><time>2026-04-04T10:02:32Z</time></trkpt><trkpt lat="41.44385040816365" lon="13.405878769131135"><ele>371.6</ele><time>2026-04-04T10:02:33Z</time></trkpt><trkpt lat="41.44380810326359" lon="13.405966261945164"><ele>372.4</ele><time>2026-04-04T10:02:34Z</time></trkpt><trkpt lat="41.44373841351624" lon="13.406040046279315"><ele>373.2</ele><time>2026-04-04T10:02:35Z</time></trkpt><trkpt lat="41.443677268424864" lon="13.406143312409363"><ele>374.0</ele><time>2026-04-04T10:02:36Z</time></trkpt><trkpt lat="41.443598174125135" lon="13.406224045323663"><ele>373.6</ele><time>2026-04-04T10:02:37Z</time></trkpt><trkpt lat="41.443516630644865" lon="13.406294232638073"><ele>373.2</ele><time>2026-04-04T10:02:38Z</time></trkpt><trkpt lat="41.44343690291172" lon="13.406370289144423"><ele>372.8</ele><time>2026-04-04T10:02:39Z</time></trkpt><trkpt lat="41.44335634874087" lon="13.406436405418706"><ele>372.40000000000003</ele><time>2026-04-04T10:02:40Z</time></trkpt><trkpt lat="41.44327109478412" lon="13.4064987856953"><ele>372.0</ele><time>2026-04-04T10:02:41Z</time></trkpt><trkpt lat="41.443171778980805" lon="13.406555668449823"><ele>372.0</ele><time>2026-04-04T10:02:42Z</time></trkpt><trkpt lat="41.443071130485855" lon="13.406605209188674"><ele>372.0</ele><time>2026-04-04T10:02:43Z</time></trkpt><trkpt lat="41.442974213953825" lon="13.406648470879507"><ele>372.0</ele><time>2026-04-04T10:02:44Z</time></trkpt><trkpt lat="41.44286968765104" lon="13.406652608425524"><ele>372.0</ele><time>2026-04-04T10:02:45Z</time></trkpt><trkpt lat="41.44276508080984" lon="13.406652418783416"><ele>372.0</ele><time>2026-04-04T10:02:46Z</time></trkpt><trkpt lat="41.44264871293464" lon="13.406647627299913"><ele>370.75</ele><time>2026-04-04T10:02:47Z</time></trkpt><trkpt lat="41.44253562492223" lon="13.406637378219532"><ele>369.5</ele><time>2026-04-04T10:02:48Z</time></trkpt><trkpt lat="41.442424141148386" lon="13.406626314711216"><ele>368.25</ele><time>2026-04-04T10:02:48.999Z</time></trkpt><trkpt lat="41.44230375183923" lon="13.40661416789605"><ele>367.0</ele><time>2026-04-04T10:02:49.999Z</time></trkpt><trkpt lat="41.44217932446703" lon="13.406601613634935"><ele>366.40000000000003</ele><time>2026-04-04T10:02:50.999Z</time></trkpt><trkpt lat="41.442065752453274" lon="13.406590609995462"><ele>365.8</ele><time>2026-04-04T10:02:51.999Z</time></trkpt><trkpt lat="41.44195626887442" lon="13.406580053323243"><ele>365.2</ele><time>2026-04-04T10:02:52.999Z</time></trkpt><trkpt lat="41.441849997424924" lon="13.406569806390406"><ele>364.6</ele><time>2026-04-04T10:02:53.999Z</time></trkpt><trkpt lat="41.44173710460758" lon="13.406578249910034"><ele>364.0</ele><time>2026-04-04T10:02:54.999Z</time></trkpt><trkpt lat="41.44162554249185" lon="13.406565180521376"><ele>364.0</ele><time>2026-04-04T10:02:55.999Z</time></trkpt><trkpt lat="41.44151081286673" lon="13.406559375621159"><ele>364.0</ele><time>2026-04-04T10:02:56.999Z</time></trkpt><trkpt lat="41.44139588576481" lon="13.406555733181476"><ele>364.0</ele><time>2026-04-04T10:02:57.999Z</time></trkpt><trkpt lat="41.441280431885936" lon="13.406571950304048"><ele>364.0</ele><time>2026-04-04T10:02:58.999Z</time></trkpt><trkpt lat="41.44117033244999" lon="13.406598862729147"><ele>361.25</ele><time>2026-04-04T10:02:59.999Z</time></trkpt><trkpt lat="41.44106175331023" lon="13.40663770617443"><ele>358.5</ele><time>2026-04-04T10:03:00.999Z</time></trkpt><trkpt lat="41.44094540172667" lon="13.406688996233985"><ele>355.75</ele><time>2026-04-04T10:03:01.999Z</time></trkpt><trkpt lat="41.440830795931376" lon="13.406748396615823"><ele>353.0</ele><time>2026-04-04T10:03:02.999Z</time></trkpt><trkpt lat="41.44072312239445" lon="13.406806921536537"><ele>353.0</ele><time>2026-04-04T10:03:03.999Z</time></trkpt><trkpt lat="41.440613314112376" lon="13.406863724220843"><ele>353.0</ele><time>2026-04-04T10:03:04.999Z</time></trkpt><trkpt lat="41.440503406708075" lon="13.406920362299699"><ele>353.0</ele><time>2026-04-04T10:03:05.999Z</time></trkpt><trkpt lat="41.44039320918306" lon="13.406981648326855"><ele>353.0</ele><time>2026-04-04T10:03:06.999Z</time></trkpt><trkpt lat="41.44027769319096" lon="13.407052794946338"><ele>356.0</ele><time>2026-04-04T10:03:07.999Z</time></trkpt><trkpt lat="41.44015449583689" lon="13.40713633931303"><ele>359.0</ele><time>2026-04-04T10:03:08.999Z</time></trkpt><trkpt lat="41.44002793420887" lon="13.407213402887887"><ele>362.0</ele><time>2026-04-04T10:03:09.999Z</time></trkpt><trkpt lat="41.43990847278398" lon="13.407292936161053"><ele>365.0</ele><time>2026-04-04T10:03:10.999Z</time></trkpt><trkpt lat="41.43979212585191" lon="13.407375794951166"><ele>365.0</ele><time>2026-04-04T10:03:11.999Z</time></trkpt><trkpt lat="41.43968236583119" lon="13.407456011079363"><ele>365.0</ele><time>2026-04-04T10:03:12.999Z</time></trkpt><trkpt lat="41.4395780314546" lon="13.407533209125704"><ele>365.0</ele><time>2026-04-04T10:03:13.999Z</time></trkpt><trkpt lat="41.43946854861166" lon="13.407618659837901"><ele>365.0</ele><time>2026-04-04T10:03:14.999Z</time></trkpt><trkpt lat="41.43935206849424" lon="13.407728549040039"><ele>367.0</ele><time>2026-04-04T10:03:15.999Z</time></trkpt><trkpt lat="41.439211555447166" lon="13.407861961242077"><ele>369.0</ele><time>2026-04-04T10:03:16.999Z</time></trkpt><trkpt lat="41.439055032087516" lon="13.407992127830216"><ele>371.0</ele><time>2026-04-04T10:03:17.999Z</time></trkpt><trkpt lat="41.43891330557197" lon="13.408132773791406"><ele>361.0</ele><time>2026-04-04T10:03:18.999Z</time></trkpt><trkpt lat="41.438790773027655" lon="13.40828873968203"><ele>351.0</ele><time>2026-04-04T10:03:19.999Z</time></trkpt><trkpt lat="41.43869111670742" lon="13.408450920272179"><ele>341.0</ele><time>2026-04-04T10:03:20.999Z</time></trkpt><trkpt lat="41.43860437043492" lon="13.408641495061214"><ele>344.33333333333337</ele><time>2026-04-04T10:03:21.999Z</time></trkpt><trkpt lat="41.438537036774804" lon="13.408855782619286"><ele>347.6666666666667</ele><time>2026-04-04T10:03:22.999Z</time></trkpt><trkpt lat="41.4384956875233" lon="13.409094831859658"><ele>351.0</ele><time>2026-04-04T10:03:23.999Z</time></trkpt><trkpt lat="41.4384629546062" lon="13.409336935636018"><ele>351.0</ele><time>2026-04-04T10:03:24.999Z</time></trkpt><trkpt lat="41.438443479495184" lon="13.40958984368035"><ele>351.0</ele><time>2026-04-04T10:03:25.999Z</time></trkpt><trkpt lat="41.43843728769575" lon="13.409840264107885"><ele>351.0</ele><time>2026-04-04T10:03:26.999Z</time></trkpt><trkpt lat="41.43843306851203" lon="13.410102899009726"><ele>353.3333333333333</ele><time>2026-04-04T10:03:27.999Z</time></trkpt><trkpt lat="41.43842592218631" lon="13.410371472557662"><ele>355.66666666666663</ele><time>2026-04-04T10:03:28.999Z</time></trkpt><trkpt lat="41.43842367119734" lon="13.410647132574683"><ele>358.0</ele><time>2026-04-04T10:03:29.999Z</time></trkpt><trkpt lat="41.43842516865029" lon="13.41092950142837"><ele>358.0</ele><time>2026-04-04T10:03:30.999Z</time></trkpt><trkpt lat="41.43842922018771" lon="13.41121392004545"><ele>358.0</ele><time>2026-04-04T10:03:31.999Z</time></trkpt><trkpt lat="41.438434639865164" lon="13.411502191632112"><ele>358.0</ele><time>2026-04-04T10:03:32.999Z</time></trkpt><trkpt lat="41.43844046645375" lon="13.411787502016525"><ele>359.0</ele><time>2026-04-04T10:03:33.999Z</time></trkpt><trkpt lat="41.43844796415196" lon="13.412073798854951"><ele>360.0</ele><time>2026-04-04T10:03:34.999Z</time></trkpt><trkpt lat="41.43844716008375" lon="13.412344525136822"><ele>361.0</ele><time>2026-04-04T10:03:35.999Z</time></trkpt><trkpt lat="41.438441620293304" lon="13.412584548694232"><ele>362.3333333333333</ele><time>2026-04-04T10:03:36.999Z</time></trkpt><trkpt lat="41.43843332020921" lon="13.412803909756233"><ele>363.6666666666667</ele><time>2026-04-04T10:03:37.999Z</time></trkpt><trkpt lat="41.438420511774034" lon="13.413001200589473"><ele>365.0</ele><time>2026-04-04T10:03:38.999Z</time></trkpt><trkpt lat="41.43839440868629" lon="13.413194578232916"><ele>367.0</ele><time>2026-04-04T10:03:39.999Z</time></trkpt><trkpt lat="41.438342864068744" lon="13.41335993852947"><ele>369.0</ele><time>2026-04-04T10:03:40.999Z</time></trkpt><trkpt lat="41.43827004676095" lon="13.413498489497012"><ele>371.0</ele><time>2026-04-04T10:03:41.999Z</time></trkpt><trkpt lat="41.4381653793794" lon="13.41361819658102"><ele>373.0</ele><time>2026-04-04T10:03:42.999Z</time></trkpt><trkpt lat="41.4380452082813" lon="13.41371096006597"><ele>371.0</ele><time>2026-04-04T10:03:43.999Z</time></trkpt><trkpt lat="41.43790679170766" lon="13.413756960056851"><ele>369.0</ele><time>2026-04-04T10:03:44.999Z</time></trkpt><trkpt lat="41.43775427911313" lon="13.413737324128416"><ele>367.0</ele><time>2026-04-04T10:03:45.999Z</time></trkpt><trkpt lat="41.43759268899077" lon="13.413741577282304"><ele>367.0</ele><time>2026-04-04T10:03:46.999Z</time></trkpt><trkpt lat="41.43742173757179" lon="13.413723940503527"><ele>367.0</ele><time>2026-04-04T10:03:47.999Z</time></trkpt><trkpt lat="41.43724295743493" lon="13.41374534205079"><ele>367.0</ele><time>2026-04-04T10:03:48.999Z</time></trkpt><trkpt lat="41.43707645203" lon="13.413811319189755"><ele>368.0</ele><time>2026-04-04T10:03:49.999Z</time></trkpt><trkpt lat="41.43693946609724" lon="13.413927540843343"><ele>369.0</ele><time>2026-04-04T10:03:50.999Z</time></trkpt><trkpt lat="41.43681623887504" lon="13.414080850610723"><ele>370.0</ele><time>2026-04-04T10:03:51.999Z</time></trkpt><trkpt lat="41.43669819394705" lon="13.414262893133435"><ele>370.0</ele><time>2026-04-04T10:03:52.999Z</time></trkpt><trkpt lat="41.43658171840053" lon="13.414459754642927"><ele>370.0</ele><time>2026-04-04T10:03:53.999Z</time></trkpt><trkpt lat="41.43648241001378" lon="13.414674211162055"><ele>370.0</ele><time>2026-04-04T10:03:54.999Z</time></trkpt><trkpt lat="41.43640797228789" lon="13.41488173957542"><ele>368.0</ele><time>2026-04-04T10:03:55.999Z</time></trkpt><trkpt lat="41.436354122518004" lon="13.415071634672532"><ele>366.0</ele><time>2026-04-04T10:03:56.999Z</time></trkpt><trkpt lat="41.43628403181864" lon="13.415240061163882"><ele>364.0</ele><time>2026-04-04T10:03:57.999Z</time></trkpt><trkpt lat="41.436184540613446" lon="13.41540113299734"><ele>369.0</ele><time>2026-04-04T10:03:58.999Z</time></trkpt><trkpt lat="41.436054959701146" lon="13.415541457384954"><ele>374.0</ele><time>2026-04-04T10:03:59.999Z</time></trkpt><trkpt lat="41.43591223064094" lon="13.41566342204579"><ele>379.0</ele><time>2026-04-04T10:04:00.999Z</time></trkpt><trkpt lat="41.4357523598089" lon="13.415756743798969"><ele>379.0</ele><time>2026-04-04T10:04:01.999Z</time></trkpt><trkpt lat="41.43557909651172" lon="13.41579353258124"><ele>379.0</ele><time>2026-04-04T10:04:02.999Z</time></trkpt><trkpt lat="41.43539785825225" lon="13.415822791652438"><ele>379.0</ele><time>2026-04-04T10:04:03.999Z</time></trkpt><trkpt lat="41.435204544325686" lon="13.415838813748756"><ele>377.0</ele><time>2026-04-04T10:04:04.999Z</time></trkpt><trkpt lat="41.4349961606834" lon="13.415883123062363"><ele>375.0</ele><time>2026-04-04T10:04:05.999Z</time></trkpt><trkpt lat="41.4347704052508" lon="13.415946217777114"><ele>373.0</ele><time>2026-04-04T10:04:06.999Z</time></trkpt><trkpt lat="41.434517343142346" lon="13.416019871672097"><ele>370.0</ele><time>2026-04-04T10:04:07.999Z</time></trkpt><trkpt lat="41.43425449317283" lon="13.416101958590318"><ele>367.0</ele><time>2026-04-04T10:04:08.999Z</time></trkpt><trkpt lat="41.43402568265486" lon="13.41617091316667"><ele>367.0</ele><time>2026-04-04T10:04:09.999Z</time></trkpt><trkpt lat="41.43382044964246" lon="13.416234077350344"><ele>367.0</ele><time>2026-04-04T10:04:10.999Z</time></trkpt><trkpt lat="41.433635498233095" lon="13.416293830557352"><ele>367.0</ele><time>2026-04-04T10:04:11.999Z</time></trkpt><trkpt lat="41.43346753588584" lon="13.416365760686709"><ele>371.3333333333333</ele><time>2026-04-04T10:04:12.999Z</time></trkpt><trkpt lat="41.43330667989955" lon="13.416482873763735"><ele>375.6666666666667</ele><time>2026-04-04T10:04:13.999Z</time></trkpt><trkpt lat="41.43315547489973" lon="13.4166366343657"><ele>380.0</ele><time>2026-04-04T10:04:14.999Z</time></trkpt><trkpt lat="41.43302153954897" lon="13.416817459201884"><ele>375.33333333333337</ele><time>2026-04-04T10:04:16Z</time></trkpt><trkpt lat="41.43291143563283" lon="13.41703126501687"><ele>370.6666666666667</ele><time>2026-04-04T10:04:17Z</time></trkpt><trkpt lat="41.432826147806644" lon="13.417270119966743"><ele>366.0</ele><time>2026-04-04T10:04:18Z</time></trkpt><trkpt lat="41.432755302277315" lon="13.417514152466167"><ele>366.0</ele><time>2026-04-04T10:04:19Z</time></trkpt><trkpt lat="41.432705312140094" lon="13.41777095233019"><ele>366.0</ele><time>2026-04-04T10:04:20Z</time></trkpt><trkpt lat="41.43265866625563" lon="13.418024706973732"><ele>366.0</ele><time>2026-04-04T10:04:21Z</time></trkpt><trkpt lat="41.432598227801584" lon="13.418277329658531"><ele>371.0</ele><time>2026-04-04T10:04:22Z</time></trkpt><trkpt lat="41.4325380687381" lon="13.41853218539958"><ele>376.0</ele><time>2026-04-04T10:04:23Z</time></trkpt><trkpt lat="41.43245487013075" lon="13.41877698219606"><ele>381.0</ele><time>2026-04-04T10:04:24Z</time></trkpt><trkpt lat="41.43235161577601" lon="13.419002110817258"><ele>378.0</ele><time>2026-04-04T10:04:25Z</time></trkpt><trkpt lat="41.43224961064247" lon="13.419212647263707"><ele>375.0</ele><time>2026-04-04T10:04:26Z</time></trkpt><trkpt lat="41.43214727334314" lon="13.419424577304081"><ele>372.0</ele><time>2026-04-04T10:04:27Z</time></trkpt><trkpt lat="41.43203833052509" lon="13.419628221214214"><ele>377.0</ele><time>2026-04-04T10:04:28Z</time></trkpt><trkpt lat="41.431929956347595" lon="13.41983513264288"><ele>382.0</ele><time>2026-04-04T10:04:29Z</time></trkpt><trkpt lat="41.43183342715316" lon="13.420029795082074"><ele>387.0</ele><time>2026-04-04T10:04:30Z</time></trkpt><trkpt lat="41.43172293527242" lon="13.420218911357324"><ele>387.0</ele><time>2026-04-04T10:04:31Z</time></trkpt><trkpt lat="41.43159090868472" lon="13.420387974907355"><ele>387.0</ele><time>2026-04-04T10:04:32Z</time></trkpt><trkpt lat="41.4314533188498" lon="13.420551854474303"><ele>387.0</ele><time>2026-04-04T10:04:33Z</time></trkpt><trkpt lat="41.43130244761246" lon="13.420705866437405"><ele>387.33333333333337</ele><time>2026-04-04T10:04:34Z</time></trkpt><trkpt lat="41.43115124557959" lon="13.420868490831687"><ele>387.6666666666667</ele><time>2026-04-04T10:04:35Z</time></trkpt><trkpt lat="41.43099775281" lon="13.42103807228805"><ele>388.0</ele><time>2026-04-04T10:04:36Z</time></trkpt><trkpt lat="41.43084314538534" lon="13.421208897666304"><ele>389.33333333333337</ele><time>2026-04-04T10:04:37Z</time></trkpt><trkpt lat="41.43069655018115" lon="13.42137212427284"><ele>390.66666666666663</ele><time>2026-04-04T10:04:38Z</time></trkpt><trkpt lat="41.43056360610831" lon="13.421518581382747"><ele>392.0</ele><time>2026-04-04T10:04:39Z</time></trkpt><trkpt lat="41.43043097607511" lon="13.42165979073351"><ele>392.0</ele><time>2026-04-04T10:04:40Z</time></trkpt><trkpt lat="41.43030480074931" lon="13.421794739033007"><ele>392.0</ele><time>2026-04-04T10:04:41Z</time></trkpt><trkpt lat="41.43017640502734" lon="13.421906645618957"><ele>392.0</ele><time>2026-04-04T10:04:42Z</time></trkpt><trkpt lat="41.4300410823302" lon="13.421989977531759"><ele>392.0</ele><time>2026-04-04T10:04:43Z</time></trkpt><trkpt lat="41.42989566381647" lon="13.422007105867758"><ele>392.0</ele><time>2026-04-04T10:04:44Z</time></trkpt><trkpt lat="41.42975364754121" lon="13.422003048444468"><ele>392.0</ele><time>2026-04-04T10:04:45Z</time></trkpt><trkpt lat="41.42961276010083" lon="13.421955682322515"><ele>392.0</ele><time>2026-04-04T10:04:46Z</time></trkpt><trkpt lat="41.429463409532275" lon="13.421890997650914"><ele>393.66666666666663</ele><time>2026-04-04T10:04:47Z</time></trkpt><trkpt lat="41.42929879089422" lon="13.421817827763032"><ele>395.33333333333337</ele><time>2026-04-04T10:04:48Z</time></trkpt><trkpt lat="41.42912901640118" lon="13.42174200585643"><ele>397.0</ele><time>2026-04-04T10:04:49Z</time></trkpt><trkpt lat="41.42895657056037" lon="13.421664345760043"><ele>401.0</ele><time>2026-04-04T10:04:50Z</time></trkpt><trkpt lat="41.42878781452657" lon="13.421587811810074"><ele>405.0</ele><time>2026-04-04T10:04:50.999Z</time></trkpt><trkpt lat="41.428628856920504" lon="13.421516504240767"><ele>409.0</ele><time>2026-04-04T10:04:51.999Z</time></trkpt><trkpt lat="41.4284846169954" lon="13.421425097826795"><ele>406.33333333333337</ele><time>2026-04-04T10:04:52.999Z</time></trkpt><trkpt lat="41.42835577538478" lon="13.421312233183464"><ele>403.66666666666663</ele><time>2026-04-04T10:04:53.999Z</time></trkpt><trkpt lat="41.42825574180762" lon="13.421172763891668"><ele>401.0</ele><time>2026-04-04T10:04:54.999Z</time></trkpt><trkpt lat="41.42817783105487" lon="13.420986415755573"><ele>401.0</ele><time>2026-04-04T10:04:55.999Z</time></trkpt><trkpt lat="41.42812843537449" lon="13.420757979824787"><ele>401.0</ele><time>2026-04-04T10:04:56.999Z</time></trkpt><trkpt lat="41.42809199867804" lon="13.420500934027343"><ele>401.0</ele><time>2026-04-04T10:04:57.999Z</time></trkpt><trkpt lat="41.428056222816544" lon="13.42021826092891"><ele>398.66666666666663</ele><time>2026-04-04T10:04:58.999Z</time></trkpt><trkpt lat="41.42802111461492" lon="13.419927550629183"><ele>396.33333333333337</ele><time>2026-04-04T10:04:59.999Z</time></trkpt><trkpt lat="41.42798323954342" lon="13.419636721674292"><ele>394.0</ele><time>2026-04-04T10:05:00.999Z</time></trkpt><trkpt lat="41.42794518565562" lon="13.419343690561615"><ele>401.6666666666667</ele><time>2026-04-04T10:05:01.999Z</time></trkpt><trkpt lat="41.42790841353539" lon="13.419050450979464"><ele>409.33333333333337</ele><time>2026-04-04T10:05:02.999Z</time></trkpt><trkpt lat="41.427871666655584" lon="13.41875741263345"><ele>417.0</ele><time>2026-04-04T10:05:03.999Z</time></trkpt><trkpt lat="41.42783505208854" lon="13.418466045221278"><ele>417.33333333333337</ele><time>2026-04-04T10:05:04.999Z</time></trkpt><trkpt lat="41.427797627460826" lon="13.418177127918945"><ele>417.6666666666667</ele><time>2026-04-04T10:05:05.999Z</time></trkpt><trkpt lat="41.42775945740998" lon="13.417887862323594"><ele>418.0</ele><time>2026-04-04T10:05:06.999Z</time></trkpt><trkpt lat="41.427718034057975" lon="13.417602650313428"><ele>416.6666666666667</ele><time>2026-04-04T10:05:07.999Z</time></trkpt><trkpt lat="41.42766124596608" lon="13.417323311685925"><ele>415.33333333333337</ele><time>2026-04-04T10:05:08.999Z</time></trkpt><trkpt lat="41.42757316534081" lon="13.417063978628848"><ele>414.0</ele><time>2026-04-04T10:05:09.999Z</time></trkpt><trkpt lat="41.427514542421" lon="13.416793116009998"><ele>410.0</ele><time>2026-04-04T10:05:10.999Z</time></trkpt><trkpt lat="41.427433212482626" lon="13.416533941309051"><ele>406.0</ele><time>2026-04-04T10:05:11.999Z</time></trkpt><trkpt lat="41.427335955642214" lon="13.41628101242547"><ele>402.0</ele><time>2026-04-04T10:05:12.999Z</time></trkpt><trkpt lat="41.42722546769107" lon="13.416038801346161"><ele>401.33333333333337</ele><time>2026-04-04T10:05:13.999Z</time></trkpt><trkpt lat="41.4271066311566" lon="13.415801761210586"><ele>400.6666666666667</ele><time>2026-04-04T10:05:14.999Z</time></trkpt><trkpt lat="41.42696994168084" lon="13.415580056794578"><ele>400.0</ele><time>2026-04-04T10:05:15.999Z</time></trkpt><trkpt lat="41.426823232315755" lon="13.41538323578081"><ele>400.0</ele><time>2026-04-04T10:05:16.999Z</time></trkpt><trkpt lat="41.42666452942592" lon="13.41522164549582"><ele>400.0</ele><time>2026-04-04T10:05:17.999Z</time></trkpt><trkpt lat="41.42649977950891" lon="13.41509328102912"><ele>400.0</ele><time>2026-04-04T10:05:18.999Z</time></trkpt><trkpt lat="41.426328298230324" lon="13.414995613577913"><ele>406.0</ele><time>2026-04-04T10:05:19.999Z</time></trkpt><trkpt lat="41.42614828105885" lon="13.41491953445589"><ele>412.0</ele><time>2026-04-04T10:05:20.999Z</time></trkpt><trkpt lat="41.42595712984234" lon="13.414874682514753"><ele>418.0</ele><time>2026-04-04T10:05:21.999Z</time></trkpt><trkpt lat="41.42577783923348" lon="13.414844774351254"><ele>418.0</ele><time>2026-04-04T10:05:22.999Z</time></trkpt><trkpt lat="41.42562418863612" lon="13.414823798207545"><ele>418.0</ele><time>2026-04-04T10:05:23.999Z</time></trkpt><trkpt lat="41.42549286981669" lon="13.414795814876875"><ele>418.0</ele><time>2026-04-04T10:05:24.999Z</time></trkpt><trkpt lat="41.425375406789605" lon="13.41474185166091"><ele>418.0</ele><time>2026-04-04T10:05:25.999Z</time></trkpt><trkpt lat="41.42527544302133" lon="13.414654943911453"><ele>418.5</ele><time>2026-04-04T10:05:26.999Z</time></trkpt><trkpt lat="41.42519311676927" lon="13.414530971854655"><ele>419.0</ele><time>2026-04-04T10:05:27.999Z</time></trkpt><trkpt lat="41.425141925764414" lon="13.41436255025805"><ele>419.5</ele><time>2026-04-04T10:05:28.999Z</time></trkpt><trkpt lat="41.42510300507485" lon="13.414154805747483"><ele>420.0</ele><time>2026-04-04T10:05:29.999Z</time></trkpt><trkpt lat="41.42506578277042" lon="13.413928062867317"><ele>418.66666666666663</ele><time>2026-04-04T10:05:30.999Z</time></trkpt><trkpt lat="41.425024940085514" lon="13.413680026647299"><ele>417.3333333333333</ele><time>2026-04-04T10:05:31.999Z</time></trkpt><trkpt lat="41.42498229788484" lon="13.413428172351898"><ele>416.0</ele><time>2026-04-04T10:05:32.999Z</time></trkpt><trkpt lat="41.4249362367614" lon="13.413153073648846"><ele>414.66666666666663</ele><time>2026-04-04T10:05:33.999Z</time></trkpt><trkpt lat="41.424890931800526" lon="13.41286742798951"><ele>413.33333333333337</ele><time>2026-04-04T10:05:34.999Z</time></trkpt><trkpt lat="41.4248412409006" lon="13.412586035966644"><ele>412.0</ele><time>2026-04-04T10:05:35.999Z</time></trkpt><trkpt lat="41.42479262312084" lon="13.412303015402799"><ele>410.0</ele><time>2026-04-04T10:05:36.999Z</time></trkpt><trkpt lat="41.424743623418884" lon="13.412023534548297"><ele>408.0</ele><time>2026-04-04T10:05:37.999Z</time></trkpt><trkpt lat="41.42469454898935" lon="13.41174451889503"><ele>406.0</ele><time>2026-04-04T10:05:38.999Z</time></trkpt><trkpt lat="41.42464484401532" lon="13.411471726923855"><ele>417.33333333333337</ele><time>2026-04-04T10:05:39.999Z</time></trkpt><trkpt lat="41.424574569634466" lon="13.411206730966091"><ele>428.66666666666663</ele><time>2026-04-04T10:05:40.999Z</time></trkpt><trkpt lat="41.424500240056766" lon="13.410977503167594"><ele>440.0</ele><time>2026-04-04T10:05:41.999Z</time></trkpt><trkpt lat="41.42443785025325" lon="13.410768739897671"><ele>440.0</ele><time>2026-04-04T10:05:42.999Z</time></trkpt><trkpt lat="41.4244050166287" lon="13.410565974413574"><ele>440.0</ele><time>2026-04-04T10:05:43.999Z</time></trkpt><trkpt lat="41.42438542045611" lon="13.410349353115501"><ele>440.0</ele><time>2026-04-04T10:05:44.999Z</time></trkpt><trkpt lat="41.42442799437571" lon="13.41012418699866"><ele>442.0</ele><time>2026-04-04T10:05:45.999Z</time></trkpt><trkpt lat="41.42450826800726" lon="13.409891311865039"><ele>444.0</ele><time>2026-04-04T10:05:46.999Z</time></trkpt><trkpt lat="41.42462225535868" lon="13.409650004242566"><ele>446.0</ele><time>2026-04-04T10:05:47.999Z</time></trkpt><trkpt lat="41.42474826706492" lon="13.409388838026727"><ele>432.0</ele><time>2026-04-04T10:05:48.999Z</time></trkpt><trkpt lat="41.424864905611095" lon="13.409115524852274"><ele>418.0</ele><time>2026-04-04T10:05:49.999Z</time></trkpt><trkpt lat="41.424974904964095" lon="13.408837829816406"><ele>422.33333333333337</ele><time>2026-04-04T10:05:50.999Z</time></trkpt><trkpt lat="41.42505499477783" lon="13.408568816162672"><ele>426.66666666666663</ele><time>2026-04-04T10:05:51.999Z</time></trkpt><trkpt lat="41.42511276442641" lon="13.408315900873442"><ele>431.0</ele><time>2026-04-04T10:05:52.999Z</time></trkpt><trkpt lat="41.425157308489105" lon="13.408078849698281"><ele>432.3333333333333</ele><time>2026-04-04T10:05:53.999Z</time></trkpt><trkpt lat="41.425178380565505" lon="13.40783975933216"><ele>433.66666666666663</ele><time>2026-04-04T10:05:54.999Z</time></trkpt><trkpt lat="41.42516647456856" lon="13.407613093998046"><ele>435.0</ele><time>2026-04-04T10:05:55.999Z</time></trkpt><trkpt lat="41.42513375171902" lon="13.407390217322817"><ele>435.0</ele><time>2026-04-04T10:05:56.999Z</time></trkpt><trkpt lat="41.42507546308255" lon="13.40716462236549"><ele>435.0</ele><time>2026-04-04T10:05:57.999Z</time></trkpt><trkpt lat="41.42501238820756" lon="13.406935772136883"><ele>435.0</ele><time>2026-04-04T10:05:58.999Z</time></trkpt><trkpt lat="41.42489608251681" lon="13.40673655308731"><ele>431.0</ele><time>2026-04-04T10:05:59.999Z</time></trkpt><trkpt lat="41.42478861389222" lon="13.406528358105108"><ele>427.0</ele><time>2026-04-04T10:06:00.999Z</time></trkpt><trkpt lat="41.424644880482006" lon="13.406359032529727"><ele>423.0</ele><time>2026-04-04T10:06:01.999Z</time></trkpt><trkpt lat="41.424468992033994" lon="13.406217034715306"><ele>421.0</ele><time>2026-04-04T10:06:02.999Z</time></trkpt><trkpt lat="41.424276702384915" lon="13.406108467410606"><ele>419.0</ele><time>2026-04-04T10:06:03.999Z</time></trkpt><trkpt lat="41.42408207094486" lon="13.406041876631408"><ele>417.0</ele><time>2026-04-04T10:06:04.999Z</time></trkpt><trkpt lat="41.423902230045144" lon="13.406001827215436"><ele>417.66666666666663</ele><time>2026-04-04T10:06:05.999Z</time></trkpt><trkpt lat="41.423712521338395" lon="13.405988500076077"><ele>418.3333333333333</ele><time>2026-04-04T10:06:06.999Z</time></trkpt><trkpt lat="41.42351528170812" lon="13.406000495293727"><ele>419.0</ele><time>2026-04-04T10:06:07.999Z</time></trkpt><trkpt lat="41.42330195490313" lon="13.406039647091255"><ele>419.0</ele><time>2026-04-04T10:06:08.999Z</time></trkpt><trkpt lat="41.423111618105736" lon="13.406088787806135"><ele>419.0</ele><time>2026-04-04T10:06:09.999Z</time></trkpt><trkpt lat="41.422948819264526" lon="13.40612134359659"><ele>419.0</ele><time>2026-04-04T10:06:10.999Z</time></trkpt><trkpt lat="41.42280803705175" lon="13.406108870195428"><ele>422.66666666666663</ele><time>2026-04-04T10:06:11.999Z</time></trkpt><trkpt lat="41.42266201168233" lon="13.40603716028813"><ele>426.33333333333337</ele><time>2026-04-04T10:06:12.999Z</time></trkpt><trkpt lat="41.422514661143104" lon="13.405956919298106"><ele>430.0</ele><time>2026-04-04T10:06:13.999Z</time></trkpt><trkpt lat="41.42238708272226" lon="13.405863533640005"><ele>430.0</ele><time>2026-04-04T10:06:14.999Z</time></trkpt><trkpt lat="41.4222866097715" lon="13.405699426599769"><ele>430.0</ele><time>2026-04-04T10:06:15.999Z</time></trkpt><trkpt lat="41.42219285866513" lon="13.40545041680854"><ele>430.0</ele><time>2026-04-04T10:06:16.999Z</time></trkpt><trkpt lat="41.42209291504503" lon="13.405162407373082"><ele>442.0</ele><time>2026-04-04T10:06:17.999Z</time></trkpt><trkpt lat="41.42200492697508" lon="13.404863381356458"><ele>454.0</ele><time>2026-04-04T10:06:18.999Z</time></trkpt><trkpt lat="41.42191797278139" lon="13.40456610473157"><ele>454.0</ele><time>2026-04-04T10:06:19.999Z</time></trkpt><trkpt lat="41.42187016646009" lon="13.404254056793247"><ele>454.0</ele><time>2026-04-04T10:06:20.999Z</time></trkpt><trkpt lat="41.42181389458719" lon="13.403951800658719"><ele>447.5</ele><time>2026-04-04T10:06:22Z</time></trkpt><trkpt lat="41.42175670788604" lon="13.403647315208676"><ele>441.0</ele><time>2026-04-04T10:06:23Z</time></trkpt><trkpt lat="41.42169743640578" lon="13.403345645569509"><ele>441.0</ele><time>2026-04-04T10:06:24Z</time></trkpt><trkpt lat="41.42163570453198" lon="13.4030649339106"><ele>441.0</ele><time>2026-04-04T10:06:25Z</time></trkpt><trkpt lat="41.421578347491995" lon="13.402818558630608"><ele>441.0</ele><time>2026-04-04T10:06:26Z</time></trkpt><trkpt lat="41.421522124341166" lon="13.402599830554665"><ele>438.0</ele><time>2026-04-04T10:06:27Z</time></trkpt><trkpt lat="41.421457853202156" lon="13.402412536576454"><ele>435.0</ele><time>2026-04-04T10:06:28Z</time></trkpt><trkpt lat="41.421359469589504" lon="13.40223764405145"><ele>432.0</ele><time>2026-04-04T10:06:29Z</time></trkpt><trkpt lat="41.4212278892729" lon="13.40211780311507"><ele>428.66666666666663</ele><time>2026-04-04T10:06:30Z</time></trkpt><trkpt lat="41.42107391226225" lon="13.402050393941678"><ele>425.3333333333333</ele><time>2026-04-04T10:06:31Z</time></trkpt><trkpt lat="41.42092662759368" lon="13.402075815982657"><ele>422.0</ele><time>2026-04-04T10:06:32Z</time></trkpt><trkpt lat="41.42078421393285" lon="13.40213508869826"><ele>423.0</ele><time>2026-04-04T10:06:33Z</time></trkpt><trkpt lat="41.42063649879407" lon="13.402247455846279"><ele>424.0</ele><time>2026-04-04T10:06:34Z</time></trkpt><trkpt lat="41.42047629568523" lon="13.402373019751925"><ele>425.0</ele><time>2026-04-04T10:06:35Z</time></trkpt><trkpt lat="41.42033364625565" lon="13.40254677753217"><ele>425.0</ele><time>2026-04-04T10:06:36Z</time></trkpt><trkpt lat="41.420177493484765" lon="13.402709333580349"><ele>425.0</ele><time>2026-04-04T10:06:37Z</time></trkpt><trkpt lat="41.42001936004295" lon="13.402891330749839"><ele>425.0</ele><time>2026-04-04T10:06:38Z</time></trkpt><trkpt lat="41.41986653388922" lon="13.40308253586331"><ele>423.66666666666663</ele><time>2026-04-04T10:06:39Z</time></trkpt><trkpt lat="41.419719486904754" lon="13.403284622383488"><ele>422.33333333333337</ele><time>2026-04-04T10:06:40Z</time></trkpt><trkpt lat="41.41957446189867" lon="13.403499540787623"><ele>421.0</ele><time>2026-04-04T10:06:41Z</time></trkpt><trkpt lat="41.419433134306814" lon="13.403725045701579"><ele>429.6666666666667</ele><time>2026-04-04T10:06:42Z</time></trkpt><trkpt lat="41.41930573200814" lon="13.40396031149669"><ele>438.33333333333337</ele><time>2026-04-04T10:06:43Z</time></trkpt><trkpt lat="41.4191882784982" lon="13.40421484677579"><ele>447.0</ele><time>2026-04-04T10:06:44Z</time></trkpt><trkpt lat="41.41907064777374" lon="13.404474975178646"><ele>457.0</ele><time>2026-04-04T10:06:45Z</time></trkpt><trkpt lat="41.41894551125591" lon="13.404738612640253"><ele>467.0</ele><time>2026-04-04T10:06:46Z</time></trkpt><trkpt lat="41.4188176804025" lon="13.405014230778127"><ele>456.0</ele><time>2026-04-04T10:06:47Z</time></trkpt><trkpt lat="41.41869393055534" lon="13.405322757180095"><ele>445.0</ele><time>2026-04-04T10:06:48Z</time></trkpt><trkpt lat="41.418571803341216" lon="13.405662944568604"><ele>445.0</ele><time>2026-04-04T10:06:49Z</time></trkpt><trkpt lat="41.41845215084594" lon="13.405976599908898"><ele>445.0</ele><time>2026-04-04T10:06:49.999Z</time></trkpt><trkpt lat="41.41831877448259" lon="13.406263801596818"><ele>454.5</ele><time>2026-04-04T10:06:50.999Z</time></trkpt><trkpt lat="41.41816077235483" lon="13.406538298262715"><ele>464.0</ele><time>2026-04-04T10:06:51.999Z</time></trkpt><trkpt lat="41.41799106483678" lon="13.406809672787807"><ele>457.5</ele><time>2026-04-04T10:06:52.999Z</time></trkpt><trkpt lat="41.417831295454974" lon="13.407073005358201"><ele>451.0</ele><time>2026-04-04T10:06:53.999Z</time></trkpt><trkpt lat="41.41768767421007" lon="13.407309342971852"><ele>451.0</ele><time>2026-04-04T10:06:54.999Z</time></trkpt><trkpt lat="41.41755231577473" lon="13.407534641989306"><ele>451.0</ele><time>2026-04-04T10:06:55.999Z</time></trkpt><trkpt lat="41.41741992857369" lon="13.407763509931321"><ele>451.0</ele><time>2026-04-04T10:06:56.999Z</time></trkpt><trkpt lat="41.41730073587094" lon="13.407985953125323"><ele>444.33333333333337</ele><time>2026-04-04T10:06:57.999Z</time></trkpt><trkpt lat="41.41718736112182" lon="13.408214733993962"><ele>437.66666666666663</ele><time>2026-04-04T10:06:58.999Z</time></trkpt><trkpt lat="41.41708610181728" lon="13.408459835800075"><ele>431.0</ele><time>2026-04-04T10:06:59.999Z</time></trkpt><trkpt lat="41.4170002241452" lon="13.408712881517573"><ele>436.0</ele><time>2026-04-04T10:07:00.999Z</time></trkpt><trkpt lat="41.4169193977809" lon="13.408966827921924"><ele>441.0</ele><time>2026-04-04T10:07:01.999Z</time></trkpt><trkpt lat="41.4168399596871" lon="13.409220826537885"><ele>446.0</ele><time>2026-04-04T10:07:02.999Z</time></trkpt><trkpt lat="41.41677894375353" lon="13.409483918446783"><ele>450.66666666666663</ele><time>2026-04-04T10:07:03.999Z</time></trkpt><trkpt lat="41.41673044243161" lon="13.409733941397306"><ele>455.33333333333337</ele><time>2026-04-04T10:07:04.999Z</time></trkpt><trkpt lat="41.41669324289439" lon="13.409981783600903"><ele>460.0</ele><time>2026-04-04T10:07:05.999Z</time></trkpt><trkpt lat="41.41666732236824" lon="13.410251236561864"><ele>461.0</ele><time>2026-04-04T10:07:06.999Z</time></trkpt><trkpt lat="41.41665626098729" lon="13.410530338973711"><ele>462.0</ele><time>2026-04-04T10:07:07.999Z</time></trkpt><trkpt lat="41.41664646844017" lon="13.410799777792603"><ele>463.0</ele><time>2026-04-04T10:07:08.999Z</time></trkpt><trkpt lat="41.416634825219056" lon="13.411059901208635"><ele>463.0</ele><time>2026-04-04T10:07:09.999Z</time></trkpt><trkpt lat="41.41662956331175" lon="13.4113219250821"><ele>463.0</ele><time>2026-04-04T10:07:10.999Z</time></trkpt><trkpt lat="41.41662482438939" lon="13.411579837213822"><ele>463.0</ele><time>2026-04-04T10:07:11.999Z</time></trkpt><trkpt lat="41.4166167093022" lon="13.411832861573782"><ele>464.33333333333337</ele><time>2026-04-04T10:07:12.999Z</time></trkpt><trkpt lat="41.41660852619349" lon="13.412088453197033"><ele>465.66666666666663</ele><time>2026-04-04T10:07:13.999Z</time></trkpt><trkpt lat="41.416609447768174" lon="13.412355808521003"><ele>467.0</ele><time>2026-04-04T10:07:14.999Z</time></trkpt><trkpt lat="41.41661444424354" lon="13.412628887757712"><ele>467.3333333333333</ele><time>2026-04-04T10:07:15.999Z</time></trkpt><trkpt lat="41.41662579606444" lon="13.412911598797518"><ele>467.66666666666663</ele><time>2026-04-04T10:07:16.999Z</time></trkpt><trkpt lat="41.416633759020925" lon="13.413204579758258"><ele>468.0</ele><time>2026-04-04T10:07:17.999Z</time></trkpt><trkpt lat="41.416642407277514" lon="13.41350299180797"><ele>468.0</ele><time>2026-04-04T10:07:18.999Z</time></trkpt><trkpt lat="41.41665821708212" lon="13.413803719074254"><ele>468.0</ele><time>2026-04-04T10:07:19.999Z</time></trkpt><trkpt lat="41.41667642717478" lon="13.41410119335887"><ele>468.0</ele><time>2026-04-04T10:07:20.999Z</time></trkpt><trkpt lat="41.41669407224027" lon="13.414400378124085"><ele>468.0</ele><time>2026-04-04T10:07:21.999Z</time></trkpt><trkpt lat="41.416707822029636" lon="13.414699660648036"><ele>468.0</ele><time>2026-04-04T10:07:22.999Z</time></trkpt><trkpt lat="41.41672212792094" lon="13.414997437428887"><ele>468.0</ele><time>2026-04-04T10:07:23.999Z</time></trkpt><trkpt lat="41.41673581202517" lon="13.415293205782588"><ele>468.0</ele><time>2026-04-04T10:07:24.999Z</time></trkpt><trkpt lat="41.41675251540933" lon="13.415586238260689"><ele>467.66666666666663</ele><time>2026-04-04T10:07:25.999Z</time></trkpt><trkpt lat="41.416767576804276" lon="13.415875000496902"><ele>467.3333333333333</ele><time>2026-04-04T10:07:26.999Z</time></trkpt><trkpt lat="41.41678585332452" lon="13.416166700933463"><ele>467.0</ele><time>2026-04-04T10:07:27.999Z</time></trkpt><trkpt lat="41.41680151903357" lon="13.416446597928738"><ele>466.3333333333333</ele><time>2026-04-04T10:07:28.999Z</time></trkpt><trkpt lat="41.41681563208905" lon="13.41669999217895"><ele>465.66666666666663</ele><time>2026-04-04T10:07:29.999Z</time></trkpt><trkpt lat="41.41682731523103" lon="13.41693798540394"><ele>465.0</ele><time>2026-04-04T10:07:30.999Z</time></trkpt><trkpt lat="41.41683847241032" lon="13.417163506749482"><ele>466.5</ele><time>2026-04-04T10:07:31.999Z</time></trkpt><trkpt lat="41.416846985913295" lon="13.417367028984488"><ele>468.0</ele><time>2026-04-04T10:07:32.999Z</time></trkpt><trkpt lat="41.41684638779687" lon="13.417547521131427"><ele>469.5</ele><time>2026-04-04T10:07:33.999Z</time></trkpt><trkpt lat="41.41683570924879" lon="13.417717519175007"><ele>471.0</ele><time>2026-04-04T10:07:34.999Z</time></trkpt><trkpt lat="41.41680734797268" lon="13.417878095986339"><ele>473.0</ele><time>2026-04-04T10:07:35.999Z</time></trkpt><trkpt lat="41.416760094406825" lon="13.418024476699657"><ele>475.0</ele><time>2026-04-04T10:07:36.999Z</time></trkpt><trkpt lat="41.41667997225534" lon="13.418144117892087"><ele>477.0</ele><time>2026-04-04T10:07:37.999Z</time></trkpt><trkpt lat="41.41657656458605" lon="13.418227000790289"><ele>479.0</ele><time>2026-04-04T10:07:38.999Z</time></trkpt><trkpt lat="41.41645907062888" lon="13.418261238113203"><ele>479.0</ele><time>2026-04-04T10:07:39.999Z</time></trkpt><trkpt lat="41.41632945742802" lon="13.418262103374781"><ele>479.0</ele><time>2026-04-04T10:07:40.999Z</time></trkpt><trkpt lat="41.41620626181312" lon="13.418220213246354"><ele>479.0</ele><time>2026-04-04T10:07:41.999Z</time></trkpt><trkpt lat="41.41610608531827" lon="13.418113879725546"><ele>479.0</ele><time>2026-04-04T10:07:42.999Z</time></trkpt><trkpt lat="41.416031668708065" lon="13.417950622559667"><ele>479.3333333333333</ele><time>2026-04-04T10:07:43.999Z</time></trkpt><trkpt lat="41.41598182308259" lon="13.417744085609309"><ele>479.66666666666663</ele><time>2026-04-04T10:07:44.999Z</time></trkpt><trkpt lat="41.415916671341726" lon="13.4175299089521"><ele>480.0</ele><time>2026-04-04T10:07:45.999Z</time></trkpt><trkpt lat="41.41583749198172" lon="13.417348039693222"><ele>480.0</ele><time>2026-04-04T10:07:46.999Z</time></trkpt><trkpt lat="41.41572914009519" lon="13.417196657902583"><ele>480.0</ele><time>2026-04-04T10:07:47.999Z</time></trkpt><trkpt lat="41.415579789436514" lon="13.41706700905978"><ele>480.0</ele><time>2026-04-04T10:07:48.999Z</time></trkpt><trkpt lat="41.41542334264672" lon="13.416942171581987"><ele>483.66666666666663</ele><time>2026-04-04T10:07:49.999Z</time></trkpt><trkpt lat="41.41527639367018" lon="13.416804735201397"><ele>487.3333333333333</ele><time>2026-04-04T10:07:50.999Z</time></trkpt><trkpt lat="41.415152150327366" lon="13.416668436943176"><ele>491.0</ele><time>2026-04-04T10:07:51.999Z</time></trkpt><trkpt lat="41.414996887783445" lon="13.41650131952006"><ele>491.0</ele><time>2026-04-04T10:07:52.999Z</time></trkpt><trkpt lat="41.41484336736927" lon="13.416322850366765"><ele>491.0</ele><time>2026-04-04T10:07:53.999Z</time></trkpt><trkpt lat="41.414722500100694" lon="13.416091956486266"><ele>491.0</ele><time>2026-04-04T10:07:54.999Z</time></trkpt><trkpt lat="41.41459679983467" lon="13.415869217000607"><ele>491.66666666666663</ele><time>2026-04-04T10:07:55.999Z</time></trkpt><trkpt lat="41.41448055811647" lon="13.415671638048938"><ele>492.33333333333337</ele><time>2026-04-04T10:07:56.999Z</time></trkpt><trkpt lat="41.414370032409145" lon="13.41548921081124"><ele>493.0</ele><time>2026-04-04T10:07:57.999Z</time></trkpt><trkpt lat="41.41424378444642" lon="13.415342397216055"><ele>489.33333333333337</ele><time>2026-04-04T10:07:58.999Z</time></trkpt><trkpt lat="41.41407579348937" lon="13.415247836787195"><ele>485.66666666666663</ele><time>2026-04-04T10:07:59.999Z</time></trkpt><trkpt lat="41.41386450574729" lon="13.415193882504658"><ele>482.0</ele><time>2026-04-04T10:08:00.999Z</time></trkpt><trkpt lat="41.41364630319146" lon="13.415122999271698"><ele>482.0</ele><time>2026-04-04T10:08:01.999Z</time></trkpt><trkpt lat="41.41343295273547" lon="13.415043304781147"><ele>482.0</ele><time>2026-04-04T10:08:02.999Z</time></trkpt><trkpt lat="41.41322349135202" lon="13.414957212507097"><ele>482.0</ele><time>2026-04-04T10:08:03.999Z</time></trkpt><trkpt lat="41.413009839505875" lon="13.414866820247218"><ele>479.3333333333333</ele><time>2026-04-04T10:08:04.999Z</time></trkpt><trkpt lat="41.41280488500535" lon="13.414786022952265"><ele>476.66666666666663</ele><time>2026-04-04T10:08:05.999Z</time></trkpt><trkpt lat="41.41260615414166" lon="13.414693624017648"><ele>474.0</ele><time>2026-04-04T10:08:06.999Z</time></trkpt><trkpt lat="41.41241665107277" lon="13.414613310588788"><ele>474.0</ele><time>2026-04-04T10:08:07.999Z</time></trkpt><trkpt lat="41.41223848100579" lon="13.414533986594737"><ele>474.0</ele><time>2026-04-04T10:08:08.999Z</time></trkpt><trkpt lat="41.412070479168115" lon="13.414408806092268"><ele>474.0</ele><time>2026-04-04T10:08:09.999Z</time></trkpt><trkpt lat="41.41191042425576" lon="13.414237114845946"><ele>470.66666666666663</ele><time>2026-04-04T10:08:10.999Z</time></trkpt><trkpt lat="41.411745761215755" lon="13.41406662001946"><ele>467.3333333333333</ele><time>2026-04-04T10:08:11.999Z</time></trkpt><trkpt lat="41.41158606462192" lon="13.413910396127115"><ele>464.0</ele><time>2026-04-04T10:08:12.999Z</time></trkpt><trkpt lat="41.41143851704864" lon="13.413763907982965"><ele>472.66666666666663</ele><time>2026-04-04T10:08:13.999Z</time></trkpt><trkpt lat="41.4112858477045" lon="13.413624809502299"><ele>481.33333333333337</ele><time>2026-04-04T10:08:14.999Z</time></trkpt><trkpt lat="41.41113236636142" lon="13.413493325596907"><ele>490.0</ele><time>2026-04-04T10:08:15.999Z</time></trkpt><trkpt lat="41.41096516119264" lon="13.413380296625604"><ele>490.0</ele><time>2026-04-04T10:08:16.999Z</time></trkpt><trkpt lat="41.410780654342645" lon="13.413284825585494"><ele>490.0</ele><time>2026-04-04T10:08:17.999Z</time></trkpt><trkpt lat="41.41059149665466" lon="13.413206174721973"><ele>490.0</ele><time>2026-04-04T10:08:18.999Z</time></trkpt><trkpt lat="41.410402520970706" lon="13.41312987490522"><ele>496.0</ele><time>2026-04-04T10:08:19.999Z</time></trkpt><trkpt lat="41.410218520438086" lon="13.413066953986338"><ele>502.0</ele><time>2026-04-04T10:08:20.999Z</time></trkpt><trkpt lat="41.41002757171903" lon="13.413045738727964"><ele>508.0</ele><time>2026-04-04T10:08:21.999Z</time></trkpt><trkpt lat="41.40982504187719" lon="13.41305521092071"><ele>509.0</ele><time>2026-04-04T10:08:22.999Z</time></trkpt><trkpt lat="41.40961168618349" lon="13.41308171474656"><ele>510.0</ele><time>2026-04-04T10:08:23.999Z</time></trkpt><trkpt lat="41.4094005821037" lon="13.413088124874314"><ele>511.0</ele><time>2026-04-04T10:08:24.999Z</time></trkpt><trkpt lat="41.40919047127773" lon="13.413118209977847"><ele>511.0</ele><time>2026-04-04T10:08:25.999Z</time></trkpt><trkpt lat="41.408978069827526" lon="13.413188143891855"><ele>511.0</ele><time>2026-04-04T10:08:26.999Z</time></trkpt><trkpt lat="41.40874340750521" lon="13.413285276611266"><ele>501.0</ele><time>2026-04-04T10:08:28Z</time></trkpt><trkpt lat="41.40850405075356" lon="13.413383440088587"><ele>491.0</ele><time>2026-04-04T10:08:29Z</time></trkpt><trkpt lat="41.408273004552804" lon="13.41348076353443"><ele>491.0</ele><time>2026-04-04T10:08:30Z</time></trkpt><trkpt lat="41.40805625179126" lon="13.41360896807983"><ele>491.0</ele><time>2026-04-04T10:08:31Z</time></trkpt><trkpt lat="41.40784448451849" lon="13.413741836920517"><ele>498.0</ele><time>2026-04-04T10:08:32Z</time></trkpt><trkpt lat="41.40763056391959" lon="13.413884856676662"><ele>505.0</ele><time>2026-04-04T10:08:33Z</time></trkpt><trkpt lat="41.407414841370155" lon="13.414057280646288"><ele>505.0</ele><time>2026-04-04T10:08:34Z</time></trkpt><trkpt lat="41.407209857881355" lon="13.414276302480884"><ele>505.0</ele><time>2026-04-04T10:08:35Z</time></trkpt><trkpt lat="41.40704046895262" lon="13.414494153383778"><ele>504.0</ele><time>2026-04-04T10:08:36Z</time></trkpt><trkpt lat="41.40688387772215" lon="13.414692321678949"><ele>503.0</ele><time>2026-04-04T10:08:37Z</time></trkpt><trkpt lat="41.406723054915986" lon="13.414887044263784"><ele>502.0</ele><time>2026-04-04T10:08:38Z</time></trkpt><trkpt lat="41.406563403465555" lon="13.415098917604775"><ele>502.0</ele><time>2026-04-04T10:08:39Z</time></trkpt><trkpt lat="41.40642356806027" lon="13.41533370193515"><ele>502.0</ele><time>2026-04-04T10:08:40Z</time></trkpt><trkpt lat="41.40630766215883" lon="13.415595149240513"><ele>498.0</ele><time>2026-04-04T10:08:41Z</time></trkpt><trkpt lat="41.406204577696336" lon="13.415880801140037"><ele>494.0</ele><time>2026-04-04T10:08:42Z</time></trkpt><trkpt lat="41.40608723515688" lon="13.416153411150345"><ele>503.0</ele><time>2026-04-04T10:08:43Z</time></trkpt><trkpt lat="41.40596723593277" lon="13.416434028817418"><ele>512.0</ele><time>2026-04-04T10:08:44Z</time></trkpt><trkpt lat="41.40584824730462" lon="13.416709919619587"><ele>512.0</ele><time>2026-04-04T10:08:45Z</time></trkpt><trkpt lat="41.40573984588885" lon="13.416973636513575"><ele>512.0</ele><time>2026-04-04T10:08:46Z</time></trkpt><trkpt lat="41.405639513179416" lon="13.417224540071974"><ele>512.0</ele><time>2026-04-04T10:08:47Z</time></trkpt><trkpt lat="41.405541774174786" lon="13.417450849584785"><ele>512.6666666666666</ele><time>2026-04-04T10:08:48Z</time></trkpt><trkpt lat="41.40544966992506" lon="13.417664580931586"><ele>513.3333333333334</ele><time>2026-04-04T10:08:49Z</time></trkpt><trkpt lat="41.40536472954819" lon="13.417860187347886"><ele>514.0</ele><time>2026-04-04T10:08:50Z</time></trkpt><trkpt lat="41.40528479947761" lon="13.418064312019535"><ele>514.0</ele><time>2026-04-04T10:08:51Z</time></trkpt><trkpt lat="41.40518198835608" lon="13.418236370008888"><ele>514.0</ele><time>2026-04-04T10:08:51.999Z</time></trkpt><trkpt lat="41.405044041851475" lon="13.418378130872583"><ele>514.0</ele><time>2026-04-04T10:08:52.999Z</time></trkpt><trkpt lat="41.40485335901366" lon="13.418514978363724"><ele>514.0</ele><time>2026-04-04T10:08:53.999Z</time></trkpt><trkpt lat="41.4046642544523" lon="13.418656864154022"><ele>514.0</ele><time>2026-04-04T10:08:54.999Z</time></trkpt><trkpt lat="41.404478710870926" lon="13.418813348674442"><ele>514.0</ele><time>2026-04-04T10:08:55.999Z</time></trkpt><trkpt lat="41.40428732803038" lon="13.418964939953105"><ele>518.0</ele><time>2026-04-04T10:08:56.999Z</time></trkpt><trkpt lat="41.40408328973971" lon="13.419089047491385"><ele>522.0</ele><time>2026-04-04T10:08:57.999Z</time></trkpt><trkpt lat="41.4038682818211" lon="13.419190453699905"><ele>516.5</ele><time>2026-04-04T10:08:58.999Z</time></trkpt><trkpt lat="41.40364888856631" lon="13.419278458387556"><ele>511.0</ele><time>2026-04-04T10:08:59.999Z</time></trkpt><trkpt lat="41.40342844362836" lon="13.419381028127804"><ele>511.0</ele><time>2026-04-04T10:09:00.999Z</time></trkpt><trkpt lat="41.403196790262704" lon="13.419524508970058"><ele>511.0</ele><time>2026-04-04T10:09:01.999Z</time></trkpt><trkpt lat="41.40296023642897" lon="13.41970899020449"><ele>515.0</ele><time>2026-04-04T10:09:02.999Z</time></trkpt><trkpt lat="41.402717872135824" lon="13.419894634625107"><ele>519.0</ele><time>2026-04-04T10:09:03.999Z</time></trkpt><trkpt lat="41.40249129512584" lon="13.420069822349447"><ele>519.0</ele><time>2026-04-04T10:09:04.999Z</time></trkpt><trkpt lat="41.40227732886257" lon="13.420258956349866"><ele>519.0</ele><time>2026-04-04T10:09:05.999Z</time></trkpt><trkpt lat="41.40207630989591" lon="13.420468762836151"><ele>523.5</ele><time>2026-04-04T10:09:06.999Z</time></trkpt><trkpt lat="41.401881497349216" lon="13.420689690544268"><ele>528.0</ele><time>2026-04-04T10:09:07.999Z</time></trkpt><trkpt lat="41.40168973055697" lon="13.420896130166318"><ele>528.0</ele><time>2026-04-04T10:09:08.999Z</time></trkpt><trkpt lat="41.401497720003576" lon="13.421099526611215"><ele>528.0</ele><time>2026-04-04T10:09:09.999Z</time></trkpt><trkpt lat="41.4013052796452" lon="13.421301412723956"><ele>528.5</ele><time>2026-04-04T10:09:10.999Z</time></trkpt><trkpt lat="41.401108426256265" lon="13.421491622666368"><ele>529.0</ele><time>2026-04-04T10:09:11.999Z</time></trkpt><trkpt lat="41.40090621985722" lon="13.421668525595406"><ele>529.0</ele><time>2026-04-04T10:09:12.999Z</time></trkpt><trkpt lat="41.40070179615354" lon="13.42183194353684"><ele>529.0</ele><time>2026-04-04T10:09:13.999Z</time></trkpt><trkpt lat="41.40050088517236" lon="13.422003312402687"><ele>531.5</ele><time>2026-04-04T10:09:14.999Z</time></trkpt><trkpt lat="41.40030431348546" lon="13.422172346688244"><ele>534.0</ele><time>2026-04-04T10:09:15.999Z</time></trkpt><trkpt lat="41.40011256373706" lon="13.42236014388024"><ele>534.0</ele><time>2026-04-04T10:09:16.999Z</time></trkpt><trkpt lat="41.399927750376754" lon="13.422553403516153"><ele>534.0</ele><time>2026-04-04T10:09:17.999Z</time></trkpt><trkpt lat="41.39973760889409" lon="13.422759947944606"><ele>534.0</ele><time>2026-04-04T10:09:18.999Z</time></trkpt><trkpt lat="41.399547083466764" lon="13.422967823830263"><ele>534.0</ele><time>2026-04-04T10:09:19.999Z</time></trkpt><trkpt lat="41.399355433081794" lon="13.423181457241846"><ele>534.0</ele><time>2026-04-04T10:09:20.999Z</time></trkpt><trkpt lat="41.39917343215169" lon="13.423409263096417"><ele>534.0</ele><time>2026-04-04T10:09:21.999Z</time></trkpt><trkpt lat="41.398999844310175" lon="13.423649668696408"><ele>535.5</ele><time>2026-04-04T10:09:22.999Z</time></trkpt><trkpt lat="41.398830908449206" lon="13.423896600919349"><ele>537.0</ele><time>2026-04-04T10:09:23.999Z</time></trkpt><trkpt lat="41.398661413231004" lon="13.424159939082184"><ele>537.0</ele><time>2026-04-04T10:09:24.999Z</time></trkpt><trkpt lat="41.398509254580446" lon="13.424429198170518"><ele>537.0</ele><time>2026-04-04T10:09:25.999Z</time></trkpt><trkpt lat="41.39834715757366" lon="13.42469496031424"><ele>543.0</ele><time>2026-04-04T10:09:26.999Z</time></trkpt><trkpt lat="41.398188481487004" lon="13.424956111574401"><ele>549.0</ele><time>2026-04-04T10:09:27.999Z</time></trkpt><trkpt lat="41.39803067754131" lon="13.425203905569951"><ele>550.0</ele><time>2026-04-04T10:09:28.999Z</time></trkpt><trkpt lat="41.397881152842544" lon="13.42544949584524"><ele>551.0</ele><time>2026-04-04T10:09:29.999Z</time></trkpt><trkpt lat="41.397738942893966" lon="13.425667867234518"><ele>551.0</ele><time>2026-04-04T10:09:30.999Z</time></trkpt><trkpt lat="41.39761338760399" lon="13.425878134902387"><ele>551.0</ele><time>2026-04-04T10:09:31.999Z</time></trkpt><trkpt lat="41.39748807912539" lon="13.426084875184754"><ele>551.0</ele><time>2026-04-04T10:09:32.999Z</time></trkpt><trkpt lat="41.397371600621774" lon="13.426307851428655"><ele>553.6666666666666</ele><time>2026-04-04T10:09:33.999Z</time></trkpt><trkpt lat="41.39727760700335" lon="13.4265098621976"><ele>556.3333333333334</ele><time>2026-04-04T10:09:34.999Z</time></trkpt><trkpt lat="41.397207367062066" lon="13.426679370995801"><ele>559.0</ele><time>2026-04-04T10:09:35.999Z</time></trkpt><trkpt lat="41.39715181648109" lon="13.426832745101372"><ele>559.0</ele><time>2026-04-04T10:09:36.999Z</time></trkpt><trkpt lat="41.39711725468128" lon="13.426984905059346"><ele>559.0</ele><time>2026-04-04T10:09:37.999Z</time></trkpt><trkpt lat="41.397122583021094" lon="13.427161585371598"><ele>559.0</ele><time>2026-04-04T10:09:38.999Z</time></trkpt><trkpt lat="41.3971616865233" lon="13.427344322307466"><ele>559.0</ele><time>2026-04-04T10:09:39.999Z</time></trkpt><trkpt lat="41.39726791365417" lon="13.427526257334977"><ele>558.3333333333334</ele><time>2026-04-04T10:09:40.999Z</time></trkpt><trkpt lat="41.39737985940479" lon="13.427708888711969"><ele>557.6666666666666</ele><time>2026-04-04T10:09:41.999Z</time></trkpt><trkpt lat="41.397491614436724" lon="13.42791220655572"><ele>557.0</ele><time>2026-04-04T10:09:42.999Z</time></trkpt><trkpt lat="41.39758656373391" lon="13.428116655402476"><ele>549.3333333333333</ele><time>2026-04-04T10:09:43.999Z</time></trkpt><trkpt lat="41.397647011420055" lon="13.428356462688765"><ele>541.6666666666666</ele><time>2026-04-04T10:09:44.999Z</time></trkpt><trkpt lat="41.397684129025" lon="13.428589597331746"><ele>534.0</ele><time>2026-04-04T10:09:45.999Z</time></trkpt><trkpt lat="41.39772647881686" lon="13.428792852506774"><ele>528.5</ele><time>2026-04-04T10:09:46.999Z</time></trkpt><trkpt lat="41.39777397640198" lon="13.428944691078476"><ele>523.0</ele><time>2026-04-04T10:09:47.999Z</time></trkpt><trkpt lat="41.39785704074302" lon="13.429051587231086"><ele>517.5</ele><time>2026-04-04T10:09:48.999Z</time></trkpt><trkpt lat="41.397977047680165" lon="13.429154150796602"><ele>512.0</ele><time>2026-04-04T10:09:49.999Z</time></trkpt><trkpt lat="41.39811771603254" lon="13.429236899761165"><ele>516.0</ele><time>2026-04-04T10:09:50.999Z</time></trkpt><trkpt lat="41.39824447359049" lon="13.429347110687491"><ele>520.0</ele><time>2026-04-04T10:09:51.999Z</time></trkpt><trkpt lat="41.398367334649315" lon="13.4294937179108"><ele>524.0</ele><time>2026-04-04T10:09:52.999Z</time></trkpt><trkpt lat="41.39845238324543" lon="13.429685599720129"><ele>524.0</ele><time>2026-04-04T10:09:53.999Z</time></trkpt><trkpt lat="41.39853838160666" lon="13.42990353901568"><ele>524.0</ele><time>2026-04-04T10:09:54.999Z</time></trkpt><trkpt lat="41.39862796272087" lon="13.430124421751449"><ele>524.0</ele><time>2026-04-04T10:09:55.999Z</time></trkpt><trkpt lat="41.39873008324722" lon="13.430319208223489"><ele>527.3333333333333</ele><time>2026-04-04T10:09:56.999Z</time></trkpt><trkpt lat="41.39884229642323" lon="13.430486772275342"><ele>530.6666666666666</ele><time>2026-04-04T10:09:57.999Z</time></trkpt><trkpt lat="41.39898115070195" lon="13.43063924027082"><ele>534.0</ele><time>2026-04-04T10:09:58.999Z</time></trkpt><trkpt lat="41.39915050876412" lon="13.430783924265919"><ele>534.0</ele><time>2026-04-04T10:09:59.999Z</time></trkpt><trkpt lat="41.39932023780276" lon="13.430954124769055"><ele>534.0</ele><time>2026-04-04T10:10:00.999Z</time></trkpt><trkpt lat="41.39948082643396" lon="13.43118054032099"><ele>534.0</ele><time>2026-04-04T10:10:01.999Z</time></trkpt><trkpt lat="41.39966948187979" lon="13.431422850838795"><ele>535.0</ele><time>2026-04-04T10:10:02.999Z</time></trkpt><trkpt lat="41.399906210649014" lon="13.431626086227697"><ele>536.0</ele><time>2026-04-04T10:10:03.999Z</time></trkpt><trkpt lat="41.40013020417415" lon="13.431802180042718"><ele>536.0</ele><time>2026-04-04T10:10:04.999Z</time></trkpt><trkpt lat="41.40032798797545" lon="13.431977581296985"><ele>536.0</ele><time>2026-04-04T10:10:05.999Z</time></trkpt><trkpt lat="41.4005128880943" lon="13.432178209742656"><ele>536.5</ele><time>2026-04-04T10:10:06.999Z</time></trkpt><trkpt lat="41.400694973058755" lon="13.4323937522914"><ele>537.0</ele><time>2026-04-04T10:10:07.999Z</time></trkpt><trkpt lat="41.40086538095669" lon="13.432594817041197"><ele>537.0</ele><time>2026-04-04T10:10:08.999Z</time></trkpt><trkpt lat="41.401021105140906" lon="13.43278215583927"><ele>537.0</ele><time>2026-04-04T10:10:09.999Z</time></trkpt><trkpt lat="41.401167745528284" lon="13.432974716256421"><ele>537.0</ele><time>2026-04-04T10:10:10.999Z</time></trkpt><trkpt lat="41.401309402401175" lon="13.433164084461364"><ele>538.3333333333334</ele><time>2026-04-04T10:10:11.999Z</time></trkpt><trkpt lat="41.40145449679118" lon="13.433347050018602"><ele>539.6666666666667</ele><time>2026-04-04T10:10:12.999Z</time></trkpt><trkpt lat="41.401603417226106" lon="13.433520983748226"><ele>541.0</ele><time>2026-04-04T10:10:13.999Z</time></trkpt><trkpt lat="41.40175851347903" lon="13.433698840765672"><ele>540.6666666666667</ele><time>2026-04-04T10:10:14.999Z</time></trkpt><trkpt lat="41.401921250945804" lon="13.43388829379284"><ele>540.3333333333334</ele><time>2026-04-04T10:10:15.999Z</time></trkpt><trkpt lat="41.402096109086195" lon="13.434065032308876"><ele>540.0</ele><time>2026-04-04T10:10:16.999Z</time></trkpt><trkpt lat="41.402279806109725" lon="13.434233085352925"><ele>540.0</ele><time>2026-04-04T10:10:17.999Z</time></trkpt><trkpt lat="41.40245534362464" lon="13.434390462372525"><ele>540.0</ele><time>2026-04-04T10:10:18.999Z</time></trkpt><trkpt lat="41.40261939029698" lon="13.434570236132311"><ele>540.0</ele><time>2026-04-04T10:10:19.999Z</time></trkpt><trkpt lat="41.40276999004722" lon="13.434781244280154"><ele>541.6666666666666</ele><time>2026-04-04T10:10:20.999Z</time></trkpt><trkpt lat="41.40291677445015" lon="13.435001971997913"><ele>543.3333333333333</ele><time>2026-04-04T10:10:21.999Z</time></trkpt><trkpt lat="41.40305977558995" lon="13.435213559083554"><ele>545.0</ele><time>2026-04-04T10:10:22.999Z</time></trkpt><trkpt lat="41.40319781739847" lon="13.435404264150959"><ele>530.0</ele><time>2026-04-04T10:10:23.999Z</time></trkpt><trkpt lat="41.403370285198406" lon="13.435578709716117"><ele>515.0</ele><time>2026-04-04T10:10:24.999Z</time></trkpt><trkpt lat="41.403586566617236" lon="13.435761550775707"><ele>515.0</ele><time>2026-04-04T10:10:25.999Z</time></trkpt><trkpt lat="41.40379493158709" lon="13.435949205966146"><ele>515.0</ele><time>2026-04-04T10:10:26.999Z</time></trkpt><trkpt lat="41.40399351398664" lon="13.436127484789898"><ele>515.0</ele><time>2026-04-04T10:10:27.999Z</time></trkpt><trkpt lat="41.40416277438937" lon="13.436310971889887"><ele>515.0</ele><time>2026-04-04T10:10:28.999Z</time></trkpt><trkpt lat="41.40432867999758" lon="13.436509079175663"><ele>515.0</ele><time>2026-04-04T10:10:29.999Z</time></trkpt><trkpt lat="41.40449006355389" lon="13.436728446930871"><ele>515.0</ele><time>2026-04-04T10:10:30.999Z</time></trkpt><trkpt lat="41.404650372409314" lon="13.436959877444437"><ele>515.0</ele><time>2026-04-04T10:10:31.999Z</time></trkpt><trkpt lat="41.40481863084518" lon="13.437181046444493"><ele>518.3333333333333</ele><time>2026-04-04T10:10:32.999Z</time></trkpt><trkpt lat="41.40498272675377" lon="13.437393886644479"><ele>521.6666666666666</ele><time>2026-04-04T10:10:34Z</time></trkpt><trkpt lat="41.40514327385856" lon="13.437588407721453"><ele>525.0</ele><time>2026-04-04T10:10:35Z</time></trkpt><trkpt lat="41.40529581336307" lon="13.437815814288504"><ele>530.0</ele><time>2026-04-04T10:10:36Z</time></trkpt><trkpt lat="41.40543547735024" lon="13.438061252140573"><ele>535.0</ele><time>2026-04-04T10:10:37Z</time></trkpt><trkpt lat="41.405558864457454" lon="13.438321029566772"><ele>535.0</ele><time>2026-04-04T10:10:38Z</time></trkpt><trkpt lat="41.40565534050367" lon="13.438567393951063"><ele>535.0</ele><time>2026-04-04T10:10:39Z</time></trkpt><trkpt lat="41.40573966437077" lon="13.43880162988543"><ele>535.0</ele><time>2026-04-04T10:10:40Z</time></trkpt><trkpt lat="41.40581418307106" lon="13.439022228987422"><ele>527.6666666666667</ele><time>2026-04-04T10:10:41Z</time></trkpt><trkpt lat="41.40587193416997" lon="13.439232750721583"><ele>520.3333333333334</ele><time>2026-04-04T10:10:42Z</time></trkpt><trkpt lat="41.405939380944474" lon="13.439420323643583"><ele>513.0</ele><time>2026-04-04T10:10:43Z</time></trkpt><trkpt lat="41.40602972620363" lon="13.439586700687677"><ele>515.3333333333334</ele><time>2026-04-04T10:10:44Z</time></trkpt><trkpt lat="41.40615129104094" lon="13.439748824019453"><ele>517.6666666666667</ele><time>2026-04-04T10:10:45Z</time></trkpt><trkpt lat="41.40629076808224" lon="13.43991014855978"><ele>520.0</ele><time>2026-04-04T10:10:46Z</time></trkpt><trkpt lat="41.40641228919511" lon="13.440064245384573"><ele>520.0</ele><time>2026-04-04T10:10:47Z</time></trkpt><trkpt lat="41.40651458198114" lon="13.440191781858841"><ele>520.0</ele><time>2026-04-04T10:10:48Z</time></trkpt><trkpt lat="41.40663260041237" lon="13.440290674526393"><ele>520.0</ele><time>2026-04-04T10:10:49Z</time></trkpt><trkpt lat="41.406783768906344" lon="13.440371133153507"><ele>520.0</ele><time>2026-04-04T10:10:50Z</time></trkpt><trkpt lat="41.4069300906722" lon="13.440452380509885"><ele>521.5</ele><time>2026-04-04T10:10:51Z</time></trkpt><trkpt lat="41.40703944516381" lon="13.440539018475151"><ele>523.0</ele><time>2026-04-04T10:10:51.999Z</time></trkpt><trkpt lat="41.407139724908156" lon="13.440662458045713"><ele>524.5</ele><time>2026-04-04T10:10:52.999Z</time></trkpt><trkpt lat="41.40722307540031" lon="13.440834810244526"><ele>526.0</ele><time>2026-04-04T10:10:53.999Z</time></trkpt><trkpt lat="41.407279262120106" lon="13.441054100143974"><ele>526.0</ele><time>2026-04-04T10:10:54.999Z</time></trkpt><trkpt lat="41.40733720524941" lon="13.441286304892579"><ele>526.0</ele><time>2026-04-04T10:10:55.999Z</time></trkpt><trkpt lat="41.407424302656196" lon="13.441513670525506"><ele>526.0</ele><time>2026-04-04T10:10:56.999Z</time></trkpt><trkpt lat="41.407522802370835" lon="13.441744468700719"><ele>520.6666666666667</ele><time>2026-04-04T10:10:57.999Z</time></trkpt><trkpt lat="41.4076253614146" lon="13.441986010783443"><ele>515.3333333333334</ele><time>2026-04-04T10:10:58.999Z</time></trkpt><trkpt lat="41.40772893812598" lon="13.44220642687849"><ele>510.0</ele><time>2026-04-04T10:10:59.999Z</time></trkpt><trkpt lat="41.40785468846076" lon="13.442405457940513"><ele>513.0</ele><time>2026-04-04T10:11:00.999Z</time></trkpt><trkpt lat="41.407982720596586" lon="13.442568421266246"><ele>516.0</ele><time>2026-04-04T10:11:01.999Z</time></trkpt><trkpt lat="41.40811651552934" lon="13.442712562119704"><ele>519.0</ele><time>2026-04-04T10:11:02.999Z</time></trkpt><trkpt lat="41.40825720938533" lon="13.442830942268834"><ele>519.0</ele><time>2026-04-04T10:11:03.999Z</time></trkpt><trkpt lat="41.40839016778752" lon="13.442924951967209"><ele>519.0</ele><time>2026-04-04T10:11:04.999Z</time></trkpt><trkpt lat="41.40852482070357" lon="13.44299450618591"><ele>519.0</ele><time>2026-04-04T10:11:05.999Z</time></trkpt><trkpt lat="41.408691033263224" lon="13.443027263316143"><ele>510.33333333333337</ele><time>2026-04-04T10:11:06.999Z</time></trkpt><trkpt lat="41.40888038683254" lon="13.44304201566152"><ele>501.6666666666667</ele><time>2026-04-04T10:11:07.999Z</time></trkpt><trkpt lat="41.40907780271425" lon="13.44306629704733"><ele>493.0</ele><time>2026-04-04T10:11:08.999Z</time></trkpt><trkpt lat="41.409284765878816" lon="13.443088882098756"><ele>493.0</ele><time>2026-04-04T10:11:09.999Z</time></trkpt><trkpt lat="41.409483774067105" lon="13.44311684124316"><ele>493.0</ele><time>2026-04-04T10:11:10.999Z</time></trkpt><trkpt lat="41.40966478283594" lon="13.443143003085904"><ele>493.0</ele><time>2026-04-04T10:11:11.999Z</time></trkpt><trkpt lat="41.4098274912529" lon="13.443157870843814"><ele>496.25</ele><time>2026-04-04T10:11:12.999Z</time></trkpt><trkpt lat="41.40996985582194" lon="13.443171163288476"><ele>499.5</ele><time>2026-04-04T10:11:13.999Z</time></trkpt><trkpt lat="41.41009202025509" lon="13.44319072564271"><ele>502.75</ele><time>2026-04-04T10:11:14.999Z</time></trkpt><trkpt lat="41.410192393968" lon="13.443236411039178"><ele>506.0</ele><time>2026-04-04T10:11:15.999Z</time></trkpt><trkpt lat="41.41026649528874" lon="13.44331479807836"><ele>506.0</ele><time>2026-04-04T10:11:16.999Z</time></trkpt><trkpt lat="41.41031936565673" lon="13.44344331073433"><ele>506.0</ele><time>2026-04-04T10:11:17.999Z</time></trkpt><trkpt lat="41.41035947183211" lon="13.443607060503627"><ele>506.0</ele><time>2026-04-04T10:11:18.999Z</time></trkpt><trkpt lat="41.41038110806234" lon="13.443788221570264"><ele>506.0</ele><time>2026-04-04T10:11:19.999Z</time></trkpt><trkpt lat="41.41034587637485" lon="13.443978257891942"><ele>502.25</ele><time>2026-04-04T10:11:20.999Z</time></trkpt><trkpt lat="41.41028525373594" lon="13.444178418133276"><ele>498.5</ele><time>2026-04-04T10:11:21.999Z</time></trkpt><trkpt lat="41.410241558986996" lon="13.444358982125868"><ele>494.75</ele><time>2026-04-04T10:11:22.999Z</time></trkpt><trkpt lat="41.41021196364598" lon="13.444528036012077"><ele>491.0</ele><time>2026-04-04T10:11:23.999Z</time></trkpt><trkpt lat="41.41019065674303" lon="13.444695815041646"><ele>491.0</ele><time>2026-04-04T10:11:24.999Z</time></trkpt><trkpt lat="41.41017487241939" lon="13.44488170583629"><ele>491.0</ele><time>2026-04-04T10:11:25.999Z</time></trkpt><trkpt lat="41.41016998946162" lon="13.445080738508851"><ele>491.0</ele><time>2026-04-04T10:11:26.999Z</time></trkpt><trkpt lat="41.410173599206196" lon="13.445291920371597"><ele>491.0</ele><time>2026-04-04T10:11:27.999Z</time></trkpt><trkpt lat="41.41017989285631" lon="13.445507553590044"><ele>490.3333333333333</ele><time>2026-04-04T10:11:28.999Z</time></trkpt><trkpt lat="41.41017738073485" lon="13.445722438448644"><ele>489.66666666666663</ele><time>2026-04-04T10:11:29.999Z</time></trkpt><trkpt lat="41.41015406649768" lon="13.445912518890164"><ele>489.0</ele><time>2026-04-04T10:11:30.999Z</time></trkpt><trkpt lat="41.41010742277639" lon="13.446097775618908"><ele>489.0</ele><time>2026-04-04T10:11:31.999Z</time></trkpt><trkpt lat="41.410041207053816" lon="13.446269771451883"><ele>489.0</ele><time>2026-04-04T10:11:32.999Z</time></trkpt><trkpt lat="41.409953787129865" lon="13.446402765635987"><ele>489.0</ele><time>2026-04-04T10:11:33.999Z</time></trkpt><trkpt lat="41.409834536849836" lon="13.446503868318214"><ele>489.0</ele><time>2026-04-04T10:11:34.999Z</time></trkpt><trkpt lat="41.40969457560138" lon="13.446599092979577"><ele>485.66666666666663</ele><time>2026-04-04T10:11:35.999Z</time></trkpt><trkpt lat="41.40956418890888" lon="13.446713078579847"><ele>482.3333333333333</ele><time>2026-04-04T10:11:36.999Z</time></trkpt><trkpt lat="41.40945023223071" lon="13.446853134768913"><ele>479.0</ele><time>2026-04-04T10:11:37.999Z</time></trkpt><trkpt lat="41.4093570943067" lon="13.447028751367666"><ele>481.0</ele><time>2026-04-04T10:11:38.999Z</time></trkpt><trkpt lat="41.40930242081233" lon="13.447228285872042"><ele>483.0</ele><time>2026-04-04T10:11:39.999Z</time></trkpt><trkpt lat="41.40927968573275" lon="13.447443138340619"><ele>485.0</ele><time>2026-04-04T10:11:40.999Z</time></trkpt><trkpt lat="41.40930519102593" lon="13.447674523881604"><ele>485.0</ele><time>2026-04-04T10:11:41.999Z</time></trkpt><trkpt lat="41.40935437860163" lon="13.447913563093223"><ele>485.0</ele><time>2026-04-04T10:11:42.999Z</time></trkpt><trkpt lat="41.40942647241609" lon="13.44814995145161"><ele>485.0</ele><time>2026-04-04T10:11:43.999Z</time></trkpt><trkpt lat="41.40951455455224" lon="13.448362039076454"><ele>483.3333333333333</ele><time>2026-04-04T10:11:44.999Z</time></trkpt><trkpt lat="41.409602731635275" lon="13.448552729997864"><ele>481.66666666666663</ele><time>2026-04-04T10:11:45.999Z</time></trkpt><trkpt lat="41.40966624578867" lon="13.448756728723511"><ele>480.0</ele><time>2026-04-04T10:11:46.999Z</time></trkpt><trkpt lat="41.409718508466675" lon="13.448957470328077"><ele>481.25</ele><time>2026-04-04T10:11:47.999Z</time></trkpt><trkpt lat="41.4097638961325" lon="13.449144695279028"><ele>482.5</ele><time>2026-04-04T10:11:48.999Z</time></trkpt><trkpt lat="41.40979094247544" lon="13.449329170798721"><ele>483.75</ele><time>2026-04-04T10:11:49.999Z</time></trkpt><trkpt lat="41.40978924079218" lon="13.449511356654396"><ele>485.0</ele><time>2026-04-04T10:11:50.999Z</time></trkpt><trkpt lat="41.409773941686716" lon="13.44969444466553"><ele>485.0</ele><time>2026-04-04T10:11:51.999Z</time></trkpt><trkpt lat="41.40978791836154" lon="13.449854190405748"><ele>485.0</ele><time>2026-04-04T10:11:52.999Z</time></trkpt><trkpt lat="41.40982030619092" lon="13.450004635146227"><ele>485.0</ele><time>2026-04-04T10:11:53.999Z</time></trkpt><trkpt lat="41.409864773049705" lon="13.450142579950956"><ele>485.0</ele><time>2026-04-04T10:11:54.999Z</time></trkpt><trkpt lat="41.40989014110287" lon="13.450305595154644"><ele>484.3333333333333</ele><time>2026-04-04T10:11:56Z</time></trkpt><trkpt lat="41.409869398378795" lon="13.450500839520949"><ele>483.66666666666663</ele><time>2026-04-04T10:11:57Z</time></trkpt><trkpt lat="41.40983527295415" lon="13.450703558928337"><ele>483.0</ele><time>2026-04-04T10:11:58Z</time></trkpt><trkpt lat="41.409769535254064" lon="13.450903249231736"><ele>483.0</ele><time>2026-04-04T10:11:59Z</time></trkpt><trkpt lat="41.409686203149924" lon="13.451086469814985"><ele>483.0</ele><time>2026-04-04T10:12:00Z</time></trkpt><trkpt lat="41.40960075210328" lon="13.451263932669157"><ele>483.0</ele><time>2026-04-04T10:12:01Z</time></trkpt><trkpt lat="41.409534022358756" lon="13.451447923898018"><ele>475.66666666666663</ele><time>2026-04-04T10:12:02Z</time></trkpt><trkpt lat="41.409497164114484" lon="13.451649716798762"><ele>468.3333333333333</ele><time>2026-04-04T10:12:03Z</time></trkpt><trkpt lat="41.40948881188928" lon="13.451852839768327"><ele>461.0</ele><time>2026-04-04T10:12:04Z</time></trkpt><trkpt lat="41.40951044996252" lon="13.452054232821368"><ele>459.66666666666663</ele><time>2026-04-04T10:12:05Z</time></trkpt><trkpt lat="41.409562866486745" lon="13.45224052048697"><ele>458.33333333333337</ele><time>2026-04-04T10:12:06Z</time></trkpt><trkpt lat="41.40963926168951" lon="13.452420508446675"><ele>457.0</ele><time>2026-04-04T10:12:07Z</time></trkpt><trkpt lat="41.40972927678696" lon="13.452601137641013"><ele>461.33333333333337</ele><time>2026-04-04T10:12:08Z</time></trkpt><trkpt lat="41.40982551114422" lon="13.452782504582567"><ele>465.66666666666663</ele><time>2026-04-04T10:12:09Z</time></trkpt><trkpt lat="41.40991062294489" lon="13.452946079742032"><ele>470.0</ele><time>2026-04-04T10:12:10Z</time></trkpt><trkpt lat="41.40998793880193" lon="13.453107039172622"><ele>470.0</ele><time>2026-04-04T10:12:11Z</time></trkpt><trkpt lat="41.4100638198074" lon="13.4532558438555"><ele>470.0</ele><time>2026-04-04T10:12:12Z</time></trkpt><trkpt lat="41.41017174961165" lon="13.453388842275196"><ele>470.0</ele><time>2026-04-04T10:12:13Z</time></trkpt><trkpt lat="41.41031270748706" lon="13.453502621051554"><ele>470.0</ele><time>2026-04-04T10:12:14Z</time></trkpt><trkpt lat="41.4104669801952" lon="13.453612150412425"><ele>471.3333333333333</ele><time>2026-04-04T10:12:15Z</time></trkpt><trkpt lat="41.41062209050587" lon="13.453725312682707"><ele>472.66666666666663</ele><time>2026-04-04T10:12:16Z</time></trkpt><trkpt lat="41.41077449954408" lon="13.453838104843546"><ele>474.0</ele><time>2026-04-04T10:12:17Z</time></trkpt><trkpt lat="41.41092255526291" lon="13.453949039572226"><ele>474.0</ele><time>2026-04-04T10:12:18Z</time></trkpt><trkpt lat="41.411052848323074" lon="13.454065861021814"><ele>474.0</ele><time>2026-04-04T10:12:19Z</time></trkpt><trkpt lat="41.41116721966339" lon="13.45418602547743"><ele>474.0</ele><time>2026-04-04T10:12:20Z</time></trkpt><trkpt lat="41.411267782677655" lon="13.454311770461844"><ele>474.0</ele><time>2026-04-04T10:12:21Z</time></trkpt><trkpt lat="41.41135091720727" lon="13.45443117864589"><ele>473.79999999999995</ele><time>2026-04-04T10:12:22Z</time></trkpt><trkpt lat="41.41141195107914" lon="13.454540850046994"><ele>473.59999999999997</ele><time>2026-04-04T10:12:23Z</time></trkpt><trkpt lat="41.411437843973275" lon="13.454658888114109"><ele>473.4</ele><time>2026-04-04T10:12:24Z</time></trkpt><trkpt lat="41.41142483280019" lon="13.45478732416461"><ele>473.2</ele><time>2026-04-04T10:12:25Z</time></trkpt><trkpt lat="41.41135911954784" lon="13.454931277165377"><ele>473.0</ele><time>2026-04-04T10:12:26Z</time></trkpt><trkpt lat="41.41124930523335" lon="13.455064212202199"><ele>473.0</ele><time>2026-04-04T10:12:27Z</time></trkpt><trkpt lat="41.411118112136826" lon="13.455198644813734"><ele>473.0</ele><time>2026-04-04T10:12:28Z</time></trkpt><trkpt lat="41.41099164693307" lon="13.455352192938202"><ele>473.0</ele><time>2026-04-04T10:12:29Z</time></trkpt><trkpt lat="41.41085979396862" lon="13.455519252743871"><ele>465.66666666666663</ele><time>2026-04-04T10:12:30Z</time></trkpt><trkpt lat="41.41072960910513" lon="13.455680176648096"><ele>458.33333333333337</ele><time>2026-04-04T10:12:31Z</time></trkpt><trkpt lat="41.41061041171586" lon="13.455827942413242"><ele>451.0</ele><time>2026-04-04T10:12:32Z</time></trkpt><trkpt lat="41.41049342124207" lon="13.455964941962739"><ele>454.5</ele><time>2026-04-04T10:12:33Z</time></trkpt><trkpt lat="41.41037674943889" lon="13.456084321107198"><ele>458.0</ele><time>2026-04-04T10:12:34Z</time></trkpt><trkpt lat="41.410248531972634" lon="13.456161909978361"><ele>461.5</ele><time>2026-04-04T10:12:35Z</time></trkpt><trkpt lat="41.410101214049014" lon="13.45620025409247"><ele>465.0</ele><time>2026-04-04T10:12:36Z</time></trkpt><trkpt lat="41.40995666949092" lon="13.456214854173645"><ele>465.0</ele><time>2026-04-04T10:12:37Z</time></trkpt><trkpt lat="41.40982696710062" lon="13.456266078300521"><ele>465.0</ele><time>2026-04-04T10:12:38Z</time></trkpt><trkpt lat="41.40971308789309" lon="13.456369973995972"><ele>465.0</ele><time>2026-04-04T10:12:39Z</time></trkpt><trkpt lat="41.40963108264419" lon="13.456511041708605"><ele>465.0</ele><time>2026-04-04T10:12:40Z</time></trkpt><trkpt lat="41.40958084277894" lon="13.45665640553048"><ele>464.4</ele><time>2026-04-04T10:12:41Z</time></trkpt><trkpt lat="41.40955880619635" lon="13.456802059365224"><ele>463.8</ele><time>2026-04-04T10:12:42Z</time></trkpt><trkpt lat="41.40954134350743" lon="13.45694755867114"><ele>463.20000000000005</ele><time>2026-04-04T10:12:43Z</time></trkpt><trkpt lat="41.40952252817215" lon="13.457094304323387"><ele>462.6</ele><time>2026-04-04T10:12:44Z</time></trkpt><trkpt lat="41.40949963640842" lon="13.45724571172954"><ele>462.0</ele><time>2026-04-04T10:12:45Z</time></trkpt><trkpt lat="41.40947169739543" lon="13.457406081933943"><ele>461.5</ele><time>2026-04-04T10:12:46Z</time></trkpt><trkpt lat="41.409447727088384" lon="13.457570902945942"><ele>461.0</ele><time>2026-04-04T10:12:47Z</time></trkpt><trkpt lat="41.40941275352039" lon="13.457740795042904"><ele>460.5</ele><time>2026-04-04T10:12:48Z</time></trkpt><trkpt lat="41.40936861446379" lon="13.457909105606436"><ele>460.0</ele><time>2026-04-04T10:12:49Z</time></trkpt><trkpt lat="41.40931359216747" lon="13.45807334155965"><ele>457.5</ele><time>2026-04-04T10:12:50Z</time></trkpt><trkpt lat="41.40925502493092" lon="13.45824027353926"><ele>455.0</ele><time>2026-04-04T10:12:51Z</time></trkpt><trkpt lat="41.409197531949374" lon="13.458412380443198"><ele>452.5</ele><time>2026-04-04T10:12:52Z</time></trkpt><trkpt lat="41.40914010293257" lon="13.458585857302607"><ele>450.0</ele><time>2026-04-04T10:12:53Z</time></trkpt><trkpt lat="41.40907746417744" lon="13.45874814510179"><ele>447.0</ele><time>2026-04-04T10:12:54Z</time></trkpt><trkpt lat="41.40902237177514" lon="13.458897980746343"><ele>444.0</ele><time>2026-04-04T10:12:55Z</time></trkpt><trkpt lat="41.408973703293796" lon="13.459034275523914"><ele>441.0</ele><time>2026-04-04T10:12:56Z</time></trkpt><trkpt lat="41.408930354327225" lon="13.459158724479728"><ele>438.0</ele><time>2026-04-04T10:12:57Z</time></trkpt><trkpt lat="41.40889462749853" lon="13.459278184558597"><ele>435.0</ele><time>2026-04-04T10:12:58Z</time></trkpt><trkpt lat="41.408881677683446" lon="13.4593992982187"><ele>435.00000000000006</ele><time>2026-04-04T10:12:59Z</time></trkpt><trkpt lat="41.40887363242324" lon="13.45951481289017"><ele>435.0</ele><time>2026-04-04T10:13:00Z</time></trkpt><trkpt lat="41.40886765142783" lon="13.45962234636526"><ele>435.0</ele><time>2026-04-04T10:13:01Z</time></trkpt><trkpt lat="41.408865066954455" lon="13.459719594218633"><ele>435.0</ele><time>2026-04-04T10:13:02Z</time></trkpt><trkpt lat="41.40886038451853" lon="13.459814032863191"><ele>435.0</ele><time>2026-04-04T10:13:03Z</time></trkpt><trkpt lat="41.40885646519119" lon="13.45990257311099"><ele>435.00000000000006</ele><time>2026-04-04T10:13:04Z</time></trkpt><trkpt lat="41.40886065414142" lon="13.459987437962486"><ele>435.0</ele><time>2026-04-04T10:13:05Z</time></trkpt><trkpt lat="41.408870606320974" lon="13.460110327839644"><ele>435.0</ele><time>2026-04-04T10:13:07Z</time></trkpt><trkpt lat="41.40889021690129" lon="13.460211120122278"><ele>435.0</ele><time>2026-04-04T10:13:11Z</time></trkpt><trkpt lat="41.40894927253145" lon="13.460360704767945"><ele>435.0</ele><time>2026-04-04T10:13:14Z</time></trkpt><trkpt lat="41.40898065533725" lon="13.460467932428724"><ele>435.0</ele><time>2026-04-04T10:13:15Z</time></trkpt><trkpt lat="41.409021909353335" lon="13.460583755917728"><ele>435.0</ele><time>2026-04-04T10:13:16Z</time></trkpt><trkpt lat="41.409064373132374" lon="13.460701221878564"><ele>435.0</ele><time>2026-04-04T10:13:17Z</time></trkpt><trkpt lat="41.40909864318014" lon="13.460807844185206"><ele>435.0</ele><time>2026-04-04T10:13:18Z</time></trkpt><trkpt lat="41.4091205071179" lon="13.460910698079804"><ele>435.0</ele><time>2026-04-04T10:13:19Z</time></trkpt><trkpt lat="41.409135847621805" lon="13.461007137859097"><ele>435.0</ele><time>2026-04-04T10:13:20Z</time></trkpt><trkpt lat="41.40914536214211" lon="13.461107453215327"><ele>435.0</ele><time>2026-04-04T10:13:21Z</time></trkpt><trkpt lat="41.409163718207544" lon="13.461211443093998"><ele>435.0</ele><time>2026-04-04T10:13:22Z</time></trkpt><trkpt lat="41.40919494103046" lon="13.461291123145712"><ele>436.6</ele><time>2026-04-04T10:13:23Z</time></trkpt><trkpt lat="41.40924823864946" lon="13.461342614851365"><ele>438.2</ele><time>2026-04-04T10:13:24Z</time></trkpt><trkpt lat="41.409322955594725" lon="13.461360102840683"><ele>439.79999999999995</ele><time>2026-04-04T10:13:25Z</time></trkpt><trkpt lat="41.40943908624512" lon="13.461353660045868"><ele>441.4</ele><time>2026-04-04T10:13:26Z</time></trkpt><trkpt lat="41.40955261575721" lon="13.461372842893475"><ele>443.0</ele><time>2026-04-04T10:13:27Z</time></trkpt><trkpt lat="41.409657429999264" lon="13.461413301548555"><ele>438.25</ele><time>2026-04-04T10:13:28Z</time></trkpt><trkpt lat="41.40976082130633" lon="13.461474770103912"><ele>433.5</ele><time>2026-04-04T10:13:29Z</time></trkpt><trkpt lat="41.40986117866802" lon="13.461561850533199"><ele>428.75</ele><time>2026-04-04T10:13:30Z</time></trkpt><trkpt lat="41.40994601512807" lon="13.461661839835708"><ele>424.0</ele><time>2026-04-04T10:13:31Z</time></trkpt><trkpt lat="41.410028685018105" lon="13.461759769923097"><ele>424.0</ele><time>2026-04-04T10:13:32Z</time></trkpt><trkpt lat="41.41008978561682" lon="13.461854627853763"><ele>424.0</ele><time>2026-04-04T10:13:33Z</time></trkpt><trkpt lat="41.41013297567696" lon="13.461954337815335"><ele>424.0</ele><time>2026-04-04T10:13:34Z</time></trkpt><trkpt lat="41.410147646465134" lon="13.462068455731945"><ele>424.0</ele><time>2026-04-04T10:13:35Z</time></trkpt><trkpt lat="41.41013881014073" lon="13.46219373322589"><ele>424.0</ele><time>2026-04-04T10:13:36Z</time></trkpt><trkpt lat="41.410113549410596" lon="13.462345771846389"><ele>422.25</ele><time>2026-04-04T10:13:37Z</time></trkpt><trkpt lat="41.41007029631697" lon="13.462519124810276"><ele>420.5</ele><time>2026-04-04T10:13:38Z</time></trkpt><trkpt lat="41.410016399717406" lon="13.462706614148432"><ele>418.75</ele><time>2026-04-04T10:13:39Z</time></trkpt><trkpt lat="41.40997592040059" lon="13.462887004628138"><ele>417.0</ele><time>2026-04-04T10:13:40Z</time></trkpt><trkpt lat="41.40993148438861" lon="13.463053612464053"><ele>417.0</ele><time>2026-04-04T10:13:41Z</time></trkpt><trkpt lat="41.409866245883485" lon="13.463186296431275"><ele>417.0</ele><time>2026-04-04T10:13:42Z</time></trkpt><trkpt lat="41.40978161244965" lon="13.463283104638773"><ele>417.0</ele><time>2026-04-04T10:13:43Z</time></trkpt><trkpt lat="41.40967556377946" lon="13.463311210470351"><ele>417.0</ele><time>2026-04-04T10:13:44Z</time></trkpt><trkpt lat="41.409552681471276" lon="13.463325293717213"><ele>417.5</ele><time>2026-04-04T10:13:45Z</time></trkpt><trkpt lat="41.40941836094664" lon="13.46331082105974"><ele>418.0</ele><time>2026-04-04T10:13:46Z</time></trkpt><trkpt lat="41.409298047510966" lon="13.46326466695803"><ele>418.5</ele><time>2026-04-04T10:13:47Z</time></trkpt><trkpt lat="41.40918623590243" lon="13.463229407901014"><ele>419.0</ele><time>2026-04-04T10:13:48Z</time></trkpt><trkpt lat="41.40908527840293" lon="13.46314261908138"><ele>419.0</ele><time>2026-04-04T10:13:49Z</time></trkpt><trkpt lat="41.408974146696906" lon="13.463088389324366"><ele>419.0</ele><time>2026-04-04T10:13:50Z</time></trkpt><trkpt lat="41.40888743167909" lon="13.463005935535033"><ele>419.0</ele><time>2026-04-04T10:13:51Z</time></trkpt><trkpt lat="41.408825533513955" lon="13.462922752082605"><ele>419.0</ele><time>2026-04-04T10:13:52Z</time></trkpt><trkpt lat="41.408780500771" lon="13.462848747070202"><ele>419.0</ele><time>2026-04-04T10:13:53Z</time></trkpt><trkpt lat="41.40873463633077" lon="13.462763601667262"><ele>418.1428571428571</ele><time>2026-04-04T10:13:55Z</time></trkpt><trkpt lat="41.40869188275843" lon="13.462686231782993"><ele>417.2857142857143</ele><time>2026-04-04T10:13:59Z</time></trkpt><trkpt lat="41.408656169896496" lon="13.462614150723288"><ele>416.42857142857144</ele><time>2026-04-04T10:14:04Z</time></trkpt><trkpt lat="41.40860769077967" lon="13.462542851306923"><ele>415.57142857142856</ele><time>2026-04-04T10:14:07Z</time></trkpt><trkpt lat="41.408564875979096" lon="13.462462573993497"><ele>414.7142857142857</ele><time>2026-04-04T10:14:09Z</time></trkpt><trkpt lat="41.40852173502926" lon="13.46237342890201"><ele>413.85714285714283</ele><time>2026-04-04T10:14:11Z</time></trkpt><trkpt lat="41.40848512031209" lon="13.462282910399846"><ele>413.0</ele><time>2026-04-04T10:14:13Z</time></trkpt><trkpt lat="41.40846722565315" lon="13.46219570506723"><ele>415.8333333333333</ele><time>2026-04-04T10:14:15Z</time></trkpt><trkpt lat="41.40841687128839" lon="13.46210044387678"><ele>418.66666666666663</ele><time>2026-04-04T10:14:18Z</time></trkpt><trkpt lat="41.40838377766841" lon="13.462027500440225"><ele>421.5</ele><time>2026-04-04T10:14:20Z</time></trkpt><trkpt lat="41.4083365037951" lon="13.461943633399148"><ele>424.33333333333337</ele><time>2026-04-04T10:14:22Z</time></trkpt><trkpt lat="41.40829067894923" lon="13.461880307449553"><ele>427.1666666666667</ele><time>2026-04-04T10:14:24Z</time></trkpt><trkpt lat="41.40821996981621" lon="13.46180037746807"><ele>430.0</ele><time>2026-04-04T10:14:26Z</time></trkpt><trkpt lat="41.40815450095478" lon="13.461753937494874"><ele>430.00000000000006</ele><time>2026-04-04T10:14:28Z</time></trkpt><trkpt lat="41.4080970867336" lon="13.461719143831195"><ele>430.0</ele><time>2026-04-04T10:14:31Z</time></trkpt><trkpt lat="41.408036668082055" lon="13.461650547964352"><ele>430.0</ele><time>2026-04-04T10:14:35Z</time></trkpt><trkpt lat="41.407942709634185" lon="13.461612244870627"><ele>430.0</ele><time>2026-04-04T10:14:38Z</time></trkpt><trkpt lat="41.40785729812946" lon="13.46157957933667"><ele>430.00000000000006</ele><time>2026-04-04T10:14:40Z</time></trkpt><trkpt lat="41.40775878334252" lon="13.461584709838155"><ele>430.0</ele><time>2026-04-04T10:14:42Z</time></trkpt><trkpt lat="41.40769586362452" lon="13.461603313275157"><ele>429.2</ele><time>2026-04-04T10:14:45Z</time></trkpt><trkpt lat="41.40760954056578" lon="13.461640165960391"><ele>428.4</ele><time>2026-04-04T10:14:56Z</time></trkpt><trkpt lat="41.407521520903764" lon="13.461684570499285"><ele>427.6</ele><time>2026-04-04T10:14:58Z</time></trkpt><trkpt lat="41.40742965161608" lon="13.461735450236244"><ele>426.8</ele><time>2026-04-04T10:15:00Z</time></trkpt><trkpt lat="41.407326274204124" lon="13.461795558784186"><ele>426.0</ele><time>2026-04-04T10:15:02Z</time></trkpt><trkpt lat="41.40726594094959" lon="13.461830689543955"><ele>425.99999999999994</ele><time>2026-04-04T10:15:03Z</time></trkpt><trkpt lat="41.40720688868675" lon="13.461888558871172"><ele>426.0</ele><time>2026-04-04T10:15:04Z</time></trkpt><trkpt lat="41.407143243576364" lon="13.461924454936907"><ele>426.0</ele><time>2026-04-04T10:15:05Z</time></trkpt><trkpt lat="41.4070860504521" lon="13.461970682637961"><ele>426.0</ele><time>2026-04-04T10:15:06Z</time></trkpt><trkpt lat="41.40702679021396" lon="13.46202202503665"><ele>426.0</ele><time>2026-04-04T10:15:07Z</time></trkpt><trkpt lat="41.40697041308056" lon="13.462098321264122"><ele>425.99999999999994</ele><time>2026-04-04T10:15:08Z</time></trkpt><trkpt lat="41.40690745215632" lon="13.462172720340842"><ele>426.0</ele><time>2026-04-04T10:15:09Z</time></trkpt><trkpt lat="41.40684337390984" lon="13.462249446905764"><ele>425.1666666666667</ele><time>2026-04-04T10:15:10Z</time></trkpt><trkpt lat="41.406781995770125" lon="13.46232760210664"><ele>424.33333333333337</ele><time>2026-04-04T10:15:11Z</time></trkpt><trkpt lat="41.40671809456366" lon="13.462405183687194"><ele>423.5</ele><time>2026-04-04T10:15:12Z</time></trkpt><trkpt lat="41.40665329609579" lon="13.462478240747794"><ele>422.6666666666667</ele><time>2026-04-04T10:15:13Z</time></trkpt><trkpt lat="41.40659012802523" lon="13.462549842196895"><ele>421.83333333333337</ele><time>2026-04-04T10:15:14Z</time></trkpt><trkpt lat="41.40652441171424" lon="13.462621199210451"><ele>421.0</ele><time>2026-04-04T10:15:15Z</time></trkpt><trkpt lat="41.40646132691752" lon="13.462690760488792"><ele>421.0</ele><time>2026-04-04T10:15:16Z</time></trkpt><trkpt lat="41.4063965707744" lon="13.462766259102565"><ele>421.0</ele><time>2026-04-04T10:15:17Z</time></trkpt><trkpt lat="41.4063270107649" lon="13.462836209897"><ele>421.0</ele><time>2026-04-04T10:15:18Z</time></trkpt><trkpt lat="41.40624737353053" lon="13.462907766416983"><ele>421.0</ele><time>2026-04-04T10:15:19Z</time></trkpt><trkpt lat="41.406159006195324" lon="13.462974074386537"><ele>421.0</ele><time>2026-04-04T10:15:20Z</time></trkpt><trkpt lat="41.406067378135496" lon="13.463035702878653"><ele>419.20000000000005</ele><time>2026-04-04T10:15:21Z</time></trkpt><trkpt lat="41.405976695168015" lon="13.463096424315408"><ele>417.40000000000003</ele><time>2026-04-04T10:15:22Z</time></trkpt><trkpt lat="41.40588038883633" lon="13.46314942910941"><ele>415.6</ele><time>2026-04-04T10:15:23Z</time></trkpt><trkpt lat="41.40578265160529" lon="13.463202305749006"><ele>413.8</ele><time>2026-04-04T10:15:24Z</time></trkpt><trkpt lat="41.40568713416765" lon="13.463230908588566"><ele>412.0</ele><time>2026-04-04T10:15:25Z</time></trkpt><trkpt lat="41.40558246615886" lon="13.463275126035951"><ele>413.0</ele><time>2026-04-04T10:15:26Z</time></trkpt><trkpt lat="41.405471123603476" lon="13.463314907506781"><ele>414.0</ele><time>2026-04-04T10:15:27Z</time></trkpt><trkpt lat="41.4053458583457" lon="13.46335785144022"><ele>415.0</ele><time>2026-04-04T10:15:28Z</time></trkpt><trkpt lat="41.40522582616502" lon="13.463395883354938"><ele>416.0</ele><time>2026-04-04T10:15:29Z</time></trkpt><trkpt lat="41.40509830699782" lon="13.463435903988934"><ele>416.0</ele><time>2026-04-04T10:15:30Z</time></trkpt><trkpt lat="41.404980520222296" lon="13.463478808564883"><ele>416.0</ele><time>2026-04-04T10:15:31Z</time></trkpt><trkpt lat="41.404872255168286" lon="13.463512206038972"><ele>416.0</ele><time>2026-04-04T10:15:32Z</time></trkpt><trkpt lat="41.40477342508411" lon="13.463539381671131"><ele>416.0</ele><time>2026-04-04T10:15:33Z</time></trkpt><trkpt lat="41.40467355494448" lon="13.46357831309907"><ele>416.0</ele><time>2026-04-04T10:15:34Z</time></trkpt><trkpt lat="41.40458307886509" lon="13.463640428582984"><ele>415.4</ele><time>2026-04-04T10:15:35Z</time></trkpt><trkpt lat="41.40451052673866" lon="13.463737853299797"><ele>414.8</ele><time>2026-04-04T10:15:36Z</time></trkpt><trkpt lat="41.40447412588361" lon="13.463868661893173"><ele>414.2</ele><time>2026-04-04T10:15:37Z</time></trkpt><trkpt lat="41.40446014575577" lon="13.464001316757132"><ele>413.59999999999997</ele><time>2026-04-04T10:15:38Z</time></trkpt><trkpt lat="41.40444406311625" lon="13.464145324307426"><ele>413.0</ele><time>2026-04-04T10:15:39Z</time></trkpt><trkpt lat="41.404413055447044" lon="13.464287584607272"><ele>413.0</ele><time>2026-04-04T10:15:40Z</time></trkpt><trkpt lat="41.404367118066205" lon="13.464423990247287"><ele>413.0</ele><time>2026-04-04T10:15:41Z</time></trkpt><trkpt lat="41.40429474315949" lon="13.464542142710755"><ele>413.0</ele><time>2026-04-04T10:15:42Z</time></trkpt><trkpt lat="41.40419399491247" lon="13.464643566508606"><ele>413.0</ele><time>2026-04-04T10:15:43Z</time></trkpt><trkpt lat="41.40407197799771" lon="13.464730839288459"><ele>407.0</ele><time>2026-04-04T10:15:44Z</time></trkpt><trkpt lat="41.40394381273312" lon="13.464800106267216"><ele>401.0</ele><time>2026-04-04T10:15:45Z</time></trkpt><trkpt lat="41.40380871056815" lon="13.464835711434619"><ele>395.0</ele><time>2026-04-04T10:15:46Z</time></trkpt><trkpt lat="41.403679168542304" lon="13.464815109085572"><ele>389.0</ele><time>2026-04-04T10:15:47Z</time></trkpt><trkpt lat="41.403544090969014" lon="13.464804417721542"><ele>389.0</ele><time>2026-04-04T10:15:48Z</time></trkpt><trkpt lat="41.40340719338231" lon="13.464755926983917"><ele>389.0</ele><time>2026-04-04T10:15:49Z</time></trkpt><trkpt lat="41.40326393996553" lon="13.464725855907929"><ele>389.0</ele><time>2026-04-04T10:15:50Z</time></trkpt><trkpt lat="41.40313111548104" lon="13.46470807852197"><ele>389.0</ele><time>2026-04-04T10:15:51Z</time></trkpt><trkpt lat="41.4029974466563" lon="13.464716557549723"><ele>390.5</ele><time>2026-04-04T10:15:52Z</time></trkpt><trkpt lat="41.402879231805976" lon="13.464752318131215"><ele>392.0</ele><time>2026-04-04T10:15:53Z</time></trkpt><trkpt lat="41.40277891581641" lon="13.464799728112748"><ele>393.5</ele><time>2026-04-04T10:15:54Z</time></trkpt><trkpt lat="41.40267678540938" lon="13.464868043920909"><ele>395.0</ele><time>2026-04-04T10:15:55Z</time></trkpt><trkpt lat="41.40256754214545" lon="13.464957073547078"><ele>395.0</ele><time>2026-04-04T10:15:56Z</time></trkpt><trkpt lat="41.402443738863354" lon="13.465067839059953"><ele>395.0</ele><time>2026-04-04T10:15:57Z</time></trkpt><trkpt lat="41.40228108417657" lon="13.465171299439586"><ele>395.0</ele><time>2026-04-04T10:15:58Z</time></trkpt><trkpt lat="41.40209508698774" lon="13.46528236830457"><ele>398.3333333333333</ele><time>2026-04-04T10:15:59Z</time></trkpt><trkpt lat="41.40190704388468" lon="13.465393804132853"><ele>401.66666666666663</ele><time>2026-04-04T10:16:00Z</time></trkpt><trkpt lat="41.40171769321694" lon="13.465521822620557"><ele>405.0</ele><time>2026-04-04T10:16:01Z</time></trkpt><trkpt lat="41.40153180547433" lon="13.465653398124186"><ele>400.33333333333337</ele><time>2026-04-04T10:16:02Z</time></trkpt><trkpt lat="41.40135592853303" lon="13.465769864235797"><ele>395.6666666666667</ele><time>2026-04-04T10:16:03Z</time></trkpt><trkpt lat="41.401181246463025" lon="13.465885723344222"><ele>391.0</ele><time>2026-04-04T10:16:04Z</time></trkpt><trkpt lat="41.401015508105885" lon="13.466000683377958"><ele>391.0</ele><time>2026-04-04T10:16:05Z</time></trkpt><trkpt lat="41.400859335246146" lon="13.466110215600716"><ele>391.0</ele><time>2026-04-04T10:16:06Z</time></trkpt><trkpt lat="41.40070717263286" lon="13.466212464835195"><ele>391.0</ele><time>2026-04-04T10:16:07Z</time></trkpt><trkpt lat="41.4005643338262" lon="13.466317113811938"><ele>386.75</ele><time>2026-04-04T10:16:08Z</time></trkpt><trkpt lat="41.400431046555255" lon="13.466405914708892"><ele>382.5</ele><time>2026-04-04T10:16:09Z</time></trkpt><trkpt lat="41.400294346069764" lon="13.466443278206564"><ele>378.25</ele><time>2026-04-04T10:16:10Z</time></trkpt><trkpt lat="41.40014586738442" lon="13.466445077658033"><ele>374.0</ele><time>2026-04-04T10:16:11Z</time></trkpt><trkpt lat="41.39998459886482" lon="13.466455210780216"><ele>374.0</ele><time>2026-04-04T10:16:12Z</time></trkpt><trkpt lat="41.39983406188848" lon="13.466446760758766"><ele>374.0</ele><time>2026-04-04T10:16:13Z</time></trkpt><trkpt lat="41.39969098588576" lon="13.466451954087038"><ele>374.0</ele><time>2026-04-04T10:16:14Z</time></trkpt><trkpt lat="41.39956229322742" lon="13.466467404132148"><ele>374.0</ele><time>2026-04-04T10:16:15Z</time></trkpt><trkpt lat="41.3994530536119" lon="13.466488570242957"><ele>373.6</ele><time>2026-04-04T10:16:16Z</time></trkpt><trkpt lat="41.3993743601493" lon="13.466605082899482"><ele>373.2</ele><time>2026-04-04T10:16:17Z</time></trkpt><trkpt lat="41.399301437142796" lon="13.466726736064484"><ele>372.8</ele><time>2026-04-04T10:16:18Z</time></trkpt><trkpt lat="41.39925138088083" lon="13.466839191457332"><ele>372.40000000000003</ele><time>2026-04-04T10:16:19Z</time></trkpt><trkpt lat="41.399206571796796" lon="13.466927164135305"><ele>372.0</ele><time>2026-04-04T10:16:20Z</time></trkpt><trkpt lat="41.39915459183093" lon="13.466977230200099"><ele>372.0</ele><time>2026-04-04T10:16:21Z</time></trkpt><trkpt lat="41.399085173176545" lon="13.46701372874846"><ele>372.0</ele><time>2026-04-04T10:16:23Z</time></trkpt><trkpt lat="41.399018196330175" lon="13.46706002569704"><ele>372.0</ele><time>2026-04-04T10:16:26Z</time></trkpt><trkpt lat="41.39901825669366" lon="13.467163251199171"><ele>372.0</ele><time>2026-04-04T10:16:28Z</time></trkpt><trkpt lat="41.39902959133442" lon="13.467280189308243"><ele>372.0</ele><time>2026-04-04T10:16:30Z</time></trkpt><trkpt lat="41.399046413739605" lon="13.46738990047528"><ele>372.0</ele><time>2026-04-04T10:16:31Z</time></trkpt><trkpt lat="41.39900020105674" lon="13.467488951642112"><ele>371.8</ele><time>2026-04-04T10:16:32Z</time></trkpt><trkpt lat="41.3989618775257" lon="13.467600505941014"><ele>371.6</ele><time>2026-04-04T10:16:33Z</time></trkpt><trkpt lat="41.39891361105418" lon="13.46771058569873"><ele>371.40000000000003</ele><time>2026-04-04T10:16:34Z</time></trkpt><trkpt lat="41.39886190385922" lon="13.467831007353624"><ele>371.20000000000005</ele><time>2026-04-04T10:16:35Z</time></trkpt><trkpt lat="41.3988100791248" lon="13.467959481712432"><ele>371.0</ele><time>2026-04-04T10:16:36Z</time></trkpt><trkpt lat="41.398755964033704" lon="13.468087522228986"><ele>371.6</ele><time>2026-04-04T10:16:37Z</time></trkpt><trkpt lat="41.39870987562089" lon="13.468221509668176"><ele>372.20000000000005</ele><time>2026-04-04T10:16:38Z</time></trkpt><trkpt lat="41.39868519499513" lon="13.468364406491322"><ele>372.79999999999995</ele><time>2026-04-04T10:16:39Z</time></trkpt><trkpt lat="41.398687677500426" lon="13.46850699209078"><ele>373.4</ele><time>2026-04-04T10:16:40Z</time></trkpt><trkpt lat="41.39870211150207" lon="13.468624504294876"><ele>374.0</ele><time>2026-04-04T10:16:41Z</time></trkpt><trkpt lat="41.398709044465924" lon="13.468724902076184"><ele>374.5</ele><time>2026-04-04T10:16:42Z</time></trkpt><trkpt lat="41.39873487959106" lon="13.468804047202656"><ele>375.0</ele><time>2026-04-04T10:16:43Z</time></trkpt><trkpt lat="41.39874973044445" lon="13.468934272056634"><ele>375.5</ele><time>2026-04-04T10:16:45Z</time></trkpt><trkpt lat="41.398685964567264" lon="13.469002470044792"><ele>376.0</ele><time>2026-04-04T10:16:46Z</time></trkpt><trkpt lat="41.39869331671259" lon="13.469091878912813"><ele>376.5</ele><time>2026-04-04T10:16:48Z</time></trkpt><trkpt lat="41.398702024279785" lon="13.469198784102762"><ele>377.0</ele><time>2026-04-04T10:16:51Z</time></trkpt><trkpt lat="41.398752808790206" lon="13.469261183380935"><ele>377.0</ele><time>2026-04-04T10:17:20Z</time></trkpt><trkpt lat="41.39879044785287" lon="13.469374671124351"><ele>377.0</ele><time>2026-04-04T10:17:22Z</time></trkpt><trkpt lat="41.39880356152933" lon="13.469493863405173"><ele>377.0</ele><time>2026-04-04T10:17:23Z</time></trkpt><trkpt lat="41.3988164587044" lon="13.46963144245353"><ele>377.0</ele><time>2026-04-04T10:17:24Z</time></trkpt><trkpt lat="41.39885822108334" lon="13.469765728137801"><ele>377.0</ele><time>2026-04-04T10:17:25Z</time></trkpt><trkpt lat="41.39888402295871" lon="13.46992087300075"><ele>376.5</ele><time>2026-04-04T10:17:26Z</time></trkpt><trkpt lat="41.39892818415553" lon="13.470083520493038"><ele>376.0</ele><time>2026-04-04T10:17:27Z</time></trkpt><trkpt lat="41.398996122365375" lon="13.470239115668456"><ele>375.5</ele><time>2026-04-04T10:17:28Z</time></trkpt><trkpt lat="41.3990912858649" lon="13.47038867589037"><ele>375.0</ele><time>2026-04-04T10:17:29Z</time></trkpt><trkpt lat="41.39919569130315" lon="13.470555236172308"><ele>375.0</ele><time>2026-04-04T10:17:30Z</time></trkpt><trkpt lat="41.39933224248138" lon="13.470715588568266"><ele>375.0</ele><time>2026-04-04T10:17:31Z</time></trkpt><trkpt lat="41.39946229736392" lon="13.470882950797659"><ele>375.0</ele><time>2026-04-04T10:17:32Z</time></trkpt><trkpt lat="41.39959324355101" lon="13.471056510589824"><ele>372.3333333333333</ele><time>2026-04-04T10:17:33Z</time></trkpt><trkpt lat="41.39972627527707" lon="13.47123468519443"><ele>369.66666666666663</ele><time>2026-04-04T10:17:34Z</time></trkpt><trkpt lat="41.399856983876354" lon="13.471407128536764"><ele>367.0</ele><time>2026-04-04T10:17:35Z</time></trkpt><trkpt lat="41.39998360012013" lon="13.471567508436582"><ele>367.0</ele><time>2026-04-04T10:17:36Z</time></trkpt><trkpt lat="41.40012082398134" lon="13.471708752927135"><ele>367.0</ele><time>2026-04-04T10:17:37Z</time></trkpt><trkpt lat="41.400287138265405" lon="13.47182670694825"><ele>367.0</ele><time>2026-04-04T10:17:38Z</time></trkpt><trkpt lat="41.40045819496312" lon="13.471927510256585"><ele>371.66666666666663</ele><time>2026-04-04T10:17:39Z</time></trkpt><trkpt lat="41.40063056638236" lon="13.472034676837636"><ele>376.3333333333333</ele><time>2026-04-04T10:17:40Z</time></trkpt><trkpt lat="41.40079851922692" lon="13.472133404990373"><ele>381.0</ele><time>2026-04-04T10:17:41Z</time></trkpt><trkpt lat="41.40096482699422" lon="13.472228506231344"><ele>381.0</ele><time>2026-04-04T10:17:42Z</time></trkpt><trkpt lat="41.4011443581282" lon="13.472319880908856"><ele>381.0</ele><time>2026-04-04T10:17:43Z</time></trkpt><trkpt lat="41.40134149682352" lon="13.472395405735925"><ele>381.0</ele><time>2026-04-04T10:17:44Z</time></trkpt><trkpt lat="41.40154928422468" lon="13.472469811476461"><ele>373.0</ele><time>2026-04-04T10:17:45Z</time></trkpt><trkpt lat="41.40176191307749" lon="13.472543764563982"><ele>365.0</ele><time>2026-04-04T10:17:46Z</time></trkpt><trkpt lat="41.40197803386029" lon="13.472623151781654"><ele>357.0</ele><time>2026-04-04T10:17:47Z</time></trkpt><trkpt lat="41.40219063173915" lon="13.472705852755647"><ele>352.6666666666667</ele><time>2026-04-04T10:17:48Z</time></trkpt><trkpt lat="41.40240440721435" lon="13.472795939322813"><ele>348.33333333333337</ele><time>2026-04-04T10:17:49Z</time></trkpt><trkpt lat="41.40261488972058" lon="13.472885003742539"><ele>344.0</ele><time>2026-04-04T10:17:50Z</time></trkpt><trkpt lat="41.40281553396286" lon="13.47297343634046"><ele>348.33333333333337</ele><time>2026-04-04T10:17:51Z</time></trkpt><trkpt lat="41.4030025675179" lon="13.473066383467142"><ele>352.6666666666667</ele><time>2026-04-04T10:17:52Z</time></trkpt><trkpt lat="41.40318462732382" lon="13.473183704357616"><ele>357.0</ele><time>2026-04-04T10:17:53Z</time></trkpt><trkpt lat="41.40336821848742" lon="13.47331491611774"><ele>357.0</ele><time>2026-04-04T10:17:54Z</time></trkpt><trkpt lat="41.403550501723785" lon="13.473466478784674"><ele>357.0</ele><time>2026-04-04T10:17:55Z</time></trkpt><trkpt lat="41.40372572886698" lon="13.473638200337597"><ele>357.0</ele><time>2026-04-04T10:17:56Z</time></trkpt><trkpt lat="41.40390209605913" lon="13.4738140801152"><ele>355.0</ele><time>2026-04-04T10:17:57Z</time></trkpt><trkpt lat="41.404093596230645" lon="13.47397506947086"><ele>353.0</ele><time>2026-04-04T10:17:58Z</time></trkpt><trkpt lat="41.40427851051751" lon="13.474155485118045"><ele>353.0</ele><time>2026-04-04T10:17:59Z</time></trkpt><trkpt lat="41.40446259421845" lon="13.474335340965364"><ele>353.0</ele><time>2026-04-04T10:18:00Z</time></trkpt><trkpt lat="41.404647618245356" lon="13.474517300203694"><ele>352.0</ele><time>2026-04-04T10:18:01Z</time></trkpt><trkpt lat="41.40483699177808" lon="13.474702416319047"><ele>351.0</ele><time>2026-04-04T10:18:02Z</time></trkpt><trkpt lat="41.405029506571054" lon="13.474889066663486"><ele>351.0</ele><time>2026-04-04T10:18:03Z</time></trkpt><trkpt lat="41.405213466258694" lon="13.475069702036405"><ele>351.0</ele><time>2026-04-04T10:18:04Z</time></trkpt><trkpt lat="41.40539270178714" lon="13.475247834971194"><ele>349.3333333333333</ele><time>2026-04-04T10:18:05Z</time></trkpt><trkpt lat="41.40556292577854" lon="13.47544263087933"><ele>347.66666666666663</ele><time>2026-04-04T10:18:06Z</time></trkpt><trkpt lat="41.40573826020206" lon="13.475612819612694"><ele>346.0</ele><time>2026-04-04T10:18:07Z</time></trkpt><trkpt lat="41.40589607272023" lon="13.475773849588563"><ele>346.0</ele><time>2026-04-04T10:18:08Z</time></trkpt><trkpt lat="41.406053318831034" lon="13.475909622230592"><ele>346.0</ele><time>2026-04-04T10:18:09Z</time></trkpt><trkpt lat="41.40617971137842" lon="13.476060153867918"><ele>346.0</ele><time>2026-04-04T10:18:10Z</time></trkpt><trkpt lat="41.40627655482124" lon="13.476222146495322"><ele>347.25</ele><time>2026-04-04T10:18:11Z</time></trkpt><trkpt lat="41.40630911184681" lon="13.476395691650243"><ele>348.5</ele><time>2026-04-04T10:18:12Z</time></trkpt><trkpt lat="41.406314310709924" lon="13.476550680258065"><ele>349.75</ele><time>2026-04-04T10:18:13Z</time></trkpt><trkpt lat="41.406278087937245" lon="13.476719353922784"><ele>351.0</ele><time>2026-04-04T10:18:14Z</time></trkpt><trkpt lat="41.40622302015531" lon="13.476908003925539"><ele>350.25</ele><time>2026-04-04T10:18:15Z</time></trkpt><trkpt lat="41.40617854245243" lon="13.477108099089511"><ele>349.5</ele><time>2026-04-04T10:18:16Z</time></trkpt><trkpt lat="41.40617118743968" lon="13.477290407424526"><ele>348.75</ele><time>2026-04-04T10:18:17Z</time></trkpt><trkpt lat="41.40620139854216" lon="13.477459484492543"><ele>348.0</ele><time>2026-04-04T10:18:18Z</time></trkpt><trkpt lat="41.40627779056875" lon="13.477631919100343"><ele>345.3333333333333</ele><time>2026-04-04T10:18:19Z</time></trkpt><trkpt lat="41.40639384312373" lon="13.477782337633798"><ele>342.66666666666663</ele><time>2026-04-04T10:18:20Z</time></trkpt><trkpt lat="41.406550375203516" lon="13.477912296093779"><ele>340.0</ele><time>2026-04-04T10:18:21Z</time></trkpt><trkpt lat="41.406733899092934" lon="13.478032507059392"><ele>340.0</ele><time>2026-04-04T10:18:22Z</time></trkpt><trkpt lat="41.406934379597004" lon="13.47815921954158"><ele>340.0</ele><time>2026-04-04T10:18:23Z</time></trkpt><trkpt lat="41.407154839889905" lon="13.47829494243382"><ele>339.5</ele><time>2026-04-04T10:18:24Z</time></trkpt><trkpt lat="41.40740384200422" lon="13.47846007878568"><ele>339.0</ele><time>2026-04-04T10:18:25Z</time></trkpt><trkpt lat="41.40766317071527" lon="13.478626376492844"><ele>339.5</ele><time>2026-04-04T10:18:26Z</time></trkpt><trkpt lat="41.40793555679844" lon="13.47879066313616"><ele>340.0</ele><time>2026-04-04T10:18:27Z</time></trkpt><trkpt lat="41.40817240172234" lon="13.478942331223758"><ele>340.0</ele><time>2026-04-04T10:18:28Z</time></trkpt><trkpt lat="41.40839323734614" lon="13.479083075639949"><ele>340.0</ele><time>2026-04-04T10:18:29Z</time></trkpt><trkpt lat="41.408596754111045" lon="13.479212070415612"><ele>340.0</ele><time>2026-04-04T10:18:30Z</time></trkpt><trkpt lat="41.40878771789984" lon="13.479317325980457"><ele>340.0</ele><time>2026-04-04T10:18:31Z</time></trkpt><trkpt lat="41.40898591899741" lon="13.479388958241755"><ele>340.0</ele><time>2026-04-04T10:18:32Z</time></trkpt><trkpt lat="41.40919663654587" lon="13.479422251915055"><ele>338.3333333333333</ele><time>2026-04-04T10:18:33Z</time></trkpt><trkpt lat="41.40941827014287" lon="13.47942523301255"><ele>336.6666666666667</ele><time>2026-04-04T10:18:34Z</time></trkpt><trkpt lat="41.40964455397901" lon="13.479397660769076"><ele>335.0</ele><time>2026-04-04T10:18:35Z</time></trkpt><trkpt lat="41.40986918381038" lon="13.479346395124216"><ele>335.0</ele><time>2026-04-04T10:18:36Z</time></trkpt><trkpt lat="41.4100953542537" lon="13.479282942405943"><ele>335.0</ele><time>2026-04-04T10:18:37Z</time></trkpt><trkpt lat="41.41031790937399" lon="13.479225181538512"><ele>336.0</ele><time>2026-04-04T10:18:38Z</time></trkpt><trkpt lat="41.410537026156064" lon="13.47917874137873"><ele>337.0</ele><time>2026-04-04T10:18:39Z</time></trkpt><trkpt lat="41.410754459523446" lon="13.479149750970972"><ele>338.0</ele><time>2026-04-04T10:18:40Z</time></trkpt><trkpt lat="41.41097707426058" lon="13.479152955897575"><ele>338.0</ele><time>2026-04-04T10:18:41Z</time></trkpt><trkpt lat="41.41120352717361" lon="13.479170076192142"><ele>338.0</ele><time>2026-04-04T10:18:42Z</time></trkpt><trkpt lat="41.41143646174283" lon="13.479199718902153"><ele>337.0</ele><time>2026-04-04T10:18:43Z</time></trkpt><trkpt lat="41.411678204252546" lon="13.47922082635516"><ele>336.0</ele><time>2026-04-04T10:18:44Z</time></trkpt><trkpt lat="41.41192895912689" lon="13.47924223787474"><ele>337.0</ele><time>2026-04-04T10:18:45Z</time></trkpt><trkpt lat="41.41217683934573" lon="13.47926543980412"><ele>338.0</ele><time>2026-04-04T10:18:46Z</time></trkpt><trkpt lat="41.412407142970025" lon="13.479292824186624"><ele>338.0</ele><time>2026-04-04T10:18:47Z</time></trkpt><trkpt lat="41.41261884660199" lon="13.479318431503827"><ele>338.0</ele><time>2026-04-04T10:18:48Z</time></trkpt><trkpt lat="41.41281678376114" lon="13.479362258501032"><ele>338.0</ele><time>2026-04-04T10:18:49Z</time></trkpt><trkpt lat="41.41301825894754" lon="13.479462179380022"><ele>337.0</ele><time>2026-04-04T10:18:50Z</time></trkpt><trkpt lat="41.413224154830495" lon="13.479584537086021"><ele>336.0</ele><time>2026-04-04T10:18:51Z</time></trkpt><trkpt lat="41.41344712201535" lon="13.479703869146471"><ele>337.0</ele><time>2026-04-04T10:18:52Z</time></trkpt><trkpt lat="41.41366884845372" lon="13.479816395871383"><ele>338.0</ele><time>2026-04-04T10:18:53Z</time></trkpt><trkpt lat="41.41388696641079" lon="13.479935140989374"><ele>338.0</ele><time>2026-04-04T10:18:54Z</time></trkpt><trkpt lat="41.41410148022892" lon="13.480051197548017"><ele>338.0</ele><time>2026-04-04T10:18:55Z</time></trkpt><trkpt lat="41.41431278990047" lon="13.480167704956875"><ele>338.0</ele><time>2026-04-04T10:18:56Z</time></trkpt><trkpt lat="41.41452459158483" lon="13.480284429816045"><ele>338.0</ele><time>2026-04-04T10:18:57Z</time></trkpt><trkpt lat="41.41473981744341" lon="13.480398042625652"><ele>341.5</ele><time>2026-04-04T10:18:58Z</time></trkpt><trkpt lat="41.41495779818536" lon="13.480511945188628"><ele>345.0</ele><time>2026-04-04T10:18:59Z</time></trkpt><trkpt lat="41.41517487861146" lon="13.480628605175983"><ele>345.0</ele><time>2026-04-04T10:19:00Z</time></trkpt><trkpt lat="41.415393088270974" lon="13.480748726697405"><ele>345.0</ele><time>2026-04-04T10:19:01Z</time></trkpt><trkpt lat="41.415610440667876" lon="13.480866890977907"><ele>343.3333333333333</ele><time>2026-04-04T10:19:02Z</time></trkpt><trkpt lat="41.415825687448184" lon="13.480980026864964"><ele>341.66666666666663</ele><time>2026-04-04T10:19:03Z</time></trkpt><trkpt lat="41.41602359695272" lon="13.481087235175647"><ele>340.0</ele><time>2026-04-04T10:19:04Z</time></trkpt><trkpt lat="41.4162044172687" lon="13.481185369162393"><ele>341.3333333333333</ele><time>2026-04-04T10:19:05Z</time></trkpt><trkpt lat="41.416373105703464" lon="13.481277983900132"><ele>342.6666666666667</ele><time>2026-04-04T10:19:06Z</time></trkpt><trkpt lat="41.41653590000431" lon="13.48137717173121"><ele>344.0</ele><time>2026-04-04T10:19:07Z</time></trkpt><trkpt lat="41.416690515509046" lon="13.481488517727463"><ele>344.0</ele><time>2026-04-04T10:19:08Z</time></trkpt><trkpt lat="41.41683591879755" lon="13.481615998057231"><ele>344.0</ele><time>2026-04-04T10:19:09Z</time></trkpt><trkpt lat="41.41697677440275" lon="13.48175957558678"><ele>344.0</ele><time>2026-04-04T10:19:10Z</time></trkpt><trkpt lat="41.417123234003306" lon="13.481924565887626"><ele>344.0</ele><time>2026-04-04T10:19:11Z</time></trkpt><trkpt lat="41.417280091645736" lon="13.482096646466058"><ele>344.0</ele><time>2026-04-04T10:19:12Z</time></trkpt><trkpt lat="41.41744774192527" lon="13.482276278669799"><ele>344.0</ele><time>2026-04-04T10:19:13Z</time></trkpt><trkpt lat="41.41762638873168" lon="13.482468250259325"><ele>344.0</ele><time>2026-04-04T10:19:14Z</time></trkpt><trkpt lat="41.41782150098759" lon="13.482676680494235"><ele>344.0</ele><time>2026-04-04T10:19:15Z</time></trkpt><trkpt lat="41.41801793924315" lon="13.482902831606296"><ele>342.5</ele><time>2026-04-04T10:19:16Z</time></trkpt><trkpt lat="41.41820961117452" lon="13.483134143933892"><ele>341.0</ele><time>2026-04-04T10:19:17Z</time></trkpt><trkpt lat="41.418403001852816" lon="13.483352267768186"><ele>341.0</ele><time>2026-04-04T10:19:18Z</time></trkpt><trkpt lat="41.418596491153714" lon="13.483561729732253"><ele>341.0</ele><time>2026-04-04T10:19:19Z</time></trkpt><trkpt lat="41.418783101495265" lon="13.483770778389061"><ele>343.5</ele><time>2026-04-04T10:19:20Z</time></trkpt><trkpt lat="41.41895946082246" lon="13.483980952468608"><ele>346.0</ele><time>2026-04-04T10:19:21Z</time></trkpt><trkpt lat="41.419124743209466" lon="13.484202245950161"><ele>346.0</ele><time>2026-04-04T10:19:22Z</time></trkpt><trkpt lat="41.419272676509415" lon="13.484438785229624"><ele>346.0</ele><time>2026-04-04T10:19:23Z</time></trkpt><trkpt lat="41.41940456038525" lon="13.484693954136224"><ele>346.0</ele><time>2026-04-04T10:19:24Z</time></trkpt><trkpt lat="41.419530153572715" lon="13.484962855351535"><ele>346.0</ele><time>2026-04-04T10:19:25Z</time></trkpt><trkpt lat="41.419658487728306" lon="13.485234863686452"><ele>344.0</ele><time>2026-04-04T10:19:26Z</time></trkpt><trkpt lat="41.419786063322086" lon="13.485508061685621"><ele>342.0</ele><time>2026-04-04T10:19:27Z</time></trkpt><trkpt lat="41.419914686759725" lon="13.485782262574324"><ele>342.0</ele><time>2026-04-04T10:19:28Z</time></trkpt><trkpt lat="41.42004155412949" lon="13.486055276760489"><ele>342.0</ele><time>2026-04-04T10:19:29Z</time></trkpt><trkpt lat="41.420160514222786" lon="13.486328305147063"><ele>342.0</ele><time>2026-04-04T10:19:30Z</time></trkpt><trkpt lat="41.42026352358647" lon="13.48660643554934"><ele>342.0</ele><time>2026-04-04T10:19:31Z</time></trkpt><trkpt lat="41.42035207170372" lon="13.486890456660836"><ele>342.0</ele><time>2026-04-04T10:19:32Z</time></trkpt><trkpt lat="41.420427451765505" lon="13.487185887080884"><ele>342.0</ele><time>2026-04-04T10:19:33Z</time></trkpt><trkpt lat="41.42049193224619" lon="13.487497159950252"><ele>342.0</ele><time>2026-04-04T10:19:34Z</time></trkpt><trkpt lat="41.42055332142063" lon="13.487819060019428"><ele>342.0</ele><time>2026-04-04T10:19:35Z</time></trkpt><trkpt lat="41.42061931592456" lon="13.488162112585808"><ele>342.5</ele><time>2026-04-04T10:19:36Z</time></trkpt><trkpt lat="41.42069546504302" lon="13.488528449140519"><ele>343.0</ele><time>2026-04-04T10:19:37Z</time></trkpt><trkpt lat="41.420778135424946" lon="13.488926432321318"><ele>344.0</ele><time>2026-04-04T10:19:38Z</time></trkpt><trkpt lat="41.42085709257396" lon="13.489334941527284"><ele>345.0</ele><time>2026-04-04T10:19:39Z</time></trkpt><trkpt lat="41.420934101803034" lon="13.489693569281258"><ele>345.0</ele><time>2026-04-04T10:19:40Z</time></trkpt><trkpt lat="41.421002617281374" lon="13.490027814808341"><ele>345.0</ele><time>2026-04-04T10:19:41Z</time></trkpt><trkpt lat="41.42106695181403" lon="13.490339575348367"><ele>345.0</ele><time>2026-04-04T10:19:42Z</time></trkpt><trkpt lat="41.421124215946485" lon="13.490639065323288"><ele>345.0</ele><time>2026-04-04T10:19:43Z</time></trkpt><trkpt lat="41.421179677679845" lon="13.490911163167011"><ele>345.0</ele><time>2026-04-04T10:19:44Z</time></trkpt><trkpt lat="41.42126145576921" lon="13.491175430166198"><ele>346.0</ele><time>2026-04-04T10:19:45Z</time></trkpt><trkpt lat="41.421387139894115" lon="13.491409111614258"><ele>347.0</ele><time>2026-04-04T10:19:46Z</time></trkpt><trkpt lat="41.42149463386706" lon="13.491637728555295"><ele>348.0</ele><time>2026-04-04T10:19:47Z</time></trkpt><trkpt lat="41.421634136367764" lon="13.491801419902508"><ele>348.0</ele><time>2026-04-04T10:19:48Z</time></trkpt><trkpt lat="41.421778905794255" lon="13.491971090852312"><ele>348.0</ele><time>2026-04-04T10:19:49Z</time></trkpt><trkpt lat="41.42193258573826" lon="13.492162864939479"><ele>348.0</ele><time>2026-04-04T10:19:50Z</time></trkpt><trkpt lat="41.42209099320161" lon="13.492368952371475"><ele>348.0</ele><time>2026-04-04T10:19:51Z</time></trkpt><trkpt lat="41.42223675920639" lon="13.492612911682313"><ele>348.0</ele><time>2026-04-04T10:19:52Z</time></trkpt><trkpt lat="41.42237650605554" lon="13.492878987426923"><ele>344.5</ele><time>2026-04-04T10:19:53Z</time></trkpt><trkpt lat="41.422518642123315" lon="13.493159774194952"><ele>341.0</ele><time>2026-04-04T10:19:54Z</time></trkpt><trkpt lat="41.422670907752774" lon="13.493452763262242"><ele>339.0</ele><time>2026-04-04T10:19:55Z</time></trkpt><trkpt lat="41.4228188417882" lon="13.493760874771644"><ele>337.0</ele><time>2026-04-04T10:19:56Z</time></trkpt><trkpt lat="41.42296270976895" lon="13.494064749189212"><ele>335.5</ele><time>2026-04-04T10:19:57Z</time></trkpt><trkpt lat="41.42310287513104" lon="13.494366038509186"><ele>334.0</ele><time>2026-04-04T10:19:58Z</time></trkpt><trkpt lat="41.42323786778792" lon="13.494663308443634"><ele>333.0</ele><time>2026-04-04T10:19:59Z</time></trkpt><trkpt lat="41.42336706888334" lon="13.494943999268905"><ele>332.0</ele><time>2026-04-04T10:20:00Z</time></trkpt><trkpt lat="41.42350140463842" lon="13.495193303568696"><ele>332.0</ele><time>2026-04-04T10:20:01Z</time></trkpt><trkpt lat="41.4236377312759" lon="13.495422040380605"><ele>332.0</ele><time>2026-04-04T10:20:02Z</time></trkpt><trkpt lat="41.42376708984986" lon="13.495639631863027"><ele>332.0</ele><time>2026-04-04T10:20:03Z</time></trkpt><trkpt lat="41.42388222504969" lon="13.495855188188976"><ele>332.0</ele><time>2026-04-04T10:20:04Z</time></trkpt><trkpt lat="41.42397887881968" lon="13.496074214745084"><ele>332.0</ele><time>2026-04-04T10:20:05Z</time></trkpt><trkpt lat="41.42404842038333" lon="13.49632862871163"><ele>332.0</ele><time>2026-04-04T10:20:06Z</time></trkpt><trkpt lat="41.424102667205325" lon="13.496602054046784"><ele>329.0</ele><time>2026-04-04T10:20:07Z</time></trkpt><trkpt lat="41.424169626954786" lon="13.496874108170196"><ele>326.0</ele><time>2026-04-04T10:20:08Z</time></trkpt><trkpt lat="41.42426908665539" lon="13.497119084869526"><ele>323.0</ele><time>2026-04-04T10:20:09Z</time></trkpt><trkpt lat="41.42436163631353" lon="13.497347790817134"><ele>321.33333333333337</ele><time>2026-04-04T10:20:10Z</time></trkpt><trkpt lat="41.424477126270865" lon="13.49756094932414"><ele>319.6666666666667</ele><time>2026-04-04T10:20:11Z</time></trkpt><trkpt lat="41.42460619599055" lon="13.49777853977838"><ele>318.0</ele><time>2026-04-04T10:20:12Z</time></trkpt><trkpt lat="41.42476236665788" lon="13.497970441992546"><ele>317.3333333333333</ele><time>2026-04-04T10:20:13Z</time></trkpt><trkpt lat="41.42491352815564" lon="13.498168042785428"><ele>316.66666666666663</ele><time>2026-04-04T10:20:14Z</time></trkpt><trkpt lat="41.42504029083137" lon="13.498379960732406"><ele>316.0</ele><time>2026-04-04T10:20:15Z</time></trkpt><trkpt lat="41.42515990718849" lon="13.498579180513785"><ele>313.3333333333333</ele><time>2026-04-04T10:20:16Z</time></trkpt><trkpt lat="41.425264836546155" lon="13.498779591630926"><ele>310.6666666666667</ele><time>2026-04-04T10:20:17Z</time></trkpt><trkpt lat="41.42536385947604" lon="13.498981030456148"><ele>308.0</ele><time>2026-04-04T10:20:18Z</time></trkpt><trkpt lat="41.4254601353592" lon="13.499191935389346"><ele>309.0</ele><time>2026-04-04T10:20:19Z</time></trkpt><trkpt lat="41.425197396402346" lon="13.499741846189192"><ele>309.0</ele><time>2026-04-04T10:20:20Z</time></trkpt><trkpt lat="41.425195384997195" lon="13.500052696282925"><ele>309.0</ele><time>2026-04-04T10:20:21Z</time></trkpt><trkpt lat="41.42519447692044" lon="13.500366664750086"><ele>310.0</ele><time>2026-04-04T10:20:22Z</time></trkpt><trkpt lat="41.42519406557507" lon="13.5006779551233"><ele>311.0</ele><time>2026-04-04T10:20:23Z</time></trkpt><trkpt lat="41.42519497817639" lon="13.500971259217982"><ele>312.0</ele><time>2026-04-04T10:20:24Z</time></trkpt><trkpt lat="41.42519729472671" lon="13.501270271445408"><ele>313.0</ele><time>2026-04-04T10:20:25Z</time></trkpt><trkpt lat="41.425207969988065" lon="13.501567330003672"><ele>314.0</ele><time>2026-04-04T10:20:26Z</time></trkpt><trkpt lat="41.425221644158086" lon="13.501855735139985"><ele>315.0</ele><time>2026-04-04T10:20:27Z</time></trkpt><trkpt lat="41.42523910200757" lon="13.502146422821431"><ele>316.0</ele><time>2026-04-04T10:20:28Z</time></trkpt><trkpt lat="41.42526169392276" lon="13.502439351549832"><ele>317.0</ele><time>2026-04-04T10:20:29Z</time></trkpt><trkpt lat="41.42528929174096" lon="13.50273447397373"><ele>317.0</ele><time>2026-04-04T10:20:30Z</time></trkpt><trkpt lat="41.42530534977742" lon="13.50303502504211"><ele>317.0</ele><time>2026-04-04T10:20:31Z</time></trkpt><trkpt lat="41.42532641587762" lon="13.503323489814845"><ele>317.0</ele><time>2026-04-04T10:20:32Z</time></trkpt><trkpt lat="41.42534885455434" lon="13.503591049135379"><ele>315.0</ele><time>2026-04-04T10:20:33Z</time></trkpt><trkpt lat="41.42536384178055" lon="13.503843924987002"><ele>313.0</ele><time>2026-04-04T10:20:34Z</time></trkpt><trkpt lat="41.42538347238225" lon="13.504083950971259"><ele>311.0</ele><time>2026-04-04T10:20:35Z</time></trkpt><trkpt lat="41.42539915377401" lon="13.50432084997052"><ele>311.0</ele><time>2026-04-04T10:20:36Z</time></trkpt><trkpt lat="41.42541444244711" lon="13.504569577334"><ele>311.0</ele><time>2026-04-04T10:20:37Z</time></trkpt><trkpt lat="41.4254472618213" lon="13.504827786905606"><ele>311.0</ele><time>2026-04-04T10:20:38Z</time></trkpt><trkpt lat="41.42549748595976" lon="13.505089036895585"><ele>304.6666666666667</ele><time>2026-04-04T10:20:39Z</time></trkpt><trkpt lat="41.42555687793356" lon="13.505341640447437"><ele>298.3333333333333</ele><time>2026-04-04T10:20:40Z</time></trkpt><trkpt lat="41.42561794573502" lon="13.505574446589284"><ele>292.0</ele><time>2026-04-04T10:20:41Z</time></trkpt><trkpt lat="41.42567383607106" lon="13.505789974917132"><ele>292.0</ele><time>2026-04-04T10:20:42Z</time></trkpt><trkpt lat="41.4257175497435" lon="13.505995590741023"><ele>292.0</ele><time>2026-04-04T10:20:43Z</time></trkpt><trkpt lat="41.42575008814802" lon="13.50620705756284"><ele>292.0</ele><time>2026-04-04T10:20:44Z</time></trkpt><trkpt lat="41.4257569995782" lon="13.506438809875382"><ele>291.3333333333333</ele><time>2026-04-04T10:20:45Z</time></trkpt><trkpt lat="41.42573238422972" lon="13.506691305595254"><ele>290.6666666666667</ele><time>2026-04-04T10:20:46Z</time></trkpt><trkpt lat="41.425689308030876" lon="13.506980819615531"><ele>290.0</ele><time>2026-04-04T10:20:47Z</time></trkpt><trkpt lat="41.425646955716296" lon="13.507284432625612"><ele>288.0</ele><time>2026-04-04T10:20:48Z</time></trkpt><trkpt lat="41.42560342208362" lon="13.507586499013001"><ele>286.0</ele><time>2026-04-04T10:20:49Z</time></trkpt><trkpt lat="41.42556153582801" lon="13.50789608744185"><ele>284.66666666666663</ele><time>2026-04-04T10:20:50Z</time></trkpt><trkpt lat="41.425520544568585" lon="13.508188596395836"><ele>283.3333333333333</ele><time>2026-04-04T10:20:51Z</time></trkpt><trkpt lat="41.42547805379365" lon="13.508480211697751"><ele>282.0</ele><time>2026-04-04T10:20:52Z</time></trkpt><trkpt lat="41.425435777147264" lon="13.50877708056439"><ele>281.3333333333333</ele><time>2026-04-04T10:20:53Z</time></trkpt><trkpt lat="41.42539216745805" lon="13.509068427674112"><ele>280.66666666666663</ele><time>2026-04-04T10:20:54Z</time></trkpt><trkpt lat="41.42535073753175" lon="13.509357571080887"><ele>280.0</ele><time>2026-04-04T10:20:55Z</time></trkpt><trkpt lat="41.425312300551994" lon="13.509644661609032"><ele>280.0</ele><time>2026-04-04T10:20:56Z</time></trkpt><trkpt lat="41.42527601934438" lon="13.509903362427975"><ele>280.0</ele><time>2026-04-04T10:20:57Z</time></trkpt><trkpt lat="41.42524420235796" lon="13.510157781064867"><ele>280.0</ele><time>2026-04-04T10:20:58Z</time></trkpt><trkpt lat="41.425205841686235" lon="13.510412138123765"><ele>280.3333333333333</ele><time>2026-04-04T10:20:59Z</time></trkpt><trkpt lat="41.4251666074928" lon="13.510657708098304"><ele>280.6666666666667</ele><time>2026-04-04T10:21:00Z</time></trkpt><trkpt lat="41.425136927459114" lon="13.51088763387785"><ele>281.0</ele><time>2026-04-04T10:21:01Z</time></trkpt><trkpt lat="41.42511289803127" lon="13.5110991712053"><ele>282.0</ele><time>2026-04-04T10:21:02Z</time></trkpt><trkpt lat="41.42508693752371" lon="13.511277365729608"><ele>283.0</ele><time>2026-04-04T10:21:03Z</time></trkpt><trkpt lat="41.425063183362354" lon="13.511415727611578"><ele>284.0</ele><time>2026-04-04T10:21:04Z</time></trkpt><trkpt lat="41.42504216007978" lon="13.51151870281513"><ele>285.0</ele><time>2026-04-04T10:21:05Z</time></trkpt><trkpt lat="41.424990722611014" lon="13.511616253627828"><ele>286.0</ele><time>2026-04-04T10:21:07Z</time></trkpt><trkpt lat="41.42485369161058" lon="13.511615920191343"><ele>286.0</ele><time>2026-04-04T10:21:10Z</time></trkpt><trkpt lat="41.424760707714455" lon="13.51156071985724"><ele>286.0</ele><time>2026-04-04T10:21:11Z</time></trkpt><trkpt lat="41.42467403628968" lon="13.511528498926495"><ele>286.0</ele><time>2026-04-04T10:21:12Z</time></trkpt><trkpt lat="41.42457104425531" lon="13.511494750298327"><ele>286.0</ele><time>2026-04-04T10:21:13Z</time></trkpt><trkpt lat="41.4244467460772" lon="13.511461322025037"><ele>286.0</ele><time>2026-04-04T10:21:14Z</time></trkpt><trkpt lat="41.424318025984086" lon="13.51142879672936"><ele>287.0</ele><time>2026-04-04T10:21:15Z</time></trkpt><trkpt lat="41.42418365583629" lon="13.511394733943"><ele>288.0</ele><time>2026-04-04T10:21:16Z</time></trkpt><trkpt lat="41.424049363938934" lon="13.511358243344054"><ele>289.0</ele><time>2026-04-04T10:21:17Z</time></trkpt><trkpt lat="41.42391539448999" lon="13.511328100431168"><ele>290.0</ele><time>2026-04-04T10:21:18Z</time></trkpt><trkpt lat="41.423766704941876" lon="13.511314344269373"><ele>290.6666666666667</ele><time>2026-04-04T10:21:19Z</time></trkpt><trkpt lat="41.42360543083818" lon="13.51132204144878"><ele>291.3333333333333</ele><time>2026-04-04T10:21:20Z</time></trkpt><trkpt lat="41.423431266244464" lon="13.51134839972112"><ele>292.0</ele><time>2026-04-04T10:21:21Z</time></trkpt><trkpt lat="41.423244518300145" lon="13.511397009519463"><ele>292.0</ele><time>2026-04-04T10:21:22Z</time></trkpt><trkpt lat="41.42305971897413" lon="13.5114387962004"><ele>292.0</ele><time>2026-04-04T10:21:23Z</time></trkpt><trkpt lat="41.422868791092384" lon="13.511476313894931"><ele>292.0</ele><time>2026-04-04T10:21:24Z</time></trkpt><trkpt lat="41.422672348976874" lon="13.511515533253899"><ele>292.0</ele><time>2026-04-04T10:21:25Z</time></trkpt><trkpt lat="41.422472514107604" lon="13.511555812657711"><ele>292.0</ele><time>2026-04-04T10:21:26Z</time></trkpt><trkpt lat="41.42227077620189" lon="13.51160033673291"><ele>292.0</ele><time>2026-04-04T10:21:27Z</time></trkpt><trkpt lat="41.42206576327049" lon="13.511639751942667"><ele>292.3333333333333</ele><time>2026-04-04T10:21:28Z</time></trkpt><trkpt lat="41.42187110019103" lon="13.511675111807278"><ele>292.6666666666667</ele><time>2026-04-04T10:21:29Z</time></trkpt><trkpt lat="41.42169187031474" lon="13.511711221390176"><ele>293.0</ele><time>2026-04-04T10:21:30Z</time></trkpt><trkpt lat="41.42151689988582" lon="13.511752321126803"><ele>293.0</ele><time>2026-04-04T10:21:31Z</time></trkpt><trkpt lat="41.42134042468602" lon="13.511829384741713"><ele>293.0</ele><time>2026-04-04T10:21:32Z</time></trkpt><trkpt lat="41.42116801897973" lon="13.511947058308422"><ele>293.0</ele><time>2026-04-04T10:21:33Z</time></trkpt><trkpt lat="41.42098325699978" lon="13.512051130786846"><ele>293.6666666666667</ele><time>2026-04-04T10:21:34Z</time></trkpt><trkpt lat="41.42080885766131" lon="13.51216253070332"><ele>294.3333333333333</ele><time>2026-04-04T10:21:35Z</time></trkpt><trkpt lat="41.42065257172114" lon="13.512275808296227"><ele>295.0</ele><time>2026-04-04T10:21:36Z</time></trkpt><trkpt lat="41.420477739212046" lon="13.512345808721806"><ele>296.0</ele><time>2026-04-04T10:21:37Z</time></trkpt><trkpt lat="41.42028644299551" lon="13.51235505340468"><ele>297.0</ele><time>2026-04-04T10:21:38Z</time></trkpt><trkpt lat="41.420088528007916" lon="13.512370766380943"><ele>298.0</ele><time>2026-04-04T10:21:39Z</time></trkpt><trkpt lat="41.41988243829357" lon="13.512375796569595"><ele>298.0</ele><time>2026-04-04T10:21:40Z</time></trkpt><trkpt lat="41.419674425595915" lon="13.512384138436515"><ele>298.0</ele><time>2026-04-04T10:21:41Z</time></trkpt><trkpt lat="41.41948499365459" lon="13.512415186548944"><ele>298.0</ele><time>2026-04-04T10:21:42Z</time></trkpt><trkpt lat="41.41929749849099" lon="13.51243246940152"><ele>298.3333333333333</ele><time>2026-04-04T10:21:43Z</time></trkpt><trkpt lat="41.41911039852802" lon="13.512505592477678"><ele>298.6666666666667</ele><time>2026-04-04T10:21:44Z</time></trkpt><trkpt lat="41.4189250633234" lon="13.512633310341766"><ele>299.0</ele><time>2026-04-04T10:21:45Z</time></trkpt><trkpt lat="41.41873015040559" lon="13.512762788267057"><ele>299.33333333333337</ele><time>2026-04-04T10:21:46Z</time></trkpt><trkpt lat="41.418536886638016" lon="13.51289739442988"><ele>299.6666666666667</ele><time>2026-04-04T10:21:47Z</time></trkpt><trkpt lat="41.41834084287189" lon="13.513035623377192"><ele>300.0</ele><time>2026-04-04T10:21:48Z</time></trkpt><trkpt lat="41.41811140689471" lon="13.51314184719744"><ele>303.5</ele><time>2026-04-04T10:21:49Z</time></trkpt><trkpt lat="41.41786087012784" lon="13.513253495393418"><ele>307.0</ele><time>2026-04-04T10:21:50Z</time></trkpt><trkpt lat="41.41759591726704" lon="13.51340063020061"><ele>307.0</ele><time>2026-04-04T10:21:51Z</time></trkpt><trkpt lat="41.41732477862236" lon="13.513549066600115"><ele>307.0</ele><time>2026-04-04T10:21:52Z</time></trkpt><trkpt lat="41.41709855337408" lon="13.51369645579407"><ele>311.0</ele><time>2026-04-04T10:21:53Z</time></trkpt><trkpt lat="41.41688621416166" lon="13.51384673714598"><ele>315.0</ele><time>2026-04-04T10:21:54Z</time></trkpt><trkpt lat="41.416672406022855" lon="13.513955564305398"><ele>315.0</ele><time>2026-04-04T10:21:55Z</time></trkpt><trkpt lat="41.41646622966348" lon="13.51404828958083"><ele>315.0</ele><time>2026-04-04T10:21:56Z</time></trkpt><trkpt lat="41.416260006868114" lon="13.514128107914088"><ele>315.0</ele><time>2026-04-04T10:21:57Z</time></trkpt><trkpt lat="41.41604515247946" lon="13.514160172134886"><ele>314.3333333333333</ele><time>2026-04-04T10:21:58Z</time></trkpt><trkpt lat="41.415828089818056" lon="13.514188455729899"><ele>313.66666666666663</ele><time>2026-04-04T10:21:59Z</time></trkpt><trkpt lat="41.415605314211696" lon="13.514214396965606"><ele>313.0</ele><time>2026-04-04T10:22:00Z</time></trkpt><trkpt lat="41.415375852209664" lon="13.514243911687734"><ele>313.0</ele><time>2026-04-04T10:22:01Z</time></trkpt><trkpt lat="41.415149243731946" lon="13.51429044475821"><ele>313.0</ele><time>2026-04-04T10:22:02Z</time></trkpt><trkpt lat="41.41492191599691" lon="13.514319720291883"><ele>313.0</ele><time>2026-04-04T10:22:03Z</time></trkpt><trkpt lat="41.414713275801105" lon="13.514325704578319"><ele>313.0</ele><time>2026-04-04T10:22:04Z</time></trkpt><trkpt lat="41.414511435367466" lon="13.51435988567575"><ele>313.0</ele><time>2026-04-04T10:22:05Z</time></trkpt><trkpt lat="41.41431482489808" lon="13.514450115805637"><ele>313.0</ele><time>2026-04-04T10:22:06Z</time></trkpt><trkpt lat="41.414119230989314" lon="13.514566830742204"><ele>313.0</ele><time>2026-04-04T10:22:07Z</time></trkpt><trkpt lat="41.413921324775515" lon="13.514723003973641"><ele>313.0</ele><time>2026-04-04T10:22:08Z</time></trkpt><trkpt lat="41.413735894109486" lon="13.51487726145523"><ele>314.0</ele><time>2026-04-04T10:22:09Z</time></trkpt><trkpt lat="41.41355557391308" lon="13.515004890779403"><ele>315.0</ele><time>2026-04-04T10:22:10Z</time></trkpt><trkpt lat="41.41334835603686" lon="13.515099119417354"><ele>316.0</ele><time>2026-04-04T10:22:11Z</time></trkpt><trkpt lat="41.41312211331402" lon="13.515170887123189"><ele>316.0</ele><time>2026-04-04T10:22:12Z</time></trkpt><trkpt lat="41.41290670150538" lon="13.51523039866211"><ele>316.0</ele><time>2026-04-04T10:22:13Z</time></trkpt><trkpt lat="41.41272170955048" lon="13.515283607703923"><ele>316.0</ele><time>2026-04-04T10:22:14Z</time></trkpt><trkpt lat="41.41256892280485" lon="13.515345736386955"><ele>316.66666666666663</ele><time>2026-04-04T10:22:15Z</time></trkpt><trkpt lat="41.412418421022316" lon="13.515462947591493"><ele>317.3333333333333</ele><time>2026-04-04T10:22:16Z</time></trkpt><trkpt lat="41.41228629737718" lon="13.515651344921574"><ele>318.0</ele><time>2026-04-04T10:22:17Z</time></trkpt><trkpt lat="41.4121475683527" lon="13.515874892832114"><ele>318.0</ele><time>2026-04-04T10:22:18Z</time></trkpt><trkpt lat="41.41200257325132" lon="13.516087365967486"><ele>318.0</ele><time>2026-04-04T10:22:19Z</time></trkpt><trkpt lat="41.41187041201089" lon="13.51628283245891"><ele>318.0</ele><time>2026-04-04T10:22:20Z</time></trkpt><trkpt lat="41.41174450673231" lon="13.516453618317307"><ele>319.3333333333333</ele><time>2026-04-04T10:22:21Z</time></trkpt><trkpt lat="41.41160635230492" lon="13.516615923921847"><ele>320.66666666666663</ele><time>2026-04-04T10:22:22Z</time></trkpt><trkpt lat="41.41144104248494" lon="13.51674738354486"><ele>322.0</ele><time>2026-04-04T10:22:23Z</time></trkpt><trkpt lat="41.411262096937094" lon="13.516870766228157"><ele>322.0</ele><time>2026-04-04T10:22:24Z</time></trkpt><trkpt lat="41.411059699364046" lon="13.516944904566982"><ele>322.0</ele><time>2026-04-04T10:22:25Z</time></trkpt><trkpt lat="41.41085377410149" lon="13.517031386711427"><ele>322.0</ele><time>2026-04-04T10:22:26Z</time></trkpt><trkpt lat="41.410649958438654" lon="13.51710936857699"><ele>324.3333333333333</ele><time>2026-04-04T10:22:27Z</time></trkpt><trkpt lat="41.41045573302103" lon="13.517205562404907"><ele>326.6666666666667</ele><time>2026-04-04T10:22:28Z</time></trkpt><trkpt lat="41.410259020330045" lon="13.517286383735806"><ele>329.0</ele><time>2026-04-04T10:22:29Z</time></trkpt><trkpt lat="41.41007401819534" lon="13.517397571195959"><ele>329.0</ele><time>2026-04-04T10:22:30Z</time></trkpt><trkpt lat="41.409900559787005" lon="13.517555058460578"><ele>329.0</ele><time>2026-04-04T10:22:31Z</time></trkpt><trkpt lat="41.409724434407714" lon="13.517717443688394"><ele>329.0</ele><time>2026-04-04T10:22:32Z</time></trkpt><trkpt lat="41.409540976469366" lon="13.517862455169595"><ele>331.33333333333337</ele><time>2026-04-04T10:22:33Z</time></trkpt><trkpt lat="41.40934772648572" lon="13.517988795988535"><ele>333.6666666666667</ele><time>2026-04-04T10:22:34Z</time></trkpt><trkpt lat="41.409149899010885" lon="13.518102671268077"><ele>336.0</ele><time>2026-04-04T10:22:35Z</time></trkpt><trkpt lat="41.408953823253746" lon="13.5182056751097"><ele>336.0</ele><time>2026-04-04T10:22:36Z</time></trkpt><trkpt lat="41.40876890569554" lon="13.518300091882912"><ele>336.0</ele><time>2026-04-04T10:22:37Z</time></trkpt><trkpt lat="41.4085938161809" lon="13.518371612491409"><ele>336.0</ele><time>2026-04-04T10:22:38Z</time></trkpt><trkpt lat="41.408415139899255" lon="13.518421935121673"><ele>336.0</ele><time>2026-04-04T10:22:39Z</time></trkpt><trkpt lat="41.408237264939096" lon="13.518445061113926"><ele>336.0</ele><time>2026-04-04T10:22:40Z</time></trkpt><trkpt lat="41.40803646327307" lon="13.518441963620733"><ele>336.0</ele><time>2026-04-04T10:22:41Z</time></trkpt><trkpt lat="41.407838428775435" lon="13.51843964108821"><ele>337.6666666666667</ele><time>2026-04-04T10:22:42Z</time></trkpt><trkpt lat="41.40765015751564" lon="13.518452086678991"><ele>339.33333333333337</ele><time>2026-04-04T10:22:43Z</time></trkpt><trkpt lat="41.40745720680994" lon="13.518463958162545"><ele>341.0</ele><time>2026-04-04T10:22:44Z</time></trkpt><trkpt lat="41.40725586002721" lon="13.5184888315678"><ele>342.0</ele><time>2026-04-04T10:22:45Z</time></trkpt><trkpt lat="41.40705533248279" lon="13.518525081144642"><ele>343.0</ele><time>2026-04-04T10:22:46Z</time></trkpt><trkpt lat="41.406857241075535" lon="13.518575060449445"><ele>344.0</ele><time>2026-04-04T10:22:47Z</time></trkpt><trkpt lat="41.406660219392464" lon="13.518639028995898"><ele>344.0</ele><time>2026-04-04T10:22:48Z</time></trkpt><trkpt lat="41.40647151737682" lon="13.518726441048743"><ele>344.0</ele><time>2026-04-04T10:22:49Z</time></trkpt><trkpt lat="41.40628586595632" lon="13.518868296588986"><ele>344.0</ele><time>2026-04-04T10:22:50Z</time></trkpt><trkpt lat="41.40608912444873" lon="13.519033240360622"><ele>345.0</ele><time>2026-04-04T10:22:51Z</time></trkpt><trkpt lat="41.40588880779033" lon="13.51919229359766"><ele>346.0</ele><time>2026-04-04T10:22:52Z</time></trkpt><trkpt lat="41.40568435888663" lon="13.519346814713408"><ele>346.5</ele><time>2026-04-04T10:22:53Z</time></trkpt><trkpt lat="41.405483268995255" lon="13.519503465524542"><ele>347.0</ele><time>2026-04-04T10:22:54Z</time></trkpt><trkpt lat="41.405284225026904" lon="13.519659625419052"><ele>348.6666666666667</ele><time>2026-04-04T10:22:55Z</time></trkpt><trkpt lat="41.40510133232374" lon="13.519798510876232"><ele>350.3333333333333</ele><time>2026-04-04T10:22:56Z</time></trkpt><trkpt lat="41.404935977596104" lon="13.519931026418941"><ele>352.0</ele><time>2026-04-04T10:22:57Z</time></trkpt><trkpt lat="41.40478594719957" lon="13.520048135291663"><ele>352.0</ele><time>2026-04-04T10:22:58Z</time></trkpt><trkpt lat="41.40463924473996" lon="13.520136301632597"><ele>352.0</ele><time>2026-04-04T10:22:59Z</time></trkpt><trkpt lat="41.40448549369419" lon="13.520179375395063"><ele>352.0</ele><time>2026-04-04T10:23:00Z</time></trkpt><trkpt lat="41.40430631830679" lon="13.520173595489872"><ele>352.0</ele><time>2026-04-04T10:23:01Z</time></trkpt><trkpt lat="41.40411412560281" lon="13.52013649433707"><ele>352.0</ele><time>2026-04-04T10:23:02Z</time></trkpt><trkpt lat="41.40391341734446" lon="13.520126494857726"><ele>352.0</ele><time>2026-04-04T10:23:03Z</time></trkpt><trkpt lat="41.403713945389676" lon="13.520139208888882"><ele>353.3333333333333</ele><time>2026-04-04T10:23:04Z</time></trkpt><trkpt lat="41.40351456325723" lon="13.520164271846893"><ele>354.6666666666667</ele><time>2026-04-04T10:23:05Z</time></trkpt><trkpt lat="41.40331437618134" lon="13.520207398056977"><ele>356.0</ele><time>2026-04-04T10:23:06Z</time></trkpt><trkpt lat="41.40311671661428" lon="13.520257197527766"><ele>356.33333333333337</ele><time>2026-04-04T10:23:07Z</time></trkpt><trkpt lat="41.40291751623882" lon="13.52030492956297"><ele>356.6666666666667</ele><time>2026-04-04T10:23:08Z</time></trkpt><trkpt lat="41.40272289390552" lon="13.520343668330174"><ele>357.0</ele><time>2026-04-04T10:23:09Z</time></trkpt><trkpt lat="41.4025426000116" lon="13.520369788198847"><ele>357.0</ele><time>2026-04-04T10:23:10Z</time></trkpt><trkpt lat="41.40236581901903" lon="13.520372484196983"><ele>357.0</ele><time>2026-04-04T10:23:11Z</time></trkpt><trkpt lat="41.40217990591611" lon="13.520329569761346"><ele>357.0</ele><time>2026-04-04T10:23:12Z</time></trkpt><trkpt lat="41.4019773925484" lon="13.520253711130213"><ele>359.0</ele><time>2026-04-04T10:23:13Z</time></trkpt><trkpt lat="41.401775821857484" lon="13.520179560858967"><ele>361.0</ele><time>2026-04-04T10:23:14Z</time></trkpt><trkpt lat="41.40156603182835" lon="13.52013224490193"><ele>363.0</ele><time>2026-04-04T10:23:15Z</time></trkpt><trkpt lat="41.40132427679269" lon="13.520140436747905"><ele>366.0</ele><time>2026-04-04T10:23:16Z</time></trkpt><trkpt lat="41.40107103476204" lon="13.520167169104893"><ele>369.0</ele><time>2026-04-04T10:23:17Z</time></trkpt><trkpt lat="41.40082581281373" lon="13.520181968153574"><ele>369.0</ele><time>2026-04-04T10:23:18Z</time></trkpt><trkpt lat="41.40060367735891" lon="13.520190359662612"><ele>369.0</ele><time>2026-04-04T10:23:19Z</time></trkpt><trkpt lat="41.400395612090996" lon="13.520184183231153"><ele>369.0</ele><time>2026-04-04T10:23:20Z</time></trkpt><trkpt lat="41.40018063670558" lon="13.520125121538564"><ele>370.0</ele><time>2026-04-04T10:23:21Z</time></trkpt><trkpt lat="41.399961944907" lon="13.520031827881645"><ele>371.0</ele><time>2026-04-04T10:23:22Z</time></trkpt><trkpt lat="41.399758221390734" lon="13.519957540850166"><ele>372.0</ele><time>2026-04-04T10:23:23Z</time></trkpt><trkpt lat="41.3995534809644" lon="13.519904435586012"><ele>375.0</ele><time>2026-04-04T10:23:24Z</time></trkpt><trkpt lat="41.39933915554871" lon="13.519914249362849"><ele>378.0</ele><time>2026-04-04T10:23:25Z</time></trkpt><trkpt lat="41.39910132928541" lon="13.519976911055807"><ele>378.0</ele><time>2026-04-04T10:23:26Z</time></trkpt><trkpt lat="41.39889196757118" lon="13.520039737972768"><ele>378.0</ele><time>2026-04-04T10:23:27Z</time></trkpt><trkpt lat="41.398705490739026" lon="13.520084525826759"><ele>378.0</ele><time>2026-04-04T10:23:28Z</time></trkpt><trkpt lat="41.39852779451159" lon="13.520107434632752"><ele>380.0</ele><time>2026-04-04T10:23:29Z</time></trkpt><trkpt lat="41.39833731367411" lon="13.520056338666356"><ele>382.0</ele><time>2026-04-04T10:23:30Z</time></trkpt><trkpt lat="41.398136124366886" lon="13.519938921935971"><ele>384.0</ele><time>2026-04-04T10:23:31Z</time></trkpt><trkpt lat="41.39796745598368" lon="13.519818131407444"><ele>385.33333333333337</ele><time>2026-04-04T10:23:32Z</time></trkpt><trkpt lat="41.39780772601339" lon="13.519742755730654"><ele>386.6666666666667</ele><time>2026-04-04T10:23:33Z</time></trkpt><trkpt lat="41.39763630866471" lon="13.519711926195136"><ele>388.0</ele><time>2026-04-04T10:23:34Z</time></trkpt><trkpt lat="41.397433168843875" lon="13.51974474907687"><ele>388.0</ele><time>2026-04-04T10:23:35Z</time></trkpt><trkpt lat="41.39720836099685" lon="13.519821512298428"><ele>388.0</ele><time>2026-04-04T10:23:36Z</time></trkpt><trkpt lat="41.396964779731476" lon="13.519903614264415"><ele>388.5</ele><time>2026-04-04T10:23:37Z</time></trkpt><trkpt lat="41.39671432148051" lon="13.519955337501768"><ele>389.0</ele><time>2026-04-04T10:23:38Z</time></trkpt><trkpt lat="41.396483377333816" lon="13.5199703260698"><ele>390.0</ele><time>2026-04-04T10:23:39Z</time></trkpt><trkpt lat="41.396259560650975" lon="13.520015390528036"><ele>391.0</ele><time>2026-04-04T10:23:40Z</time></trkpt><trkpt lat="41.39605125975372" lon="13.52005766881165"><ele>392.0</ele><time>2026-04-04T10:23:41Z</time></trkpt><trkpt lat="41.39586441526801" lon="13.520091954362867"><ele>392.0</ele><time>2026-04-04T10:23:42Z</time></trkpt><trkpt lat="41.3956910164136" lon="13.52011537697512"><ele>392.0</ele><time>2026-04-04T10:23:43Z</time></trkpt><trkpt lat="41.39553140335762" lon="13.520111437921907"><ele>392.0</ele><time>2026-04-04T10:23:44Z</time></trkpt><trkpt lat="41.39537755495086" lon="13.52006566580681"><ele>393.66666666666663</ele><time>2026-04-04T10:23:45Z</time></trkpt><trkpt lat="41.39521743196078" lon="13.519969941370869"><ele>395.33333333333337</ele><time>2026-04-04T10:23:46Z</time></trkpt><trkpt lat="41.395031050931514" lon="13.519870108746776"><ele>397.0</ele><time>2026-04-04T10:23:47Z</time></trkpt><trkpt lat="41.394854531722416" lon="13.519746400451375"><ele>397.0</ele><time>2026-04-04T10:23:48Z</time></trkpt><trkpt lat="41.394679760062594" lon="13.51965859755876"><ele>397.0</ele><time>2026-04-04T10:23:49Z</time></trkpt><trkpt lat="41.39450565141907" lon="13.519597844803348"><ele>397.0</ele><time>2026-04-04T10:23:50Z</time></trkpt><trkpt lat="41.39434030126498" lon="13.519550989419685"><ele>397.0</ele><time>2026-04-04T10:23:51Z</time></trkpt><trkpt lat="41.39418224357261" lon="13.519512879435997"><ele>397.0</ele><time>2026-04-04T10:23:52Z</time></trkpt><trkpt lat="41.394022021692614" lon="13.519478958926143"><ele>397.0</ele><time>2026-04-04T10:23:53Z</time></trkpt><trkpt lat="41.39385794885931" lon="13.519456957696406"><ele>396.6666666666667</ele><time>2026-04-04T10:23:54Z</time></trkpt><trkpt lat="41.393696348412064" lon="13.51945259694729"><ele>396.33333333333337</ele><time>2026-04-04T10:23:55Z</time></trkpt><trkpt lat="41.39352974196951" lon="13.519472762198614"><ele>396.0</ele><time>2026-04-04T10:23:56Z</time></trkpt><trkpt lat="41.39337011983331" lon="13.519512752863374"><ele>396.0</ele><time>2026-04-04T10:23:57Z</time></trkpt><trkpt lat="41.393228763858374" lon="13.519560100136557"><ele>396.0</ele><time>2026-04-04T10:23:58Z</time></trkpt><trkpt lat="41.39309816005717" lon="13.519618916935592"><ele>396.0</ele><time>2026-04-04T10:23:59Z</time></trkpt><trkpt lat="41.3929777773847" lon="13.519681766649613"><ele>396.0</ele><time>2026-04-04T10:24:00Z</time></trkpt><trkpt lat="41.39284808855783" lon="13.519740414823609"><ele>395.75</ele><time>2026-04-04T10:24:01Z</time></trkpt><trkpt lat="41.39271585992672" lon="13.519803396436227"><ele>395.5</ele><time>2026-04-04T10:24:02Z</time></trkpt><trkpt lat="41.39258206666639" lon="13.519874876141284"><ele>395.25</ele><time>2026-04-04T10:24:03Z</time></trkpt><trkpt lat="41.39245316925083" lon="13.519946231816242"><ele>395.0</ele><time>2026-04-04T10:24:04Z</time></trkpt><trkpt lat="41.39232005775534" lon="13.520020527632726"><ele>395.0</ele><time>2026-04-04T10:24:05Z</time></trkpt><trkpt lat="41.392182922205784" lon="13.520099986631061"><ele>395.0</ele><time>2026-04-04T10:24:06Z</time></trkpt><trkpt lat="41.39204078410058" lon="13.520173846481617"><ele>395.0</ele><time>2026-04-04T10:24:07Z</time></trkpt><trkpt lat="41.39190321737722" lon="13.520262389005401"><ele>394.75</ele><time>2026-04-04T10:24:08Z</time></trkpt><trkpt lat="41.39176536395627" lon="13.520354744135542"><ele>394.5</ele><time>2026-04-04T10:24:09Z</time></trkpt><trkpt lat="41.39163824454093" lon="13.520440356386478"><ele>394.25</ele><time>2026-04-04T10:24:10Z</time></trkpt><trkpt lat="41.39151220358395" lon="13.52052331416297"><ele>394.0</ele><time>2026-04-04T10:24:11Z</time></trkpt><trkpt lat="41.39138747682362" lon="13.52060440788915"><ele>394.25</ele><time>2026-04-04T10:24:12Z</time></trkpt><trkpt lat="41.391269034970954" lon="13.52068701997211"><ele>394.5</ele><time>2026-04-04T10:24:13Z</time></trkpt><trkpt lat="41.3911467376709" lon="13.520794666786111"><ele>394.75</ele><time>2026-04-04T10:24:14Z</time></trkpt><trkpt lat="41.39102716942128" lon="13.520932393290806"><ele>395.0</ele><time>2026-04-04T10:24:15Z</time></trkpt><trkpt lat="41.390917808429904" lon="13.521104562511711"><ele>394.66666666666663</ele><time>2026-04-04T10:24:16Z</time></trkpt><trkpt lat="41.39082316248385" lon="13.52129790064029"><ele>394.33333333333337</ele><time>2026-04-04T10:24:17Z</time></trkpt><trkpt lat="41.390750327144865" lon="13.52149407635395"><ele>394.0</ele><time>2026-04-04T10:24:18Z</time></trkpt><trkpt lat="41.39068584838152" lon="13.521695664558395"><ele>394.0</ele><time>2026-04-04T10:24:19Z</time></trkpt><trkpt lat="41.3906347048348" lon="13.521887805122097"><ele>394.0</ele><time>2026-04-04T10:24:20Z</time></trkpt><trkpt lat="41.3905775666972" lon="13.522077631704741"><ele>394.0</ele><time>2026-04-04T10:24:21Z</time></trkpt><trkpt lat="41.39053777569275" lon="13.522284940668554"><ele>394.0</ele><time>2026-04-04T10:24:22Z</time></trkpt><trkpt lat="41.39050543784603" lon="13.52249311520133"><ele>394.0</ele><time>2026-04-04T10:24:23Z</time></trkpt><trkpt lat="41.390491012426686" lon="13.522691057151935"><ele>394.0</ele><time>2026-04-04T10:24:24Z</time></trkpt><trkpt lat="41.39048303695104" lon="13.522893525645177"><ele>394.25</ele><time>2026-04-04T10:24:25Z</time></trkpt><trkpt lat="41.3904843759268" lon="13.52309897966454"><ele>394.5</ele><time>2026-04-04T10:24:26Z</time></trkpt><trkpt lat="41.39047973269635" lon="13.523282379127146"><ele>394.75</ele><time>2026-04-04T10:24:27Z</time></trkpt><trkpt lat="41.3904779155855" lon="13.523443174295688"><ele>395.0</ele><time>2026-04-04T10:24:28Z</time></trkpt><trkpt lat="41.390473156392154" lon="13.52358456794076"><ele>395.0</ele><time>2026-04-04T10:24:29Z</time></trkpt><trkpt lat="41.390457408782055" lon="13.523718058432609"><ele>395.0</ele><time>2026-04-04T10:24:30Z</time></trkpt><trkpt lat="41.39042605736435" lon="13.523861040491937"><ele>395.0</ele><time>2026-04-04T10:24:31Z</time></trkpt><trkpt lat="41.3903652492143" lon="13.524003573319645"><ele>395.0</ele><time>2026-04-04T10:24:32Z</time></trkpt><trkpt lat="41.39026323991291" lon="13.524124741226679"><ele>397.0</ele><time>2026-04-04T10:24:33Z</time></trkpt><trkpt lat="41.39013833103148" lon="13.524231904753524"><ele>399.0</ele><time>2026-04-04T10:24:34Z</time></trkpt><trkpt lat="41.38998895196785" lon="13.524309199748753"><ele>401.0</ele><time>2026-04-04T10:24:35Z</time></trkpt><trkpt lat="41.38982195712193" lon="13.52437110441095"><ele>400.0</ele><time>2026-04-04T10:24:36Z</time></trkpt><trkpt lat="41.38964467784733" lon="13.524434695464848"><ele>399.0</ele><time>2026-04-04T10:24:37Z</time></trkpt><trkpt lat="41.38945607770395" lon="13.524482118661119"><ele>398.0</ele><time>2026-04-04T10:24:38Z</time></trkpt><trkpt lat="41.389260137399425" lon="13.524525491241334"><ele>402.66666666666663</ele><time>2026-04-04T10:24:39Z</time></trkpt><trkpt lat="41.38905703960342" lon="13.524572155640593"><ele>407.33333333333337</ele><time>2026-04-04T10:24:40Z</time></trkpt><trkpt lat="41.388858103113904" lon="13.524622524213616"><ele>412.0</ele><time>2026-04-04T10:24:41Z</time></trkpt><trkpt lat="41.388665137172985" lon="13.524684310447524"><ele>412.0</ele><time>2026-04-04T10:24:42Z</time></trkpt><trkpt lat="41.38847424815811" lon="13.524750792495944"><ele>412.0</ele><time>2026-04-04T10:24:43Z</time></trkpt><trkpt lat="41.388281075698515" lon="13.52482226081599"><ele>412.0</ele><time>2026-04-04T10:24:44Z</time></trkpt><trkpt lat="41.38808979963757" lon="13.524899927988331"><ele>409.6666666666667</ele><time>2026-04-04T10:24:45Z</time></trkpt><trkpt lat="41.387898116493304" lon="13.524975733277026"><ele>407.33333333333337</ele><time>2026-04-04T10:24:46Z</time></trkpt><trkpt lat="41.38770567550074" lon="13.525046943375584"><ele>405.0</ele><time>2026-04-04T10:24:47Z</time></trkpt><trkpt lat="41.38750916398617" lon="13.52512933986642"><ele>405.0</ele><time>2026-04-04T10:24:48Z</time></trkpt><trkpt lat="41.38730586849301" lon="13.525230281600235"><ele>405.0</ele><time>2026-04-04T10:24:49Z</time></trkpt><trkpt lat="41.38708863466605" lon="13.525370960065207"><ele>407.33333333333337</ele><time>2026-04-04T10:24:50Z</time></trkpt><trkpt lat="41.38687503943635" lon="13.525505087121468"><ele>409.6666666666667</ele><time>2026-04-04T10:24:51Z</time></trkpt><trkpt lat="41.38668391481061" lon="13.525627838908306"><ele>412.0</ele><time>2026-04-04T10:24:52Z</time></trkpt><trkpt lat="41.38648371331054" lon="13.5257706173078"><ele>402.0</ele><time>2026-04-04T10:24:53Z</time></trkpt><trkpt lat="41.386297134653844" lon="13.525951693737571"><ele>392.0</ele><time>2026-04-04T10:24:54Z</time></trkpt><trkpt lat="41.38611611947053" lon="13.52613623752625"><ele>399.66666666666663</ele><time>2026-04-04T10:24:55Z</time></trkpt><trkpt lat="41.385957605763664" lon="13.52630835292331"><ele>407.33333333333337</ele><time>2026-04-04T10:24:56Z</time></trkpt><trkpt lat="41.38580563017553" lon="13.526475824154563"><ele>415.0</ele><time>2026-04-04T10:24:57Z</time></trkpt><trkpt lat="41.38567344479494" lon="13.5266440489447"><ele>415.0</ele><time>2026-04-04T10:24:58Z</time></trkpt><trkpt lat="41.3855554604265" lon="13.526830028446625"><ele>415.0</ele><time>2026-04-04T10:24:59Z</time></trkpt><trkpt lat="41.38544229518183" lon="13.527037635372533"><ele>415.0</ele><time>2026-04-04T10:25:00Z</time></trkpt><trkpt lat="41.385344213656296" lon="13.52727611822867"><ele>417.33333333333337</ele><time>2026-04-04T10:25:01Z</time></trkpt><trkpt lat="41.385240889614195" lon="13.527510664775553"><ele>419.66666666666663</ele><time>2026-04-04T10:25:02Z</time></trkpt><trkpt lat="41.385152059790066" lon="13.527721658358875"><ele>422.0</ele><time>2026-04-04T10:25:03Z</time></trkpt><trkpt lat="41.38506910720512" lon="13.527914419473126"><ele>422.0</ele><time>2026-04-04T10:25:04Z</time></trkpt><trkpt lat="41.384990693819844" lon="13.528085539616105"><ele>422.0</ele><time>2026-04-04T10:25:05Z</time></trkpt><trkpt lat="41.38491725065539" lon="13.528236326642494"><ele>422.0</ele><time>2026-04-04T10:25:06Z</time></trkpt><trkpt lat="41.38483214403028" lon="13.52835335958988"><ele>422.0</ele><time>2026-04-04T10:25:07Z</time></trkpt><trkpt lat="41.38472081680265" lon="13.528435205637104"><ele>419.66666666666663</ele><time>2026-04-04T10:25:08Z</time></trkpt><trkpt lat="41.38457210336219" lon="13.528441183327363"><ele>417.33333333333337</ele><time>2026-04-04T10:25:09Z</time></trkpt><trkpt lat="41.38439431146092" lon="13.52844612228849"><ele>415.0</ele><time>2026-04-04T10:25:10Z</time></trkpt><trkpt lat="41.384208094145784" lon="13.528423592882636"><ele>415.0</ele><time>2026-04-04T10:25:11Z</time></trkpt><trkpt lat="41.38402024129168" lon="13.52841547476455"><ele>415.0</ele><time>2026-04-04T10:25:12Z</time></trkpt><trkpt lat="41.38383059877383" lon="13.52840810036354"><ele>415.0</ele><time>2026-04-04T10:25:13Z</time></trkpt><trkpt lat="41.3836346399612" lon="13.528397596364854"><ele>416.0</ele><time>2026-04-04T10:25:14Z</time></trkpt><trkpt lat="41.38342829554832" lon="13.528386950061364"><ele>417.0</ele><time>2026-04-04T10:25:15Z</time></trkpt><trkpt lat="41.38322659725613" lon="13.52839621265747"><ele>418.0</ele><time>2026-04-04T10:25:16Z</time></trkpt><trkpt lat="41.38302484962575" lon="13.528427111852396"><ele>416.33333333333337</ele><time>2026-04-04T10:25:17Z</time></trkpt><trkpt lat="41.38282518816937" lon="13.528476977036851"><ele>414.66666666666663</ele><time>2026-04-04T10:25:18Z</time></trkpt><trkpt lat="41.38262333519358" lon="13.528548261962028"><ele>413.0</ele><time>2026-04-04T10:25:19Z</time></trkpt><trkpt lat="41.38241583845741" lon="13.528636856828973"><ele>419.0</ele><time>2026-04-04T10:25:20Z</time></trkpt><trkpt lat="41.38223420741095" lon="13.528736815718245"><ele>425.0</ele><time>2026-04-04T10:25:21Z</time></trkpt><trkpt lat="41.382069670510035" lon="13.528830594480201"><ele>431.0</ele><time>2026-04-04T10:25:22Z</time></trkpt><trkpt lat="41.381915094277" lon="13.528901791873205"><ele>431.0</ele><time>2026-04-04T10:25:23Z</time></trkpt><trkpt lat="41.381773653685244" lon="13.528955399688465"><ele>431.0</ele><time>2026-04-04T10:25:24Z</time></trkpt><trkpt lat="41.38163516247753" lon="13.528971514458197"><ele>431.0</ele><time>2026-04-04T10:25:25Z</time></trkpt><trkpt lat="41.38148432899929" lon="13.528945649484037"><ele>431.0</ele><time>2026-04-04T10:25:26Z</time></trkpt><trkpt lat="41.38133006966086" lon="13.528864726744183"><ele>434.3333333333333</ele><time>2026-04-04T10:25:27Z</time></trkpt><trkpt lat="41.38117428139183" lon="13.528745923797725"><ele>437.66666666666663</ele><time>2026-04-04T10:25:28Z</time></trkpt><trkpt lat="41.38100440822763" lon="13.528657709474992"><ele>441.0</ele><time>2026-04-04T10:25:29Z</time></trkpt><trkpt lat="41.380824634688906" lon="13.528581914023267"><ele>438.0</ele><time>2026-04-04T10:25:30Z</time></trkpt><trkpt lat="41.3806433224516" lon="13.528506495608891"><ele>435.0</ele><time>2026-04-04T10:25:31Z</time></trkpt><trkpt lat="41.38044881512746" lon="13.528442668810714"><ele>432.0</ele><time>2026-04-04T10:25:32Z</time></trkpt><trkpt lat="41.38027606158535" lon="13.528363267272546"><ele>432.0</ele><time>2026-04-04T10:25:33Z</time></trkpt><trkpt lat="41.38011521368763" lon="13.528247996497067"><ele>432.0</ele><time>2026-04-04T10:25:34Z</time></trkpt><trkpt lat="41.379955488687386" lon="13.528137739549493"><ele>432.0</ele><time>2026-04-04T10:25:35Z</time></trkpt><trkpt lat="41.37979770567179" lon="13.52802928209369"><ele>427.33333333333337</ele><time>2026-04-04T10:25:36Z</time></trkpt><trkpt lat="41.37963957112458" lon="13.527924565946268"><ele>422.6666666666667</ele><time>2026-04-04T10:25:37Z</time></trkpt><trkpt lat="41.37947205250338" lon="13.5278320193494"><ele>418.0</ele><time>2026-04-04T10:25:38Z</time></trkpt><trkpt lat="41.37929070494216" lon="13.527736276576253"><ele>418.0</ele><time>2026-04-04T10:25:39Z</time></trkpt><trkpt lat="41.37909577871508" lon="13.527650231595032"><ele>418.0</ele><time>2026-04-04T10:25:40Z</time></trkpt><trkpt lat="41.37889473280998" lon="13.527575034254957"><ele>418.0</ele><time>2026-04-04T10:25:41Z</time></trkpt><trkpt lat="41.378685311071536" lon="13.527531306628822"><ele>421.0</ele><time>2026-04-04T10:25:42Z</time></trkpt><trkpt lat="41.37845195632761" lon="13.527525730652892"><ele>424.0</ele><time>2026-04-04T10:25:43Z</time></trkpt><trkpt lat="41.37818568930741" lon="13.52757758849012"><ele>423.5</ele><time>2026-04-04T10:25:44Z</time></trkpt><trkpt lat="41.377911077694954" lon="13.52762312976685"><ele>423.0</ele><time>2026-04-04T10:25:45Z</time></trkpt><trkpt lat="41.37766694008898" lon="13.527680283111994"><ele>423.0</ele><time>2026-04-04T10:25:46Z</time></trkpt><trkpt lat="41.377447311296216" lon="13.52770332669952"><ele>423.0</ele><time>2026-04-04T10:25:47Z</time></trkpt><trkpt lat="41.377237133368006" lon="13.527705338617466"><ele>423.0</ele><time>2026-04-04T10:25:48Z</time></trkpt><trkpt lat="41.37702823326019" lon="13.527720638998058"><ele>421.66666666666663</ele><time>2026-04-04T10:25:49Z</time></trkpt><trkpt lat="41.37683628536918" lon="13.527732094046074"><ele>420.3333333333333</ele><time>2026-04-04T10:25:50Z</time></trkpt><trkpt lat="41.37663934068374" lon="13.527776369760801"><ele>419.0</ele><time>2026-04-04T10:25:51Z</time></trkpt><trkpt lat="41.376447692069675" lon="13.527880913103616"><ele>423.66666666666663</ele><time>2026-04-04T10:25:52Z</time></trkpt><trkpt lat="41.37626159833416" lon="13.528023115493923"><ele>428.33333333333337</ele><time>2026-04-04T10:25:53Z</time></trkpt><trkpt lat="41.37608139258634" lon="13.528206495213624"><ele>433.0</ele><time>2026-04-04T10:25:54Z</time></trkpt><trkpt lat="41.37591007602494" lon="13.528383752511028"><ele>433.0</ele><time>2026-04-04T10:25:55Z</time></trkpt><trkpt lat="41.375765869549774" lon="13.528565275626839"><ele>433.0</ele><time>2026-04-04T10:25:56Z</time></trkpt><trkpt lat="41.37563529008734" lon="13.528733632169095"><ele>433.0</ele><time>2026-04-04T10:25:57Z</time></trkpt><trkpt lat="41.37552192183357" lon="13.528882111292727"><ele>435.25</ele><time>2026-04-04T10:25:58Z</time></trkpt><trkpt lat="41.37541374351015" lon="13.529012477395804"><ele>437.5</ele><time>2026-04-04T10:25:59Z</time></trkpt><trkpt lat="41.37528829398741" lon="13.529085651954425"><ele>439.75</ele><time>2026-04-04T10:26:00Z</time></trkpt><trkpt lat="41.375140267160866" lon="13.529079686926963"><ele>442.0</ele><time>2026-04-04T10:26:01Z</time></trkpt><trkpt lat="41.37499024901375" lon="13.529032696158174"><ele>442.0</ele><time>2026-04-04T10:26:02Z</time></trkpt><trkpt lat="41.37482661794457" lon="13.52898083625261"><ele>442.0</ele><time>2026-04-04T10:26:03Z</time></trkpt><trkpt lat="41.374674771647896" lon="13.528911331328272"><ele>442.0</ele><time>2026-04-04T10:26:04Z</time></trkpt><trkpt lat="41.37452372661813" lon="13.528870006949687"><ele>441.6666666666667</ele><time>2026-04-04T10:26:05Z</time></trkpt><trkpt lat="41.37436318936702" lon="13.528891928337222"><ele>441.33333333333337</ele><time>2026-04-04T10:26:06Z</time></trkpt><trkpt lat="41.37419289579567" lon="13.528955013480935"><ele>441.0</ele><time>2026-04-04T10:26:07Z</time></trkpt><trkpt lat="41.37401661688646" lon="13.52902568381542"><ele>439.33333333333337</ele><time>2026-04-04T10:26:08Z</time></trkpt><trkpt lat="41.37381718523766" lon="13.529101546060364"><ele>437.6666666666667</ele><time>2026-04-04T10:26:09Z</time></trkpt><trkpt lat="41.37359169811776" lon="13.529170263504087"><ele>436.0</ele><time>2026-04-04T10:26:10Z</time></trkpt><trkpt lat="41.37339631204568" lon="13.529236671800978"><ele>436.0</ele><time>2026-04-04T10:26:11Z</time></trkpt><trkpt lat="41.37320906571014" lon="13.5293062242055"><ele>436.0</ele><time>2026-04-04T10:26:12Z</time></trkpt><trkpt lat="41.37304611818133" lon="13.52936433243875"><ele>436.0</ele><time>2026-04-04T10:26:13Z</time></trkpt><trkpt lat="41.37288280240112" lon="13.529482430978577"><ele>439.6666666666667</ele><time>2026-04-04T10:26:14Z</time></trkpt><trkpt lat="41.37272930926092" lon="13.529642364237317"><ele>443.33333333333337</ele><time>2026-04-04T10:26:15Z</time></trkpt><trkpt lat="41.37257006722202" lon="13.529815590367729"><ele>447.0</ele><time>2026-04-04T10:26:16Z</time></trkpt><trkpt lat="41.37241524650101" lon="13.529955167421463"><ele>447.0</ele><time>2026-04-04T10:26:17Z</time></trkpt><trkpt lat="41.37225285592426" lon="13.53007860806566"><ele>447.0</ele><time>2026-04-04T10:26:18Z</time></trkpt><trkpt lat="41.37209752613179" lon="13.530169561025794"><ele>447.0</ele><time>2026-04-04T10:26:19Z</time></trkpt><trkpt lat="41.371951315043056" lon="13.530217594761856"><ele>445.6</ele><time>2026-04-04T10:26:20Z</time></trkpt><trkpt lat="41.3718227999167" lon="13.530241922109578"><ele>444.20000000000005</ele><time>2026-04-04T10:26:21Z</time></trkpt><trkpt lat="41.371720630204884" lon="13.530263994067576"><ele>442.8</ele><time>2026-04-04T10:26:22Z</time></trkpt><trkpt lat="41.371653184741255" lon="13.530270560054642"><ele>441.4</ele><time>2026-04-04T10:26:23Z</time></trkpt><trkpt lat="41.37157760317938" lon="13.530292282749043"><ele>440.0</ele><time>2026-04-04T10:27:07Z</time></trkpt><trkpt lat="41.37145669560441" lon="13.530358355059942"><ele>440.0</ele><time>2026-04-04T10:27:09Z</time></trkpt><trkpt lat="41.371366535509985" lon="13.530387137347395"><ele>440.0</ele><time>2026-04-04T10:27:10Z</time></trkpt><trkpt lat="41.37126312100462" lon="13.530421649468257"><ele>440.0</ele><time>2026-04-04T10:27:11Z</time></trkpt><trkpt lat="41.37116011201249" lon="13.530446571265212"><ele>440.0</ele><time>2026-04-04T10:27:12Z</time></trkpt><trkpt lat="41.37103187725509" lon="13.530485405610927"><ele>440.0</ele><time>2026-04-04T10:27:13Z</time></trkpt><trkpt lat="41.37089184603469" lon="13.530524197617867"><ele>443.3333333333333</ele><time>2026-04-04T10:27:14Z</time></trkpt><trkpt lat="41.37074368729048" lon="13.530564285723969"><ele>446.66666666666663</ele><time>2026-04-04T10:27:15Z</time></trkpt><trkpt lat="41.370589691238216" lon="13.53059466634176"><ele>450.0</ele><time>2026-04-04T10:27:16Z</time></trkpt><trkpt lat="41.370425147133474" lon="13.530613452405806"><ele>450.0</ele><time>2026-04-04T10:27:17Z</time></trkpt><trkpt lat="41.37024951790296" lon="13.53063002594576"><ele>450.0</ele><time>2026-04-04T10:27:18Z</time></trkpt><trkpt lat="41.370068113727605" lon="13.530646150197473"><ele>450.0</ele><time>2026-04-04T10:27:19Z</time></trkpt><trkpt lat="41.36987494060051" lon="13.53066342663433"><ele>453.33333333333337</ele><time>2026-04-04T10:27:20Z</time></trkpt><trkpt lat="41.36967965641919" lon="13.53068376284126"><ele>456.6666666666667</ele><time>2026-04-04T10:27:21Z</time></trkpt><trkpt lat="41.369482045901194" lon="13.530696292155625"><ele>460.0</ele><time>2026-04-04T10:27:22Z</time></trkpt><trkpt lat="41.369279355855134" lon="13.530697548184389"><ele>460.0</ele><time>2026-04-04T10:27:23Z</time></trkpt><trkpt lat="41.36908936767369" lon="13.530687195046502"><ele>460.0</ele><time>2026-04-04T10:27:24Z</time></trkpt><trkpt lat="41.36893458896842" lon="13.530654285241223"><ele>460.0</ele><time>2026-04-04T10:27:25Z</time></trkpt><trkpt lat="41.36879020940102" lon="13.530603173353978"><ele>456.33333333333337</ele><time>2026-04-04T10:27:26Z</time></trkpt><trkpt lat="41.36864143170855" lon="13.53050782560971"><ele>452.66666666666663</ele><time>2026-04-04T10:27:27Z</time></trkpt><trkpt lat="41.36848836907735" lon="13.530351049117462"><ele>449.0</ele><time>2026-04-04T10:27:28Z</time></trkpt><trkpt lat="41.36833370777699" lon="13.530182503043921"><ele>449.0</ele><time>2026-04-04T10:27:29Z</time></trkpt><trkpt lat="41.36817964771563" lon="13.530026139028948"><ele>449.0</ele><time>2026-04-04T10:27:30Z</time></trkpt><trkpt lat="41.368008080135766" lon="13.529858418488365"><ele>449.0</ele><time>2026-04-04T10:27:31Z</time></trkpt><trkpt lat="41.367832421770544" lon="13.52968832958481"><ele>449.5</ele><time>2026-04-04T10:27:32Z</time></trkpt><trkpt lat="41.36765127853084" lon="13.529510964196925"><ele>450.0</ele><time>2026-04-04T10:27:33Z</time></trkpt><trkpt lat="41.367474709904485" lon="13.529315863979475"><ele>450.0</ele><time>2026-04-04T10:27:34Z</time></trkpt><trkpt lat="41.36728470140371" lon="13.529124346636662"><ele>450.0</ele><time>2026-04-04T10:27:35Z</time></trkpt><trkpt lat="41.367119923365976" lon="13.528985517141415"><ele>450.0</ele><time>2026-04-04T10:27:36Z</time></trkpt><trkpt lat="41.3669583389661" lon="13.5288239325041"><ele>450.0</ele><time>2026-04-04T10:27:37Z</time></trkpt><trkpt lat="41.36679386436914" lon="13.52869138938585"><ele>450.0</ele><time>2026-04-04T10:27:38Z</time></trkpt><trkpt lat="41.36661594835035" lon="13.528573894844662"><ele>450.0</ele><time>2026-04-04T10:27:39Z</time></trkpt><trkpt lat="41.36642603108604" lon="13.528500076359501"><ele>455.0</ele><time>2026-04-04T10:27:40Z</time></trkpt><trkpt lat="41.366229191042216" lon="13.528455507782683"><ele>460.0</ele><time>2026-04-04T10:27:41Z</time></trkpt><trkpt lat="41.36604916976793" lon="13.528433297088238"><ele>465.0</ele><time>2026-04-04T10:27:42Z</time></trkpt><trkpt lat="41.36588631583923" lon="13.52838474803891"><ele>465.0</ele><time>2026-04-04T10:27:43Z</time></trkpt><trkpt lat="41.36575280173309" lon="13.528355678953684"><ele>465.0</ele><time>2026-04-04T10:27:44Z</time></trkpt><trkpt lat="41.3656355151212" lon="13.528316794307162"><ele>465.0</ele><time>2026-04-04T10:27:45Z</time></trkpt><trkpt lat="41.36553642845592" lon="13.528267913930463"><ele>465.0</ele><time>2026-04-04T10:27:46Z</time></trkpt><trkpt lat="41.36546036252129" lon="13.528211274873465"><ele>465.0</ele><time>2026-04-04T10:27:47Z</time></trkpt><trkpt lat="41.36539971228925" lon="13.528141228659559"><ele>469.4</ele><time>2026-04-04T10:27:48Z</time></trkpt><trkpt lat="41.365343092305835" lon="13.528054825975607"><ele>473.8</ele><time>2026-04-04T10:27:49Z</time></trkpt><trkpt lat="41.36532807555203" lon="13.5279599091843"><ele>478.20000000000005</ele><time>2026-04-04T10:27:50Z</time></trkpt><trkpt lat="41.36534346984867" lon="13.527850969995526"><ele>482.6</ele><time>2026-04-04T10:27:51Z</time></trkpt><trkpt lat="41.36538279886847" lon="13.52771612777945"><ele>487.0</ele><time>2026-04-04T10:27:52Z</time></trkpt><trkpt lat="41.36546399936932" lon="13.52755484450211"><ele>485.0</ele><time>2026-04-04T10:27:53Z</time></trkpt><trkpt lat="41.36556589175233" lon="13.527386567835375"><ele>483.0</ele><time>2026-04-04T10:27:54Z</time></trkpt><trkpt lat="41.36572013660456" lon="13.527215454685024"><ele>481.0</ele><time>2026-04-04T10:27:55Z</time></trkpt><trkpt lat="41.36589140962399" lon="13.527002683582948"><ele>481.0</ele><time>2026-04-04T10:27:56Z</time></trkpt><trkpt lat="41.36606643965737" lon="13.52677520977728"><ele>481.0</ele><time>2026-04-04T10:27:57Z</time></trkpt><trkpt lat="41.36626415566224" lon="13.526549932142473"><ele>480.0</ele><time>2026-04-04T10:27:58Z</time></trkpt><trkpt lat="41.366449177506965" lon="13.526331125028424"><ele>479.0</ele><time>2026-04-04T10:27:59Z</time></trkpt><trkpt lat="41.36662146381767" lon="13.526144085611369"><ele>479.0</ele><time>2026-04-04T10:28:00Z</time></trkpt><trkpt lat="41.36678298748531" lon="13.525964785009293"><ele>479.0</ele><time>2026-04-04T10:28:01Z</time></trkpt><trkpt lat="41.366941667799196" lon="13.525779343808177"><ele>479.0</ele><time>2026-04-04T10:28:02Z</time></trkpt><trkpt lat="41.367091104262" lon="13.525608081474253"><ele>476.3333333333333</ele><time>2026-04-04T10:28:03Z</time></trkpt><trkpt lat="41.36721846293937" lon="13.52545391365446"><ele>473.66666666666663</ele><time>2026-04-04T10:28:04Z</time></trkpt><trkpt lat="41.36732753407903" lon="13.525315547491527"><ele>471.0</ele><time>2026-04-04T10:28:05Z</time></trkpt><trkpt lat="41.367411684492" lon="13.525182192750515"><ele>471.0</ele><time>2026-04-04T10:28:06Z</time></trkpt><trkpt lat="41.36745883099956" lon="13.525049299416061"><ele>471.0</ele><time>2026-04-04T10:28:07Z</time></trkpt><trkpt lat="41.36748004604253" lon="13.524921900427982"><ele>471.0</ele><time>2026-04-04T10:28:08Z</time></trkpt><trkpt lat="41.367458488185875" lon="13.524808653121513"><ele>471.0</ele><time>2026-04-04T10:28:09Z</time></trkpt><trkpt lat="41.36740744498607" lon="13.524691316034186"><ele>471.0</ele><time>2026-04-04T10:28:10Z</time></trkpt><trkpt lat="41.3672725417965" lon="13.524665884605577"><ele>474.66666666666663</ele><time>2026-04-04T10:28:11Z</time></trkpt><trkpt lat="41.367131565028984" lon="13.524668197648001"><ele>478.3333333333333</ele><time>2026-04-04T10:28:12Z</time></trkpt><trkpt lat="41.36695974486574" lon="13.524713160114965"><ele>482.0</ele><time>2026-04-04T10:28:13Z</time></trkpt><trkpt lat="41.3667802059512" lon="13.52471924378718"><ele>482.0</ele><time>2026-04-04T10:28:14Z</time></trkpt><trkpt lat="41.36661050088496" lon="13.524746799988844"><ele>482.0</ele><time>2026-04-04T10:28:15Z</time></trkpt><trkpt lat="41.36644723011106" lon="13.524762616598972"><ele>482.0</ele><time>2026-04-04T10:28:16Z</time></trkpt><trkpt lat="41.36628245226219" lon="13.524763760420496"><ele>486.0</ele><time>2026-04-04T10:28:17Z</time></trkpt><trkpt lat="41.366120608653674" lon="13.524688722654206"><ele>490.0</ele><time>2026-04-04T10:28:18Z</time></trkpt><trkpt lat="41.365947200127955" lon="13.524626136461842"><ele>494.0</ele><time>2026-04-04T10:28:19Z</time></trkpt><trkpt lat="41.36575245587407" lon="13.52457752527314"><ele>494.0</ele><time>2026-04-04T10:28:20Z</time></trkpt><trkpt lat="41.365533595558205" lon="13.524616978328712"><ele>494.0</ele><time>2026-04-04T10:28:21Z</time></trkpt><trkpt lat="41.36530433962653" lon="13.52465979913519"><ele>497.5</ele><time>2026-04-04T10:28:22Z</time></trkpt><trkpt lat="41.36506518390166" lon="13.524700369704611"><ele>501.0</ele><time>2026-04-04T10:28:23Z</time></trkpt><trkpt lat="41.36483912183945" lon="13.524781931596472"><ele>491.5</ele><time>2026-04-04T10:28:24Z</time></trkpt><trkpt lat="41.36463088621247" lon="13.524933099067493"><ele>482.0</ele><time>2026-04-04T10:28:25Z</time></trkpt><trkpt lat="41.364411513250104" lon="13.52510212004443"><ele>482.0</ele><time>2026-04-04T10:28:26Z</time></trkpt><trkpt lat="41.36417834399479" lon="13.525258907410606"><ele>482.0</ele><time>2026-04-04T10:28:27Z</time></trkpt><trkpt lat="41.36397075193332" lon="13.525416888721093"><ele>485.66666666666663</ele><time>2026-04-04T10:28:28Z</time></trkpt><trkpt lat="41.36377971488382" lon="13.525568663136632"><ele>489.33333333333337</ele><time>2026-04-04T10:28:29Z</time></trkpt><trkpt lat="41.36360819567543" lon="13.525749553626648"><ele>493.0</ele><time>2026-04-04T10:28:30Z</time></trkpt><trkpt lat="41.36345406832303" lon="13.525984745367484"><ele>493.0</ele><time>2026-04-04T10:28:31Z</time></trkpt><trkpt lat="41.3632933714815" lon="13.52618480269737"><ele>493.0</ele><time>2026-04-04T10:28:32Z</time></trkpt><trkpt lat="41.36312771198671" lon="13.526314919448991"><ele>493.0</ele><time>2026-04-04T10:28:33Z</time></trkpt><trkpt lat="41.36298738506391" lon="13.526451795891562"><ele>497.6666666666667</ele><time>2026-04-04T10:28:34Z</time></trkpt><trkpt lat="41.36281312499607" lon="13.526558070049427"><ele>502.33333333333337</ele><time>2026-04-04T10:28:35Z</time></trkpt><trkpt lat="41.36261724725868" lon="13.526613047627308"><ele>507.0</ele><time>2026-04-04T10:28:36Z</time></trkpt><trkpt lat="41.362412774790904" lon="13.5266831216542"><ele>508.66666666666663</ele><time>2026-04-04T10:28:37Z</time></trkpt><trkpt lat="41.36219538959879" lon="13.526695715167676"><ele>510.3333333333333</ele><time>2026-04-04T10:28:38Z</time></trkpt><trkpt lat="41.3619859127585" lon="13.52669655566734"><ele>512.0</ele><time>2026-04-04T10:28:39Z</time></trkpt><trkpt lat="41.36177756946896" lon="13.526689501145714"><ele>512.0</ele><time>2026-04-04T10:28:40Z</time></trkpt><trkpt lat="41.361576664558974" lon="13.52669108578611"><ele>512.0</ele><time>2026-04-04T10:28:41Z</time></trkpt><trkpt lat="41.3613597467884" lon="13.526687801090304"><ele>512.0</ele><time>2026-04-04T10:28:42Z</time></trkpt><trkpt lat="41.36113782342422" lon="13.526696052672756"><ele>512.6666666666666</ele><time>2026-04-04T10:28:43Z</time></trkpt><trkpt lat="41.36091852744613" lon="13.526701308578966"><ele>513.3333333333334</ele><time>2026-04-04T10:28:44Z</time></trkpt><trkpt lat="41.36070025762311" lon="13.526702717341232"><ele>514.0</ele><time>2026-04-04T10:28:45Z</time></trkpt><trkpt lat="41.36047977934126" lon="13.526715029471479"><ele>514.0</ele><time>2026-04-04T10:28:46Z</time></trkpt><trkpt lat="41.360244417440434" lon="13.526765811620004"><ele>514.0</ele><time>2026-04-04T10:28:47Z</time></trkpt><trkpt lat="41.359991178308825" lon="13.526840365331125"><ele>514.0</ele><time>2026-04-04T10:28:48Z</time></trkpt><trkpt lat="41.359714891893056" lon="13.526920342112517"><ele>514.0</ele><time>2026-04-04T10:28:49Z</time></trkpt><trkpt lat="41.359457732025945" lon="13.526988836751512"><ele>514.0</ele><time>2026-04-04T10:28:50Z</time></trkpt><trkpt lat="41.35922292734603" lon="13.52703719257393"><ele>514.0</ele><time>2026-04-04T10:28:51Z</time></trkpt><trkpt lat="41.35901208588648" lon="13.527060618841546"><ele>514.0</ele><time>2026-04-04T10:28:52Z</time></trkpt><trkpt lat="41.35881859466799" lon="13.527085047018161"><ele>527.0</ele><time>2026-04-04T10:28:53Z</time></trkpt><trkpt lat="41.35862248848751" lon="13.527119715298815"><ele>540.0</ele><time>2026-04-04T10:28:54Z</time></trkpt><trkpt lat="41.35844466053117" lon="13.52715850095077"><ele>553.0</ele><time>2026-04-04T10:28:55Z</time></trkpt><trkpt lat="41.358280775739885" lon="13.527108634656427"><ele>553.0</ele><time>2026-04-04T10:28:56Z</time></trkpt><trkpt lat="41.35811344387307" lon="13.527066732498506"><ele>553.0</ele><time>2026-04-04T10:28:57Z</time></trkpt><trkpt lat="41.35791710290169" lon="13.526996809737494"><ele>553.0</ele><time>2026-04-04T10:28:58Z</time></trkpt><trkpt lat="41.357722091945824" lon="13.526948238506165"><ele>545.6666666666667</ele><time>2026-04-04T10:28:59Z</time></trkpt><trkpt lat="41.35755052405405" lon="13.526907279633965"><ele>538.3333333333334</ele><time>2026-04-04T10:29:00Z</time></trkpt><trkpt lat="41.357399845406306" lon="13.526874390971487"><ele>531.0</ele><time>2026-04-04T10:29:01Z</time></trkpt><trkpt lat="41.35726378000412" lon="13.52683966161779"><ele>535.5</ele><time>2026-04-04T10:29:02Z</time></trkpt><trkpt lat="41.35713714821288" lon="13.52680899631629"><ele>540.0</ele><time>2026-04-04T10:29:03Z</time></trkpt><trkpt lat="41.35702323276614" lon="13.526784134065414"><ele>544.5</ele><time>2026-04-04T10:29:04Z</time></trkpt><trkpt lat="41.35691456548778" lon="13.526754967502681"><ele>549.0</ele><time>2026-04-04T10:29:05Z</time></trkpt><trkpt lat="41.356809240018116" lon="13.52671103588608"><ele>549.0</ele><time>2026-04-04T10:29:06Z</time></trkpt><trkpt lat="41.35669361497727" lon="13.526633456422214"><ele>549.0</ele><time>2026-04-04T10:29:07Z</time></trkpt><trkpt lat="41.356588369568684" lon="13.526525723679544"><ele>549.0</ele><time>2026-04-04T10:29:08Z</time></trkpt><trkpt lat="41.356478295474595" lon="13.526413487386861"><ele>549.0</ele><time>2026-04-04T10:29:09Z</time></trkpt><trkpt lat="41.35636894375047" lon="13.526310849337879"><ele>547.25</ele><time>2026-04-04T10:29:10Z</time></trkpt><trkpt lat="41.35627113593467" lon="13.526230525139532"><ele>545.5</ele><time>2026-04-04T10:29:11Z</time></trkpt><trkpt lat="41.35616741657108" lon="13.526177094596637"><ele>543.75</ele><time>2026-04-04T10:29:12Z</time></trkpt><trkpt lat="41.35605557642812" lon="13.526146203302812"><ele>542.0</ele><time>2026-04-04T10:29:13Z</time></trkpt><trkpt lat="41.35592724599207" lon="13.526134630549015"><ele>542.0</ele><time>2026-04-04T10:29:14Z</time></trkpt><trkpt lat="41.35579742719562" lon="13.526142199461418"><ele>542.0</ele><time>2026-04-04T10:29:15Z</time></trkpt><trkpt lat="41.35567819305273" lon="13.526170672170371"><ele>542.0</ele><time>2026-04-04T10:29:16Z</time></trkpt><trkpt lat="41.355577931072354" lon="13.526183413068303"><ele>542.0</ele><time>2026-04-04T10:29:17Z</time></trkpt><trkpt lat="41.35549466708921" lon="13.52618512964467"><ele>542.0</ele><time>2026-04-04T10:29:18Z</time></trkpt><trkpt lat="41.35540150353365" lon="13.526153497470386"><ele>545.5</ele><time>2026-04-04T10:29:19Z</time></trkpt><trkpt lat="41.35530504046857" lon="13.52610749304287"><ele>549.0</ele><time>2026-04-04T10:29:20Z</time></trkpt><trkpt lat="41.355220969720975" lon="13.526019278234815"><ele>552.5</ele><time>2026-04-04T10:29:21Z</time></trkpt><trkpt lat="41.35514132568349" lon="13.525907016801524"><ele>556.0</ele><time>2026-04-04T10:29:22Z</time></trkpt><trkpt lat="41.35506508532016" lon="13.52575166643135"><ele>556.0</ele><time>2026-04-04T10:29:23Z</time></trkpt><trkpt lat="41.35499149810572" lon="13.52555213724943"><ele>556.0</ele><time>2026-04-04T10:29:24Z</time></trkpt><trkpt lat="41.35490947435221" lon="13.525343169071265"><ele>556.0</ele><time>2026-04-04T10:29:25Z</time></trkpt><trkpt lat="41.35483170598827" lon="13.525131730470815"><ele>556.0</ele><time>2026-04-04T10:29:26Z</time></trkpt><trkpt lat="41.35475455282634" lon="13.524910836357595"><ele>556.0</ele><time>2026-04-04T10:29:27Z</time></trkpt><trkpt lat="41.354666233300755" lon="13.524668114665849"><ele>556.0</ele><time>2026-04-04T10:29:28Z</time></trkpt><trkpt lat="41.35457214796641" lon="13.524403405417097"><ele>561.3333333333334</ele><time>2026-04-04T10:29:29Z</time></trkpt><trkpt lat="41.35450286822541" lon="13.524132944550667"><ele>566.6666666666666</ele><time>2026-04-04T10:29:30Z</time></trkpt><trkpt lat="41.35446100624752" lon="13.523916544892977"><ele>572.0</ele><time>2026-04-04T10:29:31Z</time></trkpt><trkpt lat="41.354431628104955" lon="13.523716279609262"><ele>572.0</ele><time>2026-04-04T10:29:32Z</time></trkpt><trkpt lat="41.35441817764631" lon="13.523515809585682"><ele>572.0</ele><time>2026-04-04T10:29:33Z</time></trkpt><trkpt lat="41.35446218730722" lon="13.523315225864728"><ele>572.0</ele><time>2026-04-04T10:29:34Z</time></trkpt><trkpt lat="41.35451801680268" lon="13.523106169094854"><ele>572.0</ele><time>2026-04-04T10:29:35Z</time></trkpt><trkpt lat="41.35460761416561" lon="13.522910837035433"><ele>572.0</ele><time>2026-04-04T10:29:36Z</time></trkpt><trkpt lat="41.35472487036812" lon="13.522730207914217"><ele>572.0</ele><time>2026-04-04T10:29:37Z</time></trkpt><trkpt lat="41.35486506263519" lon="13.522583436009436"><ele>571.0</ele><time>2026-04-04T10:29:38Z</time></trkpt><trkpt lat="41.35502887417025" lon="13.522477991823497"><ele>570.0</ele><time>2026-04-04T10:29:39Z</time></trkpt><trkpt lat="41.35520907212441" lon="13.522386756733512"><ele>569.0</ele><time>2026-04-04T10:29:40Z</time></trkpt><trkpt lat="41.355379686662204" lon="13.522318600595232"><ele>569.0</ele><time>2026-04-04T10:29:41Z</time></trkpt><trkpt lat="41.35551985014799" lon="13.522292988549816"><ele>569.0</ele><time>2026-04-04T10:29:42Z</time></trkpt><trkpt lat="41.35566483712506" lon="13.52230564079277"><ele>569.0</ele><time>2026-04-04T10:29:43Z</time></trkpt><trkpt lat="41.35583046314068" lon="13.522323854685933"><ele>569.0</ele><time>2026-04-04T10:29:44Z</time></trkpt><trkpt lat="41.35600428731378" lon="13.522391790028832"><ele>569.0</ele><time>2026-04-04T10:29:45Z</time></trkpt><trkpt lat="41.35616595368418" lon="13.522419861424487"><ele>569.0</ele><time>2026-04-04T10:29:46Z</time></trkpt><trkpt lat="41.356296485171754" lon="13.5224648820434"><ele>570.25</ele><time>2026-04-04T10:29:47Z</time></trkpt><trkpt lat="41.35640445574895" lon="13.522483621603572"><ele>571.5</ele><time>2026-04-04T10:29:48Z</time></trkpt><trkpt lat="41.3565095793237" lon="13.522462037454192"><ele>572.75</ele><time>2026-04-04T10:29:49Z</time></trkpt><trkpt lat="41.35662287715284" lon="13.522384897865575"><ele>574.0</ele><time>2026-04-04T10:29:50Z</time></trkpt><trkpt lat="41.35671240865482" lon="13.522193716118124"><ele>577.0</ele><time>2026-04-04T10:29:51Z</time></trkpt><trkpt lat="41.35679544263538" lon="13.52200808130372"><ele>580.0</ele><time>2026-04-04T10:29:52Z</time></trkpt><trkpt lat="41.35684328011237" lon="13.521818690432987"><ele>583.0</ele><time>2026-04-04T10:29:53Z</time></trkpt><trkpt lat="41.356850956018064" lon="13.521618824296857"><ele>583.0</ele><time>2026-04-04T10:29:54Z</time></trkpt><trkpt lat="41.35682342583927" lon="13.521401475627032"><ele>583.0</ele><time>2026-04-04T10:29:55Z</time></trkpt><trkpt lat="41.356780179509336" lon="13.521183334083412"><ele>583.0</ele><time>2026-04-04T10:29:56Z</time></trkpt><trkpt lat="41.35670476335485" lon="13.52098373675595"><ele>582.0</ele><time>2026-04-04T10:29:57Z</time></trkpt><trkpt lat="41.35659940440684" lon="13.520793898555716"><ele>581.0</ele><time>2026-04-04T10:29:58Z</time></trkpt><trkpt lat="41.35647361486513" lon="13.520595487377628"><ele>580.0</ele><time>2026-04-04T10:29:59Z</time></trkpt><trkpt lat="41.35634644321585" lon="13.520406052493312"><ele>582.3333333333334</ele><time>2026-04-04T10:30:00Z</time></trkpt><trkpt lat="41.3562128032912" lon="13.520228964311942"><ele>584.6666666666666</ele><time>2026-04-04T10:30:01Z</time></trkpt><trkpt lat="41.35609262018663" lon="13.520076023008777"><ele>587.0</ele><time>2026-04-04T10:30:02Z</time></trkpt><trkpt lat="41.35597382829117" lon="13.519954882385589"><ele>587.0</ele><time>2026-04-04T10:30:03Z</time></trkpt><trkpt lat="41.35582675184181" lon="13.51989512364397"><ele>587.0</ele><time>2026-04-04T10:30:04Z</time></trkpt><trkpt lat="41.35567213929314" lon="13.519857365661847"><ele>587.0</ele><time>2026-04-04T10:30:05Z</time></trkpt><trkpt lat="41.35552865225445" lon="13.519862856233948"><ele>588.0</ele><time>2026-04-04T10:30:06Z</time></trkpt><trkpt lat="41.355423100681975" lon="13.519923348036668"><ele>589.0</ele><time>2026-04-04T10:30:07Z</time></trkpt><trkpt lat="41.35533248346379" lon="13.52004498193396"><ele>590.0</ele><time>2026-04-04T10:30:08Z</time></trkpt><trkpt lat="41.35526060186844" lon="13.520223187813412"><ele>591.0</ele><time>2026-04-04T10:30:09Z</time></trkpt><trkpt lat="41.35516115307164" lon="13.52040833187408"><ele>592.3333333333334</ele><time>2026-04-04T10:30:10Z</time></trkpt><trkpt lat="41.35500253181788" lon="13.520540414307304"><ele>593.6666666666667</ele><time>2026-04-04T10:30:11Z</time></trkpt><trkpt lat="41.35483460946648" lon="13.520685656922689"><ele>595.0</ele><time>2026-04-04T10:30:12Z</time></trkpt><trkpt lat="41.3546555021355" lon="13.52081345427235"><ele>598.0</ele><time>2026-04-04T10:30:13Z</time></trkpt><trkpt lat="41.354472429919305" lon="13.520947420127575"><ele>601.0</ele><time>2026-04-04T10:30:14Z</time></trkpt><trkpt lat="41.35427539816007" lon="13.521062509473845"><ele>604.0</ele><time>2026-04-04T10:30:15Z</time></trkpt><trkpt lat="41.35408542995365" lon="13.521192320979843"><ele>606.0</ele><time>2026-04-04T10:30:16Z</time></trkpt><trkpt lat="41.35389935550733" lon="13.521312827861394"><ele>608.0</ele><time>2026-04-04T10:30:17Z</time></trkpt><trkpt lat="41.35371705987492" lon="13.521405593804628"><ele>610.0</ele><time>2026-04-04T10:30:18Z</time></trkpt><trkpt lat="41.35355166208875" lon="13.521475656863513"><ele>610.0</ele><time>2026-04-04T10:30:19Z</time></trkpt><trkpt lat="41.353395079233714" lon="13.521554591049316"><ele>610.0</ele><time>2026-04-04T10:30:20Z</time></trkpt><trkpt lat="41.35325083784392" lon="13.521629698205361"><ele>610.0</ele><time>2026-04-04T10:30:21Z</time></trkpt><trkpt lat="41.35312020313563" lon="13.521763683628162"><ele>612.3333333333334</ele><time>2026-04-04T10:30:22Z</time></trkpt><trkpt lat="41.3530150529267" lon="13.5219349892593"><ele>614.6666666666666</ele><time>2026-04-04T10:30:23Z</time></trkpt><trkpt lat="41.352901513081605" lon="13.5221164076166"><ele>617.0</ele><time>2026-04-04T10:30:24Z</time></trkpt><trkpt lat="41.352764764615145" lon="13.52228922724873"><ele>617.0</ele><time>2026-04-04T10:30:25Z</time></trkpt><trkpt lat="41.35261740055131" lon="13.52246012287794"><ele>617.0</ele><time>2026-04-04T10:30:26Z</time></trkpt><trkpt lat="41.35246922784115" lon="13.522627103838811"><ele>617.0</ele><time>2026-04-04T10:30:27Z</time></trkpt><trkpt lat="41.35232665214328" lon="13.52278977926304"><ele>621.0</ele><time>2026-04-04T10:30:28Z</time></trkpt><trkpt lat="41.3521682734559" lon="13.522931809959815"><ele>625.0</ele><time>2026-04-04T10:30:29Z</time></trkpt><trkpt lat="41.35199972323948" lon="13.52305549123057"><ele>629.0</ele><time>2026-04-04T10:30:30Z</time></trkpt><trkpt lat="41.351838703048095" lon="13.523184392846298"><ele>629.0</ele><time>2026-04-04T10:30:31Z</time></trkpt><trkpt lat="41.35171296256539" lon="13.523328239004012"><ele>629.0</ele><time>2026-04-04T10:30:32Z</time></trkpt><trkpt lat="41.35161821209944" lon="13.523483962523557"><ele>629.0</ele><time>2026-04-04T10:30:33Z</time></trkpt><trkpt lat="41.35153668706998" lon="13.523620487064328"><ele>629.0</ele><time>2026-04-04T10:30:34Z</time></trkpt><trkpt lat="41.35147687788851" lon="13.523744193226056"><ele>627.25</ele><time>2026-04-04T10:30:35Z</time></trkpt><trkpt lat="41.3514729298766" lon="13.523907505090285"><ele>625.5</ele><time>2026-04-04T10:30:36Z</time></trkpt><trkpt lat="41.35153047404965" lon="13.524090409980065"><ele>623.75</ele><time>2026-04-04T10:30:37Z</time></trkpt><trkpt lat="41.351616129650026" lon="13.52427712517997"><ele>622.0</ele><time>2026-04-04T10:30:38Z</time></trkpt><trkpt lat="41.35167677569194" lon="13.524469582631834"><ele>621.5</ele><time>2026-04-04T10:30:39Z</time></trkpt><trkpt lat="41.3516836275832" lon="13.524658368131963"><ele>621.0</ele><time>2026-04-04T10:30:40Z</time></trkpt><trkpt lat="41.351648410968956" lon="13.524812892809065"><ele>620.5</ele><time>2026-04-04T10:30:41Z</time></trkpt><trkpt lat="41.35155521861771" lon="13.524915045012296"><ele>620.0</ele><time>2026-04-04T10:30:42Z</time></trkpt><trkpt lat="41.35145586801352" lon="13.525023430150014"><ele>625.5</ele><time>2026-04-04T10:30:43Z</time></trkpt><trkpt lat="41.3513201587843" lon="13.524993760685822"><ele>631.0</ele><time>2026-04-04T10:30:44Z</time></trkpt><trkpt lat="41.35118621871462" lon="13.524965971036185"><ele>636.5</ele><time>2026-04-04T10:30:45Z</time></trkpt><trkpt lat="41.35105504536783" lon="13.524880460226868"><ele>642.0</ele><time>2026-04-04T10:30:46Z</time></trkpt><trkpt lat="41.35090971978276" lon="13.52475636363462"><ele>642.0</ele><time>2026-04-04T10:30:47Z</time></trkpt><trkpt lat="41.35075155977499" lon="13.524608111253112"><ele>642.0</ele><time>2026-04-04T10:30:48Z</time></trkpt><trkpt lat="41.35058473310305" lon="13.524449582983605"><ele>642.0</ele><time>2026-04-04T10:30:49Z</time></trkpt><trkpt lat="41.35041422952757" lon="13.524287560716164"><ele>642.0</ele><time>2026-04-04T10:30:50Z</time></trkpt><trkpt lat="41.35023163746404" lon="13.524114787674822"><ele>642.0</ele><time>2026-04-04T10:30:51Z</time></trkpt><trkpt lat="41.35004264582126" lon="13.523938694109688"><ele>642.0</ele><time>2026-04-04T10:30:52Z</time></trkpt><trkpt lat="41.34985830762549" lon="13.523768473262725"><ele>642.0</ele><time>2026-04-04T10:30:53Z</time></trkpt><trkpt lat="41.3496885719279" lon="13.523601726477938"><ele>642.0</ele><time>2026-04-04T10:30:54Z</time></trkpt><trkpt lat="41.34954329164469" lon="13.523451226663099"><ele>636.3333333333334</ele><time>2026-04-04T10:30:55Z</time></trkpt><trkpt lat="41.349400301789146" lon="13.523293936523695"><ele>630.6666666666667</ele><time>2026-04-04T10:30:56Z</time></trkpt><trkpt lat="41.349256884678844" lon="13.523133002247297"><ele>625.0</ele><time>2026-04-04T10:30:57Z</time></trkpt><trkpt lat="41.349101764000594" lon="13.522961055144956"><ele>629.0</ele><time>2026-04-04T10:30:58Z</time></trkpt><trkpt lat="41.34892784475208" lon="13.522770050151854"><ele>633.0</ele><time>2026-04-04T10:30:59Z</time></trkpt><trkpt lat="41.34872063384914" lon="13.522549831647561"><ele>621.0</ele><time>2026-04-04T10:31:00Z</time></trkpt><trkpt lat="41.34847895964867" lon="13.522330537176053"><ele>609.0</ele><time>2026-04-04T10:31:01Z</time></trkpt><trkpt lat="41.34822495285813" lon="13.522143129153399"><ele>612.0</ele><time>2026-04-04T10:31:02Z</time></trkpt><trkpt lat="41.347993778807" lon="13.521980492277248"><ele>615.0</ele><time>2026-04-04T10:31:03Z</time></trkpt><trkpt lat="41.34778446201099" lon="13.521834231422027"><ele>615.0</ele><time>2026-04-04T10:31:04Z</time></trkpt><trkpt lat="41.34758560125156" lon="13.52170790359071"><ele>615.0</ele><time>2026-04-04T10:31:05Z</time></trkpt><trkpt lat="41.34739949797493" lon="13.521620221453835"><ele>615.0</ele><time>2026-04-04T10:31:06Z</time></trkpt><trkpt lat="41.34721713773712" lon="13.52155585586794"><ele>608.6666666666666</ele><time>2026-04-04T10:31:07Z</time></trkpt><trkpt lat="41.3470517347307" lon="13.52149937450918"><ele>602.3333333333333</ele><time>2026-04-04T10:31:08Z</time></trkpt><trkpt lat="41.34690236788488" lon="13.521441305248453"><ele>596.0</ele><time>2026-04-04T10:31:09Z</time></trkpt><trkpt lat="41.34676650068658" lon="13.521384716593257"><ele>596.0</ele><time>2026-04-04T10:31:10Z</time></trkpt><trkpt lat="41.3466361922276" lon="13.521328455185461"><ele>596.0</ele><time>2026-04-04T10:31:11Z</time></trkpt><trkpt lat="41.34651539836465" lon="13.521273453557798"><ele>596.0</ele><time>2026-04-04T10:31:12Z</time></trkpt><trkpt lat="41.346393761735115" lon="13.521214597127463"><ele>596.0</ele><time>2026-04-04T10:31:13Z</time></trkpt><trkpt lat="41.34626099795963" lon="13.521153145761861"><ele>597.75</ele><time>2026-04-04T10:31:14Z</time></trkpt><trkpt lat="41.346126453034756" lon="13.521095921956974"><ele>599.5</ele><time>2026-04-04T10:31:15Z</time></trkpt><trkpt lat="41.345992045436155" lon="13.52104270485148"><ele>601.25</ele><time>2026-04-04T10:31:16Z</time></trkpt><trkpt lat="41.34587156075976" lon="13.52100162639537"><ele>603.0</ele><time>2026-04-04T10:31:17Z</time></trkpt><trkpt lat="41.3457630797264" lon="13.520949322855618"><ele>603.0</ele><time>2026-04-04T10:31:18Z</time></trkpt><trkpt lat="41.3456650183085" lon="13.520871841479787"><ele>603.0</ele><time>2026-04-04T10:31:19Z</time></trkpt><trkpt lat="41.34558563610156" lon="13.520747531870533"><ele>603.0</ele><time>2026-04-04T10:31:20Z</time></trkpt><trkpt lat="41.34554787018827" lon="13.520577905287047"><ele>603.0</ele><time>2026-04-04T10:31:21Z</time></trkpt><trkpt lat="41.34552186480139" lon="13.520354959591796"><ele>595.6666666666666</ele><time>2026-04-04T10:31:22Z</time></trkpt><trkpt lat="41.34549845810562" lon="13.520101818873284"><ele>588.3333333333333</ele><time>2026-04-04T10:31:23Z</time></trkpt><trkpt lat="41.34547467086155" lon="13.519848265588745"><ele>581.0</ele><time>2026-04-04T10:31:24Z</time></trkpt><trkpt lat="41.3454501250978" lon="13.51960238157243"><ele>583.6666666666666</ele><time>2026-04-04T10:31:25Z</time></trkpt><trkpt lat="41.345430115711" lon="13.519378640588267"><ele>586.3333333333334</ele><time>2026-04-04T10:31:26Z</time></trkpt><trkpt lat="41.34540902505424" lon="13.519179355651898"><ele>589.0</ele><time>2026-04-04T10:31:27Z</time></trkpt><trkpt lat="41.34538064360607" lon="13.519007581650994"><ele>589.0</ele><time>2026-04-04T10:31:28Z</time></trkpt><trkpt lat="41.34533113301337" lon="13.518855468188326"><ele>589.0</ele><time>2026-04-04T10:31:29Z</time></trkpt><trkpt lat="41.34524773241457" lon="13.518737752074568"><ele>589.0</ele><time>2026-04-04T10:31:30Z</time></trkpt><trkpt lat="41.34511697550649" lon="13.518683432858888"><ele>589.0</ele><time>2026-04-04T10:31:31Z</time></trkpt><trkpt lat="41.3449683695211" lon="13.518729593685741"><ele>589.0</ele><time>2026-04-04T10:31:32Z</time></trkpt><trkpt lat="41.344797347691944" lon="13.518749415572138"><ele>589.0</ele><time>2026-04-04T10:31:33Z</time></trkpt><trkpt lat="41.34462067249574" lon="13.518787218525043"><ele>589.0</ele><time>2026-04-04T10:31:34Z</time></trkpt><trkpt lat="41.34444483841079" lon="13.51887365318388"><ele>588.6666666666667</ele><time>2026-04-04T10:31:35Z</time></trkpt><trkpt lat="41.34426533649614" lon="13.519013499404828"><ele>588.3333333333334</ele><time>2026-04-04T10:31:36Z</time></trkpt><trkpt lat="41.34408704856864" lon="13.519176710677476"><ele>588.0</ele><time>2026-04-04T10:31:37Z</time></trkpt><trkpt lat="41.34390863167795" lon="13.519362616070598"><ele>585.0</ele><time>2026-04-04T10:31:38Z</time></trkpt><trkpt lat="41.343731305050206" lon="13.519558485440884"><ele>582.0</ele><time>2026-04-04T10:31:39Z</time></trkpt><trkpt lat="41.34354571429277" lon="13.519748415202798"><ele>582.0</ele><time>2026-04-04T10:31:40Z</time></trkpt><trkpt lat="41.34335529185638" lon="13.519928313839495"><ele>582.0</ele><time>2026-04-04T10:31:41Z</time></trkpt><trkpt lat="41.343159367937915" lon="13.52009619545935"><ele>575.5</ele><time>2026-04-04T10:31:42Z</time></trkpt><trkpt lat="41.34296422695761" lon="13.520269104084216"><ele>569.0</ele><time>2026-04-04T10:31:43Z</time></trkpt><trkpt lat="41.34276463472029" lon="13.520420052666545"><ele>569.0</ele><time>2026-04-04T10:31:44Z</time></trkpt><trkpt lat="41.34256276196358" lon="13.520571495844449"><ele>569.0</ele><time>2026-04-04T10:31:45Z</time></trkpt><trkpt lat="41.342364019941016" lon="13.520709814923638"><ele>573.6666666666666</ele><time>2026-04-04T10:31:46Z</time></trkpt><trkpt lat="41.342172868128976" lon="13.520845904581389"><ele>578.3333333333334</ele><time>2026-04-04T10:31:47Z</time></trkpt><trkpt lat="41.3419865515445" lon="13.5209765243408"><ele>583.0</ele><time>2026-04-04T10:31:48Z</time></trkpt><trkpt lat="41.34180041133909" lon="13.521098191370973"><ele>583.0</ele><time>2026-04-04T10:31:49Z</time></trkpt><trkpt lat="41.341612889452136" lon="13.521203594395367"><ele>583.0</ele><time>2026-04-04T10:31:50Z</time></trkpt><trkpt lat="41.341429739007054" lon="13.521278539674881"><ele>583.0</ele><time>2026-04-04T10:31:51Z</time></trkpt><trkpt lat="41.34124727270705" lon="13.521328428804471"><ele>573.3333333333334</ele><time>2026-04-04T10:31:52Z</time></trkpt><trkpt lat="41.34106763775019" lon="13.521347450126052"><ele>563.6666666666666</ele><time>2026-04-04T10:31:53Z</time></trkpt><trkpt lat="41.34088076301142" lon="13.521344458236475"><ele>554.0</ele><time>2026-04-04T10:31:54Z</time></trkpt><trkpt lat="41.34070072742233" lon="13.521294745820052"><ele>556.6666666666666</ele><time>2026-04-04T10:31:55Z</time></trkpt><trkpt lat="41.34051670962874" lon="13.521215460464015"><ele>559.3333333333334</ele><time>2026-04-04T10:31:56Z</time></trkpt><trkpt lat="41.34033650244808" lon="13.521112303780834"><ele>562.0</ele><time>2026-04-04T10:31:57Z</time></trkpt><trkpt lat="41.34015470205581" lon="13.520966292215359"><ele>562.0</ele><time>2026-04-04T10:31:58Z</time></trkpt><trkpt lat="41.339965719569626" lon="13.52079509299252"><ele>562.0</ele><time>2026-04-04T10:31:59Z</time></trkpt><trkpt lat="41.339776522469734" lon="13.520626532554708"><ele>560.3333333333334</ele><time>2026-04-04T10:32:00Z</time></trkpt><trkpt lat="41.33960284352107" lon="13.520466937505459"><ele>558.6666666666666</ele><time>2026-04-04T10:32:01Z</time></trkpt><trkpt lat="41.339438939265136" lon="13.520317494834272"><ele>557.0</ele><time>2026-04-04T10:32:02Z</time></trkpt><trkpt lat="41.3392863437999" lon="13.52017042747795"><ele>557.0</ele><time>2026-04-04T10:32:03Z</time></trkpt><trkpt lat="41.33914712592728" lon="13.52003231572698"><ele>557.0</ele><time>2026-04-04T10:32:04Z</time></trkpt><trkpt lat="41.33901904061331" lon="13.519907330857665"><ele>557.0</ele><time>2026-04-04T10:32:05Z</time></trkpt><trkpt lat="41.338898871845906" lon="13.519792366816624"><ele>554.75</ele><time>2026-04-04T10:32:06Z</time></trkpt><trkpt lat="41.33878502068002" lon="13.519693820738839"><ele>552.5</ele><time>2026-04-04T10:32:07Z</time></trkpt><trkpt lat="41.33866896426573" lon="13.519631899768278"><ele>550.25</ele><time>2026-04-04T10:32:08Z</time></trkpt><trkpt lat="41.33853631245605" lon="13.519633096329374"><ele>548.0</ele><time>2026-04-04T10:32:09Z</time></trkpt><trkpt lat="41.338405204240594" lon="13.519705942678602"><ele>548.0</ele><time>2026-04-04T10:32:10Z</time></trkpt><trkpt lat="41.33830737621349" lon="13.51981970796488"><ele>548.0</ele><time>2026-04-04T10:32:11Z</time></trkpt><trkpt lat="41.338224423163375" lon="13.519987596318959"><ele>548.0</ele><time>2026-04-04T10:32:12Z</time></trkpt><trkpt lat="41.338133665152085" lon="13.52017168750055"><ele>548.0</ele><time>2026-04-04T10:32:13Z</time></trkpt><trkpt lat="41.33804891066538" lon="13.520333321161784"><ele>545.75</ele><time>2026-04-04T10:32:14Z</time></trkpt><trkpt lat="41.337986981798124" lon="13.520486478792497"><ele>543.5</ele><time>2026-04-04T10:32:15Z</time></trkpt><trkpt lat="41.33797251945956" lon="13.520651085458889"><ele>541.25</ele><time>2026-04-04T10:32:16Z</time></trkpt><trkpt lat="41.338012400350934" lon="13.520802638893135"><ele>539.0</ele><time>2026-04-04T10:32:17Z</time></trkpt><trkpt lat="41.33810566849173" lon="13.520947575826408"><ele>539.0</ele><time>2026-04-04T10:32:18Z</time></trkpt><trkpt lat="41.33822335038248" lon="13.521089160674896"><ele>539.0</ele><time>2026-04-04T10:32:19Z</time></trkpt><trkpt lat="41.338327293225085" lon="13.521239381333602"><ele>539.0</ele><time>2026-04-04T10:32:20Z</time></trkpt><trkpt lat="41.33840623055831" lon="13.521423755787563"><ele>539.0</ele><time>2026-04-04T10:32:21Z</time></trkpt><trkpt lat="41.33847340614533" lon="13.521643837733809"><ele>539.0</ele><time>2026-04-04T10:32:22Z</time></trkpt><trkpt lat="41.33852182498928" lon="13.521889484196835"><ele>539.0</ele><time>2026-04-04T10:32:23Z</time></trkpt><trkpt lat="41.33856097991245" lon="13.522150479877999"><ele>539.0</ele><time>2026-04-04T10:32:24Z</time></trkpt><trkpt lat="41.33859956701869" lon="13.52240772509171"><ele>539.0</ele><time>2026-04-04T10:32:25Z</time></trkpt><trkpt lat="41.338634493100635" lon="13.522630732407256"><ele>539.0</ele><time>2026-04-04T10:32:26Z</time></trkpt><trkpt lat="41.338669938614196" lon="13.522821695774596"><ele>535.3333333333333</ele><time>2026-04-04T10:32:27Z</time></trkpt><trkpt lat="41.33874841864394" lon="13.523003937891596"><ele>531.6666666666666</ele><time>2026-04-04T10:32:28Z</time></trkpt><trkpt lat="41.338875579365556" lon="13.52318552761227"><ele>528.0</ele><time>2026-04-04T10:32:29Z</time></trkpt><trkpt lat="41.33900391786233" lon="13.52333570902793"><ele>528.0</ele><time>2026-04-04T10:32:30Z</time></trkpt><trkpt lat="41.33911311085267" lon="13.523444753284892"><ele>528.0</ele><time>2026-04-04T10:32:31Z</time></trkpt><trkpt lat="41.33920637266992" lon="13.523522261629688"><ele>528.0</ele><time>2026-04-04T10:32:32Z</time></trkpt><trkpt lat="41.33929325302915" lon="13.523554555784557"><ele>528.0</ele><time>2026-04-04T10:32:33Z</time></trkpt><trkpt lat="41.339376798181625" lon="13.523521741882764"><ele>528.0</ele><time>2026-04-04T10:32:34Z</time></trkpt><trkpt lat="41.33945200926333" lon="13.523409918948209"><ele>528.0</ele><time>2026-04-04T10:32:35Z</time></trkpt><trkpt lat="41.339496248195495" lon="13.523242296130551"><ele>528.0</ele><time>2026-04-04T10:32:36Z</time></trkpt><trkpt lat="41.33950571641311" lon="13.52303970145897"><ele>528.0</ele><time>2026-04-04T10:32:37Z</time></trkpt><trkpt lat="41.339484626908785" lon="13.52283554498748"><ele>528.0</ele><time>2026-04-04T10:32:38Z</time></trkpt><trkpt lat="41.33942379046421" lon="13.52266454201698"><ele>529.0</ele><time>2026-04-04T10:32:39Z</time></trkpt><trkpt lat="41.33932355739338" lon="13.522517510201421"><ele>530.0</ele><time>2026-04-04T10:32:40Z</time></trkpt><trkpt lat="41.33920954671449" lon="13.5223833786415"><ele>531.0</ele><time>2026-04-04T10:32:41Z</time></trkpt><trkpt lat="41.33912216937335" lon="13.522265109907273"><ele>532.0</ele><time>2026-04-04T10:32:42Z</time></trkpt><trkpt lat="41.33905991373705" lon="13.522165611761967"><ele>531.8000000000001</ele><time>2026-04-04T10:32:43Z</time></trkpt><trkpt lat="41.33903223266309" lon="13.52206281858662"><ele>531.6</ele><time>2026-04-04T10:32:44Z</time></trkpt><trkpt lat="41.33905143437209" lon="13.521951235098484"><ele>531.4000000000001</ele><time>2026-04-04T10:32:45Z</time></trkpt><trkpt lat="41.33912178643024" lon="13.521837978085887"><ele>531.2</ele><time>2026-04-04T10:32:46Z</time></trkpt><trkpt lat="41.339228725535754" lon="13.521735575552658"><ele>531.0</ele><time>2026-04-04T10:32:47Z</time></trkpt><trkpt lat="41.33931983409438" lon="13.521678246244228"><ele>531.0</ele><time>2026-04-04T10:32:48Z</time></trkpt><trkpt lat="41.339412223568196" lon="13.521711825564385"><ele>531.0</ele><time>2026-04-04T10:32:49Z</time></trkpt><trkpt lat="41.339513289291574" lon="13.521835088291636"><ele>531.0</ele><time>2026-04-04T10:32:50Z</time></trkpt><trkpt lat="41.33962596294764" lon="13.522020880880886"><ele>531.0</ele><time>2026-04-04T10:32:51Z</time></trkpt><trkpt lat="41.33975474365065" lon="13.52223156476761"><ele>526.5</ele><time>2026-04-04T10:32:52Z</time></trkpt><trkpt lat="41.339934354083" lon="13.522432017018554"><ele>522.0</ele><time>2026-04-04T10:32:53Z</time></trkpt><trkpt lat="41.34013999393203" lon="13.522577954979445"><ele>522.0</ele><time>2026-04-04T10:32:54Z</time></trkpt><trkpt lat="41.34029600296905" lon="13.522721273693008"><ele>522.0</ele><time>2026-04-04T10:32:55Z</time></trkpt><trkpt lat="41.340451341733775" lon="13.522858559796052"><ele>522.0</ele><time>2026-04-04T10:32:56Z</time></trkpt><trkpt lat="41.34061210685319" lon="13.523000605156355"><ele>517.6666666666666</ele><time>2026-04-04T10:32:57Z</time></trkpt><trkpt lat="41.340782388287984" lon="13.523125887855283"><ele>513.3333333333333</ele><time>2026-04-04T10:32:58Z</time></trkpt><trkpt lat="41.34095885414344" lon="13.52323935827001"><ele>509.0</ele><time>2026-04-04T10:32:59Z</time></trkpt><trkpt lat="41.34113421735858" lon="13.523332551470798"><ele>509.0</ele><time>2026-04-04T10:33:00Z</time></trkpt><trkpt lat="41.34129229398506" lon="13.52340283700405"><ele>509.0</ele><time>2026-04-04T10:33:01Z</time></trkpt><trkpt lat="41.3414206314435" lon="13.523437441565655"><ele>509.0</ele><time>2026-04-04T10:33:02Z</time></trkpt><trkpt lat="41.34154590372928" lon="13.523448831196799"><ele>509.0</ele><time>2026-04-04T10:33:03Z</time></trkpt><trkpt lat="41.34167215687729" lon="13.523403877568494"><ele>508.3333333333333</ele><time>2026-04-04T10:33:04Z</time></trkpt><trkpt lat="41.34180097347307" lon="13.523294294521822"><ele>507.66666666666663</ele><time>2026-04-04T10:33:05Z</time></trkpt><trkpt lat="41.34191767768206" lon="13.52314532461166"><ele>507.0</ele><time>2026-04-04T10:33:06Z</time></trkpt><trkpt lat="41.342024871717" lon="13.523025062792074"><ele>507.0</ele><time>2026-04-04T10:33:07Z</time></trkpt><trkpt lat="41.3421391792041" lon="13.52291930019009"><ele>507.0</ele><time>2026-04-04T10:33:08Z</time></trkpt><trkpt lat="41.34228377438393" lon="13.522836933101802"><ele>507.0</ele><time>2026-04-04T10:33:09Z</time></trkpt><trkpt lat="41.34243352993499" lon="13.522790911537927"><ele>508.6</ele><time>2026-04-04T10:33:10Z</time></trkpt><trkpt lat="41.34256852815779" lon="13.522771891031056"><ele>510.20000000000005</ele><time>2026-04-04T10:33:11Z</time></trkpt><trkpt lat="41.34266997330964" lon="13.522788889916258"><ele>511.8</ele><time>2026-04-04T10:33:12Z</time></trkpt><trkpt lat="41.34276129755242" lon="13.522852388832934"><ele>513.4</ele><time>2026-04-04T10:33:13Z</time></trkpt><trkpt lat="41.34283307340039" lon="13.52293823822955"><ele>515.0</ele><time>2026-04-04T10:33:14Z</time></trkpt><trkpt lat="41.342894928559225" lon="13.523068132877734"><ele>510.75</ele><time>2026-04-04T10:33:15Z</time></trkpt><trkpt lat="41.34290508603635" lon="13.523207654258051"><ele>506.5</ele><time>2026-04-04T10:33:16Z</time></trkpt><trkpt lat="41.34286566783898" lon="13.523340464919926"><ele>502.25</ele><time>2026-04-04T10:33:17Z</time></trkpt><trkpt lat="41.342786144050514" lon="13.523503122168258"><ele>498.0</ele><time>2026-04-04T10:33:18Z</time></trkpt><trkpt lat="41.34269127049026" lon="13.523685265726026"><ele>497.0</ele><time>2026-04-04T10:33:19Z</time></trkpt><trkpt lat="41.3425999423211" lon="13.523876885211779"><ele>496.0</ele><time>2026-04-04T10:33:20Z</time></trkpt><trkpt lat="41.34249975878849" lon="13.524085800617794"><ele>495.0</ele><time>2026-04-04T10:33:21Z</time></trkpt><trkpt lat="41.34239301338475" lon="13.524297873001526"><ele>495.0</ele><time>2026-04-04T10:33:22Z</time></trkpt><trkpt lat="41.342272940546614" lon="13.524509094130192"><ele>495.0</ele><time>2026-04-04T10:33:23Z</time></trkpt><trkpt lat="41.342151957420775" lon="13.524703741010008"><ele>495.0</ele><time>2026-04-04T10:33:24Z</time></trkpt><trkpt lat="41.34204593369038" lon="13.524881423030097"><ele>491.0</ele><time>2026-04-04T10:33:25Z</time></trkpt><trkpt lat="41.341943978404956" lon="13.525045025127351"><ele>487.0</ele><time>2026-04-04T10:33:26Z</time></trkpt><trkpt lat="41.341859429052" lon="13.525201297777793"><ele>483.0</ele><time>2026-04-04T10:33:27Z</time></trkpt><trkpt lat="41.34179498576383" lon="13.525359527779054"><ele>479.0</ele><time>2026-04-04T10:33:28Z</time></trkpt><trkpt lat="41.34175555636064" lon="13.525523276125988"><ele>477.3333333333333</ele><time>2026-04-04T10:33:29Z</time></trkpt><trkpt lat="41.34175898142753" lon="13.52571948304923"><ele>475.66666666666663</ele><time>2026-04-04T10:33:30Z</time></trkpt><trkpt lat="41.34180445597061" lon="13.52592182239958"><ele>474.0</ele><time>2026-04-04T10:33:31Z</time></trkpt><trkpt lat="41.34188956090612" lon="13.526112003281838"><ele>474.66666666666663</ele><time>2026-04-04T10:33:32Z</time></trkpt><trkpt lat="41.34200761754102" lon="13.52626643031948"><ele>475.3333333333333</ele><time>2026-04-04T10:33:33Z</time></trkpt><trkpt lat="41.34215034595836" lon="13.526372451267516"><ele>476.0</ele><time>2026-04-04T10:33:34Z</time></trkpt><trkpt lat="41.34230869369095" lon="13.5264371346007"><ele>476.0</ele><time>2026-04-04T10:33:35Z</time></trkpt><trkpt lat="41.34245117621928" lon="13.526482933917066"><ele>476.0</ele><time>2026-04-04T10:33:36Z</time></trkpt><trkpt lat="41.34256379511201" lon="13.52652797197472"><ele>476.0</ele><time>2026-04-04T10:33:37Z</time></trkpt><trkpt lat="41.34265410849616" lon="13.526603063298886"><ele>476.0</ele><time>2026-04-04T10:33:38Z</time></trkpt><trkpt lat="41.34271344902858" lon="13.526707115831979"><ele>476.0</ele><time>2026-04-04T10:33:39Z</time></trkpt><trkpt lat="41.34273559805574" lon="13.526845443201935"><ele>476.0</ele><time>2026-04-04T10:33:40Z</time></trkpt><trkpt lat="41.34271238978714" lon="13.526986375548118"><ele>476.0</ele><time>2026-04-04T10:33:41Z</time></trkpt><trkpt lat="41.34263912898789" lon="13.527103948703857"><ele>476.0</ele><time>2026-04-04T10:33:42Z</time></trkpt><trkpt lat="41.342512592483935" lon="13.52720998239931"><ele>478.0</ele><time>2026-04-04T10:33:43Z</time></trkpt><trkpt lat="41.34236158151265" lon="13.527343210518147"><ele>480.0</ele><time>2026-04-04T10:33:44Z</time></trkpt><trkpt lat="41.342216914435795" lon="13.527493115311998"><ele>482.0</ele><time>2026-04-04T10:33:45Z</time></trkpt><trkpt lat="41.34206034026536" lon="13.527654981596404"><ele>478.3333333333333</ele><time>2026-04-04T10:33:46Z</time></trkpt><trkpt lat="41.341893587700035" lon="13.52782210371448"><ele>474.66666666666663</ele><time>2026-04-04T10:33:47Z</time></trkpt><trkpt lat="41.341722573790655" lon="13.52799547443086"><ele>471.0</ele><time>2026-04-04T10:33:48Z</time></trkpt><trkpt lat="41.3415517096688" lon="13.528170958959597"><ele>471.0</ele><time>2026-04-04T10:33:49Z</time></trkpt><trkpt lat="41.34138904537982" lon="13.528337674414683"><ele>471.0</ele><time>2026-04-04T10:33:50Z</time></trkpt><trkpt lat="41.341234900758074" lon="13.528495011030572"><ele>471.0</ele><time>2026-04-04T10:33:51Z</time></trkpt><trkpt lat="41.34107812193334" lon="13.528656390544636"><ele>468.33333333333337</ele><time>2026-04-04T10:33:52Z</time></trkpt><trkpt lat="41.340924339028824" lon="13.52882769751056"><ele>465.6666666666667</ele><time>2026-04-04T10:33:53Z</time></trkpt><trkpt lat="41.340782760276696" lon="13.52903075690422"><ele>463.0</ele><time>2026-04-04T10:33:54Z</time></trkpt><trkpt lat="41.34065082735525" lon="13.52925540827799"><ele>457.6666666666667</ele><time>2026-04-04T10:33:55Z</time></trkpt><trkpt lat="41.34051126846834" lon="13.529481432481543"><ele>452.33333333333337</ele><time>2026-04-04T10:33:56Z</time></trkpt><trkpt lat="41.340367364292796" lon="13.529707088192525"><ele>447.0</ele><time>2026-04-04T10:33:57Z</time></trkpt><trkpt lat="41.34021914204165" lon="13.529930265425168"><ele>447.0</ele><time>2026-04-04T10:33:58Z</time></trkpt><trkpt lat="41.3400729309431" lon="13.530145128609691"><ele>447.0</ele><time>2026-04-04T10:33:59Z</time></trkpt><trkpt lat="41.33992113920846" lon="13.530350215277158"><ele>447.0</ele><time>2026-04-04T10:34:00Z</time></trkpt><trkpt lat="41.33976457725378" lon="13.53055310442615"><ele>443.66666666666663</ele><time>2026-04-04T10:34:01Z</time></trkpt><trkpt lat="41.33960357418774" lon="13.530736968520683"><ele>440.3333333333333</ele><time>2026-04-04T10:34:02Z</time></trkpt><trkpt lat="41.33942832464629" lon="13.530898679755401"><ele>437.0</ele><time>2026-04-04T10:34:03Z</time></trkpt><trkpt lat="41.339249915163684" lon="13.531053259493229"><ele>437.0</ele><time>2026-04-04T10:34:04Z</time></trkpt><trkpt lat="41.33908139475168" lon="13.531223475725394"><ele>437.0</ele><time>2026-04-04T10:34:05Z</time></trkpt><trkpt lat="41.338931719049285" lon="13.531417545164325"><ele>437.0</ele><time>2026-04-04T10:34:06Z</time></trkpt><trkpt lat="41.33880316000609" lon="13.531631599637004"><ele>439.0</ele><time>2026-04-04T10:34:07Z</time></trkpt><trkpt lat="41.33868683812556" lon="13.53185141836114"><ele>441.0</ele><time>2026-04-04T10:34:08Z</time></trkpt><trkpt lat="41.338581898565074" lon="13.5320451005388"><ele>443.0</ele><time>2026-04-04T10:34:09Z</time></trkpt><trkpt lat="41.3384763383944" lon="13.53220093206344"><ele>443.0</ele><time>2026-04-04T10:34:10Z</time></trkpt><trkpt lat="41.3383504899362" lon="13.5323232514456"><ele>443.0</ele><time>2026-04-04T10:34:11Z</time></trkpt><trkpt lat="41.33820301927608" lon="13.53240154888148"><ele>443.0</ele><time>2026-04-04T10:34:12Z</time></trkpt><trkpt lat="41.33802813310794" lon="13.53245466024467"><ele>435.3333333333333</ele><time>2026-04-04T10:34:13Z</time></trkpt><trkpt lat="41.3378484887813" lon="13.53257190470093"><ele>427.66666666666663</ele><time>2026-04-04T10:34:14Z</time></trkpt><trkpt lat="41.33767211377956" lon="13.53271451207671"><ele>420.0</ele><time>2026-04-04T10:34:15Z</time></trkpt><trkpt lat="41.337508680019525" lon="13.532849763642595"><ele>416.66666666666663</ele><time>2026-04-04T10:34:16Z</time></trkpt><trkpt lat="41.337354085598896" lon="13.532974687730848"><ele>413.3333333333333</ele><time>2026-04-04T10:34:17Z</time></trkpt><trkpt lat="41.337203383410916" lon="13.53311335086616"><ele>410.0</ele><time>2026-04-04T10:34:18Z</time></trkpt><trkpt lat="41.33706361460738" lon="13.533279057906602"><ele>410.0</ele><time>2026-04-04T10:34:19Z</time></trkpt><trkpt lat="41.33693230063566" lon="13.533480290345782"><ele>410.0</ele><time>2026-04-04T10:34:20Z</time></trkpt><trkpt lat="41.33680254440489" lon="13.533694676405531"><ele>410.0</ele><time>2026-04-04T10:34:21Z</time></trkpt><trkpt lat="41.33667431139891" lon="13.533919724817174"><ele>409.3333333333333</ele><time>2026-04-04T10:34:22Z</time></trkpt><trkpt lat="41.33654381470499" lon="13.53415053449713"><ele>408.66666666666663</ele><time>2026-04-04T10:34:23Z</time></trkpt><trkpt lat="41.336407575247605" lon="13.53437810177446"><ele>408.0</ele><time>2026-04-04T10:34:24Z</time></trkpt><trkpt lat="41.336276969094676" lon="13.534606052021346"><ele>408.0</ele><time>2026-04-04T10:34:25Z</time></trkpt><trkpt lat="41.33615687819071" lon="13.534841540583145"><ele>408.0</ele><time>2026-04-04T10:34:26Z</time></trkpt><trkpt lat="41.33605485482831" lon="13.535079813730658"><ele>408.0</ele><time>2026-04-04T10:34:27Z</time></trkpt><trkpt lat="41.33597638146143" lon="13.535314196890969"><ele>410.66666666666663</ele><time>2026-04-04T10:34:28Z</time></trkpt><trkpt lat="41.33590686951201" lon="13.5355662957751"><ele>413.3333333333333</ele><time>2026-04-04T10:34:29Z</time></trkpt><trkpt lat="41.33584959998737" lon="13.535830587308645"><ele>416.0</ele><time>2026-04-04T10:34:30Z</time></trkpt><trkpt lat="41.33582054624301" lon="13.53610658079609"><ele>416.3333333333333</ele><time>2026-04-04T10:34:31Z</time></trkpt><trkpt lat="41.33581145597016" lon="13.536392987092968"><ele>416.66666666666663</ele><time>2026-04-04T10:34:32Z</time></trkpt><trkpt lat="41.33581349076536" lon="13.536661921771632"><ele>417.0</ele><time>2026-04-04T10:34:33Z</time></trkpt><trkpt lat="41.33581710009574" lon="13.536913674644046"><ele>415.0</ele><time>2026-04-04T10:34:34Z</time></trkpt><trkpt lat="41.335820550042584" lon="13.537149799308914"><ele>413.0</ele><time>2026-04-04T10:34:35Z</time></trkpt><trkpt lat="41.33582530444791" lon="13.537360096356823"><ele>411.0</ele><time>2026-04-04T10:34:36Z</time></trkpt><trkpt lat="41.335825894867305" lon="13.537552175909047"><ele>411.0</ele><time>2026-04-04T10:34:37Z</time></trkpt><trkpt lat="41.33580592913806" lon="13.537727740205627"><ele>411.0</ele><time>2026-04-04T10:34:38Z</time></trkpt><trkpt lat="41.335747843191754" lon="13.53789926083713"><ele>411.0</ele><time>2026-04-04T10:34:39Z</time></trkpt><trkpt lat="41.33563961565614" lon="13.538057412405296"><ele>411.0</ele><time>2026-04-04T10:34:40Z</time></trkpt><trkpt lat="41.33553874705359" lon="13.538161746496613"><ele>408.66666666666663</ele><time>2026-04-04T10:34:41Z</time></trkpt><trkpt lat="41.335422156744166" lon="13.538214741133435"><ele>406.3333333333333</ele><time>2026-04-04T10:34:42Z</time></trkpt><trkpt lat="41.33527256238478" lon="13.538215085487563"><ele>404.0</ele><time>2026-04-04T10:34:43Z</time></trkpt><trkpt lat="41.33508607865557" lon="13.538177336598526"><ele>404.0</ele><time>2026-04-04T10:34:44Z</time></trkpt><trkpt lat="41.334885862188116" lon="13.538163222334168"><ele>404.0</ele><time>2026-04-04T10:34:45Z</time></trkpt><trkpt lat="41.33470485511516" lon="13.538167644482678"><ele>404.0</ele><time>2026-04-04T10:34:46Z</time></trkpt><trkpt lat="41.33453630983498" lon="13.538167173123211"><ele>402.5</ele><time>2026-04-04T10:34:47Z</time></trkpt><trkpt lat="41.33437894570454" lon="13.538168708555855"><ele>401.0</ele><time>2026-04-04T10:34:48Z</time></trkpt><trkpt lat="41.33423203189699" lon="13.53818626467885"><ele>399.5</ele><time>2026-04-04T10:34:49Z</time></trkpt><trkpt lat="41.3340958641653" lon="13.538215337159448"><ele>398.0</ele><time>2026-04-04T10:34:50Z</time></trkpt><trkpt lat="41.33396772205453" lon="13.538265529829086"><ele>394.0</ele><time>2026-04-04T10:34:51Z</time></trkpt><trkpt lat="41.33383793161675" lon="13.538369253880125"><ele>390.0</ele><time>2026-04-04T10:34:52Z</time></trkpt><trkpt lat="41.333708905712285" lon="13.538531217407254"><ele>386.0</ele><time>2026-04-04T10:34:53Z</time></trkpt><trkpt lat="41.333574130081935" lon="13.538708138515132"><ele>389.66666666666663</ele><time>2026-04-04T10:34:54Z</time></trkpt><trkpt lat="41.3334149072526" lon="13.538862984796918"><ele>393.33333333333337</ele><time>2026-04-04T10:34:55Z</time></trkpt><trkpt lat="41.33324127762025" lon="13.53899536327064"><ele>397.0</ele><time>2026-04-04T10:34:56Z</time></trkpt><trkpt lat="41.33306508645716" lon="13.539136837478775"><ele>396.6666666666667</ele><time>2026-04-04T10:34:57Z</time></trkpt><trkpt lat="41.33288465268715" lon="13.539290574708257"><ele>396.33333333333337</ele><time>2026-04-04T10:34:58Z</time></trkpt><trkpt lat="41.33270146080562" lon="13.539462084125088"><ele>396.0</ele><time>2026-04-04T10:34:59Z</time></trkpt><trkpt lat="41.33252298813274" lon="13.539657558478254"><ele>396.0</ele><time>2026-04-04T10:35:00Z</time></trkpt><trkpt lat="41.33234105132556" lon="13.53986736812228"><ele>396.0</ele><time>2026-04-04T10:35:01Z</time></trkpt><trkpt lat="41.332157204550995" lon="13.540081023349845"><ele>391.5</ele><time>2026-04-04T10:35:02Z</time></trkpt><trkpt lat="41.3319766581627" lon="13.540287418109996"><ele>387.0</ele><time>2026-04-04T10:35:03Z</time></trkpt><trkpt lat="41.33180690349103" lon="13.540477355865168"><ele>387.0</ele><time>2026-04-04T10:35:04Z</time></trkpt><trkpt lat="41.3316361667008" lon="13.540665028393173"><ele>387.0</ele><time>2026-04-04T10:35:05Z</time></trkpt><trkpt lat="41.3314541680122" lon="13.540847548395428"><ele>387.0</ele><time>2026-04-04T10:35:06Z</time></trkpt><trkpt lat="41.331264413988976" lon="13.541019566651414"><ele>384.5</ele><time>2026-04-04T10:35:07Z</time></trkpt><trkpt lat="41.331070082089354" lon="13.541188833644878"><ele>382.0</ele><time>2026-04-04T10:35:08Z</time></trkpt><trkpt lat="41.33087893303751" lon="13.541352222164413"><ele>382.0</ele><time>2026-04-04T10:35:09Z</time></trkpt><trkpt lat="41.33070426421332" lon="13.541508187044704"><ele>382.0</ele><time>2026-04-04T10:35:10Z</time></trkpt><trkpt lat="41.330539213830484" lon="13.541662427461745"><ele>382.0</ele><time>2026-04-04T10:35:11Z</time></trkpt><trkpt lat="41.33038305047588" lon="13.541806485240617"><ele>382.3333333333333</ele><time>2026-04-04T10:35:12Z</time></trkpt><trkpt lat="41.33023880258921" lon="13.541938818190392"><ele>382.6666666666667</ele><time>2026-04-04T10:35:13Z</time></trkpt><trkpt lat="41.330083060311445" lon="13.54205140126254"><ele>383.0</ele><time>2026-04-04T10:35:14Z</time></trkpt><trkpt lat="41.32989697136484" lon="13.54211434657054"><ele>379.6666666666667</ele><time>2026-04-04T10:35:15Z</time></trkpt><trkpt lat="41.32968894890239" lon="13.542147666924375"><ele>376.3333333333333</ele><time>2026-04-04T10:35:16Z</time></trkpt><trkpt lat="41.329496293094564" lon="13.542184900344589"><ele>373.0</ele><time>2026-04-04T10:35:17Z</time></trkpt><trkpt lat="41.329318367385646" lon="13.542215341484193"><ele>373.0</ele><time>2026-04-04T10:35:18Z</time></trkpt><trkpt lat="41.32914306200355" lon="13.542202968123863"><ele>373.0</ele><time>2026-04-04T10:35:19Z</time></trkpt><trkpt lat="41.32895459589295" lon="13.542157051019636"><ele>373.0</ele><time>2026-04-04T10:35:20Z</time></trkpt><trkpt lat="41.32877081848872" lon="13.542095361369919"><ele>366.0</ele><time>2026-04-04T10:35:21Z</time></trkpt><trkpt lat="41.328604097656964" lon="13.542033811868537"><ele>359.0</ele><time>2026-04-04T10:35:22Z</time></trkpt><trkpt lat="41.32844848613541" lon="13.541988002544025"><ele>352.0</ele><time>2026-04-04T10:35:23Z</time></trkpt><trkpt lat="41.32829771394114" lon="13.541969288028133"><ele>352.0</ele><time>2026-04-04T10:35:24Z</time></trkpt><trkpt lat="41.32813667009257" lon="13.542009706138822"><ele>352.0</ele><time>2026-04-04T10:35:25Z</time></trkpt><trkpt lat="41.32797861552456" lon="13.542098597386016"><ele>352.0</ele><time>2026-04-04T10:35:26Z</time></trkpt><trkpt lat="41.327832531529765" lon="13.542229133258415"><ele>352.0</ele><time>2026-04-04T10:35:27Z</time></trkpt><trkpt lat="41.327717532439664" lon="13.542379069811078"><ele>352.0</ele><time>2026-04-04T10:35:28Z</time></trkpt><trkpt lat="41.32761037629" lon="13.542523156483036"><ele>352.0</ele><time>2026-04-04T10:35:29Z</time></trkpt><trkpt lat="41.32748274259191" lon="13.542648694840087"><ele>352.0</ele><time>2026-04-04T10:35:30Z</time></trkpt><trkpt lat="41.3273203867856" lon="13.542748073313819"><ele>352.0</ele><time>2026-04-04T10:35:31Z</time></trkpt><trkpt lat="41.32713884768377" lon="13.542842704125185"><ele>352.0</ele><time>2026-04-04T10:35:32Z</time></trkpt><trkpt lat="41.326959657663636" lon="13.54295133964601"><ele>351.0</ele><time>2026-04-04T10:35:33Z</time></trkpt><trkpt lat="41.326787737696854" lon="13.543071774451827"><ele>350.0</ele><time>2026-04-04T10:35:34Z</time></trkpt><trkpt lat="41.32663202873868" lon="13.543195211593183"><ele>349.0</ele><time>2026-04-04T10:35:35Z</time></trkpt><trkpt lat="41.32649042548912" lon="13.54332170049249"><ele>346.3333333333333</ele><time>2026-04-04T10:35:36Z</time></trkpt><trkpt lat="41.32634589262161" lon="13.543432942040624"><ele>343.6666666666667</ele><time>2026-04-04T10:35:37Z</time></trkpt><trkpt lat="41.32619676484646" lon="13.543530272583672"><ele>341.0</ele><time>2026-04-04T10:35:38Z</time></trkpt><trkpt lat="41.32603965329031" lon="13.543608085689256"><ele>341.0</ele><time>2026-04-04T10:35:39Z</time></trkpt><trkpt lat="41.325887564347475" lon="13.543656409673108"><ele>341.0</ele><time>2026-04-04T10:35:40Z</time></trkpt><trkpt lat="41.3257512309847" lon="13.543682507114603"><ele>341.0</ele><time>2026-04-04T10:35:41Z</time></trkpt><trkpt lat="41.32560705291031" lon="13.543673469866091"><ele>341.0</ele><time>2026-04-04T10:35:42Z</time></trkpt><trkpt lat="41.325450681708034" lon="13.543590839473604"><ele>340.33333333333337</ele><time>2026-04-04T10:35:43Z</time></trkpt><trkpt lat="41.32530529460231" lon="13.543467247297938"><ele>339.6666666666667</ele><time>2026-04-04T10:35:44Z</time></trkpt><trkpt lat="41.325180190177434" lon="13.543364164949345"><ele>339.0</ele><time>2026-04-04T10:35:45Z</time></trkpt><trkpt lat="41.325075015411926" lon="13.54324516964898"><ele>339.0</ele><time>2026-04-04T10:35:46Z</time></trkpt><trkpt lat="41.32499819417232" lon="13.543055793916324"><ele>339.0</ele><time>2026-04-04T10:35:47Z</time></trkpt><trkpt lat="41.32489987623871" lon="13.542844047080816"><ele>339.0</ele><time>2026-04-04T10:35:48Z</time></trkpt><trkpt lat="41.32481434739691" lon="13.542588512093582"><ele>340.3333333333333</ele><time>2026-04-04T10:35:49Z</time></trkpt><trkpt lat="41.32472775961622" lon="13.542348890151498"><ele>341.66666666666663</ele><time>2026-04-04T10:35:50Z</time></trkpt><trkpt lat="41.32464758852565" lon="13.542136149336361"><ele>343.0</ele><time>2026-04-04T10:35:51Z</time></trkpt><trkpt lat="41.32457500292934" lon="13.54193899117305"><ele>339.0</ele><time>2026-04-04T10:35:52Z</time></trkpt><trkpt lat="41.324506467888874" lon="13.54175672052979"><ele>335.0</ele><time>2026-04-04T10:35:53Z</time></trkpt><trkpt lat="41.324419993509466" lon="13.541591145046423"><ele>331.0</ele><time>2026-04-04T10:35:54Z</time></trkpt><trkpt lat="41.3242894368594" lon="13.541461419798894"><ele>331.0</ele><time>2026-04-04T10:35:55Z</time></trkpt><trkpt lat="41.324132639547265" lon="13.541376389396797"><ele>331.0</ele><time>2026-04-04T10:35:56Z</time></trkpt><trkpt lat="41.323986456286434" lon="13.541344143471225"><ele>331.0</ele><time>2026-04-04T10:35:57Z</time></trkpt><trkpt lat="41.32386014139127" lon="13.54131739021426"><ele>331.0</ele><time>2026-04-04T10:35:58Z</time></trkpt><trkpt lat="41.32375419296844" lon="13.541282559392567"><ele>331.0</ele><time>2026-04-04T10:35:59Z</time></trkpt><trkpt lat="41.32367112974732" lon="13.541226184929785"><ele>331.0</ele><time>2026-04-04T10:36:00Z</time></trkpt><trkpt lat="41.323620801484644" lon="13.541133081627363"><ele>331.0</ele><time>2026-04-04T10:36:01Z</time></trkpt><trkpt lat="41.323613228997026" lon="13.54103656978207"><ele>331.0</ele><time>2026-04-04T10:36:02Z</time></trkpt><trkpt lat="41.32365489234577" lon="13.54093646746188"><ele>331.0</ele><time>2026-04-04T10:36:03Z</time></trkpt><trkpt lat="41.323739957704724" lon="13.54085930362696"><ele>331.0</ele><time>2026-04-04T10:36:04Z</time></trkpt><trkpt lat="41.323875496954635" lon="13.540865490749416"><ele>327.0</ele><time>2026-04-04T10:36:05Z</time></trkpt><trkpt lat="41.324032169129545" lon="13.540867585960793"><ele>323.0</ele><time>2026-04-04T10:36:06Z</time></trkpt><trkpt lat="41.3241958918727" lon="13.540895518960916"><ele>319.0</ele><time>2026-04-04T10:36:07Z</time></trkpt><trkpt lat="41.324381651788144" lon="13.540936563094856"><ele>319.0</ele><time>2026-04-04T10:36:08Z</time></trkpt><trkpt lat="41.32456733396498" lon="13.541031988249582"><ele>319.0</ele><time>2026-04-04T10:36:09Z</time></trkpt><trkpt lat="41.324733615175255" lon="13.541118952997323"><ele>319.0</ele><time>2026-04-04T10:36:10Z</time></trkpt><trkpt lat="41.32489045722101" lon="13.54118886245948"><ele>318.3333333333333</ele><time>2026-04-04T10:36:11Z</time></trkpt><trkpt lat="41.32505875994959" lon="13.541233196827141"><ele>317.6666666666667</ele><time>2026-04-04T10:36:12Z</time></trkpt><trkpt lat="41.3252444606111" lon="13.54122193017987"><ele>317.0</ele><time>2026-04-04T10:36:13Z</time></trkpt><trkpt lat="41.32545602829101" lon="13.541169481771298"><ele>317.5</ele><time>2026-04-04T10:36:14Z</time></trkpt><trkpt lat="41.32567680398201" lon="13.541066486505741"><ele>318.0</ele><time>2026-04-04T10:36:15Z</time></trkpt><trkpt lat="41.32589360367047" lon="13.540967495322084"><ele>318.0</ele><time>2026-04-04T10:36:16Z</time></trkpt><trkpt lat="41.32608388891519" lon="13.540868636626145"><ele>318.0</ele><time>2026-04-04T10:36:17Z</time></trkpt><trkpt lat="41.32625504739939" lon="13.540772010076685"><ele>318.0</ele><time>2026-04-04T10:36:18Z</time></trkpt><trkpt lat="41.326428152742835" lon="13.54065771929354"><ele>319.0</ele><time>2026-04-04T10:36:19Z</time></trkpt><trkpt lat="41.32659165941303" lon="13.540492115003358"><ele>320.0</ele><time>2026-04-04T10:36:20Z</time></trkpt><trkpt lat="41.32674653673307" lon="13.540305787788652"><ele>321.0</ele><time>2026-04-04T10:36:21Z</time></trkpt><trkpt lat="41.32689170429233" lon="13.540125521603185"><ele>320.6666666666667</ele><time>2026-04-04T10:36:22Z</time></trkpt><trkpt lat="41.32703437237528" lon="13.53996897619057"><ele>320.33333333333337</ele><time>2026-04-04T10:36:23Z</time></trkpt><trkpt lat="41.32718215735434" lon="13.539841588020783"><ele>320.0</ele><time>2026-04-04T10:36:24Z</time></trkpt><trkpt lat="41.32733582171425" lon="13.539724021017472"><ele>320.0</ele><time>2026-04-04T10:36:25Z</time></trkpt><trkpt lat="41.32748356354146" lon="13.539602895120884"><ele>320.0</ele><time>2026-04-04T10:36:26Z</time></trkpt><trkpt lat="41.327640258078304" lon="13.539496921726654"><ele>320.0</ele><time>2026-04-04T10:36:27Z</time></trkpt><trkpt lat="41.327776575871646" lon="13.539398873189553"><ele>318.5</ele><time>2026-04-04T10:36:28Z</time></trkpt><trkpt lat="41.327900349537494" lon="13.539306743965374"><ele>317.0</ele><time>2026-04-04T10:36:29Z</time></trkpt><trkpt lat="41.32801510862931" lon="13.539216559392472"><ele>315.5</ele><time>2026-04-04T10:36:30Z</time></trkpt><trkpt lat="41.32811890427964" lon="13.539127012134417"><ele>314.0</ele><time>2026-04-04T10:36:31Z</time></trkpt><trkpt lat="41.32820433858288" lon="13.539043166768497"><ele>314.0</ele><time>2026-04-04T10:36:32Z</time></trkpt><trkpt lat="41.328245336020956" lon="13.538941488633947"><ele>314.0</ele><time>2026-04-04T10:36:33Z</time></trkpt><trkpt lat="41.32825107511836" lon="13.538831357008007"><ele>314.0</ele><time>2026-04-04T10:36:34Z</time></trkpt><trkpt lat="41.328211339714805" lon="13.538726061987276"><ele>314.0</ele><time>2026-04-04T10:36:35Z</time></trkpt><trkpt lat="41.32813195463467" lon="13.538651392788937"><ele>314.0</ele><time>2026-04-04T10:36:36Z</time></trkpt><trkpt lat="41.32802753248819" lon="13.538636530723961"><ele>313.25</ele><time>2026-04-04T10:36:37Z</time></trkpt><trkpt lat="41.3279099035748" lon="13.538674020621244"><ele>312.5</ele><time>2026-04-04T10:36:38Z</time></trkpt><trkpt lat="41.327771182141056" lon="13.538747365727922"><ele>311.75</ele><time>2026-04-04T10:36:39Z</time></trkpt><trkpt lat="41.32761996400017" lon="13.538816236490817"><ele>311.0</ele><time>2026-04-04T10:36:40Z</time></trkpt><trkpt lat="41.32745581155372" lon="13.53888442784829"><ele>311.0</ele><time>2026-04-04T10:36:41Z</time></trkpt><trkpt lat="41.32728452282903" lon="13.538951718974058"><ele>311.0</ele><time>2026-04-04T10:36:42Z</time></trkpt><trkpt lat="41.327107387021684" lon="13.539009787758953"><ele>311.0</ele><time>2026-04-04T10:36:43Z</time></trkpt><trkpt lat="41.326925872249376" lon="13.539021625655868"><ele>308.6666666666667</ele><time>2026-04-04T10:36:44Z</time></trkpt><trkpt lat="41.326748662207265" lon="13.539023718923424"><ele>306.3333333333333</ele><time>2026-04-04T10:36:45Z</time></trkpt><trkpt lat="41.32657666176796" lon="13.5390383817664"><ele>304.0</ele><time>2026-04-04T10:36:46Z</time></trkpt><trkpt lat="41.326421224674846" lon="13.539054844204259"><ele>303.3333333333333</ele><time>2026-04-04T10:36:47Z</time></trkpt><trkpt lat="41.32625748827206" lon="13.539076167627462"><ele>302.6666666666667</ele><time>2026-04-04T10:36:48Z</time></trkpt><trkpt lat="41.326100331810416" lon="13.539078443383366"><ele>302.0</ele><time>2026-04-04T10:36:49Z</time></trkpt><trkpt lat="41.325969930319836" lon="13.539048755365346"><ele>302.0</ele><time>2026-04-04T10:36:50Z</time></trkpt><trkpt lat="41.32587183844471" lon="13.538938979376448"><ele>302.0</ele><time>2026-04-04T10:36:51Z</time></trkpt><trkpt lat="41.325790586636586" lon="13.538797386412117"><ele>302.0</ele><time>2026-04-04T10:36:52Z</time></trkpt><trkpt lat="41.3257125180453" lon="13.538607624680317"><ele>302.0</ele><time>2026-04-04T10:36:53Z</time></trkpt><trkpt lat="41.32562716117681" lon="13.538377544888862"><ele>300.0</ele><time>2026-04-04T10:36:54Z</time></trkpt><trkpt lat="41.32554095949727" lon="13.53814505361902"><ele>298.0</ele><time>2026-04-04T10:36:55Z</time></trkpt><trkpt lat="41.3254651574836" lon="13.53793068303692"><ele>296.0</ele><time>2026-04-04T10:36:56Z</time></trkpt><trkpt lat="41.32538154719898" lon="13.537722286413224"><ele>294.33333333333337</ele><time>2026-04-04T10:36:57Z</time></trkpt><trkpt lat="41.32528280907506" lon="13.537549090947179"><ele>292.6666666666667</ele><time>2026-04-04T10:36:58Z</time></trkpt><trkpt lat="41.32517009993307" lon="13.537381943997088"><ele>291.0</ele><time>2026-04-04T10:36:59Z</time></trkpt><trkpt lat="41.32502436328735" lon="13.537233887313766"><ele>291.0</ele><time>2026-04-04T10:37:00Z</time></trkpt><trkpt lat="41.32487083448671" lon="13.537098534689319"><ele>291.0</ele><time>2026-04-04T10:37:01Z</time></trkpt><trkpt lat="41.32470891639486" lon="13.536988190407177"><ele>291.0</ele><time>2026-04-04T10:37:02Z</time></trkpt><trkpt lat="41.32453009831593" lon="13.53691670703959"><ele>287.3333333333333</ele><time>2026-04-04T10:37:03Z</time></trkpt><trkpt lat="41.32433488271786" lon="13.536881907398984"><ele>283.66666666666663</ele><time>2026-04-04T10:37:04Z</time></trkpt><trkpt lat="41.32411384769848" lon="13.536873120842815"><ele>280.0</ele><time>2026-04-04T10:37:05Z</time></trkpt><trkpt lat="41.323886305243086" lon="13.53686891737613"><ele>279.0</ele><time>2026-04-04T10:37:06Z</time></trkpt><trkpt lat="41.3236526851485" lon="13.536858824365819"><ele>278.0</ele><time>2026-04-04T10:37:07Z</time></trkpt><trkpt lat="41.323418848163115" lon="13.536842586584594"><ele>278.0</ele><time>2026-04-04T10:37:08Z</time></trkpt><trkpt lat="41.32317927614425" lon="13.53683121224887"><ele>278.0</ele><time>2026-04-04T10:37:09Z</time></trkpt><trkpt lat="41.322935605687526" lon="13.536820112428702"><ele>275.5</ele><time>2026-04-04T10:37:10Z</time></trkpt><trkpt lat="41.3226921734258" lon="13.53681623062296"><ele>273.0</ele><time>2026-04-04T10:37:11Z</time></trkpt><trkpt lat="41.32244442503383" lon="13.536812313819949"><ele>271.0</ele><time>2026-04-04T10:37:12Z</time></trkpt><trkpt lat="41.322196906568884" lon="13.536796029127352"><ele>269.0</ele><time>2026-04-04T10:37:13Z</time></trkpt><trkpt lat="41.3219527189548" lon="13.536779555235988"><ele>269.0</ele><time>2026-04-04T10:37:14Z</time></trkpt><trkpt lat="41.32169984296952" lon="13.536769577156733"><ele>269.0</ele><time>2026-04-04T10:37:15Z</time></trkpt><trkpt lat="41.321452197835114" lon="13.536759242954453"><ele>266.5</ele><time>2026-04-04T10:37:16Z</time></trkpt><trkpt lat="41.32120660640612" lon="13.53674166139348"><ele>264.0</ele><time>2026-04-04T10:37:17Z</time></trkpt><trkpt lat="41.32096354955149" lon="13.536728862303868"><ele>264.0</ele><time>2026-04-04T10:37:18Z</time></trkpt><trkpt lat="41.32073231218032" lon="13.536715176313963"><ele>264.0</ele><time>2026-04-04T10:37:19Z</time></trkpt><trkpt lat="41.320516187586165" lon="13.536697507495894"><ele>264.0</ele><time>2026-04-04T10:37:20Z</time></trkpt><trkpt lat="41.32029306468363" lon="13.536681612110828"><ele>262.0</ele><time>2026-04-04T10:37:21Z</time></trkpt><trkpt lat="41.32006136572312" lon="13.536652974075679"><ele>260.0</ele><time>2026-04-04T10:37:22Z</time></trkpt><trkpt lat="41.319832161067666" lon="13.536606379897362"><ele>257.0</ele><time>2026-04-04T10:37:23Z</time></trkpt><trkpt lat="41.319598216839566" lon="13.536541037808007"><ele>254.0</ele><time>2026-04-04T10:37:24Z</time></trkpt><trkpt lat="41.31936058262788" lon="13.536443412574926"><ele>254.0</ele><time>2026-04-04T10:37:25Z</time></trkpt><trkpt lat="41.319122798834314" lon="13.536359176754088"><ele>254.0</ele><time>2026-04-04T10:37:26Z</time></trkpt><trkpt lat="41.31888375233358" lon="13.536288467297219"><ele>251.5</ele><time>2026-04-04T10:37:27Z</time></trkpt><trkpt lat="41.31864126808552" lon="13.53621271750727"><ele>249.0</ele><time>2026-04-04T10:37:28Z</time></trkpt><trkpt lat="41.318409919666145" lon="13.536141933550736"><ele>249.0</ele><time>2026-04-04T10:37:29Z</time></trkpt><trkpt lat="41.31821613790501" lon="13.536074570596512"><ele>249.0</ele><time>2026-04-04T10:37:30Z</time></trkpt><trkpt lat="41.31801332102025" lon="13.536008601591632"><ele>249.0</ele><time>2026-04-04T10:37:31Z</time></trkpt><trkpt lat="41.31780574497712" lon="13.535940464583103"><ele>247.33333333333331</ele><time>2026-04-04T10:37:32Z</time></trkpt><trkpt lat="41.317607697501614" lon="13.535881622765373"><ele>245.66666666666666</ele><time>2026-04-04T10:37:33Z</time></trkpt><trkpt lat="41.31741720518257" lon="13.53584317311278"><ele>244.0</ele><time>2026-04-04T10:37:34Z</time></trkpt><trkpt lat="41.317217823427484" lon="13.535860854157848"><ele>243.33333333333331</ele><time>2026-04-04T10:37:35Z</time></trkpt><trkpt lat="41.31700660861042" lon="13.535967584035694"><ele>242.66666666666669</ele><time>2026-04-04T10:37:36Z</time></trkpt><trkpt lat="41.31680402867116" lon="13.536088087410496"><ele>242.0</ele><time>2026-04-04T10:37:37Z</time></trkpt><trkpt lat="41.31661799398315" lon="13.536191571507525"><ele>241.0</ele><time>2026-04-04T10:37:38Z</time></trkpt><trkpt lat="41.316436544140785" lon="13.536261653309422"><ele>240.0</ele><time>2026-04-04T10:37:39Z</time></trkpt><trkpt lat="41.31624068073838" lon="13.536287140169307"><ele>239.0</ele><time>2026-04-04T10:37:40Z</time></trkpt><trkpt lat="41.3160334371627" lon="13.536271566338232"><ele>238.66666666666669</ele><time>2026-04-04T10:37:41Z</time></trkpt><trkpt lat="41.315820553583116" lon="13.536216593813037"><ele>238.33333333333331</ele><time>2026-04-04T10:37:42Z</time></trkpt><trkpt lat="41.315623631135445" lon="13.536153366503868"><ele>238.0</ele><time>2026-04-04T10:37:43Z</time></trkpt><trkpt lat="41.31544179962334" lon="13.5361116461782"><ele>237.0</ele><time>2026-04-04T10:37:44Z</time></trkpt><trkpt lat="41.31526337597836" lon="13.536111260498448"><ele>236.0</ele><time>2026-04-04T10:37:45Z</time></trkpt><trkpt lat="41.315073957970704" lon="13.536151134325301"><ele>235.0</ele><time>2026-04-04T10:37:46Z</time></trkpt><trkpt lat="41.31488647623247" lon="13.536257904283412"><ele>232.66666666666666</ele><time>2026-04-04T10:37:47Z</time></trkpt><trkpt lat="41.31470448768625" lon="13.536367679339184"><ele>230.33333333333331</ele><time>2026-04-04T10:37:48Z</time></trkpt><trkpt lat="41.31451556048117" lon="13.536425781608935"><ele>228.0</ele><time>2026-04-04T10:37:49Z</time></trkpt><trkpt lat="41.31431359245803" lon="13.536457847596619"><ele>228.0</ele><time>2026-04-04T10:37:50Z</time></trkpt><trkpt lat="41.314109265463514" lon="13.536480523375081"><ele>228.0</ele><time>2026-04-04T10:37:51Z</time></trkpt><trkpt lat="41.313908546616915" lon="13.536496844791456"><ele>228.0</ele><time>2026-04-04T10:37:52Z</time></trkpt><trkpt lat="41.313716091638454" lon="13.536502184897866"><ele>226.33333333333331</ele><time>2026-04-04T10:37:53Z</time></trkpt><trkpt lat="41.313518917490164" lon="13.536473795274429"><ele>224.66666666666666</ele><time>2026-04-04T10:37:54Z</time></trkpt><trkpt lat="41.31331133199638" lon="13.536402668306382"><ele>223.0</ele><time>2026-04-04T10:37:55Z</time></trkpt><trkpt lat="41.313100190121794" lon="13.53629850178663"><ele>222.0</ele><time>2026-04-04T10:37:56Z</time></trkpt><trkpt lat="41.31287525416581" lon="13.536198901992531"><ele>221.0</ele><time>2026-04-04T10:37:57Z</time></trkpt><trkpt lat="41.31264825904983" lon="13.536106718183742"><ele>221.0</ele><time>2026-04-04T10:37:58Z</time></trkpt><trkpt lat="41.31241567771414" lon="13.536002998041068"><ele>221.0</ele><time>2026-04-04T10:37:59Z</time></trkpt><trkpt lat="41.31217823097166" lon="13.535901954372662"><ele>220.5</ele><time>2026-04-04T10:38:00Z</time></trkpt><trkpt lat="41.311951762507135" lon="13.53580317672686"><ele>220.0</ele><time>2026-04-04T10:38:01Z</time></trkpt><trkpt lat="41.31174837047511" lon="13.535713903516346"><ele>220.0</ele><time>2026-04-04T10:38:02Z</time></trkpt><trkpt lat="41.31155688862399" lon="13.535633991073128"><ele>220.0</ele><time>2026-04-04T10:38:03Z</time></trkpt><trkpt lat="41.311384888110965" lon="13.535554921088698"><ele>220.0</ele><time>2026-04-04T10:38:04Z</time></trkpt><trkpt lat="41.31122113278294" lon="13.535463692012671"><ele>220.33333333333331</ele><time>2026-04-04T10:38:05Z</time></trkpt><trkpt lat="41.311068529785835" lon="13.53533995413538"><ele>220.66666666666669</ele><time>2026-04-04T10:38:06Z</time></trkpt><trkpt lat="41.310930394285315" lon="13.53515747010833"><ele>221.0</ele><time>2026-04-04T10:38:07Z</time></trkpt><trkpt lat="41.31079424767032" lon="13.534951707528693"><ele>221.0</ele><time>2026-04-04T10:38:08Z</time></trkpt><trkpt lat="41.310645344790885" lon="13.534751099245533"><ele>221.0</ele><time>2026-04-04T10:38:09Z</time></trkpt><trkpt lat="41.31049052678334" lon="13.534556841810002"><ele>221.0</ele><time>2026-04-04T10:38:10Z</time></trkpt><trkpt lat="41.31034173939959" lon="13.53435621438843"><ele>220.33333333333334</ele><time>2026-04-04T10:38:11Z</time></trkpt><trkpt lat="41.310201866710024" lon="13.534164870147027"><ele>219.66666666666669</ele><time>2026-04-04T10:38:12Z</time></trkpt><trkpt lat="41.310064559992746" lon="13.533981059587788"><ele>219.0</ele><time>2026-04-04T10:38:13Z</time></trkpt><trkpt lat="41.30993128286615" lon="13.533805277578654"><ele>218.66666666666669</ele><time>2026-04-04T10:38:14Z</time></trkpt><trkpt lat="41.309807057231225" lon="13.5336376948309"><ele>218.33333333333334</ele><time>2026-04-04T10:38:15Z</time></trkpt><trkpt lat="41.30969088825118" lon="13.53348491292263"><ele>218.0</ele><time>2026-04-04T10:38:16Z</time></trkpt><trkpt lat="41.30957855113564" lon="13.53334708912152"><ele>218.0</ele><time>2026-04-04T10:38:17Z</time></trkpt><trkpt lat="41.30946510114592" lon="13.533228294476627"><ele>218.0</ele><time>2026-04-04T10:38:18Z</time></trkpt><trkpt lat="41.309338847301206" lon="13.533141268722497"><ele>218.0</ele><time>2026-04-04T10:38:19Z</time></trkpt><trkpt lat="41.30919299423326" lon="13.53309820897775"><ele>218.0</ele><time>2026-04-04T10:38:20Z</time></trkpt><trkpt lat="41.30903154746503" lon="13.53309804927507"><ele>217.33333333333334</ele><time>2026-04-04T10:38:21Z</time></trkpt><trkpt lat="41.30885903609957" lon="13.533125783907755"><ele>216.66666666666669</ele><time>2026-04-04T10:38:22Z</time></trkpt><trkpt lat="41.30869130229899" lon="13.533155006972068"><ele>216.0</ele><time>2026-04-04T10:38:23Z</time></trkpt><trkpt lat="41.30851930588914" lon="13.533177301408916"><ele>216.0</ele><time>2026-04-04T10:38:24Z</time></trkpt><trkpt lat="41.30833942818058" lon="13.533201301117925"><ele>216.0</ele><time>2026-04-04T10:38:25Z</time></trkpt><trkpt lat="41.30815470134082" lon="13.533221912602391"><ele>216.0</ele><time>2026-04-04T10:38:26Z</time></trkpt><trkpt lat="41.307963808165205" lon="13.533220413293066"><ele>215.0</ele><time>2026-04-04T10:38:27Z</time></trkpt><trkpt lat="41.30777176208348" lon="13.53320524645015"><ele>214.0</ele><time>2026-04-04T10:38:28Z</time></trkpt><trkpt lat="41.30757525944903" lon="13.533193356343885"><ele>213.0</ele><time>2026-04-04T10:38:29Z</time></trkpt><trkpt lat="41.30737688749977" lon="13.533192910928227"><ele>213.0</ele><time>2026-04-04T10:38:30Z</time></trkpt><trkpt lat="41.307175810165354" lon="13.533190114507537"><ele>213.0</ele><time>2026-04-04T10:38:31Z</time></trkpt><trkpt lat="41.30696919296208" lon="13.533183510653162"><ele>213.0</ele><time>2026-04-04T10:38:32Z</time></trkpt><trkpt lat="41.30676533876324" lon="13.533175914948794"><ele>213.0</ele><time>2026-04-04T10:38:33Z</time></trkpt><trkpt lat="41.306556455535805" lon="13.53316930376784"><ele>213.0</ele><time>2026-04-04T10:38:34Z</time></trkpt><trkpt lat="41.30634957867009" lon="13.533165259881082"><ele>213.0</ele><time>2026-04-04T10:38:35Z</time></trkpt><trkpt lat="41.30613941556427" lon="13.533155758640238"><ele>213.0</ele><time>2026-04-04T10:38:36Z</time></trkpt><trkpt lat="41.30592824495152" lon="13.533150719050857"><ele>213.0</ele><time>2026-04-04T10:38:37Z</time></trkpt><trkpt lat="41.30571706456027" lon="13.5331397056964"><ele>213.0</ele><time>2026-04-04T10:38:38Z</time></trkpt><trkpt lat="41.305507359139035" lon="13.53313392909718"><ele>213.33333333333331</ele><time>2026-04-04T10:38:39Z</time></trkpt><trkpt lat="41.30529760554354" lon="13.53312583656806"><ele>213.66666666666666</ele><time>2026-04-04T10:38:40Z</time></trkpt><trkpt lat="41.30508800228387" lon="13.533117737352832"><ele>214.0</ele><time>2026-04-04T10:38:41Z</time></trkpt><trkpt lat="41.304877540246245" lon="13.533112489296107"><ele>213.66666666666666</ele><time>2026-04-04T10:38:42Z</time></trkpt><trkpt lat="41.30466754100892" lon="13.533103114565199"><ele>213.33333333333331</ele><time>2026-04-04T10:38:43Z</time></trkpt><trkpt lat="41.304459400774434" lon="13.533096998813077"><ele>213.0</ele><time>2026-04-04T10:38:44Z</time></trkpt><trkpt lat="41.304253766145614" lon="13.533091428190298"><ele>213.0</ele><time>2026-04-04T10:38:45Z</time></trkpt><trkpt lat="41.304042636151436" lon="13.533082823504415"><ele>213.0</ele><time>2026-04-04T10:38:46Z</time></trkpt><trkpt lat="41.303835481836785" lon="13.533077515132078"><ele>213.0</ele><time>2026-04-04T10:38:47Z</time></trkpt><trkpt lat="41.30362772143406" lon="13.533069500835925"><ele>212.66666666666669</ele><time>2026-04-04T10:38:48Z</time></trkpt><trkpt lat="41.30342240765808" lon="13.53306456358104"><ele>212.33333333333334</ele><time>2026-04-04T10:38:49Z</time></trkpt><trkpt lat="41.30321550797773" lon="13.53305534847213"><ele>212.0</ele><time>2026-04-04T10:38:50Z</time></trkpt><trkpt lat="41.30301001737124" lon="13.533045735523395"><ele>211.66666666666669</ele><time>2026-04-04T10:38:51Z</time></trkpt><trkpt lat="41.30280484388208" lon="13.533046549194342"><ele>211.33333333333331</ele><time>2026-04-04T10:38:52Z</time></trkpt><trkpt lat="41.30260647316339" lon="13.53303487470837"><ele>211.0</ele><time>2026-04-04T10:38:53Z</time></trkpt><trkpt lat="41.30240639986583" lon="13.533029200697456"><ele>211.33333333333331</ele><time>2026-04-04T10:38:54Z</time></trkpt><trkpt lat="41.30220477581917" lon="13.533022995519527"><ele>211.66666666666669</ele><time>2026-04-04T10:38:55Z</time></trkpt><trkpt lat="41.301999382086244" lon="13.533022851040993"><ele>212.0</ele><time>2026-04-04T10:38:56Z</time></trkpt><trkpt lat="41.30178940614285" lon="13.533026722575332"><ele>212.0</ele><time>2026-04-04T10:38:57Z</time></trkpt><trkpt lat="41.30158030462414" lon="13.533046456894084"><ele>212.0</ele><time>2026-04-04T10:38:58Z</time></trkpt><trkpt lat="41.301375550917044" lon="13.53306956071243"><ele>212.0</ele><time>2026-04-04T10:38:59Z</time></trkpt><trkpt lat="41.30116615474653" lon="13.533094942018536"><ele>211.0</ele><time>2026-04-04T10:39:00Z</time></trkpt><trkpt lat="41.30096192133958" lon="13.533110817654434"><ele>210.0</ele><time>2026-04-04T10:39:01Z</time></trkpt><trkpt lat="41.30075454025694" lon="13.533129951942918"><ele>209.0</ele><time>2026-04-04T10:39:02Z</time></trkpt><trkpt lat="41.30054603442704" lon="13.533143879679082"><ele>209.0</ele><time>2026-04-04T10:39:03Z</time></trkpt><trkpt lat="41.30034378528776" lon="13.533158462134795"><ele>209.0</ele><time>2026-04-04T10:39:04Z</time></trkpt><trkpt lat="41.300162826573185" lon="13.533164513298857"><ele>209.0</ele><time>2026-04-04T10:39:05Z</time></trkpt><trkpt lat="41.29999052996826" lon="13.533173829148838"><ele>209.0</ele><time>2026-04-04T10:39:06Z</time></trkpt><trkpt lat="41.29981774279826" lon="13.533187445756356"><ele>209.0</ele><time>2026-04-04T10:39:07Z</time></trkpt><trkpt lat="41.29964054371817" lon="13.53322530560607"><ele>209.0</ele><time>2026-04-04T10:39:08Z</time></trkpt><trkpt lat="41.2994620117494" lon="13.533327370317718"><ele>208.33333333333334</ele><time>2026-04-04T10:39:09Z</time></trkpt><trkpt lat="41.2992931762958" lon="13.53347261509128"><ele>207.66666666666669</ele><time>2026-04-04T10:39:10Z</time></trkpt><trkpt lat="41.29912613243013" lon="13.53362693623705"><ele>207.0</ele><time>2026-04-04T10:39:11Z</time></trkpt><trkpt lat="41.29895325684706" lon="13.533779371890725"><ele>205.0</ele><time>2026-04-04T10:39:12Z</time></trkpt><trkpt lat="41.29877703623667" lon="13.533931069989903"><ele>203.0</ele><time>2026-04-04T10:39:13Z</time></trkpt><trkpt lat="41.2986163203523" lon="13.534073034159931"><ele>201.0</ele><time>2026-04-04T10:39:14Z</time></trkpt><trkpt lat="41.29846174386631" lon="13.534202537184916"><ele>201.0</ele><time>2026-04-04T10:39:15Z</time></trkpt><trkpt lat="41.29830505734294" lon="13.53433105524853"><ele>201.0</ele><time>2026-04-04T10:39:16Z</time></trkpt><trkpt lat="41.298137472219196" lon="13.534445759151147"><ele>201.0</ele><time>2026-04-04T10:39:17Z</time></trkpt><trkpt lat="41.297960094339956" lon="13.534534876034602"><ele>199.66666666666669</ele><time>2026-04-04T10:39:18Z</time></trkpt><trkpt lat="41.29778120163174" lon="13.534590543116137"><ele>198.33333333333334</ele><time>2026-04-04T10:39:19Z</time></trkpt><trkpt lat="41.29761628326865" lon="13.534625677070597"><ele>197.0</ele><time>2026-04-04T10:39:20Z</time></trkpt><trkpt lat="41.29746493908862" lon="13.534669139567788"><ele>197.0</ele><time>2026-04-04T10:39:21Z</time></trkpt><trkpt lat="41.2973185232414" lon="13.5347148761382"><ele>197.0</ele><time>2026-04-04T10:39:22Z</time></trkpt><trkpt lat="41.297188203279624" lon="13.534756247237743"><ele>197.0</ele><time>2026-04-04T10:39:23Z</time></trkpt><trkpt lat="41.29707074379985" lon="13.534792053701052"><ele>197.0</ele><time>2026-04-04T10:39:24Z</time></trkpt><trkpt lat="41.296961844953074" lon="13.534824774335963"><ele>195.83333333333334</ele><time>2026-04-04T10:39:25Z</time></trkpt><trkpt lat="41.2968589942313" lon="13.534854034366155"><ele>194.66666666666669</ele><time>2026-04-04T10:39:26Z</time></trkpt><trkpt lat="41.296765598584045" lon="13.53487937389054"><ele>193.5</ele><time>2026-04-04T10:39:27Z</time></trkpt><trkpt lat="41.29668057063112" lon="13.534899564682496"><ele>192.33333333333334</ele><time>2026-04-04T10:39:28Z</time></trkpt><trkpt lat="41.296600504830316" lon="13.53491357860474"><ele>191.16666666666669</ele><time>2026-04-04T10:39:29Z</time></trkpt><trkpt lat="41.29652096026295" lon="13.534920435680338"><ele>190.0</ele><time>2026-04-04T10:39:30Z</time></trkpt><trkpt lat="41.29644526240068" lon="13.534911953352594"><ele>189.16666666666669</ele><time>2026-04-04T10:39:31Z</time></trkpt><trkpt lat="41.2963753827613" lon="13.534883597323814"><ele>188.33333333333334</ele><time>2026-04-04T10:39:32Z</time></trkpt><trkpt lat="41.29630893932902" lon="13.534838841198269"><ele>187.5</ele><time>2026-04-04T10:39:33Z</time></trkpt><trkpt lat="41.296233001340795" lon="13.534781943764692"><ele>186.66666666666666</ele><time>2026-04-04T10:39:34Z</time></trkpt><trkpt lat="41.296144324368136" lon="13.534732941931964"><ele>185.83333333333331</ele><time>2026-04-04T10:39:35Z</time></trkpt><trkpt lat="41.29605501945994" lon="13.534678500454453"><ele>185.0</ele><time>2026-04-04T10:39:36Z</time></trkpt><trkpt lat="41.2959644117825" lon="13.534625271441383"><ele>185.0</ele><time>2026-04-04T10:39:37Z</time></trkpt><trkpt lat="41.295875225130544" lon="13.534573073657668"><ele>185.0</ele><time>2026-04-04T10:39:38Z</time></trkpt><trkpt lat="41.295779844798574" lon="13.5345190953862"><ele>185.0</ele><time>2026-04-04T10:39:39Z</time></trkpt><trkpt lat="41.295668385382356" lon="13.534461079639051"><ele>185.0</ele><time>2026-04-04T10:39:40Z</time></trkpt><trkpt lat="41.29556262686808" lon="13.534394381875261"><ele>185.0</ele><time>2026-04-04T10:39:41Z</time></trkpt><trkpt lat="41.29546043629446" lon="13.534330778369567"><ele>185.0</ele><time>2026-04-04T10:39:42Z</time></trkpt><trkpt lat="41.29535678095759" lon="13.534272018266668"><ele>185.0</ele><time>2026-04-04T10:39:43Z</time></trkpt><trkpt lat="41.29524834321313" lon="13.534209354962414"><ele>185.0</ele><time>2026-04-04T10:39:44Z</time></trkpt><trkpt lat="41.29513946112056" lon="13.534145857176494"><ele>185.0</ele><time>2026-04-04T10:39:45Z</time></trkpt><trkpt lat="41.29501949697617" lon="13.534078958997618"><ele>185.0</ele><time>2026-04-04T10:39:46Z</time></trkpt><trkpt lat="41.29489546319741" lon="13.534006925992136"><ele>185.0</ele><time>2026-04-04T10:39:47Z</time></trkpt><trkpt lat="41.29476919402098" lon="13.533931338353582"><ele>185.0</ele><time>2026-04-04T10:39:48Z</time></trkpt><trkpt lat="41.294643203700936" lon="13.533848467271287"><ele>185.0</ele><time>2026-04-04T10:39:49Z</time></trkpt><trkpt lat="41.29451464513981" lon="13.533768781877152"><ele>183.25</ele><time>2026-04-04T10:39:50Z</time></trkpt><trkpt lat="41.2943892182795" lon="13.533695132922281"><ele>181.5</ele><time>2026-04-04T10:39:51Z</time></trkpt><trkpt lat="41.29427539230292" lon="13.53362560104987"><ele>179.75</ele><time>2026-04-04T10:39:52Z</time></trkpt><trkpt lat="41.294170715889464" lon="13.53355978039604"><ele>178.0</ele><time>2026-04-04T10:39:53Z</time></trkpt><trkpt lat="41.29407099716966" lon="13.533503180671495"><ele>178.0</ele><time>2026-04-04T10:39:54Z</time></trkpt><trkpt lat="41.29397703408776" lon="13.533450803276732"><ele>178.0</ele><time>2026-04-04T10:39:55Z</time></trkpt><trkpt lat="41.29388482558137" lon="13.533398616147148"><ele>178.0</ele><time>2026-04-04T10:39:56Z</time></trkpt><trkpt lat="41.29379194652326" lon="13.53334433392953"><ele>178.0</ele><time>2026-04-04T10:39:57Z</time></trkpt><trkpt lat="41.29370242306019" lon="13.533286145923709"><ele>178.0</ele><time>2026-04-04T10:39:58Z</time></trkpt><trkpt lat="41.29361450685898" lon="13.533229876214397"><ele>177.33333333333334</ele><time>2026-04-04T10:39:59Z</time></trkpt><trkpt lat="41.29353448852851" lon="13.533179432180653"><ele>176.66666666666669</ele><time>2026-04-04T10:40:00Z</time></trkpt><trkpt lat="41.29345754807752" lon="13.533134869786796"><ele>176.0</ele><time>2026-04-04T10:40:01Z</time></trkpt><trkpt lat="41.29338849709975" lon="13.53308968214325"><ele>175.33333333333334</ele><time>2026-04-04T10:40:02Z</time></trkpt><trkpt lat="41.29331834884272" lon="13.533046560968593"><ele>174.66666666666666</ele><time>2026-04-04T10:40:03Z</time></trkpt><trkpt lat="41.29324053447344" lon="13.533005331527763"><ele>174.0</ele><time>2026-04-04T10:40:04Z</time></trkpt><trkpt lat="41.29316043467089" lon="13.532960123957226"><ele>173.66666666666666</ele><time>2026-04-04T10:40:05Z</time></trkpt><trkpt lat="41.29307591944935" lon="13.532912260337186"><ele>173.33333333333334</ele><time>2026-04-04T10:40:06Z</time></trkpt><trkpt lat="41.29299918193261" lon="13.532866070192346"><ele>173.0</ele><time>2026-04-04T10:40:07Z</time></trkpt><trkpt lat="41.29292882753222" lon="13.532821853662485"><ele>172.66666666666669</ele><time>2026-04-04T10:40:08Z</time></trkpt><trkpt lat="41.292861587485135" lon="13.5327851258598"><ele>172.33333333333334</ele><time>2026-04-04T10:40:09Z</time></trkpt><trkpt lat="41.292799238879155" lon="13.532750021507129"><ele>172.0</ele><time>2026-04-04T10:40:10Z</time></trkpt><trkpt lat="41.29273934380762" lon="13.532719003402532"><ele>172.0</ele><time>2026-04-04T10:40:11Z</time></trkpt><trkpt lat="41.29267859599314" lon="13.5326853095303"><ele>172.0</ele><time>2026-04-04T10:40:12Z</time></trkpt><trkpt lat="41.292604472128424" lon="13.532643710775577"><ele>172.0</ele><time>2026-04-04T10:40:13Z</time></trkpt><trkpt lat="41.29252290576253" lon="13.532591789786427"><ele>172.0</ele><time>2026-04-04T10:40:14Z</time></trkpt><trkpt lat="41.29243253374693" lon="13.53253367127579"><ele>172.0</ele><time>2026-04-04T10:40:15Z</time></trkpt><trkpt lat="41.29233546922283" lon="13.532472470628127"><ele>172.0</ele><time>2026-04-04T10:40:16Z</time></trkpt><trkpt lat="41.29224232603692" lon="13.532401073507716"><ele>172.0</ele><time>2026-04-04T10:40:17Z</time></trkpt><trkpt lat="41.29214217241777" lon="13.532345970142002"><ele>172.0</ele><time>2026-04-04T10:40:18Z</time></trkpt><trkpt lat="41.29204687422851" lon="13.532289908936061"><ele>172.0</ele><time>2026-04-04T10:40:19Z</time></trkpt><trkpt lat="41.291953450645536" lon="13.532237434132206"><ele>172.0</ele><time>2026-04-04T10:40:20Z</time></trkpt><trkpt lat="41.29186252172066" lon="13.532177249875325"><ele>172.0</ele><time>2026-04-04T10:40:21Z</time></trkpt><trkpt lat="41.29176412580283" lon="13.532125210346697"><ele>172.0</ele><time>2026-04-04T10:40:22Z</time></trkpt><trkpt lat="41.29165732766796" lon="13.53206445674361"><ele>172.0</ele><time>2026-04-04T10:40:23Z</time></trkpt><trkpt lat="41.29155006993744" lon="13.53200097630288"><ele>172.0</ele><time>2026-04-04T10:40:24Z</time></trkpt><trkpt lat="41.29144954104058" lon="13.531945062612564"><ele>172.0</ele><time>2026-04-04T10:40:25Z</time></trkpt><trkpt lat="41.291361803059615" lon="13.531893108074454"><ele>172.0</ele><time>2026-04-04T10:40:26Z</time></trkpt><trkpt lat="41.291279516892104" lon="13.53186357694267"><ele>172.0</ele><time>2026-04-04T10:40:27Z</time></trkpt><trkpt lat="41.29121463553496" lon="13.53184999098473"><ele>172.0</ele><time>2026-04-04T10:40:28Z</time></trkpt><trkpt lat="41.29113170005352" lon="13.531843983237335"><ele>172.0</ele><time>2026-04-04T10:40:30Z</time></trkpt><trkpt lat="41.291067034059665" lon="13.531846494680117"><ele>172.0</ele><time>2026-04-04T10:40:33Z</time></trkpt><trkpt lat="41.29098299618962" lon="13.531849411524204"><ele>172.0</ele><time>2026-04-04T10:40:37Z</time></trkpt><trkpt lat="41.290893961304256" lon="13.531868025410088"><ele>172.0</ele><time>2026-04-04T10:40:40Z</time></trkpt><trkpt lat="41.290803463493496" lon="13.531883645440384"><ele>172.0</ele><time>2026-04-04T10:40:43Z</time></trkpt><trkpt lat="41.290740433878206" lon="13.531893843398423"><ele>172.0</ele><time>2026-04-04T10:40:45Z</time></trkpt><trkpt lat="41.29067324630664" lon="13.531906729903275"><ele>172.0</ele><time>2026-04-04T10:40:47Z</time></trkpt><trkpt lat="41.290581901781835" lon="13.531924899306668"><ele>172.0</ele><time>2026-04-04T10:40:50Z</time></trkpt><trkpt lat="41.29048438605143" lon="13.531925316313172"><ele>172.0</ele><time>2026-04-04T10:40:53Z</time></trkpt><trkpt lat="41.290404568098204" lon="13.531884990093364"><ele>172.0</ele><time>2026-04-04T10:40:55Z</time></trkpt><trkpt lat="41.29036099976982" lon="13.53175649130595"><ele>173.16666666666669</ele><time>2026-04-04T10:40:57Z</time></trkpt><trkpt lat="41.29033552708498" lon="13.53165672576375"><ele>174.33333333333334</ele><time>2026-04-04T10:40:59Z</time></trkpt><trkpt lat="41.290317672941796" lon="13.531566261567438"><ele>175.5</ele><time>2026-04-04T10:41:01Z</time></trkpt><trkpt lat="41.29033999171602" lon="13.531470505304133"><ele>176.66666666666666</ele><time>2026-04-04T10:41:04Z</time></trkpt><trkpt lat="41.29040249249093" lon="13.5314894115779"><ele>177.83333333333331</ele><time>2026-04-04T10:41:07Z</time></trkpt><trkpt lat="41.29036130297393" lon="13.531370910346194"><ele>179.0</ele><time>2026-04-04T10:41:12Z</time></trkpt><trkpt lat="41.290316439797266" lon="13.531170937747858"><ele>179.0</ele><time>2026-04-04T10:55:28Z</time></trkpt><trkpt lat="41.29038808687222" lon="13.531166752770106"><ele>179.0</ele><time>2026-04-04T11:31:47.999Z</time></trkpt><trkpt lat="41.290336806908606" lon="13.531220009804404"><ele>179.0</ele><time>2026-04-04T11:35:53.999Z</time></trkpt><trkpt lat="41.29027852476923" lon="13.531256493094487"><ele>179.0</ele><time>2026-04-04T11:36:09.999Z</time></trkpt><trkpt lat="41.290210639158445" lon="13.531272720504386"><ele>179.0</ele><time>2026-04-04T11:36:15.999Z</time></trkpt><trkpt lat="41.290177696055515" lon="13.531386264888035"><ele>179.0</ele><time>2026-04-04T11:36:22.999Z</time></trkpt><trkpt lat="41.29023065533262" lon="13.531515414352599"><ele>179.83333333333331</ele><time>2026-04-04T11:36:24.999Z</time></trkpt><trkpt lat="41.290255773120194" lon="13.531592528167202"><ele>180.66666666666666</ele><time>2026-04-04T11:36:25.999Z</time></trkpt><trkpt lat="41.29030391601787" lon="13.531747731292178"><ele>181.5</ele><time>2026-04-04T11:36:27.999Z</time></trkpt><trkpt lat="41.29034244556458" lon="13.531837225042326"><ele>182.33333333333334</ele><time>2026-04-04T11:36:28.999Z</time></trkpt><trkpt lat="41.29036671981354" lon="13.531938162411977"><ele>183.16666666666669</ele><time>2026-04-04T11:36:29.999Z</time></trkpt><trkpt lat="41.290379967507874" lon="13.532024195450326"><ele>184.0</ele><time>2026-04-04T11:36:30.999Z</time></trkpt><trkpt lat="41.29036685063738" lon="13.532203578621868"><ele>184.6</ele><time>2026-04-04T11:36:32.999Z</time></trkpt><trkpt lat="41.290344964696146" lon="13.53230695484225"><ele>185.2</ele><time>2026-04-04T11:36:33.999Z</time></trkpt><trkpt lat="41.290327033211256" lon="13.53240905904437"><ele>185.79999999999998</ele><time>2026-04-04T11:36:34.999Z</time></trkpt><trkpt lat="41.290304874726765" lon="13.532527467807189"><ele>186.39999999999998</ele><time>2026-04-04T11:36:35.999Z</time></trkpt><trkpt lat="41.290283864046614" lon="13.532670750095505"><ele>187.0</ele><time>2026-04-04T11:36:36.999Z</time></trkpt><trkpt lat="41.290260809019465" lon="13.53281549706852"><ele>186.0</ele><time>2026-04-04T11:36:37.999Z</time></trkpt><trkpt lat="41.29023881102261" lon="13.532965006061891"><ele>185.0</ele><time>2026-04-04T11:36:39Z</time></trkpt><trkpt lat="41.290213683846304" lon="13.533117170022363"><ele>184.0</ele><time>2026-04-04T11:36:40Z</time></trkpt><trkpt lat="41.29019121917511" lon="13.533283255627666"><ele>183.0</ele><time>2026-04-04T11:36:41Z</time></trkpt><trkpt lat="41.29016585086487" lon="13.53345027713037"><ele>183.0</ele><time>2026-04-04T11:36:42Z</time></trkpt><trkpt lat="41.29013438372778" lon="13.533637018177487"><ele>183.0</ele><time>2026-04-04T11:36:43Z</time></trkpt><trkpt lat="41.290099681222145" lon="13.533861882167475"><ele>183.0</ele><time>2026-04-04T11:36:44Z</time></trkpt><trkpt lat="41.290069013334794" lon="13.534036481640843"><ele>180.75</ele><time>2026-04-04T11:36:45Z</time></trkpt><trkpt lat="41.29004339308494" lon="13.53420285284665"><ele>178.5</ele><time>2026-04-04T11:36:46Z</time></trkpt><trkpt lat="41.29002279158971" lon="13.534351272725951"><ele>176.25</ele><time>2026-04-04T11:36:47Z</time></trkpt><trkpt lat="41.29000018470206" lon="13.534488035088346"><ele>174.0</ele><time>2026-04-04T11:36:48Z</time></trkpt><trkpt lat="41.28995951826526" lon="13.534622881191877"><ele>172.75</ele><time>2026-04-04T11:36:49Z</time></trkpt><trkpt lat="41.28989692647477" lon="13.5347416160063"><ele>171.5</ele><time>2026-04-04T11:36:50Z</time></trkpt><trkpt lat="41.289804444733996" lon="13.534846115884989"><ele>170.25</ele><time>2026-04-04T11:36:51Z</time></trkpt><trkpt lat="41.28968999100025" lon="13.534934664133438"><ele>169.0</ele><time>2026-04-04T11:36:52Z</time></trkpt><trkpt lat="41.28957770379649" lon="13.535007435026946"><ele>169.0</ele><time>2026-04-04T11:36:53Z</time></trkpt><trkpt lat="41.289464030915546" lon="13.535067760924104"><ele>169.0</ele><time>2026-04-04T11:36:54Z</time></trkpt><trkpt lat="41.28932857156689" lon="13.535097683313909"><ele>169.0</ele><time>2026-04-04T11:36:55Z</time></trkpt><trkpt lat="41.28919775225398" lon="13.535088131177526"><ele>169.0</ele><time>2026-04-04T11:36:56Z</time></trkpt><trkpt lat="41.2890687591474" lon="13.535036956433263"><ele>169.0</ele><time>2026-04-04T11:36:57Z</time></trkpt><trkpt lat="41.28895117720558" lon="13.534961578865442"><ele>169.0</ele><time>2026-04-04T11:36:58Z</time></trkpt><trkpt lat="41.2888481445703" lon="13.534854331280478"><ele>169.0</ele><time>2026-04-04T11:36:59Z</time></trkpt><trkpt lat="41.28874786255813" lon="13.534754425825698"><ele>169.0</ele><time>2026-04-04T11:37:00Z</time></trkpt><trkpt lat="41.28864171870709" lon="13.534669449595144"><ele>165.75</ele><time>2026-04-04T11:37:01Z</time></trkpt><trkpt lat="41.28852108496223" lon="13.534598194400491"><ele>162.5</ele><time>2026-04-04T11:37:02Z</time></trkpt><trkpt lat="41.28839438148815" lon="13.534567842352294"><ele>159.25</ele><time>2026-04-04T11:37:03Z</time></trkpt><trkpt lat="41.288262693520956" lon="13.534578927570205"><ele>156.0</ele><time>2026-04-04T11:37:04Z</time></trkpt><trkpt lat="41.28813514847302" lon="13.53463397952678"><ele>162.25</ele><time>2026-04-04T11:37:05Z</time></trkpt><trkpt lat="41.28802350845112" lon="13.534723104452821"><ele>168.5</ele><time>2026-04-04T11:37:06Z</time></trkpt><trkpt lat="41.2879314531037" lon="13.534846800927927"><ele>174.75</ele><time>2026-04-04T11:37:07Z</time></trkpt><trkpt lat="41.28786616823857" lon="13.535012648809634"><ele>181.0</ele><time>2026-04-04T11:37:08Z</time></trkpt><trkpt lat="41.287820163294285" lon="13.535208523195507"><ele>175.66666666666669</ele><time>2026-04-04T11:37:09Z</time></trkpt><trkpt lat="41.287770079307045" lon="13.535406257739119"><ele>170.33333333333334</ele><time>2026-04-04T11:37:10Z</time></trkpt><trkpt lat="41.287715235355996" lon="13.535613076549915"><ele>165.0</ele><time>2026-04-04T11:37:11Z</time></trkpt><trkpt lat="41.28764855784076" lon="13.535817040052983"><ele>165.0</ele><time>2026-04-04T11:37:12Z</time></trkpt><trkpt lat="41.28756457949374" lon="13.536005333695782"><ele>165.0</ele><time>2026-04-04T11:37:13Z</time></trkpt><trkpt lat="41.287481290257254" lon="13.536162571725383"><ele>165.0</ele><time>2026-04-04T11:37:14Z</time></trkpt><trkpt lat="41.28741493596242" lon="13.53631535759062"><ele>165.0</ele><time>2026-04-04T11:37:15Z</time></trkpt><trkpt lat="41.28736092479217" lon="13.536464747325567"><ele>163.25</ele><time>2026-04-04T11:37:16Z</time></trkpt><trkpt lat="41.28729915846254" lon="13.53662414065155"><ele>161.5</ele><time>2026-04-04T11:37:17Z</time></trkpt><trkpt lat="41.2872164049754" lon="13.536752933099567"><ele>159.75</ele><time>2026-04-04T11:37:17.999Z</time></trkpt><trkpt lat="41.287101563542926" lon="13.536853723566965"><ele>158.0</ele><time>2026-04-04T11:37:18.999Z</time></trkpt><trkpt lat="41.28695633191676" lon="13.536934078827883"><ele>157.0</ele><time>2026-04-04T11:37:19.999Z</time></trkpt><trkpt lat="41.28679828635857" lon="13.537008436712249"><ele>156.0</ele><time>2026-04-04T11:37:20.999Z</time></trkpt><trkpt lat="41.28664015023373" lon="13.537092023688915"><ele>155.0</ele><time>2026-04-04T11:37:21.999Z</time></trkpt><trkpt lat="41.28647652481267" lon="13.537181896965155"><ele>152.33333333333331</ele><time>2026-04-04T11:37:22.999Z</time></trkpt><trkpt lat="41.28630630069203" lon="13.537270840952216"><ele>149.66666666666666</ele><time>2026-04-04T11:37:23.999Z</time></trkpt><trkpt lat="41.28613510875752" lon="13.537357429221604"><ele>147.0</ele><time>2026-04-04T11:37:24.999Z</time></trkpt><trkpt lat="41.285968691976024" lon="13.537441339847904"><ele>147.0</ele><time>2026-04-04T11:37:25.999Z</time></trkpt><trkpt lat="41.285803011769325" lon="13.537525822726005"><ele>147.0</ele><time>2026-04-04T11:37:26.999Z</time></trkpt><trkpt lat="41.28562643351758" lon="13.537618043454046"><ele>147.0</ele><time>2026-04-04T11:37:27.999Z</time></trkpt><trkpt lat="41.28544457371764" lon="13.537714763066468"><ele>148.66666666666666</ele><time>2026-04-04T11:37:28.999Z</time></trkpt><trkpt lat="41.28526484168929" lon="13.537813620328484"><ele>150.33333333333331</ele><time>2026-04-04T11:37:29.999Z</time></trkpt><trkpt lat="41.28508338921491" lon="13.53792238628382"><ele>152.0</ele><time>2026-04-04T11:37:30.999Z</time></trkpt><trkpt lat="41.28490036007639" lon="13.53803406622788"><ele>150.0</ele><time>2026-04-04T11:37:31.999Z</time></trkpt><trkpt lat="41.28471740454571" lon="13.538150171692452"><ele>148.0</ele><time>2026-04-04T11:37:32.999Z</time></trkpt><trkpt lat="41.284533830251654" lon="13.53827571124143"><ele>146.0</ele><time>2026-04-04T11:37:33.999Z</time></trkpt><trkpt lat="41.28434692613084" lon="13.53839299737561"><ele>146.0</ele><time>2026-04-04T11:37:34.999Z</time></trkpt><trkpt lat="41.284144142185795" lon="13.538475997516562"><ele>146.0</ele><time>2026-04-04T11:37:35.999Z</time></trkpt><trkpt lat="41.28391003507616" lon="13.538506655329982"><ele>146.0</ele><time>2026-04-04T11:37:36.999Z</time></trkpt><trkpt lat="41.28366952151184" lon="13.538552028598078"><ele>146.0</ele><time>2026-04-04T11:37:37.999Z</time></trkpt><trkpt lat="41.28343226014794" lon="13.53860923121674"><ele>146.0</ele><time>2026-04-04T11:37:38.999Z</time></trkpt><trkpt lat="41.283204854752896" lon="13.538662785132482"><ele>147.66666666666666</ele><time>2026-04-04T11:37:39.999Z</time></trkpt><trkpt lat="41.28298324906581" lon="13.538713503553474"><ele>149.33333333333334</ele><time>2026-04-04T11:37:40.999Z</time></trkpt><trkpt lat="41.28276362640549" lon="13.538771652530935"><ele>151.0</ele><time>2026-04-04T11:37:41.999Z</time></trkpt><trkpt lat="41.282552399667644" lon="13.538843536841714"><ele>151.0</ele><time>2026-04-04T11:37:42.999Z</time></trkpt><trkpt lat="41.282348811323736" lon="13.538932186017249"><ele>151.0</ele><time>2026-04-04T11:37:43.999Z</time></trkpt><trkpt lat="41.28215357161982" lon="13.53903471750657"><ele>151.0</ele><time>2026-04-04T11:37:44.999Z</time></trkpt><trkpt lat="41.28196201657932" lon="13.539137920034568"><ele>147.66666666666669</ele><time>2026-04-04T11:37:45.999Z</time></trkpt><trkpt lat="41.281762875193984" lon="13.539246731465603"><ele>144.33333333333334</ele><time>2026-04-04T11:37:46.999Z</time></trkpt><trkpt lat="41.28156402214872" lon="13.539356895225572"><ele>141.0</ele><time>2026-04-04T11:37:47.999Z</time></trkpt><trkpt lat="41.28136185944988" lon="13.539467572408842"><ele>141.33333333333334</ele><time>2026-04-04T11:37:48.999Z</time></trkpt><trkpt lat="41.281158174034694" lon="13.539578223114432"><ele>141.66666666666669</ele><time>2026-04-04T11:37:49.999Z</time></trkpt><trkpt lat="41.280952068251125" lon="13.539684932497037"><ele>142.0</ele><time>2026-04-04T11:37:50.999Z</time></trkpt><trkpt lat="41.28074652601255" lon="13.539793775590248"><ele>139.33333333333334</ele><time>2026-04-04T11:37:51.999Z</time></trkpt><trkpt lat="41.28053931855205" lon="13.539906200709478"><ele>136.66666666666666</ele><time>2026-04-04T11:37:52.999Z</time></trkpt><trkpt lat="41.28033347408854" lon="13.540014568319606"><ele>134.0</ele><time>2026-04-04T11:37:53.999Z</time></trkpt><trkpt lat="41.28012164255184" lon="13.54012257358985"><ele>134.0</ele><time>2026-04-04T11:37:54.999Z</time></trkpt><trkpt lat="41.27990732648028" lon="13.540232915834256"><ele>134.0</ele><time>2026-04-04T11:37:55.999Z</time></trkpt><trkpt lat="41.27969004889219" lon="13.540348530812691"><ele>133.5</ele><time>2026-04-04T11:37:56.999Z</time></trkpt><trkpt lat="41.27947058904257" lon="13.540465825446518"><ele>133.0</ele><time>2026-04-04T11:37:57.999Z</time></trkpt><trkpt lat="41.27924894335051" lon="13.540582268336008"><ele>133.0</ele><time>2026-04-04T11:37:58.999Z</time></trkpt><trkpt lat="41.27902867866837" lon="13.540699678750984"><ele>133.0</ele><time>2026-04-04T11:37:59.999Z</time></trkpt><trkpt lat="41.2788087959835" lon="13.540820061927018"><ele>128.5</ele><time>2026-04-04T11:38:00.999Z</time></trkpt><trkpt lat="41.27858855887934" lon="13.540939169752173"><ele>124.0</ele><time>2026-04-04T11:38:01.999Z</time></trkpt><trkpt lat="41.27837015976081" lon="13.541055637017662"><ele>124.0</ele><time>2026-04-04T11:38:02.999Z</time></trkpt><trkpt lat="41.27814894056657" lon="13.541174307997343"><ele>124.0</ele><time>2026-04-04T11:38:03.999Z</time></trkpt><trkpt lat="41.277922929632965" lon="13.54129432406667"><ele>122.0</ele><time>2026-04-04T11:38:04.999Z</time></trkpt><trkpt lat="41.277689153601294" lon="13.541416360648391"><ele>120.0</ele><time>2026-04-04T11:38:05.999Z</time></trkpt><trkpt lat="41.27744382016558" lon="13.541550561914912"><ele>114.5</ele><time>2026-04-04T11:38:06.999Z</time></trkpt><trkpt lat="41.277180489960955" lon="13.541697213619022"><ele>109.0</ele><time>2026-04-04T11:38:07.999Z</time></trkpt><trkpt lat="41.276891664540784" lon="13.541847663571575"><ele>109.0</ele><time>2026-04-04T11:38:08.999Z</time></trkpt><trkpt lat="41.27662509358512" lon="13.541994196300685"><ele>109.0</ele><time>2026-04-04T11:38:09.999Z</time></trkpt><trkpt lat="41.276382226652046" lon="13.542131176188443"><ele>109.0</ele><time>2026-04-04T11:38:10.999Z</time></trkpt><trkpt lat="41.27615505156759" lon="13.54225211624312"><ele>109.0</ele><time>2026-04-04T11:38:11.999Z</time></trkpt><trkpt lat="41.275939440294685" lon="13.542379652367577"><ele>109.0</ele><time>2026-04-04T11:38:12.999Z</time></trkpt><trkpt lat="41.27573008506179" lon="13.542544034834599"><ele>109.0</ele><time>2026-04-04T11:38:13.999Z</time></trkpt><trkpt lat="41.27552485772997" lon="13.54272827757719"><ele>107.5</ele><time>2026-04-04T11:38:14.999Z</time></trkpt><trkpt lat="41.27531887009143" lon="13.542913542632116"><ele>106.0</ele><time>2026-04-04T11:38:15.999Z</time></trkpt><trkpt lat="41.275103817655726" lon="13.543094514556193"><ele>106.0</ele><time>2026-04-04T11:38:16.999Z</time></trkpt><trkpt lat="41.274883669386824" lon="13.543282343838893"><ele>106.0</ele><time>2026-04-04T11:38:17.999Z</time></trkpt><trkpt lat="41.2746563424981" lon="13.543473220041905"><ele>107.0</ele><time>2026-04-04T11:38:18.999Z</time></trkpt><trkpt lat="41.27443006097152" lon="13.543663358120774"><ele>108.0</ele><time>2026-04-04T11:38:19.999Z</time></trkpt><trkpt lat="41.27420910076254" lon="13.543849605220418"><ele>108.0</ele><time>2026-04-04T11:38:20.999Z</time></trkpt><trkpt lat="41.27399743939988" lon="13.544031180453478"><ele>108.0</ele><time>2026-04-04T11:38:21.999Z</time></trkpt><trkpt lat="41.27379948874896" lon="13.544201544707441"><ele>108.0</ele><time>2026-04-04T11:38:22.999Z</time></trkpt><trkpt lat="41.27361730512421" lon="13.544355268519356"><ele>108.0</ele><time>2026-04-04T11:38:23.999Z</time></trkpt><trkpt lat="41.273430135243544" lon="13.544511892760038"><ele>108.0</ele><time>2026-04-04T11:38:24.999Z</time></trkpt><trkpt lat="41.273240660130234" lon="13.54467531905695"><ele>102.0</ele><time>2026-04-04T11:38:25.999Z</time></trkpt><trkpt lat="41.27304808792699" lon="13.544841802369978"><ele>96.0</ele><time>2026-04-04T11:38:26.999Z</time></trkpt><trkpt lat="41.27285208097268" lon="13.545008835916875"><ele>96.0</ele><time>2026-04-04T11:38:27.999Z</time></trkpt><trkpt lat="41.272655770499505" lon="13.545178212193106"><ele>96.0</ele><time>2026-04-04T11:38:28.999Z</time></trkpt><trkpt lat="41.27246597192863" lon="13.545342200770227"><ele>96.66666666666666</ele><time>2026-04-04T11:38:29.999Z</time></trkpt><trkpt lat="41.27227794855489" lon="13.545502933652427"><ele>97.33333333333333</ele><time>2026-04-04T11:38:30.999Z</time></trkpt><trkpt lat="41.27208800375462" lon="13.54566494872374"><ele>98.0</ele><time>2026-04-04T11:38:31.999Z</time></trkpt><trkpt lat="41.27189744373558" lon="13.54583198113091"><ele>98.0</ele><time>2026-04-04T11:38:32.999Z</time></trkpt><trkpt lat="41.27170386985806" lon="13.546001805102113"><ele>98.0</ele><time>2026-04-04T11:38:33.999Z</time></trkpt><trkpt lat="41.271510622546835" lon="13.546172212040448"><ele>98.0</ele><time>2026-04-04T11:38:34.999Z</time></trkpt><trkpt lat="41.27131775073088" lon="13.546339654227944"><ele>98.0</ele><time>2026-04-04T11:38:35.999Z</time></trkpt><trkpt lat="41.271119977481106" lon="13.54650856689516"><ele>98.0</ele><time>2026-04-04T11:38:36.999Z</time></trkpt><trkpt lat="41.270921400654025" lon="13.546681037765016"><ele>98.0</ele><time>2026-04-04T11:38:37.999Z</time></trkpt><trkpt lat="41.27071864220034" lon="13.546853281421475"><ele>97.5</ele><time>2026-04-04T11:38:38.999Z</time></trkpt><trkpt lat="41.27052790450837" lon="13.547018884644253"><ele>97.0</ele><time>2026-04-04T11:38:39.999Z</time></trkpt><trkpt lat="41.27033769527961" lon="13.547184028807207"><ele>97.0</ele><time>2026-04-04T11:38:40.999Z</time></trkpt><trkpt lat="41.27015610074553" lon="13.547340276916303"><ele>97.0</ele><time>2026-04-04T11:38:41.999Z</time></trkpt><trkpt lat="41.26997483281957" lon="13.547497408823247"><ele>97.0</ele><time>2026-04-04T11:38:42.999Z</time></trkpt><trkpt lat="41.26979061582902" lon="13.547656822762697"><ele>95.33333333333334</ele><time>2026-04-04T11:38:43.999Z</time></trkpt><trkpt lat="41.269602401710266" lon="13.547814974384009"><ele>93.66666666666667</ele><time>2026-04-04T11:38:45Z</time></trkpt><trkpt lat="41.26941282180597" lon="13.547974002291788"><ele>92.0</ele><time>2026-04-04T11:38:46Z</time></trkpt><trkpt lat="41.26922337897525" lon="13.548137995007847"><ele>92.0</ele><time>2026-04-04T11:38:47Z</time></trkpt><trkpt lat="41.26903775661579" lon="13.548297763084376"><ele>92.0</ele><time>2026-04-04T11:38:48Z</time></trkpt><trkpt lat="41.26886506184778" lon="13.54844916441344"><ele>92.0</ele><time>2026-04-04T11:38:49Z</time></trkpt><trkpt lat="41.26869385985387" lon="13.548596894354766"><ele>91.33333333333334</ele><time>2026-04-04T11:38:50Z</time></trkpt><trkpt lat="41.268516738397565" lon="13.548745886698075"><ele>90.66666666666667</ele><time>2026-04-04T11:38:51Z</time></trkpt><trkpt lat="41.268339299139036" lon="13.548898341351032"><ele>90.0</ele><time>2026-04-04T11:38:52Z</time></trkpt><trkpt lat="41.26815811220987" lon="13.549058285140317"><ele>88.0</ele><time>2026-04-04T11:38:53Z</time></trkpt><trkpt lat="41.26798317759142" lon="13.549211613703408"><ele>86.0</ele><time>2026-04-04T11:38:54Z</time></trkpt><trkpt lat="41.26781981151746" lon="13.549358494119392"><ele>84.0</ele><time>2026-04-04T11:38:55Z</time></trkpt><trkpt lat="41.26766918481741" lon="13.54949391651604"><ele>84.33333333333333</ele><time>2026-04-04T11:38:56Z</time></trkpt><trkpt lat="41.26752658264692" lon="13.549620363747897"><ele>84.66666666666666</ele><time>2026-04-04T11:38:57Z</time></trkpt><trkpt lat="41.267391482369376" lon="13.54973660919594"><ele>85.0</ele><time>2026-04-04T11:38:58Z</time></trkpt><trkpt lat="41.267257117024585" lon="13.549847691518012"><ele>85.0</ele><time>2026-04-04T11:38:59Z</time></trkpt><trkpt lat="41.26711903190735" lon="13.549945378427335"><ele>85.0</ele><time>2026-04-04T11:39:00Z</time></trkpt><trkpt lat="41.26699281795735" lon="13.550000848635854"><ele>85.0</ele><time>2026-04-04T11:39:01Z</time></trkpt><trkpt lat="41.26687214011437" lon="13.55001379503013"><ele>85.0</ele><time>2026-04-04T11:39:02Z</time></trkpt><trkpt lat="41.26674503772837" lon="13.549983632246368"><ele>85.0</ele><time>2026-04-04T11:39:03Z</time></trkpt><trkpt lat="41.26662478617201" lon="13.549911863032637"><ele>85.0</ele><time>2026-04-04T11:39:04Z</time></trkpt><trkpt lat="41.266483770835954" lon="13.549868210775502"><ele>85.0</ele><time>2026-04-04T11:39:05Z</time></trkpt><trkpt lat="41.26633460101558" lon="13.549883607535843"><ele>85.0</ele><time>2026-04-04T11:39:06Z</time></trkpt><trkpt lat="41.26620275857171" lon="13.549961553106476"><ele>84.33333333333333</ele><time>2026-04-04T11:39:07Z</time></trkpt><trkpt lat="41.26608423154416" lon="13.550098111133332"><ele>83.66666666666667</ele><time>2026-04-04T11:39:08Z</time></trkpt><trkpt lat="41.26597059015832" lon="13.550272242465105"><ele>83.0</ele><time>2026-04-04T11:39:09Z</time></trkpt><trkpt lat="41.26584581430823" lon="13.550463096474411"><ele>83.0</ele><time>2026-04-04T11:39:10Z</time></trkpt><trkpt lat="41.26570233811309" lon="13.550679140867988"><ele>83.0</ele><time>2026-04-04T11:39:11Z</time></trkpt><trkpt lat="41.265558199982614" lon="13.550893457469954"><ele>83.0</ele><time>2026-04-04T11:39:12Z</time></trkpt><trkpt lat="41.26541551236357" lon="13.55111757138261"><ele>81.33333333333334</ele><time>2026-04-04T11:39:13Z</time></trkpt><trkpt lat="41.265285086159984" lon="13.551318699303438"><ele>79.66666666666667</ele><time>2026-04-04T11:39:14Z</time></trkpt><trkpt lat="41.26515436143181" lon="13.55151035857111"><ele>78.0</ele><time>2026-04-04T11:39:15Z</time></trkpt><trkpt lat="41.265006418716084" lon="13.551686976707234"><ele>78.0</ele><time>2026-04-04T11:39:16Z</time></trkpt><trkpt lat="41.264837177547975" lon="13.55184303546535"><ele>78.0</ele><time>2026-04-04T11:39:17Z</time></trkpt><trkpt lat="41.26463319895886" lon="13.551963395132208"><ele>78.0</ele><time>2026-04-04T11:39:18Z</time></trkpt><trkpt lat="41.26441402436807" lon="13.552074132328874"><ele>77.5</ele><time>2026-04-04T11:39:19Z</time></trkpt><trkpt lat="41.2642039053832" lon="13.552203735711302"><ele>77.0</ele><time>2026-04-04T11:39:20Z</time></trkpt><trkpt lat="41.263991234243136" lon="13.552326408441894"><ele>73.0</ele><time>2026-04-04T11:39:21Z</time></trkpt><trkpt lat="41.263778019603514" lon="13.552446143244893"><ele>69.0</ele><time>2026-04-04T11:39:22Z</time></trkpt><trkpt lat="41.26356514777188" lon="13.552567899275957"><ele>69.0</ele><time>2026-04-04T11:39:23Z</time></trkpt><trkpt lat="41.26336462826129" lon="13.55269054773796"><ele>69.0</ele><time>2026-04-04T11:39:24Z</time></trkpt><trkpt lat="41.263171550034684" lon="13.552808297729268"><ele>69.0</ele><time>2026-04-04T11:39:24.999Z</time></trkpt><trkpt lat="41.262972235280955" lon="13.552921545145242"><ele>68.33333333333333</ele><time>2026-04-04T11:39:25.999Z</time></trkpt><trkpt lat="41.26277061127472" lon="13.553032107910479"><ele>67.66666666666666</ele><time>2026-04-04T11:39:26.999Z</time></trkpt><trkpt lat="41.26255983468083" lon="13.553137045305796"><ele>67.0</ele><time>2026-04-04T11:39:27.999Z</time></trkpt><trkpt lat="41.26236031480029" lon="13.553228864558427"><ele>64.33333333333333</ele><time>2026-04-04T11:39:28.999Z</time></trkpt><trkpt lat="41.262168823174356" lon="13.553316909827984"><ele>61.66666666666667</ele><time>2026-04-04T11:39:29.999Z</time></trkpt><trkpt lat="41.26198979114953" lon="13.55340799546279"><ele>59.0</ele><time>2026-04-04T11:39:30.999Z</time></trkpt><trkpt lat="41.26182567654582" lon="13.553497949728285"><ele>59.0</ele><time>2026-04-04T11:39:31.999Z</time></trkpt><trkpt lat="41.26168032556922" lon="13.553625407959663"><ele>59.0</ele><time>2026-04-04T11:39:32.999Z</time></trkpt><trkpt lat="41.26154309909422" lon="13.553808646992819"><ele>59.0</ele><time>2026-04-04T11:39:33.999Z</time></trkpt><trkpt lat="41.261411207718936" lon="13.554021363903463"><ele>56.0</ele><time>2026-04-04T11:39:34.999Z</time></trkpt><trkpt lat="41.26127222207214" lon="13.554243211095438"><ele>53.0</ele><time>2026-04-04T11:39:35.999Z</time></trkpt><trkpt lat="41.26112889779019" lon="13.554467122058211"><ele>50.0</ele><time>2026-04-04T11:39:36.999Z</time></trkpt><trkpt lat="41.260984711064886" lon="13.554689892126124"><ele>50.0</ele><time>2026-04-04T11:39:37.999Z</time></trkpt><trkpt lat="41.26084401776497" lon="13.554920603673972"><ele>50.0</ele><time>2026-04-04T11:39:38.999Z</time></trkpt><trkpt lat="41.26069700510233" lon="13.555151941081515"><ele>44.5</ele><time>2026-04-04T11:39:39.999Z</time></trkpt><trkpt lat="41.260548191286674" lon="13.555388283758589"><ele>39.0</ele><time>2026-04-04T11:39:40.999Z</time></trkpt><trkpt lat="41.26039890004658" lon="13.555625616850849"><ele>39.0</ele><time>2026-04-04T11:39:41.999Z</time></trkpt><trkpt lat="41.26024662146676" lon="13.555865615799114"><ele>39.0</ele><time>2026-04-04T11:39:42.999Z</time></trkpt><trkpt lat="41.26009870897767" lon="13.556106510753155"><ele>39.5</ele><time>2026-04-04T11:39:43.999Z</time></trkpt><trkpt lat="41.259946739264315" lon="13.556348337770778"><ele>40.0</ele><time>2026-04-04T11:39:44.999Z</time></trkpt><trkpt lat="41.259795893203915" lon="13.556585001247472"><ele>41.0</ele><time>2026-04-04T11:39:45.999Z</time></trkpt><trkpt lat="41.25964495651075" lon="13.556827675385788"><ele>42.0</ele><time>2026-04-04T11:39:46.999Z</time></trkpt><trkpt lat="41.259491397287235" lon="13.557074270743968"><ele>42.0</ele><time>2026-04-04T11:39:47.999Z</time></trkpt><trkpt lat="41.25933452610672" lon="13.557322631123094"><ele>42.0</ele><time>2026-04-04T11:39:48.999Z</time></trkpt><trkpt lat="41.25918226635988" lon="13.557559034686207"><ele>42.0</ele><time>2026-04-04T11:39:49.999Z</time></trkpt><trkpt lat="41.25904133811142" lon="13.5577782195847"><ele>42.0</ele><time>2026-04-04T11:39:50.999Z</time></trkpt><trkpt lat="41.25890140170887" lon="13.558004485550919"><ele>42.0</ele><time>2026-04-04T11:39:51.999Z</time></trkpt><trkpt lat="41.25875811072443" lon="13.558236463483063"><ele>42.0</ele><time>2026-04-04T11:39:52.999Z</time></trkpt><trkpt lat="41.25861286089163" lon="13.55847002210895"><ele>42.0</ele><time>2026-04-04T11:39:53.999Z</time></trkpt><trkpt lat="41.25846744290673" lon="13.55870167550345"><ele>43.0</ele><time>2026-04-04T11:39:54.999Z</time></trkpt><trkpt lat="41.25832218339681" lon="13.558937367889902"><ele>44.0</ele><time>2026-04-04T11:39:55.999Z</time></trkpt><trkpt lat="41.25817749250522" lon="13.559176016066324"><ele>41.5</ele><time>2026-04-04T11:39:56.999Z</time></trkpt><trkpt lat="41.2580300524015" lon="13.559417002237744"><ele>39.0</ele><time>2026-04-04T11:39:57.999Z</time></trkpt><trkpt lat="41.257882297768234" lon="13.559660729087463"><ele>38.5</ele><time>2026-04-04T11:39:58.999Z</time></trkpt><trkpt lat="41.25773588086164" lon="13.559894565680777"><ele>38.0</ele><time>2026-04-04T11:39:59.999Z</time></trkpt><trkpt lat="41.25758741745158" lon="13.560132947808137"><ele>38.5</ele><time>2026-04-04T11:40:00.999Z</time></trkpt><trkpt lat="41.25743989724628" lon="13.560371604181002"><ele>39.0</ele><time>2026-04-04T11:40:01.999Z</time></trkpt><trkpt lat="41.257294816981556" lon="13.56060304186341"><ele>38.0</ele><time>2026-04-04T11:40:02.999Z</time></trkpt><trkpt lat="41.257154407592935" lon="13.560828580124864"><ele>37.0</ele><time>2026-04-04T11:40:03.999Z</time></trkpt><trkpt lat="41.257015042450206" lon="13.561049730106015"><ele>36.0</ele><time>2026-04-04T11:40:04.999Z</time></trkpt><trkpt lat="41.256871701239895" lon="13.561277986980933"><ele>35.5</ele><time>2026-04-04T11:40:05.999Z</time></trkpt><trkpt lat="41.25672735593668" lon="13.56151314436704"><ele>35.0</ele><time>2026-04-04T11:40:06.999Z</time></trkpt><trkpt lat="41.25658516233648" lon="13.561745061691362"><ele>33.0</ele><time>2026-04-04T11:40:07.999Z</time></trkpt><trkpt lat="41.2564447432301" lon="13.561974954689653"><ele>31.0</ele><time>2026-04-04T11:40:08.999Z</time></trkpt><trkpt lat="41.25630417000096" lon="13.562206295456617"><ele>29.0</ele><time>2026-04-04T11:40:09.999Z</time></trkpt><trkpt lat="41.25616870504825" lon="13.562436308382434"><ele>27.666666666666664</ele><time>2026-04-04T11:40:10.999Z</time></trkpt><trkpt lat="41.256036048560276" lon="13.56266493499509"><ele>26.333333333333336</ele><time>2026-04-04T11:40:11.999Z</time></trkpt><trkpt lat="41.25591128162027" lon="13.562876863850738"><ele>25.0</ele><time>2026-04-04T11:40:12.999Z</time></trkpt><trkpt lat="41.25579345509029" lon="13.563075340895832"><ele>24.333333333333336</ele><time>2026-04-04T11:40:13.999Z</time></trkpt><trkpt lat="41.25567654758898" lon="13.563267712248097"><ele>23.666666666666668</ele><time>2026-04-04T11:40:14.999Z</time></trkpt><trkpt lat="41.25556301629702" lon="13.563444429777716"><ele>23.0</ele><time>2026-04-04T11:40:15.999Z</time></trkpt><trkpt lat="41.255447234674996" lon="13.56361678315384"><ele>21.333333333333336</ele><time>2026-04-04T11:40:16.999Z</time></trkpt><trkpt lat="41.25532878180833" lon="13.563788116248471"><ele>19.666666666666668</ele><time>2026-04-04T11:40:17.999Z</time></trkpt><trkpt lat="41.25521173425148" lon="13.563966125950712"><ele>18.0</ele><time>2026-04-04T11:40:18.999Z</time></trkpt><trkpt lat="41.25509678415439" lon="13.564144992669151"><ele>18.0</ele><time>2026-04-04T11:40:19.999Z</time></trkpt><trkpt lat="41.25498738816299" lon="13.564309519949282"><ele>18.0</ele><time>2026-04-04T11:40:20.999Z</time></trkpt><trkpt lat="41.25488342754401" lon="13.564458283087582"><ele>18.0</ele><time>2026-04-04T11:40:21.999Z</time></trkpt><trkpt lat="41.25478902593734" lon="13.564600393578889"><ele>17.25</ele><time>2026-04-04T11:40:22.999Z</time></trkpt><trkpt lat="41.25470172213714" lon="13.564734994427726"><ele>16.5</ele><time>2026-04-04T11:40:23.999Z</time></trkpt><trkpt lat="41.25461922867267" lon="13.564852759498889"><ele>15.75</ele><time>2026-04-04T11:40:24.999Z</time></trkpt><trkpt lat="41.25453867553708" lon="13.564944497523172"><ele>15.0</ele><time>2026-04-04T11:40:25.999Z</time></trkpt><trkpt lat="41.25445565288768" lon="13.565014667013099"><ele>15.0</ele><time>2026-04-04T11:40:26.999Z</time></trkpt><trkpt lat="41.25438795594413" lon="13.565094289775537"><ele>15.0</ele><time>2026-04-04T11:40:27.999Z</time></trkpt><trkpt lat="41.25427477284571" lon="13.565069832409131"><ele>15.0</ele><time>2026-04-04T11:40:28.999Z</time></trkpt><trkpt lat="41.25416908203367" lon="13.56502278440646"><ele>15.0</ele><time>2026-04-04T11:40:29.999Z</time></trkpt><trkpt lat="41.2540717471189" lon="13.564949391832982"><ele>15.0</ele><time>2026-04-04T11:40:30.999Z</time></trkpt><trkpt lat="41.25396027228545" lon="13.564874396724523"><ele>14.75</ele><time>2026-04-04T11:40:31.999Z</time></trkpt><trkpt lat="41.2538455348582" lon="13.564798073395798"><ele>14.5</ele><time>2026-04-04T11:40:32.999Z</time></trkpt><trkpt lat="41.253738703776484" lon="13.564743244813092"><ele>14.25</ele><time>2026-04-04T11:40:33.999Z</time></trkpt><trkpt lat="41.25363022849038" lon="13.564694796585034"><ele>14.0</ele><time>2026-04-04T11:40:34.999Z</time></trkpt><trkpt lat="41.25352421113572" lon="13.564643653404772"><ele>14.0</ele><time>2026-04-04T11:40:35.999Z</time></trkpt><trkpt lat="41.25341373642974" lon="13.564606273872451"><ele>14.0</ele><time>2026-04-04T11:40:36.999Z</time></trkpt><trkpt lat="41.2532992509237" lon="13.564596713856881"><ele>14.0</ele><time>2026-04-04T11:40:37.999Z</time></trkpt><trkpt lat="41.25316759670065" lon="13.56458886913396"><ele>14.0</ele><time>2026-04-04T11:40:38.999Z</time></trkpt><trkpt lat="41.25304411368283" lon="13.564588263460445"><ele>14.2</ele><time>2026-04-04T11:40:39.999Z</time></trkpt><trkpt lat="41.25293516973686" lon="13.564583754577825"><ele>14.399999999999999</ele><time>2026-04-04T11:40:40.999Z</time></trkpt><trkpt lat="41.252827655896" lon="13.564584920390228"><ele>14.6</ele><time>2026-04-04T11:40:41.999Z</time></trkpt><trkpt lat="41.25271829152786" lon="13.564559422271854"><ele>14.8</ele><time>2026-04-04T11:40:42.999Z</time></trkpt><trkpt lat="41.25261775162595" lon="13.56449712986744"><ele>15.0</ele><time>2026-04-04T11:40:43.999Z</time></trkpt><trkpt lat="41.25252471685953" lon="13.564424940157581"><ele>15.25</ele><time>2026-04-04T11:40:44.999Z</time></trkpt><trkpt lat="41.25243322408366" lon="13.564353076892012"><ele>15.5</ele><time>2026-04-04T11:40:45.999Z</time></trkpt><trkpt lat="41.25233621067936" lon="13.564281607387814"><ele>15.75</ele><time>2026-04-04T11:40:46.999Z</time></trkpt><trkpt lat="41.252208232903044" lon="13.564175990983411"><ele>16.0</ele><time>2026-04-04T11:40:47.999Z</time></trkpt><trkpt lat="41.25211077560996" lon="13.564104156278619"><ele>17.166666666666664</ele><time>2026-04-04T11:40:48.999Z</time></trkpt><trkpt lat="41.2520172657231" lon="13.564037994641474"><ele>18.333333333333332</ele><time>2026-04-04T11:40:49.999Z</time></trkpt><trkpt lat="41.251948052248096" lon="13.563999045943778"><ele>19.5</ele><time>2026-04-04T11:40:51Z</time></trkpt><trkpt lat="41.25188349583862" lon="13.563954591201627"><ele>20.666666666666668</ele><time>2026-04-04T11:40:52Z</time></trkpt><trkpt lat="41.25181440437097" lon="13.56390823071944"><ele>21.833333333333336</ele><time>2026-04-04T11:40:53Z</time></trkpt><trkpt lat="41.251745587635966" lon="13.563850559898807"><ele>23.0</ele><time>2026-04-04T11:40:54Z</time></trkpt><trkpt lat="41.25168897886543" lon="13.563778348825474"><ele>23.599999999999998</ele><time>2026-04-04T11:40:55Z</time></trkpt><trkpt lat="41.25165902528728" lon="13.563680074704244"><ele>24.2</ele><time>2026-04-04T11:40:56Z</time></trkpt><trkpt lat="41.25164210051836" lon="13.563565062067658"><ele>24.8</ele><time>2026-04-04T11:40:57Z</time></trkpt><trkpt lat="41.2516211123166" lon="13.563441688345444"><ele>25.4</ele><time>2026-04-04T11:40:58Z</time></trkpt><trkpt lat="41.251591962067266" lon="13.563310056753489"><ele>26.0</ele><time>2026-04-04T11:40:59Z</time></trkpt><trkpt lat="41.2515643433284" lon="13.563147905689975"><ele>26.0</ele><time>2026-04-04T11:41:00Z</time></trkpt><trkpt lat="41.2515315839492" lon="13.562959455675209"><ele>26.0</ele><time>2026-04-04T11:41:01Z</time></trkpt><trkpt lat="41.25147521028809" lon="13.562734790661697"><ele>26.0</ele><time>2026-04-04T11:41:02Z</time></trkpt><trkpt lat="41.251415013130504" lon="13.562501501947876"><ele>30.75</ele><time>2026-04-04T11:41:03Z</time></trkpt><trkpt lat="41.25137159709465" lon="13.562305259239352"><ele>35.5</ele><time>2026-04-04T11:41:04Z</time></trkpt><trkpt lat="41.25133848368065" lon="13.562119568950001"><ele>40.25</ele><time>2026-04-04T11:41:05Z</time></trkpt><trkpt lat="41.251311675256154" lon="13.56192843809037"><ele>45.0</ele><time>2026-04-04T11:41:06Z</time></trkpt><trkpt lat="41.25128455356102" lon="13.56175440770613"><ele>45.0</ele><time>2026-04-04T11:41:07Z</time></trkpt><trkpt lat="41.25125492288683" lon="13.561591374217752"><ele>45.0</ele><time>2026-04-04T11:41:08Z</time></trkpt><trkpt lat="41.2512248215695" lon="13.561443491933526"><ele>45.0</ele><time>2026-04-04T11:41:09Z</time></trkpt><trkpt lat="41.25119993233709" lon="13.561302450711887"><ele>45.0</ele><time>2026-04-04T11:41:10Z</time></trkpt><trkpt lat="41.251146726876655" lon="13.561108636700848"><ele>43.0</ele><time>2026-04-04T11:41:11Z</time></trkpt><trkpt lat="41.25106888271937" lon="13.56085918126361"><ele>41.0</ele><time>2026-04-04T11:41:12Z</time></trkpt><trkpt lat="41.25098280292685" lon="13.56060483655947"><ele>39.0</ele><time>2026-04-04T11:41:13Z</time></trkpt><trkpt lat="41.25088487852309" lon="13.560366606967994"><ele>36.0</ele><time>2026-04-04T11:41:14Z</time></trkpt><trkpt lat="41.25075323325936" lon="13.560132674793268"><ele>33.0</ele><time>2026-04-04T11:41:15Z</time></trkpt><trkpt lat="41.250610046518005" lon="13.559902743415131"><ele>30.0</ele><time>2026-04-04T11:41:16Z</time></trkpt><trkpt lat="41.25048728786294" lon="13.559697769120772"><ele>32.666666666666664</ele><time>2026-04-04T11:41:17Z</time></trkpt><trkpt lat="41.250375017492985" lon="13.559518668965946"><ele>35.33333333333333</ele><time>2026-04-04T11:41:18Z</time></trkpt><trkpt lat="41.25024569255423" lon="13.559364013657559"><ele>38.0</ele><time>2026-04-04T11:41:19Z</time></trkpt><trkpt lat="41.25008694386633" lon="13.559239039362621"><ele>38.0</ele><time>2026-04-04T11:41:20Z</time></trkpt><trkpt lat="41.24990760891354" lon="13.55913457267703"><ele>38.0</ele><time>2026-04-04T11:41:21Z</time></trkpt><trkpt lat="41.24972196161271" lon="13.559027314343803"><ele>38.0</ele><time>2026-04-04T11:41:22Z</time></trkpt><trkpt lat="41.24953140775532" lon="13.558919561738877"><ele>38.666666666666664</ele><time>2026-04-04T11:41:23Z</time></trkpt><trkpt lat="41.24934170547289" lon="13.558814818094106"><ele>39.333333333333336</ele><time>2026-04-04T11:41:24Z</time></trkpt><trkpt lat="41.24915658898652" lon="13.55870573335414"><ele>40.0</ele><time>2026-04-04T11:41:25Z</time></trkpt><trkpt lat="41.24897131601787" lon="13.55859218100414"><ele>43.66666666666667</ele><time>2026-04-04T11:41:26Z</time></trkpt><trkpt lat="41.24878173313081" lon="13.558482729163716"><ele>47.333333333333336</ele><time>2026-04-04T11:41:26.999Z</time></trkpt><trkpt lat="41.2485929905379" lon="13.558368652083319"><ele>51.0</ele><time>2026-04-04T11:41:27.999Z</time></trkpt><trkpt lat="41.248402630338454" lon="13.558256130525105"><ele>51.0</ele><time>2026-04-04T11:41:28.999Z</time></trkpt><trkpt lat="41.24821743816876" lon="13.558145212432166"><ele>51.0</ele><time>2026-04-04T11:41:29.999Z</time></trkpt><trkpt lat="41.24804347958408" lon="13.558041866251203"><ele>51.0</ele><time>2026-04-04T11:41:30.999Z</time></trkpt><trkpt lat="41.24787360282347" lon="13.557946010847871"><ele>51.0</ele><time>2026-04-04T11:41:31.999Z</time></trkpt><trkpt lat="41.247706827001366" lon="13.557854213356228"><ele>51.0</ele><time>2026-04-04T11:41:32.999Z</time></trkpt><trkpt lat="41.24754331102712" lon="13.557771080460027"><ele>51.0</ele><time>2026-04-04T11:41:33.999Z</time></trkpt><trkpt lat="41.247396300977385" lon="13.557695640759686"><ele>53.75</ele><time>2026-04-04T11:41:34.999Z</time></trkpt><trkpt lat="41.24726840100165" lon="13.557617339039261"><ele>56.5</ele><time>2026-04-04T11:41:35.999Z</time></trkpt><trkpt lat="41.24716462625106" lon="13.557516123991205"><ele>59.25</ele><time>2026-04-04T11:41:36.999Z</time></trkpt><trkpt lat="41.24708641727359" lon="13.557389929286002"><ele>62.0</ele><time>2026-04-04T11:41:37.999Z</time></trkpt><trkpt lat="41.24703906219643" lon="13.55722795786447"><ele>62.0</ele><time>2026-04-04T11:41:38.999Z</time></trkpt><trkpt lat="41.24700803629147" lon="13.557037818730496"><ele>62.0</ele><time>2026-04-04T11:41:39.999Z</time></trkpt><trkpt lat="41.24700391965229" lon="13.556859837961335"><ele>62.0</ele><time>2026-04-04T11:41:40.999Z</time></trkpt><trkpt lat="41.24699128627406" lon="13.556704581775946"><ele>62.0</ele><time>2026-04-04T11:41:41.999Z</time></trkpt><trkpt lat="41.246974158813536" lon="13.556572153478795"><ele>63.5</ele><time>2026-04-04T11:41:42.999Z</time></trkpt><trkpt lat="41.2469231051391" lon="13.556434573971265"><ele>65.0</ele><time>2026-04-04T11:41:43.999Z</time></trkpt><trkpt lat="41.24684258991593" lon="13.55630141107266"><ele>66.5</ele><time>2026-04-04T11:41:44.999Z</time></trkpt><trkpt lat="41.24674457707745" lon="13.556185858419498"><ele>68.0</ele><time>2026-04-04T11:41:45.999Z</time></trkpt><trkpt lat="41.2466263773766" lon="13.556093056099762"><ele>68.0</ele><time>2026-04-04T11:41:46.999Z</time></trkpt><trkpt lat="41.24649919378087" lon="13.556022935395774"><ele>68.0</ele><time>2026-04-04T11:41:47.999Z</time></trkpt><trkpt lat="41.246371833485725" lon="13.555955633603986"><ele>68.0</ele><time>2026-04-04T11:41:48.999Z</time></trkpt><trkpt lat="41.24625109958393" lon="13.555882324275569"><ele>68.0</ele><time>2026-04-04T11:41:49.999Z</time></trkpt><trkpt lat="41.24612954214313" lon="13.555803669520712"><ele>66.66666666666667</ele><time>2026-04-04T11:41:50.999Z</time></trkpt><trkpt lat="41.245999603927984" lon="13.555718698585089"><ele>65.33333333333333</ele><time>2026-04-04T11:41:51.999Z</time></trkpt><trkpt lat="41.245863684980115" lon="13.555636333442717"><ele>64.0</ele><time>2026-04-04T11:41:52.999Z</time></trkpt><trkpt lat="41.24572190705065" lon="13.555551024481614"><ele>63.33333333333333</ele><time>2026-04-04T11:41:53.999Z</time></trkpt><trkpt lat="41.24557652699904" lon="13.555461666961111"><ele>62.66666666666667</ele><time>2026-04-04T11:41:54.999Z</time></trkpt><trkpt lat="41.245424753396826" lon="13.555366479907489"><ele>62.0</ele><time>2026-04-04T11:41:55.999Z</time></trkpt><trkpt lat="41.245261879588085" lon="13.555266804663942"><ele>62.0</ele><time>2026-04-04T11:41:56.999Z</time></trkpt><trkpt lat="41.24509300239938" lon="13.55516496026031"><ele>62.0</ele><time>2026-04-04T11:41:57.999Z</time></trkpt><trkpt lat="41.24492562992897" lon="13.555065355335277"><ele>62.0</ele><time>2026-04-04T11:41:58.999Z</time></trkpt><trkpt lat="41.244755653359924" lon="13.554954833263212"><ele>58.66666666666667</ele><time>2026-04-04T11:41:59.999Z</time></trkpt><trkpt lat="41.24458175533451" lon="13.55484294534582"><ele>55.33333333333333</ele><time>2026-04-04T11:42:00.999Z</time></trkpt><trkpt lat="41.244403096757864" lon="13.55472831552579"><ele>52.0</ele><time>2026-04-04T11:42:01.999Z</time></trkpt><trkpt lat="41.244227925157794" lon="13.5546206652766"><ele>53.666666666666664</ele><time>2026-04-04T11:42:02.999Z</time></trkpt><trkpt lat="41.24406025441009" lon="13.554517388692656"><ele>55.33333333333333</ele><time>2026-04-04T11:42:03.999Z</time></trkpt><trkpt lat="41.24390105106198" lon="13.554419953556025"><ele>57.0</ele><time>2026-04-04T11:42:04.999Z</time></trkpt><trkpt lat="41.24374679844255" lon="13.554322589126226"><ele>57.0</ele><time>2026-04-04T11:42:05.999Z</time></trkpt><trkpt lat="41.243605547074885" lon="13.554233294609164"><ele>57.0</ele><time>2026-04-04T11:42:06.999Z</time></trkpt><trkpt lat="41.243461502204944" lon="13.554138849857738"><ele>57.0</ele><time>2026-04-04T11:42:07.999Z</time></trkpt><trkpt lat="41.24331283276169" lon="13.554042219515715"><ele>57.0</ele><time>2026-04-04T11:42:08.999Z</time></trkpt><trkpt lat="41.24316647701804" lon="13.553950746552703"><ele>57.0</ele><time>2026-04-04T11:42:09.999Z</time></trkpt><trkpt lat="41.243026108529634" lon="13.553879462140515"><ele>57.0</ele><time>2026-04-04T11:42:10.999Z</time></trkpt><trkpt lat="41.24288366498729" lon="13.553857988368621"><ele>58.0</ele><time>2026-04-04T11:42:11.999Z</time></trkpt><trkpt lat="41.24275074138213" lon="13.55384655224863"><ele>59.0</ele><time>2026-04-04T11:42:12.999Z</time></trkpt><trkpt lat="41.242624418740064" lon="13.553840368172882"><ele>60.0</ele><time>2026-04-04T11:42:13.999Z</time></trkpt><trkpt lat="41.242496619856986" lon="13.553881952108926"><ele>61.0</ele><time>2026-04-04T11:42:14.999Z</time></trkpt><trkpt lat="41.242357265585866" lon="13.55394215318352"><ele>61.0</ele><time>2026-04-04T11:42:15.999Z</time></trkpt><trkpt lat="41.24220939066492" lon="13.554008448619046"><ele>61.0</ele><time>2026-04-04T11:42:16.999Z</time></trkpt><trkpt lat="41.24206281639439" lon="13.554073234262239"><ele>61.0</ele><time>2026-04-04T11:42:17.999Z</time></trkpt><trkpt lat="41.24192710606189" lon="13.554132933337025"><ele>61.0</ele><time>2026-04-04T11:42:18.999Z</time></trkpt><trkpt lat="41.241798890037245" lon="13.55418681450674"><ele>61.0</ele><time>2026-04-04T11:42:19.999Z</time></trkpt><trkpt lat="41.241685639636415" lon="13.554231987444133"><ele>61.0</ele><time>2026-04-04T11:42:20.999Z</time></trkpt><trkpt lat="41.24158438002309" lon="13.5542669411286"><ele>61.0</ele><time>2026-04-04T11:42:21.999Z</time></trkpt><trkpt lat="41.24149280098201" lon="13.554293455050777"><ele>59.4</ele><time>2026-04-04T11:42:22.999Z</time></trkpt><trkpt lat="41.24138492721283" lon="13.554252948490015"><ele>57.8</ele><time>2026-04-04T11:42:23.999Z</time></trkpt><trkpt lat="41.24127963042524" lon="13.554225873046317"><ele>56.199999999999996</ele><time>2026-04-04T11:42:24.999Z</time></trkpt><trkpt lat="41.24117442037129" lon="13.554183149056913"><ele>54.599999999999994</ele><time>2026-04-04T11:42:25.999Z</time></trkpt><trkpt lat="41.24106203493385" lon="13.554131473061263"><ele>53.0</ele><time>2026-04-04T11:42:26.999Z</time></trkpt><trkpt lat="41.24094478384335" lon="13.554075706493332"><ele>53.0</ele><time>2026-04-04T11:42:27.999Z</time></trkpt><trkpt lat="41.24084033458345" lon="13.553942385039557"><ele>53.0</ele><time>2026-04-04T11:42:28.999Z</time></trkpt><trkpt lat="41.24070006250607" lon="13.55390412345706"><ele>53.0</ele><time>2026-04-04T11:42:29.999Z</time></trkpt><trkpt lat="41.2405783998491" lon="13.553803350706826"><ele>53.0</ele><time>2026-04-04T11:42:30.999Z</time></trkpt><trkpt lat="41.24045933556904" lon="13.553731016357577"><ele>53.5</ele><time>2026-04-04T11:42:31.999Z</time></trkpt><trkpt lat="41.240322255448895" lon="13.553724128441159"><ele>54.0</ele><time>2026-04-04T11:42:32.999Z</time></trkpt><trkpt lat="41.24019920459353" lon="13.553657920195825"><ele>54.5</ele><time>2026-04-04T11:42:33.999Z</time></trkpt><trkpt lat="41.2400783450615" lon="13.553593894049854"><ele>55.0</ele><time>2026-04-04T11:42:34.999Z</time></trkpt><trkpt lat="41.23995873330444" lon="13.55353123155132"><ele>56.0</ele><time>2026-04-04T11:42:35.999Z</time></trkpt><trkpt lat="41.23983549633139" lon="13.553465659240583"><ele>57.0</ele><time>2026-04-04T11:42:36.999Z</time></trkpt><trkpt lat="41.23970790487762" lon="13.553395394924006"><ele>58.0</ele><time>2026-04-04T11:42:37.999Z</time></trkpt><trkpt lat="41.239588934693614" lon="13.55332643540494"><ele>59.0</ele><time>2026-04-04T11:42:38.999Z</time></trkpt><trkpt lat="41.239472041861255" lon="13.5532637752662"><ele>59.75</ele><time>2026-04-04T11:42:39.999Z</time></trkpt><trkpt lat="41.239360929830305" lon="13.553191673661567"><ele>60.5</ele><time>2026-04-04T11:42:40.999Z</time></trkpt><trkpt lat="41.23923993067453" lon="13.553101189901419"><ele>61.25</ele><time>2026-04-04T11:42:41.999Z</time></trkpt><trkpt lat="41.23911192730541" lon="13.552991382737217"><ele>62.0</ele><time>2026-04-04T11:42:42.999Z</time></trkpt><trkpt lat="41.23897794569737" lon="13.5528721440453"><ele>62.66666666666667</ele><time>2026-04-04T11:42:43.999Z</time></trkpt><trkpt lat="41.238844726919375" lon="13.552751966661345"><ele>63.33333333333333</ele><time>2026-04-04T11:42:44.999Z</time></trkpt><trkpt lat="41.23871658142894" lon="13.552644991841131"><ele>64.0</ele><time>2026-04-04T11:42:45.999Z</time></trkpt><trkpt lat="41.23858331414993" lon="13.55254384396353"><ele>64.0</ele><time>2026-04-04T11:42:46.999Z</time></trkpt><trkpt lat="41.23843379520864" lon="13.552468862761161"><ele>64.0</ele><time>2026-04-04T11:42:47.999Z</time></trkpt><trkpt lat="41.23824674503702" lon="13.552426078398165"><ele>64.0</ele><time>2026-04-04T11:42:48.999Z</time></trkpt><trkpt lat="41.238018167888185" lon="13.552391733417378"><ele>64.66666666666666</ele><time>2026-04-04T11:42:49.999Z</time></trkpt><trkpt lat="41.23780157863142" lon="13.552336876379941"><ele>65.33333333333333</ele><time>2026-04-04T11:42:50.999Z</time></trkpt><trkpt lat="41.237620314104866" lon="13.55229807625321"><ele>66.0</ele><time>2026-04-04T11:42:51.999Z</time></trkpt><trkpt lat="41.23745335786316" lon="13.552299354598283"><ele>65.0</ele><time>2026-04-04T11:42:52.999Z</time></trkpt><trkpt lat="41.23728570163821" lon="13.552344048868017"><ele>64.0</ele><time>2026-04-04T11:42:53.999Z</time></trkpt><trkpt lat="41.23711939543096" lon="13.552417308862996"><ele>63.0</ele><time>2026-04-04T11:42:54.999Z</time></trkpt><trkpt lat="41.23696549627205" lon="13.552498790920083"><ele>63.0</ele><time>2026-04-04T11:42:55.999Z</time></trkpt><trkpt lat="41.23683321272539" lon="13.552573223237863"><ele>63.0</ele><time>2026-04-04T11:42:57Z</time></trkpt><trkpt lat="41.23672162675843" lon="13.552627353180167"><ele>63.0</ele><time>2026-04-04T11:42:58Z</time></trkpt><trkpt lat="41.23664249657953" lon="13.5526578958959"><ele>63.0</ele><time>2026-04-04T11:42:59Z</time></trkpt><trkpt lat="41.23657510192628" lon="13.552672340740036"><ele>63.0</ele><time>2026-04-04T11:43:00Z</time></trkpt><trkpt lat="41.2364965942927" lon="13.552674131171598"><ele>64.2</ele><time>2026-04-04T11:43:02Z</time></trkpt><trkpt lat="41.23642785244746" lon="13.552515532522635"><ele>65.4</ele><time>2026-04-04T11:43:03Z</time></trkpt><trkpt lat="41.23640796045516" lon="13.55240462588743"><ele>66.60000000000001</ele><time>2026-04-04T11:43:04Z</time></trkpt><trkpt lat="41.2364363438925" lon="13.552267600598583"><ele>67.8</ele><time>2026-04-04T11:43:05Z</time></trkpt><trkpt lat="41.236425955485906" lon="13.552142262865857"><ele>69.0</ele><time>2026-04-04T11:43:06Z</time></trkpt><trkpt lat="41.2364100409202" lon="13.552022291139878"><ele>69.4</ele><time>2026-04-04T11:43:07Z</time></trkpt><trkpt lat="41.23638008638378" lon="13.551906989291952"><ele>69.80000000000001</ele><time>2026-04-04T11:43:08Z</time></trkpt><trkpt lat="41.236329727755134" lon="13.55178468900984"><ele>70.19999999999999</ele><time>2026-04-04T11:43:09Z</time></trkpt><trkpt lat="41.23626570735739" lon="13.551660689703443"><ele>70.6</ele><time>2026-04-04T11:43:10Z</time></trkpt><trkpt lat="41.23619412730033" lon="13.55153340583983"><ele>71.0</ele><time>2026-04-04T11:43:11Z</time></trkpt><trkpt lat="41.23611398230834" lon="13.551404407195793"><ele>71.0</ele><time>2026-04-04T11:43:12Z</time></trkpt><trkpt lat="41.23602917438908" lon="13.551276231214107"><ele>71.0</ele><time>2026-04-04T11:43:13Z</time></trkpt><trkpt lat="41.23593722308692" lon="13.551151864768597"><ele>71.0</ele><time>2026-04-04T11:43:14Z</time></trkpt><trkpt lat="41.23585070034287" lon="13.551039026151935"><ele>71.0</ele><time>2026-04-04T11:43:15Z</time></trkpt><trkpt lat="41.23578005621181" lon="13.55093161728559"><ele>70.5</ele><time>2026-04-04T11:43:16Z</time></trkpt><trkpt lat="41.23572020940035" lon="13.550805193396226"><ele>70.0</ele><time>2026-04-04T11:43:17Z</time></trkpt><trkpt lat="41.235675514618926" lon="13.55066301224801"><ele>69.5</ele><time>2026-04-04T11:43:18Z</time></trkpt><trkpt lat="41.23564616265564" lon="13.550502619080023"><ele>69.0</ele><time>2026-04-04T11:43:19Z</time></trkpt><trkpt lat="41.23561989794945" lon="13.550332989215129"><ele>70.0</ele><time>2026-04-04T11:43:20Z</time></trkpt><trkpt lat="41.23556099113843" lon="13.5501815258185"><ele>71.0</ele><time>2026-04-04T11:43:21Z</time></trkpt><trkpt lat="41.23547837390296" lon="13.550053761303925"><ele>72.0</ele><time>2026-04-04T11:43:22Z</time></trkpt><trkpt lat="41.23539767630077" lon="13.549928260248272"><ele>73.0</ele><time>2026-04-04T11:43:23Z</time></trkpt><trkpt lat="41.23532434541157" lon="13.54979663089093"><ele>73.0</ele><time>2026-04-04T11:43:24Z</time></trkpt><trkpt lat="41.235255032734926" lon="13.549660514909025"><ele>73.0</ele><time>2026-04-04T11:43:25Z</time></trkpt><trkpt lat="41.23518621580923" lon="13.549522965221472"><ele>73.0</ele><time>2026-04-04T11:43:25.999Z</time></trkpt><trkpt lat="41.23511590091527" lon="13.54938694700869"><ele>73.0</ele><time>2026-04-04T11:43:26.999Z</time></trkpt><trkpt lat="41.235051243852844" lon="13.549256670300654"><ele>73.25</ele><time>2026-04-04T11:43:27.999Z</time></trkpt><trkpt lat="41.23498488996042" lon="13.549129726788127"><ele>73.5</ele><time>2026-04-04T11:43:28.999Z</time></trkpt><trkpt lat="41.234915633092044" lon="13.548999875223478"><ele>73.75</ele><time>2026-04-04T11:43:29.999Z</time></trkpt><trkpt lat="41.234838053112036" lon="13.548877430130613"><ele>74.0</ele><time>2026-04-04T11:43:30.999Z</time></trkpt><trkpt lat="41.23474833006983" lon="13.548767849394409"><ele>72.0</ele><time>2026-04-04T11:43:31.999Z</time></trkpt><trkpt lat="41.23465503225923" lon="13.54866548682447"><ele>70.0</ele><time>2026-04-04T11:43:32.999Z</time></trkpt><trkpt lat="41.23455407237757" lon="13.54857876210407"><ele>68.0</ele><time>2026-04-04T11:43:33.999Z</time></trkpt><trkpt lat="41.23444375451665" lon="13.548494201468262"><ele>66.0</ele><time>2026-04-04T11:43:34.999Z</time></trkpt><trkpt lat="41.234326835614254" lon="13.5484043063453"><ele>66.0</ele><time>2026-04-04T11:43:35.999Z</time></trkpt><trkpt lat="41.23420549740049" lon="13.548312087752501"><ele>66.0</ele><time>2026-04-04T11:43:36.999Z</time></trkpt><trkpt lat="41.2340821446363" lon="13.54821391156663"><ele>66.0</ele><time>2026-04-04T11:43:37.999Z</time></trkpt><trkpt lat="41.233961151431366" lon="13.548105280530116"><ele>66.0</ele><time>2026-04-04T11:43:38.999Z</time></trkpt><trkpt lat="41.23384410335525" lon="13.547991189935303"><ele>63.66666666666667</ele><time>2026-04-04T11:43:39.999Z</time></trkpt><trkpt lat="41.233727195750475" lon="13.547875555362623"><ele>61.333333333333336</ele><time>2026-04-04T11:43:40.999Z</time></trkpt><trkpt lat="41.233610738167606" lon="13.547754844493594"><ele>59.0</ele><time>2026-04-04T11:43:41.999Z</time></trkpt><trkpt lat="41.233487341781135" lon="13.547619520210837"><ele>59.0</ele><time>2026-04-04T11:43:42.999Z</time></trkpt><trkpt lat="41.23336021826234" lon="13.547471292848526"><ele>59.0</ele><time>2026-04-04T11:43:43.999Z</time></trkpt><trkpt lat="41.233237223871775" lon="13.547312277514257"><ele>59.0</ele><time>2026-04-04T11:43:44.999Z</time></trkpt><trkpt lat="41.233121387881056" lon="13.547154112766611"><ele>57.66666666666667</ele><time>2026-04-04T11:43:45.999Z</time></trkpt><trkpt lat="41.233013421646746" lon="13.546996700317848"><ele>56.33333333333333</ele><time>2026-04-04T11:43:46.999Z</time></trkpt><trkpt lat="41.23290651896796" lon="13.5468439099244"><ele>55.0</ele><time>2026-04-04T11:43:47.999Z</time></trkpt><trkpt lat="41.23280741796443" lon="13.546690366216401"><ele>55.0</ele><time>2026-04-04T11:43:48.999Z</time></trkpt><trkpt lat="41.23272037728465" lon="13.546529292702562"><ele>55.0</ele><time>2026-04-04T11:43:49.999Z</time></trkpt><trkpt lat="41.232649415779726" lon="13.546360352309037"><ele>55.0</ele><time>2026-04-04T11:43:50.999Z</time></trkpt><trkpt lat="41.23259115479395" lon="13.546184890942387"><ele>55.0</ele><time>2026-04-04T11:43:51.999Z</time></trkpt><trkpt lat="41.232550187016585" lon="13.546004466576939"><ele>55.0</ele><time>2026-04-04T11:43:52.999Z</time></trkpt><trkpt lat="41.2325107425971" lon="13.545824369533536"><ele>55.0</ele><time>2026-04-04T11:43:53.999Z</time></trkpt><trkpt lat="41.23248659891848" lon="13.545657688587909"><ele>55.0</ele><time>2026-04-04T11:43:54.999Z</time></trkpt><trkpt lat="41.23247684021611" lon="13.545502216801188"><ele>55.0</ele><time>2026-04-04T11:43:55.999Z</time></trkpt><trkpt lat="41.23247137610828" lon="13.545351305608584"><ele>55.0</ele><time>2026-04-04T11:43:56.999Z</time></trkpt><trkpt lat="41.232459087919" lon="13.545199425665613"><ele>55.0</ele><time>2026-04-04T11:43:57.999Z</time></trkpt><trkpt lat="41.23242108955765" lon="13.54505045374328"><ele>55.0</ele><time>2026-04-04T11:43:58.999Z</time></trkpt><trkpt lat="41.232368225407484" lon="13.544921745895303"><ele>55.0</ele><time>2026-04-04T11:43:59.999Z</time></trkpt><trkpt lat="41.23232347253338" lon="13.544812746740488"><ele>55.0</ele><time>2026-04-04T11:44:00.999Z</time></trkpt><trkpt lat="41.232286160434654" lon="13.544709153591231"><ele>54.4</ele><time>2026-04-04T11:44:01.999Z</time></trkpt><trkpt lat="41.23226123881774" lon="13.544605833235128"><ele>53.8</ele><time>2026-04-04T11:44:02.999Z</time></trkpt><trkpt lat="41.232250663410824" lon="13.544485704701875"><ele>53.2</ele><time>2026-04-04T11:44:03.999Z</time></trkpt><trkpt lat="41.23225365233014" lon="13.544326058733317"><ele>52.6</ele><time>2026-04-04T11:44:04.999Z</time></trkpt><trkpt lat="41.23224008833341" lon="13.544129983222284"><ele>52.0</ele><time>2026-04-04T11:44:05.999Z</time></trkpt><trkpt lat="41.23221299804765" lon="13.543929442170196"><ele>51.0</ele><time>2026-04-04T11:44:06.999Z</time></trkpt><trkpt lat="41.232194490581456" lon="13.543743477672688"><ele>50.0</ele><time>2026-04-04T11:44:07.999Z</time></trkpt><trkpt lat="41.23217924858669" lon="13.543568198531291"><ele>49.0</ele><time>2026-04-04T11:44:08.999Z</time></trkpt><trkpt lat="41.23216567588826" lon="13.543405065358229"><ele>48.0</ele><time>2026-04-04T11:44:09.999Z</time></trkpt><trkpt lat="41.23215766310441" lon="13.543250570653646"><ele>47.75</ele><time>2026-04-04T11:44:10.999Z</time></trkpt><trkpt lat="41.23215387498792" lon="13.543086869493296"><ele>47.5</ele><time>2026-04-04T11:44:11.999Z</time></trkpt><trkpt lat="41.2321532855684" lon="13.542897760603294"><ele>47.25</ele><time>2026-04-04T11:44:12.999Z</time></trkpt><trkpt lat="41.23215913736349" lon="13.542711147151552"><ele>47.0</ele><time>2026-04-04T11:44:13.999Z</time></trkpt><trkpt lat="41.232169082210156" lon="13.542509633021893"><ele>47.0</ele><time>2026-04-04T11:44:14.999Z</time></trkpt><trkpt lat="41.232180405661396" lon="13.542296727462176"><ele>47.0</ele><time>2026-04-04T11:44:15.999Z</time></trkpt><trkpt lat="41.23218504174834" lon="13.542074893693016"><ele>47.0</ele><time>2026-04-04T11:44:16.999Z</time></trkpt><trkpt lat="41.232182754186404" lon="13.54184658272764"><ele>46.666666666666664</ele><time>2026-04-04T11:44:17.999Z</time></trkpt><trkpt lat="41.232175625698304" lon="13.541628024601714"><ele>46.333333333333336</ele><time>2026-04-04T11:44:18.999Z</time></trkpt><trkpt lat="41.23216602704117" lon="13.541419970398875"><ele>46.0</ele><time>2026-04-04T11:44:19.999Z</time></trkpt><trkpt lat="41.232157215324335" lon="13.541203325322872"><ele>45.0</ele><time>2026-04-04T11:44:20.999Z</time></trkpt><trkpt lat="41.23216138975319" lon="13.540979149878934"><ele>44.0</ele><time>2026-04-04T11:44:21.999Z</time></trkpt><trkpt lat="41.232172858134184" lon="13.540751138276583"><ele>43.0</ele><time>2026-04-04T11:44:22.999Z</time></trkpt><trkpt lat="41.23218781968992" lon="13.540528519194972"><ele>44.0</ele><time>2026-04-04T11:44:23.999Z</time></trkpt><trkpt lat="41.232204286120904" lon="13.540316009350434"><ele>45.0</ele><time>2026-04-04T11:44:24.999Z</time></trkpt><trkpt lat="41.23221601402044" lon="13.54012408206159"><ele>46.0</ele><time>2026-04-04T11:44:25.999Z</time></trkpt><trkpt lat="41.23222936423363" lon="13.539951764006233"><ele>47.0</ele><time>2026-04-04T11:44:26.999Z</time></trkpt><trkpt lat="41.232244821337076" lon="13.539792600267006"><ele>47.0</ele><time>2026-04-04T11:44:27.999Z</time></trkpt><trkpt lat="41.23225509229127" lon="13.539650045932207"><ele>47.0</ele><time>2026-04-04T11:44:28.999Z</time></trkpt><trkpt lat="41.2322624883351" lon="13.539522883348889"><ele>47.0</ele><time>2026-04-04T11:44:29.999Z</time></trkpt><trkpt lat="41.23227132824005" lon="13.539397717065563"><ele>47.0</ele><time>2026-04-04T11:44:30.999Z</time></trkpt><trkpt lat="41.23226766531775" lon="13.53928706236687"><ele>47.0</ele><time>2026-04-04T11:44:31.999Z</time></trkpt><trkpt lat="41.23222264895695" lon="13.539179127710913"><ele>46.75</ele><time>2026-04-04T11:44:32.999Z</time></trkpt><trkpt lat="41.23214574234876" lon="13.539075591082605"><ele>46.5</ele><time>2026-04-04T11:44:33.999Z</time></trkpt><trkpt lat="41.23207692016811" lon="13.538962620801485"><ele>46.25</ele><time>2026-04-04T11:44:34.999Z</time></trkpt><trkpt lat="41.23200770002919" lon="13.538846134887248"><ele>46.0</ele><time>2026-04-04T11:44:35.999Z</time></trkpt><trkpt lat="41.23192599028858" lon="13.538725888230525"><ele>45.75</ele><time>2026-04-04T11:44:36.999Z</time></trkpt><trkpt lat="41.23183864273463" lon="13.538621180192502"><ele>45.5</ele><time>2026-04-04T11:44:37.999Z</time></trkpt><trkpt lat="41.231752005228834" lon="13.538521726748368"><ele>45.25</ele><time>2026-04-04T11:44:38.999Z</time></trkpt><trkpt lat="41.2316700667788" lon="13.538416971747973"><ele>45.0</ele><time>2026-04-04T11:44:39.999Z</time></trkpt><trkpt lat="41.23159621453449" lon="13.538287877462267"><ele>45.0</ele><time>2026-04-04T11:44:40.999Z</time></trkpt><trkpt lat="41.231524498085605" lon="13.538154450907266"><ele>45.0</ele><time>2026-04-04T11:44:41.999Z</time></trkpt><trkpt lat="41.23143254727022" lon="13.538049696045437"><ele>45.0</ele><time>2026-04-04T11:44:42.999Z</time></trkpt><trkpt lat="41.23131967795233" lon="13.537961583706464"><ele>45.0</ele><time>2026-04-04T11:44:43.999Z</time></trkpt><trkpt lat="41.23120401060356" lon="13.537872458522534"><ele>45.75</ele><time>2026-04-04T11:44:44.999Z</time></trkpt><trkpt lat="41.23109864193518" lon="13.537772358044725"><ele>46.5</ele><time>2026-04-04T11:44:45.999Z</time></trkpt><trkpt lat="41.23100654065851" lon="13.537658700046617"><ele>47.25</ele><time>2026-04-04T11:44:46.999Z</time></trkpt><trkpt lat="41.230917557082876" lon="13.537526000564027"><ele>48.0</ele><time>2026-04-04T11:44:47.999Z</time></trkpt><trkpt lat="41.23083606356534" lon="13.537382671196893"><ele>48.0</ele><time>2026-04-04T11:44:48.999Z</time></trkpt><trkpt lat="41.23075725525865" lon="13.537241170245512"><ele>48.0</ele><time>2026-04-04T11:44:49.999Z</time></trkpt><trkpt lat="41.23068254382754" lon="13.537096774644796"><ele>48.0</ele><time>2026-04-04T11:44:50.999Z</time></trkpt><trkpt lat="41.23061886005471" lon="13.536933670148745"><ele>48.0</ele><time>2026-04-04T11:44:51.999Z</time></trkpt><trkpt lat="41.230561761073936" lon="13.536751103795805"><ele>48.25</ele><time>2026-04-04T11:44:52.999Z</time></trkpt><trkpt lat="41.2305078859446" lon="13.536574176357382"><ele>48.5</ele><time>2026-04-04T11:44:53.999Z</time></trkpt><trkpt lat="41.23045374246761" lon="13.536389380557273"><ele>48.75</ele><time>2026-04-04T11:44:54.999Z</time></trkpt><trkpt lat="41.23040585687302" lon="13.536197529241965"><ele>49.0</ele><time>2026-04-04T11:44:55.999Z</time></trkpt><trkpt lat="41.23037344011198" lon="13.536008391559081"><ele>49.0</ele><time>2026-04-04T11:44:56.999Z</time></trkpt><trkpt lat="41.230348698097565" lon="13.53581728922863"><ele>49.0</ele><time>2026-04-04T11:44:57.999Z</time></trkpt><trkpt lat="41.23031240131899" lon="13.535622956950936"><ele>49.0</ele><time>2026-04-04T11:44:58.999Z</time></trkpt><trkpt lat="41.23028392237915" lon="13.535426217710317"><ele>49.0</ele><time>2026-04-04T11:44:59.999Z</time></trkpt><trkpt lat="41.230248602610935" lon="13.53522972492697"><ele>48.5</ele><time>2026-04-04T11:45:01Z</time></trkpt><trkpt lat="41.23020677926517" lon="13.535037418589534"><ele>48.0</ele><time>2026-04-04T11:45:02.001Z</time></trkpt><trkpt lat="41.2301554682635" lon="13.534852248199739"><ele>47.5</ele><time>2026-04-04T11:45:03.001Z</time></trkpt><trkpt lat="41.23010163959233" lon="13.534671086590809"><ele>47.0</ele><time>2026-04-04T11:45:04.001Z</time></trkpt><trkpt lat="41.23004962401043" lon="13.534499892369299"><ele>46.75</ele><time>2026-04-04T11:45:05.001Z</time></trkpt><trkpt lat="41.23000238295418" lon="13.534344433448968"><ele>46.5</ele><time>2026-04-04T11:45:06.001Z</time></trkpt><trkpt lat="41.22995178641291" lon="13.534181174661231"><ele>46.25</ele><time>2026-04-04T11:45:07.001Z</time></trkpt><trkpt lat="41.229907370285204" lon="13.534015435861889"><ele>46.0</ele><time>2026-04-04T11:45:08.001Z</time></trkpt><trkpt lat="41.22988001530646" lon="13.533849353056505"><ele>45.25</ele><time>2026-04-04T11:45:09.001Z</time></trkpt><trkpt lat="41.22987071036991" lon="13.533671396236832"><ele>44.5</ele><time>2026-04-04T11:45:10.001Z</time></trkpt><trkpt lat="41.22987836387041" lon="13.533490214386955"><ele>43.75</ele><time>2026-04-04T11:45:11.001Z</time></trkpt><trkpt lat="41.22989385170893" lon="13.533306036278706"><ele>43.0</ele><time>2026-04-04T11:45:12.001Z</time></trkpt><trkpt lat="41.229926568053855" lon="13.533117521306082"><ele>43.0</ele><time>2026-04-04T11:45:13.001Z</time></trkpt><trkpt lat="41.22996031234412" lon="13.532928626089692"><ele>43.0</ele><time>2026-04-04T11:45:14.001Z</time></trkpt><trkpt lat="41.22997092922658" lon="13.532730773375096"><ele>43.0</ele><time>2026-04-04T11:45:15.001Z</time></trkpt><trkpt lat="41.22997318268159" lon="13.532526439836987"><ele>43.0</ele><time>2026-04-04T11:45:16.001Z</time></trkpt><trkpt lat="41.229972508829675" lon="13.532324528475591"><ele>43.0</ele><time>2026-04-04T11:45:17.001Z</time></trkpt><trkpt lat="41.229973835678344" lon="13.532144631907427"><ele>43.0</ele><time>2026-04-04T11:45:18.001Z</time></trkpt><trkpt lat="41.22998081404258" lon="13.531966938039023"><ele>43.0</ele><time>2026-04-04T11:45:19.001Z</time></trkpt><trkpt lat="41.23000321901447" lon="13.531784797539363"><ele>43.0</ele><time>2026-04-04T11:45:20.001Z</time></trkpt><trkpt lat="41.23004446317944" lon="13.531607679017592"><ele>43.0</ele><time>2026-04-04T11:45:21.001Z</time></trkpt><trkpt lat="41.23010873962612" lon="13.531451357659812"><ele>43.0</ele><time>2026-04-04T11:45:22.001Z</time></trkpt><trkpt lat="41.23018475553564" lon="13.531288065115431"><ele>43.0</ele><time>2026-04-04T11:45:23.001Z</time></trkpt><trkpt lat="41.23027749533072" lon="13.53113696897177"><ele>43.0</ele><time>2026-04-04T11:45:24.001Z</time></trkpt><trkpt lat="41.23037356594268" lon="13.530996031455944"><ele>43.75</ele><time>2026-04-04T11:45:25.001Z</time></trkpt><trkpt lat="41.23045891011988" lon="13.530839478140594"><ele>44.5</ele><time>2026-04-04T11:45:26Z</time></trkpt><trkpt lat="41.23054192379218" lon="13.530680242285277"><ele>45.25</ele><time>2026-04-04T11:45:27Z</time></trkpt><trkpt lat="41.23062227657343" lon="13.53051502847818"><ele>46.0</ele><time>2026-04-04T11:45:28Z</time></trkpt><trkpt lat="41.230705656078094" lon="13.530338056672749"><ele>43.66666666666667</ele><time>2026-04-04T11:45:29Z</time></trkpt><trkpt lat="41.23079374678665" lon="13.530148437778548"><ele>41.333333333333336</ele><time>2026-04-04T11:45:30Z</time></trkpt><trkpt lat="41.230883963371234" lon="13.52995382511756"><ele>39.0</ele><time>2026-04-04T11:45:31Z</time></trkpt><trkpt lat="41.23096423870775" lon="13.529777383611766"><ele>39.0</ele><time>2026-04-04T11:45:32Z</time></trkpt><trkpt lat="41.231042589936855" lon="13.529592168972577"><ele>39.0</ele><time>2026-04-04T11:45:33Z</time></trkpt><trkpt lat="41.23111283095784" lon="13.529379962467063"><ele>39.0</ele><time>2026-04-04T11:45:34Z</time></trkpt><trkpt lat="41.23118519436753" lon="13.529115119611177"><ele>39.0</ele><time>2026-04-04T11:45:35Z</time></trkpt><trkpt lat="41.231261213872564" lon="13.528834679618255"><ele>39.0</ele><time>2026-04-04T11:45:36Z</time></trkpt><trkpt lat="41.23132771238802" lon="13.528581272784526"><ele>39.0</ele><time>2026-04-04T11:45:37Z</time></trkpt><trkpt lat="41.23138224088948" lon="13.52835534586408"><ele>39.333333333333336</ele><time>2026-04-04T11:45:38Z</time></trkpt><trkpt lat="41.231430018769096" lon="13.528147451638253"><ele>39.66666666666667</ele><time>2026-04-04T11:45:39Z</time></trkpt><trkpt lat="41.23147492155117" lon="13.5279606141763"><ele>40.0</ele><time>2026-04-04T11:45:40Z</time></trkpt><trkpt lat="41.23151526417812" lon="13.527772330182115"><ele>39.0</ele><time>2026-04-04T11:45:41Z</time></trkpt><trkpt lat="41.2315410900245" lon="13.527567969278504"><ele>38.0</ele><time>2026-04-04T11:45:42Z</time></trkpt><trkpt lat="41.23155257305841" lon="13.527376479181672"><ele>37.0</ele><time>2026-04-04T11:45:43Z</time></trkpt><trkpt lat="41.23155813105527" lon="13.52720435738827"><ele>36.0</ele><time>2026-04-04T11:45:44Z</time></trkpt><trkpt lat="41.231568730889066" lon="13.527045910498988"><ele>35.5</ele><time>2026-04-04T11:45:45Z</time></trkpt><trkpt lat="41.231589383582325" lon="13.526881135391527"><ele>35.0</ele><time>2026-04-04T11:45:46Z</time></trkpt><trkpt lat="41.23162210871163" lon="13.526712340355749"><ele>34.5</ele><time>2026-04-04T11:45:47Z</time></trkpt><trkpt lat="41.23165583077041" lon="13.526542363897553"><ele>34.0</ele><time>2026-04-04T11:45:48Z</time></trkpt><trkpt lat="41.231688705123155" lon="13.526371743584978"><ele>35.0</ele><time>2026-04-04T11:45:49Z</time></trkpt><trkpt lat="41.231731815074596" lon="13.526185825930249"><ele>36.0</ele><time>2026-04-04T11:45:50Z</time></trkpt><trkpt lat="41.23179085666205" lon="13.525973589100808"><ele>37.0</ele><time>2026-04-04T11:45:51Z</time></trkpt><trkpt lat="41.231856103864715" lon="13.525743397328798"><ele>37.0</ele><time>2026-04-04T11:45:52Z</time></trkpt><trkpt lat="41.23192664220163" lon="13.525498558156029"><ele>37.0</ele><time>2026-04-04T11:45:53Z</time></trkpt><trkpt lat="41.23199901050681" lon="13.525251170540972"><ele>37.0</ele><time>2026-04-04T11:45:54Z</time></trkpt><trkpt lat="41.23208016238775" lon="13.524998724015997"><ele>37.66666666666667</ele><time>2026-04-04T11:45:55Z</time></trkpt><trkpt lat="41.232166189905435" lon="13.524745027841677"><ele>38.333333333333336</ele><time>2026-04-04T11:45:56Z</time></trkpt><trkpt lat="41.23224917234769" lon="13.52449073860227"><ele>39.0</ele><time>2026-04-04T11:45:57Z</time></trkpt><trkpt lat="41.232326794797906" lon="13.524241058156075"><ele>37.333333333333336</ele><time>2026-04-04T11:45:58Z</time></trkpt><trkpt lat="41.232401811387426" lon="13.523993560258193"><ele>35.66666666666667</ele><time>2026-04-04T11:45:59Z</time></trkpt><trkpt lat="41.23247837767752" lon="13.523735498825708"><ele>34.0</ele><time>2026-04-04T11:46:00Z</time></trkpt><trkpt lat="41.23255357039762" lon="13.523472288085987"><ele>34.0</ele><time>2026-04-04T11:46:01Z</time></trkpt><trkpt lat="41.23263075373526" lon="13.523188034657947"><ele>34.0</ele><time>2026-04-04T11:46:02Z</time></trkpt><trkpt lat="41.232711370580326" lon="13.522877724270618"><ele>37.0</ele><time>2026-04-04T11:46:03Z</time></trkpt><trkpt lat="41.23279716697143" lon="13.522613822675451"><ele>40.0</ele><time>2026-04-04T11:46:04Z</time></trkpt><trkpt lat="41.23287124511079" lon="13.522361621215415"><ele>43.0</ele><time>2026-04-04T11:46:05Z</time></trkpt><trkpt lat="41.23293687861427" lon="13.522110307592852"><ele>45.333333333333336</ele><time>2026-04-04T11:46:06Z</time></trkpt><trkpt lat="41.23299658214899" lon="13.521847991620675"><ele>47.66666666666667</ele><time>2026-04-04T11:46:07Z</time></trkpt><trkpt lat="41.233048618989145" lon="13.52157918227069"><ele>50.0</ele><time>2026-04-04T11:46:08Z</time></trkpt><trkpt lat="41.23309102618705" lon="13.521307005825594"><ele>53.0</ele><time>2026-04-04T11:46:09Z</time></trkpt><trkpt lat="41.233130959177544" lon="13.521038802948981"><ele>56.0</ele><time>2026-04-04T11:46:10Z</time></trkpt><trkpt lat="41.23316629733057" lon="13.520773766979511"><ele>59.0</ele><time>2026-04-04T11:46:11Z</time></trkpt><trkpt lat="41.233201713283435" lon="13.52053056736056"><ele>49.333333333333336</ele><time>2026-04-04T11:46:12Z</time></trkpt><trkpt lat="41.23323569206786" lon="13.520308267319756"><ele>39.66666666666667</ele><time>2026-04-04T11:46:13Z</time></trkpt><trkpt lat="41.233269615137615" lon="13.520101027755633"><ele>30.0</ele><time>2026-04-04T11:46:14Z</time></trkpt><trkpt lat="41.233299324871034" lon="13.51990851246739"><ele>30.0</ele><time>2026-04-04T11:46:15Z</time></trkpt><trkpt lat="41.23330891456659" lon="13.519722514938305"><ele>30.0</ele><time>2026-04-04T11:46:16Z</time></trkpt><trkpt lat="41.23329194613631" lon="13.519551427867913"><ele>30.0</ele><time>2026-04-04T11:46:17Z</time></trkpt><trkpt lat="41.23325512211918" lon="13.519378327539377"><ele>30.0</ele><time>2026-04-04T11:46:18Z</time></trkpt><trkpt lat="41.23324126100225" lon="13.519189601539903"><ele>29.0</ele><time>2026-04-04T11:46:19Z</time></trkpt><trkpt lat="41.23326292533702" lon="13.51899264423589"><ele>28.0</ele><time>2026-04-04T11:46:20Z</time></trkpt><trkpt lat="41.23327051056484" lon="13.518779664365567"><ele>27.0</ele><time>2026-04-04T11:46:21Z</time></trkpt><trkpt lat="41.23322666654581" lon="13.518569087686197"><ele>27.0</ele><time>2026-04-04T11:46:22Z</time></trkpt><trkpt lat="41.233168563983895" lon="13.518361529484594"><ele>27.0</ele><time>2026-04-04T11:46:23Z</time></trkpt><trkpt lat="41.23310926879446" lon="13.518152578892336"><ele>27.0</ele><time>2026-04-04T11:46:24Z</time></trkpt><trkpt lat="41.23304210230896" lon="13.51795039683364"><ele>26.0</ele><time>2026-04-04T11:46:25Z</time></trkpt><trkpt lat="41.23295789729136" lon="13.517760083958237"><ele>25.0</ele><time>2026-04-04T11:46:26Z</time></trkpt><trkpt lat="41.232859341202285" lon="13.517584804132534"><ele>24.0</ele><time>2026-04-04T11:46:27Z</time></trkpt><trkpt lat="41.23275445751639" lon="13.517410668893115"><ele>24.0</ele><time>2026-04-04T11:46:28Z</time></trkpt><trkpt lat="41.23265103891238" lon="13.517231628124401"><ele>24.0</ele><time>2026-04-04T11:46:29Z</time></trkpt><trkpt lat="41.23255225785763" lon="13.517048141626649"><ele>24.0</ele><time>2026-04-04T11:46:30Z</time></trkpt><trkpt lat="41.232454866917976" lon="13.516859179521376"><ele>23.333333333333332</ele><time>2026-04-04T11:46:31Z</time></trkpt><trkpt lat="41.23236499742639" lon="13.516657370642115"><ele>22.666666666666664</ele><time>2026-04-04T11:46:32Z</time></trkpt><trkpt lat="41.232284337516596" lon="13.51644396641835"><ele>22.0</ele><time>2026-04-04T11:46:33Z</time></trkpt><trkpt lat="41.23221082993594" lon="13.516217929732994"><ele>24.333333333333332</ele><time>2026-04-04T11:46:34Z</time></trkpt><trkpt lat="41.23214194499466" lon="13.515981612221019"><ele>26.666666666666664</ele><time>2026-04-04T11:46:35Z</time></trkpt><trkpt lat="41.23207281311441" lon="13.515737852424271"><ele>29.0</ele><time>2026-04-04T11:46:36Z</time></trkpt><trkpt lat="41.23200512759928" lon="13.515491355940437"><ele>27.0</ele><time>2026-04-04T11:46:37Z</time></trkpt><trkpt lat="41.23193782196567" lon="13.51524559372921"><ele>25.0</ele><time>2026-04-04T11:46:38Z</time></trkpt><trkpt lat="41.231870952266185" lon="13.515008072770128"><ele>23.0</ele><time>2026-04-04T11:46:39Z</time></trkpt><trkpt lat="41.2318038836536" lon="13.514773507799493"><ele>22.0</ele><time>2026-04-04T11:46:40Z</time></trkpt><trkpt lat="41.231736006214156" lon="13.514535470135657"><ele>21.0</ele><time>2026-04-04T11:46:41Z</time></trkpt><trkpt lat="41.23166919739963" lon="13.514291987463752"><ele>20.0</ele><time>2026-04-04T11:46:42Z</time></trkpt><trkpt lat="41.23160576094966" lon="13.514063853722948"><ele>20.0</ele><time>2026-04-04T11:46:43Z</time></trkpt><trkpt lat="41.231546458937785" lon="13.513854312304241"><ele>20.0</ele><time>2026-04-04T11:46:44Z</time></trkpt><trkpt lat="41.231489518596625" lon="13.513658611746672"><ele>20.0</ele><time>2026-04-04T11:46:45Z</time></trkpt><trkpt lat="41.231433860061806" lon="13.513467881817245"><ele>19.333333333333336</ele><time>2026-04-04T11:46:46Z</time></trkpt><trkpt lat="41.23137116330978" lon="13.513274956844732"><ele>18.666666666666668</ele><time>2026-04-04T11:46:47Z</time></trkpt><trkpt lat="41.23130287791499" lon="13.513083709309171"><ele>18.0</ele><time>2026-04-04T11:46:48Z</time></trkpt><trkpt lat="41.231233687049645" lon="13.51289614044376"><ele>18.0</ele><time>2026-04-04T11:46:49Z</time></trkpt><trkpt lat="41.231170404918394" lon="13.512724681106558"><ele>18.0</ele><time>2026-04-04T11:46:50Z</time></trkpt><trkpt lat="41.231103069519826" lon="13.512560744836598"><ele>18.0</ele><time>2026-04-04T11:46:51Z</time></trkpt><trkpt lat="41.23102197559288" lon="13.51239129684217"><ele>18.0</ele><time>2026-04-04T11:46:52Z</time></trkpt><trkpt lat="41.23093078604178" lon="13.512205193187297"><ele>18.0</ele><time>2026-04-04T11:46:53Z</time></trkpt><trkpt lat="41.23082776914763" lon="13.512011425680651"><ele>18.0</ele><time>2026-04-04T11:46:54Z</time></trkpt><trkpt lat="41.230722588900676" lon="13.511811337243177"><ele>18.0</ele><time>2026-04-04T11:46:55Z</time></trkpt><trkpt lat="41.23061358774686" lon="13.511609268763253"><ele>17.0</ele><time>2026-04-04T11:46:56Z</time></trkpt><trkpt lat="41.230500314433634" lon="13.51140912142629"><ele>16.0</ele><time>2026-04-04T11:46:57Z</time></trkpt><trkpt lat="41.23039155246958" lon="13.511211198849399"><ele>15.0</ele><time>2026-04-04T11:46:58Z</time></trkpt><trkpt lat="41.23028874172063" lon="13.51102252672528"><ele>13.666666666666666</ele><time>2026-04-04T11:46:59Z</time></trkpt><trkpt lat="41.23018793956536" lon="13.510836171509144"><ele>12.333333333333332</ele><time>2026-04-04T11:47:00Z</time></trkpt><trkpt lat="41.23008562618277" lon="13.510645763817143"><ele>11.0</ele><time>2026-04-04T11:47:01Z</time></trkpt><trkpt lat="41.22997890918101" lon="13.51045495219883"><ele>11.0</ele><time>2026-04-04T11:47:02Z</time></trkpt><trkpt lat="41.229874202778944" lon="13.510260141147398"><ele>11.0</ele><time>2026-04-04T11:47:03Z</time></trkpt><trkpt lat="41.22977023046803" lon="13.510069641199307"><ele>11.0</ele><time>2026-04-04T11:47:04Z</time></trkpt><trkpt lat="41.22967155210514" lon="13.509891521559947"><ele>11.0</ele><time>2026-04-04T11:47:05Z</time></trkpt><trkpt lat="41.22957648321011" lon="13.509716108626145"><ele>11.0</ele><time>2026-04-04T11:47:06Z</time></trkpt><trkpt lat="41.22948436301428" lon="13.509542996088884"><ele>11.0</ele><time>2026-04-04T11:47:07Z</time></trkpt><trkpt lat="41.229394466646475" lon="13.509372851244647"><ele>11.0</ele><time>2026-04-04T11:47:08.001Z</time></trkpt><trkpt lat="41.22931220103195" lon="13.509210467818493"><ele>11.0</ele><time>2026-04-04T11:47:09.001Z</time></trkpt><trkpt lat="41.229232032435135" lon="13.509042129666684"><ele>11.0</ele><time>2026-04-04T11:47:10.001Z</time></trkpt><trkpt lat="41.22916234820561" lon="13.508875586909415"><ele>11.0</ele><time>2026-04-04T11:47:11.001Z</time></trkpt><trkpt lat="41.22910335894098" lon="13.508709905616856"><ele>11.0</ele><time>2026-04-04T11:47:12.001Z</time></trkpt><trkpt lat="41.22904447971748" lon="13.508535419302564"><ele>11.0</ele><time>2026-04-04T11:47:13.001Z</time></trkpt><trkpt lat="41.22898360030034" lon="13.508359952963344"><ele>11.0</ele><time>2026-04-04T11:47:14.001Z</time></trkpt><trkpt lat="41.228923017312596" lon="13.508187824402532"><ele>11.0</ele><time>2026-04-04T11:47:15.001Z</time></trkpt><trkpt lat="41.22886621961119" lon="13.508018480961317"><ele>9.75</ele><time>2026-04-04T11:47:16.001Z</time></trkpt><trkpt lat="41.22881251628499" lon="13.507855628672779"><ele>8.5</ele><time>2026-04-04T11:47:17.001Z</time></trkpt><trkpt lat="41.228758935990406" lon="13.507694330488668"><ele>7.25</ele><time>2026-04-04T11:47:18.001Z</time></trkpt><trkpt lat="41.22870374784994" lon="13.507531703761702"><ele>6.0</ele><time>2026-04-04T11:47:19.001Z</time></trkpt><trkpt lat="41.22864580422723" lon="13.507366992609814"><ele>6.0</ele><time>2026-04-04T11:47:20.001Z</time></trkpt><trkpt lat="41.22858655364549" lon="13.507198383913567"><ele>6.0</ele><time>2026-04-04T11:47:21.001Z</time></trkpt><trkpt lat="41.22852445720274" lon="13.507028670313982"><ele>6.0</ele><time>2026-04-04T11:47:22.001Z</time></trkpt><trkpt lat="41.2284597116144" lon="13.506851480267283"><ele>6.0</ele><time>2026-04-04T11:47:23.001Z</time></trkpt><trkpt lat="41.2283940271759" lon="13.50666531082642"><ele>5.5</ele><time>2026-04-04T11:47:24.001Z</time></trkpt><trkpt lat="41.228331038641684" lon="13.506482912120736"><ele>5.0</ele><time>2026-04-04T11:47:25Z</time></trkpt><trkpt lat="41.22827492872094" lon="13.50631595559708"><ele>4.5</ele><time>2026-04-04T11:47:26Z</time></trkpt><trkpt lat="41.22822156138364" lon="13.506154186159991"><ele>4.0</ele><time>2026-04-04T11:47:27Z</time></trkpt><trkpt lat="41.22817102260477" lon="13.506005090580812"><ele>3.5</ele><time>2026-04-04T11:47:28Z</time></trkpt><trkpt lat="41.22812110793684" lon="13.505859904050322"><ele>3.0</ele><time>2026-04-04T11:47:29Z</time></trkpt><trkpt lat="41.22806882303868" lon="13.505712884064835"><ele>2.5</ele><time>2026-04-04T11:47:30Z</time></trkpt><trkpt lat="41.22801804648098" lon="13.505561539123232"><ele>2.0</ele><time>2026-04-04T11:47:31Z</time></trkpt><trkpt lat="41.22796769251494" lon="13.505443063419364"><ele>2.25</ele><time>2026-04-04T11:47:32Z</time></trkpt><trkpt lat="41.22791614124621" lon="13.505296041569535"><ele>2.5</ele><time>2026-04-04T11:47:33Z</time></trkpt><trkpt lat="41.22786933215259" lon="13.505141975172668"><ele>2.75</ele><time>2026-04-04T11:47:34Z</time></trkpt><trkpt lat="41.22781722647367" lon="13.504983062708856"><ele>3.0</ele><time>2026-04-04T11:47:35Z</time></trkpt><trkpt lat="41.22776804246255" lon="13.504830366801302"><ele>3.0</ele><time>2026-04-04T11:47:36Z</time></trkpt><trkpt lat="41.22773246603416" lon="13.504690358910066"><ele>3.0</ele><time>2026-04-04T11:47:37Z</time></trkpt><trkpt lat="41.22771008608771" lon="13.504544912298632"><ele>3.0</ele><time>2026-04-04T11:47:38Z</time></trkpt><trkpt lat="41.22769150296822" lon="13.504396059783923"><ele>3.0</ele><time>2026-04-04T11:47:39Z</time></trkpt><trkpt lat="41.227676055598096" lon="13.504263808771242"><ele>3.0</ele><time>2026-04-04T11:47:40Z</time></trkpt><trkpt lat="41.22765895223713" lon="13.504143119445233"><ele>3.0</ele><time>2026-04-04T11:47:41Z</time></trkpt><trkpt lat="41.2276454725949" lon="13.504039742071452"><ele>3.0</ele><time>2026-04-04T11:47:42Z</time></trkpt><trkpt lat="41.22763292157741" lon="13.503934247891415"><ele>3.0</ele><time>2026-04-04T11:47:43Z</time></trkpt><trkpt lat="41.227625798955145" lon="13.503836164069295"><ele>3.0</ele><time>2026-04-04T11:47:44Z</time></trkpt><trkpt lat="41.2276015846102" lon="13.50375257745174"><ele>3.0</ele><time>2026-04-04T11:47:45Z</time></trkpt><trkpt lat="41.227582924639016" lon="13.503598317473909"><ele>3.0</ele><time>2026-04-04T11:47:47Z</time></trkpt><trkpt lat="41.22759683992318" lon="13.503508098088046"><ele>3.0</ele><time>2026-04-04T11:47:49Z</time></trkpt><trkpt lat="41.22765278933681" lon="13.503433912217954"><ele>3.0</ele><time>2026-04-04T11:47:51Z</time></trkpt><trkpt lat="41.227690003652484" lon="13.50336032412365"><ele>3.0</ele><time>2026-04-04T11:47:55Z</time></trkpt><trkpt lat="41.22768847453912" lon="13.503218490069152"><ele>3.0</ele><time>2026-04-04T11:47:59Z</time></trkpt><trkpt lat="41.22779873949491" lon="13.503189753971071"><ele>3.0</ele><time>2026-04-04T11:48:00Z</time></trkpt><trkpt lat="41.22785963926596" lon="13.503100715098775"><ele>3.0</ele><time>2026-04-04T11:48:01Z</time></trkpt><trkpt lat="41.22792640331677" lon="13.5029989683272"><ele>3.0</ele><time>2026-04-04T11:48:02Z</time></trkpt><trkpt lat="41.22800174174626" lon="13.502898722429956"><ele>3.0</ele><time>2026-04-04T11:48:03Z</time></trkpt><trkpt lat="41.22808089056901" lon="13.50279391661046"><ele>3.0</ele><time>2026-04-04T11:48:04Z</time></trkpt><trkpt lat="41.22816389373696" lon="13.502678978349186"><ele>3.0</ele><time>2026-04-04T11:48:05Z</time></trkpt><trkpt lat="41.228248606200395" lon="13.502558478204888"><ele>3.0</ele><time>2026-04-04T11:48:06Z</time></trkpt><trkpt lat="41.22833306877973" lon="13.502432326396839"><ele>3.0</ele><time>2026-04-04T11:48:07Z</time></trkpt><trkpt lat="41.22841289891329" lon="13.50230255964145"><ele>3.0</ele><time>2026-04-04T11:48:08Z</time></trkpt><trkpt lat="41.22848625893003" lon="13.502179438503536"><ele>3.0</ele><time>2026-04-04T11:48:09Z</time></trkpt><trkpt lat="41.22855736030234" lon="13.502057649809503"><ele>3.25</ele><time>2026-04-04T11:48:10Z</time></trkpt><trkpt lat="41.22862862177443" lon="13.501931225973674"><ele>3.5</ele><time>2026-04-04T11:48:11Z</time></trkpt><trkpt lat="41.2286951241256" lon="13.501809210463092"><ele>3.75</ele><time>2026-04-04T11:48:12Z</time></trkpt><trkpt lat="41.228763401316456" lon="13.501682254838459"><ele>4.0</ele><time>2026-04-04T11:48:13Z</time></trkpt><trkpt lat="41.22882900504286" lon="13.501551335484086"><ele>4.0</ele><time>2026-04-04T11:48:14Z</time></trkpt><trkpt lat="41.228896345109426" lon="13.501421392496614"><ele>4.0</ele><time>2026-04-04T11:48:15Z</time></trkpt><trkpt lat="41.228966744645625" lon="13.501283978549083"><ele>4.0</ele><time>2026-04-04T11:48:16Z</time></trkpt><trkpt lat="41.229038332067894" lon="13.5011463764237"><ele>4.0</ele><time>2026-04-04T11:48:17Z</time></trkpt><trkpt lat="41.22910602724286" lon="13.501009736100828"><ele>4.2</ele><time>2026-04-04T11:48:18Z</time></trkpt><trkpt lat="41.22916851646076" lon="13.500884802413525"><ele>4.4</ele><time>2026-04-04T11:48:19Z</time></trkpt><trkpt lat="41.229227873909075" lon="13.500772865376861"><ele>4.6</ele><time>2026-04-04T11:48:20Z</time></trkpt><trkpt lat="41.22928356497695" lon="13.500666788750914"><ele>4.8</ele><time>2026-04-04T11:48:21Z</time></trkpt><trkpt lat="41.22934182811308" lon="13.500551585449942"><ele>5.0</ele><time>2026-04-04T11:48:22Z</time></trkpt><trkpt lat="41.22940324566459" lon="13.500430290960777"><ele>5.0</ele><time>2026-04-04T11:48:23Z</time></trkpt><trkpt lat="41.22946674766877" lon="13.500304519390546"><ele>5.0</ele><time>2026-04-04T11:48:24Z</time></trkpt><trkpt lat="41.22953194916671" lon="13.500172526423189"><ele>5.0</ele><time>2026-04-04T11:48:25Z</time></trkpt><trkpt lat="41.22959894738074" lon="13.500041918041834"><ele>5.0</ele><time>2026-04-04T11:48:26Z</time></trkpt><trkpt lat="41.22966624126384" lon="13.499911892493236"><ele>5.0</ele><time>2026-04-04T11:48:27Z</time></trkpt><trkpt lat="41.22973157382807" lon="13.499783520415944"><ele>5.0</ele><time>2026-04-04T11:48:28Z</time></trkpt><trkpt lat="41.22979497397543" lon="13.49965978842195"><ele>5.0</ele><time>2026-04-04T11:48:29Z</time></trkpt><trkpt lat="41.229856588269584" lon="13.499542590049877"><ele>5.0</ele><time>2026-04-04T11:48:30Z</time></trkpt><trkpt lat="41.22991656227107" lon="13.499425180891253"><ele>5.0</ele><time>2026-04-04T11:48:31Z</time></trkpt><trkpt lat="41.2299772096523" lon="13.499303963061099"><ele>4.8</ele><time>2026-04-04T11:48:32Z</time></trkpt><trkpt lat="41.23003962544509" lon="13.499181824512563"><ele>4.6</ele><time>2026-04-04T11:48:33Z</time></trkpt><trkpt lat="41.23010249613712" lon="13.499060689879856"><ele>4.4</ele><time>2026-04-04T11:48:34Z</time></trkpt><trkpt lat="41.230164761809334" lon="13.49894050142266"><ele>4.2</ele><time>2026-04-04T11:48:35Z</time></trkpt><trkpt lat="41.230227164897734" lon="13.498819765053398"><ele>4.0</ele><time>2026-04-04T11:48:36Z</time></trkpt><trkpt lat="41.23029068489179" lon="13.498700233233164"><ele>3.8000000000000003</ele><time>2026-04-04T11:48:37Z</time></trkpt><trkpt lat="41.230353745342384" lon="13.49858208492505"><ele>3.6000000000000005</ele><time>2026-04-04T11:48:38Z</time></trkpt><trkpt lat="41.23041681619312" lon="13.498465731870402"><ele>3.4</ele><time>2026-04-04T11:48:39Z</time></trkpt><trkpt lat="41.230478554775814" lon="13.498352579988103"><ele>3.2</ele><time>2026-04-04T11:48:40Z</time></trkpt><trkpt lat="41.23054002803288" lon="13.49824232042003"><ele>3.0</ele><time>2026-04-04T11:48:41Z</time></trkpt><trkpt lat="41.23059999780841" lon="13.498133295695075"><ele>3.0</ele><time>2026-04-04T11:48:42Z</time></trkpt><trkpt lat="41.23065996112361" lon="13.498024744610978"><ele>3.0</ele><time>2026-04-04T11:48:43Z</time></trkpt><trkpt lat="41.230718989765066" lon="13.497917772849124"><ele>3.0</ele><time>2026-04-04T11:48:44Z</time></trkpt><trkpt lat="41.23077953533796" lon="13.497812820752046"><ele>3.0</ele><time>2026-04-04T11:48:45Z</time></trkpt><trkpt lat="41.2308403243148" lon="13.497708153443856"><ele>3.0</ele><time>2026-04-04T11:48:46Z</time></trkpt><trkpt lat="41.230899729190455" lon="13.497603255771248"><ele>2.8</ele><time>2026-04-04T11:48:47Z</time></trkpt><trkpt lat="41.23095906257738" lon="13.497500777107222"><ele>2.5999999999999996</ele><time>2026-04-04T11:48:48Z</time></trkpt><trkpt lat="41.23102036419136" lon="13.497399217080599"><ele>2.4000000000000004</ele><time>2026-04-04T11:48:49Z</time></trkpt><trkpt lat="41.2310807698093" lon="13.497297540587425"><ele>2.2</ele><time>2026-04-04T11:48:50Z</time></trkpt><trkpt lat="41.23114314724638" lon="13.497196016057783"><ele>2.0</ele><time>2026-04-04T11:48:51Z</time></trkpt><trkpt lat="41.23120497461449" lon="13.497094965898416"><ele>1.8</ele><time>2026-04-04T11:48:52Z</time></trkpt><trkpt lat="41.23126689757242" lon="13.496995722958296"><ele>1.6</ele><time>2026-04-04T11:48:53Z</time></trkpt><trkpt lat="41.231329230757424" lon="13.496897968984184"><ele>1.4000000000000001</ele><time>2026-04-04T11:48:54Z</time></trkpt><trkpt lat="41.23139177989711" lon="13.496795969310604"><ele>1.2000000000000002</ele><time>2026-04-04T11:48:55Z</time></trkpt><trkpt lat="41.231456107030525" lon="13.49668866927273"><ele>1.0</ele><time>2026-04-04T11:48:56Z</time></trkpt><trkpt lat="41.23152454457151" lon="13.496575434506815"><ele>1.0</ele><time>2026-04-04T11:48:57Z</time></trkpt><trkpt lat="41.23159766809348" lon="13.49645699795769"><ele>1.0</ele><time>2026-04-04T11:48:58Z</time></trkpt><trkpt lat="41.23167300969275" lon="13.496335672763992"><ele>1.0</ele><time>2026-04-04T11:48:59Z</time></trkpt><trkpt lat="41.231748425276685" lon="13.49621584806117"><ele>1.0</ele><time>2026-04-04T11:49:00Z</time></trkpt><trkpt lat="41.2318202290042" lon="13.49609838651713"><ele>1.0</ele><time>2026-04-04T11:49:01Z</time></trkpt><trkpt lat="41.231889417230356" lon="13.495986332725279"><ele>1.0</ele><time>2026-04-04T11:49:02Z</time></trkpt><trkpt lat="41.2319573512804" lon="13.495877715304514"><ele>1.0</ele><time>2026-04-04T11:49:03Z</time></trkpt><trkpt lat="41.23202513133359" lon="13.495770592029135"><ele>1.0</ele><time>2026-04-04T11:49:04Z</time></trkpt><trkpt lat="41.23209142799328" lon="13.495661530767974"><ele>1.0</ele><time>2026-04-04T11:49:05Z</time></trkpt><trkpt lat="41.23215743536522" lon="13.495552568853805"><ele>1.0</ele><time>2026-04-04T11:49:06Z</time></trkpt><trkpt lat="41.232223140987905" lon="13.495446218946292"><ele>1.0</ele><time>2026-04-04T11:49:07Z</time></trkpt><trkpt lat="41.23228496556352" lon="13.495346895826993"><ele>1.0</ele><time>2026-04-04T11:49:08Z</time></trkpt><trkpt lat="41.2323435466743" lon="13.495253065597778"><ele>1.0</ele><time>2026-04-04T11:49:09Z</time></trkpt><trkpt lat="41.2323968605139" lon="13.495163590424381"><ele>1.0</ele><time>2026-04-04T11:49:10Z</time></trkpt><trkpt lat="41.23245102479934" lon="13.495072450897558"><ele>1.0</ele><time>2026-04-04T11:49:11Z</time></trkpt><trkpt lat="41.23251171539929" lon="13.49497247347849"><ele>1.0</ele><time>2026-04-04T11:49:12Z</time></trkpt><trkpt lat="41.23257767965089" lon="13.494866458968993"><ele>1.0</ele><time>2026-04-04T11:49:13Z</time></trkpt><trkpt lat="41.23264759520333" lon="13.494752989249125"><ele>1.0</ele><time>2026-04-04T11:49:14Z</time></trkpt><trkpt lat="41.23271863808575" lon="13.494641364980241"><ele>1.0</ele><time>2026-04-04T11:49:15Z</time></trkpt><trkpt lat="41.23279050682076" lon="13.494529321232982"><ele>0.75</ele><time>2026-04-04T11:49:16Z</time></trkpt><trkpt lat="41.232863538509086" lon="13.494417596493843"><ele>0.5</ele><time>2026-04-04T11:49:17Z</time></trkpt><trkpt lat="41.23293606921822" lon="13.494303985238217"><ele>0.25</ele><time>2026-04-04T11:49:18Z</time></trkpt><trkpt lat="41.233008882533724" lon="13.49418946548423"><ele>0.0</ele><time>2026-04-04T11:49:19Z</time></trkpt><trkpt lat="41.233084607661816" lon="13.494074690086112"><ele>0.25</ele><time>2026-04-04T11:49:20Z</time></trkpt><trkpt lat="41.233161618261" lon="13.493958616876224"><ele>0.5</ele><time>2026-04-04T11:49:21Z</time></trkpt><trkpt lat="41.23324234054026" lon="13.493839220365269"><ele>0.75</ele><time>2026-04-04T11:49:22Z</time></trkpt><trkpt lat="41.23332747727295" lon="13.493713889283313"><ele>1.0</ele><time>2026-04-04T11:49:23Z</time></trkpt><trkpt lat="41.2334136478929" lon="13.493589076758475"><ele>1.0</ele><time>2026-04-04T11:49:24Z</time></trkpt><trkpt lat="41.23349737910826" lon="13.493467760849873"><ele>1.0</ele><time>2026-04-04T11:49:25Z</time></trkpt><trkpt lat="41.233582520510005" lon="13.493346414203675"><ele>1.0</ele><time>2026-04-04T11:49:26Z</time></trkpt><trkpt lat="41.23367378145387" lon="13.493221314719726"><ele>1.0</ele><time>2026-04-04T11:49:27Z</time></trkpt><trkpt lat="41.23376875748155" lon="13.4930939345033"><ele>1.0</ele><time>2026-04-04T11:49:28Z</time></trkpt><trkpt lat="41.233868650548075" lon="13.492960277258346"><ele>1.0</ele><time>2026-04-04T11:49:29Z</time></trkpt><trkpt lat="41.23397150296328" lon="13.492820128722174"><ele>1.0</ele><time>2026-04-04T11:49:30Z</time></trkpt><trkpt lat="41.23407672515198" lon="13.49268362597172"><ele>1.0</ele><time>2026-04-04T11:49:31Z</time></trkpt><trkpt lat="41.23418315203412" lon="13.492550097014496"><ele>1.0</ele><time>2026-04-04T11:49:32Z</time></trkpt><trkpt lat="41.23428840155239" lon="13.492419033157056"><ele>1.0</ele><time>2026-04-04T11:49:33Z</time></trkpt><trkpt lat="41.234395162479785" lon="13.492288520803939"><ele>1.0</ele><time>2026-04-04T11:49:34Z</time></trkpt><trkpt lat="41.23450488961965" lon="13.492155062390575"><ele>1.0</ele><time>2026-04-04T11:49:35Z</time></trkpt><trkpt lat="41.234618086411274" lon="13.492017577964072"><ele>1.0</ele><time>2026-04-04T11:49:36Z</time></trkpt><trkpt lat="41.23472370819839" lon="13.491888828527884"><ele>1.0</ele><time>2026-04-04T11:49:37Z</time></trkpt><trkpt lat="41.23482078762187" lon="13.49176993606424"><ele>1.0</ele><time>2026-04-04T11:49:38Z</time></trkpt><trkpt lat="41.234920392173706" lon="13.491648100970412"><ele>1.0</ele><time>2026-04-04T11:49:39Z</time></trkpt><trkpt lat="41.235022059619155" lon="13.49151950149978"><ele>1.0</ele><time>2026-04-04T11:49:40Z</time></trkpt><trkpt lat="41.2351269405645" lon="13.49139233683916"><ele>1.0</ele><time>2026-04-04T11:49:41Z</time></trkpt><trkpt lat="41.23522844831571" lon="13.491269247126331"><ele>1.0</ele><time>2026-04-04T11:49:42Z</time></trkpt><trkpt lat="41.23532771378995" lon="13.491149658583158"><ele>1.0</ele><time>2026-04-04T11:49:43Z</time></trkpt><trkpt lat="41.235427256493004" lon="13.491028721664721"><ele>1.25</ele><time>2026-04-04T11:49:44Z</time></trkpt><trkpt lat="41.23552817134798" lon="13.49090909877172"><ele>1.5</ele><time>2026-04-04T11:49:45Z</time></trkpt><trkpt lat="41.23562453470134" lon="13.490792435551857"><ele>1.75</ele><time>2026-04-04T11:49:46Z</time></trkpt><trkpt lat="41.23570942115884" lon="13.490687075987614"><ele>2.0</ele><time>2026-04-04T11:49:47Z</time></trkpt><trkpt lat="41.23578509430545" lon="13.49059201572896"><ele>2.25</ele><time>2026-04-04T11:49:48Z</time></trkpt><trkpt lat="41.2358584610055" lon="13.490502265909903"><ele>2.5</ele><time>2026-04-04T11:49:49Z</time></trkpt><trkpt lat="41.23593847511675" lon="13.490406765858788"><ele>2.75</ele><time>2026-04-04T11:49:50Z</time></trkpt><trkpt lat="41.23602366915256" lon="13.490301791374376"><ele>3.0</ele><time>2026-04-04T11:49:51Z</time></trkpt><trkpt lat="41.23611483611131" lon="13.490180829498616"><ele>3.0</ele><time>2026-04-04T11:49:52Z</time></trkpt><trkpt lat="41.236212562557654" lon="13.490054751093135"><ele>3.0</ele><time>2026-04-04T11:49:53Z</time></trkpt><trkpt lat="41.23632049897298" lon="13.489919139331514"><ele>3.0</ele><time>2026-04-04T11:49:54Z</time></trkpt><trkpt lat="41.23644747826198" lon="13.489752506732339"><ele>3.666666666666667</ele><time>2026-04-04T11:49:55Z</time></trkpt><trkpt lat="41.2365960636784" lon="13.489562604256804"><ele>4.333333333333334</ele><time>2026-04-04T11:49:56Z</time></trkpt><trkpt lat="41.23674603522947" lon="13.489368949801761"><ele>5.0</ele><time>2026-04-04T11:49:57Z</time></trkpt><trkpt lat="41.23691068243693" lon="13.48913445087321"><ele>5.0</ele><time>2026-04-04T11:49:58Z</time></trkpt><trkpt lat="41.237049550076414" lon="13.488907266775474"><ele>5.0</ele><time>2026-04-04T11:49:59Z</time></trkpt><trkpt lat="41.237159014137916" lon="13.488689496985561"><ele>5.0</ele><time>2026-04-04T11:50:00Z</time></trkpt><trkpt lat="41.23726054133055" lon="13.488477581797104"><ele>8.0</ele><time>2026-04-04T11:50:01Z</time></trkpt><trkpt lat="41.2373531369414" lon="13.488265766982908"><ele>11.0</ele><time>2026-04-04T11:50:02Z</time></trkpt><trkpt lat="41.237434530307276" lon="13.488071774629056"><ele>14.0</ele><time>2026-04-04T11:50:03Z</time></trkpt><trkpt lat="41.23751058648511" lon="13.487873038169594"><ele>14.0</ele><time>2026-04-04T11:50:04Z</time></trkpt><trkpt lat="41.23757484873356" lon="13.48765726291424"><ele>14.0</ele><time>2026-04-04T11:50:05Z</time></trkpt><trkpt lat="41.23763810613119" lon="13.487419035308704"><ele>14.0</ele><time>2026-04-04T11:50:06Z</time></trkpt><trkpt lat="41.23771905903645" lon="13.487174447595024"><ele>12.0</ele><time>2026-04-04T11:50:07Z</time></trkpt><trkpt lat="41.23779815463441" lon="13.486914577533803"><ele>10.0</ele><time>2026-04-04T11:50:08Z</time></trkpt><trkpt lat="41.23787152961506" lon="13.48664153874008"><ele>8.0</ele><time>2026-04-04T11:50:09Z</time></trkpt><trkpt lat="41.23794832804171" lon="13.486333563101798"><ele>6.5</ele><time>2026-04-04T11:50:10Z</time></trkpt><trkpt lat="41.23802735497047" lon="13.48600261545396"><ele>5.0</ele><time>2026-04-04T11:50:11Z</time></trkpt><trkpt lat="41.23809377931618" lon="13.485681179046251"><ele>9.0</ele><time>2026-04-04T11:50:12Z</time></trkpt><trkpt lat="41.238141414318214" lon="13.485353984707139"><ele>13.0</ele><time>2026-04-04T11:50:13Z</time></trkpt><trkpt lat="41.238173526926666" lon="13.4850273507213"><ele>13.0</ele><time>2026-04-04T11:50:14Z</time></trkpt><trkpt lat="41.23819461586368" lon="13.484699803499458"><ele>13.0</ele><time>2026-04-04T11:50:15Z</time></trkpt><trkpt lat="41.238205392080445" lon="13.484370967344411"><ele>16.5</ele><time>2026-04-04T11:50:16Z</time></trkpt><trkpt lat="41.238195268423546" lon="13.48403580389402"><ele>20.0</ele><time>2026-04-04T11:50:17Z</time></trkpt><trkpt lat="41.2381697111839" lon="13.483690697234518"><ele>25.5</ele><time>2026-04-04T11:50:18Z</time></trkpt><trkpt lat="41.23814004123952" lon="13.48334999978604"><ele>31.0</ele><time>2026-04-04T11:50:19Z</time></trkpt><trkpt lat="41.23810301306056" lon="13.483018893039823"><ele>19.0</ele><time>2026-04-04T11:50:20Z</time></trkpt><trkpt lat="41.23806829588364" lon="13.482692885709687"><ele>7.0</ele><time>2026-04-04T11:50:21Z</time></trkpt><trkpt lat="41.238043614353" lon="13.482374230873935"><ele>3.5</ele><time>2026-04-04T11:50:22Z</time></trkpt><trkpt lat="41.238033521718314" lon="13.482052904852159"><ele>0.0</ele><time>2026-04-04T11:50:23Z</time></trkpt><trkpt lat="41.238047022641666" lon="13.481720493832707"><ele>0.0</ele><time>2026-04-04T11:50:24Z</time></trkpt><trkpt lat="41.2380889501702" lon="13.481396959447022"><ele>0.0</ele><time>2026-04-04T11:50:25Z</time></trkpt><trkpt lat="41.23815444410303" lon="13.481100962747787"><ele>0.0</ele><time>2026-04-04T11:50:26Z</time></trkpt><trkpt lat="41.23824126219717" lon="13.480808614288337"><ele>0.0</ele><time>2026-04-04T11:50:27Z</time></trkpt><trkpt lat="41.23834250732143" lon="13.480522571647855"><ele>0.0</ele><time>2026-04-04T11:50:28Z</time></trkpt><trkpt lat="41.23844398932029" lon="13.480261238511472"><ele>0.0</ele><time>2026-04-04T11:50:29Z</time></trkpt><trkpt lat="41.238569339152505" lon="13.480021714498442"><ele>0.0</ele><time>2026-04-04T11:50:30Z</time></trkpt><trkpt lat="41.23867985842882" lon="13.479796662482004"><ele>0.0</ele><time>2026-04-04T11:50:31Z</time></trkpt><trkpt lat="41.23879264592116" lon="13.47959100803766"><ele>0.0</ele><time>2026-04-04T11:50:32Z</time></trkpt><trkpt lat="41.23890064279992" lon="13.479387531732316"><ele>0.0</ele><time>2026-04-04T11:50:33Z</time></trkpt><trkpt lat="41.23900913382593" lon="13.479198126739208"><ele>23.333333333333332</ele><time>2026-04-04T11:50:34Z</time></trkpt><trkpt lat="41.239105364073275" lon="13.479004401089902"><ele>46.666666666666664</ele><time>2026-04-04T11:50:35Z</time></trkpt><trkpt lat="41.23920889068682" lon="13.47881225963154"><ele>70.0</ele><time>2026-04-04T11:50:36Z</time></trkpt><trkpt lat="41.23932103079255" lon="13.47860341077157"><ele>70.0</ele><time>2026-04-04T11:50:37.074Z</time></trkpt><trkpt lat="41.239422505629825" lon="13.478407662068829"><ele>70.0</ele><time>2026-04-04T11:50:38.045Z</time></trkpt><trkpt lat="41.239518366993465" lon="13.478205764469736"><ele>70.0</ele><time>2026-04-04T11:50:39.041Z</time></trkpt><trkpt lat="41.24021771182274" lon="13.47615879782811"><ele>52.0</ele><time>2026-04-04T11:50:48Z</time></trkpt><trkpt lat="41.24028401631633" lon="13.476094453766352"><ele>34.0</ele><time>2026-04-04T11:50:49Z</time></trkpt><trkpt lat="41.240430074444696" lon="13.475853565543458"><ele>16.0</ele><time>2026-04-04T11:50:50Z</time></trkpt><trkpt lat="41.240562741654976" lon="13.475648088760849"><ele>25.666666666666664</ele><time>2026-04-04T11:50:51Z</time></trkpt><trkpt lat="41.24067562268807" lon="13.475440363825411"><ele>35.333333333333336</ele><time>2026-04-04T11:50:52Z</time></trkpt><trkpt lat="41.24073361861236" lon="13.475197836762085"><ele>45.0</ele><time>2026-04-04T11:50:53Z</time></trkpt><trkpt lat="41.24076720379955" lon="13.474966124371232"><ele>45.0</ele><time>2026-04-04T11:50:54Z</time></trkpt><trkpt lat="41.2407998434387" lon="13.474724756383273"><ele>45.0</ele><time>2026-04-04T11:50:55Z</time></trkpt><trkpt lat="41.24080041917959" lon="13.474462300698159"><ele>45.0</ele><time>2026-04-04T11:50:56Z</time></trkpt><trkpt lat="41.24079886685428" lon="13.474184576979388"><ele>64.5</ele><time>2026-04-04T11:50:57Z</time></trkpt><trkpt lat="41.240799636662096" lon="13.47386320862352"><ele>84.0</ele><time>2026-04-04T11:50:58Z</time></trkpt><trkpt lat="41.24079701439014" lon="13.473566463811917"><ele>100.33333333333334</ele><time>2026-04-04T11:50:59Z</time></trkpt><trkpt lat="41.240790218675144" lon="13.473282950328814"><ele>116.66666666666667</ele><time>2026-04-04T11:51:00Z</time></trkpt><trkpt lat="41.240784826837725" lon="13.472979072964401"><ele>133.0</ele><time>2026-04-04T11:51:01.061Z</time></trkpt><trkpt lat="41.240930684153206" lon="13.467082458100563"><ele>105.66666666666667</ele><time>2026-04-04T11:51:20Z</time></trkpt><trkpt lat="41.24090587343552" lon="13.466805402563605"><ele>78.33333333333334</ele><time>2026-04-04T11:51:21Z</time></trkpt><trkpt lat="41.24082308639377" lon="13.466527639064836"><ele>51.0</ele><time>2026-04-04T11:51:22Z</time></trkpt><trkpt lat="41.24077753114342" lon="13.46624347195867"><ele>51.0</ele><time>2026-04-04T11:51:23Z</time></trkpt><trkpt lat="41.24074022198052" lon="13.465998858202411"><ele>51.0</ele><time>2026-04-04T11:51:24Z</time></trkpt><trkpt lat="41.24070568674347" lon="13.465773874690095"><ele>51.0</ele><time>2026-04-04T11:51:25Z</time></trkpt><trkpt lat="41.240681771881626" lon="13.465549409732311"><ele>47.333333333333336</ele><time>2026-04-04T11:51:26Z</time></trkpt><trkpt lat="41.24066448840902" lon="13.465315439307915"><ele>43.66666666666667</ele><time>2026-04-04T11:51:27Z</time></trkpt><trkpt lat="41.24064411010742" lon="13.46509269601864"><ele>40.0</ele><time>2026-04-04T11:51:28Z</time></trkpt><trkpt lat="41.24064840384967" lon="13.464862256083876"><ele>40.0</ele><time>2026-04-04T11:51:29Z</time></trkpt><trkpt lat="41.24068031018399" lon="13.464627248083195"><ele>40.0</ele><time>2026-04-04T11:51:30Z</time></trkpt><trkpt lat="41.24071484500688" lon="13.46439786157378"><ele>40.0</ele><time>2026-04-04T11:51:31Z</time></trkpt><trkpt lat="41.24075817514161" lon="13.464161052459218"><ele>40.333333333333336</ele><time>2026-04-04T11:51:32Z</time></trkpt><trkpt lat="41.240815341031904" lon="13.463933718587953"><ele>40.666666666666664</ele><time>2026-04-04T11:51:33Z</time></trkpt><trkpt lat="41.240861439254324" lon="13.463714641294814"><ele>41.0</ele><time>2026-04-04T11:51:34Z</time></trkpt><trkpt lat="41.24091227661877" lon="13.46352243252502"><ele>41.0</ele><time>2026-04-04T11:51:35Z</time></trkpt><trkpt lat="41.2409573112054" lon="13.463327426826513"><ele>41.0</ele><time>2026-04-04T11:51:36Z</time></trkpt><trkpt lat="41.241007092030586" lon="13.463124519212421"><ele>41.0</ele><time>2026-04-04T11:51:37Z</time></trkpt><trkpt lat="41.2410598678219" lon="13.46291753121934"><ele>37.666666666666664</ele><time>2026-04-04T11:51:38Z</time></trkpt><trkpt lat="41.24111367365978" lon="13.462705970037554"><ele>34.333333333333336</ele><time>2026-04-04T11:51:39Z</time></trkpt><trkpt lat="41.241167727206715" lon="13.46249054764297"><ele>31.0</ele><time>2026-04-04T11:51:40Z</time></trkpt><trkpt lat="41.24122742750347" lon="13.462279608690176"><ele>27.0</ele><time>2026-04-04T11:51:41.063Z</time></trkpt><trkpt lat="41.24129547535263" lon="13.462087946661237"><ele>23.0</ele><time>2026-04-04T11:51:42.064Z</time></trkpt><trkpt lat="41.24137783821951" lon="13.461900725171585"><ele>19.0</ele><time>2026-04-04T11:51:43.068Z</time></trkpt><trkpt lat="41.241456923217704" lon="13.461744217300422"><ele>28.5</ele><time>2026-04-04T11:51:44Z</time></trkpt><trkpt lat="41.24157671480748" lon="13.461603372710256"><ele>38.0</ele><time>2026-04-04T11:51:45Z</time></trkpt><trkpt lat="41.24169081143857" lon="13.461478607363203"><ele>47.5</ele><time>2026-04-04T11:51:46Z</time></trkpt><trkpt lat="41.241803879562035" lon="13.461401669859743"><ele>57.0</ele><time>2026-04-04T11:51:47Z</time></trkpt><trkpt lat="41.241931478451896" lon="13.461331497251319"><ele>44.333333333333336</ele><time>2026-04-04T11:51:48Z</time></trkpt><trkpt lat="41.242049577748766" lon="13.461277139204386"><ele>31.666666666666664</ele><time>2026-04-04T11:51:49Z</time></trkpt><trkpt lat="41.24221966524169" lon="13.461260729459525"><ele>19.0</ele><time>2026-04-04T11:51:50Z</time></trkpt><trkpt lat="41.24237413721472" lon="13.461251000715974"><ele>19.0</ele><time>2026-04-04T11:51:51Z</time></trkpt><trkpt lat="41.24254344210857" lon="13.46123997113225"><ele>19.0</ele><time>2026-04-04T11:51:52Z</time></trkpt><trkpt lat="41.24270680373351" lon="13.46125294934431"><ele>19.0</ele><time>2026-04-04T11:51:53Z</time></trkpt><trkpt lat="41.2428664431817" lon="13.461313948497146"><ele>29.25</ele><time>2026-04-04T11:51:54Z</time></trkpt><trkpt lat="41.243024503462706" lon="13.46134977533378"><ele>39.5</ele><time>2026-04-04T11:51:55Z</time></trkpt><trkpt lat="41.24317293852284" lon="13.461382100284666"><ele>49.75</ele><time>2026-04-04T11:51:56Z</time></trkpt><trkpt lat="41.24330638102927" lon="13.461387516612428"><ele>60.0</ele><time>2026-04-04T11:51:57Z</time></trkpt><trkpt lat="41.24340529776675" lon="13.461351341148173"><ele>60.0</ele><time>2026-04-04T11:51:58Z</time></trkpt><trkpt lat="41.2435535676991" lon="13.461356073699998"><ele>60.0</ele><time>2026-04-04T11:51:59Z</time></trkpt><trkpt lat="41.24371869077066" lon="13.461361344137968"><ele>60.0</ele><time>2026-04-04T11:52:00Z</time></trkpt><trkpt lat="41.24388681108501" lon="13.461342308656905"><ele>54.333333333333336</ele><time>2026-04-04T11:52:01Z</time></trkpt><trkpt lat="41.24406175735353" lon="13.461319056867588"><ele>48.66666666666667</ele><time>2026-04-04T11:52:02Z</time></trkpt><trkpt lat="41.24423707873436" lon="13.461287986915213"><ele>43.0</ele><time>2026-04-04T11:52:03Z</time></trkpt><trkpt lat="41.24441196840509" lon="13.461222960762138"><ele>44.333333333333336</ele><time>2026-04-04T11:52:04Z</time></trkpt><trkpt lat="41.24457505426673" lon="13.461127614350804"><ele>45.666666666666664</ele><time>2026-04-04T11:52:05Z</time></trkpt><trkpt lat="41.24473338765" lon="13.460988876592149"><ele>47.0</ele><time>2026-04-04T11:52:06Z</time></trkpt><trkpt lat="41.24487675046963" lon="13.460819213951694"><ele>47.0</ele><time>2026-04-04T11:52:07Z</time></trkpt><trkpt lat="41.245001218793206" lon="13.46063608752862"><ele>47.0</ele><time>2026-04-04T11:52:08Z</time></trkpt><trkpt lat="41.24512536815985" lon="13.460445621175458"><ele>47.0</ele><time>2026-04-04T11:52:09Z</time></trkpt><trkpt lat="41.245241399917894" lon="13.46026303125135"><ele>42.666666666666664</ele><time>2026-04-04T11:52:10Z</time></trkpt><trkpt lat="41.245369275353596" lon="13.460090390698129"><ele>38.333333333333336</ele><time>2026-04-04T11:52:11Z</time></trkpt><trkpt lat="41.24551528088284" lon="13.459926355550339"><ele>34.0</ele><time>2026-04-04T11:52:12Z</time></trkpt><trkpt lat="41.245682345106474" lon="13.459815461186697"><ele>34.0</ele><time>2026-04-04T11:52:13Z</time></trkpt><trkpt lat="41.245849643802785" lon="13.459703556859326"><ele>34.0</ele><time>2026-04-04T11:52:14Z</time></trkpt><trkpt lat="41.246016885879754" lon="13.459591494121613"><ele>34.0</ele><time>2026-04-04T11:52:15Z</time></trkpt><trkpt lat="41.24617490549457" lon="13.459462083071212"><ele>28.0</ele><time>2026-04-04T11:52:16Z</time></trkpt><trkpt lat="41.24634168561481" lon="13.459348910283378"><ele>22.0</ele><time>2026-04-04T11:52:17Z</time></trkpt><trkpt lat="41.246509237337825" lon="13.459211551958543"><ele>16.0</ele><time>2026-04-04T11:52:18Z</time></trkpt><trkpt lat="41.24666630343944" lon="13.459059349040858"><ele>16.0</ele><time>2026-04-04T11:52:19Z</time></trkpt><trkpt lat="41.24681730675133" lon="13.458891212459987"><ele>16.0</ele><time>2026-04-04T11:52:20Z</time></trkpt><trkpt lat="41.24694345865365" lon="13.458731439097145"><ele>16.0</ele><time>2026-04-04T11:52:21Z</time></trkpt><trkpt lat="41.247063035027324" lon="13.458559720794572"><ele>16.0</ele><time>2026-04-04T11:52:22Z</time></trkpt><trkpt lat="41.24718215528552" lon="13.458379838951258"><ele>16.0</ele><time>2026-04-04T11:52:23Z</time></trkpt><trkpt lat="41.247298544269185" lon="13.458188242638082"><ele>16.0</ele><time>2026-04-04T11:52:24Z</time></trkpt><trkpt lat="41.247402779411615" lon="13.457980429473784"><ele>13.0</ele><time>2026-04-04T11:52:25Z</time></trkpt><trkpt lat="41.24749514213006" lon="13.457760759083492"><ele>10.0</ele><time>2026-04-04T11:52:26Z</time></trkpt><trkpt lat="41.247583290193006" lon="13.457532186945155"><ele>7.0</ele><time>2026-04-04T11:52:27Z</time></trkpt><trkpt lat="41.24765839208312" lon="13.457313815200727"><ele>6.333333333333334</ele><time>2026-04-04T11:52:28Z</time></trkpt><trkpt lat="41.24772635856102" lon="13.457089955270705"><ele>5.666666666666667</ele><time>2026-04-04T11:52:29Z</time></trkpt><trkpt lat="41.24779409987577" lon="13.456858639815598"><ele>5.0</ele><time>2026-04-04T11:52:30Z</time></trkpt><trkpt lat="41.24786280596956" lon="13.456630660191424"><ele>5.0</ele><time>2026-04-04T11:52:31Z</time></trkpt><trkpt lat="41.24792733304128" lon="13.456418720257588"><ele>5.0</ele><time>2026-04-04T11:52:32Z</time></trkpt><trkpt lat="41.24799279879616" lon="13.456223370181036"><ele>5.0</ele><time>2026-04-04T11:52:33Z</time></trkpt><trkpt lat="41.24805803627158" lon="13.45602712891593"><ele>6.333333333333334</ele><time>2026-04-04T11:52:34Z</time></trkpt><trkpt lat="41.24812708749132" lon="13.455826921678991"><ele>7.666666666666667</ele><time>2026-04-04T11:52:35Z</time></trkpt><trkpt lat="41.248204478286354" lon="13.455629061080494"><ele>9.0</ele><time>2026-04-04T11:52:36Z</time></trkpt><trkpt lat="41.248290119767034" lon="13.455438288927628"><ele>9.0</ele><time>2026-04-04T11:52:37Z</time></trkpt><trkpt lat="41.248382163293684" lon="13.455254834664517"><ele>9.0</ele><time>2026-04-04T11:52:38Z</time></trkpt><trkpt lat="41.24847787885157" lon="13.455079316373121"><ele>9.0</ele><time>2026-04-04T11:52:39Z</time></trkpt><trkpt lat="41.248576386312756" lon="13.454917552985846"><ele>9.0</ele><time>2026-04-04T11:52:40Z</time></trkpt><trkpt lat="41.24867782610086" lon="13.45476532700418"><ele>9.0</ele><time>2026-04-04T11:52:41Z</time></trkpt><trkpt lat="41.24878313593976" lon="13.45462406348665"><ele>9.0</ele><time>2026-04-04T11:52:42Z</time></trkpt><trkpt lat="41.24889149300558" lon="13.454492936461591"><ele>9.0</ele><time>2026-04-04T11:52:43Z</time></trkpt><trkpt lat="41.24899486307052" lon="13.454366471341295"><ele>11.25</ele><time>2026-04-04T11:52:44Z</time></trkpt><trkpt lat="41.24909121198105" lon="13.454242060158057"><ele>13.5</ele><time>2026-04-04T11:52:45Z</time></trkpt><trkpt lat="41.249185462938726" lon="13.454117493995964"><ele>15.75</ele><time>2026-04-04T11:52:46Z</time></trkpt><trkpt lat="41.24928084822493" lon="13.453995173600378"><ele>18.0</ele><time>2026-04-04T11:52:47Z</time></trkpt><trkpt lat="41.24937421579711" lon="13.453876392977026"><ele>16.5</ele><time>2026-04-04T11:52:48Z</time></trkpt><trkpt lat="41.24946719243999" lon="13.453758732561557"><ele>15.0</ele><time>2026-04-04T11:52:49Z</time></trkpt><trkpt lat="41.249561566316615" lon="13.45363863212309"><ele>13.5</ele><time>2026-04-04T11:52:50Z</time></trkpt><trkpt lat="41.24965608931737" lon="13.453515112678147"><ele>12.0</ele><time>2026-04-04T11:52:51Z</time></trkpt><trkpt lat="41.2497518836489" lon="13.453389751668633"><ele>18.5</ele><time>2026-04-04T11:52:52Z</time></trkpt><trkpt lat="41.24984935920869" lon="13.453267169316174"><ele>25.0</ele><time>2026-04-04T11:52:53Z</time></trkpt><trkpt lat="41.2499455314085" lon="13.453144794428406"><ele>31.5</ele><time>2026-04-04T11:52:54Z</time></trkpt><trkpt lat="41.250032173539616" lon="13.453014963623504"><ele>38.0</ele><time>2026-04-04T11:52:55Z</time></trkpt><trkpt lat="41.25011621672856" lon="13.452896089948892"><ele>41.5</ele><time>2026-04-04T11:52:56Z</time></trkpt><trkpt lat="41.25020917089122" lon="13.452790310880962"><ele>45.0</ele><time>2026-04-04T11:52:57Z</time></trkpt><trkpt lat="41.25029611612821" lon="13.452677394361324"><ele>48.5</ele><time>2026-04-04T11:52:58Z</time></trkpt><trkpt lat="41.25038139015113" lon="13.452565033212462"><ele>52.0</ele><time>2026-04-04T11:52:59Z</time></trkpt><trkpt lat="41.250457489440294" lon="13.452457117804421"><ele>52.0</ele><time>2026-04-04T11:53:00Z</time></trkpt><trkpt lat="41.25057399702887" lon="13.452400340003077"><ele>52.0</ele><time>2026-04-04T11:53:01Z</time></trkpt><trkpt lat="41.25070719224444" lon="13.452256886887787"><ele>52.0</ele><time>2026-04-04T11:53:02.062Z</time></trkpt><trkpt lat="41.25080619057597" lon="13.452149985493676"><ele>52.0</ele><time>2026-04-04T11:53:03.063Z</time></trkpt><trkpt lat="41.250900735538146" lon="13.452044014276355"><ele>45.0</ele><time>2026-04-04T11:53:04.065Z</time></trkpt><trkpt lat="41.25098126669212" lon="13.45191656576946"><ele>38.0</ele><time>2026-04-04T11:53:05.061Z</time></trkpt><trkpt lat="41.25185231116421" lon="13.450690535397424"><ele>38.0</ele><time>2026-04-04T11:53:16Z</time></trkpt><trkpt lat="41.25193210673145" lon="13.450584700117892"><ele>38.0</ele><time>2026-04-04T11:53:17Z</time></trkpt><trkpt lat="41.25202619014835" lon="13.450491391090575"><ele>38.0</ele><time>2026-04-04T11:53:18Z</time></trkpt><trkpt lat="41.25211271255893" lon="13.450373351286357"><ele>38.0</ele><time>2026-04-04T11:53:19Z</time></trkpt><trkpt lat="41.252190743908436" lon="13.450249355520105"><ele>35.25</ele><time>2026-04-04T11:53:20Z</time></trkpt><trkpt lat="41.252273609906936" lon="13.450131136668851"><ele>32.5</ele><time>2026-04-04T11:53:21Z</time></trkpt><trkpt lat="41.252357446063534" lon="13.450067069385303"><ele>29.75</ele><time>2026-04-04T11:53:22Z</time></trkpt><trkpt lat="41.25244057592433" lon="13.449958944693146"><ele>27.0</ele><time>2026-04-04T11:53:23Z</time></trkpt><trkpt lat="41.25252680196206" lon="13.449850494454406"><ele>27.0</ele><time>2026-04-04T11:53:24Z</time></trkpt><trkpt lat="41.252601635958314" lon="13.449745677292505"><ele>27.000000000000004</ele><time>2026-04-04T11:53:25Z</time></trkpt><trkpt lat="41.252671716934785" lon="13.44965235765963"><ele>27.000000000000004</ele><time>2026-04-04T11:53:26Z</time></trkpt><trkpt lat="41.25274699009756" lon="13.449557043047943"><ele>27.0</ele><time>2026-04-04T11:53:27Z</time></trkpt><trkpt lat="41.252823705405426" lon="13.449459583008926"><ele>27.0</ele><time>2026-04-04T11:53:28Z</time></trkpt><trkpt lat="41.252895883839116" lon="13.449365943206878"><ele>27.200000000000003</ele><time>2026-04-04T11:53:29Z</time></trkpt><trkpt lat="41.25296602264807" lon="13.449269739934783"><ele>27.400000000000002</ele><time>2026-04-04T11:53:30Z</time></trkpt><trkpt lat="41.25303667915312" lon="13.449172874440217"><ele>27.599999999999998</ele><time>2026-04-04T11:53:31Z</time></trkpt><trkpt lat="41.25310685896487" lon="13.449068271853267"><ele>27.799999999999997</ele><time>2026-04-04T11:53:32Z</time></trkpt><trkpt lat="41.253182759587304" lon="13.44896952141911"><ele>28.0</ele><time>2026-04-04T11:53:33Z</time></trkpt><trkpt lat="41.253259779812815" lon="13.448862451721054"><ele>26.0</ele><time>2026-04-04T11:53:34Z</time></trkpt><trkpt lat="41.25333524765377" lon="13.44875337063302"><ele>24.0</ele><time>2026-04-04T11:53:35Z</time></trkpt><trkpt lat="41.25341549596737" lon="13.448638415398685"><ele>22.0</ele><time>2026-04-04T11:53:36Z</time></trkpt><trkpt lat="41.25350301162052" lon="13.448519921002237"><ele>20.0</ele><time>2026-04-04T11:53:37Z</time></trkpt><trkpt lat="41.25359195016284" lon="13.448397704951116"><ele>20.0</ele><time>2026-04-04T11:53:38Z</time></trkpt><trkpt lat="41.25368360604004" lon="13.448270268618833"><ele>20.0</ele><time>2026-04-04T11:53:39Z</time></trkpt><trkpt lat="41.2537794570213" lon="13.448138840788257"><ele>20.0</ele><time>2026-04-04T11:53:40Z</time></trkpt><trkpt lat="41.253879154075165" lon="13.448000252157023"><ele>20.0</ele><time>2026-04-04T11:53:41Z</time></trkpt><trkpt lat="41.25397992138123" lon="13.447860063576103"><ele>20.0</ele><time>2026-04-04T11:53:42Z</time></trkpt><trkpt lat="41.25408629543626" lon="13.447717723420087"><ele>20.0</ele><time>2026-04-04T11:53:43Z</time></trkpt><trkpt lat="41.25419295898639" lon="13.447577877517721"><ele>20.0</ele><time>2026-04-04T11:53:44Z</time></trkpt><trkpt lat="41.25429760170088" lon="13.44744316606137"><ele>20.0</ele><time>2026-04-04T11:53:45Z</time></trkpt><trkpt lat="41.254401291081926" lon="13.447308898789718"><ele>20.0</ele><time>2026-04-04T11:53:46Z</time></trkpt><trkpt lat="41.25451014356858" lon="13.447180426993432"><ele>20.0</ele><time>2026-04-04T11:53:47Z</time></trkpt><trkpt lat="41.25462223921369" lon="13.447051016310539"><ele>20.0</ele><time>2026-04-04T11:53:48Z</time></trkpt><trkpt lat="41.2547361301822" lon="13.446928572057407"><ele>20.0</ele><time>2026-04-04T11:53:49Z</time></trkpt><trkpt lat="41.2548536442761" lon="13.446801064218562"><ele>21.0</ele><time>2026-04-04T11:53:50Z</time></trkpt><trkpt lat="41.254978348432424" lon="13.446670872938178"><ele>22.0</ele><time>2026-04-04T11:53:51Z</time></trkpt><trkpt lat="41.25511106316009" lon="13.44653003868097"><ele>23.0</ele><time>2026-04-04T11:53:52Z</time></trkpt><trkpt lat="41.25525193563941" lon="13.446379734732925"><ele>24.0</ele><time>2026-04-04T11:53:53Z</time></trkpt><trkpt lat="41.255399157965414" lon="13.446224006644343"><ele>25.0</ele><time>2026-04-04T11:53:54Z</time></trkpt><trkpt lat="41.25555023024038" lon="13.446061857417027"><ele>26.0</ele><time>2026-04-04T11:53:55Z</time></trkpt><trkpt lat="41.25570387536772" lon="13.445899752642813"><ele>26.0</ele><time>2026-04-04T11:53:56Z</time></trkpt><trkpt lat="41.255863609721786" lon="13.445727199768758"><ele>26.0</ele><time>2026-04-04T11:53:57Z</time></trkpt><trkpt lat="41.25602415482827" lon="13.445554672446505"><ele>26.0</ele><time>2026-04-04T11:53:58Z</time></trkpt><trkpt lat="41.256185712756285" lon="13.445384933443526"><ele>27.666666666666664</ele><time>2026-04-04T11:53:59Z</time></trkpt><trkpt lat="41.25634996366215" lon="13.445208880490286"><ele>29.333333333333336</ele><time>2026-04-04T11:54:00Z</time></trkpt><trkpt lat="41.25652189274336" lon="13.445027168053906"><ele>31.0</ele><time>2026-04-04T11:54:01Z</time></trkpt><trkpt lat="41.25670032223752" lon="13.4448248606101"><ele>31.0</ele><time>2026-04-04T11:54:02Z</time></trkpt><trkpt lat="41.25687687476873" lon="13.444643005737596"><ele>31.0</ele><time>2026-04-04T11:54:03Z</time></trkpt><trkpt lat="41.2570444045935" lon="13.444455980111668"><ele>31.0</ele><time>2026-04-04T11:54:04Z</time></trkpt><trkpt lat="41.25720556971251" lon="13.444276388260649"><ele>31.333333333333336</ele><time>2026-04-04T11:54:05Z</time></trkpt><trkpt lat="41.25735093346123" lon="13.444116436432097"><ele>31.666666666666664</ele><time>2026-04-04T11:54:06Z</time></trkpt><trkpt lat="41.257484371679666" lon="13.443963895233873"><ele>32.0</ele><time>2026-04-04T11:54:07Z</time></trkpt><trkpt lat="41.25760593865517" lon="13.44381908800083"><ele>29.0</ele><time>2026-04-04T11:54:08Z</time></trkpt><trkpt lat="41.2577204044214" lon="13.443681710752282"><ele>26.0</ele><time>2026-04-04T11:54:09Z</time></trkpt><trkpt lat="41.257828892049446" lon="13.443533492375032"><ele>23.0</ele><time>2026-04-04T11:54:10Z</time></trkpt><trkpt lat="41.25793200178308" lon="13.44337642208742"><ele>23.0</ele><time>2026-04-04T11:54:11Z</time></trkpt><trkpt lat="41.258025998111414" lon="13.44321179777747"><ele>23.0</ele><time>2026-04-04T11:54:12Z</time></trkpt><trkpt lat="41.2581130128763" lon="13.443036485753161"><ele>23.0</ele><time>2026-04-04T11:54:13Z</time></trkpt><trkpt lat="41.25819389170222" lon="13.442847099520918"><ele>27.333333333333336</ele><time>2026-04-04T11:54:14Z</time></trkpt><trkpt lat="41.258265885996664" lon="13.442654384275322"><ele>31.666666666666668</ele><time>2026-04-04T11:54:15Z</time></trkpt><trkpt lat="41.258325079658746" lon="13.442453326899967"><ele>36.0</ele><time>2026-04-04T11:54:16Z</time></trkpt><trkpt lat="41.25837556439448" lon="13.442236927196229"><ele>35.333333333333336</ele><time>2026-04-04T11:54:17Z</time></trkpt><trkpt lat="41.25841968263114" lon="13.44200761720337"><ele>34.66666666666667</ele><time>2026-04-04T11:54:18Z</time></trkpt><trkpt lat="41.25844351740709" lon="13.441722529734866"><ele>34.0</ele><time>2026-04-04T11:54:19Z</time></trkpt><trkpt lat="41.25845520221446" lon="13.441413899853352"><ele>33.5</ele><time>2026-04-04T11:54:20Z</time></trkpt><trkpt lat="41.25846694941468" lon="13.44110199075774"><ele>33.0</ele><time>2026-04-04T11:54:21Z</time></trkpt><trkpt lat="41.258464128609575" lon="13.440799065335735"><ele>33.0</ele><time>2026-04-04T11:54:22Z</time></trkpt><trkpt lat="41.25846611803821" lon="13.440521719483582"><ele>33.0</ele><time>2026-04-04T11:54:23Z</time></trkpt><trkpt lat="41.25847443914019" lon="13.440268948231097"><ele>33.0</ele><time>2026-04-04T11:54:24Z</time></trkpt><trkpt lat="41.25849553337038" lon="13.440034307964272"><ele>33.0</ele><time>2026-04-04T11:54:25Z</time></trkpt><trkpt lat="41.25853433208477" lon="13.43982635562337"><ele>33.0</ele><time>2026-04-04T11:54:26Z</time></trkpt><trkpt lat="41.258588753472196" lon="13.439631981683624"><ele>33.0</ele><time>2026-04-04T11:54:27Z</time></trkpt><trkpt lat="41.25866061051156" lon="13.439435305172712"><ele>31.333333333333336</ele><time>2026-04-04T11:54:28Z</time></trkpt><trkpt lat="41.25875076444911" lon="13.439257697610117"><ele>29.666666666666668</ele><time>2026-04-04T11:54:29Z</time></trkpt><trkpt lat="41.258854767848405" lon="13.439100034741802"><ele>28.0</ele><time>2026-04-04T11:54:30Z</time></trkpt><trkpt lat="41.25896982939455" lon="13.438969239834767"><ele>33.66666666666667</ele><time>2026-04-04T11:54:31Z</time></trkpt><trkpt lat="41.25909000666969" lon="13.438849801407404"><ele>39.333333333333336</ele><time>2026-04-04T11:54:32Z</time></trkpt><trkpt lat="41.25922147867553" lon="13.438753974687252"><ele>45.0</ele><time>2026-04-04T11:54:33Z</time></trkpt><trkpt lat="41.25936286602244" lon="13.438664028031505"><ele>45.0</ele><time>2026-04-04T11:54:34Z</time></trkpt><trkpt lat="41.259518474811465" lon="13.438619545546493"><ele>45.0</ele><time>2026-04-04T11:54:35Z</time></trkpt><trkpt lat="41.259669703602334" lon="13.438582401845574"><ele>45.0</ele><time>2026-04-04T11:54:36Z</time></trkpt><trkpt lat="41.25981399700214" lon="13.438546476147703"><ele>50.66666666666667</ele><time>2026-04-04T11:54:37Z</time></trkpt><trkpt lat="41.25996441250325" lon="13.438578847756478"><ele>56.333333333333336</ele><time>2026-04-04T11:54:38Z</time></trkpt><trkpt lat="41.26011816698666" lon="13.438600173593738"><ele>62.0</ele><time>2026-04-04T11:54:39Z</time></trkpt><trkpt lat="41.26027787857174" lon="13.4386442667243"><ele>62.0</ele><time>2026-04-04T11:54:40Z</time></trkpt><trkpt lat="41.26045200142874" lon="13.438710641928642"><ele>62.0</ele><time>2026-04-04T11:54:41Z</time></trkpt><trkpt lat="41.26064858172093" lon="13.438797915848493"><ele>62.0</ele><time>2026-04-04T11:54:42Z</time></trkpt><trkpt lat="41.26085184896175" lon="13.438899215549421"><ele>59.66666666666667</ele><time>2026-04-04T11:54:43Z</time></trkpt><trkpt lat="41.261044336593855" lon="13.438996431587608"><ele>57.33333333333333</ele><time>2026-04-04T11:54:44Z</time></trkpt><trkpt lat="41.261231244418234" lon="13.439061535678395"><ele>55.0</ele><time>2026-04-04T11:54:45Z</time></trkpt><trkpt lat="41.26141673236185" lon="13.43912343804283"><ele>51.0</ele><time>2026-04-04T11:54:46Z</time></trkpt><trkpt lat="41.261610410996525" lon="13.439159894814056"><ele>47.0</ele><time>2026-04-04T11:54:47Z</time></trkpt><trkpt lat="41.26180664084458" lon="13.43916346447137"><ele>43.0</ele><time>2026-04-04T11:54:48Z</time></trkpt><trkpt lat="41.26199158679267" lon="13.439140594517605"><ele>43.0</ele><time>2026-04-04T11:54:49Z</time></trkpt><trkpt lat="41.26216622135728" lon="13.439098315576599"><ele>43.0</ele><time>2026-04-04T11:54:50Z</time></trkpt><trkpt lat="41.26233259295712" lon="13.439029056871327"><ele>43.0</ele><time>2026-04-04T11:54:51Z</time></trkpt><trkpt lat="41.26249271008353" lon="13.438941617331347"><ele>41.66666666666667</ele><time>2026-04-04T11:54:52Z</time></trkpt><trkpt lat="41.26264626212542" lon="13.438833811168537"><ele>40.333333333333336</ele><time>2026-04-04T11:54:53Z</time></trkpt><trkpt lat="41.26279046843089" lon="13.438703008912164"><ele>39.0</ele><time>2026-04-04T11:54:54Z</time></trkpt><trkpt lat="41.26293010308038" lon="13.438551777313402"><ele>39.0</ele><time>2026-04-04T11:54:55Z</time></trkpt><trkpt lat="41.263064566421136" lon="13.438381585896282"><ele>39.0</ele><time>2026-04-04T11:54:56Z</time></trkpt><trkpt lat="41.263181877272665" lon="13.438196531887948"><ele>39.0</ele><time>2026-04-04T11:54:57Z</time></trkpt><trkpt lat="41.2632858975847" lon="13.437999382149316"><ele>37.666666666666664</ele><time>2026-04-04T11:54:58Z</time></trkpt><trkpt lat="41.26337331502408" lon="13.437783276023891"><ele>36.33333333333333</ele><time>2026-04-04T11:54:59Z</time></trkpt><trkpt lat="41.263436872672436" lon="13.437566830569905"><ele>35.0</ele><time>2026-04-04T11:55:00Z</time></trkpt><trkpt lat="41.2634878547765" lon="13.437339755119268"><ele>33.0</ele><time>2026-04-04T11:55:01Z</time></trkpt><trkpt lat="41.263529997424975" lon="13.437094666006699"><ele>31.0</ele><time>2026-04-04T11:55:02Z</time></trkpt><trkpt lat="41.263562581920176" lon="13.436827225492747"><ele>29.0</ele><time>2026-04-04T11:55:03Z</time></trkpt><trkpt lat="41.26359256435704" lon="13.436515034799184"><ele>28.0</ele><time>2026-04-04T11:55:04Z</time></trkpt><trkpt lat="41.26363665366571" lon="13.43618670140236"><ele>27.0</ele><time>2026-04-04T11:55:05Z</time></trkpt><trkpt lat="41.2636847548429" lon="13.435863410826489"><ele>27.0</ele><time>2026-04-04T11:55:06Z</time></trkpt><trkpt lat="41.263734295630094" lon="13.435540960546511"><ele>27.0</ele><time>2026-04-04T11:55:07Z</time></trkpt><trkpt lat="41.26377983265453" lon="13.4352281706536"><ele>26.0</ele><time>2026-04-04T11:55:08Z</time></trkpt><trkpt lat="41.26382242149352" lon="13.43492612776126"><ele>25.0</ele><time>2026-04-04T11:55:09Z</time></trkpt><trkpt lat="41.26386627176669" lon="13.434628492248153"><ele>24.0</ele><time>2026-04-04T11:55:10Z</time></trkpt><trkpt lat="41.26391648385603" lon="13.434327663292247"><ele>23.0</ele><time>2026-04-04T11:55:11Z</time></trkpt><trkpt lat="41.263971710471765" lon="13.434033720904155"><ele>23.0</ele><time>2026-04-04T11:55:12Z</time></trkpt><trkpt lat="41.26402880235268" lon="13.43374103754521"><ele>23.0</ele><time>2026-04-04T11:55:13Z</time></trkpt><trkpt lat="41.26408593336856" lon="13.433446363489255"><ele>23.0</ele><time>2026-04-04T11:55:14Z</time></trkpt><trkpt lat="41.26414498081532" lon="13.433151118173685"><ele>23.0</ele><time>2026-04-04T11:55:15Z</time></trkpt><trkpt lat="41.26420289248801" lon="13.432857301309914"><ele>21.5</ele><time>2026-04-04T11:55:16Z</time></trkpt><trkpt lat="41.26426184260036" lon="13.432562516253018"><ele>20.0</ele><time>2026-04-04T11:55:17Z</time></trkpt><trkpt lat="41.26432006357261" lon="13.432264147993441"><ele>18.666666666666668</ele><time>2026-04-04T11:55:18Z</time></trkpt><trkpt lat="41.264377241240354" lon="13.43197171145538"><ele>17.333333333333332</ele><time>2026-04-04T11:55:19Z</time></trkpt><trkpt lat="41.26443235481465" lon="13.431719528185"><ele>16.0</ele><time>2026-04-04T11:55:20Z</time></trkpt><trkpt lat="41.26447535629064" lon="13.43151564216807"><ele>16.0</ele><time>2026-04-04T11:55:21Z</time></trkpt><trkpt lat="41.26451674548265" lon="13.431334930499835"><ele>16.0</ele><time>2026-04-04T11:55:22Z</time></trkpt><trkpt lat="41.264557234667734" lon="13.43116461534975"><ele>16.0</ele><time>2026-04-04T11:55:23Z</time></trkpt><trkpt lat="41.26459545990716" lon="13.431002303855673"><ele>16.0</ele><time>2026-04-04T11:55:24Z</time></trkpt><trkpt lat="41.26463273407289" lon="13.430818900970102"><ele>15.333333333333332</ele><time>2026-04-04T11:55:25Z</time></trkpt><trkpt lat="41.26467575969247" lon="13.430617886755375"><ele>14.666666666666668</ele><time>2026-04-04T11:55:26Z</time></trkpt><trkpt lat="41.26472343423853" lon="13.430406271807538"><ele>14.0</ele><time>2026-04-04T11:55:27Z</time></trkpt><trkpt lat="41.26477416477721" lon="13.430185386007299"><ele>12.666666666666668</ele><time>2026-04-04T11:55:28Z</time></trkpt><trkpt lat="41.26482769382123" lon="13.429956875194684"><ele>11.333333333333334</ele><time>2026-04-04T11:55:29Z</time></trkpt><trkpt lat="41.26488485391047" lon="13.429724734556386"><ele>10.0</ele><time>2026-04-04T11:55:30Z</time></trkpt><trkpt lat="41.264944622992225" lon="13.429487186584295"><ele>9.666666666666668</ele><time>2026-04-04T11:55:31Z</time></trkpt><trkpt lat="41.26500965846304" lon="13.429251683274655"><ele>9.333333333333334</ele><time>2026-04-04T11:55:32Z</time></trkpt><trkpt lat="41.26507815348355" lon="13.429018954327077"><ele>9.0</ele><time>2026-04-04T11:55:33Z</time></trkpt><trkpt lat="41.26514755097431" lon="13.428801695980889"><ele>9.0</ele><time>2026-04-04T11:55:34Z</time></trkpt><trkpt lat="41.26521086757101" lon="13.4286011453432"><ele>9.0</ele><time>2026-04-04T11:55:35Z</time></trkpt><trkpt lat="41.26526999555302" lon="13.428412019214372"><ele>9.0</ele><time>2026-04-04T11:55:36Z</time></trkpt><trkpt lat="41.26532670455109" lon="13.428236605919782"><ele>9.0</ele><time>2026-04-04T11:55:37Z</time></trkpt><trkpt lat="41.26538173758599" lon="13.428068393959366"><ele>9.0</ele><time>2026-04-04T11:55:38Z</time></trkpt><trkpt lat="41.265432497324355" lon="13.427914310586244"><ele>9.0</ele><time>2026-04-04T11:55:39Z</time></trkpt><trkpt lat="41.265481128300834" lon="13.427771950534552"><ele>9.0</ele><time>2026-04-04T11:55:40Z</time></trkpt><trkpt lat="41.26552670273356" lon="13.427636972022858"><ele>9.166666666666666</ele><time>2026-04-04T11:55:41Z</time></trkpt><trkpt lat="41.26556935264693" lon="13.427516351167577"><ele>9.333333333333334</ele><time>2026-04-04T11:55:42Z</time></trkpt><trkpt lat="41.26560813804542" lon="13.427407406021485"><ele>9.5</ele><time>2026-04-04T11:55:43Z</time></trkpt><trkpt lat="41.26564578350143" lon="13.427296123680586"><ele>9.666666666666668</ele><time>2026-04-04T11:55:44Z</time></trkpt><trkpt lat="41.26567976788867" lon="13.427192945861306"><ele>9.833333333333334</ele><time>2026-04-04T11:55:45Z</time></trkpt><trkpt lat="41.265710630269936" lon="13.42709788788833"><ele>10.0</ele><time>2026-04-04T11:55:46Z</time></trkpt><trkpt lat="41.265746007301516" lon="13.426999426479398"><ele>9.6</ele><time>2026-04-04T11:55:47Z</time></trkpt><trkpt lat="41.2657885429019" lon="13.426894987892746"><ele>9.2</ele><time>2026-04-04T11:55:48Z</time></trkpt><trkpt lat="41.26583643689996" lon="13.42678600125062"><ele>8.8</ele><time>2026-04-04T11:55:49Z</time></trkpt><trkpt lat="41.26588108494537" lon="13.42666303661487"><ele>8.4</ele><time>2026-04-04T11:55:50Z</time></trkpt><trkpt lat="41.265920139607466" lon="13.426532279369331"><ele>8.0</ele><time>2026-04-04T11:55:51Z</time></trkpt><trkpt lat="41.26596927772378" lon="13.426405643357572"><ele>8.25</ele><time>2026-04-04T11:55:52Z</time></trkpt><trkpt lat="41.266035963195556" lon="13.426278264249897"><ele>8.5</ele><time>2026-04-04T11:55:53Z</time></trkpt><trkpt lat="41.266108573622724" lon="13.426136814919747"><ele>8.75</ele><time>2026-04-04T11:55:54Z</time></trkpt><trkpt lat="41.266185203164994" lon="13.425992506072536"><ele>9.0</ele><time>2026-04-04T11:55:55Z</time></trkpt><trkpt lat="41.266267187136144" lon="13.425842795530814"><ele>9.0</ele><time>2026-04-04T11:55:56Z</time></trkpt><trkpt lat="41.26635118454513" lon="13.425690739905995"><ele>9.0</ele><time>2026-04-04T11:55:57Z</time></trkpt><trkpt lat="41.26642664924582" lon="13.42555733881223"><ele>9.0</ele><time>2026-04-04T11:55:58Z</time></trkpt><trkpt lat="41.26649692007068" lon="13.425438345892752"><ele>9.0</ele><time>2026-04-04T11:55:59Z</time></trkpt><trkpt lat="41.26657081833625" lon="13.425313482050424"><ele>9.25</ele><time>2026-04-04T11:56:00Z</time></trkpt><trkpt lat="41.2666493637398" lon="13.425180729294166"><ele>9.5</ele><time>2026-04-04T11:56:01Z</time></trkpt><trkpt lat="41.26673330836157" lon="13.425046352586444"><ele>9.75</ele><time>2026-04-04T11:56:02Z</time></trkpt><trkpt lat="41.26682438501159" lon="13.424916443529058"><ele>10.0</ele><time>2026-04-04T11:56:03Z</time></trkpt><trkpt lat="41.266917954258155" lon="13.424787350647454"><ele>10.0</ele><time>2026-04-04T11:56:04Z</time></trkpt><trkpt lat="41.267016550704454" lon="13.424654526757667"><ele>10.0</ele><time>2026-04-04T11:56:05Z</time></trkpt><trkpt lat="41.267122043584166" lon="13.424516429663552"><ele>10.0</ele><time>2026-04-04T11:56:06Z</time></trkpt><trkpt lat="41.26723281348372" lon="13.42436919273533"><ele>10.0</ele><time>2026-04-04T11:56:07Z</time></trkpt><trkpt lat="41.267346614083166" lon="13.424216636953444"><ele>10.0</ele><time>2026-04-04T11:56:08Z</time></trkpt><trkpt lat="41.26746243194539" lon="13.42406303608846"><ele>10.0</ele><time>2026-04-04T11:56:09Z</time></trkpt><trkpt lat="41.26757790010253" lon="13.423908949444359"><ele>10.0</ele><time>2026-04-04T11:56:10Z</time></trkpt><trkpt lat="41.26769564059758" lon="13.423750720005927"><ele>10.0</ele><time>2026-04-04T11:56:11Z</time></trkpt><trkpt lat="41.2678217637883" lon="13.42357910675323"><ele>10.0</ele><time>2026-04-04T11:56:12Z</time></trkpt><trkpt lat="41.26795129962731" lon="13.42339261322389"><ele>10.0</ele><time>2026-04-04T11:56:13Z</time></trkpt><trkpt lat="41.268077265316265" lon="13.423191267050703"><ele>11.0</ele><time>2026-04-04T11:56:14Z</time></trkpt><trkpt lat="41.26820162642233" lon="13.422968380574599"><ele>12.0</ele><time>2026-04-04T11:56:15Z</time></trkpt><trkpt lat="41.26834433263407" lon="13.42270342143442"><ele>12.0</ele><time>2026-04-04T11:56:16Z</time></trkpt><trkpt lat="41.268496484567734" lon="13.422428262627921"><ele>12.0</ele><time>2026-04-04T11:56:17Z</time></trkpt><trkpt lat="41.26863877834152" lon="13.422166452321239"><ele>12.5</ele><time>2026-04-04T11:56:18Z</time></trkpt><trkpt lat="41.268778580338186" lon="13.421913327583065"><ele>13.0</ele><time>2026-04-04T11:56:19Z</time></trkpt><trkpt lat="41.26891704691212" lon="13.421674115845498"><ele>13.0</ele><time>2026-04-04T11:56:20Z</time></trkpt><trkpt lat="41.269057883918904" lon="13.421438932037416"><ele>13.0</ele><time>2026-04-04T11:56:21Z</time></trkpt><trkpt lat="41.269203028074365" lon="13.421222597706382"><ele>13.0</ele><time>2026-04-04T11:56:22Z</time></trkpt><trkpt lat="41.269358308444424" lon="13.421010559839443"><ele>13.0</ele><time>2026-04-04T11:56:23Z</time></trkpt><trkpt lat="41.2695229701465" lon="13.42080720167206"><ele>13.0</ele><time>2026-04-04T11:56:24Z</time></trkpt><trkpt lat="41.26969901720683" lon="13.42061202018807"><ele>13.0</ele><time>2026-04-04T11:56:25Z</time></trkpt><trkpt lat="41.26988134414408" lon="13.420425913322001"><ele>13.0</ele><time>2026-04-04T11:56:26Z</time></trkpt><trkpt lat="41.27006656188407" lon="13.420241872689832"><ele>13.0</ele><time>2026-04-04T11:56:27Z</time></trkpt><trkpt lat="41.27025872399414" lon="13.420068468380368"><ele>13.0</ele><time>2026-04-04T11:56:28Z</time></trkpt><trkpt lat="41.270438849935076" lon="13.419914904391689"><ele>13.0</ele><time>2026-04-04T11:56:29Z</time></trkpt><trkpt lat="41.2706102572547" lon="13.419769181074539"><ele>13.0</ele><time>2026-04-04T11:56:30Z</time></trkpt><trkpt lat="41.27077347494803" lon="13.419635889611312"><ele>13.0</ele><time>2026-04-04T11:56:31Z</time></trkpt><trkpt lat="41.27093013772722" lon="13.419503851219451"><ele>13.0</ele><time>2026-04-04T11:56:32Z</time></trkpt><trkpt lat="41.2710837144369" lon="13.419374672497733"><ele>13.0</ele><time>2026-04-04T11:56:33Z</time></trkpt><trkpt lat="41.271232154149295" lon="13.419248995285782"><ele>13.0</ele><time>2026-04-04T11:56:34Z</time></trkpt><trkpt lat="41.27137038833683" lon="13.419130481303183"><ele>13.0</ele><time>2026-04-04T11:56:35Z</time></trkpt><trkpt lat="41.271501289939586" lon="13.419020627707416"><ele>13.0</ele><time>2026-04-04T11:56:36Z</time></trkpt><trkpt lat="41.271624064481074" lon="13.41891526624209"><ele>13.0</ele><time>2026-04-04T11:56:37Z</time></trkpt><trkpt lat="41.27174243553215" lon="13.41881607275355"><ele>13.0</ele><time>2026-04-04T11:56:38Z</time></trkpt><trkpt lat="41.27185274359093" lon="13.418723626479823"><ele>13.0</ele><time>2026-04-04T11:56:39Z</time></trkpt><trkpt lat="41.271956061088744" lon="13.418637399617799"><ele>13.0</ele><time>2026-04-04T11:56:40Z</time></trkpt><trkpt lat="41.27205593796273" lon="13.418557637340447"><ele>13.0</ele><time>2026-04-04T11:56:41Z</time></trkpt><trkpt lat="41.272151433866696" lon="13.418482103187097"><ele>13.0</ele><time>2026-04-04T11:56:42Z</time></trkpt><trkpt lat="41.27224188710766" lon="13.418411528063015"><ele>13.0</ele><time>2026-04-04T11:56:43Z</time></trkpt><trkpt lat="41.272327660526805" lon="13.418343982924636"><ele>13.0</ele><time>2026-04-04T11:56:44Z</time></trkpt><trkpt lat="41.272419519828404" lon="13.418275480057071"><ele>13.0</ele><time>2026-04-04T11:56:45Z</time></trkpt><trkpt lat="41.272514613295634" lon="13.418202956425414"><ele>13.0</ele><time>2026-04-04T11:56:46Z</time></trkpt><trkpt lat="41.272600472803504" lon="13.418136426360416"><ele>13.0</ele><time>2026-04-04T11:56:47Z</time></trkpt><trkpt lat="41.27268437448477" lon="13.418073053672241"><ele>13.0</ele><time>2026-04-04T11:56:48Z</time></trkpt><trkpt lat="41.272772170346485" lon="13.418006118303666"><ele>13.0</ele><time>2026-04-04T11:56:49Z</time></trkpt><trkpt lat="41.272852416714315" lon="13.417945252796764"><ele>13.2</ele><time>2026-04-04T11:56:50Z</time></trkpt><trkpt lat="41.27293623222263" lon="13.417882474256649"><ele>13.4</ele><time>2026-04-04T11:56:51Z</time></trkpt><trkpt lat="41.27302468966607" lon="13.417814370996593"><ele>13.599999999999998</ele><time>2026-04-04T11:56:52Z</time></trkpt><trkpt lat="41.27311420488946" lon="13.417747521283035"><ele>13.799999999999999</ele><time>2026-04-04T11:56:53Z</time></trkpt><trkpt lat="41.27320883135954" lon="13.417677826430692"><ele>14.0</ele><time>2026-04-04T11:56:54Z</time></trkpt><trkpt lat="41.27330645323769" lon="13.417605329342235"><ele>14.0</ele><time>2026-04-04T11:56:55Z</time></trkpt><trkpt lat="41.27341119676808" lon="13.417525427654638"><ele>14.0</ele><time>2026-04-04T11:56:56Z</time></trkpt><trkpt lat="41.27352052401355" lon="13.41744385755173"><ele>14.0</ele><time>2026-04-04T11:56:57Z</time></trkpt><trkpt lat="41.273632861373386" lon="13.41735677694264"><ele>14.0</ele><time>2026-04-04T11:56:58Z</time></trkpt><trkpt lat="41.27375063129718" lon="13.41726686605772"><ele>14.0</ele><time>2026-04-04T11:56:59Z</time></trkpt><trkpt lat="41.273874133174616" lon="13.417169434114488"><ele>14.0</ele><time>2026-04-04T11:57:00Z</time></trkpt><trkpt lat="41.273999826427115" lon="13.417071893886394"><ele>14.0</ele><time>2026-04-04T11:57:01Z</time></trkpt><trkpt lat="41.27413374349007" lon="13.416969471664236"><ele>14.0</ele><time>2026-04-04T11:57:02Z</time></trkpt><trkpt lat="41.27427906188088" lon="13.416858726829437"><ele>14.0</ele><time>2026-04-04T11:57:03Z</time></trkpt><trkpt lat="41.27444010590033" lon="13.41673950531973"><ele>14.0</ele><time>2026-04-04T11:57:04Z</time></trkpt><trkpt lat="41.27462097883415" lon="13.416605910435461"><ele>14.0</ele><time>2026-04-04T11:57:05Z</time></trkpt><trkpt lat="41.27481498265996" lon="13.41645899659562"><ele>13.5</ele><time>2026-04-04T11:57:06Z</time></trkpt><trkpt lat="41.27501989919491" lon="13.416306051565003"><ele>13.0</ele><time>2026-04-04T11:57:07Z</time></trkpt><trkpt lat="41.27525281663561" lon="13.41613788723002"><ele>13.0</ele><time>2026-04-04T11:57:08Z</time></trkpt><trkpt lat="41.275492454744956" lon="13.415960928791009"><ele>13.0</ele><time>2026-04-04T11:57:09Z</time></trkpt><trkpt lat="41.27571351741374" lon="13.415794775577394"><ele>13.5</ele><time>2026-04-04T11:57:10Z</time></trkpt><trkpt lat="41.27592610778578" lon="13.41562282722319"><ele>14.0</ele><time>2026-04-04T11:57:11Z</time></trkpt><trkpt lat="41.276134087559925" lon="13.415447068180175"><ele>14.0</ele><time>2026-04-04T11:57:12Z</time></trkpt><trkpt lat="41.27633234899131" lon="13.415251134287992"><ele>14.0</ele><time>2026-04-04T11:57:13Z</time></trkpt><trkpt lat="41.2765304777212" lon="13.415036983922516"><ele>14.0</ele><time>2026-04-04T11:57:14Z</time></trkpt><trkpt lat="41.27672355756775" lon="13.414809701123236"><ele>14.0</ele><time>2026-04-04T11:57:15Z</time></trkpt><trkpt lat="41.27691476118742" lon="13.414569752952753"><ele>14.0</ele><time>2026-04-04T11:57:16Z</time></trkpt><trkpt lat="41.277103125665896" lon="13.414321852133257"><ele>14.0</ele><time>2026-04-04T11:57:17Z</time></trkpt><trkpt lat="41.27729416106298" lon="13.414064436219986"><ele>14.0</ele><time>2026-04-04T11:57:18Z</time></trkpt><trkpt lat="41.27748567069329" lon="13.413795765984915"><ele>14.0</ele><time>2026-04-04T11:57:19Z</time></trkpt><trkpt lat="41.277683451356864" lon="13.413516568240814"><ele>14.0</ele><time>2026-04-04T11:57:20Z</time></trkpt><trkpt lat="41.277894070593305" lon="13.413224889407168"><ele>14.0</ele><time>2026-04-04T11:57:21Z</time></trkpt><trkpt lat="41.278114625469904" lon="13.412920266066104"><ele>13.5</ele><time>2026-04-04T11:57:22Z</time></trkpt><trkpt lat="41.2783204846726" lon="13.412635802402699"><ele>13.0</ele><time>2026-04-04T11:57:23Z</time></trkpt><trkpt lat="41.278508601259404" lon="13.412376058676882"><ele>12.5</ele><time>2026-04-04T11:57:24Z</time></trkpt><trkpt lat="41.278689665187144" lon="13.412126186924123"><ele>12.0</ele><time>2026-04-04T11:57:25Z</time></trkpt><trkpt lat="41.27887113151499" lon="13.411876359694034"><ele>13.5</ele><time>2026-04-04T11:57:26Z</time></trkpt><trkpt lat="41.279051717073656" lon="13.411629336736727"><ele>15.0</ele><time>2026-04-04T11:57:27Z</time></trkpt><trkpt lat="41.279230104539806" lon="13.411381660217709"><ele>14.0</ele><time>2026-04-04T11:57:28Z</time></trkpt><trkpt lat="41.27940658959462" lon="13.411136392777033"><ele>13.0</ele><time>2026-04-04T11:57:29Z</time></trkpt><trkpt lat="41.27957457508864" lon="13.410904382484329"><ele>13.0</ele><time>2026-04-04T11:57:30Z</time></trkpt><trkpt lat="41.279720571969804" lon="13.41069996964093"><ele>13.0</ele><time>2026-04-04T11:57:31Z</time></trkpt><trkpt lat="41.27985198439183" lon="13.410510129544166"><ele>13.0</ele><time>2026-04-04T11:57:32Z</time></trkpt><trkpt lat="41.279980987471724" lon="13.410326770636017"><ele>12.666666666666666</ele><time>2026-04-04T11:57:33Z</time></trkpt><trkpt lat="41.28010947181334" lon="13.41013837268206"><ele>12.333333333333332</ele><time>2026-04-04T11:57:34Z</time></trkpt><trkpt lat="41.280228949834196" lon="13.409958725454171"><ele>12.0</ele><time>2026-04-04T11:57:35Z</time></trkpt><trkpt lat="41.2803429616699" lon="13.4097772070375"><ele>12.0</ele><time>2026-04-04T11:57:36Z</time></trkpt><trkpt lat="41.28044661386336" lon="13.409600569765688"><ele>12.0</ele><time>2026-04-04T11:57:37Z</time></trkpt><trkpt lat="41.28055552558866" lon="13.409409951763678"><ele>12.0</ele><time>2026-04-04T11:57:38Z</time></trkpt><trkpt lat="41.28066674027017" lon="13.409204815652648"><ele>12.0</ele><time>2026-04-04T11:57:39Z</time></trkpt><trkpt lat="41.28076858221042" lon="13.409017473842034"><ele>12.0</ele><time>2026-04-04T11:57:40Z</time></trkpt><trkpt lat="41.28085963542247" lon="13.408839306962093"><ele>12.0</ele><time>2026-04-04T11:57:41Z</time></trkpt><trkpt lat="41.280941895924215" lon="13.408671333185328"><ele>11.0</ele><time>2026-04-04T11:57:42Z</time></trkpt><trkpt lat="41.28102432054168" lon="13.408492610710487"><ele>10.0</ele><time>2026-04-04T11:57:43Z</time></trkpt><trkpt lat="41.28111318229782" lon="13.408284887308325"><ele>9.0</ele><time>2026-04-04T11:57:44Z</time></trkpt><trkpt lat="41.281201845169576" lon="13.40806715767314"><ele>9.333333333333334</ele><time>2026-04-04T11:57:45Z</time></trkpt><trkpt lat="41.28129400568948" lon="13.407845174140364"><ele>9.666666666666668</ele><time>2026-04-04T11:57:46Z</time></trkpt><trkpt lat="41.281385093593165" lon="13.407616915524546"><ele>10.0</ele><time>2026-04-04T11:57:47Z</time></trkpt><trkpt lat="41.28147463705872" lon="13.407378265115105"><ele>9.666666666666668</ele><time>2026-04-04T11:57:48Z</time></trkpt><trkpt lat="41.281564086864805" lon="13.407132465524775"><ele>9.333333333333334</ele><time>2026-04-04T11:57:49Z</time></trkpt><trkpt lat="41.28166043099653" lon="13.406882106730238"><ele>9.0</ele><time>2026-04-04T11:57:50Z</time></trkpt><trkpt lat="41.2817606934775" lon="13.406627454614261"><ele>9.0</ele><time>2026-04-04T11:57:51Z</time></trkpt><trkpt lat="41.28185913657421" lon="13.406366854987477"><ele>9.0</ele><time>2026-04-04T11:57:52Z</time></trkpt><trkpt lat="41.28195583586548" lon="13.40611089251174"><ele>9.0</ele><time>2026-04-04T11:57:53Z</time></trkpt><trkpt lat="41.28204460102696" lon="13.405858288766904"><ele>9.0</ele><time>2026-04-04T11:57:54Z</time></trkpt><trkpt lat="41.28213207337065" lon="13.405595700421568"><ele>9.0</ele><time>2026-04-04T11:57:55Z</time></trkpt><trkpt lat="41.28221223691348" lon="13.40532738589469"><ele>9.0</ele><time>2026-04-04T11:57:56Z</time></trkpt><trkpt lat="41.28228068043391" lon="13.405051153487339"><ele>8.666666666666666</ele><time>2026-04-04T11:57:57Z</time></trkpt><trkpt lat="41.28233771670275" lon="13.40477141882956"><ele>8.333333333333332</ele><time>2026-04-04T11:57:58Z</time></trkpt><trkpt lat="41.28238564300276" lon="13.4044965552226"><ele>8.0</ele><time>2026-04-04T11:57:59Z</time></trkpt><trkpt lat="41.28242492429625" lon="13.40422843868622"><ele>8.666666666666666</ele><time>2026-04-04T11:58:00Z</time></trkpt><trkpt lat="41.2824521853077" lon="13.403963725747719"><ele>9.333333333333334</ele><time>2026-04-04T11:58:01Z</time></trkpt><trkpt lat="41.282470670717736" lon="13.40369518789999"><ele>10.0</ele><time>2026-04-04T11:58:02Z</time></trkpt><trkpt lat="41.282482305760155" lon="13.403412921456805"><ele>10.0</ele><time>2026-04-04T11:58:03Z</time></trkpt><trkpt lat="41.282493259479224" lon="13.403117753992227"><ele>10.0</ele><time>2026-04-04T11:58:04Z</time></trkpt><trkpt lat="41.28250149225692" lon="13.402810161465066"><ele>10.0</ele><time>2026-04-04T11:58:05Z</time></trkpt><trkpt lat="41.28251076409712" lon="13.402498297699061"><ele>10.0</ele><time>2026-04-04T11:58:06Z</time></trkpt><trkpt lat="41.28252205444168" lon="13.402182051857293"><ele>10.5</ele><time>2026-04-04T11:58:07Z</time></trkpt><trkpt lat="41.282532131112006" lon="13.401862283577529"><ele>11.0</ele><time>2026-04-04T11:58:08Z</time></trkpt><trkpt lat="41.282540816084" lon="13.401539951235252"><ele>11.0</ele><time>2026-04-04T11:58:09Z</time></trkpt><trkpt lat="41.282550435001546" lon="13.401216920396966"><ele>11.0</ele><time>2026-04-04T11:58:10Z</time></trkpt><trkpt lat="41.28256511789411" lon="13.400892958388813"><ele>11.0</ele><time>2026-04-04T11:58:11Z</time></trkpt><trkpt lat="41.282585176427006" lon="13.400570389456329"><ele>11.0</ele><time>2026-04-04T11:58:12Z</time></trkpt><trkpt lat="41.28261071095669" lon="13.400249132710469"><ele>10.5</ele><time>2026-04-04T11:58:13Z</time></trkpt><trkpt lat="41.28264382524349" lon="13.399930460511433"><ele>10.0</ele><time>2026-04-04T11:58:14Z</time></trkpt><trkpt lat="41.282683260484205" lon="13.399618494395993"><ele>10.0</ele><time>2026-04-04T11:58:15Z</time></trkpt><trkpt lat="41.28272977653321" lon="13.399310020956465"><ele>10.0</ele><time>2026-04-04T11:58:16Z</time></trkpt><trkpt lat="41.28278046194566" lon="13.399002872821562"><ele>11.5</ele><time>2026-04-04T11:58:17Z</time></trkpt><trkpt lat="41.28283593229457" lon="13.398699966585012"><ele>13.0</ele><time>2026-04-04T11:58:18Z</time></trkpt><trkpt lat="41.28289828784134" lon="13.3983996245228"><ele>13.0</ele><time>2026-04-04T11:58:19Z</time></trkpt><trkpt lat="41.28296057694157" lon="13.398120752827579"><ele>13.0</ele><time>2026-04-04T11:58:20Z</time></trkpt><trkpt lat="41.28302382564878" lon="13.39785236184192"><ele>13.0</ele><time>2026-04-04T11:58:21Z</time></trkpt><trkpt lat="41.28308864086275" lon="13.397586583499688"><ele>13.333333333333332</ele><time>2026-04-04T11:58:22Z</time></trkpt><trkpt lat="41.2831529676429" lon="13.397320734133737"><ele>13.666666666666668</ele><time>2026-04-04T11:58:23Z</time></trkpt><trkpt lat="41.28321718199095" lon="13.39705851203778"><ele>14.0</ele><time>2026-04-04T11:58:24Z</time></trkpt><trkpt lat="41.28327948102834" lon="13.396803381679675"><ele>14.0</ele><time>2026-04-04T11:58:25Z</time></trkpt><trkpt lat="41.28333982416625" lon="13.396555557693821"><ele>14.0</ele><time>2026-04-04T11:58:26Z</time></trkpt><trkpt lat="41.2833964655873" lon="13.396313567653209"><ele>14.0</ele><time>2026-04-04T11:58:27Z</time></trkpt><trkpt lat="41.28345225348942" lon="13.39608080287734"><ele>14.0</ele><time>2026-04-04T11:58:28Z</time></trkpt><trkpt lat="41.283508382010034" lon="13.395858868128053"><ele>14.0</ele><time>2026-04-04T11:58:29Z</time></trkpt><trkpt lat="41.2835650308772" lon="13.395629116638506"><ele>14.0</ele><time>2026-04-04T11:58:30Z</time></trkpt><trkpt lat="41.28362356770555" lon="13.39539460833622"><ele>13.333333333333334</ele><time>2026-04-04T11:58:31Z</time></trkpt><trkpt lat="41.28368399406261" lon="13.3951528487201"><ele>12.666666666666668</ele><time>2026-04-04T11:58:32Z</time></trkpt><trkpt lat="41.283743948069414" lon="13.394894998176952"><ele>12.0</ele><time>2026-04-04T11:58:33Z</time></trkpt><trkpt lat="41.28380630679896" lon="13.394627239110566"><ele>12.0</ele><time>2026-04-04T11:58:34Z</time></trkpt><trkpt lat="41.28387198359271" lon="13.39435021157864"><ele>12.0</ele><time>2026-04-04T11:58:35Z</time></trkpt><trkpt lat="41.28393993764246" lon="13.39406929142076"><ele>12.0</ele><time>2026-04-04T11:58:36Z</time></trkpt><trkpt lat="41.2840102484278" lon="13.393787050392644"><ele>12.0</ele><time>2026-04-04T11:58:37Z</time></trkpt><trkpt lat="41.284080466630435" lon="13.393504037527391"><ele>12.0</ele><time>2026-04-04T11:58:38Z</time></trkpt><trkpt lat="41.28414879435297" lon="13.393222038848851"><ele>12.0</ele><time>2026-04-04T11:58:39Z</time></trkpt><trkpt lat="41.28422147887376" lon="13.392939201637782"><ele>11.5</ele><time>2026-04-04T11:58:40Z</time></trkpt><trkpt lat="41.2842971921194" lon="13.392656921743773"><ele>11.0</ele><time>2026-04-04T11:58:41Z</time></trkpt><trkpt lat="41.28436998552857" lon="13.3923690230025"><ele>10.333333333333332</ele><time>2026-04-04T11:58:42Z</time></trkpt><trkpt lat="41.284435958215546" lon="13.392093525532788"><ele>9.666666666666666</ele><time>2026-04-04T11:58:43Z</time></trkpt><trkpt lat="41.28449814304568" lon="13.391833399745263"><ele>9.0</ele><time>2026-04-04T11:58:44Z</time></trkpt><trkpt lat="41.28456283693548" lon="13.391562220245765"><ele>8.666666666666666</ele><time>2026-04-04T11:58:45Z</time></trkpt><trkpt lat="41.2846337141567" lon="13.391285906184905"><ele>8.333333333333332</ele><time>2026-04-04T11:58:46Z</time></trkpt><trkpt lat="41.284708219451446" lon="13.391007747100408"><ele>8.0</ele><time>2026-04-04T11:58:47Z</time></trkpt><trkpt lat="41.28477807839218" lon="13.390728220634692"><ele>8.0</ele><time>2026-04-04T11:58:48Z</time></trkpt><trkpt lat="41.2848451743733" lon="13.390447957144069"><ele>8.0</ele><time>2026-04-04T11:58:49Z</time></trkpt><trkpt lat="41.28491340083101" lon="13.390164637674618"><ele>8.0</ele><time>2026-04-04T11:58:50Z</time></trkpt><trkpt lat="41.284982252481825" lon="13.389883650103021"><ele>7.666666666666666</ele><time>2026-04-04T11:58:51Z</time></trkpt><trkpt lat="41.285052683600206" lon="13.389611050902058"><ele>7.333333333333334</ele><time>2026-04-04T11:58:52Z</time></trkpt><trkpt lat="41.285120522182204" lon="13.389339707507808"><ele>7.0</ele><time>2026-04-04T11:58:53Z</time></trkpt><trkpt lat="41.285184730611114" lon="13.389069895684576"><ele>7.0</ele><time>2026-04-04T11:58:54Z</time></trkpt><trkpt lat="41.28524574834963" lon="13.388802358331533"><ele>7.0</ele><time>2026-04-04T11:58:55Z</time></trkpt><trkpt lat="41.28530641983877" lon="13.388529539527516"><ele>7.0</ele><time>2026-04-04T11:58:56Z</time></trkpt><trkpt lat="41.285365194103086" lon="13.388248489377444"><ele>6.0</ele><time>2026-04-04T11:58:57Z</time></trkpt><trkpt lat="41.28542243319922" lon="13.38796277133467"><ele>5.0</ele><time>2026-04-04T11:58:58Z</time></trkpt><trkpt lat="41.2854806259853" lon="13.387663863142096"><ele>5.0</ele><time>2026-04-04T11:58:59Z</time></trkpt><trkpt lat="41.28553990839375" lon="13.387359767655433"><ele>5.0</ele><time>2026-04-04T11:59:00Z</time></trkpt><trkpt lat="41.28560047179942" lon="13.38705836052392"><ele>5.333333333333334</ele><time>2026-04-04T11:59:01Z</time></trkpt><trkpt lat="41.28566209935183" lon="13.38677579372529"><ele>5.666666666666667</ele><time>2026-04-04T11:59:02Z</time></trkpt><trkpt lat="41.28571878990406" lon="13.386511831576065"><ele>6.0</ele><time>2026-04-04T11:59:03Z</time></trkpt><trkpt lat="41.285773330160424" lon="13.386249419739555"><ele>6.0</ele><time>2026-04-04T11:59:04Z</time></trkpt><trkpt lat="41.28582809093807" lon="13.385972577614671"><ele>6.0</ele><time>2026-04-04T11:59:05Z</time></trkpt><trkpt lat="41.28588325636654" lon="13.385687768506227"><ele>6.0</ele><time>2026-04-04T11:59:06Z</time></trkpt><trkpt lat="41.28594291878479" lon="13.385405519806417"><ele>6.0</ele><time>2026-04-04T11:59:07Z</time></trkpt><trkpt lat="41.28600635261103" lon="13.385121372751794"><ele>6.0</ele><time>2026-04-04T11:59:08Z</time></trkpt><trkpt lat="41.286068666917735" lon="13.384837132547673"><ele>6.0</ele><time>2026-04-04T11:59:09Z</time></trkpt><trkpt lat="41.28612772058921" lon="13.384561332378542"><ele>6.0</ele><time>2026-04-04T11:59:10Z</time></trkpt><trkpt lat="41.286185706258124" lon="13.38428859904325"><ele>6.0</ele><time>2026-04-04T11:59:11Z</time></trkpt><trkpt lat="41.286238923651325" lon="13.38402175156951"><ele>6.0</ele><time>2026-04-04T11:59:12Z</time></trkpt><trkpt lat="41.286292367843856" lon="13.383759883347157"><ele>5.333333333333333</ele><time>2026-04-04T11:59:13Z</time></trkpt><trkpt lat="41.28634757270372" lon="13.383496552428614"><ele>4.666666666666666</ele><time>2026-04-04T11:59:14Z</time></trkpt><trkpt lat="41.286401838430336" lon="13.383232614964"><ele>4.0</ele><time>2026-04-04T11:59:15Z</time></trkpt><trkpt lat="41.28646042174014" lon="13.38296673457968"><ele>4.0</ele><time>2026-04-04T11:59:16Z</time></trkpt><trkpt lat="41.28651908800293" lon="13.382695581983914"><ele>4.0</ele><time>2026-04-04T11:59:17Z</time></trkpt><trkpt lat="41.28657618908837" lon="13.382420542726484"><ele>4.0</ele><time>2026-04-04T11:59:18Z</time></trkpt><trkpt lat="41.28663230824082" lon="13.382139820375269"><ele>4.0</ele><time>2026-04-04T11:59:19Z</time></trkpt><trkpt lat="41.286690895329095" lon="13.381857845716901"><ele>4.0</ele><time>2026-04-04T11:59:20Z</time></trkpt><trkpt lat="41.286748348260176" lon="13.381579384049104"><ele>4.0</ele><time>2026-04-04T11:59:21Z</time></trkpt><trkpt lat="41.286806485172775" lon="13.381293756249176"><ele>4.0</ele><time>2026-04-04T11:59:22Z</time></trkpt><trkpt lat="41.286865453144124" lon="13.381001491910547"><ele>4.0</ele><time>2026-04-04T11:59:23Z</time></trkpt><trkpt lat="41.28692662630918" lon="13.38071052437763"><ele>4.5</ele><time>2026-04-04T11:59:24Z</time></trkpt><trkpt lat="41.28698839352322" lon="13.3804172061518"><ele>5.0</ele><time>2026-04-04T11:59:25Z</time></trkpt><trkpt lat="41.287050475929775" lon="13.380122836498218"><ele>5.0</ele><time>2026-04-04T11:59:26Z</time></trkpt><trkpt lat="41.28711176648707" lon="13.379828399457585"><ele>5.0</ele><time>2026-04-04T11:59:27Z</time></trkpt><trkpt lat="41.28717209798154" lon="13.379533994017955"><ele>5.0</ele><time>2026-04-04T11:59:28Z</time></trkpt><trkpt lat="41.2872333920491" lon="13.379241865867774"><ele>5.0</ele><time>2026-04-04T11:59:29Z</time></trkpt><trkpt lat="41.2872955189052" lon="13.378948335878174"><ele>3.5</ele><time>2026-04-04T11:59:30Z</time></trkpt><trkpt lat="41.2873537436637" lon="13.378654180949214"><ele>2.0</ele><time>2026-04-04T11:59:31Z</time></trkpt><trkpt lat="41.28741276897691" lon="13.378360033362304"><ele>2.0</ele><time>2026-04-04T11:59:32Z</time></trkpt><trkpt lat="41.2874700645247" lon="13.378066626586532"><ele>2.0</ele><time>2026-04-04T11:59:33Z</time></trkpt><trkpt lat="41.28752893792956" lon="13.377772383213506"><ele>1.6666666666666665</ele><time>2026-04-04T11:59:34Z</time></trkpt><trkpt lat="41.28758917805657" lon="13.377482522537507"><ele>1.3333333333333333</ele><time>2026-04-04T11:59:35Z</time></trkpt><trkpt lat="41.28764954753888" lon="13.377199733206966"><ele>1.0</ele><time>2026-04-04T11:59:36Z</time></trkpt><trkpt lat="41.28770585717987" lon="13.376934633668482"><ele>1.0</ele><time>2026-04-04T11:59:37Z</time></trkpt><trkpt lat="41.28775878794047" lon="13.37668557984564"><ele>1.0</ele><time>2026-04-04T11:59:38Z</time></trkpt><trkpt lat="41.28780652532161" lon="13.376448946459918"><ele>1.0</ele><time>2026-04-04T11:59:39Z</time></trkpt><trkpt lat="41.28785111910833" lon="13.376226769760908"><ele>1.3333333333333333</ele><time>2026-04-04T11:59:40Z</time></trkpt><trkpt lat="41.28789290803873" lon="13.376015782048073"><ele>1.6666666666666665</ele><time>2026-04-04T11:59:41Z</time></trkpt><trkpt lat="41.28793461476924" lon="13.375808408915887"><ele>2.0</ele><time>2026-04-04T11:59:42Z</time></trkpt><trkpt lat="41.287979382413894" lon="13.375593740263415"><ele>2.0</ele><time>2026-04-04T11:59:43Z</time></trkpt><trkpt lat="41.2880256127832" lon="13.375369847518197"><ele>2.0</ele><time>2026-04-04T11:59:44Z</time></trkpt><trkpt lat="41.28807328056065" lon="13.375133910147559"><ele>2.0</ele><time>2026-04-04T11:59:45Z</time></trkpt><trkpt lat="41.28812172679315" lon="13.374888936169803"><ele>2.333333333333333</ele><time>2026-04-04T11:59:46Z</time></trkpt><trkpt lat="41.28817083174281" lon="13.374640104704419"><ele>2.6666666666666665</ele><time>2026-04-04T11:59:47Z</time></trkpt><trkpt lat="41.288222080627534" lon="13.374390712320595"><ele>3.0</ele><time>2026-04-04T11:59:48Z</time></trkpt><trkpt lat="41.28827390434629" lon="13.374140718762996"><ele>3.0</ele><time>2026-04-04T11:59:49Z</time></trkpt><trkpt lat="41.288325592104904" lon="13.37390623637186"><ele>3.0</ele><time>2026-04-04T11:59:50Z</time></trkpt><trkpt lat="41.28837499466371" lon="13.373665135715976"><ele>3.0</ele><time>2026-04-04T11:59:51Z</time></trkpt><trkpt lat="41.28842438391318" lon="13.37341634123143"><ele>2.6666666666666665</ele><time>2026-04-04T11:59:52Z</time></trkpt><trkpt lat="41.28847775118439" lon="13.37316173440062"><ele>2.333333333333333</ele><time>2026-04-04T11:59:53Z</time></trkpt><trkpt lat="41.28853409944613" lon="13.372901774027474"><ele>2.0</ele><time>2026-04-04T11:59:54Z</time></trkpt><trkpt lat="41.28859231767059" lon="13.372646493660348"><ele>1.6666666666666665</ele><time>2026-04-04T11:59:55Z</time></trkpt><trkpt lat="41.28864411301022" lon="13.372405270560597"><ele>1.3333333333333333</ele><time>2026-04-04T11:59:56Z</time></trkpt><trkpt lat="41.28869132886991" lon="13.372176612077968"><ele>1.0</ele><time>2026-04-04T11:59:57Z</time></trkpt><trkpt lat="41.28873520894007" lon="13.371959600631614"><ele>0.6666666666666666</ele><time>2026-04-04T11:59:58Z</time></trkpt><trkpt lat="41.288776979485014" lon="13.371747876715622"><ele>0.3333333333333333</ele><time>2026-04-04T11:59:59Z</time></trkpt><trkpt lat="41.288817127363274" lon="13.371545824703464"><ele>0.0</ele><time>2026-04-04T12:00:00Z</time></trkpt><trkpt lat="41.28885577291314" lon="13.371357109640782"><ele>0.0</ele><time>2026-04-04T12:00:01Z</time></trkpt><trkpt lat="41.28889351625356" lon="13.371177386107115"><ele>0.0</ele><time>2026-04-04T12:00:02Z</time></trkpt><trkpt lat="41.288928322028504" lon="13.37100577747497"><ele>0.0</ele><time>2026-04-04T12:00:03Z</time></trkpt><trkpt lat="41.2889587328118" lon="13.370846853671903"><ele>0.0</ele><time>2026-04-04T12:00:04Z</time></trkpt><trkpt lat="41.28899091892834" lon="13.370701113124314"><ele>0.4</ele><time>2026-04-04T12:00:05Z</time></trkpt><trkpt lat="41.289023129007276" lon="13.370560650599609"><ele>0.8</ele><time>2026-04-04T12:00:06Z</time></trkpt><trkpt lat="41.28905242239614" lon="13.370425317811227"><ele>1.2000000000000002</ele><time>2026-04-04T12:00:07Z</time></trkpt><trkpt lat="41.289078527440445" lon="13.370300451226864"><ele>1.6</ele><time>2026-04-04T12:00:08Z</time></trkpt><trkpt lat="41.28910132532916" lon="13.37018748793498"><ele>2.0</ele><time>2026-04-04T12:00:09Z</time></trkpt><trkpt lat="41.28912127223957" lon="13.37008669650905"><ele>2.0</ele><time>2026-04-04T12:00:10Z</time></trkpt><trkpt lat="41.28913973148382" lon="13.369997997718757"><ele>1.9999999999999998</ele><time>2026-04-04T12:00:11Z</time></trkpt><trkpt lat="41.289158330292274" lon="13.369910484759984"><ele>2.0</ele><time>2026-04-04T12:00:12Z</time></trkpt><trkpt lat="41.289176152663515" lon="13.36981852249794"><ele>2.0</ele><time>2026-04-04T12:00:13Z</time></trkpt><trkpt lat="41.289195152520534" lon="13.369726620822169"><ele>1.9999999999999998</ele><time>2026-04-04T12:00:14Z</time></trkpt><trkpt lat="41.2892136186361" lon="13.36963673214461"><ele>2.0</ele><time>2026-04-04T12:00:15Z</time></trkpt><trkpt lat="41.28923324355015" lon="13.369545471165633"><ele>2.0</ele><time>2026-04-04T12:00:16Z</time></trkpt><trkpt lat="41.28925519352451" lon="13.369445389375105"><ele>1.6</ele><time>2026-04-04T12:00:17Z</time></trkpt><trkpt lat="41.28927953086829" lon="13.369330761574824"><ele>1.2000000000000002</ele><time>2026-04-04T12:00:18Z</time></trkpt><trkpt lat="41.289306452928514" lon="13.369203516717585"><ele>0.8</ele><time>2026-04-04T12:00:19Z</time></trkpt><trkpt lat="41.289334934723335" lon="13.369062943906705"><ele>0.4</ele><time>2026-04-04T12:00:20Z</time></trkpt><trkpt lat="41.28936708662729" lon="13.368914137188758"><ele>0.0</ele><time>2026-04-04T12:00:21Z</time></trkpt><trkpt lat="41.28939958496871" lon="13.368763214122373"><ele>1.0</ele><time>2026-04-04T12:00:22Z</time></trkpt><trkpt lat="41.28943001952452" lon="13.368604422606918"><ele>2.0</ele><time>2026-04-04T12:00:23Z</time></trkpt><trkpt lat="41.289461909410534" lon="13.368446565257491"><ele>3.0</ele><time>2026-04-04T12:00:24Z</time></trkpt><trkpt lat="41.28949379887902" lon="13.368290116403662"><ele>4.0</ele><time>2026-04-04T12:00:25Z</time></trkpt><trkpt lat="41.28952740505991" lon="13.368134330605239"><ele>4.25</ele><time>2026-04-04T12:00:26Z</time></trkpt><trkpt lat="41.28955815288021" lon="13.367967557389747"><ele>4.5</ele><time>2026-04-04T12:00:27Z</time></trkpt><trkpt lat="41.28959016255208" lon="13.367792298538884"><ele>4.75</ele><time>2026-04-04T12:00:28Z</time></trkpt><trkpt lat="41.289625902661456" lon="13.36761433907124"><ele>5.0</ele><time>2026-04-04T12:00:29Z</time></trkpt><trkpt lat="41.28966433109106" lon="13.367432119657146"><ele>5.0</ele><time>2026-04-04T12:00:30Z</time></trkpt><trkpt lat="41.28970264012467" lon="13.36724458845367"><ele>5.0</ele><time>2026-04-04T12:00:31Z</time></trkpt><trkpt lat="41.289744006368174" lon="13.367048259641953"><ele>5.0</ele><time>2026-04-04T12:00:32Z</time></trkpt><trkpt lat="41.2897889842685" lon="13.366830984656007"><ele>5.0</ele><time>2026-04-04T12:00:33Z</time></trkpt><trkpt lat="41.289835692532684" lon="13.366583891165183"><ele>5.0</ele><time>2026-04-04T12:00:34Z</time></trkpt><trkpt lat="41.28988849603326" lon="13.366320710797195"><ele>5.0</ele><time>2026-04-04T12:00:35Z</time></trkpt><trkpt lat="41.28994442166087" lon="13.36606531244982"><ele>4.666666666666667</ele><time>2026-04-04T12:00:36Z</time></trkpt><trkpt lat="41.29000034522806" lon="13.365811459303288"><ele>4.333333333333333</ele><time>2026-04-04T12:00:37Z</time></trkpt><trkpt lat="41.290052348404615" lon="13.365560624175695"><ele>4.0</ele><time>2026-04-04T12:00:38Z</time></trkpt><trkpt lat="41.29010350697859" lon="13.365313334998042"><ele>4.0</ele><time>2026-04-04T12:00:39Z</time></trkpt><trkpt lat="41.29015212186236" lon="13.365065804845727"><ele>4.0</ele><time>2026-04-04T12:00:40Z</time></trkpt><trkpt lat="41.29020330133117" lon="13.364812935918787"><ele>4.0</ele><time>2026-04-04T12:00:41Z</time></trkpt><trkpt lat="41.29025502997498" lon="13.364557800046523"><ele>4.0</ele><time>2026-04-04T12:00:42Z</time></trkpt><trkpt lat="41.290304936268406" lon="13.364302060781316"><ele>4.0</ele><time>2026-04-04T12:00:43Z</time></trkpt><trkpt lat="41.29035890568119" lon="13.36405155603387"><ele>4.0</ele><time>2026-04-04T12:00:44Z</time></trkpt><trkpt lat="41.29041348201947" lon="13.363806395377226"><ele>4.666666666666666</ele><time>2026-04-04T12:00:45Z</time></trkpt><trkpt lat="41.29046973019958" lon="13.363554454039786"><ele>5.333333333333333</ele><time>2026-04-04T12:00:46Z</time></trkpt><trkpt lat="41.290522554997544" lon="13.363301768467988"><ele>6.0</ele><time>2026-04-04T12:00:47Z</time></trkpt><trkpt lat="41.290574424190545" lon="13.363055513635025"><ele>5.666666666666667</ele><time>2026-04-04T12:00:48Z</time></trkpt><trkpt lat="41.290622619338876" lon="13.362821658998179"><ele>5.333333333333334</ele><time>2026-04-04T12:00:49Z</time></trkpt><trkpt lat="41.29066756890144" lon="13.36260775445906"><ele>5.0</ele><time>2026-04-04T12:00:50Z</time></trkpt><trkpt lat="41.290709454706814" lon="13.362397731040813"><ele>4.666666666666667</ele><time>2026-04-04T12:00:51Z</time></trkpt><trkpt lat="41.29075623576435" lon="13.362172392169091"><ele>4.333333333333333</ele><time>2026-04-04T12:00:52Z</time></trkpt><trkpt lat="41.29080561656368" lon="13.361944281882725"><ele>4.0</ele><time>2026-04-04T12:00:53Z</time></trkpt><trkpt lat="41.29085654675259" lon="13.361710926711183"><ele>4.0</ele><time>2026-04-04T12:00:54Z</time></trkpt><trkpt lat="41.29090611060587" lon="13.361474528085793"><ele>4.0</ele><time>2026-04-04T12:00:55Z</time></trkpt><trkpt lat="41.290957975783556" lon="13.361233330151755"><ele>4.0</ele><time>2026-04-04T12:00:56Z</time></trkpt><trkpt lat="41.29101124649036" lon="13.360985300090896"><ele>4.666666666666666</ele><time>2026-04-04T12:00:57Z</time></trkpt><trkpt lat="41.29106507253001" lon="13.360731160466507"><ele>5.333333333333333</ele><time>2026-04-04T12:00:58Z</time></trkpt><trkpt lat="41.2911180332845" lon="13.360475479139902"><ele>6.0</ele><time>2026-04-04T12:00:59Z</time></trkpt><trkpt lat="41.29117137665311" lon="13.360213790671946"><ele>6.0</ele><time>2026-04-04T12:01:00Z</time></trkpt><trkpt lat="41.29122628734633" lon="13.359949484691523"><ele>6.0</ele><time>2026-04-04T12:01:01Z</time></trkpt><trkpt lat="41.29128145990712" lon="13.359682550471298"><ele>6.0</ele><time>2026-04-04T12:01:02Z</time></trkpt><trkpt lat="41.291340825876084" lon="13.359411900348336"><ele>6.0</ele><time>2026-04-04T12:01:03Z</time></trkpt><trkpt lat="41.29140091721003" lon="13.359140897420234"><ele>6.0</ele><time>2026-04-04T12:01:04Z</time></trkpt><trkpt lat="41.291460191290135" lon="13.358866684299684"><ele>6.0</ele><time>2026-04-04T12:01:05Z</time></trkpt><trkpt lat="41.29151772888173" lon="13.358595700253213"><ele>6.0</ele><time>2026-04-04T12:01:06Z</time></trkpt><trkpt lat="41.29157702097758" lon="13.358326363897548"><ele>6.0</ele><time>2026-04-04T12:01:07Z</time></trkpt><trkpt lat="41.29163627744686" lon="13.358065159475819"><ele>6.0</ele><time>2026-04-04T12:01:08Z</time></trkpt><trkpt lat="41.291693057638625" lon="13.35781169589978"><ele>6.0</ele><time>2026-04-04T12:01:09Z</time></trkpt><trkpt lat="41.29174589073853" lon="13.35756428755781"><ele>6.0</ele><time>2026-04-04T12:01:10Z</time></trkpt><trkpt lat="41.291798030655436" lon="13.357313712813477"><ele>6.0</ele><time>2026-04-04T12:01:11Z</time></trkpt><trkpt lat="41.29185168707839" lon="13.357052401761404"><ele>6.333333333333334</ele><time>2026-04-04T12:01:12Z</time></trkpt><trkpt lat="41.291905433861906" lon="13.356778015857756"><ele>6.666666666666667</ele><time>2026-04-04T12:01:13Z</time></trkpt><trkpt lat="41.29196377079024" lon="13.356488888949896"><ele>7.0</ele><time>2026-04-04T12:01:14Z</time></trkpt><trkpt lat="41.29202983925614" lon="13.356184827901483"><ele>6.333333333333334</ele><time>2026-04-04T12:01:15Z</time></trkpt><trkpt lat="41.29209009518627" lon="13.35591437075555"><ele>5.666666666666667</ele><time>2026-04-04T12:01:16Z</time></trkpt><trkpt lat="41.29214817944094" lon="13.35564606041578"><ele>5.0</ele><time>2026-04-04T12:01:17Z</time></trkpt><trkpt lat="41.292205393518984" lon="13.355369243959466"><ele>4.5</ele><time>2026-04-04T12:01:18Z</time></trkpt><trkpt lat="41.292264759007416" lon="13.355077220750205"><ele>4.0</ele><time>2026-04-04T12:01:19Z</time></trkpt><trkpt lat="41.29232821705809" lon="13.354766833736374"><ele>4.5</ele><time>2026-04-04T12:01:20Z</time></trkpt><trkpt lat="41.292397769162626" lon="13.354455670252714"><ele>5.0</ele><time>2026-04-04T12:01:21Z</time></trkpt><trkpt lat="41.292476108404934" lon="13.354146907511415"><ele>5.0</ele><time>2026-04-04T12:01:22Z</time></trkpt><trkpt lat="41.29254277167885" lon="13.3538371479129"><ele>5.0</ele><time>2026-04-04T12:01:23Z</time></trkpt><trkpt lat="41.29260560128124" lon="13.353529140423523"><ele>5.0</ele><time>2026-04-04T12:01:24Z</time></trkpt><trkpt lat="41.2926719381484" lon="13.35322524551026"><ele>5.0</ele><time>2026-04-04T12:01:25Z</time></trkpt><trkpt lat="41.29273720316438" lon="13.352919913161172"><ele>5.0</ele><time>2026-04-04T12:01:26Z</time></trkpt><trkpt lat="41.292801938264404" lon="13.35261338089885"><ele>5.0</ele><time>2026-04-04T12:01:27Z</time></trkpt><trkpt lat="41.292864413331586" lon="13.352303089322806"><ele>4.5</ele><time>2026-04-04T12:01:28Z</time></trkpt><trkpt lat="41.2929312574932" lon="13.351993287573102"><ele>4.0</ele><time>2026-04-04T12:01:29Z</time></trkpt><trkpt lat="41.292997195532415" lon="13.351683602953099"><ele>4.0</ele><time>2026-04-04T12:01:30Z</time></trkpt><trkpt lat="41.29306302395262" lon="13.351374827395183"><ele>4.0</ele><time>2026-04-04T12:01:31Z</time></trkpt><trkpt lat="41.293128862681066" lon="13.351066968816102"><ele>4.5</ele><time>2026-04-04T12:01:32Z</time></trkpt><trkpt lat="41.293195317369786" lon="13.350755270524987"><ele>5.0</ele><time>2026-04-04T12:01:33Z</time></trkpt><trkpt lat="41.2932623344748" lon="13.350439697297396"><ele>4.0</ele><time>2026-04-04T12:01:34Z</time></trkpt><trkpt lat="41.293330006425805" lon="13.350123365377442"><ele>3.0</ele><time>2026-04-04T12:01:35Z</time></trkpt><trkpt lat="41.293398639383625" lon="13.349804983052293"><ele>2.5</ele><time>2026-04-04T12:01:36Z</time></trkpt><trkpt lat="41.2934667435071" lon="13.349488140385304"><ele>2.0</ele><time>2026-04-04T12:01:37Z</time></trkpt><trkpt lat="41.293533278127725" lon="13.349172949395"><ele>2.0</ele><time>2026-04-04T12:01:38Z</time></trkpt><trkpt lat="41.29359422414831" lon="13.34885889755634"><ele>2.0</ele><time>2026-04-04T12:01:39Z</time></trkpt><trkpt lat="41.293653309885904" lon="13.348543912495677"><ele>2.0</ele><time>2026-04-04T12:01:40Z</time></trkpt><trkpt lat="41.29370879493393" lon="13.348247889076601"><ele>2.0</ele><time>2026-04-04T12:01:41Z</time></trkpt><trkpt lat="41.29375395906072" lon="13.347974434513299"><ele>2.0</ele><time>2026-04-04T12:01:42Z</time></trkpt><trkpt lat="41.29379463884272" lon="13.347720711103129"><ele>2.0</ele><time>2026-04-04T12:01:43Z</time></trkpt><trkpt lat="41.29382908249803" lon="13.34748416703864"><ele>2.0</ele><time>2026-04-04T12:01:44Z</time></trkpt><trkpt lat="41.29386130263342" lon="13.347264765650795"><ele>2.0</ele><time>2026-04-04T12:01:45Z</time></trkpt><trkpt lat="41.293891704229" lon="13.347056478087639"><ele>1.75</ele><time>2026-04-04T12:01:46Z</time></trkpt><trkpt lat="41.29392103212663" lon="13.346854283539543"><ele>1.5</ele><time>2026-04-04T12:01:47Z</time></trkpt><trkpt lat="41.29394759977987" lon="13.346666616879427"><ele>1.25</ele><time>2026-04-04T12:01:48Z</time></trkpt><trkpt lat="41.29397215897323" lon="13.346500736788967"><ele>1.0</ele><time>2026-04-04T12:01:49Z</time></trkpt><trkpt lat="41.29399251910367" lon="13.346349396886502"><ele>1.4</ele><time>2026-04-04T12:01:50Z</time></trkpt><trkpt lat="41.29401346412671" lon="13.346210015257755"><ele>1.8</ele><time>2026-04-04T12:01:51Z</time></trkpt><trkpt lat="41.294032273289716" lon="13.34608178897318"><ele>2.1999999999999997</ele><time>2026-04-04T12:01:52Z</time></trkpt><trkpt lat="41.294050210585354" lon="13.345963004705242"><ele>2.6</ele><time>2026-04-04T12:01:53Z</time></trkpt><trkpt lat="41.29408093318749" lon="13.345836739836463"><ele>3.0</ele><time>2026-04-04T12:01:54Z</time></trkpt><trkpt lat="41.294126595842506" lon="13.345720714685196"><ele>3.0</ele><time>2026-04-04T12:01:55Z</time></trkpt><trkpt lat="41.29418098393936" lon="13.3456138408222"><ele>3.0</ele><time>2026-04-04T12:01:56Z</time></trkpt><trkpt lat="41.29422011574131" lon="13.345501117494148"><ele>3.0</ele><time>2026-04-04T12:01:57Z</time></trkpt><trkpt lat="41.294229724085255" lon="13.345371484828116"><ele>3.0</ele><time>2026-04-04T12:01:58Z</time></trkpt><trkpt lat="41.2942081155493" lon="13.34522642928961"><ele>3.0</ele><time>2026-04-04T12:01:59Z</time></trkpt><trkpt lat="41.29419227248854" lon="13.345049556005007"><ele>3.333333333333333</ele><time>2026-04-04T12:02:00Z</time></trkpt><trkpt lat="41.294204914418565" lon="13.344855857500622"><ele>3.6666666666666665</ele><time>2026-04-04T12:02:01Z</time></trkpt><trkpt lat="41.294232700117654" lon="13.344664608552035"><ele>4.0</ele><time>2026-04-04T12:02:02Z</time></trkpt><trkpt lat="41.294263828619115" lon="13.344445814916874"><ele>4.0</ele><time>2026-04-04T12:02:03Z</time></trkpt><trkpt lat="41.294291346942465" lon="13.344226816267641"><ele>4.0</ele><time>2026-04-04T12:02:04Z</time></trkpt><trkpt lat="41.29431731408465" lon="13.344009145163442"><ele>4.0</ele><time>2026-04-04T12:02:05Z</time></trkpt><trkpt lat="41.29434441690968" lon="13.343783780478052"><ele>3.6666666666666665</ele><time>2026-04-04T12:02:06Z</time></trkpt><trkpt lat="41.29437901988638" lon="13.343522052630583"><ele>3.333333333333333</ele><time>2026-04-04T12:02:07Z</time></trkpt><trkpt lat="41.294416606836094" lon="13.343222955294044"><ele>3.0</ele><time>2026-04-04T12:02:08Z</time></trkpt><trkpt lat="41.29446319645654" lon="13.342942849074237"><ele>3.0</ele><time>2026-04-04T12:02:09Z</time></trkpt><trkpt lat="41.2945129624885" lon="13.342656707750407"><ele>3.0</ele><time>2026-04-04T12:02:10Z</time></trkpt><trkpt lat="41.29455838833806" lon="13.342371583361357"><ele>3.0</ele><time>2026-04-04T12:02:11Z</time></trkpt><trkpt lat="41.294602196856715" lon="13.34208553743132"><ele>3.0</ele><time>2026-04-04T12:02:12Z</time></trkpt><trkpt lat="41.2946395703796" lon="13.34179648305825"><ele>3.0</ele><time>2026-04-04T12:02:13Z</time></trkpt><trkpt lat="41.29467874736429" lon="13.341529290704813"><ele>3.0</ele><time>2026-04-04T12:02:14Z</time></trkpt><trkpt lat="41.29471622169352" lon="13.341272581647052"><ele>2.6666666666666665</ele><time>2026-04-04T12:02:15Z</time></trkpt><trkpt lat="41.29475274669483" lon="13.341020744070146"><ele>2.333333333333333</ele><time>2026-04-04T12:02:16Z</time></trkpt><trkpt lat="41.29478621955215" lon="13.340759720828915"><ele>2.0</ele><time>2026-04-04T12:02:17Z</time></trkpt><trkpt lat="41.294822647431666" lon="13.34049030404876"><ele>3.0</ele><time>2026-04-04T12:02:18Z</time></trkpt><trkpt lat="41.2948597107735" lon="13.340209682010832"><ele>4.0</ele><time>2026-04-04T12:02:19Z</time></trkpt><trkpt lat="41.29489542936631" lon="13.3399196484225"><ele>5.0</ele><time>2026-04-04T12:02:20Z</time></trkpt><trkpt lat="41.29493658314512" lon="13.339626923617564"><ele>5.0</ele><time>2026-04-04T12:02:21Z</time></trkpt><trkpt lat="41.29497617788327" lon="13.339335385847647"><ele>5.0</ele><time>2026-04-04T12:02:22Z</time></trkpt><trkpt lat="41.29501630946439" lon="13.339042228607719"><ele>5.0</ele><time>2026-04-04T12:02:23Z</time></trkpt><trkpt lat="41.295054892666485" lon="13.338750593817947"><ele>4.333333333333334</ele><time>2026-04-04T12:02:24Z</time></trkpt><trkpt lat="41.295093815073265" lon="13.338473729671659"><ele>3.666666666666667</ele><time>2026-04-04T12:02:25Z</time></trkpt><trkpt lat="41.29512887325241" lon="13.338224162525087"><ele>3.0</ele><time>2026-04-04T12:02:26Z</time></trkpt><trkpt lat="41.29516025624524" lon="13.337995059083214"><ele>2.75</ele><time>2026-04-04T12:02:27Z</time></trkpt><trkpt lat="41.29519152505354" lon="13.337782271929587"><ele>2.5</ele><time>2026-04-04T12:02:28Z</time></trkpt><trkpt lat="41.29523090774382" lon="13.337591899414601"><ele>2.25</ele><time>2026-04-04T12:02:29Z</time></trkpt><trkpt lat="41.29527727798024" lon="13.337430133657918"><ele>2.0</ele><time>2026-04-04T12:02:30Z</time></trkpt><trkpt lat="41.2953335773413" lon="13.337292590336242"><ele>1.9999999999999998</ele><time>2026-04-04T12:02:31Z</time></trkpt><trkpt lat="41.29538326710769" lon="13.33718540489013"><ele>2.0</ele><time>2026-04-04T12:02:32Z</time></trkpt><trkpt lat="41.295424043109634" lon="13.337101174251128"><ele>2.0</ele><time>2026-04-04T12:02:33Z</time></trkpt><trkpt lat="41.29546940754656" lon="13.33702666212323"><ele>2.0</ele><time>2026-04-04T12:02:34Z</time></trkpt><trkpt lat="41.29553277339528" lon="13.33695576356193"><ele>1.9999999999999998</ele><time>2026-04-04T12:02:35Z</time></trkpt><trkpt lat="41.29559654944452" lon="13.336887249898117"><ele>2.0</ele><time>2026-04-04T12:02:36Z</time></trkpt><trkpt lat="41.295642635212474" lon="13.336804990621388"><ele>1.9999999999999998</ele><time>2026-04-04T12:02:37Z</time></trkpt><trkpt lat="41.29565313462995" lon="13.336713318915699"><ele>2.0</ele><time>2026-04-04T12:02:38Z</time></trkpt><trkpt lat="41.29562942558416" lon="13.336618128247506"><ele>2.0</ele><time>2026-04-04T12:02:39Z</time></trkpt><trkpt lat="41.295578382370415" lon="13.33652635768787"><ele>2.0</ele><time>2026-04-04T12:02:40Z</time></trkpt><trkpt lat="41.29552034716317" lon="13.336434040033282"><ele>1.9999999999999998</ele><time>2026-04-04T12:02:41Z</time></trkpt><trkpt lat="41.29547648576135" lon="13.336320460270432"><ele>2.0</ele><time>2026-04-04T12:02:42Z</time></trkpt><trkpt lat="41.295455455045435" lon="13.336163134063318"><ele>1.6666666666666665</ele><time>2026-04-04T12:02:43Z</time></trkpt><trkpt lat="41.29545072375918" lon="13.335975386458992"><ele>1.3333333333333333</ele><time>2026-04-04T12:02:44Z</time></trkpt><trkpt lat="41.295464074437284" lon="13.335768181020068"><ele>1.0</ele><time>2026-04-04T12:02:45Z</time></trkpt><trkpt lat="41.295490530033625" lon="13.335559648723414"><ele>0.6666666666666666</ele><time>2026-04-04T12:02:46Z</time></trkpt><trkpt lat="41.295517458802316" lon="13.335326528906593"><ele>0.3333333333333333</ele><time>2026-04-04T12:02:47Z</time></trkpt><trkpt lat="41.29553308854485" lon="13.335088411206907"><ele>0.0</ele><time>2026-04-04T12:02:48Z</time></trkpt><trkpt lat="41.29554880360287" lon="13.33485488982423"><ele>-0.3333333333333333</ele><time>2026-04-04T12:02:49Z</time></trkpt><trkpt lat="41.29556199810181" lon="13.334612119403154"><ele>-0.6666666666666666</ele><time>2026-04-04T12:02:50Z</time></trkpt><trkpt lat="41.29556775095727" lon="13.334362893153182"><ele>-1.0</ele><time>2026-04-04T12:02:51Z</time></trkpt><trkpt lat="41.295565366914474" lon="13.33410977258136"><ele>-1.0</ele><time>2026-04-04T12:02:52Z</time></trkpt><trkpt lat="41.295556834983" lon="13.333854348730924"><ele>-1.0</ele><time>2026-04-04T12:02:53Z</time></trkpt><trkpt lat="41.29553882023601" lon="13.333594737805862"><ele>-1.0</ele><time>2026-04-04T12:02:54Z</time></trkpt><trkpt lat="41.295513430370704" lon="13.33333159444215"><ele>-1.0</ele><time>2026-04-04T12:02:55Z</time></trkpt><trkpt lat="41.29547920644971" lon="13.333065697048589"><ele>-1.0</ele><time>2026-04-04T12:02:56Z</time></trkpt><trkpt lat="41.29543464947458" lon="13.332797038119129"><ele>-1.0</ele><time>2026-04-04T12:02:57Z</time></trkpt><trkpt lat="41.29538086351619" lon="13.33252381766412"><ele>-0.6666666666666666</ele><time>2026-04-04T12:02:58Z</time></trkpt><trkpt lat="41.295318331076864" lon="13.332248151975392"><ele>-0.3333333333333333</ele><time>2026-04-04T12:02:59Z</time></trkpt><trkpt lat="41.29524730948248" lon="13.331960670458736"><ele>0.0</ele><time>2026-04-04T12:03:00Z</time></trkpt><trkpt lat="41.295166967977245" lon="13.331644221319289"><ele>0.5</ele><time>2026-04-04T12:03:01Z</time></trkpt><trkpt lat="41.29507373517574" lon="13.331291235391264"><ele>1.0</ele><time>2026-04-04T12:03:02Z</time></trkpt><trkpt lat="41.29496268110882" lon="13.330908536126497"><ele>0.0</ele><time>2026-04-04T12:03:03Z</time></trkpt><trkpt lat="41.29485072047257" lon="13.330526458219298"><ele>-1.0</ele><time>2026-04-04T12:03:04Z</time></trkpt><trkpt lat="41.29475315066064" lon="13.330193003928944"><ele>2.5</ele><time>2026-04-04T12:03:05Z</time></trkpt><trkpt lat="41.29466547616461" lon="13.329882932708628"><ele>6.0</ele><time>2026-04-04T12:03:06Z</time></trkpt><trkpt lat="41.29458887046625" lon="13.3295735225149"><ele>7.0</ele><time>2026-04-04T12:03:07Z</time></trkpt><trkpt lat="41.29452267222286" lon="13.329258674195083"><ele>8.0</ele><time>2026-04-04T12:03:08Z</time></trkpt><trkpt lat="41.29446237052308" lon="13.328955549247848"><ele>9.5</ele><time>2026-04-04T12:03:09Z</time></trkpt><trkpt lat="41.29441288326366" lon="13.328662119201514"><ele>11.0</ele><time>2026-04-04T12:03:10Z</time></trkpt><trkpt lat="41.29437845314572" lon="13.328360408052438"><ele>11.0</ele><time>2026-04-04T12:03:11Z</time></trkpt><trkpt lat="41.29435603068252" lon="13.328067924881534"><ele>11.0</ele><time>2026-04-04T12:03:12Z</time></trkpt><trkpt lat="41.2943462547014" lon="13.327762083619692"><ele>9.0</ele><time>2026-04-04T12:03:13Z</time></trkpt><trkpt lat="41.29434785777368" lon="13.32744659421132"><ele>7.0</ele><time>2026-04-04T12:03:14Z</time></trkpt><trkpt lat="41.29436326067444" lon="13.327125322899693"><ele>5.5</ele><time>2026-04-04T12:03:15Z</time></trkpt><trkpt lat="41.29439172887819" lon="13.326801948226654"><ele>4.0</ele><time>2026-04-04T12:03:16Z</time></trkpt><trkpt lat="41.29443011098861" lon="13.326477141250088"><ele>4.0</ele><time>2026-04-04T12:03:17Z</time></trkpt><trkpt lat="41.29447458953507" lon="13.32615431617816"><ele>4.0</ele><time>2026-04-04T12:03:18Z</time></trkpt><trkpt lat="41.294524500372944" lon="13.325832363147383"><ele>4.5</ele><time>2026-04-04T12:03:19Z</time></trkpt><trkpt lat="41.2945806756562" lon="13.3255146182783"><ele>5.0</ele><time>2026-04-04T12:03:20Z</time></trkpt><trkpt lat="41.29463772830932" lon="13.325197737459922"><ele>5.0</ele><time>2026-04-04T12:03:21Z</time></trkpt><trkpt lat="41.294697109234086" lon="13.32488570336838"><ele>5.0</ele><time>2026-04-04T12:03:22Z</time></trkpt><trkpt lat="41.29474914997763" lon="13.324588319313458"><ele>3.0</ele><time>2026-04-04T12:03:23Z</time></trkpt><trkpt lat="41.29480424013592" lon="13.324296230297492"><ele>1.0</ele><time>2026-04-04T12:03:24Z</time></trkpt><trkpt lat="41.2948596027432" lon="13.324002706466537"><ele>2.0</ele><time>2026-04-04T12:03:25Z</time></trkpt><trkpt lat="41.29491520697291" lon="13.323705740405273"><ele>3.0</ele><time>2026-04-04T12:03:26Z</time></trkpt><trkpt lat="41.29496996971481" lon="13.323406035753003"><ele>3.0</ele><time>2026-04-04T12:03:27Z</time></trkpt><trkpt lat="41.29502567123708" lon="13.323104053814673"><ele>3.0</ele><time>2026-04-04T12:03:28Z</time></trkpt><trkpt lat="41.29508065906938" lon="13.322799057385469"><ele>3.5</ele><time>2026-04-04T12:03:29Z</time></trkpt><trkpt lat="41.295133403061904" lon="13.32249266819909"><ele>4.0</ele><time>2026-04-04T12:03:30Z</time></trkpt><trkpt lat="41.29518662205536" lon="13.32218669651299"><ele>5.0</ele><time>2026-04-04T12:03:31Z</time></trkpt><trkpt lat="41.295232092045" lon="13.3218864846502"><ele>6.0</ele><time>2026-04-04T12:03:32Z</time></trkpt><trkpt lat="41.29527328118439" lon="13.321595708246948"><ele>7.0</ele><time>2026-04-04T12:03:33Z</time></trkpt><trkpt lat="41.2953128370184" lon="13.321311806944774"><ele>8.0</ele><time>2026-04-04T12:03:34Z</time></trkpt><trkpt lat="41.29535156989002" lon="13.321029578577246"><ele>9.0</ele><time>2026-04-04T12:03:35Z</time></trkpt><trkpt lat="41.2953898071805" lon="13.320747111936887"><ele>9.666666666666666</ele><time>2026-04-04T12:03:36Z</time></trkpt><trkpt lat="41.2954222340218" lon="13.320460392239967"><ele>10.333333333333332</ele><time>2026-04-04T12:03:37Z</time></trkpt><trkpt lat="41.29545027399941" lon="13.32016155428367"><ele>11.0</ele><time>2026-04-04T12:03:38Z</time></trkpt><trkpt lat="41.29547659699318" lon="13.319849157621215"><ele>9.5</ele><time>2026-04-04T12:03:39Z</time></trkpt><trkpt lat="41.29550078261505" lon="13.319523160793713"><ele>8.0</ele><time>2026-04-04T12:03:40Z</time></trkpt><trkpt lat="41.295523715717096" lon="13.31918472533147"><ele>7.5</ele><time>2026-04-04T12:03:41Z</time></trkpt><trkpt lat="41.29554203111291" lon="13.318836285214473"><ele>7.0</ele><time>2026-04-04T12:03:42Z</time></trkpt><trkpt lat="41.29555824519577" lon="13.318482181760787"><ele>7.0</ele><time>2026-04-04T12:03:43Z</time></trkpt><trkpt lat="41.29557448739578" lon="13.318124924590633"><ele>7.0</ele><time>2026-04-04T12:03:44Z</time></trkpt><trkpt lat="41.295588219688604" lon="13.317764548947686"><ele>7.5</ele><time>2026-04-04T12:03:45Z</time></trkpt><trkpt lat="41.29560305196861" lon="13.317410737051128"><ele>8.0</ele><time>2026-04-04T12:03:46Z</time></trkpt><trkpt lat="41.295617618497836" lon="13.317056961509284"><ele>6.5</ele><time>2026-04-04T12:03:47Z</time></trkpt><trkpt lat="41.29563338579365" lon="13.31670189450503"><ele>5.0</ele><time>2026-04-04T12:03:48Z</time></trkpt><trkpt lat="41.29565237844413" lon="13.316348220429958"><ele>4.5</ele><time>2026-04-04T12:03:49Z</time></trkpt><trkpt lat="41.29567601586129" lon="13.315989334319358"><ele>4.0</ele><time>2026-04-04T12:03:50Z</time></trkpt><trkpt lat="41.29570695281221" lon="13.315631687718685"><ele>3.5</ele><time>2026-04-04T12:03:51Z</time></trkpt><trkpt lat="41.29573749534995" lon="13.315272719185314"><ele>3.0</ele><time>2026-04-04T12:03:52Z</time></trkpt><trkpt lat="41.29576935494368" lon="13.314917252106724"><ele>3.0</ele><time>2026-04-04T12:03:53Z</time></trkpt><trkpt lat="41.29580833957657" lon="13.314565488954537"><ele>3.0</ele><time>2026-04-04T12:03:54Z</time></trkpt><trkpt lat="41.295848912886214" lon="13.314217592516398"><ele>3.5</ele><time>2026-04-04T12:03:55Z</time></trkpt><trkpt lat="41.29589446862464" lon="13.313873895132932"><ele>4.0</ele><time>2026-04-04T12:03:56Z</time></trkpt><trkpt lat="41.29594350725428" lon="13.313538736291198"><ele>4.0</ele><time>2026-04-04T12:03:57Z</time></trkpt><trkpt lat="41.2959930830558" lon="13.313203802579409"><ele>4.0</ele><time>2026-04-04T12:03:58Z</time></trkpt><trkpt lat="41.29604405699113" lon="13.312875336214294"><ele>4.0</ele><time>2026-04-04T12:03:59Z</time></trkpt><trkpt lat="41.29609400512803" lon="13.31255172622973"><ele>4.0</ele><time>2026-04-04T12:04:00Z</time></trkpt><trkpt lat="41.29614135230971" lon="13.312226613155081"><ele>4.0</ele><time>2026-04-04T12:04:01Z</time></trkpt><trkpt lat="41.29618872282513" lon="13.311905566808502"><ele>4.0</ele><time>2026-04-04T12:04:02Z</time></trkpt><trkpt lat="41.29623815529008" lon="13.311583549815403"><ele>4.5</ele><time>2026-04-04T12:04:03Z</time></trkpt><trkpt lat="41.29628726333498" lon="13.31126217723604"><ele>5.0</ele><time>2026-04-04T12:04:04Z</time></trkpt><trkpt lat="41.29633788698041" lon="13.31094251831818"><ele>5.0</ele><time>2026-04-04T12:04:05Z</time></trkpt><trkpt lat="41.29638509729827" lon="13.31062594889863"><ele>5.0</ele><time>2026-04-04T12:04:06Z</time></trkpt><trkpt lat="41.2964308926803" lon="13.310310418224798"><ele>5.0</ele><time>2026-04-04T12:04:07Z</time></trkpt><trkpt lat="41.296477110594005" lon="13.309993398611729"><ele>5.0</ele><time>2026-04-04T12:04:08Z</time></trkpt><trkpt lat="41.29652700742076" lon="13.309675999582463"><ele>6.0</ele><time>2026-04-04T12:04:09Z</time></trkpt><trkpt lat="41.29657600248292" lon="13.309357774436613"><ele>7.0</ele><time>2026-04-04T12:04:10Z</time></trkpt><trkpt lat="41.29662473963883" lon="13.309038475526224"><ele>7.0</ele><time>2026-04-04T12:04:11Z</time></trkpt><trkpt lat="41.29667314263097" lon="13.308721499047248"><ele>7.0</ele><time>2026-04-04T12:04:12Z</time></trkpt><trkpt lat="41.296720163555385" lon="13.308403209594626"><ele>7.0</ele><time>2026-04-04T12:04:13Z</time></trkpt><trkpt lat="41.29676541798947" lon="13.308093977085598"><ele>7.0</ele><time>2026-04-04T12:04:14Z</time></trkpt><trkpt lat="41.29681060947933" lon="13.307814523808755"><ele>6.666666666666667</ele><time>2026-04-04T12:04:15Z</time></trkpt><trkpt lat="41.2968545217314" lon="13.307539203363032"><ele>6.333333333333334</ele><time>2026-04-04T12:04:16Z</time></trkpt><trkpt lat="41.296896761284145" lon="13.307267272960694"><ele>6.0</ele><time>2026-04-04T12:04:17Z</time></trkpt><trkpt lat="41.29693848227841" lon="13.307002769608193"><ele>6.0</ele><time>2026-04-04T12:04:18Z</time></trkpt><trkpt lat="41.29698043329423" lon="13.306737510516482"><ele>6.0</ele><time>2026-04-04T12:04:19Z</time></trkpt><trkpt lat="41.29701752788576" lon="13.306468068340049"><ele>6.0</ele><time>2026-04-04T12:04:20Z</time></trkpt><trkpt lat="41.297053987028995" lon="13.306195108351385"><ele>6.0</ele><time>2026-04-04T12:04:21Z</time></trkpt><trkpt lat="41.29709087271038" lon="13.305917057467296"><ele>6.0</ele><time>2026-04-04T12:04:22Z</time></trkpt><trkpt lat="41.29712955923334" lon="13.305637953678293"><ele>6.0</ele><time>2026-04-04T12:04:23Z</time></trkpt><trkpt lat="41.29717068488269" lon="13.30536505230965"><ele>5.666666666666667</ele><time>2026-04-04T12:04:24Z</time></trkpt><trkpt lat="41.29721564040154" lon="13.305088621459609"><ele>5.333333333333334</ele><time>2026-04-04T12:04:25Z</time></trkpt><trkpt lat="41.29726414713088" lon="13.304812646972637"><ele>5.0</ele><time>2026-04-04T12:04:26Z</time></trkpt><trkpt lat="41.29731590017019" lon="13.304538776317333"><ele>4.666666666666667</ele><time>2026-04-04T12:04:27Z</time></trkpt><trkpt lat="41.297371843412925" lon="13.304272589567068"><ele>4.333333333333333</ele><time>2026-04-04T12:04:28Z</time></trkpt><trkpt lat="41.29743286813428" lon="13.304034639643788"><ele>4.0</ele><time>2026-04-04T12:04:29Z</time></trkpt><trkpt lat="41.29749291880769" lon="13.303811179437782"><ele>4.0</ele><time>2026-04-04T12:04:30Z</time></trkpt><trkpt lat="41.29755478891672" lon="13.303595401022275"><ele>4.0</ele><time>2026-04-04T12:04:31Z</time></trkpt><trkpt lat="41.297617089040386" lon="13.303395545316118"><ele>4.0</ele><time>2026-04-04T12:04:32Z</time></trkpt><trkpt lat="41.297683449917464" lon="13.303216362363145"><ele>4.5</ele><time>2026-04-04T12:04:33Z</time></trkpt><trkpt lat="41.2977456658383" lon="13.303054187082617"><ele>5.0</ele><time>2026-04-04T12:04:34Z</time></trkpt><trkpt lat="41.2977932869519" lon="13.302906678685545"><ele>5.5</ele><time>2026-04-04T12:04:35Z</time></trkpt><trkpt lat="41.2978395093177" lon="13.302771865074583"><ele>6.0</ele><time>2026-04-04T12:04:36Z</time></trkpt><trkpt lat="41.29788882283839" lon="13.302632754371476"><ele>5.999999999999999</ele><time>2026-04-04T12:04:37Z</time></trkpt><trkpt lat="41.297921320991804" lon="13.302537726675046"><ele>6.0</ele><time>2026-04-04T12:04:38Z</time></trkpt><trkpt lat="41.29795286137093" lon="13.30245744074287"><ele>6.0</ele><time>2026-04-04T12:04:39Z</time></trkpt><trkpt lat="41.29798999574274" lon="13.302389272403182"><ele>6.0</ele><time>2026-04-04T12:04:40Z</time></trkpt><trkpt lat="41.29804281358886" lon="13.302312927761896"><ele>6.0</ele><time>2026-04-04T12:04:42Z</time></trkpt><trkpt lat="41.29807854621432" lon="13.302242587129133"><ele>5.999999999999999</ele><time>2026-04-04T12:04:45Z</time></trkpt><trkpt lat="41.2980884856794" lon="13.302128439120743"><ele>6.0</ele><time>2026-04-04T12:04:50Z</time></trkpt><trkpt lat="41.297999127557794" lon="13.301994224898849"><ele>6.199999999999999</ele><time>2026-04-04T12:04:52Z</time></trkpt><trkpt lat="41.297902718071576" lon="13.301951501120016"><ele>6.3999999999999995</ele><time>2026-04-04T12:04:53Z</time></trkpt><trkpt lat="41.29781297228874" lon="13.301919730290775"><ele>6.6</ele><time>2026-04-04T12:04:54Z</time></trkpt><trkpt lat="41.29772029074399" lon="13.301878884701871"><ele>6.8</ele><time>2026-04-04T12:04:55Z</time></trkpt><trkpt lat="41.29766149065892" lon="13.301831233387837"><ele>7.0</ele><time>2026-04-04T12:04:56Z</time></trkpt><trkpt lat="41.29761949257973" lon="13.301712366545974"><ele>7.0</ele><time>2026-04-04T12:04:58Z</time></trkpt><trkpt lat="41.29760755709122" lon="13.301599836292185"><ele>6.999999999999999</ele><time>2026-04-04T12:05:00Z</time></trkpt><trkpt lat="41.29761912629935" lon="13.301497353880006"><ele>6.999999999999999</ele><time>2026-04-04T12:05:01Z</time></trkpt><trkpt lat="41.297632520341786" lon="13.301321798991532"><ele>7.0</ele><time>2026-04-04T12:05:02Z</time></trkpt><trkpt lat="41.29765310971998" lon="13.301135646878347"><ele>7.0</ele><time>2026-04-04T12:05:03Z</time></trkpt><trkpt lat="41.2976734369828" lon="13.300951648404064"><ele>6.666666666666667</ele><time>2026-04-04T12:05:04Z</time></trkpt><trkpt lat="41.29771386699137" lon="13.300734009256667"><ele>6.333333333333334</ele><time>2026-04-04T12:05:05Z</time></trkpt><trkpt lat="41.2977219995401" lon="13.300516858160897"><ele>6.0</ele><time>2026-04-04T12:05:06Z</time></trkpt><trkpt lat="41.29774677197563" lon="13.300298665704641"><ele>6.666666666666666</ele><time>2026-04-04T12:05:07Z</time></trkpt><trkpt lat="41.29776982206547" lon="13.300095643366928"><ele>7.333333333333333</ele><time>2026-04-04T12:05:08Z</time></trkpt><trkpt lat="41.2977929581627" lon="13.299891863458603"><ele>8.0</ele><time>2026-04-04T12:05:09Z</time></trkpt><trkpt lat="41.29781719499302" lon="13.29967838855673"><ele>8.0</ele><time>2026-04-04T12:05:10Z</time></trkpt><trkpt lat="41.29783366391014" lon="13.299468623783946"><ele>8.0</ele><time>2026-04-04T12:05:11Z</time></trkpt><trkpt lat="41.29785517816712" lon="13.299227562345193"><ele>8.0</ele><time>2026-04-04T12:05:12Z</time></trkpt><trkpt lat="41.29788177562211" lon="13.298976797378451"><ele>7.666666666666666</ele><time>2026-04-04T12:05:13Z</time></trkpt><trkpt lat="41.297934987373154" lon="13.298715507577947"><ele>7.333333333333334</ele><time>2026-04-04T12:05:14Z</time></trkpt><trkpt lat="41.29795581321094" lon="13.29847655787331"><ele>7.0</ele><time>2026-04-04T12:05:15Z</time></trkpt><trkpt lat="41.297978381564825" lon="13.298251616172575"><ele>7.333333333333334</ele><time>2026-04-04T12:05:16Z</time></trkpt><trkpt lat="41.29799869211435" lon="13.29802025714078"><ele>7.666666666666666</ele><time>2026-04-04T12:05:17Z</time></trkpt><trkpt lat="41.298016867067105" lon="13.2977827535711"><ele>8.0</ele><time>2026-04-04T12:05:18Z</time></trkpt><trkpt lat="41.29802790305193" lon="13.297541906009307"><ele>8.0</ele><time>2026-04-04T12:05:19Z</time></trkpt><trkpt lat="41.298038649178906" lon="13.297299624873805"><ele>8.0</ele><time>2026-04-04T12:05:20Z</time></trkpt><trkpt lat="41.29805313116511" lon="13.297055432374739"><ele>8.0</ele><time>2026-04-04T12:05:21Z</time></trkpt><trkpt lat="41.29806658560786" lon="13.296816227321175"><ele>8.0</ele><time>2026-04-04T12:05:22Z</time></trkpt><trkpt lat="41.29807550602469" lon="13.29656755040012"><ele>8.0</ele><time>2026-04-04T12:05:23Z</time></trkpt><trkpt lat="41.29808086833309" lon="13.296313006517137"><ele>8.0</ele><time>2026-04-04T12:05:24Z</time></trkpt><trkpt lat="41.298088688121986" lon="13.296057017272837"><ele>8.0</ele><time>2026-04-04T12:05:25Z</time></trkpt><trkpt lat="41.29809344059443" lon="13.295797041270779"><ele>8.0</ele><time>2026-04-04T12:05:26Z</time></trkpt><trkpt lat="41.29810404623875" lon="13.295544237324172"><ele>8.0</ele><time>2026-04-04T12:05:27Z</time></trkpt><trkpt lat="41.29811398614411" lon="13.295295986205247"><ele>8.0</ele><time>2026-04-04T12:05:28Z</time></trkpt><trkpt lat="41.29812339527501" lon="13.295041583502933"><ele>8.0</ele><time>2026-04-04T12:05:29Z</time></trkpt><trkpt lat="41.29813238613437" lon="13.294784324553552"><ele>8.0</ele><time>2026-04-04T12:05:30Z</time></trkpt><trkpt lat="41.298142729342054" lon="13.294521520256078"><ele>8.0</ele><time>2026-04-04T12:05:31Z</time></trkpt><trkpt lat="41.298154158307455" lon="13.294258131293784"><ele>8.0</ele><time>2026-04-04T12:05:32Z</time></trkpt><trkpt lat="41.29816472293467" lon="13.293991112298635"><ele>8.0</ele><time>2026-04-04T12:05:33Z</time></trkpt><trkpt lat="41.298172010814525" lon="13.29372350039035"><ele>8.333333333333332</ele><time>2026-04-04T12:05:34Z</time></trkpt><trkpt lat="41.29817902237355" lon="13.293457469373074"><ele>8.666666666666666</ele><time>2026-04-04T12:05:35Z</time></trkpt><trkpt lat="41.29818747572483" lon="13.293184671199846"><ele>9.0</ele><time>2026-04-04T12:05:36Z</time></trkpt><trkpt lat="41.298195443546476" lon="13.292910785316272"><ele>9.0</ele><time>2026-04-04T12:05:37Z</time></trkpt><trkpt lat="41.29820471920815" lon="13.292635138886235"><ele>9.0</ele><time>2026-04-04T12:05:38Z</time></trkpt><trkpt lat="41.298213292241634" lon="13.292356962578591"><ele>9.0</ele><time>2026-04-04T12:05:39Z</time></trkpt><trkpt lat="41.29822456749862" lon="13.292077354770088"><ele>9.0</ele><time>2026-04-04T12:05:40Z</time></trkpt><trkpt lat="41.298234583696065" lon="13.291794812094997"><ele>9.0</ele><time>2026-04-04T12:05:41Z</time></trkpt><trkpt lat="41.2982431142202" lon="13.291514971811068"><ele>9.0</ele><time>2026-04-04T12:05:42Z</time></trkpt><trkpt lat="41.29825961092142" lon="13.291230496223696"><ele>8.666666666666666</ele><time>2026-04-04T12:05:43Z</time></trkpt><trkpt lat="41.29827563120866" lon="13.290948537452781"><ele>8.333333333333332</ele><time>2026-04-04T12:05:44Z</time></trkpt><trkpt lat="41.2982937284058" lon="13.290664141729142"><ele>8.0</ele><time>2026-04-04T12:05:45Z</time></trkpt><trkpt lat="41.298315068716086" lon="13.290378890725025"><ele>7.666666666666666</ele><time>2026-04-04T12:05:46Z</time></trkpt><trkpt lat="41.2983395009502" lon="13.290090020243927"><ele>7.333333333333334</ele><time>2026-04-04T12:05:47Z</time></trkpt><trkpt lat="41.298367327493764" lon="13.289797237868461"><ele>7.0</ele><time>2026-04-04T12:05:48Z</time></trkpt><trkpt lat="41.2983996045329" lon="13.289502084355481"><ele>6.0</ele><time>2026-04-04T12:05:49Z</time></trkpt><trkpt lat="41.298432548691444" lon="13.289205031871349"><ele>5.0</ele><time>2026-04-04T12:05:50Z</time></trkpt><trkpt lat="41.29846744345975" lon="13.288905981296436"><ele>4.5</ele><time>2026-04-04T12:05:51Z</time></trkpt><trkpt lat="41.29850358104993" lon="13.288604118148019"><ele>4.0</ele><time>2026-04-04T12:05:52Z</time></trkpt><trkpt lat="41.29853377761841" lon="13.288297636822117"><ele>5.5</ele><time>2026-04-04T12:05:53Z</time></trkpt><trkpt lat="41.2985757854753" lon="13.287993894360278"><ele>7.0</ele><time>2026-04-04T12:05:54Z</time></trkpt><trkpt lat="41.29861266558487" lon="13.287690990975806"><ele>7.0</ele><time>2026-04-04T12:05:55Z</time></trkpt><trkpt lat="41.29864779661359" lon="13.287388913880722"><ele>7.0</ele><time>2026-04-04T12:05:56Z</time></trkpt><trkpt lat="41.29868431532774" lon="13.28709401013032"><ele>7.0</ele><time>2026-04-04T12:05:57Z</time></trkpt><trkpt lat="41.29871992655798" lon="13.286795703101841"><ele>7.0</ele><time>2026-04-04T12:05:58Z</time></trkpt><trkpt lat="41.2987540734104" lon="13.286497899278446"><ele>7.666666666666667</ele><time>2026-04-04T12:05:59Z</time></trkpt><trkpt lat="41.29879124877368" lon="13.286207256004552"><ele>8.333333333333334</ele><time>2026-04-04T12:06:00Z</time></trkpt><trkpt lat="41.298826997563616" lon="13.285916827071663"><ele>9.0</ele><time>2026-04-04T12:06:01Z</time></trkpt><trkpt lat="41.298861823176175" lon="13.285627874910153"><ele>8.666666666666666</ele><time>2026-04-04T12:06:02Z</time></trkpt><trkpt lat="41.298895927908184" lon="13.285340617175008"><ele>8.333333333333332</ele><time>2026-04-04T12:06:03Z</time></trkpt><trkpt lat="41.29893104618099" lon="13.285049261358393"><ele>8.0</ele><time>2026-04-04T12:06:04Z</time></trkpt><trkpt lat="41.298964343147894" lon="13.284761047256541"><ele>7.666666666666666</ele><time>2026-04-04T12:06:05Z</time></trkpt><trkpt lat="41.29900046530582" lon="13.284477239061584"><ele>7.333333333333334</ele><time>2026-04-04T12:06:06Z</time></trkpt><trkpt lat="41.299034269069026" lon="13.284196702311242"><ele>7.0</ele><time>2026-04-04T12:06:07Z</time></trkpt><trkpt lat="41.299065269659025" lon="13.283925357709768"><ele>6.0</ele><time>2026-04-04T12:06:08Z</time></trkpt><trkpt lat="41.29909712986737" lon="13.283669685493958"><ele>5.0</ele><time>2026-04-04T12:06:09Z</time></trkpt><trkpt lat="41.299125362364094" lon="13.283411355685379"><ele>4.0</ele><time>2026-04-04T12:06:10Z</time></trkpt><trkpt lat="41.29915810972856" lon="13.283141012130402"><ele>3.333333333333333</ele><time>2026-04-04T12:06:11Z</time></trkpt><trkpt lat="41.29918823693134" lon="13.282865494567304"><ele>2.6666666666666665</ele><time>2026-04-04T12:06:12Z</time></trkpt><trkpt lat="41.299221413223684" lon="13.282606035924436"><ele>2.0</ele><time>2026-04-04T12:06:13Z</time></trkpt><trkpt lat="41.299254077841425" lon="13.282354578840492"><ele>2.6666666666666665</ele><time>2026-04-04T12:06:14Z</time></trkpt><trkpt lat="41.29928727180051" lon="13.282102230717774"><ele>3.333333333333333</ele><time>2026-04-04T12:06:15Z</time></trkpt><trkpt lat="41.29931626147896" lon="13.281850823558184"><ele>4.0</ele><time>2026-04-04T12:06:16Z</time></trkpt><trkpt lat="41.299347404972146" lon="13.281603598665951"><ele>4.333333333333333</ele><time>2026-04-04T12:06:17Z</time></trkpt><trkpt lat="41.29937752267549" lon="13.281358436124918"><ele>4.666666666666667</ele><time>2026-04-04T12:06:18Z</time></trkpt><trkpt lat="41.29940379315555" lon="13.281123034529264"><ele>5.0</ele><time>2026-04-04T12:06:19Z</time></trkpt><trkpt lat="41.2994288976298" lon="13.280887577393745"><ele>5.0</ele><time>2026-04-04T12:06:20Z</time></trkpt><trkpt lat="41.2994484646655" lon="13.280660902139143"><ele>5.0</ele><time>2026-04-04T12:06:21Z</time></trkpt><trkpt lat="41.29946237118973" lon="13.280431584183097"><ele>5.0</ele><time>2026-04-04T12:06:22Z</time></trkpt><trkpt lat="41.299469569835814" lon="13.280191452976666"><ele>5.333333333333334</ele><time>2026-04-04T12:06:23Z</time></trkpt><trkpt lat="41.29946542093592" lon="13.279960522133699"><ele>5.666666666666667</ele><time>2026-04-04T12:06:24Z</time></trkpt><trkpt lat="41.29945084724419" lon="13.279720365253354"><ele>6.0</ele><time>2026-04-04T12:06:25Z</time></trkpt><trkpt lat="41.29942481896649" lon="13.279464056191546"><ele>6.0</ele><time>2026-04-04T12:06:26Z</time></trkpt><trkpt lat="41.29939051489663" lon="13.279204275713159"><ele>6.0</ele><time>2026-04-04T12:06:27Z</time></trkpt><trkpt lat="41.29935041370192" lon="13.278945158375189"><ele>6.0</ele><time>2026-04-04T12:06:28Z</time></trkpt><trkpt lat="41.299298573943226" lon="13.278708325506022"><ele>7.0</ele><time>2026-04-04T12:06:29Z</time></trkpt><trkpt lat="41.29924516031906" lon="13.278481613113753"><ele>8.0</ele><time>2026-04-04T12:06:30Z</time></trkpt><trkpt lat="41.29919546186298" lon="13.278270150267298"><ele>9.0</ele><time>2026-04-04T12:06:31Z</time></trkpt><trkpt lat="41.29913577249506" lon="13.278087034890495"><ele>8.25</ele><time>2026-04-04T12:06:32Z</time></trkpt><trkpt lat="41.299077582151966" lon="13.277925055555734"><ele>7.5</ele><time>2026-04-04T12:06:33Z</time></trkpt><trkpt lat="41.29901191253519" lon="13.277765104430133"><ele>6.75</ele><time>2026-04-04T12:06:34Z</time></trkpt><trkpt lat="41.298938862053646" lon="13.2775920987162"><ele>6.0</ele><time>2026-04-04T12:06:35Z</time></trkpt><trkpt lat="41.298861198268796" lon="13.277409874290855"><ele>9.333333333333332</ele><time>2026-04-04T12:06:36Z</time></trkpt><trkpt lat="41.29877510063042" lon="13.27722188254634"><ele>12.666666666666666</ele><time>2026-04-04T12:06:37Z</time></trkpt><trkpt lat="41.298683147028555" lon="13.277028389486603"><ele>16.0</ele><time>2026-04-04T12:06:38Z</time></trkpt><trkpt lat="41.29858536858609" lon="13.276823759156661"><ele>16.0</ele><time>2026-04-04T12:06:39Z</time></trkpt><trkpt lat="41.29847851609187" lon="13.276610518069369"><ele>16.0</ele><time>2026-04-04T12:06:40Z</time></trkpt><trkpt lat="41.29836513267865" lon="13.276401011831549"><ele>16.0</ele><time>2026-04-04T12:06:41Z</time></trkpt><trkpt lat="41.298249219535776" lon="13.276200222766168"><ele>15.666666666666666</ele><time>2026-04-04T12:06:42Z</time></trkpt><trkpt lat="41.29812584797974" lon="13.27599928860222"><ele>15.333333333333332</ele><time>2026-04-04T12:06:43Z</time></trkpt><trkpt lat="41.29800421317446" lon="13.275793140183756"><ele>15.0</ele><time>2026-04-04T12:06:44Z</time></trkpt><trkpt lat="41.297894041701916" lon="13.275586785525487"><ele>15.0</ele><time>2026-04-04T12:06:45Z</time></trkpt><trkpt lat="41.29779723876296" lon="13.275378816749908"><ele>15.0</ele><time>2026-04-04T12:06:46Z</time></trkpt><trkpt lat="41.29772085724167" lon="13.27515462650144"><ele>15.0</ele><time>2026-04-04T12:06:47Z</time></trkpt><trkpt lat="41.297663115716425" lon="13.274914772995807"><ele>15.666666666666668</ele><time>2026-04-04T12:06:48Z</time></trkpt><trkpt lat="41.29762073500699" lon="13.274659249832412"><ele>16.333333333333336</ele><time>2026-04-04T12:06:49Z</time></trkpt><trkpt lat="41.29759018331989" lon="13.274396488214865"><ele>17.0</ele><time>2026-04-04T12:06:50Z</time></trkpt><trkpt lat="41.297558332784455" lon="13.274129034222538"><ele>16.0</ele><time>2026-04-04T12:06:51Z</time></trkpt><trkpt lat="41.297528980239136" lon="13.273877227311273"><ele>15.0</ele><time>2026-04-04T12:06:52Z</time></trkpt><trkpt lat="41.297497358262" lon="13.273652576338142"><ele>14.0</ele><time>2026-04-04T12:06:53Z</time></trkpt><trkpt lat="41.29746464900073" lon="13.273422411279954"><ele>14.0</ele><time>2026-04-04T12:06:54Z</time></trkpt><trkpt lat="41.29743518302378" lon="13.273184492306774"><ele>14.0</ele><time>2026-04-04T12:06:55Z</time></trkpt><trkpt lat="41.29740964799313" lon="13.272938101441905"><ele>14.0</ele><time>2026-04-04T12:06:56Z</time></trkpt><trkpt lat="41.297376956638004" lon="13.272681636149771"><ele>13.666666666666668</ele><time>2026-04-04T12:06:57Z</time></trkpt><trkpt lat="41.297340641493015" lon="13.272408871774829"><ele>13.333333333333332</ele><time>2026-04-04T12:06:58Z</time></trkpt><trkpt lat="41.29731301836599" lon="13.272130835956577"><ele>13.0</ele><time>2026-04-04T12:06:59Z</time></trkpt><trkpt lat="41.2972959258485" lon="13.271851415580041"><ele>13.0</ele><time>2026-04-04T12:07:00Z</time></trkpt><trkpt lat="41.29728856121449" lon="13.271576419302196"><ele>13.0</ele><time>2026-04-04T12:07:01Z</time></trkpt><trkpt lat="41.297277551195194" lon="13.271309584221067"><ele>13.0</ele><time>2026-04-04T12:07:02Z</time></trkpt><trkpt lat="41.29725308580339" lon="13.271043131109261"><ele>11.333333333333332</ele><time>2026-04-04T12:07:03Z</time></trkpt><trkpt lat="41.2972091577289" lon="13.27078165610204"><ele>9.666666666666666</ele><time>2026-04-04T12:07:04Z</time></trkpt><trkpt lat="41.297149685865634" lon="13.270521423918852"><ele>8.0</ele><time>2026-04-04T12:07:05Z</time></trkpt><trkpt lat="41.297085604471356" lon="13.27026786598057"><ele>8.0</ele><time>2026-04-04T12:07:06Z</time></trkpt><trkpt lat="41.297018561491846" lon="13.270016636920683"><ele>8.0</ele><time>2026-04-04T12:07:07Z</time></trkpt><trkpt lat="41.296938506148734" lon="13.269761582290013"><ele>8.0</ele><time>2026-04-04T12:07:08Z</time></trkpt><trkpt lat="41.2968305286808" lon="13.269515026140407"><ele>11.333333333333332</ele><time>2026-04-04T12:07:09Z</time></trkpt><trkpt lat="41.29671622294344" lon="13.269274773174502"><ele>14.666666666666666</ele><time>2026-04-04T12:07:10Z</time></trkpt><trkpt lat="41.296599942428" lon="13.269061595424217"><ele>18.0</ele><time>2026-04-04T12:07:11Z</time></trkpt><trkpt lat="41.29650368042897" lon="13.268850734168838"><ele>15.666666666666666</ele><time>2026-04-04T12:07:12Z</time></trkpt><trkpt lat="41.296418830116465" lon="13.268618565965475"><ele>13.333333333333332</ele><time>2026-04-04T12:07:13Z</time></trkpt><trkpt lat="41.29636425246957" lon="13.268360403483596"><ele>11.0</ele><time>2026-04-04T12:07:14Z</time></trkpt><trkpt lat="41.296306210380905" lon="13.268106483821628"><ele>11.0</ele><time>2026-04-04T12:07:15Z</time></trkpt><trkpt lat="41.29624415250325" lon="13.267854865013025"><ele>11.0</ele><time>2026-04-04T12:07:16Z</time></trkpt><trkpt lat="41.2961578611395" lon="13.26761045365543"><ele>11.0</ele><time>2026-04-04T12:07:17Z</time></trkpt><trkpt lat="41.29604793446889" lon="13.267371301385754"><ele>17.5</ele><time>2026-04-04T12:07:18Z</time></trkpt><trkpt lat="41.295912220265556" lon="13.267138264624665"><ele>24.0</ele><time>2026-04-04T12:07:19Z</time></trkpt><trkpt lat="41.295766328292075" lon="13.266900365161709"><ele>24.0</ele><time>2026-04-04T12:07:20Z</time></trkpt><trkpt lat="41.29562959033966" lon="13.266663658466841"><ele>24.0</ele><time>2026-04-04T12:07:21Z</time></trkpt><trkpt lat="41.29549769982133" lon="13.26642778407787"><ele>24.0</ele><time>2026-04-04T12:07:22Z</time></trkpt><trkpt lat="41.29536345877255" lon="13.266204652619479"><ele>22.333333333333332</ele><time>2026-04-04T12:07:23Z</time></trkpt><trkpt lat="41.29520869856327" lon="13.266019337120127"><ele>20.666666666666664</ele><time>2026-04-04T12:07:24Z</time></trkpt><trkpt lat="41.2950365233128" lon="13.265862912477056"><ele>19.0</ele><time>2026-04-04T12:07:25Z</time></trkpt><trkpt lat="41.294860904029875" lon="13.265704742960406"><ele>21.0</ele><time>2026-04-04T12:07:26Z</time></trkpt><trkpt lat="41.294682822696224" lon="13.265550726016667"><ele>23.0</ele><time>2026-04-04T12:07:27Z</time></trkpt><trkpt lat="41.294488743386246" lon="13.265426899008002"><ele>25.0</ele><time>2026-04-04T12:07:28Z</time></trkpt><trkpt lat="41.29427975399726" lon="13.265333300945278"><ele>25.0</ele><time>2026-04-04T12:07:29Z</time></trkpt><trkpt lat="41.29406847374275" lon="13.265242431872647"><ele>25.0</ele><time>2026-04-04T12:07:30Z</time></trkpt><trkpt lat="41.29385672452765" lon="13.265154240261957"><ele>25.0</ele><time>2026-04-04T12:07:31Z</time></trkpt><trkpt lat="41.29364975492485" lon="13.265062363020668"><ele>22.666666666666668</ele><time>2026-04-04T12:07:32Z</time></trkpt><trkpt lat="41.293442830287" lon="13.264977841420224"><ele>20.333333333333336</ele><time>2026-04-04T12:07:33Z</time></trkpt><trkpt lat="41.29323212295142" lon="13.264922052421223"><ele>18.0</ele><time>2026-04-04T12:07:34Z</time></trkpt><trkpt lat="41.29301611351158" lon="13.264898254322967"><ele>17.333333333333332</ele><time>2026-04-04T12:07:35Z</time></trkpt><trkpt lat="41.29280235327347" lon="13.264882028257551"><ele>16.666666666666664</ele><time>2026-04-04T12:07:36Z</time></trkpt><trkpt lat="41.29258894446802" lon="13.264870463370666"><ele>16.0</ele><time>2026-04-04T12:07:37Z</time></trkpt><trkpt lat="41.292374161844286" lon="13.264858387823086"><ele>15.333333333333332</ele><time>2026-04-04T12:07:38Z</time></trkpt><trkpt lat="41.29216136757799" lon="13.264845093844588"><ele>14.666666666666668</ele><time>2026-04-04T12:07:39Z</time></trkpt><trkpt lat="41.29195060781279" lon="13.264834411112329"><ele>14.0</ele><time>2026-04-04T12:07:40Z</time></trkpt><trkpt lat="41.29174562611103" lon="13.264827143117753"><ele>14.0</ele><time>2026-04-04T12:07:41Z</time></trkpt><trkpt lat="41.29155310810279" lon="13.264814799932216"><ele>14.0</ele><time>2026-04-04T12:07:42Z</time></trkpt><trkpt lat="41.291364602451026" lon="13.264798820534427"><ele>14.0</ele><time>2026-04-04T12:07:43Z</time></trkpt><trkpt lat="41.291170120565056" lon="13.264762311395412"><ele>20.666666666666668</ele><time>2026-04-04T12:07:44Z</time></trkpt><trkpt lat="41.29097856110902" lon="13.2647035514712"><ele>27.333333333333336</ele><time>2026-04-04T12:07:45Z</time></trkpt><trkpt lat="41.29079542440494" lon="13.264627151516063"><ele>34.0</ele><time>2026-04-04T12:07:46Z</time></trkpt><trkpt lat="41.290632760324165" lon="13.264549993485158"><ele>28.333333333333336</ele><time>2026-04-04T12:07:47Z</time></trkpt><trkpt lat="41.29048505467502" lon="13.264473214398167"><ele>22.666666666666668</ele><time>2026-04-04T12:07:48Z</time></trkpt><trkpt lat="41.29034493447728" lon="13.264410426640714"><ele>17.0</ele><time>2026-04-04T12:07:49Z</time></trkpt><trkpt lat="41.29020770041663" lon="13.264347471028765"><ele>17.0</ele><time>2026-04-04T12:07:50Z</time></trkpt><trkpt lat="41.29007696359457" lon="13.264260697840035"><ele>17.0</ele><time>2026-04-04T12:07:51Z</time></trkpt><trkpt lat="41.28996142550211" lon="13.264138795833178"><ele>17.0</ele><time>2026-04-04T12:07:52Z</time></trkpt><trkpt lat="41.28984502280704" lon="13.263985992925702"><ele>14.666666666666668</ele><time>2026-04-04T12:07:53Z</time></trkpt><trkpt lat="41.28973152549339" lon="13.263814453275344"><ele>12.333333333333334</ele><time>2026-04-04T12:07:54Z</time></trkpt><trkpt lat="41.289617307003134" lon="13.263626706657384"><ele>10.0</ele><time>2026-04-04T12:07:55Z</time></trkpt><trkpt lat="41.28949580058917" lon="13.26343644727505"><ele>10.0</ele><time>2026-04-04T12:07:56Z</time></trkpt><trkpt lat="41.28936975259704" lon="13.263272102893536"><ele>10.0</ele><time>2026-04-04T12:07:57Z</time></trkpt><trkpt lat="41.289236808404496" lon="13.26314527343229"><ele>10.0</ele><time>2026-04-04T12:07:58Z</time></trkpt><trkpt lat="41.28909017785416" lon="13.263036038985303"><ele>11.0</ele><time>2026-04-04T12:07:59Z</time></trkpt><trkpt lat="41.28895186725849" lon="13.262926384292662"><ele>12.0</ele><time>2026-04-04T12:08:00Z</time></trkpt><trkpt lat="41.28882573490146" lon="13.262818565921123"><ele>13.0</ele><time>2026-04-04T12:08:01Z</time></trkpt><trkpt lat="41.28871036821104" lon="13.26269792349419"><ele>13.0</ele><time>2026-04-04T12:08:02Z</time></trkpt><trkpt lat="41.2886114980861" lon="13.262568096223292"><ele>13.0</ele><time>2026-04-04T12:08:03Z</time></trkpt><trkpt lat="41.28852409213472" lon="13.262416732624521"><ele>13.0</ele><time>2026-04-04T12:08:04Z</time></trkpt><trkpt lat="41.28845407156462" lon="13.262251873138037"><ele>13.0</ele><time>2026-04-04T12:08:05Z</time></trkpt><trkpt lat="41.28839882515505" lon="13.2620738331092"><ele>13.0</ele><time>2026-04-04T12:08:06Z</time></trkpt><trkpt lat="41.28835396471575" lon="13.261902305175926"><ele>13.0</ele><time>2026-04-04T12:08:07Z</time></trkpt><trkpt lat="41.28831693998169" lon="13.26174871182193"><ele>13.0</ele><time>2026-04-04T12:08:08Z</time></trkpt><trkpt lat="41.28828397903673" lon="13.261607268574263"><ele>13.0</ele><time>2026-04-04T12:08:09Z</time></trkpt><trkpt lat="41.288254555571704" lon="13.261473149335032"><ele>13.4</ele><time>2026-04-04T12:08:10Z</time></trkpt><trkpt lat="41.288225737032434" lon="13.261340708227673"><ele>13.8</ele><time>2026-04-04T12:08:11Z</time></trkpt><trkpt lat="41.28819985343817" lon="13.261203431363159"><ele>14.2</ele><time>2026-04-04T12:08:12Z</time></trkpt><trkpt lat="41.28817835613056" lon="13.261062242119678"><ele>14.6</ele><time>2026-04-04T12:08:13Z</time></trkpt><trkpt lat="41.288160423600104" lon="13.260918927523274"><ele>15.0</ele><time>2026-04-04T12:08:14Z</time></trkpt><trkpt lat="41.28814373618034" lon="13.260786615931693"><ele>15.0</ele><time>2026-04-04T12:08:15Z</time></trkpt><trkpt lat="41.2881288854289" lon="13.260671495788579"><ele>15.0</ele><time>2026-04-04T12:08:16Z</time></trkpt><trkpt lat="41.28810925220168" lon="13.260555872248858"><ele>15.0</ele><time>2026-04-04T12:08:17Z</time></trkpt><trkpt lat="41.288088124230235" lon="13.260428868344468"><ele>15.0</ele><time>2026-04-04T12:08:18Z</time></trkpt><trkpt lat="41.288063769867705" lon="13.260299748590633"><ele>15.0</ele><time>2026-04-04T12:08:19Z</time></trkpt><trkpt lat="41.28803231314655" lon="13.26017340627462"><ele>13.2</ele><time>2026-04-04T12:08:20Z</time></trkpt><trkpt lat="41.287996370253275" lon="13.260050938121882"><ele>11.4</ele><time>2026-04-04T12:08:21Z</time></trkpt><trkpt lat="41.28795586267883" lon="13.259923166273412"><ele>9.6</ele><time>2026-04-04T12:08:22Z</time></trkpt><trkpt lat="41.28791511332455" lon="13.259782422191662"><ele>7.8</ele><time>2026-04-04T12:08:23Z</time></trkpt><trkpt lat="41.28787100725094" lon="13.259637061849087"><ele>6.0</ele><time>2026-04-04T12:08:24Z</time></trkpt><trkpt lat="41.28782684444604" lon="13.259489158252613"><ele>6.0</ele><time>2026-04-04T12:08:25Z</time></trkpt><trkpt lat="41.28778540159246" lon="13.25934375308007"><ele>6.0</ele><time>2026-04-04T12:08:26Z</time></trkpt><trkpt lat="41.28774299895688" lon="13.259204762878117"><ele>6.0</ele><time>2026-04-04T12:08:27Z</time></trkpt><trkpt lat="41.28770403233487" lon="13.259076999493503"><ele>6.0</ele><time>2026-04-04T12:08:28Z</time></trkpt><trkpt lat="41.28766897029881" lon="13.258967788096792"><ele>6.0</ele><time>2026-04-04T12:08:29Z</time></trkpt><trkpt lat="41.28763781990861" lon="13.25886941983031"><ele>5.666666666666667</ele><time>2026-04-04T12:08:30Z</time></trkpt><trkpt lat="41.28761032180096" lon="13.258780713177286"><ele>5.333333333333333</ele><time>2026-04-04T12:08:31Z</time></trkpt><trkpt lat="41.287577014975525" lon="13.25868040305527"><ele>5.0</ele><time>2026-04-04T12:08:32Z</time></trkpt><trkpt lat="41.2875419169114" lon="13.258572496652334"><ele>4.666666666666666</ele><time>2026-04-04T12:08:33Z</time></trkpt><trkpt lat="41.28750870181886" lon="13.258465256368014"><ele>4.333333333333333</ele><time>2026-04-04T12:08:34Z</time></trkpt><trkpt lat="41.287479034955744" lon="13.258372485773824"><ele>4.0</ele><time>2026-04-04T12:08:35Z</time></trkpt><trkpt lat="41.28744731257651" lon="13.258273130697626"><ele>4.0</ele><time>2026-04-04T12:08:36Z</time></trkpt><trkpt lat="41.28741428773448" lon="13.258164347844424"><ele>4.0</ele><time>2026-04-04T12:08:37Z</time></trkpt><trkpt lat="41.28737994571143" lon="13.258049541690475"><ele>4.0</ele><time>2026-04-04T12:08:38Z</time></trkpt><trkpt lat="41.28734682359568" lon="13.257940415979222"><ele>4.0</ele><time>2026-04-04T12:08:39Z</time></trkpt><trkpt lat="41.28730835142474" lon="13.2578207053088"><ele>4.0</ele><time>2026-04-04T12:08:40Z</time></trkpt><trkpt lat="41.28726924290102" lon="13.25769530023479"><ele>4.0</ele><time>2026-04-04T12:08:41Z</time></trkpt><trkpt lat="41.287231107694474" lon="13.25756640685009"><ele>4.0</ele><time>2026-04-04T12:08:42Z</time></trkpt><trkpt lat="41.28719229453484" lon="13.257427255924298"><ele>4.0</ele><time>2026-04-04T12:08:43Z</time></trkpt><trkpt lat="41.28716845689084" lon="13.257284934997775"><ele>4.0</ele><time>2026-04-04T12:08:44Z</time></trkpt><trkpt lat="41.28716958104568" lon="13.257136716736456"><ele>4.0</ele><time>2026-04-04T12:08:45Z</time></trkpt><trkpt lat="41.28719315981966" lon="13.25699749641707"><ele>4.4</ele><time>2026-04-04T12:08:46Z</time></trkpt><trkpt lat="41.287231710006026" lon="13.256867680379393"><ele>4.800000000000001</ele><time>2026-04-04T12:08:47Z</time></trkpt><trkpt lat="41.28727401107913" lon="13.256755766958102"><ele>5.199999999999999</ele><time>2026-04-04T12:08:48Z</time></trkpt><trkpt lat="41.28731174194097" lon="13.256655914730883"><ele>5.6</ele><time>2026-04-04T12:08:49Z</time></trkpt><trkpt lat="41.2873502784722" lon="13.256553040454463"><ele>6.0</ele><time>2026-04-04T12:08:50Z</time></trkpt><trkpt lat="41.287389895101825" lon="13.256450602048018"><ele>6.666666666666667</ele><time>2026-04-04T12:08:51Z</time></trkpt><trkpt lat="41.28743135039073" lon="13.256348829602151"><ele>7.333333333333334</ele><time>2026-04-04T12:08:52Z</time></trkpt><trkpt lat="41.28747185445656" lon="13.256242190616984"><ele>8.0</ele><time>2026-04-04T12:08:53Z</time></trkpt><trkpt lat="41.28750921415683" lon="13.256130535371684"><ele>8.666666666666668</ele><time>2026-04-04T12:08:54Z</time></trkpt><trkpt lat="41.287552521010525" lon="13.256021643323393"><ele>9.333333333333334</ele><time>2026-04-04T12:08:55Z</time></trkpt><trkpt lat="41.287593685537374" lon="13.255925111260037"><ele>10.0</ele><time>2026-04-04T12:08:56Z</time></trkpt><trkpt lat="41.28763479894529" lon="13.255831170935785"><ele>10.0</ele><time>2026-04-04T12:08:57Z</time></trkpt><trkpt lat="41.28767752610558" lon="13.255722556363486"><ele>10.0</ele><time>2026-04-04T12:08:58Z</time></trkpt><trkpt lat="41.28772624105411" lon="13.255612887185983"><ele>10.0</ele><time>2026-04-04T12:08:59Z</time></trkpt><trkpt lat="41.28778312012843" lon="13.255512072958451"><ele>10.0</ele><time>2026-04-04T12:09:00Z</time></trkpt><trkpt lat="41.287848638215955" lon="13.255434541628023"><ele>10.0</ele><time>2026-04-04T12:09:01Z</time></trkpt><trkpt lat="41.28790401076291" lon="13.255371229448935"><ele>10.0</ele><time>2026-04-04T12:09:02Z</time></trkpt><trkpt lat="41.28794211451562" lon="13.255226862736256"><ele>10.0</ele><time>2026-04-04T12:09:04Z</time></trkpt><trkpt lat="41.28788080623895" lon="13.25511856400882"><ele>10.0</ele><time>2026-04-04T12:09:06Z</time></trkpt><trkpt lat="41.28775498266157" lon="13.25515817795428"><ele>10.0</ele><time>2026-04-04T12:09:08Z</time></trkpt><trkpt lat="41.28771705972472" lon="13.255256645853942"><ele>10.0</ele><time>2026-04-04T12:09:09Z</time></trkpt><trkpt lat="41.287701442178744" lon="13.255389965017708"><ele>10.0</ele><time>2026-04-04T12:09:10Z</time></trkpt><trkpt lat="41.287683840771386" lon="13.255536988712775"><ele>10.0</ele><time>2026-04-04T12:09:11Z</time></trkpt><trkpt lat="41.28766217481671" lon="13.255680704484117"><ele>10.0</ele><time>2026-04-04T12:09:12Z</time></trkpt><trkpt lat="41.28759618742467" lon="13.255805801876546"><ele>10.0</ele><time>2026-04-04T12:09:13Z</time></trkpt><trkpt lat="41.2875469944561" lon="13.255922710868788"><ele>10.0</ele><time>2026-04-04T12:09:14Z</time></trkpt><trkpt lat="41.28750112463602" lon="13.256036519200654"><ele>10.0</ele><time>2026-04-04T12:09:15Z</time></trkpt><trkpt lat="41.28745993402904" lon="13.256138357297328"><ele>10.0</ele><time>2026-04-04T12:09:16Z</time></trkpt><trkpt lat="41.28742843139717" lon="13.256224402808222"><ele>10.0</ele><time>2026-04-04T12:09:17Z</time></trkpt><trkpt lat="41.28739679078396" lon="13.256300432170317"><ele>10.0</ele><time>2026-04-04T12:09:18Z</time></trkpt><trkpt lat="41.28736308217757" lon="13.25638111260992"><ele>10.0</ele><time>2026-04-04T12:09:19Z</time></trkpt><trkpt lat="41.28732577128399" lon="13.256463995459491"><ele>10.0</ele><time>2026-04-04T12:09:20Z</time></trkpt><trkpt lat="41.2872877818195" lon="13.25655107358768"><ele>10.0</ele><time>2026-04-04T12:09:21Z</time></trkpt><trkpt lat="41.28725061283446" lon="13.256624477646826"><ele>10.0</ele><time>2026-04-04T12:09:22Z</time></trkpt><trkpt lat="41.28718011894251" lon="13.256726720835957"><ele>9.333333333333334</ele><time>2026-04-04T12:09:24Z</time></trkpt><trkpt lat="41.2871507175981" lon="13.256815019817587"><ele>8.666666666666668</ele><time>2026-04-04T12:09:26Z</time></trkpt><trkpt lat="41.28712121019574" lon="13.25689187762638"><ele>8.0</ele><time>2026-04-04T12:09:28Z</time></trkpt><trkpt lat="41.287035250663585" lon="13.256927889749036"><ele>7.333333333333334</ele><time>2026-04-04T12:10:43Z</time></trkpt><trkpt lat="41.286998788882954" lon="13.25702355152434"><ele>6.666666666666667</ele><time>2026-04-04T12:10:47Z</time></trkpt><trkpt lat="41.28691882803654" lon="13.257096029134624"><ele>6.0</ele><time>2026-04-04T12:10:49Z</time></trkpt><trkpt lat="41.28679591941392" lon="13.257077178720053"><ele>6.0</ele><time>2026-04-04T12:10:51Z</time></trkpt><trkpt lat="41.2867219005796" lon="13.257085286649405"><ele>6.0</ele><time>2026-04-04T12:10:52Z</time></trkpt><trkpt lat="41.2866571071999" lon="13.257002220099787"><ele>6.0</ele><time>2026-04-04T12:10:53Z</time></trkpt><trkpt lat="41.286584930687695" lon="13.256940472028518"><ele>6.0</ele><time>2026-04-04T12:10:54Z</time></trkpt><trkpt lat="41.28651456639623" lon="13.256867195691473"><ele>6.0</ele><time>2026-04-04T12:10:55Z</time></trkpt><trkpt lat="41.286446577574345" lon="13.256794590625189"><ele>6.0</ele><time>2026-04-04T12:10:56Z</time></trkpt><trkpt lat="41.28638081668797" lon="13.25673252282378"><ele>6.5</ele><time>2026-04-04T12:10:57Z</time></trkpt><trkpt lat="41.28631963340019" lon="13.256681304208632"><ele>7.0</ele><time>2026-04-04T12:10:58Z</time></trkpt><trkpt lat="41.286266173786785" lon="13.256617214251017"><ele>7.5</ele><time>2026-04-04T12:10:59Z</time></trkpt><trkpt lat="41.28620497269458" lon="13.256557394766524"><ele>8.0</ele><time>2026-04-04T12:11:00Z</time></trkpt><trkpt lat="41.286126403520385" lon="13.256500421206844"><ele>8.5</ele><time>2026-04-04T12:11:01Z</time></trkpt><trkpt lat="41.28606254370775" lon="13.256428576410267"><ele>9.0</ele><time>2026-04-04T12:11:02Z</time></trkpt><trkpt lat="41.28599465443724" lon="13.256358066048888"><ele>9.0</ele><time>2026-04-04T12:11:04Z</time></trkpt><trkpt lat="41.28593457821643" lon="13.256315527019295"><ele>9.0</ele><time>2026-04-04T12:11:06Z</time></trkpt><trkpt lat="41.28601509625374" lon="13.256111377604372"><ele>9.0</ele><time>2026-04-04T12:11:08Z</time></trkpt><trkpt lat="41.28604502537525" lon="13.256032488607383"><ele>9.0</ele><time>2026-04-04T12:11:09Z</time></trkpt><trkpt lat="41.286078029720265" lon="13.255953682538966"><ele>9.0</ele><time>2026-04-04T12:11:10Z</time></trkpt><trkpt lat="41.28612014055612" lon="13.255882453252703"><ele>9.0</ele><time>2026-04-04T12:11:11Z</time></trkpt><trkpt lat="41.28615935556986" lon="13.255764291173758"><ele>9.5</ele><time>2026-04-04T12:11:13Z</time></trkpt><trkpt lat="41.286220835973936" lon="13.255602087181154"><ele>10.0</ele><time>2026-04-04T12:11:15Z</time></trkpt><trkpt lat="41.286264819780136" lon="13.255527779693136"><ele>10.5</ele><time>2026-04-04T12:11:16Z</time></trkpt><trkpt lat="41.28632585272063" lon="13.255320434018044"><ele>11.0</ele><time>2026-04-04T12:11:17Z</time></trkpt><trkpt lat="41.28638731692306" lon="13.25515549509859"><ele>11.0</ele><time>2026-04-04T12:11:18Z</time></trkpt><trkpt lat="41.28644388047561" lon="13.255005800298076"><ele>11.0</ele><time>2026-04-04T12:11:19Z</time></trkpt><trkpt lat="41.286491527461756" lon="13.254879704131582"><ele>11.0</ele><time>2026-04-04T12:11:20Z</time></trkpt><trkpt lat="41.28652248455196" lon="13.25479860200833"><ele>11.0</ele><time>2026-04-04T12:11:21Z</time></trkpt><trkpt lat="41.28656007018373" lon="13.254699628071274"><ele>11.0</ele><time>2026-04-04T12:11:22Z</time></trkpt><trkpt lat="41.28660098234563" lon="13.254591894348373"><ele>10.600000000000001</ele><time>2026-04-04T12:11:23Z</time></trkpt><trkpt lat="41.28664722974306" lon="13.254470111372704"><ele>10.200000000000001</ele><time>2026-04-04T12:11:24Z</time></trkpt><trkpt lat="41.28669509970581" lon="13.254344055828282"><ele>9.8</ele><time>2026-04-04T12:11:25Z</time></trkpt><trkpt lat="41.28673658120386" lon="13.254234822809538"><ele>9.4</ele><time>2026-04-04T12:11:26Z</time></trkpt><trkpt lat="41.28679190640948" lon="13.254089135432336"><ele>9.0</ele><time>2026-04-04T12:11:28Z</time></trkpt><trkpt lat="41.2868064659366" lon="13.254000430432871"><ele>9.0</ele><time>2026-04-04T12:11:30Z</time></trkpt><trkpt lat="41.28673812985917" lon="13.254042965075817"><ele>9.0</ele><time>2026-04-04T12:11:31Z</time></trkpt><trkpt lat="41.286648026347436" lon="13.253983813081092"><ele>9.0</ele><time>2026-04-04T12:11:32Z</time></trkpt><trkpt lat="41.28652434072977" lon="13.253900680168979"><ele>9.0</ele><time>2026-04-04T12:11:33Z</time></trkpt><trkpt lat="41.28642761219934" lon="13.2538330611875"><ele>9.0</ele><time>2026-04-04T12:11:34Z</time></trkpt><trkpt lat="41.28634559446888" lon="13.253772006486573"><ele>8.166666666666666</ele><time>2026-04-04T12:11:35Z</time></trkpt><trkpt lat="41.28628223549598" lon="13.253715007288783"><ele>7.333333333333333</ele><time>2026-04-04T12:11:36Z</time></trkpt><trkpt lat="41.28623697667738" lon="13.253625248680796"><ele>6.5</ele><time>2026-04-04T12:11:38Z</time></trkpt><trkpt lat="41.286194582361595" lon="13.253474962165278"><ele>5.666666666666666</ele><time>2026-04-04T12:11:40Z</time></trkpt><trkpt lat="41.286163381403156" lon="13.253391080955549"><ele>4.833333333333333</ele><time>2026-04-04T12:11:42Z</time></trkpt><trkpt lat="41.28613304020886" lon="13.253313518115295"><ele>4.0</ele><time>2026-04-04T12:11:45Z</time></trkpt><trkpt lat="41.2860972296834" lon="13.253237491001242"><ele>4.0</ele><time>2026-04-04T12:11:52Z</time></trkpt><trkpt lat="41.28617143720469" lon="13.25320485491339"><ele>4.0</ele><time>2026-04-04T12:15:00Z</time></trkpt><trkpt lat="41.28629545824001" lon="13.253142393235132"><ele>4.0</ele><time>2026-04-04T12:16:53Z</time></trkpt><trkpt lat="41.28643753106349" lon="13.253153978653387"><ele>4.0</ele><time>2026-04-04T12:17:38Z</time></trkpt><trkpt lat="41.2865166569828" lon="13.25324383566493"><ele>4.142857142857142</ele><time>2026-04-04T12:17:54Z</time></trkpt><trkpt lat="41.28655757790506" lon="13.253313572149825"><ele>4.285714285714286</ele><time>2026-04-04T12:18:06Z</time></trkpt><trkpt lat="41.28662307884029" lon="13.253418787648426"><ele>4.428571428571429</ele><time>2026-04-04T12:18:19Z</time></trkpt><trkpt lat="41.28655654359326" lon="13.253421442558789"><ele>4.571428571428571</ele><time>2026-04-04T12:19:07Z</time></trkpt><trkpt lat="41.28657415290724" lon="13.253334998155267"><ele>4.714285714285714</ele><time>2026-04-04T12:20:21Z</time></trkpt><trkpt lat="41.28656316003716" lon="13.253235334762278"><ele>4.857142857142857</ele><time>2026-04-04T12:20:52Z</time></trkpt><trkpt lat="41.28652841771494" lon="13.253162057932647"><ele>5.0</ele><time>2026-04-04T12:21:37Z</time></trkpt><trkpt lat="41.28651207197285" lon="13.253079409343771"><ele>5.0</ele><time>2026-04-04T12:21:47Z</time></trkpt><trkpt lat="41.28652701661136" lon="13.253198085618312"><ele>5.0</ele><time>2026-04-04T12:22:21Z</time></trkpt><trkpt lat="41.286458264720274" lon="13.253281629218636"><ele>5.0</ele><time>2026-04-04T12:22:26Z</time></trkpt><trkpt lat="41.28654631428224" lon="13.253205490641143"><ele>5.0</ele><time>2026-04-04T12:23:23Z</time></trkpt><trkpt lat="41.286513020897885" lon="13.2531033337181"><ele>5.0</ele><time>2026-04-04T12:23:24Z</time></trkpt><trkpt lat="41.28645135257433" lon="13.253084986917882"><ele>5.0</ele><time>2026-04-04T12:23:25Z</time></trkpt><trkpt lat="41.286388338689015" lon="13.253042107163552"><ele>5.6</ele><time>2026-04-04T12:23:27Z</time></trkpt><trkpt lat="41.28645172965505" lon="13.253032909578229"><ele>6.2</ele><time>2026-04-04T12:23:43Z</time></trkpt><trkpt lat="41.286438289834315" lon="13.25287762549585"><ele>6.800000000000001</ele><time>2026-04-04T12:23:45Z</time></trkpt><trkpt lat="41.28646315730242" lon="13.252764155830231"><ele>7.4</ele><time>2026-04-04T12:23:48Z</time></trkpt><trkpt lat="41.28645434270737" lon="13.252636151502626"><ele>8.0</ele><time>2026-04-04T12:23:49Z</time></trkpt><trkpt lat="41.28644407423312" lon="13.252456489792545"><ele>8.0</ele><time>2026-04-04T12:23:50Z</time></trkpt><trkpt lat="41.28647995248878" lon="13.252698762663725"><ele>8.0</ele><time>2026-04-04T12:23:51Z</time></trkpt><trkpt lat="41.28649517832821" lon="13.252788647108003"><ele>8.0</ele><time>2026-04-04T12:23:54Z</time></trkpt><trkpt lat="41.28646903104437" lon="13.252912134753961"><ele>8.0</ele><time>2026-04-04T12:24:00Z</time></trkpt><trkpt lat="41.28646974370049" lon="13.253033109981743"><ele>8.0</ele><time>2026-04-04T12:24:03Z</time></trkpt><trkpt lat="41.28643756979853" lon="13.253126952566195"><ele>7.499999999999999</ele><time>2026-04-04T12:24:09Z</time></trkpt><trkpt lat="41.28656185751754" lon="13.253136506282454"><ele>7.0</ele><time>2026-04-04T12:24:21Z</time></trkpt><trkpt lat="41.28662936326914" lon="13.253175659492662"><ele>6.5</ele><time>2026-04-04T12:24:26Z</time></trkpt><trkpt lat="41.28657044962946" lon="13.253237504187501"><ele>6.0</ele><time>2026-04-04T12:24:41Z</time></trkpt><trkpt lat="41.28650334722556" lon="13.253204297378616"><ele>5.5</ele><time>2026-04-04T12:24:47Z</time></trkpt><trkpt lat="41.286439948983016" lon="13.25319543330275"><ele>5.0</ele><time>2026-04-04T12:24:56Z</time></trkpt><trkpt lat="41.28637609084286" lon="13.253192610834851"><ele>5.0</ele><time>2026-04-04T12:25:07Z</time></trkpt><trkpt lat="41.28641540869361" lon="13.253113882248913"><ele>5.0</ele><time>2026-04-04T12:25:29Z</time></trkpt><trkpt lat="41.28625328438042" lon="13.253336622131245"><ele>5.0</ele><time>2026-04-04T12:26:25.25Z</time></trkpt><trkpt lat="41.28650527772881" lon="13.253170952229194"><ele>5.0</ele><time>2026-04-04T12:27:22.357Z</time></trkpt><trkpt lat="41.28630657566759" lon="13.253305371362144"><ele>5.0</ele><time>2026-04-04T12:27:56.12Z</time></trkpt><trkpt lat="41.28628566921334" lon="13.253225820492567"><ele>5.0</ele><time>2026-04-04T12:28:13.013Z</time></trkpt><trkpt lat="41.28649743220393" lon="13.253126649788006"><ele>5.0</ele><time>2026-04-04T12:30:04.354Z</time></trkpt><trkpt lat="41.286556885164345" lon="13.25316582485711"><ele>5.0</ele><time>2026-04-04T12:30:10.013Z</time></trkpt><trkpt lat="41.28653488619913" lon="13.253297408586112"><ele>5.0</ele><time>2026-04-04T12:30:11.015Z</time></trkpt><trkpt lat="41.28643307449314" lon="13.253353684266804"><ele>5.0</ele><time>2026-04-04T12:30:12.999Z</time></trkpt><trkpt lat="41.28634164874198" lon="13.25326042173646"><ele>5.0</ele><time>2026-04-04T12:30:14.999Z</time></trkpt><trkpt lat="41.2862706247484" lon="13.253209729273907"><ele>4.8</ele><time>2026-04-04T12:30:23Z</time></trkpt><trkpt lat="41.286319704712724" lon="13.253140435701285"><ele>4.6</ele><time>2026-04-04T13:07:27.999Z</time></trkpt><trkpt lat="41.28638080071482" lon="13.253100842668537"><ele>4.4</ele><time>2026-04-04T13:07:31.999Z</time></trkpt><trkpt lat="41.286451214627384" lon="13.253074873196276"><ele>4.2</ele><time>2026-04-04T13:07:33.999Z</time></trkpt><trkpt lat="41.28640781146344" lon="13.253012300443146"><ele>4.0</ele><time>2026-04-04T13:07:51.04Z</time></trkpt><trkpt lat="41.28624467760343" lon="13.25321257696824"><ele>4.0</ele><time>2026-04-04T13:08:16.147Z</time></trkpt><trkpt lat="41.28613833921941" lon="13.253396681653093"><ele>4.0</ele><time>2026-04-04T13:08:19.611Z</time></trkpt><trkpt lat="41.28655898251408" lon="13.253076283057004"><ele>4.0</ele><time>2026-04-04T13:09:17.011Z</time></trkpt><trkpt lat="41.286713243720655" lon="13.253227657461286"><ele>4.0</ele><time>2026-04-04T13:09:24.01Z</time></trkpt><trkpt lat="41.286849940539945" lon="13.253123422790694"><ele>4.0</ele><time>2026-04-04T13:09:26.016Z</time></trkpt><trkpt lat="41.28691772745627" lon="13.253094976578431"><ele>4.0</ele><time>2026-04-04T13:09:28.02Z</time></trkpt><trkpt lat="41.286325477845274" lon="13.253278716748108"><ele>4.0</ele><time>2026-04-04T13:09:31.999Z</time></trkpt><trkpt lat="41.28625915375834" lon="13.253255624532631"><ele>4.0</ele><time>2026-04-04T13:09:39Z</time></trkpt><trkpt lat="41.28618866903931" lon="13.253220964330263"><ele>4.0</ele><time>2026-04-04T13:10:15.999Z</time></trkpt><trkpt lat="41.286248704255975" lon="13.253184997657302"><ele>4.0</ele><time>2026-04-04T13:11:32.999Z</time></trkpt><trkpt lat="41.28646528598389" lon="13.253171271714502"><ele>4.0</ele><time>2026-04-04T13:17:35.998Z</time></trkpt><trkpt lat="41.2863429827379" lon="13.253174489033352"><ele>3.9999999999999996</ele><time>2026-04-04T13:17:41.998Z</time></trkpt><trkpt lat="41.28626692194297" lon="13.253184680721064"><ele>4.0</ele><time>2026-04-04T13:17:48.999Z</time></trkpt><trkpt lat="41.286198463050425" lon="13.253198045693244"><ele>4.0</ele><time>2026-04-04T13:34:23Z</time></trkpt><trkpt lat="41.28610835781403" lon="13.253174668579172"><ele>4.0</ele><time>2026-04-04T13:38:45Z</time></trkpt><trkpt lat="41.286042834528374" lon="13.25315051792844"><ele>3.9999999999999996</ele><time>2026-04-04T13:43:07Z</time></trkpt><trkpt lat="41.285919823136076" lon="13.253160875674887"><ele>4.0</ele><time>2026-04-04T13:43:16Z</time></trkpt><trkpt lat="41.28582432762141" lon="13.253157272650236"><ele>4.0</ele><time>2026-04-04T13:43:18Z</time></trkpt><trkpt lat="41.28569546882425" lon="13.253161983378927"><ele>4.0</ele><time>2026-04-04T13:43:20Z</time></trkpt><trkpt lat="41.285625382997175" lon="13.253166201722786"><ele>4.0</ele><time>2026-04-04T13:43:21Z</time></trkpt><trkpt lat="41.28555896331736" lon="13.253163748304262"><ele>4.0</ele><time>2026-04-04T13:43:22Z</time></trkpt><trkpt lat="41.28543304291098" lon="13.253148054050799"><ele>4.0</ele><time>2026-04-04T13:43:24Z</time></trkpt><trkpt lat="41.28531652834929" lon="13.253129600613436"><ele>4.333333333333333</ele><time>2026-04-04T13:43:26Z</time></trkpt><trkpt lat="41.28523760755398" lon="13.253076950016808"><ele>4.666666666666666</ele><time>2026-04-04T13:43:28Z</time></trkpt><trkpt lat="41.285176068948815" lon="13.25301736780977"><ele>5.0</ele><time>2026-04-04T13:43:30Z</time></trkpt><trkpt lat="41.28511237060494" lon="13.252961578782942"><ele>5.333333333333333</ele><time>2026-04-04T13:43:32Z</time></trkpt><trkpt lat="41.28503546889042" lon="13.252896925990427"><ele>5.666666666666667</ele><time>2026-04-04T13:43:34Z</time></trkpt><trkpt lat="41.28495588607882" lon="13.252827899702876"><ele>6.0</ele><time>2026-04-04T13:43:36Z</time></trkpt><trkpt lat="41.28485520242494" lon="13.252754067298376"><ele>6.0</ele><time>2026-04-04T13:43:38Z</time></trkpt><trkpt lat="41.28479495292499" lon="13.252710628183003"><ele>6.0</ele><time>2026-04-04T13:43:39Z</time></trkpt><trkpt lat="41.28473256103957" lon="13.252666494162519"><ele>6.0</ele><time>2026-04-04T13:43:40Z</time></trkpt><trkpt lat="41.28467311470011" lon="13.25262338180771"><ele>6.0</ele><time>2026-04-04T13:43:41Z</time></trkpt><trkpt lat="41.284569550583605" lon="13.252545013061194"><ele>6.0</ele><time>2026-04-04T13:43:43Z</time></trkpt><trkpt lat="41.28451537913868" lon="13.252499797134364"><ele>6.0</ele><time>2026-04-04T13:43:44Z</time></trkpt><trkpt lat="41.284453477331326" lon="13.252452516207164"><ele>6.0</ele><time>2026-04-04T13:43:45Z</time></trkpt><trkpt lat="41.28437738224056" lon="13.252432023056398"><ele>6.0</ele><time>2026-04-04T13:43:46Z</time></trkpt><trkpt lat="41.28432063256265" lon="13.252386012484042"><ele>6.0</ele><time>2026-04-04T13:43:47Z</time></trkpt><trkpt lat="41.28426385527303" lon="13.252342990972837"><ele>6.0</ele><time>2026-04-04T13:43:48Z</time></trkpt><trkpt lat="41.28416572489766" lon="13.252268635282293"><ele>6.0</ele><time>2026-04-04T13:43:50Z</time></trkpt><trkpt lat="41.28407882248101" lon="13.25220283650967"><ele>6.0</ele><time>2026-04-04T13:43:52Z</time></trkpt><trkpt lat="41.28398188249443" lon="13.25212309100219"><ele>5.2</ele><time>2026-04-04T13:43:54Z</time></trkpt><trkpt lat="41.28389698084447" lon="13.252051995422338"><ele>4.3999999999999995</ele><time>2026-04-04T13:43:56Z</time></trkpt><trkpt lat="41.283875027309975" lon="13.251879958729686"><ele>3.6</ele><time>2026-04-04T13:43:58Z</time></trkpt><trkpt lat="41.283885422730854" lon="13.251767227778352"><ele>2.8</ele><time>2026-04-04T13:43:59Z</time></trkpt><trkpt lat="41.28389482624461" lon="13.251653995541957"><ele>2.0</ele><time>2026-04-04T13:44:00Z</time></trkpt><trkpt lat="41.28390438689702" lon="13.25153887114452"><ele>1.8333333333333333</ele><time>2026-04-04T13:44:01Z</time></trkpt><trkpt lat="41.2839138124819" lon="13.251425373139064"><ele>1.6666666666666665</ele><time>2026-04-04T13:44:02Z</time></trkpt><trkpt lat="41.28392157428382" lon="13.251331909541843"><ele>1.5</ele><time>2026-04-04T13:44:03Z</time></trkpt><trkpt lat="41.28392966082109" lon="13.25123453566552"><ele>1.3333333333333333</ele><time>2026-04-04T13:44:04Z</time></trkpt><trkpt lat="41.28393817661225" lon="13.251131992919746"><ele>1.1666666666666665</ele><time>2026-04-04T13:44:05Z</time></trkpt><trkpt lat="41.28394658380999" lon="13.25102916165086"><ele>1.0</ele><time>2026-04-04T13:44:06Z</time></trkpt><trkpt lat="41.283955211750936" lon="13.250922277232888"><ele>1.6666666666666665</ele><time>2026-04-04T13:44:07Z</time></trkpt><trkpt lat="41.283964009029866" lon="13.250813294857078"><ele>2.3333333333333335</ele><time>2026-04-04T13:44:08Z</time></trkpt><trkpt lat="41.283972754167834" lon="13.250704958381668"><ele>3.0</ele><time>2026-04-04T13:44:09Z</time></trkpt><trkpt lat="41.283981516427815" lon="13.250596409828699"><ele>3.666666666666667</ele><time>2026-04-04T13:44:10Z</time></trkpt><trkpt lat="41.28399058517664" lon="13.250484064484622"><ele>4.333333333333334</ele><time>2026-04-04T13:44:11Z</time></trkpt><trkpt lat="41.283999787069675" lon="13.250370069720685"><ele>5.0</ele><time>2026-04-04T13:44:12Z</time></trkpt><trkpt lat="41.28400902846299" lon="13.250255585613187"><ele>5.0</ele><time>2026-04-04T13:44:13Z</time></trkpt><trkpt lat="41.28401842389037" lon="13.25013919321353"><ele>5.0</ele><time>2026-04-04T13:44:14Z</time></trkpt><trkpt lat="41.28402788694651" lon="13.25002196307799"><ele>5.0</ele><time>2026-04-04T13:44:15Z</time></trkpt><trkpt lat="41.28403729071084" lon="13.249905467428476"><ele>5.0</ele><time>2026-04-04T13:44:16Z</time></trkpt><trkpt lat="41.28404652676833" lon="13.249791049417896"><ele>5.0</ele><time>2026-04-04T13:44:17Z</time></trkpt><trkpt lat="41.28405554241577" lon="13.24967936195018"><ele>5.0</ele><time>2026-04-04T13:44:18Z</time></trkpt><trkpt lat="41.284064536210714" lon="13.249567945115942"><ele>5.0</ele><time>2026-04-04T13:44:19Z</time></trkpt><trkpt lat="41.28407307594226" lon="13.249459595689324"><ele>5.0</ele><time>2026-04-04T13:44:20Z</time></trkpt><trkpt lat="41.28408124809642" lon="13.24935324984767"><ele>5.0</ele><time>2026-04-04T13:44:21Z</time></trkpt><trkpt lat="41.28408941359077" lon="13.249246990585354"><ele>5.0</ele><time>2026-04-04T13:44:22Z</time></trkpt><trkpt lat="41.28409756046148" lon="13.249140973711905"><ele>5.0</ele><time>2026-04-04T13:44:23Z</time></trkpt><trkpt lat="41.28410605115269" lon="13.249034843597176"><ele>5.0</ele><time>2026-04-04T13:44:24Z</time></trkpt><trkpt lat="41.2841143856573" lon="13.248931891033914"><ele>5.0</ele><time>2026-04-04T13:44:25Z</time></trkpt><trkpt lat="41.28412264501006" lon="13.248830844972561"><ele>5.0</ele><time>2026-04-04T13:44:26Z</time></trkpt><trkpt lat="41.28413093893502" lon="13.248729375866247"><ele>5.0</ele><time>2026-04-04T13:44:27Z</time></trkpt><trkpt lat="41.2841392295182" lon="13.248627947685016"><ele>5.0</ele><time>2026-04-04T13:44:28Z</time></trkpt><trkpt lat="41.284147323198056" lon="13.248528928346673"><ele>5.0</ele><time>2026-04-04T13:44:29Z</time></trkpt><trkpt lat="41.28415534951558" lon="13.248430733335988"><ele>5.0</ele><time>2026-04-04T13:44:30Z</time></trkpt><trkpt lat="41.28416315545076" lon="13.248335234358722"><ele>5.0</ele><time>2026-04-04T13:44:31Z</time></trkpt><trkpt lat="41.28417095125548" lon="13.248239859333545"><ele>5.0</ele><time>2026-04-04T13:44:32Z</time></trkpt><trkpt lat="41.284178317294476" lon="13.248149086535447"><ele>5.0</ele><time>2026-04-04T13:44:33Z</time></trkpt><trkpt lat="41.28418841836933" lon="13.248023581302638"><ele>5.0</ele><time>2026-04-04T13:44:35Z</time></trkpt><trkpt lat="41.284195269366336" lon="13.247938458088761"><ele>5.0</ele><time>2026-04-04T13:44:37Z</time></trkpt><trkpt lat="41.28420347779174" lon="13.24783646901478"><ele>5.0</ele><time>2026-04-04T13:44:40Z</time></trkpt><trkpt lat="41.28421301309718" lon="13.247717993389369"><ele>4.857142857142857</ele><time>2026-04-04T13:44:43Z</time></trkpt><trkpt lat="41.28422101227647" lon="13.247622631489191"><ele>4.714285714285714</ele><time>2026-04-04T13:44:46Z</time></trkpt><trkpt lat="41.284234634095164" lon="13.247531377924496"><ele>4.571428571428571</ele><time>2026-04-04T13:47:16Z</time></trkpt><trkpt lat="41.28423591688294" lon="13.247446227816381"><ele>4.428571428571429</ele><time>2026-04-04T13:47:39Z</time></trkpt><trkpt lat="41.284243399405305" lon="13.247357668397976"><ele>4.285714285714286</ele><time>2026-04-04T13:47:47Z</time></trkpt><trkpt lat="41.28432230780519" lon="13.2472931575684"><ele>4.142857142857142</ele><time>2026-04-04T13:47:55Z</time></trkpt><trkpt lat="41.28433872552926" lon="13.247207990524725"><ele>4.0</ele><time>2026-04-04T13:48:04Z</time></trkpt><trkpt lat="41.2843983545225" lon="13.247169266819066"><ele>4.0</ele><time>2026-04-04T13:48:17Z</time></trkpt><trkpt lat="41.28443249171425" lon="13.247096630402776"><ele>3.9999999999999996</ele><time>2026-04-04T13:48:28Z</time></trkpt><trkpt lat="41.28448747962204" lon="13.247009088960702"><ele>4.0</ele><time>2026-04-04T13:51:28Z</time></trkpt><trkpt lat="41.28444355696067" lon="13.247105861194498"><ele>4.0</ele><time>2026-04-04T14:16:12Z</time></trkpt><trkpt lat="41.284381708333875" lon="13.247147933967648"><ele>3.9999999999999996</ele><time>2026-04-04T14:16:18Z</time></trkpt><trkpt lat="41.2843494688888" lon="13.24722715838299"><ele>4.0</ele><time>2026-04-04T14:16:25Z</time></trkpt><trkpt lat="41.284346805748456" lon="13.247324563793315"><ele>4.0</ele><time>2026-04-04T14:16:32Z</time></trkpt><trkpt lat="41.284340473288744" lon="13.247423388199715"><ele>3.9999999999999996</ele><time>2026-04-04T14:16:39Z</time></trkpt><trkpt lat="41.284302153003026" lon="13.247501426244575"><ele>4.0</ele><time>2026-04-04T14:16:46Z</time></trkpt><trkpt lat="41.284282954297545" lon="13.247394472763686"><ele>4.0</ele><time>2026-04-04T14:21:10Z</time></trkpt><trkpt lat="41.28429522022794" lon="13.247294951556903"><ele>4.0</ele><time>2026-04-04T14:21:47Z</time></trkpt><trkpt lat="41.28429919685436" lon="13.24718503457094"><ele>3.9999999999999996</ele><time>2026-04-04T14:21:49Z</time></trkpt><trkpt lat="41.284324015279125" lon="13.247099175316945"><ele>4.0</ele><time>2026-04-04T14:21:50Z</time></trkpt><trkpt lat="41.28434592673093" lon="13.246995015817088"><ele>3.8000000000000003</ele><time>2026-04-04T14:21:52Z</time></trkpt><trkpt lat="41.284330409536324" lon="13.246886316332587"><ele>3.6000000000000005</ele><time>2026-04-04T14:22:06Z</time></trkpt><trkpt lat="41.28434532647853" lon="13.246726241980765"><ele>3.4</ele><time>2026-04-04T14:22:08Z</time></trkpt><trkpt lat="41.284351829147774" lon="13.246632287764424"><ele>3.2</ele><time>2026-04-04T14:22:09Z</time></trkpt><trkpt lat="41.28430446185744" lon="13.24651813325097"><ele>3.0</ele><time>2026-04-04T14:22:10Z</time></trkpt><trkpt lat="41.28431315175081" lon="13.246410370410288"><ele>3.0</ele><time>2026-04-04T14:22:11Z</time></trkpt><trkpt lat="41.28432224739154" lon="13.246301075447267"><ele>3.0</ele><time>2026-04-04T14:22:12Z</time></trkpt><trkpt lat="41.28433271071211" lon="13.246182517769935"><ele>3.0</ele><time>2026-04-04T14:22:13Z</time></trkpt><trkpt lat="41.284344764488715" lon="13.246045938954445"><ele>3.0</ele><time>2026-04-04T14:22:14Z</time></trkpt><trkpt lat="41.284356569069786" lon="13.245912183722098"><ele>3.0</ele><time>2026-04-04T14:22:15Z</time></trkpt><trkpt lat="41.28436634992249" lon="13.245789675865408"><ele>2.9999999999999996</ele><time>2026-04-04T14:22:16Z</time></trkpt><trkpt lat="41.28437451705839" lon="13.245685313737859"><ele>3.0</ele><time>2026-04-04T14:22:17Z</time></trkpt><trkpt lat="41.28438180116049" lon="13.245589531942658"><ele>3.0</ele><time>2026-04-04T14:22:18Z</time></trkpt><trkpt lat="41.2843882655863" lon="13.245499372447604"><ele>3.0</ele><time>2026-04-04T14:22:19Z</time></trkpt><trkpt lat="41.28439496107806" lon="13.245406816768993"><ele>3.0</ele><time>2026-04-04T14:22:20Z</time></trkpt><trkpt lat="41.284402930411034" lon="13.245313160571765"><ele>2.9999999999999996</ele><time>2026-04-04T14:22:21Z</time></trkpt><trkpt lat="41.28441204520848" lon="13.245213378922914"><ele>3.0</ele><time>2026-04-04T14:22:22Z</time></trkpt><trkpt lat="41.28442077718933" lon="13.245120771983347"><ele>3.0</ele><time>2026-04-04T14:22:23Z</time></trkpt><trkpt lat="41.284429043321616" lon="13.245028000022378"><ele>3.0</ele><time>2026-04-04T14:22:24Z</time></trkpt><trkpt lat="41.284436489585545" lon="13.244935221761112"><ele>3.0</ele><time>2026-04-04T14:22:25Z</time></trkpt><trkpt lat="41.284448667113274" lon="13.244784164767568"><ele>3.0</ele><time>2026-04-04T14:22:27Z</time></trkpt><trkpt lat="41.28445668322098" lon="13.244667548138581"><ele>3.0</ele><time>2026-04-04T14:22:29Z</time></trkpt><trkpt lat="41.28446492880808" lon="13.244547593019506"><ele>3.0</ele><time>2026-04-04T14:22:31Z</time></trkpt><trkpt lat="41.28447452847237" lon="13.244407939122741"><ele>3.0</ele><time>2026-04-04T14:22:33Z</time></trkpt><trkpt lat="41.2844831531155" lon="13.244254758013815"><ele>3.0</ele><time>2026-04-04T14:22:35Z</time></trkpt><trkpt lat="41.284491055103885" lon="13.244109020262087"><ele>3.0</ele><time>2026-04-04T14:22:37Z</time></trkpt><trkpt lat="41.284498780757005" lon="13.24396901491761"><ele>3.0</ele><time>2026-04-04T14:22:39Z</time></trkpt><trkpt lat="41.28450483267662" lon="13.243834709843197"><ele>3.0</ele><time>2026-04-04T14:22:41Z</time></trkpt><trkpt lat="41.284508631513006" lon="13.24372716994794"><ele>2.8</ele><time>2026-04-04T14:22:43Z</time></trkpt><trkpt lat="41.284513675484185" lon="13.243611246358572"><ele>2.5999999999999996</ele><time>2026-04-04T14:22:45Z</time></trkpt><trkpt lat="41.284519831649106" lon="13.243489315632575"><ele>2.4000000000000004</ele><time>2026-04-04T14:22:47Z</time></trkpt><trkpt lat="41.28452535896956" lon="13.243379839961676"><ele>2.2</ele><time>2026-04-04T14:22:49Z</time></trkpt><trkpt lat="41.284700389756324" lon="13.243339410183806"><ele>2.0</ele><time>2026-04-04T14:22:52Z</time></trkpt><trkpt lat="41.28481421959991" lon="13.243377113125948"><ele>3.25</ele><time>2026-04-04T14:22:54Z</time></trkpt><trkpt lat="41.28493463119539" lon="13.243407678486099"><ele>4.5</ele><time>2026-04-04T14:22:56Z</time></trkpt><trkpt lat="41.28505025839734" lon="13.243435409195238"><ele>5.75</ele><time>2026-04-04T14:22:58Z</time></trkpt><trkpt lat="41.285161896735616" lon="13.243469064600763"><ele>7.0</ele><time>2026-04-04T14:23:00Z</time></trkpt><trkpt lat="41.28526566929008" lon="13.243498916404732"><ele>7.000000000000001</ele><time>2026-04-04T14:23:02Z</time></trkpt><trkpt lat="41.28536608906824" lon="13.243525535976248"><ele>7.0</ele><time>2026-04-04T14:23:04Z</time></trkpt><trkpt lat="41.28548255681158" lon="13.243554975652092"><ele>7.0</ele><time>2026-04-04T14:23:06Z</time></trkpt><trkpt lat="41.2855531911601" lon="13.243573853517502"><ele>7.0</ele><time>2026-04-04T14:23:07Z</time></trkpt><trkpt lat="41.28561797480135" lon="13.243592886925164"><ele>7.000000000000001</ele><time>2026-04-04T14:23:08Z</time></trkpt><trkpt lat="41.28567958914171" lon="13.243610383374019"><ele>7.0</ele><time>2026-04-04T14:23:09Z</time></trkpt><trkpt lat="41.28577645386966" lon="13.243632392926731"><ele>7.333333333333334</ele><time>2026-04-04T14:23:11Z</time></trkpt><trkpt lat="41.285845887818056" lon="13.243650068225467"><ele>7.666666666666667</ele><time>2026-04-04T14:23:13Z</time></trkpt><trkpt lat="41.28592211947229" lon="13.243684427251067"><ele>8.0</ele><time>2026-04-04T14:23:17Z</time></trkpt><trkpt lat="41.28603585164385" lon="13.243700860744966"><ele>8.333333333333334</ele><time>2026-04-04T14:23:19Z</time></trkpt><trkpt lat="41.2861107803195" lon="13.243704670418737"><ele>8.666666666666666</ele><time>2026-04-04T14:23:20Z</time></trkpt><trkpt lat="41.2861929028863" lon="13.243721675605448"><ele>9.0</ele><time>2026-04-04T14:23:21Z</time></trkpt><trkpt lat="41.286279564629986" lon="13.243749520858595"><ele>9.0</ele><time>2026-04-04T14:23:22Z</time></trkpt><trkpt lat="41.286374140678696" lon="13.243770882784867"><ele>9.0</ele><time>2026-04-04T14:23:23Z</time></trkpt><trkpt lat="41.28646492740099" lon="13.243795567020637"><ele>9.0</ele><time>2026-04-04T14:23:24Z</time></trkpt><trkpt lat="41.2865613653519" lon="13.243815604727068"><ele>9.0</ele><time>2026-04-04T14:23:25Z</time></trkpt><trkpt lat="41.28665136864208" lon="13.24383395328763"><ele>9.0</ele><time>2026-04-04T14:23:26Z</time></trkpt><trkpt lat="41.28672850319778" lon="13.243851334197732"><ele>9.142857142857144</ele><time>2026-04-04T14:23:27Z</time></trkpt><trkpt lat="41.286798497726" lon="13.243873002343676"><ele>9.285714285714286</ele><time>2026-04-04T14:23:28Z</time></trkpt><trkpt lat="41.28686819479711" lon="13.243891977392225"><ele>9.428571428571429</ele><time>2026-04-04T14:23:29Z</time></trkpt><trkpt lat="41.28693523449941" lon="13.243910668901231"><ele>9.571428571428573</ele><time>2026-04-04T14:23:30Z</time></trkpt><trkpt lat="41.28700370793199" lon="13.243927916963429"><ele>9.714285714285715</ele><time>2026-04-04T14:23:31Z</time></trkpt><trkpt lat="41.287068577132935" lon="13.243945468903314"><ele>9.857142857142858</ele><time>2026-04-04T14:23:32Z</time></trkpt><trkpt lat="41.2871340121304" lon="13.243962567360043"><ele>10.0</ele><time>2026-04-04T14:23:33Z</time></trkpt><trkpt lat="41.28720221421823" lon="13.24396641522465"><ele>9.833333333333334</ele><time>2026-04-04T14:23:34Z</time></trkpt><trkpt lat="41.28727222186677" lon="13.244002632214318"><ele>9.666666666666668</ele><time>2026-04-04T14:23:35Z</time></trkpt><trkpt lat="41.28735059683759" lon="13.243946940624726"><ele>9.5</ele><time>2026-04-04T14:23:36Z</time></trkpt><trkpt lat="41.287425379471294" lon="13.243927648594642"><ele>9.333333333333334</ele><time>2026-04-04T14:23:37Z</time></trkpt><trkpt lat="41.2875031172864" lon="13.243904971833075"><ele>9.166666666666666</ele><time>2026-04-04T14:23:38Z</time></trkpt><trkpt lat="41.28758484311226" lon="13.243883475136915"><ele>9.0</ele><time>2026-04-04T14:23:39Z</time></trkpt><trkpt lat="41.287671462848465" lon="13.24386454642098"><ele>9.0</ele><time>2026-04-04T14:23:40Z</time></trkpt><trkpt lat="41.28775660437494" lon="13.24384551793701"><ele>9.0</ele><time>2026-04-04T14:23:41Z</time></trkpt><trkpt lat="41.28783426452937" lon="13.243826174220368"><ele>9.0</ele><time>2026-04-04T14:23:42Z</time></trkpt><trkpt lat="41.2879051235546" lon="13.24380729394453"><ele>9.0</ele><time>2026-04-04T14:23:43Z</time></trkpt><trkpt lat="41.28803278121867" lon="13.24377867936529"><ele>9.0</ele><time>2026-04-04T14:23:45Z</time></trkpt><trkpt lat="41.288104936341114" lon="13.243753528065689"><ele>9.0</ele><time>2026-04-04T14:23:46Z</time></trkpt><trkpt lat="41.288179851924745" lon="13.243737757428905"><ele>8.571428571428573</ele><time>2026-04-04T14:23:47Z</time></trkpt><trkpt lat="41.28824526629302" lon="13.243724001922734"><ele>8.142857142857142</ele><time>2026-04-04T14:23:48Z</time></trkpt><trkpt lat="41.28830938885756" lon="13.243706275327924"><ele>7.714285714285714</ele><time>2026-04-04T14:23:49Z</time></trkpt><trkpt lat="41.288383566620865" lon="13.243692373860666"><ele>7.2857142857142865</ele><time>2026-04-04T14:23:50Z</time></trkpt><trkpt lat="41.28845625326633" lon="13.243668697423987"><ele>6.857142857142858</ele><time>2026-04-04T14:23:51Z</time></trkpt><trkpt lat="41.28852594504037" lon="13.24364796792164"><ele>6.428571428571428</ele><time>2026-04-04T14:23:52Z</time></trkpt><trkpt lat="41.28859440932215" lon="13.24363048959407"><ele>6.0</ele><time>2026-04-04T14:23:53Z</time></trkpt><trkpt lat="41.28871616751573" lon="13.243590977577318"><ele>5.999999999999999</ele><time>2026-04-04T14:23:55Z</time></trkpt><trkpt lat="41.28877733208243" lon="13.243568789368622"><ele>6.0</ele><time>2026-04-04T14:23:56Z</time></trkpt><trkpt lat="41.28885203888276" lon="13.243563461274363"><ele>6.0</ele><time>2026-04-04T14:23:57Z</time></trkpt><trkpt lat="41.28892692025988" lon="13.243546840707305"><ele>6.0</ele><time>2026-04-04T14:23:58Z</time></trkpt><trkpt lat="41.28901552671954" lon="13.243510967534544"><ele>6.0</ele><time>2026-04-04T14:23:59Z</time></trkpt><trkpt lat="41.28908462631737" lon="13.243500904064973"><ele>5.999999999999999</ele><time>2026-04-04T14:24:00Z</time></trkpt><trkpt lat="41.289155468977555" lon="13.243476938606037"><ele>6.0</ele><time>2026-04-04T14:24:01Z</time></trkpt><trkpt lat="41.28922931199134" lon="13.243455046993777"><ele>6.0</ele><time>2026-04-04T14:24:02Z</time></trkpt><trkpt lat="41.289303211842594" lon="13.243434898613094"><ele>6.0</ele><time>2026-04-04T14:24:03Z</time></trkpt><trkpt lat="41.289372898688285" lon="13.243416207213148"><ele>6.0</ele><time>2026-04-04T14:24:04Z</time></trkpt><trkpt lat="41.289440671108736" lon="13.243402479681455"><ele>6.0</ele><time>2026-04-04T14:24:05Z</time></trkpt><trkpt lat="41.289508129649974" lon="13.243386027824977"><ele>6.0</ele><time>2026-04-04T14:24:06Z</time></trkpt><trkpt lat="41.289624641813816" lon="13.243358926419747"><ele>6.0</ele><time>2026-04-04T14:24:08Z</time></trkpt><trkpt lat="41.2897268459483" lon="13.24336772193319"><ele>5.6</ele><time>2026-04-04T14:24:10Z</time></trkpt><trkpt lat="41.2897939263073" lon="13.243402586934867"><ele>5.199999999999999</ele><time>2026-04-04T14:24:12Z</time></trkpt><trkpt lat="41.28985590215538" lon="13.243439687735941"><ele>4.800000000000001</ele><time>2026-04-04T14:24:15Z</time></trkpt><trkpt lat="41.28991285264388" lon="13.243493197629816"><ele>4.4</ele><time>2026-04-04T14:24:19Z</time></trkpt><trkpt lat="41.28985746071338" lon="13.243638820969355"><ele>4.0</ele><time>2026-04-04T14:24:20Z</time></trkpt><trkpt lat="41.28980983153849" lon="13.243816701851499"><ele>3.9999999999999996</ele><time>2026-04-04T14:24:22Z</time></trkpt><trkpt lat="41.28979011365296" lon="13.243918194510515"><ele>4.0</ele><time>2026-04-04T14:24:23Z</time></trkpt><trkpt lat="41.28978297610047" lon="13.244014179714625"><ele>4.0</ele><time>2026-04-04T14:24:24Z</time></trkpt><trkpt lat="41.28977207554397" lon="13.24411600261221"><ele>4.0</ele><time>2026-04-04T14:24:25Z</time></trkpt><trkpt lat="41.2897638918925" lon="13.24423075988211"><ele>3.9999999999999996</ele><time>2026-04-04T14:24:26Z</time></trkpt><trkpt lat="41.28973992185454" lon="13.2443425534333"><ele>4.0</ele><time>2026-04-04T14:24:27Z</time></trkpt><trkpt lat="41.28973857291633" lon="13.244464492023253"><ele>4.333333333333333</ele><time>2026-04-04T14:24:28Z</time></trkpt><trkpt lat="41.28971698087226" lon="13.244576722298257"><ele>4.666666666666666</ele><time>2026-04-04T14:24:29Z</time></trkpt><trkpt lat="41.28970888731223" lon="13.2446796108028"><ele>5.0</ele><time>2026-04-04T14:24:30Z</time></trkpt><trkpt lat="41.28969492133331" lon="13.244787225247181"><ele>5.333333333333333</ele><time>2026-04-04T14:24:31Z</time></trkpt><trkpt lat="41.28966321050692" lon="13.244898915433359"><ele>5.666666666666667</ele><time>2026-04-04T14:24:32Z</time></trkpt><trkpt lat="41.28964566741488" lon="13.245011854160564"><ele>6.0</ele><time>2026-04-04T14:24:33Z</time></trkpt><trkpt lat="41.289641175419" lon="13.245129383002507"><ele>6.0</ele><time>2026-04-04T14:24:34Z</time></trkpt><trkpt lat="41.2896128790629" lon="13.245236706938218"><ele>6.0</ele><time>2026-04-04T14:24:35Z</time></trkpt><trkpt lat="41.28959412642165" lon="13.24534049995851"><ele>6.0</ele><time>2026-04-04T14:24:36Z</time></trkpt><trkpt lat="41.28958733884365" lon="13.245442454625026"><ele>6.0</ele><time>2026-04-04T14:24:37Z</time></trkpt><trkpt lat="41.28958920984922" lon="13.24552720247511"><ele>6.0</ele><time>2026-04-04T14:24:38Z</time></trkpt><trkpt lat="41.28964525359439" lon="13.245662405928584"><ele>6.0</ele><time>2026-04-04T14:24:40Z</time></trkpt><trkpt lat="41.28966689339611" lon="13.245755705449566"><ele>6.333333333333333</ele><time>2026-04-04T14:24:41Z</time></trkpt><trkpt lat="41.28974176659038" lon="13.245846095719052"><ele>6.666666666666666</ele><time>2026-04-04T14:24:42Z</time></trkpt><trkpt lat="41.28979433982372" lon="13.24593077476965"><ele>7.0</ele><time>2026-04-04T14:24:43Z</time></trkpt><trkpt lat="41.289851602700786" lon="13.246023007312665"><ele>7.333333333333333</ele><time>2026-04-04T14:24:44Z</time></trkpt><trkpt lat="41.289916517109575" lon="13.246098364420547"><ele>7.666666666666666</ele><time>2026-04-04T14:24:45Z</time></trkpt><trkpt lat="41.289960145922635" lon="13.246200071814183"><ele>8.0</ele><time>2026-04-04T14:24:46Z</time></trkpt><trkpt lat="41.29002096716681" lon="13.246286358553997"><ele>7.999999999999999</ele><time>2026-04-04T14:24:47Z</time></trkpt><trkpt lat="41.290067610108" lon="13.246377060669193"><ele>8.0</ele><time>2026-04-04T14:24:48Z</time></trkpt><trkpt lat="41.29011274939929" lon="13.246467551130179"><ele>8.0</ele><time>2026-04-04T14:24:49Z</time></trkpt><trkpt lat="41.29015251519851" lon="13.246555709294164"><ele>8.0</ele><time>2026-04-04T14:24:50Z</time></trkpt><trkpt lat="41.29019811384814" lon="13.24663824107158"><ele>7.999999999999999</ele><time>2026-04-04T14:24:51Z</time></trkpt><trkpt lat="41.29023841078908" lon="13.246712281664449"><ele>8.0</ele><time>2026-04-04T14:24:52Z</time></trkpt><trkpt lat="41.290302613580344" lon="13.246844320723206"><ele>8.200000000000001</ele><time>2026-04-04T14:24:54Z</time></trkpt><trkpt lat="41.290360210431544" lon="13.24696728509834"><ele>8.4</ele><time>2026-04-04T14:24:56Z</time></trkpt><trkpt lat="41.290413841791064" lon="13.24707295975675"><ele>8.600000000000001</ele><time>2026-04-04T14:24:58Z</time></trkpt><trkpt lat="41.29044713580663" lon="13.247194004490725"><ele>8.8</ele><time>2026-04-04T14:25:00Z</time></trkpt><trkpt lat="41.29052262150554" lon="13.247319407769814"><ele>9.0</ele><time>2026-04-04T14:25:02Z</time></trkpt><trkpt lat="41.2905824511459" lon="13.247381207313254"><ele>8.833333333333334</ele><time>2026-04-04T14:25:04Z</time></trkpt><trkpt lat="41.29066165981712" lon="13.24743554716771"><ele>8.666666666666666</ele><time>2026-04-04T14:26:03Z</time></trkpt><trkpt lat="41.29073708144122" lon="13.247485398031456"><ele>8.5</ele><time>2026-04-04T14:26:05Z</time></trkpt><trkpt lat="41.29082021703631" lon="13.24753185234904"><ele>8.333333333333332</ele><time>2026-04-04T14:26:08Z</time></trkpt><trkpt lat="41.29088415122919" lon="13.247438993456548"><ele>8.166666666666666</ele><time>2026-04-04T14:26:09Z</time></trkpt><trkpt lat="41.29092661883251" lon="13.247365012298118"><ele>8.0</ele><time>2026-04-04T14:26:10Z</time></trkpt><trkpt lat="41.290966439338455" lon="13.247260784256122"><ele>7.800000000000001</ele><time>2026-04-04T14:26:11Z</time></trkpt><trkpt lat="41.2910100993106" lon="13.24714567592478"><ele>7.6000000000000005</ele><time>2026-04-04T14:26:12Z</time></trkpt><trkpt lat="41.29105601953078" lon="13.247030136266504"><ele>7.3999999999999995</ele><time>2026-04-04T14:26:13Z</time></trkpt><trkpt lat="41.291101212640804" lon="13.246918320709325"><ele>7.199999999999999</ele><time>2026-04-04T14:26:14Z</time></trkpt><trkpt lat="41.291149654620874" lon="13.246788610880353"><ele>7.0</ele><time>2026-04-04T14:26:15Z</time></trkpt><trkpt lat="41.29120542272562" lon="13.246652251194025"><ele>7.0</ele><time>2026-04-04T14:26:16Z</time></trkpt><trkpt lat="41.29126233642135" lon="13.246508413047213"><ele>7.0</ele><time>2026-04-04T14:26:17Z</time></trkpt><trkpt lat="41.291324011227275" lon="13.246351196012514"><ele>7.0</ele><time>2026-04-04T14:26:18Z</time></trkpt><trkpt lat="41.291388152513" lon="13.24619735775401"><ele>7.0</ele><time>2026-04-04T14:26:19Z</time></trkpt><trkpt lat="41.291450005779396" lon="13.246040672029617"><ele>6.75</ele><time>2026-04-04T14:26:20Z</time></trkpt><trkpt lat="41.29151369977597" lon="13.245887637076985"><ele>6.5</ele><time>2026-04-04T14:26:21Z</time></trkpt><trkpt lat="41.29157660369808" lon="13.245734208404663"><ele>6.25</ele><time>2026-04-04T14:26:22Z</time></trkpt><trkpt lat="41.291636677964284" lon="13.245581959689986"><ele>6.0</ele><time>2026-04-04T14:26:23Z</time></trkpt><trkpt lat="41.29170200930235" lon="13.245422971468797"><ele>5.25</ele><time>2026-04-04T14:26:24Z</time></trkpt><trkpt lat="41.29176663513511" lon="13.24526250762734"><ele>4.5</ele><time>2026-04-04T14:26:25Z</time></trkpt><trkpt lat="41.291832637097855" lon="13.245098388120573"><ele>3.75</ele><time>2026-04-04T14:26:26Z</time></trkpt><trkpt lat="41.29189709068562" lon="13.244933089447839"><ele>3.0</ele><time>2026-04-04T14:26:27Z</time></trkpt><trkpt lat="41.29196243302245" lon="13.244765991002895"><ele>3.0</ele><time>2026-04-04T14:26:28Z</time></trkpt><trkpt lat="41.29202330882261" lon="13.244602056254237"><ele>3.0</ele><time>2026-04-04T14:26:29Z</time></trkpt><trkpt lat="41.29208708754451" lon="13.244442592579597"><ele>3.0</ele><time>2026-04-04T14:26:30Z</time></trkpt><trkpt lat="41.29214756596139" lon="13.244282265571423"><ele>3.0</ele><time>2026-04-04T14:26:31Z</time></trkpt><trkpt lat="41.29220951183353" lon="13.244121262581467"><ele>3.25</ele><time>2026-04-04T14:26:32Z</time></trkpt><trkpt lat="41.29226866005757" lon="13.243970405877809"><ele>3.5</ele><time>2026-04-04T14:26:33Z</time></trkpt><trkpt lat="41.29232829318216" lon="13.243818907993337"><ele>3.75</ele><time>2026-04-04T14:26:34Z</time></trkpt><trkpt lat="41.29238513634433" lon="13.243669228919966"><ele>4.0</ele><time>2026-04-04T14:26:35Z</time></trkpt><trkpt lat="41.292442762417295" lon="13.243519028650441"><ele>4.0</ele><time>2026-04-04T14:26:36Z</time></trkpt><trkpt lat="41.2925033586578" lon="13.243367741006479"><ele>4.0</ele><time>2026-04-04T14:26:37Z</time></trkpt><trkpt lat="41.292565192831006" lon="13.243205664431805"><ele>4.0</ele><time>2026-04-04T14:26:38Z</time></trkpt><trkpt lat="41.29263331501519" lon="13.24304248322285"><ele>4.0</ele><time>2026-04-04T14:26:39Z</time></trkpt><trkpt lat="41.29269582381343" lon="13.242869364143173"><ele>4.0</ele><time>2026-04-04T14:26:40Z</time></trkpt><trkpt lat="41.29276534387954" lon="13.242701802695231"><ele>4.0</ele><time>2026-04-04T14:26:41Z</time></trkpt><trkpt lat="41.29282987460823" lon="13.242533111099712"><ele>4.0</ele><time>2026-04-04T14:26:42Z</time></trkpt><trkpt lat="41.29289449841739" lon="13.242367855048204"><ele>4.0</ele><time>2026-04-04T14:26:43Z</time></trkpt><trkpt lat="41.29295609357043" lon="13.242206635359137"><ele>4.0</ele><time>2026-04-04T14:26:44Z</time></trkpt><trkpt lat="41.29301218934492" lon="13.242058044660006"><ele>4.0</ele><time>2026-04-04T14:26:45Z</time></trkpt><trkpt lat="41.29306678141208" lon="13.241920513863308"><ele>4.0</ele><time>2026-04-04T14:26:46Z</time></trkpt><trkpt lat="41.29311212305964" lon="13.241790638447535"><ele>4.0</ele><time>2026-04-04T14:26:47Z</time></trkpt><trkpt lat="41.293169670701765" lon="13.241669607901645"><ele>3.9999999999999996</ele><time>2026-04-04T14:26:48Z</time></trkpt><trkpt lat="41.29320943804195" lon="13.241558444509158"><ele>4.0</ele><time>2026-04-04T14:26:49Z</time></trkpt><trkpt lat="41.29324949650033" lon="13.241463204428454"><ele>4.0</ele><time>2026-04-04T14:26:50Z</time></trkpt><trkpt lat="41.29328015238695" lon="13.241377527103841"><ele>4.0</ele><time>2026-04-04T14:26:51Z</time></trkpt><trkpt lat="41.29331238229068" lon="13.24128792345893"><ele>3.9999999999999996</ele><time>2026-04-04T14:26:52Z</time></trkpt><trkpt lat="41.293343351319514" lon="13.241206637577761"><ele>4.0</ele><time>2026-04-04T14:26:53Z</time></trkpt><trkpt lat="41.29339477102138" lon="13.2410756297169"><ele>3.9999999999999996</ele><time>2026-04-04T14:26:55Z</time></trkpt><trkpt lat="41.29342880814003" lon="13.240989030714877"><ele>4.0</ele><time>2026-04-04T14:26:57Z</time></trkpt><trkpt lat="41.29346929653817" lon="13.240865347806833"><ele>4.0</ele><time>2026-04-04T14:27:57Z</time></trkpt><trkpt lat="41.29352720944067" lon="13.240726295677202"><ele>4.0</ele><time>2026-04-04T14:27:59Z</time></trkpt><trkpt lat="41.29356271172688" lon="13.240639401524412"><ele>3.9999999999999996</ele><time>2026-04-04T14:28:00Z</time></trkpt><trkpt lat="41.293596171658706" lon="13.240554087197461"><ele>4.0</ele><time>2026-04-04T14:28:01Z</time></trkpt><trkpt lat="41.29363092293865" lon="13.240473117633917"><ele>3.6666666666666665</ele><time>2026-04-04T14:28:02Z</time></trkpt><trkpt lat="41.29366480343512" lon="13.240361120038024"><ele>3.333333333333333</ele><time>2026-04-04T14:28:03Z</time></trkpt><trkpt lat="41.293707899104184" lon="13.240249871736246"><ele>3.0</ele><time>2026-04-04T14:28:04Z</time></trkpt><trkpt lat="41.29375096406169" lon="13.24013884127809"><ele>2.6666666666666665</ele><time>2026-04-04T14:28:05Z</time></trkpt><trkpt lat="41.29380163948322" lon="13.24005048998319"><ele>2.333333333333333</ele><time>2026-04-04T14:28:06Z</time></trkpt><trkpt lat="41.293839353857024" lon="13.239946044963252"><ele>2.0</ele><time>2026-04-04T14:28:07Z</time></trkpt><trkpt lat="41.29388014774775" lon="13.239841169066946"><ele>1.9999999999999998</ele><time>2026-04-04T14:28:08Z</time></trkpt><trkpt lat="41.293918147778726" lon="13.239737710309104"><ele>2.0</ele><time>2026-04-04T14:28:09Z</time></trkpt><trkpt lat="41.293956664052274" lon="13.239631951304812"><ele>2.0</ele><time>2026-04-04T14:28:10Z</time></trkpt><trkpt lat="41.2939961144644" lon="13.239519951437876"><ele>2.0</ele><time>2026-04-04T14:28:11Z</time></trkpt><trkpt lat="41.29403784489042" lon="13.239412409013175"><ele>1.9999999999999998</ele><time>2026-04-04T14:28:12Z</time></trkpt><trkpt lat="41.29407591377219" lon="13.239305406361032"><ele>2.0</ele><time>2026-04-04T14:28:13Z</time></trkpt><trkpt lat="41.29411867016495" lon="13.239193096521078"><ele>2.2</ele><time>2026-04-04T14:28:14Z</time></trkpt><trkpt lat="41.2941627401829" lon="13.239080378423278"><ele>2.4000000000000004</ele><time>2026-04-04T14:28:15Z</time></trkpt><trkpt lat="41.29420740065671" lon="13.23896667420702"><ele>2.5999999999999996</ele><time>2026-04-04T14:28:16Z</time></trkpt><trkpt lat="41.29425221509733" lon="13.238852990791433"><ele>2.8</ele><time>2026-04-04T14:28:17Z</time></trkpt><trkpt lat="41.294301651847015" lon="13.238732372929318"><ele>3.0</ele><time>2026-04-04T14:28:18Z</time></trkpt><trkpt lat="41.294358640408035" lon="13.238596751210054"><ele>3.0</ele><time>2026-04-04T14:28:19Z</time></trkpt><trkpt lat="41.29441992125484" lon="13.238438666856505"><ele>3.0</ele><time>2026-04-04T14:28:20Z</time></trkpt><trkpt lat="41.29447638252913" lon="13.238285013570701"><ele>3.0</ele><time>2026-04-04T14:28:21Z</time></trkpt><trkpt lat="41.29452539553913" lon="13.23815491105942"><ele>3.0</ele><time>2026-04-04T14:28:22Z</time></trkpt><trkpt lat="41.29457629276594" lon="13.238028886039615"><ele>2.75</ele><time>2026-04-04T14:28:23Z</time></trkpt><trkpt lat="41.294630223246315" lon="13.23789555228547"><ele>2.5</ele><time>2026-04-04T14:28:24Z</time></trkpt><trkpt lat="41.29468596676514" lon="13.237751048160444"><ele>2.25</ele><time>2026-04-04T14:28:25Z</time></trkpt><trkpt lat="41.294746479298404" lon="13.23760207207713"><ele>2.0</ele><time>2026-04-04T14:28:26Z</time></trkpt><trkpt lat="41.29480560830299" lon="13.23745176936018"><ele>2.5</ele><time>2026-04-04T14:28:27Z</time></trkpt><trkpt lat="41.29486154061424" lon="13.237303560731073"><ele>3.0</ele><time>2026-04-04T14:28:28Z</time></trkpt><trkpt lat="41.29491641120755" lon="13.237161069191941"><ele>3.5</ele><time>2026-04-04T14:28:29Z</time></trkpt><trkpt lat="41.29497114721413" lon="13.237022609733103"><ele>4.0</ele><time>2026-04-04T14:28:30Z</time></trkpt><trkpt lat="41.29502440686406" lon="13.236884138581082"><ele>4.0</ele><time>2026-04-04T14:28:31Z</time></trkpt><trkpt lat="41.29507769013937" lon="13.236746451473481"><ele>4.0</ele><time>2026-04-04T14:28:32Z</time></trkpt><trkpt lat="41.29512898167142" lon="13.236604989512095"><ele>4.0</ele><time>2026-04-04T14:28:33Z</time></trkpt><trkpt lat="41.29518225627561" lon="13.236461618976744"><ele>4.0</ele><time>2026-04-04T14:28:34Z</time></trkpt><trkpt lat="41.29523742294518" lon="13.236314499901738"><ele>4.0</ele><time>2026-04-04T14:28:35Z</time></trkpt><trkpt lat="41.29529857604993" lon="13.236149744471094"><ele>4.0</ele><time>2026-04-04T14:28:36Z</time></trkpt><trkpt lat="41.29537184603768" lon="13.235948394656619"><ele>4.0</ele><time>2026-04-04T14:28:37Z</time></trkpt><trkpt lat="41.29545538153547" lon="13.23573567095444"><ele>4.0</ele><time>2026-04-04T14:28:38Z</time></trkpt><trkpt lat="41.295547749189645" lon="13.235509350428138"><ele>4.0</ele><time>2026-04-04T14:28:39Z</time></trkpt><trkpt lat="41.29565054609308" lon="13.235297404720756"><ele>4.0</ele><time>2026-04-04T14:28:40Z</time></trkpt><trkpt lat="41.29574111982256" lon="13.23511024456729"><ele>3.6666666666666665</ele><time>2026-04-04T14:28:41Z</time></trkpt><trkpt lat="41.29581497653614" lon="13.23490861260097"><ele>3.333333333333333</ele><time>2026-04-04T14:28:42Z</time></trkpt><trkpt lat="41.29592799279946" lon="13.234725315435126"><ele>3.0</ele><time>2026-04-04T14:28:43Z</time></trkpt><trkpt lat="41.29603189084563" lon="13.234556621795681"><ele>3.0</ele><time>2026-04-04T14:28:44Z</time></trkpt><trkpt lat="41.29612141618789" lon="13.234401856780012"><ele>3.0</ele><time>2026-04-04T14:28:45Z</time></trkpt><trkpt lat="41.29621059579156" lon="13.234255120100004"><ele>3.0</ele><time>2026-04-04T14:28:46Z</time></trkpt><trkpt lat="41.29629605302371" lon="13.234117693408129"><ele>3.0</ele><time>2026-04-04T14:28:47Z</time></trkpt><trkpt lat="41.29638435009197" lon="13.2339648880579"><ele>3.333333333333333</ele><time>2026-04-04T14:28:48Z</time></trkpt><trkpt lat="41.29647262740653" lon="13.233795803090882"><ele>3.6666666666666665</ele><time>2026-04-04T14:28:49Z</time></trkpt><trkpt lat="41.29656417490734" lon="13.2336145071147"><ele>4.0</ele><time>2026-04-04T14:28:50Z</time></trkpt><trkpt lat="41.29665361522927" lon="13.233432357485118"><ele>4.0</ele><time>2026-04-04T14:28:51Z</time></trkpt><trkpt lat="41.29673147517871" lon="13.233250192846436"><ele>4.0</ele><time>2026-04-04T14:28:52Z</time></trkpt><trkpt lat="41.29679811419642" lon="13.233065198357254"><ele>4.0</ele><time>2026-04-04T14:28:53Z</time></trkpt><trkpt lat="41.29686029584576" lon="13.23287854753618"><ele>3.333333333333333</ele><time>2026-04-04T14:28:54Z</time></trkpt><trkpt lat="41.296917786182625" lon="13.232687871661197"><ele>2.6666666666666665</ele><time>2026-04-04T14:28:55Z</time></trkpt><trkpt lat="41.29696697629166" lon="13.232492941772401"><ele>2.0</ele><time>2026-04-04T14:28:56Z</time></trkpt><trkpt lat="41.29700651871526" lon="13.232291819912565"><ele>2.0</ele><time>2026-04-04T14:28:57Z</time></trkpt><trkpt lat="41.29704293697082" lon="13.232091162078554"><ele>2.0</ele><time>2026-04-04T14:28:58Z</time></trkpt><trkpt lat="41.29707270994133" lon="13.231912235923517"><ele>2.0</ele><time>2026-04-04T14:28:58.999Z</time></trkpt><trkpt lat="41.29712633802013" lon="13.231748830797809"><ele>2.0</ele><time>2026-04-04T14:28:59.999Z</time></trkpt><trkpt lat="41.29717413581923" lon="13.231561879536821"><ele>2.333333333333333</ele><time>2026-04-04T14:29:00.999Z</time></trkpt><trkpt lat="41.297267272567126" lon="13.231404809681772"><ele>2.6666666666666665</ele><time>2026-04-04T14:29:02Z</time></trkpt><trkpt lat="41.29734281671607" lon="13.231233698210195"><ele>3.0</ele><time>2026-04-04T14:29:03Z</time></trkpt><trkpt lat="41.297442579830154" lon="13.231074179304834"><ele>3.0</ele><time>2026-04-04T14:29:04Z</time></trkpt><trkpt lat="41.29755456054771" lon="13.230909931528009"><ele>3.0</ele><time>2026-04-04T14:29:05Z</time></trkpt><trkpt lat="41.29765123358628" lon="13.230716643839218"><ele>3.0</ele><time>2026-04-04T14:29:06Z</time></trkpt><trkpt lat="41.297782717087685" lon="13.230570787087965"><ele>3.666666666666667</ele><time>2026-04-04T14:29:07Z</time></trkpt><trkpt lat="41.29792640270496" lon="13.230442872328947"><ele>4.333333333333334</ele><time>2026-04-04T14:29:08Z</time></trkpt><trkpt lat="41.29807081934056" lon="13.23033499706034"><ele>5.0</ele><time>2026-04-04T14:29:09Z</time></trkpt><trkpt lat="41.29821461642399" lon="13.230245887294414"><ele>5.333333333333334</ele><time>2026-04-04T14:29:10Z</time></trkpt><trkpt lat="41.2983573722204" lon="13.230169640570887"><ele>5.666666666666667</ele><time>2026-04-04T14:29:11Z</time></trkpt><trkpt lat="41.29850652030112" lon="13.230100718830336"><ele>6.0</ele><time>2026-04-04T14:29:12Z</time></trkpt><trkpt lat="41.29865396684694" lon="13.230023516387677"><ele>6.0</ele><time>2026-04-04T14:29:13Z</time></trkpt><trkpt lat="41.29883006850814" lon="13.230035608966265"><ele>6.0</ele><time>2026-04-04T14:29:14Z</time></trkpt><trkpt lat="41.29899005242284" lon="13.229987270339818"><ele>6.0</ele><time>2026-04-04T14:29:15Z</time></trkpt><trkpt lat="41.2991527130069" lon="13.229929862136904"><ele>5.666666666666667</ele><time>2026-04-04T14:29:16Z</time></trkpt><trkpt lat="41.29932388807469" lon="13.229878877105174"><ele>5.333333333333334</ele><time>2026-04-04T14:29:17Z</time></trkpt><trkpt lat="41.29949657821251" lon="13.229831502545139"><ele>5.0</ele><time>2026-04-04T14:29:18Z</time></trkpt><trkpt lat="41.299662056649865" lon="13.229778762419835"><ele>4.666666666666667</ele><time>2026-04-04T14:29:19Z</time></trkpt><trkpt lat="41.299832435650494" lon="13.229728756034499"><ele>4.333333333333333</ele><time>2026-04-04T14:29:20Z</time></trkpt><trkpt lat="41.30000947767686" lon="13.229676589512696"><ele>4.0</ele><time>2026-04-04T14:29:21Z</time></trkpt><trkpt lat="41.30019276512575" lon="13.229627833833721"><ele>4.0</ele><time>2026-04-04T14:29:22Z</time></trkpt><trkpt lat="41.300377540973756" lon="13.22957897234705"><ele>4.0</ele><time>2026-04-04T14:29:23Z</time></trkpt><trkpt lat="41.300561748612935" lon="13.229523364080162"><ele>4.0</ele><time>2026-04-04T14:29:24Z</time></trkpt><trkpt lat="41.30074616583518" lon="13.229470820447496"><ele>4.333333333333333</ele><time>2026-04-04T14:29:25Z</time></trkpt><trkpt lat="41.30093052986126" lon="13.229417178674593"><ele>4.666666666666667</ele><time>2026-04-04T14:29:26Z</time></trkpt><trkpt lat="41.30111705413757" lon="13.229361798010771"><ele>5.0</ele><time>2026-04-04T14:29:27Z</time></trkpt><trkpt lat="41.30129710198258" lon="13.229311971395118"><ele>6.0</ele><time>2026-04-04T14:29:28Z</time></trkpt><trkpt lat="41.30146636673487" lon="13.229265512015738"><ele>7.0</ele><time>2026-04-04T14:29:29Z</time></trkpt><trkpt lat="41.301623549598396" lon="13.229225314349021"><ele>8.0</ele><time>2026-04-04T14:29:30Z</time></trkpt><trkpt lat="41.301777156670276" lon="13.229184380240946"><ele>8.0</ele><time>2026-04-04T14:29:31Z</time></trkpt><trkpt lat="41.30192669383024" lon="13.229134224996741"><ele>8.0</ele><time>2026-04-04T14:29:32Z</time></trkpt><trkpt lat="41.3020713396056" lon="13.229069429021731"><ele>8.0</ele><time>2026-04-04T14:29:33Z</time></trkpt><trkpt lat="41.30220265227895" lon="13.228969328552894"><ele>7.5</ele><time>2026-04-04T14:29:34Z</time></trkpt><trkpt lat="41.3023148961164" lon="13.228839914910784"><ele>7.0</ele><time>2026-04-04T14:29:35Z</time></trkpt><trkpt lat="41.30239876619742" lon="13.228696084628131"><ele>6.5</ele><time>2026-04-04T14:29:36Z</time></trkpt><trkpt lat="41.30245022437743" lon="13.228540565403113"><ele>6.0</ele><time>2026-04-04T14:29:37Z</time></trkpt><trkpt lat="41.3024816785505" lon="13.228368122257784"><ele>6.0</ele><time>2026-04-04T14:29:38Z</time></trkpt><trkpt lat="41.30249647638931" lon="13.228190814767565"><ele>6.0</ele><time>2026-04-04T14:29:39Z</time></trkpt><trkpt lat="41.30249027654779" lon="13.228008786280933"><ele>6.0</ele><time>2026-04-04T14:29:40Z</time></trkpt><trkpt lat="41.302461127674604" lon="13.227825119771046"><ele>6.0</ele><time>2026-04-04T14:29:41Z</time></trkpt><trkpt lat="41.302402258615714" lon="13.227651522737878"><ele>6.0</ele><time>2026-04-04T14:29:42Z</time></trkpt><trkpt lat="41.30232233224452" lon="13.227490718971783"><ele>6.0</ele><time>2026-04-04T14:29:43Z</time></trkpt><trkpt lat="41.30222231273718" lon="13.227344183540389"><ele>6.0</ele><time>2026-04-04T14:29:44Z</time></trkpt><trkpt lat="41.30211783400092" lon="13.227207843939722"><ele>6.0</ele><time>2026-04-04T14:29:45Z</time></trkpt><trkpt lat="41.30201181213016" lon="13.227067228813134"><ele>6.0</ele><time>2026-04-04T14:29:46Z</time></trkpt><trkpt lat="41.3019004676301" lon="13.226914664372744"><ele>6.0</ele><time>2026-04-04T14:29:47Z</time></trkpt><trkpt lat="41.301787485925395" lon="13.226756280616224"><ele>6.0</ele><time>2026-04-04T14:29:48Z</time></trkpt><trkpt lat="41.30167165609765" lon="13.22659187008574"><ele>5.666666666666667</ele><time>2026-04-04T14:29:49Z</time></trkpt><trkpt lat="41.301557834305356" lon="13.226427216464423"><ele>5.333333333333334</ele><time>2026-04-04T14:29:50Z</time></trkpt><trkpt lat="41.30144565255173" lon="13.226268104017878"><ele>5.0</ele><time>2026-04-04T14:29:51Z</time></trkpt><trkpt lat="41.301336053645876" lon="13.22611085494829"><ele>5.0</ele><time>2026-04-04T14:29:52Z</time></trkpt><trkpt lat="41.301234849699206" lon="13.225950808874366"><ele>5.0</ele><time>2026-04-04T14:29:53Z</time></trkpt><trkpt lat="41.30114832911162" lon="13.225783596986666"><ele>5.0</ele><time>2026-04-04T14:29:54Z</time></trkpt><trkpt lat="41.3010731521897" lon="13.225604931040214"><ele>4.333333333333334</ele><time>2026-04-04T14:29:55Z</time></trkpt><trkpt lat="41.3010177972285" lon="13.225408479054307"><ele>3.666666666666667</ele><time>2026-04-04T14:29:56Z</time></trkpt><trkpt lat="41.30097892745012" lon="13.225205986491682"><ele>3.0</ele><time>2026-04-04T14:29:57Z</time></trkpt><trkpt lat="41.30095821055023" lon="13.22499710368307"><ele>3.0</ele><time>2026-04-04T14:29:58Z</time></trkpt><trkpt lat="41.30094787076983" lon="13.224780785016113"><ele>3.0</ele><time>2026-04-04T14:29:59Z</time></trkpt><trkpt lat="41.30092990969731" lon="13.224510359980092"><ele>3.0</ele><time>2026-04-04T14:30:00Z</time></trkpt><trkpt lat="41.300915615938635" lon="13.224196941359827"><ele>2.5</ele><time>2026-04-04T14:30:01Z</time></trkpt><trkpt lat="41.30091615507413" lon="13.223879012269943"><ele>2.0</ele><time>2026-04-04T14:30:02Z</time></trkpt><trkpt lat="41.30092021424904" lon="13.223539154254217"><ele>2.0</ele><time>2026-04-04T14:30:03Z</time></trkpt><trkpt lat="41.30093765154353" lon="13.223162701471054"><ele>2.0</ele><time>2026-04-04T14:30:04Z</time></trkpt><trkpt lat="41.30097275693679" lon="13.222769935597036"><ele>2.0</ele><time>2026-04-04T14:30:05Z</time></trkpt><trkpt lat="41.30103074217561" lon="13.222359251887656"><ele>2.0</ele><time>2026-04-04T14:30:06Z</time></trkpt><trkpt lat="41.30109379152034" lon="13.221962761489685"><ele>2.0</ele><time>2026-04-04T14:30:07Z</time></trkpt><trkpt lat="41.30116861975115" lon="13.221601780936417"><ele>2.0</ele><time>2026-04-04T14:30:08Z</time></trkpt><trkpt lat="41.301257484036846" lon="13.221241789011064"><ele>1.5</ele><time>2026-04-04T14:30:09Z</time></trkpt><trkpt lat="41.301352351020164" lon="13.220892877394029"><ele>1.0</ele><time>2026-04-04T14:30:10Z</time></trkpt><trkpt lat="41.30144543392661" lon="13.220544688679436"><ele>2.0</ele><time>2026-04-04T14:30:11Z</time></trkpt><trkpt lat="41.30154199546688" lon="13.220207612778967"><ele>3.0</ele><time>2026-04-04T14:30:12Z</time></trkpt><trkpt lat="41.30163947725462" lon="13.219876034344887"><ele>2.0</ele><time>2026-04-04T14:30:13Z</time></trkpt><trkpt lat="41.30174167326638" lon="13.219550378679973"><ele>1.0</ele><time>2026-04-04T14:30:14Z</time></trkpt><trkpt lat="41.30184792997215" lon="13.219238661037295"><ele>1.0</ele><time>2026-04-04T14:30:15Z</time></trkpt><trkpt lat="41.301958084195185" lon="13.218931657199112"><ele>1.0</ele><time>2026-04-04T14:30:16Z</time></trkpt><trkpt lat="41.30207036828229" lon="13.218625727105119"><ele>1.0</ele><time>2026-04-04T14:30:17Z</time></trkpt><trkpt lat="41.30218542404725" lon="13.218330357441776"><ele>1.0</ele><time>2026-04-04T14:30:18Z</time></trkpt><trkpt lat="41.30230051424049" lon="13.218031406433367"><ele>4.5</ele><time>2026-04-04T14:30:19Z</time></trkpt><trkpt lat="41.30241727666779" lon="13.217734084396396"><ele>8.0</ele><time>2026-04-04T14:30:20Z</time></trkpt><trkpt lat="41.302531204611576" lon="13.217441038685736"><ele>6.5</ele><time>2026-04-04T14:30:21Z</time></trkpt><trkpt lat="41.30264035872656" lon="13.217144227930994"><ele>5.0</ele><time>2026-04-04T14:30:22Z</time></trkpt><trkpt lat="41.302751014882475" lon="13.216850737616047"><ele>5.0</ele><time>2026-04-04T14:30:23Z</time></trkpt><trkpt lat="41.30286252804391" lon="13.216556419840913"><ele>5.0</ele><time>2026-04-04T14:30:24Z</time></trkpt><trkpt lat="41.30297582099585" lon="13.216257076688393"><ele>5.5</ele><time>2026-04-04T14:30:25Z</time></trkpt><trkpt lat="41.30308749271675" lon="13.215960337143141"><ele>6.0</ele><time>2026-04-04T14:30:26Z</time></trkpt><trkpt lat="41.30320321943575" lon="13.215659910359262"><ele>5.5</ele><time>2026-04-04T14:30:27Z</time></trkpt><trkpt lat="41.30332206123761" lon="13.215362021794832"><ele>5.0</ele><time>2026-04-04T14:30:28Z</time></trkpt><trkpt lat="41.30344011588204" lon="13.215060354127765"><ele>5.5</ele><time>2026-04-04T14:30:29Z</time></trkpt><trkpt lat="41.303559308701004" lon="13.214755353958381"><ele>6.0</ele><time>2026-04-04T14:30:30Z</time></trkpt><trkpt lat="41.30367574281125" lon="13.214449338417909"><ele>6.0</ele><time>2026-04-04T14:30:31Z</time></trkpt><trkpt lat="41.303791294524586" lon="13.214146992570354"><ele>6.0</ele><time>2026-04-04T14:30:32Z</time></trkpt><trkpt lat="41.303908821811646" lon="13.21384555481106"><ele>6.0</ele><time>2026-04-04T14:30:33Z</time></trkpt><trkpt lat="41.30402630444665" lon="13.213542589553585"><ele>6.0</ele><time>2026-04-04T14:30:34Z</time></trkpt><trkpt lat="41.30414434609249" lon="13.213240168379057"><ele>6.5</ele><time>2026-04-04T14:30:35Z</time></trkpt><trkpt lat="41.304260918321006" lon="13.212938313031026"><ele>7.0</ele><time>2026-04-04T14:30:36Z</time></trkpt><trkpt lat="41.30437639161388" lon="13.212634545880219"><ele>7.0</ele><time>2026-04-04T14:30:37Z</time></trkpt><trkpt lat="41.304493312070456" lon="13.212329827242849"><ele>7.0</ele><time>2026-04-04T14:30:38Z</time></trkpt><trkpt lat="41.304607575819745" lon="13.21202578399489"><ele>6.0</ele><time>2026-04-04T14:30:39Z</time></trkpt><trkpt lat="41.30472312034257" lon="13.211718830200889"><ele>5.0</ele><time>2026-04-04T14:30:40Z</time></trkpt><trkpt lat="41.30483793061666" lon="13.211416579627967"><ele>4.0</ele><time>2026-04-04T14:30:41Z</time></trkpt><trkpt lat="41.30495361741805" lon="13.211119574258847"><ele>3.0</ele><time>2026-04-04T14:30:42Z</time></trkpt><trkpt lat="41.305069314266575" lon="13.210826951015527"><ele>3.0</ele><time>2026-04-04T14:30:43Z</time></trkpt><trkpt lat="41.30518245737346" lon="13.210534837304511"><ele>3.0</ele><time>2026-04-04T14:30:44Z</time></trkpt><trkpt lat="41.3052934287065" lon="13.210245710186179"><ele>3.0</ele><time>2026-04-04T14:30:45Z</time></trkpt><trkpt lat="41.305404882722904" lon="13.209960202013342"><ele>3.0</ele><time>2026-04-04T14:30:46Z</time></trkpt><trkpt lat="41.30551520339306" lon="13.209674401026238"><ele>2.5</ele><time>2026-04-04T14:30:47Z</time></trkpt><trkpt lat="41.305623359889445" lon="13.209388284349085"><ele>2.0</ele><time>2026-04-04T14:30:48Z</time></trkpt><trkpt lat="41.30573073910659" lon="13.209104762236743"><ele>3.5</ele><time>2026-04-04T14:30:49Z</time></trkpt><trkpt lat="41.30583907553653" lon="13.208824919423964"><ele>5.0</ele><time>2026-04-04T14:30:50Z</time></trkpt><trkpt lat="41.30594848434663" lon="13.208541996161522"><ele>5.0</ele><time>2026-04-04T14:30:51Z</time></trkpt><trkpt lat="41.30605696929473" lon="13.208257083724446"><ele>5.0</ele><time>2026-04-04T14:30:52Z</time></trkpt><trkpt lat="41.30616402563632" lon="13.207974072078306"><ele>4.5</ele><time>2026-04-04T14:30:53Z</time></trkpt><trkpt lat="41.30627521515381" lon="13.207687678916306"><ele>4.0</ele><time>2026-04-04T14:30:54Z</time></trkpt><trkpt lat="41.30638124027471" lon="13.207406482188055"><ele>3.0</ele><time>2026-04-04T14:30:55Z</time></trkpt><trkpt lat="41.30647814811451" lon="13.207149883636145"><ele>2.0</ele><time>2026-04-04T14:30:56Z</time></trkpt><trkpt lat="41.3065729029842" lon="13.206906509135862"><ele>1.0</ele><time>2026-04-04T14:30:57Z</time></trkpt><trkpt lat="41.30666748899568" lon="13.206658919960061"><ele>1.6666666666666665</ele><time>2026-04-04T14:30:58Z</time></trkpt><trkpt lat="41.30676268289713" lon="13.20641255104918"><ele>2.3333333333333335</ele><time>2026-04-04T14:30:59Z</time></trkpt><trkpt lat="41.306857336558096" lon="13.206165242572055"><ele>3.0</ele><time>2026-04-04T14:31:00Z</time></trkpt><trkpt lat="41.306952765318414" lon="13.205908254248756"><ele>3.0</ele><time>2026-04-04T14:31:01Z</time></trkpt><trkpt lat="41.30705228289121" lon="13.205643284843289"><ele>3.0</ele><time>2026-04-04T14:31:02Z</time></trkpt><trkpt lat="41.307157432976844" lon="13.205371465716537"><ele>3.5</ele><time>2026-04-04T14:31:02.999Z</time></trkpt><trkpt lat="41.30726211722513" lon="13.205099433468034"><ele>4.0</ele><time>2026-04-04T14:31:03.999Z</time></trkpt><trkpt lat="41.30736502165404" lon="13.204828440112532"><ele>3.333333333333333</ele><time>2026-04-04T14:31:04.999Z</time></trkpt><trkpt lat="41.307468994633304" lon="13.204563663059147"><ele>2.6666666666666665</ele><time>2026-04-04T14:31:05.999Z</time></trkpt><trkpt lat="41.30757202937072" lon="13.204304199645811"><ele>2.0</ele><time>2026-04-04T14:31:06.999Z</time></trkpt><trkpt lat="41.30767212625968" lon="13.20404664222019"><ele>2.0</ele><time>2026-04-04T14:31:08Z</time></trkpt><trkpt lat="41.30776342579692" lon="13.20380376443146"><ele>2.0</ele><time>2026-04-04T14:31:09Z</time></trkpt><trkpt lat="41.30784859810384" lon="13.203577305406391"><ele>2.0</ele><time>2026-04-04T14:31:10Z</time></trkpt><trkpt lat="41.307932334228724" lon="13.203355856765645"><ele>2.0</ele><time>2026-04-04T14:31:11Z</time></trkpt><trkpt lat="41.308018457407314" lon="13.203131128135817"><ele>2.0</ele><time>2026-04-04T14:31:12Z</time></trkpt><trkpt lat="41.30810581200367" lon="13.20290440430956"><ele>2.0</ele><time>2026-04-04T14:31:13Z</time></trkpt><trkpt lat="41.3081919744726" lon="13.20267626619677"><ele>2.0</ele><time>2026-04-04T14:31:14Z</time></trkpt><trkpt lat="41.30827879990621" lon="13.202446253403929"><ele>2.0</ele><time>2026-04-04T14:31:15Z</time></trkpt><trkpt lat="41.30836582692551" lon="13.202217196865044"><ele>2.0</ele><time>2026-04-04T14:31:16Z</time></trkpt><trkpt lat="41.30845453918552" lon="13.201985625782982"><ele>2.0</ele><time>2026-04-04T14:31:17Z</time></trkpt><trkpt lat="41.30854394504903" lon="13.201751537904508"><ele>2.0</ele><time>2026-04-04T14:31:18Z</time></trkpt><trkpt lat="41.30863292035332" lon="13.201519237745181"><ele>2.0</ele><time>2026-04-04T14:31:19Z</time></trkpt><trkpt lat="41.30872213607782" lon="13.201281730040455"><ele>1.3333333333333333</ele><time>2026-04-04T14:31:20Z</time></trkpt><trkpt lat="41.3088141594983" lon="13.201041746085357"><ele>0.6666666666666666</ele><time>2026-04-04T14:31:21Z</time></trkpt><trkpt lat="41.30890783569277" lon="13.200798785217895"><ele>0.0</ele><time>2026-04-04T14:31:22Z</time></trkpt><trkpt lat="41.30900354171947" lon="13.200551542555342"><ele>0.0</ele><time>2026-04-04T14:31:23Z</time></trkpt><trkpt lat="41.30909794693192" lon="13.200304988755114"><ele>0.0</ele><time>2026-04-04T14:31:24Z</time></trkpt><trkpt lat="41.30919404989788" lon="13.200066349837847"><ele>0.0</ele><time>2026-04-04T14:31:25Z</time></trkpt><trkpt lat="41.30929275281223" lon="13.19984311908713"><ele>0.3333333333333333</ele><time>2026-04-04T14:31:26Z</time></trkpt><trkpt lat="41.30940141046927" lon="13.199626892947194"><ele>0.6666666666666666</ele><time>2026-04-04T14:31:27Z</time></trkpt><trkpt lat="41.30952261091668" lon="13.199423006545445"><ele>1.0</ele><time>2026-04-04T14:31:28Z</time></trkpt><trkpt lat="41.30965360318596" lon="13.199225198700573"><ele>1.0</ele><time>2026-04-04T14:31:29Z</time></trkpt><trkpt lat="41.30978477407928" lon="13.19903708993725"><ele>1.0</ele><time>2026-04-04T14:31:30Z</time></trkpt><trkpt lat="41.309914693777834" lon="13.198856379699759"><ele>1.0</ele><time>2026-04-04T14:31:31Z</time></trkpt><trkpt lat="41.31004837556725" lon="13.198684432828097"><ele>1.0</ele><time>2026-04-04T14:31:32Z</time></trkpt><trkpt lat="41.31018111821368" lon="13.198515586431308"><ele>1.0</ele><time>2026-04-04T14:31:33Z</time></trkpt><trkpt lat="41.310314466237955" lon="13.198346754904685"><ele>1.0</ele><time>2026-04-04T14:31:34Z</time></trkpt><trkpt lat="41.31044826908106" lon="13.198179174043025"><ele>0.0</ele><time>2026-04-04T14:31:35Z</time></trkpt><trkpt lat="41.31058003902388" lon="13.198010248137937"><ele>-1.0</ele><time>2026-04-04T14:31:36Z</time></trkpt><trkpt lat="41.3107106016395" lon="13.197841740075193"><ele>-2.0</ele><time>2026-04-04T14:31:37Z</time></trkpt><trkpt lat="41.310843264351696" lon="13.197670135322173"><ele>-2.0</ele><time>2026-04-04T14:31:38Z</time></trkpt><trkpt lat="41.310978512181066" lon="13.197499470334925"><ele>-2.0</ele><time>2026-04-04T14:31:39Z</time></trkpt><trkpt lat="41.311116090801875" lon="13.197326331762131"><ele>-2.0</ele><time>2026-04-04T14:31:40Z</time></trkpt><trkpt lat="41.31125534786529" lon="13.197147728317242"><ele>-1.0</ele><time>2026-04-04T14:31:41Z</time></trkpt><trkpt lat="41.31139612926226" lon="13.196968185995468"><ele>0.0</ele><time>2026-04-04T14:31:42Z</time></trkpt><trkpt lat="41.31153755255688" lon="13.196785519230687"><ele>1.0</ele><time>2026-04-04T14:31:43Z</time></trkpt><trkpt lat="41.31168043000905" lon="13.196604355462421"><ele>1.0</ele><time>2026-04-04T14:31:44Z</time></trkpt><trkpt lat="41.31182056758631" lon="13.19642398624116"><ele>1.0</ele><time>2026-04-04T14:31:45Z</time></trkpt><trkpt lat="41.31195613402023" lon="13.196250646198958"><ele>1.0</ele><time>2026-04-04T14:31:46Z</time></trkpt><trkpt lat="41.31209121239613" lon="13.19608252421384"><ele>1.0</ele><time>2026-04-04T14:31:47Z</time></trkpt><trkpt lat="41.312227851150304" lon="13.195909633243796"><ele>1.0</ele><time>2026-04-04T14:31:48Z</time></trkpt><trkpt lat="41.31236524808371" lon="13.195733025663596"><ele>1.0</ele><time>2026-04-04T14:31:49Z</time></trkpt><trkpt lat="41.31250406748516" lon="13.195554882530296"><ele>1.0</ele><time>2026-04-04T14:31:50Z</time></trkpt><trkpt lat="41.312643959127264" lon="13.195380193321629"><ele>1.0</ele><time>2026-04-04T14:31:51Z</time></trkpt><trkpt lat="41.31278029868415" lon="13.195207170319923"><ele>1.0</ele><time>2026-04-04T14:31:52Z</time></trkpt><trkpt lat="41.31291387057543" lon="13.195036641487112"><ele>1.0</ele><time>2026-04-04T14:31:53Z</time></trkpt><trkpt lat="41.313049385610306" lon="13.194865382912445"><ele>1.0</ele><time>2026-04-04T14:31:54Z</time></trkpt><trkpt lat="41.31318493327639" lon="13.194691080304866"><ele>1.0</ele><time>2026-04-04T14:31:55Z</time></trkpt><trkpt lat="41.31332084045995" lon="13.194519038802596"><ele>1.3333333333333333</ele><time>2026-04-04T14:31:56Z</time></trkpt><trkpt lat="41.313457360996296" lon="13.194342971145543"><ele>1.6666666666666665</ele><time>2026-04-04T14:31:57Z</time></trkpt><trkpt lat="41.31359510317029" lon="13.194167824910847"><ele>2.0</ele><time>2026-04-04T14:31:58Z</time></trkpt><trkpt lat="41.313728270760805" lon="13.193996635668933"><ele>2.0</ele><time>2026-04-04T14:31:59Z</time></trkpt><trkpt lat="41.313854165915075" lon="13.193835447551079"><ele>2.0</ele><time>2026-04-04T14:32:00Z</time></trkpt><trkpt lat="41.31397881621723" lon="13.193672444306985"><ele>2.0</ele><time>2026-04-04T14:32:01Z</time></trkpt><trkpt lat="41.314107047261395" lon="13.193510792214807"><ele>1.6666666666666665</ele><time>2026-04-04T14:32:02Z</time></trkpt><trkpt lat="41.31423739347518" lon="13.193348671741099"><ele>1.3333333333333333</ele><time>2026-04-04T14:32:03Z</time></trkpt><trkpt lat="41.31437339194682" lon="13.193178681027643"><ele>1.0</ele><time>2026-04-04T14:32:04Z</time></trkpt><trkpt lat="41.31451208922526" lon="13.193000423549298"><ele>0.6666666666666666</ele><time>2026-04-04T14:32:05Z</time></trkpt><trkpt lat="41.3146558100432" lon="13.192819972463775"><ele>0.3333333333333333</ele><time>2026-04-04T14:32:06Z</time></trkpt><trkpt lat="41.31480110266968" lon="13.192635060055183"><ele>0.0</ele><time>2026-04-04T14:32:07Z</time></trkpt><trkpt lat="41.31494679480516" lon="13.192447271610568"><ele>0.6666666666666666</ele><time>2026-04-04T14:32:08Z</time></trkpt><trkpt lat="41.31509365271145" lon="13.192260855144621"><ele>1.3333333333333333</ele><time>2026-04-04T14:32:09Z</time></trkpt><trkpt lat="41.31524222675807" lon="13.192071470073412"><ele>2.0</ele><time>2026-04-04T14:32:10Z</time></trkpt><trkpt lat="41.315391714683976" lon="13.191885399076545"><ele>2.0</ele><time>2026-04-04T14:32:11Z</time></trkpt><trkpt lat="41.31553909524487" lon="13.191697895007673"><ele>2.0</ele><time>2026-04-04T14:32:12Z</time></trkpt><trkpt lat="41.31568336210598" lon="13.19151173986092"><ele>2.0</ele><time>2026-04-04T14:32:13Z</time></trkpt><trkpt lat="41.31582874725165" lon="13.191324253270379"><ele>2.333333333333333</ele><time>2026-04-04T14:32:14Z</time></trkpt><trkpt lat="41.315974357373015" lon="13.191140053728313"><ele>2.6666666666666665</ele><time>2026-04-04T14:32:15Z</time></trkpt><trkpt lat="41.31611338392116" lon="13.190962477765984"><ele>3.0</ele><time>2026-04-04T14:32:16Z</time></trkpt><trkpt lat="41.31624565302042" lon="13.190793700079471"><ele>2.6666666666666665</ele><time>2026-04-04T14:32:17Z</time></trkpt><trkpt lat="41.316377140064276" lon="13.19062613923121"><ele>2.333333333333333</ele><time>2026-04-04T14:32:18Z</time></trkpt><trkpt lat="41.316509989114365" lon="13.19045762754614"><ele>2.0</ele><time>2026-04-04T14:32:19Z</time></trkpt><trkpt lat="41.31664335322825" lon="13.190289421398317"><ele>2.0</ele><time>2026-04-04T14:32:20Z</time></trkpt><trkpt lat="41.31677739859307" lon="13.19012111570956"><ele>2.0</ele><time>2026-04-04T14:32:21Z</time></trkpt><trkpt lat="41.31691020609501" lon="13.18995461867422"><ele>2.0</ele><time>2026-04-04T14:32:22Z</time></trkpt><trkpt lat="41.31703363950368" lon="13.189797537754586"><ele>2.0</ele><time>2026-04-04T14:32:23Z</time></trkpt><trkpt lat="41.31715362951309" lon="13.18964734426088"><ele>2.0</ele><time>2026-04-04T14:32:24Z</time></trkpt><trkpt lat="41.31727565946792" lon="13.189494821367267"><ele>2.0</ele><time>2026-04-04T14:32:25Z</time></trkpt><trkpt lat="41.317396558179105" lon="13.189339311591269"><ele>2.333333333333333</ele><time>2026-04-04T14:32:26Z</time></trkpt><trkpt lat="41.317519170956324" lon="13.189185917719"><ele>2.6666666666666665</ele><time>2026-04-04T14:32:27Z</time></trkpt><trkpt lat="41.31763849340903" lon="13.189034918454176"><ele>3.0</ele><time>2026-04-04T14:32:28Z</time></trkpt><trkpt lat="41.31775861061716" lon="13.188882014596645"><ele>3.0</ele><time>2026-04-04T14:32:29Z</time></trkpt><trkpt lat="41.317878192906925" lon="13.188728603185597"><ele>3.0</ele><time>2026-04-04T14:32:30Z</time></trkpt><trkpt lat="41.31799931162135" lon="13.18857186649655"><ele>3.0</ele><time>2026-04-04T14:32:31Z</time></trkpt><trkpt lat="41.31812327802253" lon="13.18841569499351"><ele>3.0</ele><time>2026-04-04T14:32:32Z</time></trkpt><trkpt lat="41.318249085916655" lon="13.188254753793414"><ele>3.0</ele><time>2026-04-04T14:32:33Z</time></trkpt><trkpt lat="41.31838196214406" lon="13.18809388773333"><ele>3.0</ele><time>2026-04-04T14:32:34Z</time></trkpt><trkpt lat="41.318518091379076" lon="13.187928855531084"><ele>3.0</ele><time>2026-04-04T14:32:35Z</time></trkpt><trkpt lat="41.31865581787376" lon="13.187759285391726"><ele>3.0</ele><time>2026-04-04T14:32:36Z</time></trkpt><trkpt lat="41.31879626663467" lon="13.18758810299701"><ele>3.0</ele><time>2026-04-04T14:32:37Z</time></trkpt><trkpt lat="41.31893842913947" lon="13.187417686652637"><ele>2.6666666666666665</ele><time>2026-04-04T14:32:38Z</time></trkpt><trkpt lat="41.31908016877066" lon="13.187246574133653"><ele>2.333333333333333</ele><time>2026-04-04T14:32:39Z</time></trkpt><trkpt lat="41.31921600516077" lon="13.187080070725292"><ele>2.0</ele><time>2026-04-04T14:32:40Z</time></trkpt><trkpt lat="41.319344440295026" lon="13.186923969849353"><ele>2.0</ele><time>2026-04-04T14:32:41Z</time></trkpt><trkpt lat="41.319471162220026" lon="13.18677302469207"><ele>2.0</ele><time>2026-04-04T14:32:42Z</time></trkpt><trkpt lat="41.3195943132947" lon="13.186629174584281"><ele>2.0</ele><time>2026-04-04T14:32:43Z</time></trkpt><trkpt lat="41.31971602887232" lon="13.186490061968849"><ele>2.0</ele><time>2026-04-04T14:32:44Z</time></trkpt><trkpt lat="41.31983747135474" lon="13.186354608761768"><ele>2.0</ele><time>2026-04-04T14:32:45Z</time></trkpt><trkpt lat="41.31995976034888" lon="13.186225084148187"><ele>2.0</ele><time>2026-04-04T14:32:46Z</time></trkpt><trkpt lat="41.32007943157389" lon="13.186103805581569"><ele>2.0</ele><time>2026-04-04T14:32:47Z</time></trkpt><trkpt lat="41.32020008049174" lon="13.185990451327502"><ele>2.0</ele><time>2026-04-04T14:32:48Z</time></trkpt><trkpt lat="41.32032686893727" lon="13.185882004995527"><ele>2.0</ele><time>2026-04-04T14:32:49Z</time></trkpt><trkpt lat="41.32046097969254" lon="13.18578061986437"><ele>2.0</ele><time>2026-04-04T14:32:50Z</time></trkpt><trkpt lat="41.320601311297715" lon="13.185691373531215"><ele>2.0</ele><time>2026-04-04T14:32:51Z</time></trkpt><trkpt lat="41.32074159614372" lon="13.18561846934656"><ele>2.0</ele><time>2026-04-04T14:32:52Z</time></trkpt><trkpt lat="41.32088532824857" lon="13.185551342594277"><ele>2.6666666666666665</ele><time>2026-04-04T14:32:53Z</time></trkpt><trkpt lat="41.32103717404258" lon="13.185495173740971"><ele>3.333333333333333</ele><time>2026-04-04T14:32:54Z</time></trkpt><trkpt lat="41.32119551582649" lon="13.185449243018933"><ele>4.0</ele><time>2026-04-04T14:32:55Z</time></trkpt><trkpt lat="41.32135771153578" lon="13.185423664744896"><ele>3.6666666666666665</ele><time>2026-04-04T14:32:56Z</time></trkpt><trkpt lat="41.32151745850934" lon="13.185414742880425"><ele>3.333333333333333</ele><time>2026-04-04T14:32:57Z</time></trkpt><trkpt lat="41.32167765416576" lon="13.185411252804846"><ele>3.0</ele><time>2026-04-04T14:32:58Z</time></trkpt><trkpt lat="41.321839088480054" lon="13.185421956469659"><ele>3.0</ele><time>2026-04-04T14:32:59Z</time></trkpt><trkpt lat="41.32199958368944" lon="13.185453368516256"><ele>3.0</ele><time>2026-04-04T14:33:00Z</time></trkpt><trkpt lat="41.3221612773974" lon="13.185495261364405"><ele>3.0</ele><time>2026-04-04T14:33:01Z</time></trkpt><trkpt lat="41.32232226366204" lon="13.185549913365092"><ele>3.0</ele><time>2026-04-04T14:33:02Z</time></trkpt><trkpt lat="41.32247712591008" lon="13.185615482463074"><ele>3.0</ele><time>2026-04-04T14:33:03Z</time></trkpt><trkpt lat="41.322624759154266" lon="13.185693719706007"><ele>3.0</ele><time>2026-04-04T14:33:04Z</time></trkpt><trkpt lat="41.32277073390611" lon="13.185784438463752"><ele>3.0</ele><time>2026-04-04T14:33:05Z</time></trkpt><trkpt lat="41.322917636403" lon="13.185884154654971"><ele>3.0</ele><time>2026-04-04T14:33:06Z</time></trkpt><trkpt lat="41.32306159778041" lon="13.185995317275571"><ele>3.0</ele><time>2026-04-04T14:33:06.999Z</time></trkpt><trkpt lat="41.3232068456102" lon="13.186116063201494"><ele>3.333333333333333</ele><time>2026-04-04T14:33:07.999Z</time></trkpt><trkpt lat="41.32334928877769" lon="13.186240924301172"><ele>3.6666666666666665</ele><time>2026-04-04T14:33:08.999Z</time></trkpt><trkpt lat="41.32348656309494" lon="13.186367844538339"><ele>4.0</ele><time>2026-04-04T14:33:09.999Z</time></trkpt><trkpt lat="41.323626475122516" lon="13.186498516823988"><ele>4.0</ele><time>2026-04-04T14:33:10.999Z</time></trkpt><trkpt lat="41.32376683483509" lon="13.186633268673756"><ele>4.0</ele><time>2026-04-04T14:33:11.999Z</time></trkpt><trkpt lat="41.323899858437876" lon="13.186761175079242"><ele>4.0</ele><time>2026-04-04T14:33:12.999Z</time></trkpt><trkpt lat="41.32404002992165" lon="13.186886819840504"><ele>4.0</ele><time>2026-04-04T14:33:14Z</time></trkpt><trkpt lat="41.32418617083986" lon="13.187009982612338"><ele>4.0</ele><time>2026-04-04T14:33:15Z</time></trkpt><trkpt lat="41.324339737762315" lon="13.187129289175818"><ele>4.0</ele><time>2026-04-04T14:33:16Z</time></trkpt><trkpt lat="41.324489965061325" lon="13.187245682759421"><ele>3.6666666666666665</ele><time>2026-04-04T14:33:17Z</time></trkpt><trkpt lat="41.32464055575435" lon="13.187360957559894"><ele>3.333333333333333</ele><time>2026-04-04T14:33:18Z</time></trkpt><trkpt lat="41.32479069621506" lon="13.187473490961555"><ele>3.0</ele><time>2026-04-04T14:33:19Z</time></trkpt><trkpt lat="41.324944458577654" lon="13.187589337498915"><ele>2.6666666666666665</ele><time>2026-04-04T14:33:20Z</time></trkpt><trkpt lat="41.32509445584627" lon="13.187705800225437"><ele>2.333333333333333</ele><time>2026-04-04T14:33:21Z</time></trkpt><trkpt lat="41.325245843626746" lon="13.187823584488632"><ele>2.0</ele><time>2026-04-04T14:33:22Z</time></trkpt><trkpt lat="41.32539289727239" lon="13.187932833190663"><ele>2.0</ele><time>2026-04-04T14:33:23Z</time></trkpt><trkpt lat="41.325545503792014" lon="13.188057255600171"><ele>2.0</ele><time>2026-04-04T14:33:24Z</time></trkpt><trkpt lat="41.3257154069061" lon="13.18818780099903"><ele>2.0</ele><time>2026-04-04T14:33:25Z</time></trkpt><trkpt lat="41.325893077782226" lon="13.188319795021267"><ele>1.5</ele><time>2026-04-04T14:33:26Z</time></trkpt><trkpt lat="41.32608723486791" lon="13.188457885407214"><ele>1.0</ele><time>2026-04-04T14:33:27Z</time></trkpt><trkpt lat="41.326292644312986" lon="13.188619936625699"><ele>1.0</ele><time>2026-04-04T14:33:28Z</time></trkpt><trkpt lat="41.32650787953707" lon="13.188793893960815"><ele>1.0</ele><time>2026-04-04T14:33:29Z</time></trkpt><trkpt lat="41.326733042704085" lon="13.188977826351072"><ele>1.0</ele><time>2026-04-04T14:33:30Z</time></trkpt><trkpt lat="41.32696967405632" lon="13.189163304621669"><ele>1.0</ele><time>2026-04-04T14:33:31Z</time></trkpt><trkpt lat="41.3272122076598" lon="13.189351519880393"><ele>0.5</ele><time>2026-04-04T14:33:32Z</time></trkpt><trkpt lat="41.327446747276305" lon="13.189532408064306"><ele>0.0</ele><time>2026-04-04T14:33:33Z</time></trkpt><trkpt lat="41.32768624010681" lon="13.189717482579606"><ele>0.0</ele><time>2026-04-04T14:33:34Z</time></trkpt><trkpt lat="41.32792875550069" lon="13.189907232795179"><ele>0.0</ele><time>2026-04-04T14:33:35Z</time></trkpt><trkpt lat="41.32817322868302" lon="13.190096056808262"><ele>0.0</ele><time>2026-04-04T14:33:36Z</time></trkpt><trkpt lat="41.32842153868706" lon="13.190282539080632"><ele>0.0</ele><time>2026-04-04T14:33:37Z</time></trkpt><trkpt lat="41.32867396865328" lon="13.190457200329734"><ele>0.0</ele><time>2026-04-04T14:33:38Z</time></trkpt><trkpt lat="41.32892675431793" lon="13.190631159285967"><ele>0.0</ele><time>2026-04-04T14:33:39Z</time></trkpt><trkpt lat="41.32917597455623" lon="13.190809089932129"><ele>-0.5</ele><time>2026-04-04T14:33:40Z</time></trkpt><trkpt lat="41.32942947976086" lon="13.190985282852136"><ele>-1.0</ele><time>2026-04-04T14:33:41Z</time></trkpt><trkpt lat="41.3296816574318" lon="13.19116041833974"><ele>-1.0</ele><time>2026-04-04T14:33:42Z</time></trkpt><trkpt lat="41.32993510403524" lon="13.191338282446848"><ele>-1.0</ele><time>2026-04-04T14:33:43Z</time></trkpt><trkpt lat="41.33018858580215" lon="13.191511635055715"><ele>-0.5</ele><time>2026-04-04T14:33:44Z</time></trkpt><trkpt lat="41.330439142568274" lon="13.19168397696087"><ele>0.0</ele><time>2026-04-04T14:33:45Z</time></trkpt><trkpt lat="41.33068893741388" lon="13.191856355959827"><ele>0.0</ele><time>2026-04-04T14:33:46Z</time></trkpt><trkpt lat="41.330937905652526" lon="13.192032455455447"><ele>0.0</ele><time>2026-04-04T14:33:47Z</time></trkpt><trkpt lat="41.33119047203092" lon="13.19220762529895"><ele>0.5</ele><time>2026-04-04T14:33:48Z</time></trkpt><trkpt lat="41.33144286700643" lon="13.192388491520688"><ele>1.0</ele><time>2026-04-04T14:33:49Z</time></trkpt><trkpt lat="41.331698252157395" lon="13.192566227034371"><ele>1.0</ele><time>2026-04-04T14:33:50Z</time></trkpt><trkpt lat="41.33195476516419" lon="13.192741193745551"><ele>1.0</ele><time>2026-04-04T14:33:51Z</time></trkpt><trkpt lat="41.33220916867338" lon="13.192913570091587"><ele>1.5</ele><time>2026-04-04T14:33:52Z</time></trkpt><trkpt lat="41.33246151876744" lon="13.193091062645973"><ele>2.0</ele><time>2026-04-04T14:33:53Z</time></trkpt><trkpt lat="41.33271686033365" lon="13.193268217182787"><ele>2.5</ele><time>2026-04-04T14:33:54Z</time></trkpt><trkpt lat="41.3329695607262" lon="13.193448688445457"><ele>3.0</ele><time>2026-04-04T14:33:55Z</time></trkpt><trkpt lat="41.33322374652864" lon="13.193619705656538"><ele>3.0</ele><time>2026-04-04T14:33:56Z</time></trkpt><trkpt lat="41.333480100464236" lon="13.193783214197481"><ele>3.0</ele><time>2026-04-04T14:33:57Z</time></trkpt><trkpt lat="41.33373999203972" lon="13.19393879088115"><ele>2.0</ele><time>2026-04-04T14:33:58Z</time></trkpt><trkpt lat="41.33400613132026" lon="13.19407698252109"><ele>1.0</ele><time>2026-04-04T14:33:59Z</time></trkpt><trkpt lat="41.3342697644958" lon="13.194230532537942"><ele>1.0</ele><time>2026-04-04T14:34:00Z</time></trkpt><trkpt lat="41.334531542788866" lon="13.194377062348227"><ele>1.0</ele><time>2026-04-04T14:34:01Z</time></trkpt><trkpt lat="41.33484349064916" lon="13.194360105924225"><ele>2.0</ele><time>2026-04-04T14:34:02Z</time></trkpt><trkpt lat="41.335128350493484" lon="13.194407154969323"><ele>3.0</ele><time>2026-04-04T14:34:03Z</time></trkpt><trkpt lat="41.33541598810773" lon="13.194424167729826"><ele>4.0</ele><time>2026-04-04T14:34:04Z</time></trkpt><trkpt lat="41.335704667049455" lon="13.1944178171538"><ele>5.0</ele><time>2026-04-04T14:34:05Z</time></trkpt><trkpt lat="41.335991663684624" lon="13.194394898372316"><ele>5.0</ele><time>2026-04-04T14:34:06Z</time></trkpt><trkpt lat="41.336275004429766" lon="13.194346629812221"><ele>5.0</ele><time>2026-04-04T14:34:07Z</time></trkpt><trkpt lat="41.336550717810624" lon="13.19427165391078"><ele>5.5</ele><time>2026-04-04T14:34:08Z</time></trkpt><trkpt lat="41.336824151372454" lon="13.194196462000814"><ele>6.0</ele><time>2026-04-04T14:34:09Z</time></trkpt><trkpt lat="41.337107336396826" lon="13.194073405119834"><ele>5.5</ele><time>2026-04-04T14:34:10Z</time></trkpt><trkpt lat="41.337371236828275" lon="13.193940760653026"><ele>5.0</ele><time>2026-04-04T14:34:11Z</time></trkpt><trkpt lat="41.33763535562362" lon="13.193792483753423"><ele>5.0</ele><time>2026-04-04T14:34:12Z</time></trkpt><trkpt lat="41.33789956699033" lon="13.193642929290771"><ele>5.0</ele><time>2026-04-04T14:34:13Z</time></trkpt><trkpt lat="41.33816447587908" lon="13.19349961317007"><ele>5.0</ele><time>2026-04-04T14:34:14Z</time></trkpt><trkpt lat="41.338429813098735" lon="13.193361620647147"><ele>5.0</ele><time>2026-04-04T14:34:15Z</time></trkpt><trkpt lat="41.33869762132948" lon="13.193228892132101"><ele>3.0</ele><time>2026-04-04T14:34:16Z</time></trkpt><trkpt lat="41.33895739500659" lon="13.193093978264864"><ele>1.0</ele><time>2026-04-04T14:34:17Z</time></trkpt><trkpt lat="41.339218716295456" lon="13.192962912098574"><ele>1.0</ele><time>2026-04-04T14:34:18Z</time></trkpt><trkpt lat="41.339480288463314" lon="13.192840985678936"><ele>1.0</ele><time>2026-04-04T14:34:19Z</time></trkpt><trkpt lat="41.3397388221158" lon="13.192733728996936"><ele>2.0</ele><time>2026-04-04T14:34:20Z</time></trkpt><trkpt lat="41.34000604814558" lon="13.19264423224138"><ele>3.0</ele><time>2026-04-04T14:34:21Z</time></trkpt><trkpt lat="41.340268092205534" lon="13.192556639322731"><ele>3.0</ele><time>2026-04-04T14:34:22Z</time></trkpt><trkpt lat="41.34051499819911" lon="13.192480294608034"><ele>3.0</ele><time>2026-04-04T14:34:23Z</time></trkpt><trkpt lat="41.340744409617145" lon="13.192420123043904"><ele>3.0</ele><time>2026-04-04T14:34:24Z</time></trkpt><trkpt lat="41.34097557909655" lon="13.19237786229438"><ele>3.0</ele><time>2026-04-04T14:34:25Z</time></trkpt><trkpt lat="41.341212335119465" lon="13.19233294148839"><ele>2.6666666666666665</ele><time>2026-04-04T14:34:26Z</time></trkpt><trkpt lat="41.34143653017715" lon="13.192297264587177"><ele>2.333333333333333</ele><time>2026-04-04T14:34:27Z</time></trkpt><trkpt lat="41.34165685751434" lon="13.192275116864222"><ele>2.0</ele><time>2026-04-04T14:34:28Z</time></trkpt><trkpt lat="41.34187939072076" lon="13.19225817958683"><ele>2.0</ele><time>2026-04-04T14:34:29Z</time></trkpt><trkpt lat="41.34209748550735" lon="13.192258211274032"><ele>2.0</ele><time>2026-04-04T14:34:30Z</time></trkpt><trkpt lat="41.34231605659434" lon="13.192262921170226"><ele>2.0</ele><time>2026-04-04T14:34:31Z</time></trkpt><trkpt lat="41.342540249500395" lon="13.19228320625598"><ele>2.0</ele><time>2026-04-04T14:34:32Z</time></trkpt><trkpt lat="41.34275857513707" lon="13.192294971806177"><ele>2.0</ele><time>2026-04-04T14:34:33Z</time></trkpt><trkpt lat="41.34297763810258" lon="13.192307366422252"><ele>2.0</ele><time>2026-04-04T14:34:34Z</time></trkpt><trkpt lat="41.34320199358126" lon="13.19232858976692"><ele>4.0</ele><time>2026-04-04T14:34:35Z</time></trkpt><trkpt lat="41.3434467184922" lon="13.19235368329261"><ele>6.0</ele><time>2026-04-04T14:34:36Z</time></trkpt><trkpt lat="41.343709026297795" lon="13.192378209226366"><ele>6.5</ele><time>2026-04-04T14:34:37Z</time></trkpt><trkpt lat="41.34399815485471" lon="13.192409910209209"><ele>7.0</ele><time>2026-04-04T14:34:38Z</time></trkpt><trkpt lat="41.34430360509475" lon="13.192452439407747"><ele>7.0</ele><time>2026-04-04T14:34:39Z</time></trkpt><trkpt lat="41.34462029188729" lon="13.192500075518456"><ele>7.0</ele><time>2026-04-04T14:34:40Z</time></trkpt><trkpt lat="41.34492812670381" lon="13.192541606287731"><ele>6.5</ele><time>2026-04-04T14:34:41Z</time></trkpt><trkpt lat="41.34523211523231" lon="13.19258658088548"><ele>6.0</ele><time>2026-04-04T14:34:42Z</time></trkpt><trkpt lat="41.34553734994676" lon="13.192632195359273"><ele>5.0</ele><time>2026-04-04T14:34:43Z</time></trkpt><trkpt lat="41.34583089347303" lon="13.1926759123896"><ele>4.0</ele><time>2026-04-04T14:34:44Z</time></trkpt><trkpt lat="41.34610972728211" lon="13.192715641583566"><ele>4.0</ele><time>2026-04-04T14:34:45Z</time></trkpt><trkpt lat="41.34638485676421" lon="13.192755076659248"><ele>4.0</ele><time>2026-04-04T14:34:46Z</time></trkpt><trkpt lat="41.34665823989349" lon="13.19279593038575"><ele>4.0</ele><time>2026-04-04T14:34:47Z</time></trkpt><trkpt lat="41.34692949750096" lon="13.192838213825922"><ele>4.0</ele><time>2026-04-04T14:34:48Z</time></trkpt><trkpt lat="41.34719923968683" lon="13.192880605568131"><ele>3.5</ele><time>2026-04-04T14:34:49Z</time></trkpt><trkpt lat="41.34746655437199" lon="13.19292341634089"><ele>3.0</ele><time>2026-04-04T14:34:50Z</time></trkpt><trkpt lat="41.34772970815524" lon="13.192967430173411"><ele>3.0</ele><time>2026-04-04T14:34:51Z</time></trkpt><trkpt lat="41.347990552848" lon="13.193011633764513"><ele>3.0</ele><time>2026-04-04T14:34:52Z</time></trkpt><trkpt lat="41.348252443826624" lon="13.193053806222059"><ele>3.0</ele><time>2026-04-04T14:34:53Z</time></trkpt><trkpt lat="41.348508204207235" lon="13.193093617275526"><ele>3.0</ele><time>2026-04-04T14:34:54Z</time></trkpt><trkpt lat="41.348752370830276" lon="13.193133564900837"><ele>3.333333333333333</ele><time>2026-04-04T14:34:55Z</time></trkpt><trkpt lat="41.34897604927323" lon="13.193170763812537"><ele>3.6666666666666665</ele><time>2026-04-04T14:34:56Z</time></trkpt><trkpt lat="41.349184334109346" lon="13.193203717166805"><ele>4.0</ele><time>2026-04-04T14:34:57Z</time></trkpt><trkpt lat="41.349380978205076" lon="13.193235108886466"><ele>4.666666666666666</ele><time>2026-04-04T14:34:58Z</time></trkpt><trkpt lat="41.34956218160451" lon="13.193265366373721"><ele>5.333333333333333</ele><time>2026-04-04T14:34:59Z</time></trkpt><trkpt lat="41.34973696649496" lon="13.19329651085272"><ele>6.0</ele><time>2026-04-04T14:35:00Z</time></trkpt><trkpt lat="41.34992581686681" lon="13.19332966349017"><ele>7.0</ele><time>2026-04-04T14:35:01Z</time></trkpt><trkpt lat="41.35013976248852" lon="13.193365850359662"><ele>8.0</ele><time>2026-04-04T14:35:02Z</time></trkpt><trkpt lat="41.350375371546725" lon="13.193399528002217"><ele>7.5</ele><time>2026-04-04T14:35:03Z</time></trkpt><trkpt lat="41.35063636839612" lon="13.193430480430967"><ele>7.0</ele><time>2026-04-04T14:35:04Z</time></trkpt><trkpt lat="41.35089598909285" lon="13.193473942402722"><ele>7.0</ele><time>2026-04-04T14:35:05Z</time></trkpt><trkpt lat="41.35115129173092" lon="13.193520945829748"><ele>7.0</ele><time>2026-04-04T14:35:06Z</time></trkpt><trkpt lat="41.35139268254205" lon="13.193564797311522"><ele>6.333333333333334</ele><time>2026-04-04T14:35:07Z</time></trkpt><trkpt lat="41.35161070801492" lon="13.19360384579477"><ele>5.666666666666667</ele><time>2026-04-04T14:35:08Z</time></trkpt><trkpt lat="41.35181300309123" lon="13.193634468929236"><ele>5.0</ele><time>2026-04-04T14:35:09Z</time></trkpt><trkpt lat="41.35200298316778" lon="13.193665210550241"><ele>4.666666666666667</ele><time>2026-04-04T14:35:09.999Z</time></trkpt><trkpt lat="41.352209010819536" lon="13.193699104500606"><ele>4.333333333333333</ele><time>2026-04-04T14:35:10.999Z</time></trkpt><trkpt lat="41.3524420598029" lon="13.193739346770702"><ele>4.0</ele><time>2026-04-04T14:35:11.999Z</time></trkpt><trkpt lat="41.352689349436694" lon="13.193789511313383"><ele>4.0</ele><time>2026-04-04T14:35:12.999Z</time></trkpt><trkpt lat="41.35293231079389" lon="13.19385005084985"><ele>4.0</ele><time>2026-04-04T14:35:13.999Z</time></trkpt><trkpt lat="41.35316306522215" lon="13.193911893080715"><ele>3.5</ele><time>2026-04-04T14:35:14.999Z</time></trkpt><trkpt lat="41.35339329425455" lon="13.193970143229764"><ele>3.0</ele><time>2026-04-04T14:35:15.999Z</time></trkpt><trkpt lat="41.353637255727996" lon="13.19403845953645"><ele>3.5</ele><time>2026-04-04T14:35:16.999Z</time></trkpt><trkpt lat="41.353884857809135" lon="13.194116471872857"><ele>4.0</ele><time>2026-04-04T14:35:17.999Z</time></trkpt><trkpt lat="41.35410655896343" lon="13.194196117043106"><ele>4.0</ele><time>2026-04-04T14:35:18.999Z</time></trkpt><trkpt lat="41.35431747497519" lon="13.194269972386708"><ele>4.0</ele><time>2026-04-04T14:35:20Z</time></trkpt><trkpt lat="41.354538132599664" lon="13.194347853444528"><ele>4.0</ele><time>2026-04-04T14:35:21Z</time></trkpt><trkpt lat="41.354779582293766" lon="13.19443106972803"><ele>4.0</ele><time>2026-04-04T14:35:22Z</time></trkpt><trkpt lat="41.35503688759143" lon="13.194533889777425"><ele>4.0</ele><time>2026-04-04T14:35:23Z</time></trkpt><trkpt lat="41.35531630247919" lon="13.194647370709815"><ele>4.5</ele><time>2026-04-04T14:35:24Z</time></trkpt><trkpt lat="41.35561325299405" lon="13.194764483177654"><ele>5.0</ele><time>2026-04-04T14:35:25Z</time></trkpt><trkpt lat="41.35589753859149" lon="13.194887522457051"><ele>6.5</ele><time>2026-04-04T14:35:26Z</time></trkpt><trkpt lat="41.356184878457235" lon="13.195003148049011"><ele>8.0</ele><time>2026-04-04T14:35:27Z</time></trkpt><trkpt lat="41.35646896883174" lon="13.195113509358409"><ele>8.0</ele><time>2026-04-04T14:35:28Z</time></trkpt><trkpt lat="41.35675283991348" lon="13.195221353376438"><ele>8.0</ele><time>2026-04-04T14:35:29Z</time></trkpt><trkpt lat="41.35703572533164" lon="13.195332961172083"><ele>6.5</ele><time>2026-04-04T14:35:30Z</time></trkpt><trkpt lat="41.35731631872705" lon="13.195434704869072"><ele>5.0</ele><time>2026-04-04T14:35:31Z</time></trkpt><trkpt lat="41.35760025067372" lon="13.195524325389947"><ele>5.0</ele><time>2026-04-04T14:35:32Z</time></trkpt><trkpt lat="41.35788539987689" lon="13.19560395685314"><ele>5.0</ele><time>2026-04-04T14:35:33Z</time></trkpt><trkpt lat="41.358174728428374" lon="13.195678336194453"><ele>5.0</ele><time>2026-04-04T14:35:34Z</time></trkpt><trkpt lat="41.35846781602376" lon="13.195732697213431"><ele>5.0</ele><time>2026-04-04T14:35:35Z</time></trkpt><trkpt lat="41.35875839016787" lon="13.195783789424269"><ele>4.5</ele><time>2026-04-04T14:35:36Z</time></trkpt><trkpt lat="41.35905341314492" lon="13.195833650216775"><ele>4.0</ele><time>2026-04-04T14:35:37Z</time></trkpt><trkpt lat="41.35935847184278" lon="13.195873004140038"><ele>4.0</ele><time>2026-04-04T14:35:38Z</time></trkpt><trkpt lat="41.359658126485535" lon="13.19591817414788"><ele>4.0</ele><time>2026-04-04T14:35:39Z</time></trkpt><trkpt lat="41.359956798347085" lon="13.19596289765286"><ele>4.0</ele><time>2026-04-04T14:35:40Z</time></trkpt><trkpt lat="41.360261455011866" lon="13.196004880798263"><ele>4.0</ele><time>2026-04-04T14:35:41Z</time></trkpt><trkpt lat="41.36056725432619" lon="13.19605422644267"><ele>5.0</ele><time>2026-04-04T14:35:42Z</time></trkpt><trkpt lat="41.36087374612977" lon="13.196102451943547"><ele>6.0</ele><time>2026-04-04T14:35:43Z</time></trkpt><trkpt lat="41.361184499922715" lon="13.19614913341031"><ele>5.5</ele><time>2026-04-04T14:35:44Z</time></trkpt><trkpt lat="41.36149847866798" lon="13.196195360531098"><ele>5.0</ele><time>2026-04-04T14:35:45Z</time></trkpt><trkpt lat="41.3618208280821" lon="13.196242432530605"><ele>5.0</ele><time>2026-04-04T14:35:46Z</time></trkpt><trkpt lat="41.36215792252361" lon="13.196290035719617"><ele>5.0</ele><time>2026-04-04T14:35:47Z</time></trkpt><trkpt lat="41.362510190654845" lon="13.196340998465594"><ele>4.5</ele><time>2026-04-04T14:35:48Z</time></trkpt><trkpt lat="41.362882001749995" lon="13.19639579979562"><ele>4.0</ele><time>2026-04-04T14:35:49Z</time></trkpt><trkpt lat="41.3632649849265" lon="13.19645433157955"><ele>4.5</ele><time>2026-04-04T14:35:50Z</time></trkpt><trkpt lat="41.36365666063592" lon="13.196519948795519"><ele>5.0</ele><time>2026-04-04T14:35:51Z</time></trkpt><trkpt lat="41.36405522457784" lon="13.196584587457092"><ele>5.5</ele><time>2026-04-04T14:35:52Z</time></trkpt><trkpt lat="41.364419435175996" lon="13.196639314587824"><ele>6.0</ele><time>2026-04-04T14:35:53Z</time></trkpt><trkpt lat="41.3647544668901" lon="13.19669004668405"><ele>6.5</ele><time>2026-04-04T14:35:54Z</time></trkpt><trkpt lat="41.36508106507099" lon="13.196735757950451"><ele>7.0</ele><time>2026-04-04T14:35:55Z</time></trkpt><trkpt lat="41.365395908495955" lon="13.196780982485402"><ele>6.5</ele><time>2026-04-04T14:35:56Z</time></trkpt><trkpt lat="41.36570525552118" lon="13.196822992812178"><ele>6.0</ele><time>2026-04-04T14:35:57Z</time></trkpt><trkpt lat="41.36600886291166" lon="13.196867165055014"><ele>6.0</ele><time>2026-04-04T14:35:58Z</time></trkpt><trkpt lat="41.36631223017567" lon="13.196909469500197"><ele>6.0</ele><time>2026-04-04T14:35:59Z</time></trkpt><trkpt lat="41.36660801442203" lon="13.196952984849773"><ele>6.0</ele><time>2026-04-04T14:36:00Z</time></trkpt><trkpt lat="41.36690527912746" lon="13.197000922482617"><ele>6.0</ele><time>2026-04-04T14:36:01Z</time></trkpt><trkpt lat="41.36720389938177" lon="13.197043225555236"><ele>6.0</ele><time>2026-04-04T14:36:02Z</time></trkpt><trkpt lat="41.36749918760226" lon="13.197086330556939"><ele>6.0</ele><time>2026-04-04T14:36:03Z</time></trkpt><trkpt lat="41.367796004172114" lon="13.197129498014618"><ele>6.0</ele><time>2026-04-04T14:36:04Z</time></trkpt><trkpt lat="41.36809138739976" lon="13.197176246873937"><ele>6.0</ele><time>2026-04-04T14:36:05Z</time></trkpt><trkpt lat="41.368386527051904" lon="13.197220261608198"><ele>6.0</ele><time>2026-04-04T14:36:06Z</time></trkpt><trkpt lat="41.36868232520615" lon="13.197263570096517"><ele>6.0</ele><time>2026-04-04T14:36:07Z</time></trkpt><trkpt lat="41.36897747714054" lon="13.197305034597534"><ele>6.0</ele><time>2026-04-04T14:36:08Z</time></trkpt><trkpt lat="41.369268490893056" lon="13.197348242954547"><ele>6.0</ele><time>2026-04-04T14:36:09Z</time></trkpt><trkpt lat="41.36955834382139" lon="13.197389710246405"><ele>5.5</ele><time>2026-04-04T14:36:10Z</time></trkpt><trkpt lat="41.36984372489709" lon="13.19743225807567"><ele>5.0</ele><time>2026-04-04T14:36:11Z</time></trkpt><trkpt lat="41.37012650893524" lon="13.19747037625617"><ele>5.0</ele><time>2026-04-04T14:36:12Z</time></trkpt><trkpt lat="41.37040720992632" lon="13.197502027798603"><ele>5.0</ele><time>2026-04-04T14:36:13Z</time></trkpt><trkpt lat="41.37069332776384" lon="13.197524897645838"><ele>5.5</ele><time>2026-04-04T14:36:14Z</time></trkpt><trkpt lat="41.370975224870385" lon="13.197541433427048"><ele>6.0</ele><time>2026-04-04T14:36:15Z</time></trkpt><trkpt lat="41.37123630667087" lon="13.197550206033588"><ele>6.5</ele><time>2026-04-04T14:36:16Z</time></trkpt><trkpt lat="41.37148616056417" lon="13.197550975732543"><ele>7.0</ele><time>2026-04-04T14:36:17Z</time></trkpt><trkpt lat="41.37173185702098" lon="13.19754715820688"><ele>7.0</ele><time>2026-04-04T14:36:18Z</time></trkpt><trkpt lat="41.371972963362175" lon="13.197543241355925"><ele>7.0</ele><time>2026-04-04T14:36:19Z</time></trkpt><trkpt lat="41.372204837727054" lon="13.19753563311266"><ele>6.5</ele><time>2026-04-04T14:36:20Z</time></trkpt><trkpt lat="41.3724333113157" lon="13.197524142861955"><ele>6.0</ele><time>2026-04-04T14:36:21Z</time></trkpt><trkpt lat="41.372654942871456" lon="13.19751415337482"><ele>6.0</ele><time>2026-04-04T14:36:22Z</time></trkpt><trkpt lat="41.372873095501994" lon="13.197508284147986"><ele>6.0</ele><time>2026-04-04T14:36:23Z</time></trkpt><trkpt lat="41.373109155791646" lon="13.197491060342763"><ele>7.0</ele><time>2026-04-04T14:36:24Z</time></trkpt><trkpt lat="41.37337624980309" lon="13.197476834301252"><ele>8.0</ele><time>2026-04-04T14:36:25Z</time></trkpt><trkpt lat="41.37365323159397" lon="13.197470304089673"><ele>7.0</ele><time>2026-04-04T14:36:26Z</time></trkpt><trkpt lat="41.37392084566573" lon="13.197462756949061"><ele>6.0</ele><time>2026-04-04T14:36:27Z</time></trkpt><trkpt lat="41.37416282940535" lon="13.197454486805825"><ele>6.0</ele><time>2026-04-04T14:36:28Z</time></trkpt><trkpt lat="41.374387314495976" lon="13.197446660498395"><ele>6.0</ele><time>2026-04-04T14:36:29Z</time></trkpt><trkpt lat="41.37461246101926" lon="13.197435881616906"><ele>5.5</ele><time>2026-04-04T14:36:30Z</time></trkpt><trkpt lat="41.37486079321103" lon="13.197416384226353"><ele>5.0</ele><time>2026-04-04T14:36:31Z</time></trkpt><trkpt lat="41.37513576619662" lon="13.197404747567234"><ele>5.0</ele><time>2026-04-04T14:36:32Z</time></trkpt><trkpt lat="41.37542539106031" lon="13.197399961786603"><ele>5.0</ele><time>2026-04-04T14:36:33Z</time></trkpt><trkpt lat="41.37572657311672" lon="13.197394608105142"><ele>5.0</ele><time>2026-04-04T14:36:34Z</time></trkpt><trkpt lat="41.37602835551601" lon="13.197386458564955"><ele>5.0</ele><time>2026-04-04T14:36:35Z</time></trkpt><trkpt lat="41.37633128564992" lon="13.197377759638838"><ele>5.0</ele><time>2026-04-04T14:36:36Z</time></trkpt><trkpt lat="41.376635636353974" lon="13.197367684705705"><ele>5.0</ele><time>2026-04-04T14:36:37Z</time></trkpt><trkpt lat="41.376937922378445" lon="13.197359656937271"><ele>5.5</ele><time>2026-04-04T14:36:38Z</time></trkpt><trkpt lat="41.3772343534273" lon="13.197361052123721"><ele>6.0</ele><time>2026-04-04T14:36:39Z</time></trkpt><trkpt lat="41.3775307575538" lon="13.197368858372524"><ele>6.0</ele><time>2026-04-04T14:36:40Z</time></trkpt><trkpt lat="41.37782010170868" lon="13.197410654319208"><ele>6.0</ele><time>2026-04-04T14:36:41Z</time></trkpt><trkpt lat="41.378114759617795" lon="13.197480680539192"><ele>7.5</ele><time>2026-04-04T14:36:42Z</time></trkpt><trkpt lat="41.37840343602375" lon="13.197582114067252"><ele>9.0</ele><time>2026-04-04T14:36:43Z</time></trkpt><trkpt lat="41.37868744394141" lon="13.1976997855319"><ele>10.0</ele><time>2026-04-04T14:36:44Z</time></trkpt><trkpt lat="41.37896299638834" lon="13.197841521061921"><ele>11.0</ele><time>2026-04-04T14:36:45Z</time></trkpt><trkpt lat="41.37922873080001" lon="13.198003186379003"><ele>11.5</ele><time>2026-04-04T14:36:46Z</time></trkpt><trkpt lat="41.379486941508624" lon="13.19817568750824"><ele>12.0</ele><time>2026-04-04T14:36:47Z</time></trkpt><trkpt lat="41.37974454932087" lon="13.198350807699745"><ele>12.0</ele><time>2026-04-04T14:36:48Z</time></trkpt><trkpt lat="41.38000098132468" lon="13.198526818047727"><ele>12.0</ele><time>2026-04-04T14:36:49Z</time></trkpt><trkpt lat="41.38025361524657" lon="13.198703255481268"><ele>12.0</ele><time>2026-04-04T14:36:50Z</time></trkpt><trkpt lat="41.38050893091018" lon="13.198878155502925"><ele>12.0</ele><time>2026-04-04T14:36:51Z</time></trkpt><trkpt lat="41.3807619750137" lon="13.19904862553019"><ele>16.0</ele><time>2026-04-04T14:36:52Z</time></trkpt><trkpt lat="41.38101666253857" lon="13.199217267409544"><ele>20.0</ele><time>2026-04-04T14:36:53Z</time></trkpt><trkpt lat="41.38125413054828" lon="13.199385021264522"><ele>20.0</ele><time>2026-04-04T14:36:54Z</time></trkpt><trkpt lat="41.38148205885799" lon="13.199546311967463"><ele>20.0</ele><time>2026-04-04T14:36:55Z</time></trkpt><trkpt lat="41.38171210891846" lon="13.199711446705036"><ele>30.5</ele><time>2026-04-04T14:36:56Z</time></trkpt><trkpt lat="41.38194397581356" lon="13.199867838435015"><ele>41.0</ele><time>2026-04-04T14:36:57Z</time></trkpt><trkpt lat="41.382129256171986" lon="13.200027134250902"><ele>36.0</ele><time>2026-04-04T14:36:58Z</time></trkpt><trkpt lat="41.382358693235716" lon="13.20018131664607"><ele>31.0</ele><time>2026-04-04T14:36:59Z</time></trkpt><trkpt lat="41.38255636418409" lon="13.200334028159945"><ele>31.0</ele><time>2026-04-04T14:37:00Z</time></trkpt><trkpt lat="41.38276306809583" lon="13.2004892833259"><ele>31.0</ele><time>2026-04-04T14:37:01Z</time></trkpt><trkpt lat="41.382968811028185" lon="13.200646983833694"><ele>34.0</ele><time>2026-04-04T14:37:02Z</time></trkpt><trkpt lat="41.38315679156782" lon="13.200773927232799"><ele>37.0</ele><time>2026-04-04T14:37:03Z</time></trkpt><trkpt lat="41.383346727565666" lon="13.200925459947438"><ele>40.0</ele><time>2026-04-04T14:37:04Z</time></trkpt><trkpt lat="41.38352829794538" lon="13.201056461761203"><ele>40.0</ele><time>2026-04-04T14:37:05Z</time></trkpt><trkpt lat="41.38372445088942" lon="13.201184539299613"><ele>40.0</ele><time>2026-04-04T14:37:06Z</time></trkpt><trkpt lat="41.38390980456413" lon="13.201314991453595"><ele>40.0</ele><time>2026-04-04T14:37:07Z</time></trkpt><trkpt lat="41.38407956196605" lon="13.201404762356358"><ele>37.0</ele><time>2026-04-04T14:37:08Z</time></trkpt><trkpt lat="41.38425624394263" lon="13.201496571084878"><ele>34.0</ele><time>2026-04-04T14:37:09Z</time></trkpt><trkpt lat="41.38442188368313" lon="13.201579183415348"><ele>31.0</ele><time>2026-04-04T14:37:10Z</time></trkpt><trkpt lat="41.38458946869349" lon="13.201682088229793"><ele>29.0</ele><time>2026-04-04T14:37:11Z</time></trkpt><trkpt lat="41.3847498295325" lon="13.201802745052808"><ele>27.0</ele><time>2026-04-04T14:37:12Z</time></trkpt><trkpt lat="41.38492922226477" lon="13.201918828419098"><ele>25.0</ele><time>2026-04-04T14:37:13Z</time></trkpt><trkpt lat="41.38512336109845" lon="13.20202505534973"><ele>25.0</ele><time>2026-04-04T14:37:14Z</time></trkpt><trkpt lat="41.38531688664423" lon="13.202131779935"><ele>25.0</ele><time>2026-04-04T14:37:14.999Z</time></trkpt><trkpt lat="41.3855704144471" lon="13.202263715201154"><ele>24.5</ele><time>2026-04-04T14:37:15.999Z</time></trkpt><trkpt lat="41.385781884664176" lon="13.202378607987882"><ele>24.0</ele><time>2026-04-04T14:37:16.999Z</time></trkpt><trkpt lat="41.38599542899754" lon="13.202482349575392"><ele>24.0</ele><time>2026-04-04T14:37:17.999Z</time></trkpt><trkpt lat="41.386211336343244" lon="13.202582044857342"><ele>24.0</ele><time>2026-04-04T14:37:18.999Z</time></trkpt><trkpt lat="41.38642484148792" lon="13.20268448597988"><ele>24.0</ele><time>2026-04-04T14:37:19.999Z</time></trkpt><trkpt lat="41.38664271850399" lon="13.202783266198475"><ele>24.0</ele><time>2026-04-04T14:37:20.999Z</time></trkpt><trkpt lat="41.38686233646576" lon="13.202888131168052"><ele>24.0</ele><time>2026-04-04T14:37:21.999Z</time></trkpt><trkpt lat="41.3870779152542" lon="13.202993917546214"><ele>24.0</ele><time>2026-04-04T14:37:22.999Z</time></trkpt><trkpt lat="41.38729686354413" lon="13.2030996389624"><ele>22.5</ele><time>2026-04-04T14:37:23.999Z</time></trkpt><trkpt lat="41.3875203579135" lon="13.203208294187258"><ele>21.0</ele><time>2026-04-04T14:37:25Z</time></trkpt><trkpt lat="41.387747464366065" lon="13.203319457176807"><ele>21.0</ele><time>2026-04-04T14:37:26Z</time></trkpt><trkpt lat="41.38797835301996" lon="13.203429330994592"><ele>21.0</ele><time>2026-04-04T14:37:27Z</time></trkpt><trkpt lat="41.38821328244188" lon="13.203533955312919"><ele>20.5</ele><time>2026-04-04T14:37:28Z</time></trkpt><trkpt lat="41.38844662894107" lon="13.203647051257269"><ele>20.0</ele><time>2026-04-04T14:37:29Z</time></trkpt><trkpt lat="41.38868384351222" lon="13.203760933054554"><ele>20.0</ele><time>2026-04-04T14:37:30Z</time></trkpt><trkpt lat="41.388925807704645" lon="13.203882618306338"><ele>20.0</ele><time>2026-04-04T14:37:31Z</time></trkpt><trkpt lat="41.389178729248435" lon="13.2040040867221"><ele>20.0</ele><time>2026-04-04T14:37:32Z</time></trkpt><trkpt lat="41.38945937644514" lon="13.204139513466266"><ele>20.0</ele><time>2026-04-04T14:37:33Z</time></trkpt><trkpt lat="41.389765743970294" lon="13.204286367577506"><ele>20.0</ele><time>2026-04-04T14:37:34Z</time></trkpt><trkpt lat="41.39006497190002" lon="13.204450753917774"><ele>20.0</ele><time>2026-04-04T14:37:35Z</time></trkpt><trkpt lat="41.39036585842435" lon="13.20461540362113"><ele>19.5</ele><time>2026-04-04T14:37:36Z</time></trkpt><trkpt lat="41.39067169228533" lon="13.20477229482208"><ele>19.0</ele><time>2026-04-04T14:37:37Z</time></trkpt><trkpt lat="41.39097397159952" lon="13.204924529153164"><ele>20.0</ele><time>2026-04-04T14:37:38Z</time></trkpt><trkpt lat="41.391270228893866" lon="13.205075842486304"><ele>21.0</ele><time>2026-04-04T14:37:39Z</time></trkpt><trkpt lat="41.39156609679751" lon="13.205222549975346"><ele>21.5</ele><time>2026-04-04T14:37:40Z</time></trkpt><trkpt lat="41.391856251286846" lon="13.205366285422265"><ele>22.0</ele><time>2026-04-04T14:37:41Z</time></trkpt><trkpt lat="41.392143143501066" lon="13.205503491490358"><ele>23.0</ele><time>2026-04-04T14:37:42Z</time></trkpt><trkpt lat="41.392431171100995" lon="13.205625729988784"><ele>24.0</ele><time>2026-04-04T14:37:43Z</time></trkpt><trkpt lat="41.392722326841096" lon="13.20572675282621"><ele>25.5</ele><time>2026-04-04T14:37:44Z</time></trkpt><trkpt lat="41.3930128581068" lon="13.205815357397434"><ele>27.0</ele><time>2026-04-04T14:37:45Z</time></trkpt><trkpt lat="41.39330260528011" lon="13.205896037938963"><ele>27.0</ele><time>2026-04-04T14:37:46Z</time></trkpt><trkpt lat="41.39358480217067" lon="13.205965538679594"><ele>27.0</ele><time>2026-04-04T14:37:47Z</time></trkpt><trkpt lat="41.39386625060109" lon="13.206024728031627"><ele>27.5</ele><time>2026-04-04T14:37:48Z</time></trkpt><trkpt lat="41.39414743124611" lon="13.206074633133765"><ele>28.0</ele><time>2026-04-04T14:37:49Z</time></trkpt><trkpt lat="41.39442528765869" lon="13.206127881989367"><ele>28.5</ele><time>2026-04-04T14:37:50Z</time></trkpt><trkpt lat="41.39469619792251" lon="13.20617666090335"><ele>29.0</ele><time>2026-04-04T14:37:51Z</time></trkpt><trkpt lat="41.394966926296874" lon="13.20622887472819"><ele>29.0</ele><time>2026-04-04T14:37:52Z</time></trkpt><trkpt lat="41.39523316010941" lon="13.20627854316501"><ele>29.0</ele><time>2026-04-04T14:37:53Z</time></trkpt><trkpt lat="41.395499038942916" lon="13.206326142610239"><ele>29.0</ele><time>2026-04-04T14:37:54Z</time></trkpt><trkpt lat="41.3957615621774" lon="13.206376232209639"><ele>29.0</ele><time>2026-04-04T14:37:55Z</time></trkpt><trkpt lat="41.396021989528414" lon="13.206422363837616"><ele>29.0</ele><time>2026-04-04T14:37:56Z</time></trkpt><trkpt lat="41.39628540941571" lon="13.206470842822258"><ele>29.0</ele><time>2026-04-04T14:37:57Z</time></trkpt><trkpt lat="41.396545343669295" lon="13.206518184179318"><ele>35.0</ele><time>2026-04-04T14:37:58Z</time></trkpt><trkpt lat="41.39681303720526" lon="13.20656453167151"><ele>41.0</ele><time>2026-04-04T14:37:59Z</time></trkpt><trkpt lat="41.39708479506386" lon="13.206603173268643"><ele>37.5</ele><time>2026-04-04T14:38:00Z</time></trkpt><trkpt lat="41.39735407908747" lon="13.20663377566235"><ele>34.0</ele><time>2026-04-04T14:38:01Z</time></trkpt><trkpt lat="41.397623938879775" lon="13.20664584295394"><ele>34.0</ele><time>2026-04-04T14:38:02Z</time></trkpt><trkpt lat="41.39789565786383" lon="13.206645556919437"><ele>34.0</ele><time>2026-04-04T14:38:03Z</time></trkpt><trkpt lat="41.39816284315018" lon="13.206631384832708"><ele>32.5</ele><time>2026-04-04T14:38:04Z</time></trkpt><trkpt lat="41.39843310902287" lon="13.206598926350525"><ele>31.0</ele><time>2026-04-04T14:38:05Z</time></trkpt><trkpt lat="41.398704296617716" lon="13.206545073639008"><ele>29.0</ele><time>2026-04-04T14:38:06Z</time></trkpt><trkpt lat="41.39897446533831" lon="13.206480201572711"><ele>27.0</ele><time>2026-04-04T14:38:07Z</time></trkpt><trkpt lat="41.39924254242822" lon="13.206407153163914"><ele>27.0</ele><time>2026-04-04T14:38:08Z</time></trkpt><trkpt lat="41.39951327602057" lon="13.206325842995508"><ele>27.0</ele><time>2026-04-04T14:38:09Z</time></trkpt><trkpt lat="41.39978418549196" lon="13.206242311576332"><ele>27.0</ele><time>2026-04-04T14:38:10Z</time></trkpt><trkpt lat="41.40005346629122" lon="13.206160053553738"><ele>27.0</ele><time>2026-04-04T14:38:11Z</time></trkpt><trkpt lat="41.40032354393775" lon="13.206081106404655"><ele>29.0</ele><time>2026-04-04T14:38:12Z</time></trkpt><trkpt lat="41.400599703052116" lon="13.20599418395552"><ele>31.0</ele><time>2026-04-04T14:38:13Z</time></trkpt><trkpt lat="41.40089674841259" lon="13.205900723367744"><ele>31.0</ele><time>2026-04-04T14:38:14Z</time></trkpt><trkpt lat="41.40121131388652" lon="13.205795213205661"><ele>31.0</ele><time>2026-04-04T14:38:15Z</time></trkpt><trkpt lat="41.40153364449035" lon="13.205692582374269"><ele>30.0</ele><time>2026-04-04T14:38:16Z</time></trkpt><trkpt lat="41.4018630533656" lon="13.205592660364116"><ele>29.0</ele><time>2026-04-04T14:38:17Z</time></trkpt><trkpt lat="41.40218537302766" lon="13.205510332839564"><ele>28.5</ele><time>2026-04-04T14:38:18Z</time></trkpt><trkpt lat="41.40250339883926" lon="13.205429755995706"><ele>28.0</ele><time>2026-04-04T14:38:19Z</time></trkpt><trkpt lat="41.40281254386993" lon="13.20533855163524"><ele>28.5</ele><time>2026-04-04T14:38:20Z</time></trkpt><trkpt lat="41.40311597942735" lon="13.205249045705557"><ele>29.0</ele><time>2026-04-04T14:38:21Z</time></trkpt><trkpt lat="41.40340942344686" lon="13.20515839435896"><ele>29.0</ele><time>2026-04-04T14:38:22Z</time></trkpt><trkpt lat="41.403695100922086" lon="13.205071079921014"><ele>29.0</ele><time>2026-04-04T14:38:23Z</time></trkpt><trkpt lat="41.403976032443076" lon="13.204985057516948"><ele>29.5</ele><time>2026-04-04T14:38:24Z</time></trkpt><trkpt lat="41.40425551695956" lon="13.204900520621834"><ele>30.0</ele><time>2026-04-04T14:38:25Z</time></trkpt><trkpt lat="41.40453653934229" lon="13.20481510691835"><ele>28.5</ele><time>2026-04-04T14:38:26Z</time></trkpt><trkpt lat="41.40481786009142" lon="13.204727366984837"><ele>27.0</ele><time>2026-04-04T14:38:27Z</time></trkpt><trkpt lat="41.405099375517864" lon="13.204639152580214"><ele>27.0</ele><time>2026-04-04T14:38:28Z</time></trkpt><trkpt lat="41.40538070910793" lon="13.204551649622662"><ele>27.0</ele><time>2026-04-04T14:38:29Z</time></trkpt><trkpt lat="41.40566206571294" lon="13.204467610827171"><ele>27.0</ele><time>2026-04-04T14:38:30Z</time></trkpt><trkpt lat="41.405941053693816" lon="13.204380851684457"><ele>27.0</ele><time>2026-04-04T14:38:31Z</time></trkpt><trkpt lat="41.40621819685248" lon="13.204295571412448"><ele>27.0</ele><time>2026-04-04T14:38:32Z</time></trkpt><trkpt lat="41.4064960527007" lon="13.204208340362149"><ele>27.0</ele><time>2026-04-04T14:38:33Z</time></trkpt><trkpt lat="41.406777508663076" lon="13.20411721528336"><ele>27.0</ele><time>2026-04-04T14:38:34Z</time></trkpt><trkpt lat="41.40705304265747" lon="13.20403308908758"><ele>27.0</ele><time>2026-04-04T14:38:35Z</time></trkpt><trkpt lat="41.407317061344564" lon="13.203951205058841"><ele>25.5</ele><time>2026-04-04T14:38:36Z</time></trkpt><trkpt lat="41.407574509232724" lon="13.203870681876278"><ele>24.0</ele><time>2026-04-04T14:38:37Z</time></trkpt><trkpt lat="41.40784048383493" lon="13.203788212890158"><ele>22.5</ele><time>2026-04-04T14:38:38Z</time></trkpt><trkpt lat="41.40811451543807" lon="13.20370327845481"><ele>21.0</ele><time>2026-04-04T14:38:39Z</time></trkpt><trkpt lat="41.40839151422672" lon="13.20362902956751"><ele>21.0</ele><time>2026-04-04T14:38:40Z</time></trkpt><trkpt lat="41.40867179502912" lon="13.20357090549543"><ele>21.0</ele><time>2026-04-04T14:38:41Z</time></trkpt><trkpt lat="41.4089515387608" lon="13.203517978525374"><ele>21.5</ele><time>2026-04-04T14:38:42Z</time></trkpt><trkpt lat="41.40923222047928" lon="13.203452978965993"><ele>22.0</ele><time>2026-04-04T14:38:43Z</time></trkpt><trkpt lat="41.40951259742694" lon="13.203384387345757"><ele>22.0</ele><time>2026-04-04T14:38:44Z</time></trkpt><trkpt lat="41.4097884001145" lon="13.203309706420553"><ele>22.0</ele><time>2026-04-04T14:38:45Z</time></trkpt><trkpt lat="41.41006929058656" lon="13.203240964445058"><ele>22.0</ele><time>2026-04-04T14:38:46Z</time></trkpt><trkpt lat="41.41035288944026" lon="13.203173221365994"><ele>22.0</ele><time>2026-04-04T14:38:47Z</time></trkpt><trkpt lat="41.410638622931216" lon="13.203104619131238"><ele>21.0</ele><time>2026-04-04T14:38:48Z</time></trkpt><trkpt lat="41.41092495817571" lon="13.203037819176147"><ele>20.0</ele><time>2026-04-04T14:38:49Z</time></trkpt><trkpt lat="41.411212988025454" lon="13.202967966325472"><ele>21.0</ele><time>2026-04-04T14:38:50Z</time></trkpt><trkpt lat="41.411501606722354" lon="13.202904625692945"><ele>22.0</ele><time>2026-04-04T14:38:51Z</time></trkpt><trkpt lat="41.41179186254041" lon="13.202830259266252"><ele>22.0</ele><time>2026-04-04T14:38:52Z</time></trkpt><trkpt lat="41.412079948324305" lon="13.202764960246824"><ele>22.0</ele><time>2026-04-04T14:38:53Z</time></trkpt><trkpt lat="41.41236587390956" lon="13.202695651778559"><ele>22.5</ele><time>2026-04-04T14:38:54Z</time></trkpt><trkpt lat="41.41264959901368" lon="13.202624297624272"><ele>23.0</ele><time>2026-04-04T14:38:55Z</time></trkpt><trkpt lat="41.412931905980464" lon="13.20255914042453"><ele>26.0</ele><time>2026-04-04T14:38:56Z</time></trkpt><trkpt lat="41.4132139120001" lon="13.202489544334309"><ele>29.0</ele><time>2026-04-04T14:38:57Z</time></trkpt><trkpt lat="41.41349368406148" lon="13.202421291648978"><ele>29.0</ele><time>2026-04-04T14:38:58Z</time></trkpt><trkpt lat="41.41377544891232" lon="13.20235514387523"><ele>29.0</ele><time>2026-04-04T14:38:59Z</time></trkpt><trkpt lat="41.41405845902036" lon="13.202286164975087"><ele>27.5</ele><time>2026-04-04T14:39:00Z</time></trkpt><trkpt lat="41.4143445009937" lon="13.20222011016072"><ele>26.0</ele><time>2026-04-04T14:39:01Z</time></trkpt><trkpt lat="41.41462643663445" lon="13.202142665962741"><ele>31.5</ele><time>2026-04-04T14:39:02Z</time></trkpt><trkpt lat="41.41490628620396" lon="13.202039767058737"><ele>37.0</ele><time>2026-04-04T14:39:03Z</time></trkpt><trkpt lat="41.41518230530491" lon="13.201919486071244"><ele>37.0</ele><time>2026-04-04T14:39:04Z</time></trkpt><trkpt lat="41.415452621953506" lon="13.20178527682854"><ele>37.0</ele><time>2026-04-04T14:39:05Z</time></trkpt><trkpt lat="41.415717946284886" lon="13.201636608835303"><ele>32.0</ele><time>2026-04-04T14:39:06Z</time></trkpt><trkpt lat="41.41597612228539" lon="13.201475115041927"><ele>27.0</ele><time>2026-04-04T14:39:07Z</time></trkpt><trkpt lat="41.41623506198293" lon="13.20130847897956"><ele>32.0</ele><time>2026-04-04T14:39:08Z</time></trkpt><trkpt lat="41.41649392171839" lon="13.201140121122666"><ele>37.0</ele><time>2026-04-04T14:39:09Z</time></trkpt><trkpt lat="41.41675260795954" lon="13.200977311888904"><ele>37.0</ele><time>2026-04-04T14:39:10Z</time></trkpt><trkpt lat="41.41701048733436" lon="13.200818206765197"><ele>37.0</ele><time>2026-04-04T14:39:11Z</time></trkpt><trkpt lat="41.417271774944865" lon="13.200652594533842"><ele>31.0</ele><time>2026-04-04T14:39:11.999Z</time></trkpt><trkpt lat="41.417532420229094" lon="13.200487105473645"><ele>25.0</ele><time>2026-04-04T14:39:12.999Z</time></trkpt><trkpt lat="41.41779320633816" lon="13.200323734953074"><ele>26.5</ele><time>2026-04-04T14:39:13.999Z</time></trkpt><trkpt lat="41.41805109216982" lon="13.200160894072427"><ele>28.0</ele><time>2026-04-04T14:39:14.999Z</time></trkpt><trkpt lat="41.418308743010606" lon="13.19999966394778"><ele>28.0</ele><time>2026-04-04T14:39:15.999Z</time></trkpt><trkpt lat="41.41856492906253" lon="13.199843519705322"><ele>28.0</ele><time>2026-04-04T14:39:16.999Z</time></trkpt><trkpt lat="41.418823902657884" lon="13.199690217797146"><ele>28.5</ele><time>2026-04-04T14:39:17.999Z</time></trkpt><trkpt lat="41.41908411085838" lon="13.19954434234911"><ele>29.0</ele><time>2026-04-04T14:39:18.999Z</time></trkpt><trkpt lat="41.41934691592614" lon="13.199414239492366"><ele>29.0</ele><time>2026-04-04T14:39:19.999Z</time></trkpt><trkpt lat="41.41961620785849" lon="13.199313693671234"><ele>29.0</ele><time>2026-04-04T14:39:20.999Z</time></trkpt><trkpt lat="41.41988939025798" lon="13.199229814936057"><ele>42.5</ele><time>2026-04-04T14:39:21.999Z</time></trkpt><trkpt lat="41.420161958995784" lon="13.199173710764121"><ele>56.0</ele><time>2026-04-04T14:39:22.999Z</time></trkpt><trkpt lat="41.420436900080595" lon="13.19914676652465"><ele>65.5</ele><time>2026-04-04T14:39:23.999Z</time></trkpt><trkpt lat="41.420713113444364" lon="13.199132698136467"><ele>75.0</ele><time>2026-04-04T14:39:24.999Z</time></trkpt><trkpt lat="41.42099786923413" lon="13.19914087276074"><ele>75.0</ele><time>2026-04-04T14:39:25.999Z</time></trkpt><trkpt lat="41.421280173741046" lon="13.19918687303869"><ele>75.0</ele><time>2026-04-04T14:39:26.999Z</time></trkpt><trkpt lat="41.42156428901281" lon="13.199226583452576"><ele>75.5</ele><time>2026-04-04T14:39:27.999Z</time></trkpt><trkpt lat="41.421844890592126" lon="13.199274399632673"><ele>76.0</ele><time>2026-04-04T14:39:28.999Z</time></trkpt><trkpt lat="41.42212207133901" lon="13.19932499551493"><ele>74.0</ele><time>2026-04-04T14:39:29.999Z</time></trkpt><trkpt lat="41.42240237246915" lon="13.199380005571923"><ele>72.0</ele><time>2026-04-04T14:39:31Z</time></trkpt><trkpt lat="41.4226786407345" lon="13.199445464628203"><ele>72.0</ele><time>2026-04-04T14:39:32Z</time></trkpt><trkpt lat="41.42295995906578" lon="13.19952404777367"><ele>72.0</ele><time>2026-04-04T14:39:33Z</time></trkpt><trkpt lat="41.423236058967625" lon="13.199618384756157"><ele>72.0</ele><time>2026-04-04T14:39:34Z</time></trkpt><trkpt lat="41.42350080212978" lon="13.199740624264034"><ele>72.0</ele><time>2026-04-04T14:39:35Z</time></trkpt><trkpt lat="41.4237560456706" lon="13.199885297932237"><ele>63.0</ele><time>2026-04-04T14:39:36Z</time></trkpt><trkpt lat="41.42400546570928" lon="13.20003448643664"><ele>54.0</ele><time>2026-04-04T14:39:37Z</time></trkpt><trkpt lat="41.424233700854145" lon="13.200196234730015"><ele>54.0</ele><time>2026-04-04T14:39:38Z</time></trkpt><trkpt lat="41.42446217245438" lon="13.200368362318772"><ele>54.0</ele><time>2026-04-04T14:39:39Z</time></trkpt><trkpt lat="41.42466774587283" lon="13.200591665011313"><ele>52.0</ele><time>2026-04-04T14:39:40Z</time></trkpt><trkpt lat="41.42489340202254" lon="13.200805329794175"><ele>50.0</ele><time>2026-04-04T14:39:41Z</time></trkpt><trkpt lat="41.42511132264867" lon="13.201035320009154"><ele>50.0</ele><time>2026-04-04T14:39:42Z</time></trkpt><trkpt lat="41.42533754614413" lon="13.201276462457049"><ele>50.0</ele><time>2026-04-04T14:39:43Z</time></trkpt><trkpt lat="41.425566065428974" lon="13.201517152997958"><ele>51.0</ele><time>2026-04-04T14:39:44Z</time></trkpt><trkpt lat="41.425802775230345" lon="13.201765093613972"><ele>52.0</ele><time>2026-04-04T14:39:45Z</time></trkpt><trkpt lat="41.426041621747345" lon="13.202004360517467"><ele>52.0</ele><time>2026-04-04T14:39:46Z</time></trkpt><trkpt lat="41.426280729451676" lon="13.202231786849985"><ele>52.0</ele><time>2026-04-04T14:39:47Z</time></trkpt><trkpt lat="41.426525500255195" lon="13.202445767672204"><ele>47.5</ele><time>2026-04-04T14:39:48Z</time></trkpt><trkpt lat="41.426774945883935" lon="13.202643910414258"><ele>43.0</ele><time>2026-04-04T14:39:49Z</time></trkpt><trkpt lat="41.42702915141877" lon="13.202823918419675"><ele>35.0</ele><time>2026-04-04T14:39:50Z</time></trkpt><trkpt lat="41.427286564023795" lon="13.202982761404428"><ele>27.0</ele><time>2026-04-04T14:39:51Z</time></trkpt><trkpt lat="41.42754927257204" lon="13.203114771961818"><ele>28.0</ele><time>2026-04-04T14:39:52Z</time></trkpt><trkpt lat="41.427815764438385" lon="13.203236425279382"><ele>29.0</ele><time>2026-04-04T14:39:53Z</time></trkpt><trkpt lat="41.428086173116505" lon="13.203344396663343"><ele>29.0</ele><time>2026-04-04T14:39:54Z</time></trkpt><trkpt lat="41.428378827369094" lon="13.20338679905857"><ele>29.0</ele><time>2026-04-04T14:39:55Z</time></trkpt><trkpt lat="41.42866383087343" lon="13.20343932801575"><ele>29.0</ele><time>2026-04-04T14:39:56Z</time></trkpt><trkpt lat="41.42894898403965" lon="13.203462072060619"><ele>29.0</ele><time>2026-04-04T14:39:57Z</time></trkpt><trkpt lat="41.429236037287694" lon="13.203474997780699"><ele>29.0</ele><time>2026-04-04T14:39:58Z</time></trkpt><trkpt lat="41.42952668560602" lon="13.203474745004623"><ele>29.0</ele><time>2026-04-04T14:39:59Z</time></trkpt><trkpt lat="41.42981658058936" lon="13.203469046345528"><ele>29.5</ele><time>2026-04-04T14:40:00Z</time></trkpt><trkpt lat="41.43010365670742" lon="13.20346779197696"><ele>30.0</ele><time>2026-04-04T14:40:01Z</time></trkpt><trkpt lat="41.43039104409236" lon="13.203464334123975"><ele>31.5</ele><time>2026-04-04T14:40:02Z</time></trkpt><trkpt lat="41.430675070415056" lon="13.203468248156756"><ele>33.0</ele><time>2026-04-04T14:40:03Z</time></trkpt><trkpt lat="41.430958757267966" lon="13.203457935147771"><ele>33.0</ele><time>2026-04-04T14:40:04Z</time></trkpt><trkpt lat="41.43123837183455" lon="13.203454001963252"><ele>33.0</ele><time>2026-04-04T14:40:05Z</time></trkpt><trkpt lat="41.431518966096924" lon="13.203459670115988"><ele>37.0</ele><time>2026-04-04T14:40:06Z</time></trkpt><trkpt lat="41.43179238241613" lon="13.203473995231478"><ele>41.0</ele><time>2026-04-04T14:40:07Z</time></trkpt><trkpt lat="41.432067041174925" lon="13.203492147029763"><ele>44.5</ele><time>2026-04-04T14:40:08Z</time></trkpt><trkpt lat="41.432335316602796" lon="13.203526010430283"><ele>48.0</ele><time>2026-04-04T14:40:09Z</time></trkpt><trkpt lat="41.43260447477244" lon="13.203571308362973"><ele>48.0</ele><time>2026-04-04T14:40:10Z</time></trkpt><trkpt lat="41.43286821953329" lon="13.203627325842549"><ele>48.0</ele><time>2026-04-04T14:40:11Z</time></trkpt><trkpt lat="41.433136643117294" lon="13.203682425697881"><ele>49.5</ele><time>2026-04-04T14:40:12Z</time></trkpt><trkpt lat="41.43339404299026" lon="13.203775854414006"><ele>51.0</ele><time>2026-04-04T14:40:13Z</time></trkpt><trkpt lat="41.43366100384469" lon="13.203819909357975"><ele>50.0</ele><time>2026-04-04T14:40:14Z</time></trkpt><trkpt lat="41.43392910533697" lon="13.20388185698513"><ele>49.0</ele><time>2026-04-04T14:40:15Z</time></trkpt><trkpt lat="41.43418902178716" lon="13.203943897514522"><ele>48.5</ele><time>2026-04-04T14:40:16Z</time></trkpt><trkpt lat="41.43444805961977" lon="13.20400096543343"><ele>48.0</ele><time>2026-04-04T14:40:17Z</time></trkpt><trkpt lat="41.43469792717791" lon="13.20406498560294"><ele>48.0</ele><time>2026-04-04T14:40:18Z</time></trkpt><trkpt lat="41.434945427920326" lon="13.20411199371379"><ele>48.0</ele><time>2026-04-04T14:40:19Z</time></trkpt><trkpt lat="41.43519253313564" lon="13.204168841791056"><ele>48.0</ele><time>2026-04-04T14:40:20Z</time></trkpt><trkpt lat="41.435436076495094" lon="13.204241066208262"><ele>48.0</ele><time>2026-04-04T14:40:21Z</time></trkpt><trkpt lat="41.43565859629162" lon="13.204309021473481"><ele>39.5</ele><time>2026-04-04T14:40:22Z</time></trkpt><trkpt lat="41.43589130819465" lon="13.204361907503742"><ele>31.0</ele><time>2026-04-04T14:40:23Z</time></trkpt><trkpt lat="41.436125060737744" lon="13.204408959694199"><ele>25.333333333333336</ele><time>2026-04-04T14:40:24Z</time></trkpt><trkpt lat="41.4363412259694" lon="13.204444498117468"><ele>19.666666666666668</ele><time>2026-04-04T14:40:25Z</time></trkpt><trkpt lat="41.436547670425085" lon="13.204490725771288"><ele>14.0</ele><time>2026-04-04T14:40:26Z</time></trkpt><trkpt lat="41.43675464944358" lon="13.204537532507516"><ele>14.0</ele><time>2026-04-04T14:40:27Z</time></trkpt><trkpt lat="41.43695782093093" lon="13.204584178323456"><ele>14.0</ele><time>2026-04-04T14:40:28Z</time></trkpt><trkpt lat="41.43716012009652" lon="13.204627246186721"><ele>14.0</ele><time>2026-04-04T14:40:29Z</time></trkpt><trkpt lat="41.43735210780618" lon="13.204671052738211"><ele>14.333333333333334</ele><time>2026-04-04T14:40:30Z</time></trkpt><trkpt lat="41.437547343058164" lon="13.204712898816316"><ele>14.666666666666668</ele><time>2026-04-04T14:40:31Z</time></trkpt><trkpt lat="41.437744158219594" lon="13.204752642638386"><ele>15.0</ele><time>2026-04-04T14:40:32Z</time></trkpt><trkpt lat="41.437939892660125" lon="13.204789769505531"><ele>15.666666666666668</ele><time>2026-04-04T14:40:33Z</time></trkpt><trkpt lat="41.43813356207686" lon="13.204831458497486"><ele>16.333333333333336</ele><time>2026-04-04T14:40:34Z</time></trkpt><trkpt lat="41.43832289659214" lon="13.204869992535004"><ele>17.0</ele><time>2026-04-04T14:40:35Z</time></trkpt><trkpt lat="41.438513434952206" lon="13.20491581955145"><ele>17.0</ele><time>2026-04-04T14:40:36Z</time></trkpt><trkpt lat="41.43870759546997" lon="13.204960623360478"><ele>17.0</ele><time>2026-04-04T14:40:37Z</time></trkpt><trkpt lat="41.438905564405665" lon="13.205008887705253"><ele>17.0</ele><time>2026-04-04T14:40:38Z</time></trkpt><trkpt lat="41.43910198798162" lon="13.205051208170856"><ele>17.333333333333336</ele><time>2026-04-04T14:40:39Z</time></trkpt><trkpt lat="41.43929371332744" lon="13.205095193008189"><ele>17.666666666666668</ele><time>2026-04-04T14:40:40Z</time></trkpt><trkpt lat="41.43948033231683" lon="13.205140181109797"><ele>18.0</ele><time>2026-04-04T14:40:41Z</time></trkpt><trkpt lat="41.43966450162113" lon="13.205180265566545"><ele>19.0</ele><time>2026-04-04T14:40:42Z</time></trkpt><trkpt lat="41.439846163489776" lon="13.205215807724556"><ele>20.0</ele><time>2026-04-04T14:40:43Z</time></trkpt><trkpt lat="41.44002878952261" lon="13.205255188721969"><ele>21.0</ele><time>2026-04-04T14:40:44Z</time></trkpt><trkpt lat="41.440214292230216" lon="13.205292500546827"><ele>21.0</ele><time>2026-04-04T14:40:45Z</time></trkpt><trkpt lat="41.440400937961826" lon="13.205331680702871"><ele>21.0</ele><time>2026-04-04T14:40:46Z</time></trkpt><trkpt lat="41.440585405316526" lon="13.205373131567907"><ele>21.0</ele><time>2026-04-04T14:40:47Z</time></trkpt><trkpt lat="41.44077045950536" lon="13.205415157113926"><ele>23.666666666666664</ele><time>2026-04-04T14:40:48Z</time></trkpt><trkpt lat="41.4409570807403" lon="13.205455750136183"><ele>26.333333333333332</ele><time>2026-04-04T14:40:49Z</time></trkpt><trkpt lat="41.44114303051111" lon="13.20549726747456"><ele>29.0</ele><time>2026-04-04T14:40:50Z</time></trkpt><trkpt lat="41.44133198371608" lon="13.20553945361831"><ele>29.333333333333332</ele><time>2026-04-04T14:40:51Z</time></trkpt><trkpt lat="41.44151979006135" lon="13.205579283437846"><ele>29.666666666666664</ele><time>2026-04-04T14:40:52Z</time></trkpt><trkpt lat="41.441708418076765" lon="13.205618546001803"><ele>30.0</ele><time>2026-04-04T14:40:53Z</time></trkpt><trkpt lat="41.441895561798546" lon="13.205661894357723"><ele>30.666666666666664</ele><time>2026-04-04T14:40:54Z</time></trkpt><trkpt lat="41.44208235981121" lon="13.205699978729243"><ele>31.333333333333332</ele><time>2026-04-04T14:40:55Z</time></trkpt><trkpt lat="41.442268558452966" lon="13.205740167693618"><ele>32.0</ele><time>2026-04-04T14:40:56Z</time></trkpt><trkpt lat="41.44245340333057" lon="13.205781663879675"><ele>32.0</ele><time>2026-04-04T14:40:57Z</time></trkpt><trkpt lat="41.442639490433166" lon="13.205823343975482"><ele>32.0</ele><time>2026-04-04T14:40:58Z</time></trkpt><trkpt lat="41.442827108197555" lon="13.205865545220156"><ele>32.0</ele><time>2026-04-04T14:40:59Z</time></trkpt><trkpt lat="41.443012919571444" lon="13.205905478422666"><ele>31.666666666666664</ele><time>2026-04-04T14:41:00Z</time></trkpt><trkpt lat="41.44320313580584" lon="13.205946436247695"><ele>31.333333333333336</ele><time>2026-04-04T14:41:01Z</time></trkpt><trkpt lat="41.44339137924092" lon="13.20598883077352"><ele>31.0</ele><time>2026-04-04T14:41:02Z</time></trkpt><trkpt lat="41.4435821395882" lon="13.206025964588695"><ele>31.0</ele><time>2026-04-04T14:41:03Z</time></trkpt><trkpt lat="41.44377747714361" lon="13.206065998242632"><ele>31.0</ele><time>2026-04-04T14:41:04Z</time></trkpt><trkpt lat="41.4439733115015" lon="13.206108895440702"><ele>31.0</ele><time>2026-04-04T14:41:05Z</time></trkpt><trkpt lat="41.44416908246334" lon="13.206150628539188"><ele>29.333333333333336</ele><time>2026-04-04T14:41:06Z</time></trkpt><trkpt lat="41.444367388379455" lon="13.206191164803963"><ele>27.666666666666664</ele><time>2026-04-04T14:41:07Z</time></trkpt><trkpt lat="41.44456222823427" lon="13.206233505859942"><ele>26.0</ele><time>2026-04-04T14:41:08Z</time></trkpt><trkpt lat="41.44476085082301" lon="13.206276798744165"><ele>23.666666666666664</ele><time>2026-04-04T14:41:09Z</time></trkpt><trkpt lat="41.444950183369684" lon="13.206316815561296"><ele>21.333333333333332</ele><time>2026-04-04T14:41:10Z</time></trkpt><trkpt lat="41.4451511610775" lon="13.20636805493331"><ele>19.0</ele><time>2026-04-04T14:41:11Z</time></trkpt><trkpt lat="41.445349545896484" lon="13.206410739889565"><ele>18.666666666666664</ele><time>2026-04-04T14:41:12Z</time></trkpt><trkpt lat="41.44554827829464" lon="13.206454569813245"><ele>18.333333333333332</ele><time>2026-04-04T14:41:13Z</time></trkpt><trkpt lat="41.44574638616467" lon="13.206501084936928"><ele>18.0</ele><time>2026-04-04T14:41:13.999Z</time></trkpt><trkpt lat="41.445945217585866" lon="13.206547490023494"><ele>18.0</ele><time>2026-04-04T14:41:14.999Z</time></trkpt><trkpt lat="41.44614348825174" lon="13.206585038512442"><ele>18.0</ele><time>2026-04-04T14:41:15.999Z</time></trkpt><trkpt lat="41.44634503960333" lon="13.206631732658927"><ele>18.0</ele><time>2026-04-04T14:41:16.999Z</time></trkpt><trkpt lat="41.446539653125065" lon="13.206677786076309"><ele>20.0</ele><time>2026-04-04T14:41:17.999Z</time></trkpt><trkpt lat="41.44673790343508" lon="13.206722649965982"><ele>22.0</ele><time>2026-04-04T14:41:18.999Z</time></trkpt><trkpt lat="41.44693421298435" lon="13.206764986935376"><ele>24.0</ele><time>2026-04-04T14:41:19.999Z</time></trkpt><trkpt lat="41.44712967791348" lon="13.206807366943444"><ele>25.0</ele><time>2026-04-04T14:41:20.999Z</time></trkpt><trkpt lat="41.44732422112237" lon="13.206850151934887"><ele>26.0</ele><time>2026-04-04T14:41:21.999Z</time></trkpt><trkpt lat="41.447517315326984" lon="13.206890607009772"><ele>27.0</ele><time>2026-04-04T14:41:22.999Z</time></trkpt><trkpt lat="41.447711078786654" lon="13.2069348720606"><ele>27.0</ele><time>2026-04-04T14:41:23.999Z</time></trkpt><trkpt lat="41.447913723650665" lon="13.206979788125295"><ele>27.0</ele><time>2026-04-04T14:41:24.999Z</time></trkpt><trkpt lat="41.44810313615166" lon="13.207017865189238"><ele>27.0</ele><time>2026-04-04T14:41:25.999Z</time></trkpt><trkpt lat="41.44829992869251" lon="13.20706615095807"><ele>27.333333333333336</ele><time>2026-04-04T14:41:26.999Z</time></trkpt><trkpt lat="41.44849573455221" lon="13.207111710339756"><ele>27.666666666666668</ele><time>2026-04-04T14:41:27.999Z</time></trkpt><trkpt lat="41.44868651143101" lon="13.207152392021888"><ele>28.0</ele><time>2026-04-04T14:41:28.999Z</time></trkpt><trkpt lat="41.44887708889913" lon="13.207192197143975"><ele>30.0</ele><time>2026-04-04T14:41:29.999Z</time></trkpt><trkpt lat="41.44904880503322" lon="13.207237258229645"><ele>32.0</ele><time>2026-04-04T14:41:30.999Z</time></trkpt><trkpt lat="41.44924726115998" lon="13.207277970814614"><ele>34.0</ele><time>2026-04-04T14:41:31.999Z</time></trkpt><trkpt lat="41.44943529681677" lon="13.207320083879214"><ele>35.333333333333336</ele><time>2026-04-04T14:41:32.999Z</time></trkpt><trkpt lat="41.44962615265555" lon="13.207360362724376"><ele>36.666666666666664</ele><time>2026-04-04T14:41:33.999Z</time></trkpt><trkpt lat="41.44982070697312" lon="13.207405717695924"><ele>38.0</ele><time>2026-04-04T14:41:34.999Z</time></trkpt><trkpt lat="41.45001975466458" lon="13.2074481105948"><ele>38.0</ele><time>2026-04-04T14:41:35.999Z</time></trkpt><trkpt lat="41.4502183234388" lon="13.20749061741803"><ele>38.0</ele><time>2026-04-04T14:41:37Z</time></trkpt><trkpt lat="41.45042107203636" lon="13.207535664736678"><ele>38.0</ele><time>2026-04-04T14:41:38Z</time></trkpt><trkpt lat="41.45062601743247" lon="13.2075778683474"><ele>37.33333333333333</ele><time>2026-04-04T14:41:39Z</time></trkpt><trkpt lat="41.45082800443477" lon="13.20762171552792"><ele>36.666666666666664</ele><time>2026-04-04T14:41:40Z</time></trkpt><trkpt lat="41.4510208502533" lon="13.20766406220152"><ele>36.0</ele><time>2026-04-04T14:41:41Z</time></trkpt><trkpt lat="41.45121296343103" lon="13.207704688020625"><ele>35.333333333333336</ele><time>2026-04-04T14:41:42Z</time></trkpt><trkpt lat="41.45140290364043" lon="13.207748260879299"><ele>34.66666666666667</ele><time>2026-04-04T14:41:43Z</time></trkpt><trkpt lat="41.45159846984318" lon="13.207789892765149"><ele>34.0</ele><time>2026-04-04T14:41:44Z</time></trkpt><trkpt lat="41.45179232321664" lon="13.207823532091465"><ele>34.0</ele><time>2026-04-04T14:41:45Z</time></trkpt><trkpt lat="41.451991809454924" lon="13.207859861930514"><ele>34.0</ele><time>2026-04-04T14:41:46Z</time></trkpt><trkpt lat="41.45218902036609" lon="13.20789377355788"><ele>34.0</ele><time>2026-04-04T14:41:47Z</time></trkpt><trkpt lat="41.45239422640081" lon="13.207909281168492"><ele>33.66666666666667</ele><time>2026-04-04T14:41:48Z</time></trkpt><trkpt lat="41.45259982872536" lon="13.207923054902125"><ele>33.333333333333336</ele><time>2026-04-04T14:41:49Z</time></trkpt><trkpt lat="41.45280685999892" lon="13.207933233366155"><ele>33.0</ele><time>2026-04-04T14:41:50Z</time></trkpt><trkpt lat="41.45301296718326" lon="13.207936768775655"><ele>34.0</ele><time>2026-04-04T14:41:51Z</time></trkpt><trkpt lat="41.45322008008413" lon="13.207933777798818"><ele>35.0</ele><time>2026-04-04T14:41:52Z</time></trkpt><trkpt lat="41.45342237037925" lon="13.207920482747213"><ele>36.0</ele><time>2026-04-04T14:41:53Z</time></trkpt><trkpt lat="41.45362330471436" lon="13.207901328958306"><ele>37.333333333333336</ele><time>2026-04-04T14:41:54Z</time></trkpt><trkpt lat="41.45381027652204" lon="13.207875038964673"><ele>38.66666666666667</ele><time>2026-04-04T14:41:55Z</time></trkpt><trkpt lat="41.45399614917015" lon="13.207841695914942"><ele>40.0</ele><time>2026-04-04T14:41:56Z</time></trkpt><trkpt lat="41.45418485425496" lon="13.20780076049799"><ele>40.0</ele><time>2026-04-04T14:41:57Z</time></trkpt><trkpt lat="41.45437491265734" lon="13.20775160274815"><ele>40.0</ele><time>2026-04-04T14:41:58Z</time></trkpt><trkpt lat="41.45456715257439" lon="13.207688981734929"><ele>40.0</ele><time>2026-04-04T14:41:59Z</time></trkpt><trkpt lat="41.454761961405445" lon="13.207623117125006"><ele>40.0</ele><time>2026-04-04T14:42:00Z</time></trkpt><trkpt lat="41.45495706720063" lon="13.207550914516602"><ele>40.0</ele><time>2026-04-04T14:42:01Z</time></trkpt><trkpt lat="41.45514952373104" lon="13.20745487842239"><ele>40.0</ele><time>2026-04-04T14:42:02Z</time></trkpt><trkpt lat="41.45535120175845" lon="13.207364552876625"><ele>37.66666666666667</ele><time>2026-04-04T14:42:03Z</time></trkpt><trkpt lat="41.45554089309667" lon="13.207266178431533"><ele>35.333333333333336</ele><time>2026-04-04T14:42:04Z</time></trkpt><trkpt lat="41.45573213966398" lon="13.207158873505016"><ele>33.0</ele><time>2026-04-04T14:42:05Z</time></trkpt><trkpt lat="41.45592248795721" lon="13.207045167724097"><ele>33.0</ele><time>2026-04-04T14:42:06Z</time></trkpt><trkpt lat="41.456107676330944" lon="13.206922605988376"><ele>33.0</ele><time>2026-04-04T14:42:07Z</time></trkpt><trkpt lat="41.45629219565043" lon="13.20679931871264"><ele>33.0</ele><time>2026-04-04T14:42:08Z</time></trkpt><trkpt lat="41.45647295382864" lon="13.206676568021344"><ele>31.666666666666664</ele><time>2026-04-04T14:42:09Z</time></trkpt><trkpt lat="41.456643830872835" lon="13.206542877639441"><ele>30.333333333333332</ele><time>2026-04-04T14:42:10Z</time></trkpt><trkpt lat="41.45682413471111" lon="13.206410639949127"><ele>29.0</ele><time>2026-04-04T14:42:11Z</time></trkpt><trkpt lat="41.457001251206464" lon="13.206278707924877"><ele>28.666666666666664</ele><time>2026-04-04T14:42:12Z</time></trkpt><trkpt lat="41.45717896078984" lon="13.206152746594311"><ele>28.333333333333336</ele><time>2026-04-04T14:42:13Z</time></trkpt><trkpt lat="41.4573578822286" lon="13.20601601752228"><ele>28.0</ele><time>2026-04-04T14:42:14Z</time></trkpt><trkpt lat="41.45753406917386" lon="13.20588751215563"><ele>28.0</ele><time>2026-04-04T14:42:15Z</time></trkpt><trkpt lat="41.45771075693235" lon="13.205759119979051"><ele>28.0</ele><time>2026-04-04T14:42:16Z</time></trkpt><trkpt lat="41.45788566051309" lon="13.205628750620045"><ele>28.0</ele><time>2026-04-04T14:42:17Z</time></trkpt><trkpt lat="41.45806140702827" lon="13.205500460260078"><ele>29.0</ele><time>2026-04-04T14:42:18Z</time></trkpt><trkpt lat="41.45823345110666" lon="13.205371071505645"><ele>30.0</ele><time>2026-04-04T14:42:19Z</time></trkpt><trkpt lat="41.45840826761989" lon="13.20524311260445"><ele>31.0</ele><time>2026-04-04T14:42:20Z</time></trkpt><trkpt lat="41.458583146352005" lon="13.205114669540434"><ele>31.0</ele><time>2026-04-04T14:42:21Z</time></trkpt><trkpt lat="41.458754828684896" lon="13.204987923544683"><ele>31.0</ele><time>2026-04-04T14:42:22Z</time></trkpt><trkpt lat="41.45892403602242" lon="13.20486265112459"><ele>31.0</ele><time>2026-04-04T14:42:23Z</time></trkpt><trkpt lat="41.45909474604122" lon="13.204735163261539"><ele>31.333333333333336</ele><time>2026-04-04T14:42:24Z</time></trkpt><trkpt lat="41.45925988797141" lon="13.204612339545243"><ele>31.666666666666664</ele><time>2026-04-04T14:42:25Z</time></trkpt><trkpt lat="41.45943555657741" lon="13.204477540672885"><ele>32.0</ele><time>2026-04-04T14:42:26Z</time></trkpt><trkpt lat="41.45960984249828" lon="13.2043518432333"><ele>32.666666666666664</ele><time>2026-04-04T14:42:27Z</time></trkpt><trkpt lat="41.459784280436075" lon="13.204222129277978"><ele>33.333333333333336</ele><time>2026-04-04T14:42:28Z</time></trkpt><trkpt lat="41.45995847426009" lon="13.204093075393498"><ele>34.0</ele><time>2026-04-04T14:42:29Z</time></trkpt><trkpt lat="41.46013551099923" lon="13.20396252502865"><ele>33.66666666666667</ele><time>2026-04-04T14:42:30Z</time></trkpt><trkpt lat="41.460314213515275" lon="13.203829680008617"><ele>33.333333333333336</ele><time>2026-04-04T14:42:31Z</time></trkpt><trkpt lat="41.460493813501294" lon="13.203695543817133"><ele>33.0</ele><time>2026-04-04T14:42:32Z</time></trkpt><trkpt lat="41.4606733714263" lon="13.203562665619408"><ele>33.0</ele><time>2026-04-04T14:42:33Z</time></trkpt><trkpt lat="41.46084943771472" lon="13.203431172352685"><ele>33.0</ele><time>2026-04-04T14:42:34Z</time></trkpt><trkpt lat="41.46102302306258" lon="13.203298707358133"><ele>33.0</ele><time>2026-04-04T14:42:35Z</time></trkpt><trkpt lat="41.461194466441604" lon="13.203172863552396"><ele>33.0</ele><time>2026-04-04T14:42:36Z</time></trkpt><trkpt lat="41.46136240994148" lon="13.203046040657638"><ele>33.0</ele><time>2026-04-04T14:42:37Z</time></trkpt><trkpt lat="41.461527334648295" lon="13.202925061177577"><ele>33.0</ele><time>2026-04-04T14:42:38Z</time></trkpt><trkpt lat="41.461694945313084" lon="13.202801807457849"><ele>33.0</ele><time>2026-04-04T14:42:39Z</time></trkpt><trkpt lat="41.46186233549339" lon="13.20267789919351"><ele>33.0</ele><time>2026-04-04T14:42:40Z</time></trkpt><trkpt lat="41.46203036486512" lon="13.202552178336202"><ele>33.0</ele><time>2026-04-04T14:42:41Z</time></trkpt><trkpt lat="41.46219773410468" lon="13.202425899934056"><ele>32.0</ele><time>2026-04-04T14:42:42Z</time></trkpt><trkpt lat="41.46236599751172" lon="13.20229871550289"><ele>31.0</ele><time>2026-04-04T14:42:43Z</time></trkpt><trkpt lat="41.46253642046195" lon="13.202171080735699"><ele>30.0</ele><time>2026-04-04T14:42:44Z</time></trkpt><trkpt lat="41.462708037919384" lon="13.202045051681257"><ele>30.0</ele><time>2026-04-04T14:42:45Z</time></trkpt><trkpt lat="41.46287853375798" lon="13.201920131458056"><ele>30.0</ele><time>2026-04-04T14:42:46Z</time></trkpt><trkpt lat="41.46304890163568" lon="13.201795063666081"><ele>30.0</ele><time>2026-04-04T14:42:47Z</time></trkpt><trkpt lat="41.46322092495997" lon="13.201669429503633"><ele>30.333333333333336</ele><time>2026-04-04T14:42:48Z</time></trkpt><trkpt lat="41.46339201362482" lon="13.201547809023499"><ele>30.666666666666668</ele><time>2026-04-04T14:42:49Z</time></trkpt><trkpt lat="41.463567330285954" lon="13.201425538794629"><ele>31.0</ele><time>2026-04-04T14:42:50Z</time></trkpt><trkpt lat="41.46374177340813" lon="13.20130859778757"><ele>32.66666666666667</ele><time>2026-04-04T14:42:51Z</time></trkpt><trkpt lat="41.46392010701652" lon="13.201189357794318"><ele>34.333333333333336</ele><time>2026-04-04T14:42:52Z</time></trkpt><trkpt lat="41.46410065328447" lon="13.201075550807294"><ele>36.0</ele><time>2026-04-04T14:42:53Z</time></trkpt><trkpt lat="41.46428469248063" lon="13.200968592121276"><ele>36.0</ele><time>2026-04-04T14:42:54Z</time></trkpt><trkpt lat="41.464467778568284" lon="13.200867066082862"><ele>36.0</ele><time>2026-04-04T14:42:55Z</time></trkpt><trkpt lat="41.464653480544044" lon="13.200770936816786"><ele>36.0</ele><time>2026-04-04T14:42:56Z</time></trkpt><trkpt lat="41.46484441067114" lon="13.200681895172796"><ele>35.333333333333336</ele><time>2026-04-04T14:42:57Z</time></trkpt><trkpt lat="41.46503304859081" lon="13.20059963025964"><ele>34.66666666666667</ele><time>2026-04-04T14:42:58Z</time></trkpt><trkpt lat="41.465226850395894" lon="13.200517512986199"><ele>34.0</ele><time>2026-04-04T14:42:59Z</time></trkpt><trkpt lat="41.46542408345841" lon="13.200444531579466"><ele>33.333333333333336</ele><time>2026-04-04T14:43:00Z</time></trkpt><trkpt lat="41.465621783058594" lon="13.200375275900074"><ele>32.666666666666664</ele><time>2026-04-04T14:43:01Z</time></trkpt><trkpt lat="41.465818715004694" lon="13.20031040694603"><ele>32.0</ele><time>2026-04-04T14:43:02Z</time></trkpt><trkpt lat="41.466020044968076" lon="13.200252894982412"><ele>32.0</ele><time>2026-04-04T14:43:03Z</time></trkpt><trkpt lat="41.466223889962976" lon="13.200196247692217"><ele>32.0</ele><time>2026-04-04T14:43:04Z</time></trkpt><trkpt lat="41.46642830736616" lon="13.200152033351085"><ele>32.0</ele><time>2026-04-04T14:43:05Z</time></trkpt><trkpt lat="41.46663033230057" lon="13.200115287192395"><ele>33.0</ele><time>2026-04-04T14:43:06Z</time></trkpt><trkpt lat="41.46683184877505" lon="13.200084529812141"><ele>34.0</ele><time>2026-04-04T14:43:07Z</time></trkpt><trkpt lat="41.46702907183357" lon="13.200060647115999"><ele>35.0</ele><time>2026-04-04T14:43:08Z</time></trkpt><trkpt lat="41.46722601573571" lon="13.200036507632245"><ele>35.33333333333333</ele><time>2026-04-04T14:43:09Z</time></trkpt><trkpt lat="41.46742490112658" lon="13.200019052907518"><ele>35.666666666666664</ele><time>2026-04-04T14:43:10Z</time></trkpt><trkpt lat="41.46762637897939" lon="13.200007770184076"><ele>36.0</ele><time>2026-04-04T14:43:11Z</time></trkpt><trkpt lat="41.467827920071244" lon="13.200002547489003"><ele>35.0</ele><time>2026-04-04T14:43:12Z</time></trkpt><trkpt lat="41.46802851392298" lon="13.200005048130231"><ele>34.0</ele><time>2026-04-04T14:43:13Z</time></trkpt><trkpt lat="41.468228758194094" lon="13.200013494348477"><ele>33.0</ele><time>2026-04-04T14:43:14Z</time></trkpt><trkpt lat="41.46843010050523" lon="13.200029745533914"><ele>33.0</ele><time>2026-04-04T14:43:15Z</time></trkpt><trkpt lat="41.468626924339034" lon="13.200053865997477"><ele>33.0</ele><time>2026-04-04T14:43:15.999Z</time></trkpt><trkpt lat="41.46882393349609" lon="13.200084044064125"><ele>33.0</ele><time>2026-04-04T14:43:16.999Z</time></trkpt><trkpt lat="41.4690205849331" lon="13.200117065621926"><ele>33.0</ele><time>2026-04-04T14:43:17.999Z</time></trkpt><trkpt lat="41.4692198852804" lon="13.20015413592579"><ele>33.0</ele><time>2026-04-04T14:43:18.999Z</time></trkpt><trkpt lat="41.46942016688135" lon="13.200195289059831"><ele>33.0</ele><time>2026-04-04T14:43:19.999Z</time></trkpt><trkpt lat="41.46961968158873" lon="13.20024375290669"><ele>33.0</ele><time>2026-04-04T14:43:20.999Z</time></trkpt><trkpt lat="41.469815839758155" lon="13.200293491796602"><ele>33.0</ele><time>2026-04-04T14:43:21.999Z</time></trkpt><trkpt lat="41.47001344110496" lon="13.20034769201717"><ele>33.0</ele><time>2026-04-04T14:43:22.999Z</time></trkpt><trkpt lat="41.47021411106795" lon="13.200403700324031"><ele>33.0</ele><time>2026-04-04T14:43:23.999Z</time></trkpt><trkpt lat="41.4704106144859" lon="13.200456250378805"><ele>33.0</ele><time>2026-04-04T14:43:24.999Z</time></trkpt><trkpt lat="41.470609068147745" lon="13.200517633214202"><ele>33.0</ele><time>2026-04-04T14:43:25.999Z</time></trkpt><trkpt lat="41.470808385199746" lon="13.20057331583461"><ele>33.333333333333336</ele><time>2026-04-04T14:43:26.999Z</time></trkpt><trkpt lat="41.47100793892929" lon="13.200624752615328"><ele>33.66666666666667</ele><time>2026-04-04T14:43:27.999Z</time></trkpt><trkpt lat="41.47120927067107" lon="13.200677670710267"><ele>34.0</ele><time>2026-04-04T14:43:28.999Z</time></trkpt><trkpt lat="41.47141146747864" lon="13.200733345777513"><ele>34.0</ele><time>2026-04-04T14:43:29.999Z</time></trkpt><trkpt lat="41.471613039030906" lon="13.200788750095262"><ele>34.0</ele><time>2026-04-04T14:43:30.999Z</time></trkpt><trkpt lat="41.471813910447466" lon="13.200849330970929"><ele>34.0</ele><time>2026-04-04T14:43:31.999Z</time></trkpt><trkpt lat="41.47201674261456" lon="13.20090316730933"><ele>34.333333333333336</ele><time>2026-04-04T14:43:32.999Z</time></trkpt><trkpt lat="41.47222044973496" lon="13.200959082487831"><ele>34.666666666666664</ele><time>2026-04-04T14:43:33.999Z</time></trkpt><trkpt lat="41.472419550240375" lon="13.201016621570506"><ele>35.0</ele><time>2026-04-04T14:43:34.999Z</time></trkpt><trkpt lat="41.47261533554158" lon="13.201070508428632"><ele>35.0</ele><time>2026-04-04T14:43:35.999Z</time></trkpt><trkpt lat="41.47281456875885" lon="13.201122867609778"><ele>35.0</ele><time>2026-04-04T14:43:36.999Z</time></trkpt><trkpt lat="41.47301187230655" lon="13.201176338626999"><ele>35.0</ele><time>2026-04-04T14:43:37.999Z</time></trkpt><trkpt lat="41.47320912388519" lon="13.201228853135094"><ele>35.0</ele><time>2026-04-04T14:43:38.999Z</time></trkpt><trkpt lat="41.47340699155569" lon="13.201282282980499"><ele>35.0</ele><time>2026-04-04T14:43:39.999Z</time></trkpt><trkpt lat="41.473606100096035" lon="13.20133272186429"><ele>35.0</ele><time>2026-04-04T14:43:40.999Z</time></trkpt><trkpt lat="41.4738055732373" lon="13.201385931015936"><ele>36.0</ele><time>2026-04-04T14:43:41.999Z</time></trkpt><trkpt lat="41.47400336503051" lon="13.20143785012368"><ele>37.0</ele><time>2026-04-04T14:43:43Z</time></trkpt><trkpt lat="41.47420325687361" lon="13.201492521623836"><ele>38.0</ele><time>2026-04-04T14:43:44Z</time></trkpt><trkpt lat="41.474404552202465" lon="13.201547885410093"><ele>38.33333333333333</ele><time>2026-04-04T14:43:45Z</time></trkpt><trkpt lat="41.47460985015568" lon="13.20160302446489"><ele>38.666666666666664</ele><time>2026-04-04T14:43:46Z</time></trkpt><trkpt lat="41.474816058227574" lon="13.20166391716829"><ele>39.0</ele><time>2026-04-04T14:43:47Z</time></trkpt><trkpt lat="41.47501810679007" lon="13.201722127999956"><ele>39.0</ele><time>2026-04-04T14:43:48Z</time></trkpt><trkpt lat="41.475221283335664" lon="13.201777174064883"><ele>39.0</ele><time>2026-04-04T14:43:49Z</time></trkpt><trkpt lat="41.475423818191466" lon="13.201831973927487"><ele>39.0</ele><time>2026-04-04T14:43:50Z</time></trkpt><trkpt lat="41.475624570256805" lon="13.201888975378989"><ele>38.333333333333336</ele><time>2026-04-04T14:43:51Z</time></trkpt><trkpt lat="41.475824486902006" lon="13.201946820995493"><ele>37.66666666666667</ele><time>2026-04-04T14:43:52Z</time></trkpt><trkpt lat="41.476023840015664" lon="13.202004969982742"><ele>37.0</ele><time>2026-04-04T14:43:53Z</time></trkpt><trkpt lat="41.47622160861689" lon="13.202055841589264"><ele>36.333333333333336</ele><time>2026-04-04T14:43:54Z</time></trkpt><trkpt lat="41.476417799408146" lon="13.202110021247575"><ele>35.666666666666664</ele><time>2026-04-04T14:43:55Z</time></trkpt><trkpt lat="41.476612397002754" lon="13.202164448450223"><ele>35.0</ele><time>2026-04-04T14:43:56Z</time></trkpt><trkpt lat="41.476804604650575" lon="13.202216430129353"><ele>35.0</ele><time>2026-04-04T14:43:57Z</time></trkpt><trkpt lat="41.4769998049055" lon="13.20227130798158"><ele>35.0</ele><time>2026-04-04T14:43:58Z</time></trkpt><trkpt lat="41.4771949556394" lon="13.202326474119095"><ele>35.0</ele><time>2026-04-04T14:43:59Z</time></trkpt><trkpt lat="41.477390812569475" lon="13.202380385063918"><ele>34.666666666666664</ele><time>2026-04-04T14:44:00Z</time></trkpt><trkpt lat="41.477585040284175" lon="13.202435342126822"><ele>34.333333333333336</ele><time>2026-04-04T14:44:01Z</time></trkpt><trkpt lat="41.477779141204245" lon="13.202489321195904"><ele>34.0</ele><time>2026-04-04T14:44:02Z</time></trkpt><trkpt lat="41.47797116648998" lon="13.202541485111077"><ele>33.66666666666667</ele><time>2026-04-04T14:44:03Z</time></trkpt><trkpt lat="41.478162166304735" lon="13.202593888168924"><ele>33.333333333333336</ele><time>2026-04-04T14:44:04Z</time></trkpt><trkpt lat="41.47835353832048" lon="13.202646109324755"><ele>33.0</ele><time>2026-04-04T14:44:05Z</time></trkpt><trkpt lat="41.478542233799594" lon="13.202699721017702"><ele>33.0</ele><time>2026-04-04T14:44:06Z</time></trkpt><trkpt lat="41.478730451675126" lon="13.202751792935253"><ele>33.0</ele><time>2026-04-04T14:44:07Z</time></trkpt><trkpt lat="41.47891831237063" lon="13.202802879291342"><ele>33.0</ele><time>2026-04-04T14:44:08Z</time></trkpt><trkpt lat="41.479108076530196" lon="13.202854693882754"><ele>32.666666666666664</ele><time>2026-04-04T14:44:09Z</time></trkpt><trkpt lat="41.479299191699916" lon="13.202907835358427"><ele>32.33333333333333</ele><time>2026-04-04T14:44:10Z</time></trkpt><trkpt lat="41.47949017514016" lon="13.202961801409542"><ele>32.0</ele><time>2026-04-04T14:44:11Z</time></trkpt><trkpt lat="41.479679971138644" lon="13.203015382310795"><ele>32.33333333333333</ele><time>2026-04-04T14:44:12Z</time></trkpt><trkpt lat="41.479867998658996" lon="13.203065255780153"><ele>32.666666666666664</ele><time>2026-04-04T14:44:13Z</time></trkpt><trkpt lat="41.48005811649208" lon="13.203114847821121"><ele>33.0</ele><time>2026-04-04T14:44:14Z</time></trkpt><trkpt lat="41.48024660872555" lon="13.203164560011274"><ele>33.0</ele><time>2026-04-04T14:44:15Z</time></trkpt><trkpt lat="41.48043547549359" lon="13.203218323687961"><ele>33.0</ele><time>2026-04-04T14:44:16Z</time></trkpt><trkpt lat="41.48062835574083" lon="13.203269407379075"><ele>33.0</ele><time>2026-04-04T14:44:17Z</time></trkpt><trkpt lat="41.48081931283259" lon="13.203325529841763"><ele>33.0</ele><time>2026-04-04T14:44:18Z</time></trkpt><trkpt lat="41.481016905738244" lon="13.203381446589354"><ele>33.0</ele><time>2026-04-04T14:44:19Z</time></trkpt><trkpt lat="41.481224465110245" lon="13.203436603153477"><ele>33.0</ele><time>2026-04-04T14:44:20Z</time></trkpt><trkpt lat="41.48143018949516" lon="13.203493910096414"><ele>32.0</ele><time>2026-04-04T14:44:21Z</time></trkpt><trkpt lat="41.481639569059595" lon="13.203552629647406"><ele>31.0</ele><time>2026-04-04T14:44:22Z</time></trkpt><trkpt lat="41.48186986125572" lon="13.20360783435866"><ele>30.0</ele><time>2026-04-04T14:44:23Z</time></trkpt><trkpt lat="41.48209873925283" lon="13.203669314001665"><ele>30.0</ele><time>2026-04-04T14:44:24Z</time></trkpt><trkpt lat="41.48230922939747" lon="13.203731568027013"><ele>30.0</ele><time>2026-04-04T14:44:25Z</time></trkpt><trkpt lat="41.48252206217427" lon="13.203785037427581"><ele>30.0</ele><time>2026-04-04T14:44:26Z</time></trkpt><trkpt lat="41.4827301984765" lon="13.203843245856131"><ele>30.0</ele><time>2026-04-04T14:44:27Z</time></trkpt><trkpt lat="41.48292011167961" lon="13.203897541465295"><ele>30.0</ele><time>2026-04-04T14:44:28Z</time></trkpt><trkpt lat="41.48310676936614" lon="13.203949449077722"><ele>30.0</ele><time>2026-04-04T14:44:29Z</time></trkpt><trkpt lat="41.48330172899317" lon="13.20400399921296"><ele>30.333333333333336</ele><time>2026-04-04T14:44:30Z</time></trkpt><trkpt lat="41.48349026721534" lon="13.204059691485378"><ele>30.666666666666668</ele><time>2026-04-04T14:44:31Z</time></trkpt><trkpt lat="41.48367181161397" lon="13.20411336057153"><ele>31.0</ele><time>2026-04-04T14:44:32Z</time></trkpt><trkpt lat="41.483855701630794" lon="13.204170437965017"><ele>31.0</ele><time>2026-04-04T14:44:33Z</time></trkpt><trkpt lat="41.48404919576389" lon="13.204232430987576"><ele>31.0</ele><time>2026-04-04T14:44:34Z</time></trkpt><trkpt lat="41.484248098170454" lon="13.204295539298622"><ele>31.0</ele><time>2026-04-04T14:44:35Z</time></trkpt><trkpt lat="41.48444954183798" lon="13.204359834967534"><ele>30.666666666666668</ele><time>2026-04-04T14:44:36Z</time></trkpt><trkpt lat="41.48465685274229" lon="13.20443251387941"><ele>30.333333333333336</ele><time>2026-04-04T14:44:37Z</time></trkpt><trkpt lat="41.48486324904709" lon="13.204506554108567"><ele>30.0</ele><time>2026-04-04T14:44:38Z</time></trkpt><trkpt lat="41.48506523042834" lon="13.204591782401105"><ele>30.0</ele><time>2026-04-04T14:44:39Z</time></trkpt><trkpt lat="41.485259991418374" lon="13.204679078769418"><ele>30.0</ele><time>2026-04-04T14:44:40Z</time></trkpt><trkpt lat="41.48545240355629" lon="13.204771831508454"><ele>30.0</ele><time>2026-04-04T14:44:41Z</time></trkpt><trkpt lat="41.48564332807021" lon="13.204861328579028"><ele>30.333333333333336</ele><time>2026-04-04T14:44:42Z</time></trkpt><trkpt lat="41.48583808531579" lon="13.20495309452802"><ele>30.666666666666668</ele><time>2026-04-04T14:44:43Z</time></trkpt><trkpt lat="41.486035688306465" lon="13.205044274572696"><ele>31.0</ele><time>2026-04-04T14:44:44Z</time></trkpt><trkpt lat="41.48623622536353" lon="13.205141071093825"><ele>31.0</ele><time>2026-04-04T14:44:45Z</time></trkpt><trkpt lat="41.48644026368212" lon="13.2052400662883"><ele>31.0</ele><time>2026-04-04T14:44:46Z</time></trkpt><trkpt lat="41.48663945291986" lon="13.205338289689726"><ele>31.0</ele><time>2026-04-04T14:44:47Z</time></trkpt><trkpt lat="41.48684342496044" lon="13.205435472959078"><ele>31.0</ele><time>2026-04-04T14:44:48Z</time></trkpt><trkpt lat="41.48705221304451" lon="13.205533727744832"><ele>31.0</ele><time>2026-04-04T14:44:49Z</time></trkpt><trkpt lat="41.48726448006762" lon="13.20563495808121"><ele>31.0</ele><time>2026-04-04T14:44:50Z</time></trkpt><trkpt lat="41.48747204251104" lon="13.205732229133616"><ele>31.0</ele><time>2026-04-04T14:44:51Z</time></trkpt><trkpt lat="41.48769176855758" lon="13.205833446249684"><ele>31.0</ele><time>2026-04-04T14:44:52Z</time></trkpt><trkpt lat="41.48791920295693" lon="13.205942452029635"><ele>31.0</ele><time>2026-04-04T14:44:53Z</time></trkpt><trkpt lat="41.48814616960157" lon="13.206048878312485"><ele>31.0</ele><time>2026-04-04T14:44:54Z</time></trkpt><trkpt lat="41.488374003220564" lon="13.206160033862394"><ele>31.0</ele><time>2026-04-04T14:44:55Z</time></trkpt><trkpt lat="41.4886033638331" lon="13.20626698608973"><ele>31.0</ele><time>2026-04-04T14:44:56Z</time></trkpt><trkpt lat="41.488844417021966" lon="13.206373305961538"><ele>31.5</ele><time>2026-04-04T14:44:57Z</time></trkpt><trkpt lat="41.48911271535472" lon="13.206496193841456"><ele>32.0</ele><time>2026-04-04T14:44:58Z</time></trkpt><trkpt lat="41.489392744163474" lon="13.206629345301879"><ele>31.0</ele><time>2026-04-04T14:44:59Z</time></trkpt><trkpt lat="41.489668224176754" lon="13.206766214585542"><ele>30.0</ele><time>2026-04-04T14:45:00Z</time></trkpt><trkpt lat="41.489938273293056" lon="13.206899926450685"><ele>30.0</ele><time>2026-04-04T14:45:01Z</time></trkpt><trkpt lat="41.49020008845854" lon="13.207031711752887"><ele>30.0</ele><time>2026-04-04T14:45:02Z</time></trkpt><trkpt lat="41.490462103662594" lon="13.207158719089326"><ele>30.0</ele><time>2026-04-04T14:45:03Z</time></trkpt><trkpt lat="41.49071925595527" lon="13.207282579593267"><ele>30.0</ele><time>2026-04-04T14:45:04Z</time></trkpt><trkpt lat="41.490973622160226" lon="13.207405835128435"><ele>31.0</ele><time>2026-04-04T14:45:05Z</time></trkpt><trkpt lat="41.4912223066074" lon="13.207524815128346"><ele>32.0</ele><time>2026-04-04T14:45:06Z</time></trkpt><trkpt lat="41.49146426591214" lon="13.207649798204852"><ele>32.0</ele><time>2026-04-04T14:45:07Z</time></trkpt><trkpt lat="41.49170041064271" lon="13.20777703761261"><ele>32.0</ele><time>2026-04-04T14:45:08Z</time></trkpt><trkpt lat="41.49192521867418" lon="13.207903547715595"><ele>32.0</ele><time>2026-04-04T14:45:09Z</time></trkpt><trkpt lat="41.492135669461405" lon="13.208020471866666"><ele>32.0</ele><time>2026-04-04T14:45:10Z</time></trkpt><trkpt lat="41.49235108336318" lon="13.208136464709487"><ele>32.5</ele><time>2026-04-04T14:45:11Z</time></trkpt><trkpt lat="41.49256812074537" lon="13.20825496895651"><ele>33.0</ele><time>2026-04-04T14:45:12Z</time></trkpt><trkpt lat="41.49278791401059" lon="13.208375244122085"><ele>34.5</ele><time>2026-04-04T14:45:13Z</time></trkpt><trkpt lat="41.493011495115425" lon="13.208497228753371"><ele>36.0</ele><time>2026-04-04T14:45:14Z</time></trkpt><trkpt lat="41.493239628912164" lon="13.208620012973064"><ele>36.0</ele><time>2026-04-04T14:45:15Z</time></trkpt><trkpt lat="41.493470820532295" lon="13.208745067223147"><ele>36.0</ele><time>2026-04-04T14:45:16Z</time></trkpt><trkpt lat="41.49370566814049" lon="13.208874815896635"><ele>35.0</ele><time>2026-04-04T14:45:17Z</time></trkpt><trkpt lat="41.49393721904739" lon="13.209005286424013"><ele>34.0</ele><time>2026-04-04T14:45:18Z</time></trkpt><trkpt lat="41.49414935793458" lon="13.209137530815958"><ele>34.0</ele><time>2026-04-04T14:45:18.999Z</time></trkpt><trkpt lat="41.494352804221336" lon="13.209278428153121"><ele>34.0</ele><time>2026-04-04T14:45:19.999Z</time></trkpt><trkpt lat="41.494550159244966" lon="13.209440023583655"><ele>34.0</ele><time>2026-04-04T14:45:20.999Z</time></trkpt><trkpt lat="41.494734782382515" lon="13.209627993769763"><ele>34.0</ele><time>2026-04-04T14:45:21.999Z</time></trkpt><trkpt lat="41.49490502925681" lon="13.209833525588518"><ele>34.0</ele><time>2026-04-04T14:45:22.999Z</time></trkpt><trkpt lat="41.49504369854369" lon="13.210061667855728"><ele>34.0</ele><time>2026-04-04T14:45:23.999Z</time></trkpt><trkpt lat="41.49517043036393" lon="13.210310900913376"><ele>34.0</ele><time>2026-04-04T14:45:24.999Z</time></trkpt><trkpt lat="41.495285297244465" lon="13.210573926691483"><ele>33.5</ele><time>2026-04-04T14:45:25.999Z</time></trkpt><trkpt lat="41.4953927291376" lon="13.210852879275492"><ele>33.0</ele><time>2026-04-04T14:45:26.999Z</time></trkpt><trkpt lat="41.49549660437606" lon="13.211141804817707"><ele>34.0</ele><time>2026-04-04T14:45:27.999Z</time></trkpt><trkpt lat="41.49561293602613" lon="13.21143076351057"><ele>35.0</ele><time>2026-04-04T14:45:28.999Z</time></trkpt><trkpt lat="41.495728593687105" lon="13.211727251246268"><ele>36.5</ele><time>2026-04-04T14:45:29.999Z</time></trkpt><trkpt lat="41.49584279657866" lon="13.212026026979421"><ele>38.0</ele><time>2026-04-04T14:45:30.999Z</time></trkpt><trkpt lat="41.49596257552598" lon="13.212321168156343"><ele>37.0</ele><time>2026-04-04T14:45:31.999Z</time></trkpt><trkpt lat="41.49608709515057" lon="13.212616928245591"><ele>36.0</ele><time>2026-04-04T14:45:32.999Z</time></trkpt><trkpt lat="41.496220671865935" lon="13.212908816757816"><ele>36.0</ele><time>2026-04-04T14:45:33.999Z</time></trkpt><trkpt lat="41.496365968905224" lon="13.213193912216578"><ele>36.0</ele><time>2026-04-04T14:45:34.999Z</time></trkpt><trkpt lat="41.496517015740565" lon="13.213471930041997"><ele>36.0</ele><time>2026-04-04T14:45:35.999Z</time></trkpt><trkpt lat="41.49667017679215" lon="13.21374826230881"><ele>36.0</ele><time>2026-04-04T14:45:36.999Z</time></trkpt><trkpt lat="41.49682494759846" lon="13.214023114259755"><ele>35.5</ele><time>2026-04-04T14:45:37.999Z</time></trkpt><trkpt lat="41.496981780733776" lon="13.214298203978533"><ele>35.0</ele><time>2026-04-04T14:45:38.999Z</time></trkpt><trkpt lat="41.49713947658975" lon="13.214574849713127"><ele>36.0</ele><time>2026-04-04T14:45:39.999Z</time></trkpt><trkpt lat="41.497297306480924" lon="13.214849917980064"><ele>37.0</ele><time>2026-04-04T14:45:40.999Z</time></trkpt><trkpt lat="41.497454183371644" lon="13.215126161607557"><ele>37.0</ele><time>2026-04-04T14:45:41.999Z</time></trkpt><trkpt lat="41.49761088027896" lon="13.215401935955523"><ele>37.0</ele><time>2026-04-04T14:45:42.999Z</time></trkpt><trkpt lat="41.49775999330636" lon="13.215680748942392"><ele>36.0</ele><time>2026-04-04T14:45:43.999Z</time></trkpt><trkpt lat="41.49790146779368" lon="13.21596583459618"><ele>35.0</ele><time>2026-04-04T14:45:44.999Z</time></trkpt><trkpt lat="41.49802903348795" lon="13.216260603193646"><ele>35.0</ele><time>2026-04-04T14:45:45.999Z</time></trkpt><trkpt lat="41.4981395631921" lon="13.216549914157293"><ele>35.0</ele><time>2026-04-04T14:45:46.999Z</time></trkpt><trkpt lat="41.49823092130733" lon="13.216830956074457"><ele>35.0</ele><time>2026-04-04T14:45:47.999Z</time></trkpt><trkpt lat="41.49831544821968" lon="13.217115359335923"><ele>35.0</ele><time>2026-04-04T14:45:49Z</time></trkpt><trkpt lat="41.498397445517874" lon="13.217397297227997"><ele>35.5</ele><time>2026-04-04T14:45:50Z</time></trkpt><trkpt lat="41.49847982186382" lon="13.2176822055045"><ele>36.0</ele><time>2026-04-04T14:45:51Z</time></trkpt><trkpt lat="41.4985636839768" lon="13.217969406457382"><ele>37.0</ele><time>2026-04-04T14:45:52Z</time></trkpt><trkpt lat="41.49864798260558" lon="13.218259082323414"><ele>38.0</ele><time>2026-04-04T14:45:53Z</time></trkpt><trkpt lat="41.49872989182461" lon="13.218549599346241"><ele>38.0</ele><time>2026-04-04T14:45:54Z</time></trkpt><trkpt lat="41.49880966664955" lon="13.218837828903666"><ele>38.0</ele><time>2026-04-04T14:45:55Z</time></trkpt><trkpt lat="41.498892889139356" lon="13.219125809894617"><ele>38.0</ele><time>2026-04-04T14:45:56Z</time></trkpt><trkpt lat="41.498977241577656" lon="13.219412039071669"><ele>38.0</ele><time>2026-04-04T14:45:57Z</time></trkpt><trkpt lat="41.49906089233909" lon="13.219688688820108"><ele>38.0</ele><time>2026-04-04T14:45:58Z</time></trkpt><trkpt lat="41.49913344979317" lon="13.219946431614645"><ele>38.0</ele><time>2026-04-04T14:45:59Z</time></trkpt><trkpt lat="41.49919781267305" lon="13.2201717145185"><ele>38.0</ele><time>2026-04-04T14:46:00Z</time></trkpt><trkpt lat="41.49925884183227" lon="13.220387074532844"><ele>38.0</ele><time>2026-04-04T14:46:01Z</time></trkpt><trkpt lat="41.499316610641266" lon="13.220591266524295"><ele>38.0</ele><time>2026-04-04T14:46:02Z</time></trkpt><trkpt lat="41.499377389427174" lon="13.220800663482263"><ele>38.0</ele><time>2026-04-04T14:46:03Z</time></trkpt><trkpt lat="41.49944468945007" lon="13.221019599766308"><ele>38.0</ele><time>2026-04-04T14:46:04Z</time></trkpt><trkpt lat="41.49953256391014" lon="13.221254604289513"><ele>38.0</ele><time>2026-04-04T14:46:05Z</time></trkpt><trkpt lat="41.499637560903814" lon="13.221510485599035"><ele>38.0</ele><time>2026-04-04T14:46:06Z</time></trkpt><trkpt lat="41.49974000768425" lon="13.22177682700261"><ele>39.0</ele><time>2026-04-04T14:46:07Z</time></trkpt><trkpt lat="41.49985434311963" lon="13.222021327904455"><ele>40.0</ele><time>2026-04-04T14:46:08Z</time></trkpt><trkpt lat="41.4999830164406" lon="13.22225440664284"><ele>41.0</ele><time>2026-04-04T14:46:09Z</time></trkpt><trkpt lat="41.50012453473258" lon="13.222478623719038"><ele>41.0</ele><time>2026-04-04T14:46:10Z</time></trkpt><trkpt lat="41.50025476314965" lon="13.222698076397723"><ele>41.0</ele><time>2026-04-04T14:46:11Z</time></trkpt><trkpt lat="41.50038041268759" lon="13.222880568133153"><ele>41.0</ele><time>2026-04-04T14:46:12Z</time></trkpt><trkpt lat="41.50050351533148" lon="13.223041346881896"><ele>41.75</ele><time>2026-04-04T14:46:13Z</time></trkpt><trkpt lat="41.50062360304853" lon="13.223192901934297"><ele>42.5</ele><time>2026-04-04T14:46:14Z</time></trkpt><trkpt lat="41.5007381226909" lon="13.223327260126482"><ele>43.25</ele><time>2026-04-04T14:46:15Z</time></trkpt><trkpt lat="41.50083953291611" lon="13.223439414000095"><ele>44.0</ele><time>2026-04-04T14:46:16Z</time></trkpt><trkpt lat="41.500936008074525" lon="13.223541830131962"><ele>44.0</ele><time>2026-04-04T14:46:17Z</time></trkpt><trkpt lat="41.501027196822086" lon="13.223642507707188"><ele>44.0</ele><time>2026-04-04T14:46:18Z</time></trkpt><trkpt lat="41.50111414628551" lon="13.223739566718981"><ele>44.0</ele><time>2026-04-04T14:46:19Z</time></trkpt><trkpt lat="41.50119586939747" lon="13.223831772697896"><ele>44.0</ele><time>2026-04-04T14:46:20Z</time></trkpt><trkpt lat="41.50128447109447" lon="13.223922852603911"><ele>44.6</ele><time>2026-04-04T14:46:21Z</time></trkpt><trkpt lat="41.50136926176536" lon="13.22400797427655"><ele>45.2</ele><time>2026-04-04T14:46:22Z</time></trkpt><trkpt lat="41.50145105586179" lon="13.22409035512817"><ele>45.800000000000004</ele><time>2026-04-04T14:46:23Z</time></trkpt><trkpt lat="41.50152447234264" lon="13.224166208893259"><ele>46.400000000000006</ele><time>2026-04-04T14:46:24Z</time></trkpt><trkpt lat="41.50159180855663" lon="13.224240203317589"><ele>47.0</ele><time>2026-04-04T14:46:25Z</time></trkpt><trkpt lat="41.501657536895586" lon="13.224321129511663"><ele>47.0</ele><time>2026-04-04T14:46:26Z</time></trkpt><trkpt lat="41.501708222377154" lon="13.224399598791104"><ele>47.0</ele><time>2026-04-04T14:46:27Z</time></trkpt><trkpt lat="41.50174575640522" lon="13.22448249416819"><ele>47.0</ele><time>2026-04-04T14:46:28Z</time></trkpt><trkpt lat="41.50177319630346" lon="13.224574337750116"><ele>47.0</ele><time>2026-04-04T14:46:29Z</time></trkpt><trkpt lat="41.50179885081551" lon="13.224674254619204"><ele>47.0</ele><time>2026-04-04T14:46:30Z</time></trkpt><trkpt lat="41.501843909252216" lon="13.224757807642629"><ele>47.0</ele><time>2026-04-04T14:46:31Z</time></trkpt><trkpt lat="41.50191473633812" lon="13.224807003101548"><ele>47.0</ele><time>2026-04-04T14:46:32Z</time></trkpt><trkpt lat="41.5020036563948" lon="13.224821692327554"><ele>47.0</ele><time>2026-04-04T14:46:33Z</time></trkpt><trkpt lat="41.50209696919821" lon="13.224846539747478"><ele>47.0</ele><time>2026-04-04T14:46:34Z</time></trkpt><trkpt lat="41.5021817619996" lon="13.224903829924164"><ele>47.0</ele><time>2026-04-04T14:46:35Z</time></trkpt><trkpt lat="41.50225717958185" lon="13.224985548744973"><ele>47.0</ele><time>2026-04-04T14:46:36Z</time></trkpt><trkpt lat="41.50234307275246" lon="13.225100469068712"><ele>48.33333333333333</ele><time>2026-04-04T14:46:37Z</time></trkpt><trkpt lat="41.502439318586816" lon="13.225264347461195"><ele>49.666666666666664</ele><time>2026-04-04T14:46:38Z</time></trkpt><trkpt lat="41.50255182376057" lon="13.225441041856053"><ele>51.0</ele><time>2026-04-04T14:46:39Z</time></trkpt><trkpt lat="41.50265996467373" lon="13.225618471924069"><ele>50.66666666666667</ele><time>2026-04-04T14:46:40Z</time></trkpt><trkpt lat="41.5027617282399" lon="13.225814492331642"><ele>50.333333333333336</ele><time>2026-04-04T14:46:41Z</time></trkpt><trkpt lat="41.502861899355075" lon="13.22602450349856"><ele>50.0</ele><time>2026-04-04T14:46:42Z</time></trkpt><trkpt lat="41.502950161865456" lon="13.226237627780298"><ele>51.0</ele><time>2026-04-04T14:46:43Z</time></trkpt><trkpt lat="41.50302689405294" lon="13.226429679897805"><ele>52.0</ele><time>2026-04-04T14:46:44Z</time></trkpt><trkpt lat="41.50309955441128" lon="13.226632480542445"><ele>53.0</ele><time>2026-04-04T14:46:45Z</time></trkpt><trkpt lat="41.5032099332111" lon="13.226831761190523"><ele>53.333333333333336</ele><time>2026-04-04T14:46:46Z</time></trkpt><trkpt lat="41.503277665689936" lon="13.227078389021901"><ele>53.66666666666667</ele><time>2026-04-04T14:46:47Z</time></trkpt><trkpt lat="41.50333992176892" lon="13.227336482859066"><ele>54.0</ele><time>2026-04-04T14:46:48Z</time></trkpt><trkpt lat="41.50340451220347" lon="13.227622828793494"><ele>53.0</ele><time>2026-04-04T14:46:49Z</time></trkpt><trkpt lat="41.50346914437945" lon="13.227921246913583"><ele>52.0</ele><time>2026-04-04T14:46:50Z</time></trkpt><trkpt lat="41.503537284541075" lon="13.228232187740321"><ele>52.0</ele><time>2026-04-04T14:46:51Z</time></trkpt><trkpt lat="41.503611451182266" lon="13.22854029321666"><ele>52.0</ele><time>2026-04-04T14:46:52Z</time></trkpt><trkpt lat="41.50366320891395" lon="13.228856727815765"><ele>52.5</ele><time>2026-04-04T14:46:53Z</time></trkpt><trkpt lat="41.503733926474844" lon="13.229153837880435"><ele>53.0</ele><time>2026-04-04T14:46:54Z</time></trkpt><trkpt lat="41.50380055993358" lon="13.229433789153306"><ele>55.0</ele><time>2026-04-04T14:46:55Z</time></trkpt><trkpt lat="41.5038660844147" lon="13.229709081330984"><ele>57.0</ele><time>2026-04-04T14:46:56Z</time></trkpt><trkpt lat="41.503931409776236" lon="13.229984802586111"><ele>59.0</ele><time>2026-04-04T14:46:57Z</time></trkpt><trkpt lat="41.50399474028845" lon="13.230251855958313"><ele>59.0</ele><time>2026-04-04T14:46:58Z</time></trkpt><trkpt lat="41.50405459693602" lon="13.230504260671971"><ele>59.0</ele><time>2026-04-04T14:46:59Z</time></trkpt><trkpt lat="41.50410949650732" lon="13.23073576226252"><ele>59.0</ele><time>2026-04-04T14:47:00Z</time></trkpt><trkpt lat="41.50416480766945" lon="13.230968999599083"><ele>57.66666666666667</ele><time>2026-04-04T14:47:01Z</time></trkpt><trkpt lat="41.504261784085934" lon="13.231210409398372"><ele>56.33333333333333</ele><time>2026-04-04T14:47:02Z</time></trkpt><trkpt lat="41.50433498845495" lon="13.231509836910117"><ele>55.0</ele><time>2026-04-04T14:47:03Z</time></trkpt><trkpt lat="41.504408806804086" lon="13.231821457735101"><ele>54.666666666666664</ele><time>2026-04-04T14:47:04Z</time></trkpt><trkpt lat="41.504470292120104" lon="13.232105686960514"><ele>54.33333333333333</ele><time>2026-04-04T14:47:05Z</time></trkpt><trkpt lat="41.50449372519487" lon="13.232376166843176"><ele>54.0</ele><time>2026-04-04T14:47:06Z</time></trkpt><trkpt lat="41.504541594649446" lon="13.232648310325251"><ele>56.5</ele><time>2026-04-04T14:47:07Z</time></trkpt><trkpt lat="41.5045869606326" lon="13.232957716831994"><ele>59.0</ele><time>2026-04-04T14:47:08Z</time></trkpt><trkpt lat="41.50462490017796" lon="13.233277817112706"><ele>59.0</ele><time>2026-04-04T14:47:09Z</time></trkpt><trkpt lat="41.504647738796955" lon="13.233600100351927"><ele>59.0</ele><time>2026-04-04T14:47:10Z</time></trkpt><trkpt lat="41.50465749723911" lon="13.233932192561811"><ele>62.0</ele><time>2026-04-04T14:47:11Z</time></trkpt><trkpt lat="41.50465652512706" lon="13.234272738769768"><ele>65.0</ele><time>2026-04-04T14:47:12Z</time></trkpt><trkpt lat="41.50465261456046" lon="13.234603181814311"><ele>66.0</ele><time>2026-04-04T14:47:13Z</time></trkpt><trkpt lat="41.50464703065837" lon="13.23491454474206"><ele>67.0</ele><time>2026-04-04T14:47:14Z</time></trkpt><trkpt lat="41.50464198625787" lon="13.235201937963222"><ele>68.0</ele><time>2026-04-04T14:47:15Z</time></trkpt><trkpt lat="41.50464331622768" lon="13.235473694599824"><ele>68.0</ele><time>2026-04-04T14:47:16Z</time></trkpt><trkpt lat="41.50465021245066" lon="13.235739268387919"><ele>68.0</ele><time>2026-04-04T14:47:17Z</time></trkpt><trkpt lat="41.5046633714653" lon="13.23602924481431"><ele>68.0</ele><time>2026-04-04T14:47:18Z</time></trkpt><trkpt lat="41.504688247323095" lon="13.23634334984664"><ele>67.0</ele><time>2026-04-04T14:47:19Z</time></trkpt><trkpt lat="41.50472848138527" lon="13.236674059638357"><ele>66.0</ele><time>2026-04-04T14:47:19.999Z</time></trkpt><trkpt lat="41.50477340246088" lon="13.2369986442206"><ele>66.0</ele><time>2026-04-04T14:47:20.999Z</time></trkpt><trkpt lat="41.50481821862972" lon="13.237322470864623"><ele>66.0</ele><time>2026-04-04T14:47:21.999Z</time></trkpt><trkpt lat="41.50487935325814" lon="13.2376421522805"><ele>66.0</ele><time>2026-04-04T14:47:22.999Z</time></trkpt><trkpt lat="41.50491979818125" lon="13.237958204881155"><ele>66.0</ele><time>2026-04-04T14:47:23.999Z</time></trkpt><trkpt lat="41.5049574180559" lon="13.238268786186898"><ele>65.5</ele><time>2026-04-04T14:47:24.999Z</time></trkpt><trkpt lat="41.50500281220771" lon="13.238576033528005"><ele>65.0</ele><time>2026-04-04T14:47:25.999Z</time></trkpt><trkpt lat="41.50504792448291" lon="13.238879413892844"><ele>63.5</ele><time>2026-04-04T14:47:26.999Z</time></trkpt><trkpt lat="41.50509301444799" lon="13.239184483761667"><ele>62.0</ele><time>2026-04-04T14:47:27.999Z</time></trkpt><trkpt lat="41.505140799445584" lon="13.239485813570562"><ele>62.0</ele><time>2026-04-04T14:47:28.999Z</time></trkpt><trkpt lat="41.50518997807055" lon="13.239787146354363"><ele>62.0</ele><time>2026-04-04T14:47:29.999Z</time></trkpt><trkpt lat="41.505242583380216" lon="13.240083628148408"><ele>62.0</ele><time>2026-04-04T14:47:30.999Z</time></trkpt><trkpt lat="41.50529503304149" lon="13.240378315969876"><ele>62.0</ele><time>2026-04-04T14:47:31.999Z</time></trkpt><trkpt lat="41.50534757574361" lon="13.240672617156143"><ele>62.0</ele><time>2026-04-04T14:47:32.999Z</time></trkpt><trkpt lat="41.50539870888715" lon="13.240966586965719"><ele>62.0</ele><time>2026-04-04T14:47:33.999Z</time></trkpt><trkpt lat="41.50545035806292" lon="13.241255287913052"><ele>62.0</ele><time>2026-04-04T14:47:34.999Z</time></trkpt><trkpt lat="41.505502666595405" lon="13.24153919301341"><ele>61.0</ele><time>2026-04-04T14:47:35.999Z</time></trkpt><trkpt lat="41.50555612031058" lon="13.24182893196893"><ele>60.0</ele><time>2026-04-04T14:47:36.999Z</time></trkpt><trkpt lat="41.50560927805598" lon="13.242119392492738"><ele>59.0</ele><time>2026-04-04T14:47:37.999Z</time></trkpt><trkpt lat="41.50566324719086" lon="13.2424081079137"><ele>57.66666666666667</ele><time>2026-04-04T14:47:38.999Z</time></trkpt><trkpt lat="41.50571744847067" lon="13.242694044433073"><ele>56.33333333333333</ele><time>2026-04-04T14:47:39.999Z</time></trkpt><trkpt lat="41.505768849594894" lon="13.242981351380724"><ele>55.0</ele><time>2026-04-04T14:47:40.999Z</time></trkpt><trkpt lat="41.50581965313705" lon="13.24326551065564"><ele>53.666666666666664</ele><time>2026-04-04T14:47:41.999Z</time></trkpt><trkpt lat="41.505868788227644" lon="13.243536455584762"><ele>52.33333333333333</ele><time>2026-04-04T14:47:42.999Z</time></trkpt><trkpt lat="41.50591625575396" lon="13.24381581683478"><ele>51.0</ele><time>2026-04-04T14:47:43.999Z</time></trkpt><trkpt lat="41.50596574147694" lon="13.244093743034089"><ele>51.0</ele><time>2026-04-04T14:47:44.999Z</time></trkpt><trkpt lat="41.50601644010876" lon="13.244365752343308"><ele>51.0</ele><time>2026-04-04T14:47:45.999Z</time></trkpt><trkpt lat="41.50606799383168" lon="13.244636132664597"><ele>51.0</ele><time>2026-04-04T14:47:46.999Z</time></trkpt><trkpt lat="41.5061180790005" lon="13.244903640824969"><ele>50.66666666666667</ele><time>2026-04-04T14:47:47.999Z</time></trkpt><trkpt lat="41.50616669776686" lon="13.245167446705901"><ele>50.333333333333336</ele><time>2026-04-04T14:47:48.999Z</time></trkpt><trkpt lat="41.506216266206714" lon="13.245434603088302"><ele>50.0</ele><time>2026-04-04T14:47:49.999Z</time></trkpt><trkpt lat="41.50626260527283" lon="13.24570172975442"><ele>52.0</ele><time>2026-04-04T14:47:50.999Z</time></trkpt><trkpt lat="41.50630870101552" lon="13.245963621646448"><ele>54.0</ele><time>2026-04-04T14:47:51.999Z</time></trkpt><trkpt lat="41.50635263328472" lon="13.246222976637227"><ele>56.0</ele><time>2026-04-04T14:47:52.999Z</time></trkpt><trkpt lat="41.50639910356642" lon="13.2464824284743"><ele>56.0</ele><time>2026-04-04T14:47:53.999Z</time></trkpt><trkpt lat="41.50644586425893" lon="13.246740671005153"><ele>56.0</ele><time>2026-04-04T14:47:55Z</time></trkpt><trkpt lat="41.50649298686474" lon="13.246997279820437"><ele>56.0</ele><time>2026-04-04T14:47:56Z</time></trkpt><trkpt lat="41.50653835097139" lon="13.247249490939955"><ele>57.0</ele><time>2026-04-04T14:47:57Z</time></trkpt><trkpt lat="41.50658516917166" lon="13.247501137965125"><ele>58.0</ele><time>2026-04-04T14:47:58Z</time></trkpt><trkpt lat="41.50663213218659" lon="13.247751643049796"><ele>59.0</ele><time>2026-04-04T14:47:59Z</time></trkpt><trkpt lat="41.50667785000163" lon="13.248002029027667"><ele>59.0</ele><time>2026-04-04T14:48:00Z</time></trkpt><trkpt lat="41.506723210633865" lon="13.248253027395496"><ele>59.0</ele><time>2026-04-04T14:48:01Z</time></trkpt><trkpt lat="41.50676835938317" lon="13.24850401410172"><ele>59.0</ele><time>2026-04-04T14:48:02Z</time></trkpt><trkpt lat="41.50681310642905" lon="13.248756544847545"><ele>59.333333333333336</ele><time>2026-04-04T14:48:03Z</time></trkpt><trkpt lat="41.50685843137162" lon="13.24901077473888"><ele>59.66666666666667</ele><time>2026-04-04T14:48:04Z</time></trkpt><trkpt lat="41.50690337806079" lon="13.249265662763898"><ele>60.0</ele><time>2026-04-04T14:48:05Z</time></trkpt><trkpt lat="41.50694830978413" lon="13.249519629053525"><ele>60.0</ele><time>2026-04-04T14:48:06Z</time></trkpt><trkpt lat="41.50699503126674" lon="13.249773488280862"><ele>60.0</ele><time>2026-04-04T14:48:07Z</time></trkpt><trkpt lat="41.50704036870425" lon="13.2500286198583"><ele>60.0</ele><time>2026-04-04T14:48:08Z</time></trkpt><trkpt lat="41.50708796064282" lon="13.25028329744712"><ele>62.0</ele><time>2026-04-04T14:48:09Z</time></trkpt><trkpt lat="41.5071347060785" lon="13.250538683196227"><ele>64.0</ele><time>2026-04-04T14:48:10Z</time></trkpt><trkpt lat="41.507182177084246" lon="13.250795399661039"><ele>66.0</ele><time>2026-04-04T14:48:11Z</time></trkpt><trkpt lat="41.507228391612195" lon="13.251055774062223"><ele>66.0</ele><time>2026-04-04T14:48:12Z</time></trkpt><trkpt lat="41.50727452648549" lon="13.251316714583238"><ele>66.0</ele><time>2026-04-04T14:48:13Z</time></trkpt><trkpt lat="41.50732076280168" lon="13.251577110372942"><ele>66.0</ele><time>2026-04-04T14:48:14Z</time></trkpt><trkpt lat="41.50736817585921" lon="13.251837838184052"><ele>66.0</ele><time>2026-04-04T14:48:15Z</time></trkpt><trkpt lat="41.507416841752175" lon="13.252098650116665"><ele>66.0</ele><time>2026-04-04T14:48:16Z</time></trkpt><trkpt lat="41.50746225862753" lon="13.25236255807553"><ele>66.0</ele><time>2026-04-04T14:48:17Z</time></trkpt><trkpt lat="41.50750795222982" lon="13.252625557258662"><ele>66.0</ele><time>2026-04-04T14:48:18Z</time></trkpt><trkpt lat="41.507553929454225" lon="13.252886843564815"><ele>66.0</ele><time>2026-04-04T14:48:19Z</time></trkpt><trkpt lat="41.50760027220325" lon="13.25314923200059"><ele>66.0</ele><time>2026-04-04T14:48:20Z</time></trkpt><trkpt lat="41.5076476680025" lon="13.253408342487129"><ele>66.0</ele><time>2026-04-04T14:48:21Z</time></trkpt><trkpt lat="41.50769292624447" lon="13.253667155494234"><ele>66.0</ele><time>2026-04-04T14:48:22Z</time></trkpt><trkpt lat="41.507740566617464" lon="13.25392643155965"><ele>66.0</ele><time>2026-04-04T14:48:23Z</time></trkpt><trkpt lat="41.50778903362581" lon="13.254185547312286"><ele>65.66666666666667</ele><time>2026-04-04T14:48:24Z</time></trkpt><trkpt lat="41.50783697939173" lon="13.254445891948093"><ele>65.33333333333334</ele><time>2026-04-04T14:48:25Z</time></trkpt><trkpt lat="41.50788374218953" lon="13.254708528389749"><ele>65.0</ele><time>2026-04-04T14:48:26Z</time></trkpt><trkpt lat="41.50793022910121" lon="13.254964102433854"><ele>67.66666666666667</ele><time>2026-04-04T14:48:27Z</time></trkpt><trkpt lat="41.507977009003255" lon="13.255212952590478"><ele>70.33333333333333</ele><time>2026-04-04T14:48:28Z</time></trkpt><trkpt lat="41.50802172920272" lon="13.255458565489215"><ele>73.0</ele><time>2026-04-04T14:48:29Z</time></trkpt><trkpt lat="41.50806734175329" lon="13.255705849690273"><ele>73.0</ele><time>2026-04-04T14:48:30Z</time></trkpt><trkpt lat="41.50811454313663" lon="13.255955061408526"><ele>73.0</ele><time>2026-04-04T14:48:31Z</time></trkpt><trkpt lat="41.50816398831118" lon="13.256203260354356"><ele>73.0</ele><time>2026-04-04T14:48:32Z</time></trkpt><trkpt lat="41.50821019604089" lon="13.256446307976681"><ele>72.66666666666666</ele><time>2026-04-04T14:48:33Z</time></trkpt><trkpt lat="41.5082569979248" lon="13.256688846901554"><ele>72.33333333333333</ele><time>2026-04-04T14:48:34Z</time></trkpt><trkpt lat="41.50830573782088" lon="13.256936802645194"><ele>72.0</ele><time>2026-04-04T14:48:35Z</time></trkpt><trkpt lat="41.50835242211693" lon="13.257193976107079"><ele>70.33333333333333</ele><time>2026-04-04T14:48:36Z</time></trkpt><trkpt lat="41.50840182273555" lon="13.25745783050758"><ele>68.66666666666666</ele><time>2026-04-04T14:48:37Z</time></trkpt><trkpt lat="41.508446740061316" lon="13.257724726275203"><ele>67.0</ele><time>2026-04-04T14:48:38Z</time></trkpt><trkpt lat="41.50849155983753" lon="13.257985919265582"><ele>67.0</ele><time>2026-04-04T14:48:39Z</time></trkpt><trkpt lat="41.50853719829204" lon="13.258241133558052"><ele>67.0</ele><time>2026-04-04T14:48:40Z</time></trkpt><trkpt lat="41.50858184309927" lon="13.258489327718655"><ele>67.0</ele><time>2026-04-04T14:48:41Z</time></trkpt><trkpt lat="41.508629595493936" lon="13.258732270975276"><ele>67.33333333333333</ele><time>2026-04-04T14:48:42Z</time></trkpt><trkpt lat="41.50867645526195" lon="13.258978881070107"><ele>67.66666666666667</ele><time>2026-04-04T14:48:43Z</time></trkpt><trkpt lat="41.50872455473834" lon="13.259232066866206"><ele>68.0</ele><time>2026-04-04T14:48:44Z</time></trkpt><trkpt lat="41.50877066442191" lon="13.259485831803191"><ele>74.33333333333334</ele><time>2026-04-04T14:48:45Z</time></trkpt><trkpt lat="41.50881339625703" lon="13.25974266277294"><ele>80.66666666666667</ele><time>2026-04-04T14:48:46Z</time></trkpt><trkpt lat="41.508859398293595" lon="13.25999817101941"><ele>87.0</ele><time>2026-04-04T14:48:47Z</time></trkpt><trkpt lat="41.50890525486964" lon="13.260250872046855"><ele>87.0</ele><time>2026-04-04T14:48:48Z</time></trkpt><trkpt lat="41.50895012792358" lon="13.260500704117268"><ele>87.0</ele><time>2026-04-04T14:48:49Z</time></trkpt><trkpt lat="41.508996083188855" lon="13.260751253207843"><ele>87.0</ele><time>2026-04-04T14:48:50Z</time></trkpt><trkpt lat="41.509037361295356" lon="13.260984357173642"><ele>85.66666666666667</ele><time>2026-04-04T14:48:51Z</time></trkpt><trkpt lat="41.509079598737706" lon="13.261220431176193"><ele>84.33333333333334</ele><time>2026-04-04T14:48:52Z</time></trkpt><trkpt lat="41.509123199189794" lon="13.261466109643932"><ele>83.0</ele><time>2026-04-04T14:48:53Z</time></trkpt><trkpt lat="41.50916527354719" lon="13.261705733389725"><ele>82.33333333333334</ele><time>2026-04-04T14:48:54Z</time></trkpt><trkpt lat="41.509203282826036" lon="13.261920368813392"><ele>81.66666666666667</ele><time>2026-04-04T14:48:55Z</time></trkpt><trkpt lat="41.50923932025203" lon="13.262122531308876"><ele>81.0</ele><time>2026-04-04T14:48:56Z</time></trkpt><trkpt lat="41.50927336710249" lon="13.262316781289224"><ele>80.33333333333333</ele><time>2026-04-04T14:48:57Z</time></trkpt><trkpt lat="41.509310265931205" lon="13.262518845076695"><ele>79.66666666666666</ele><time>2026-04-04T14:48:58Z</time></trkpt><trkpt lat="41.509352396212506" lon="13.262724533368152"><ele>79.0</ele><time>2026-04-04T14:48:59Z</time></trkpt><trkpt lat="41.50939898851879" lon="13.2629284813001"><ele>79.0</ele><time>2026-04-04T14:49:00Z</time></trkpt><trkpt lat="41.509449059905144" lon="13.263118470432518"><ele>79.0</ele><time>2026-04-04T14:49:01Z</time></trkpt><trkpt lat="41.509472484498204" lon="13.263322011350455"><ele>79.0</ele><time>2026-04-04T14:49:02Z</time></trkpt><trkpt lat="41.50952686272849" lon="13.263514578745092"><ele>80.66666666666666</ele><time>2026-04-04T14:49:03Z</time></trkpt><trkpt lat="41.50958397527508" lon="13.263704088000521"><ele>82.33333333333333</ele><time>2026-04-04T14:49:04Z</time></trkpt><trkpt lat="41.50964301277012" lon="13.263895567752389"><ele>84.0</ele><time>2026-04-04T14:49:05Z</time></trkpt><trkpt lat="41.509703335885725" lon="13.26408533298017"><ele>84.0</ele><time>2026-04-04T14:49:06Z</time></trkpt><trkpt lat="41.50976485176816" lon="13.264273287258822"><ele>84.0</ele><time>2026-04-04T14:49:07Z</time></trkpt><trkpt lat="41.509831061814175" lon="13.264468990246206"><ele>84.0</ele><time>2026-04-04T14:49:08Z</time></trkpt><trkpt lat="41.50990301912245" lon="13.264665824256952"><ele>83.0</ele><time>2026-04-04T14:49:09Z</time></trkpt><trkpt lat="41.50997823934296" lon="13.264857828334176"><ele>82.0</ele><time>2026-04-04T14:49:10Z</time></trkpt><trkpt lat="41.51005586950558" lon="13.26504780043735"><ele>81.0</ele><time>2026-04-04T14:49:11Z</time></trkpt><trkpt lat="41.51013583211186" lon="13.265231731584175"><ele>81.0</ele><time>2026-04-04T14:49:12Z</time></trkpt><trkpt lat="41.51021770585973" lon="13.265415060555485"><ele>81.0</ele><time>2026-04-04T14:49:13Z</time></trkpt><trkpt lat="41.51030405839534" lon="13.265600194279367"><ele>81.0</ele><time>2026-04-04T14:49:14Z</time></trkpt><trkpt lat="41.51039313483758" lon="13.26578503065809"><ele>81.0</ele><time>2026-04-04T14:49:15Z</time></trkpt><trkpt lat="41.51048122267889" lon="13.265955790693894"><ele>81.0</ele><time>2026-04-04T14:49:16Z</time></trkpt><trkpt lat="41.51057580249765" lon="13.266131858738081"><ele>81.0</ele><time>2026-04-04T14:49:17Z</time></trkpt><trkpt lat="41.51068034745667" lon="13.266318847509172"><ele>79.0</ele><time>2026-04-04T14:49:18Z</time></trkpt><trkpt lat="41.5107925395903" lon="13.266513163153824"><ele>77.0</ele><time>2026-04-04T14:49:19Z</time></trkpt><trkpt lat="41.510908633630685" lon="13.266702796250595"><ele>75.0</ele><time>2026-04-04T14:49:20Z</time></trkpt><trkpt lat="41.51103485181851" lon="13.266895227189522"><ele>75.0</ele><time>2026-04-04T14:49:21Z</time></trkpt><trkpt lat="41.51117144203026" lon="13.267091243898626"><ele>75.0</ele><time>2026-04-04T14:49:22Z</time></trkpt><trkpt lat="41.51131829126017" lon="13.26728838401001"><ele>75.0</ele><time>2026-04-04T14:49:23Z</time></trkpt><trkpt lat="41.51146733911442" lon="13.267479588081105"><ele>75.66666666666667</ele><time>2026-04-04T14:49:23.999Z</time></trkpt><trkpt lat="41.51161983980368" lon="13.267670732608746"><ele>76.33333333333334</ele><time>2026-04-04T14:49:24.999Z</time></trkpt><trkpt lat="41.51177739112188" lon="13.267863679693333"><ele>77.0</ele><time>2026-04-04T14:49:25.999Z</time></trkpt><trkpt lat="41.51194306151376" lon="13.268051521169413"><ele>80.66666666666667</ele><time>2026-04-04T14:49:26.999Z</time></trkpt><trkpt lat="41.512120943059706" lon="13.268212892591905"><ele>84.33333333333333</ele><time>2026-04-04T14:49:27.999Z</time></trkpt><trkpt lat="41.512283139427396" lon="13.26838390177973"><ele>88.0</ele><time>2026-04-04T14:49:28.999Z</time></trkpt><trkpt lat="41.51244196208805" lon="13.268543440121713"><ele>88.0</ele><time>2026-04-04T14:49:29.999Z</time></trkpt><trkpt lat="41.51259869487175" lon="13.268702874409398"><ele>88.0</ele><time>2026-04-04T14:49:30.999Z</time></trkpt><trkpt lat="41.512751290634135" lon="13.268857705321407"><ele>88.0</ele><time>2026-04-04T14:49:31.999Z</time></trkpt><trkpt lat="41.51290248992152" lon="13.269010165683563"><ele>87.0</ele><time>2026-04-04T14:49:32.999Z</time></trkpt><trkpt lat="41.513055068274" lon="13.269161269875807"><ele>86.0</ele><time>2026-04-04T14:49:33.999Z</time></trkpt><trkpt lat="41.51320752197494" lon="13.26931312315438"><ele>85.0</ele><time>2026-04-04T14:49:34.999Z</time></trkpt><trkpt lat="41.513359452554774" lon="13.269463795601613"><ele>85.0</ele><time>2026-04-04T14:49:35.999Z</time></trkpt><trkpt lat="41.51351103256227" lon="13.269613482907584"><ele>85.0</ele><time>2026-04-04T14:49:36.999Z</time></trkpt><trkpt lat="41.51366195473386" lon="13.26976364406063"><ele>85.0</ele><time>2026-04-04T14:49:37.999Z</time></trkpt><trkpt lat="41.5138132377043" lon="13.269914027854734"><ele>83.0</ele><time>2026-04-04T14:49:38.999Z</time></trkpt><trkpt lat="41.513966023443345" lon="13.270064220438726"><ele>81.0</ele><time>2026-04-04T14:49:39.999Z</time></trkpt><trkpt lat="41.514120549045295" lon="13.270217412349993"><ele>79.0</ele><time>2026-04-04T14:49:40.999Z</time></trkpt><trkpt lat="41.51427808805411" lon="13.270373497429304"><ele>79.0</ele><time>2026-04-04T14:49:41.999Z</time></trkpt><trkpt lat="41.51443454627892" lon="13.27052948048997"><ele>79.0</ele><time>2026-04-04T14:49:42.999Z</time></trkpt><trkpt lat="41.51459274400913" lon="13.270689016848895"><ele>79.0</ele><time>2026-04-04T14:49:43.999Z</time></trkpt><trkpt lat="41.51475139615067" lon="13.270849836448356"><ele>81.66666666666666</ele><time>2026-04-04T14:49:44.999Z</time></trkpt><trkpt lat="41.51491128835125" lon="13.271010523072652"><ele>84.33333333333333</ele><time>2026-04-04T14:49:45.999Z</time></trkpt><trkpt lat="41.515070960287474" lon="13.271165804198782"><ele>87.0</ele><time>2026-04-04T14:49:46.999Z</time></trkpt><trkpt lat="41.51521631880132" lon="13.27133712581755"><ele>83.0</ele><time>2026-04-04T14:49:47.999Z</time></trkpt><trkpt lat="41.51537193139313" lon="13.27148618211239"><ele>79.0</ele><time>2026-04-04T14:49:48.999Z</time></trkpt><trkpt lat="41.51552515652838" lon="13.271623505860756"><ele>75.0</ele><time>2026-04-04T14:49:49.999Z</time></trkpt><trkpt lat="41.5156695528942" lon="13.271745717949315"><ele>74.66666666666667</ele><time>2026-04-04T14:49:50.999Z</time></trkpt><trkpt lat="41.51581056191783" lon="13.271859791641516"><ele>74.33333333333334</ele><time>2026-04-04T14:49:51.999Z</time></trkpt><trkpt lat="41.51595103017609" lon="13.271966475218072"><ele>74.0</ele><time>2026-04-04T14:49:52.999Z</time></trkpt><trkpt lat="41.51610250839255" lon="13.272046913603152"><ele>73.33333333333334</ele><time>2026-04-04T14:49:53.999Z</time></trkpt><trkpt lat="41.51624742859846" lon="13.272143968567761"><ele>72.66666666666667</ele><time>2026-04-04T14:49:54.999Z</time></trkpt><trkpt lat="41.51639725395913" lon="13.272236787959512"><ele>72.0</ele><time>2026-04-04T14:49:55.999Z</time></trkpt><trkpt lat="41.516557285348625" lon="13.272349472021105"><ele>75.0</ele><time>2026-04-04T14:49:56.999Z</time></trkpt><trkpt lat="41.516732445974064" lon="13.272438479399746"><ele>78.0</ele><time>2026-04-04T14:49:57.999Z</time></trkpt><trkpt lat="41.516918996554374" lon="13.272531616653222"><ele>81.0</ele><time>2026-04-04T14:49:58.999Z</time></trkpt><trkpt lat="41.51711868061974" lon="13.272595087139"><ele>82.33333333333333</ele><time>2026-04-04T14:50:00Z</time></trkpt><trkpt lat="41.517310271228304" lon="13.272694022872512"><ele>83.66666666666666</ele><time>2026-04-04T14:50:01Z</time></trkpt><trkpt lat="41.51750687759204" lon="13.272757401857904"><ele>85.0</ele><time>2026-04-04T14:50:02Z</time></trkpt><trkpt lat="41.51769680779511" lon="13.27281637556818"><ele>85.0</ele><time>2026-04-04T14:50:03Z</time></trkpt><trkpt lat="41.517885667612966" lon="13.272866441822623"><ele>85.0</ele><time>2026-04-04T14:50:04Z</time></trkpt><trkpt lat="41.51807418455112" lon="13.272908436766658"><ele>85.0</ele><time>2026-04-04T14:50:05Z</time></trkpt><trkpt lat="41.518262767624165" lon="13.272942020713788"><ele>86.0</ele><time>2026-04-04T14:50:06Z</time></trkpt><trkpt lat="41.518455316135935" lon="13.272968064074028"><ele>87.0</ele><time>2026-04-04T14:50:07Z</time></trkpt><trkpt lat="41.518647212340106" lon="13.27298368106902"><ele>88.0</ele><time>2026-04-04T14:50:08Z</time></trkpt><trkpt lat="41.51883905976345" lon="13.272991254139939"><ele>89.33333333333333</ele><time>2026-04-04T14:50:09Z</time></trkpt><trkpt lat="41.519027856095356" lon="13.27300283150784"><ele>90.66666666666667</ele><time>2026-04-04T14:50:10Z</time></trkpt><trkpt lat="41.51922337610738" lon="13.272994460627823"><ele>92.0</ele><time>2026-04-04T14:50:11Z</time></trkpt><trkpt lat="41.51941533762109" lon="13.272982824761721"><ele>92.66666666666667</ele><time>2026-04-04T14:50:12Z</time></trkpt><trkpt lat="41.51960621854684" lon="13.272963586981657"><ele>93.33333333333333</ele><time>2026-04-04T14:50:13Z</time></trkpt><trkpt lat="41.51979791598274" lon="13.272934612437286"><ele>94.0</ele><time>2026-04-04T14:50:14Z</time></trkpt><trkpt lat="41.51998909847573" lon="13.27289838613339"><ele>94.0</ele><time>2026-04-04T14:50:15Z</time></trkpt><trkpt lat="41.520179173043196" lon="13.27285237285076"><ele>94.0</ele><time>2026-04-04T14:50:16Z</time></trkpt><trkpt lat="41.52036773265995" lon="13.272800908112183"><ele>94.0</ele><time>2026-04-04T14:50:17Z</time></trkpt><trkpt lat="41.52055811562873" lon="13.272739830119296"><ele>94.66666666666666</ele><time>2026-04-04T14:50:18Z</time></trkpt><trkpt lat="41.520747398461445" lon="13.272668749587945"><ele>95.33333333333333</ele><time>2026-04-04T14:50:19Z</time></trkpt><trkpt lat="41.52093412790155" lon="13.272590910171965"><ele>96.0</ele><time>2026-04-04T14:50:20Z</time></trkpt><trkpt lat="41.521117818412435" lon="13.272504472844561"><ele>96.33333333333334</ele><time>2026-04-04T14:50:21Z</time></trkpt><trkpt lat="41.52129797194397" lon="13.272412933234811"><ele>96.66666666666667</ele><time>2026-04-04T14:50:22Z</time></trkpt><trkpt lat="41.52147852227362" lon="13.272308762543018"><ele>97.0</ele><time>2026-04-04T14:50:23Z</time></trkpt><trkpt lat="41.52166360914947" lon="13.27219523967966"><ele>96.0</ele><time>2026-04-04T14:50:24Z</time></trkpt><trkpt lat="41.521856949817014" lon="13.272070301621582"><ele>95.0</ele><time>2026-04-04T14:50:25Z</time></trkpt><trkpt lat="41.52203545141855" lon="13.27194667453505"><ele>94.0</ele><time>2026-04-04T14:50:26Z</time></trkpt><trkpt lat="41.52220275054757" lon="13.271819188825454"><ele>97.33333333333333</ele><time>2026-04-04T14:50:27Z</time></trkpt><trkpt lat="41.522358774798334" lon="13.271698670058749"><ele>100.66666666666666</ele><time>2026-04-04T14:50:28Z</time></trkpt><trkpt lat="41.52252133248168" lon="13.271573768262849"><ele>104.0</ele><time>2026-04-04T14:50:29Z</time></trkpt><trkpt lat="41.522703587789906" lon="13.271434100396547"><ele>104.0</ele><time>2026-04-04T14:50:30Z</time></trkpt><trkpt lat="41.52289142935562" lon="13.271293864045195"><ele>104.0</ele><time>2026-04-04T14:50:31Z</time></trkpt><trkpt lat="41.523056891920454" lon="13.27117089515257"><ele>104.0</ele><time>2026-04-04T14:50:32Z</time></trkpt><trkpt lat="41.523201309070416" lon="13.271058414326326"><ele>108.66666666666666</ele><time>2026-04-04T14:50:33Z</time></trkpt><trkpt lat="41.52334469721871" lon="13.27094860655037"><ele>113.33333333333334</ele><time>2026-04-04T14:50:34Z</time></trkpt><trkpt lat="41.5235093700825" lon="13.27081215638464"><ele>118.0</ele><time>2026-04-04T14:50:35Z</time></trkpt><trkpt lat="41.52370119804076" lon="13.27067117536472"><ele>117.0</ele><time>2026-04-04T14:50:36Z</time></trkpt><trkpt lat="41.5239107060761" lon="13.270510741499171"><ele>116.0</ele><time>2026-04-04T14:50:37Z</time></trkpt><trkpt lat="41.5241358955271" lon="13.270347219584167"><ele>116.0</ele><time>2026-04-04T14:50:38Z</time></trkpt><trkpt lat="41.52435719601305" lon="13.270188593547788"><ele>116.0</ele><time>2026-04-04T14:50:39Z</time></trkpt><trkpt lat="41.52456956609353" lon="13.270028759682393"><ele>118.0</ele><time>2026-04-04T14:50:40Z</time></trkpt><trkpt lat="41.52477790891025" lon="13.26986826237008"><ele>120.0</ele><time>2026-04-04T14:50:41Z</time></trkpt><trkpt lat="41.52499889427445" lon="13.269697978369415"><ele>120.0</ele><time>2026-04-04T14:50:42Z</time></trkpt><trkpt lat="41.52523058650239" lon="13.269513540333804"><ele>120.0</ele><time>2026-04-04T14:50:43Z</time></trkpt><trkpt lat="41.525476366714074" lon="13.269328946491227"><ele>127.5</ele><time>2026-04-04T14:50:44Z</time></trkpt><trkpt lat="41.52571952107954" lon="13.269164689835668"><ele>135.0</ele><time>2026-04-04T14:50:45Z</time></trkpt><trkpt lat="41.52596057772208" lon="13.269021464092102"><ele>133.5</ele><time>2026-04-04T14:50:46Z</time></trkpt><trkpt lat="41.52620388143299" lon="13.268892484304583"><ele>132.0</ele><time>2026-04-04T14:50:47Z</time></trkpt><trkpt lat="41.52645197535071" lon="13.268776678575808"><ele>132.0</ele><time>2026-04-04T14:50:48Z</time></trkpt><trkpt lat="41.526704871403254" lon="13.268679330440712"><ele>132.0</ele><time>2026-04-04T14:50:49Z</time></trkpt><trkpt lat="41.52697271000802" lon="13.268592707982508"><ele>135.5</ele><time>2026-04-04T14:50:50Z</time></trkpt><trkpt lat="41.52725657631821" lon="13.268501817647339"><ele>139.0</ele><time>2026-04-04T14:50:51Z</time></trkpt><trkpt lat="41.52754328752823" lon="13.268410671277104"><ele>139.0</ele><time>2026-04-04T14:50:52Z</time></trkpt><trkpt lat="41.527830143095365" lon="13.268324242027655"><ele>139.0</ele><time>2026-04-04T14:50:53Z</time></trkpt><trkpt lat="41.52811311314676" lon="13.26823393377048"><ele>140.5</ele><time>2026-04-04T14:50:54Z</time></trkpt><trkpt lat="41.5283937626774" lon="13.268143329626946"><ele>142.0</ele><time>2026-04-04T14:50:55Z</time></trkpt><trkpt lat="41.52867389628539" lon="13.26805307456195"><ele>138.5</ele><time>2026-04-04T14:50:56Z</time></trkpt><trkpt lat="41.52895548040205" lon="13.267965380507901"><ele>135.0</ele><time>2026-04-04T14:50:57Z</time></trkpt><trkpt lat="41.52923559441044" lon="13.267877594785082"><ele>135.0</ele><time>2026-04-04T14:50:58Z</time></trkpt><trkpt lat="41.529512070568366" lon="13.267791757463723"><ele>135.0</ele><time>2026-04-04T14:50:59Z</time></trkpt><trkpt lat="41.529790591079106" lon="13.267705563917625"><ele>140.0</ele><time>2026-04-04T14:51:00Z</time></trkpt><trkpt lat="41.53006856240709" lon="13.267620618657903"><ele>145.0</ele><time>2026-04-04T14:51:01Z</time></trkpt><trkpt lat="41.530348933892945" lon="13.26753317267465"><ele>152.0</ele><time>2026-04-04T14:51:02Z</time></trkpt><trkpt lat="41.53063104231735" lon="13.267444468025335"><ele>159.0</ele><time>2026-04-04T14:51:03Z</time></trkpt><trkpt lat="41.530916620283335" lon="13.267351357543893"><ele>157.5</ele><time>2026-04-04T14:51:04Z</time></trkpt><trkpt lat="41.531203913728554" lon="13.267258390581746"><ele>156.0</ele><time>2026-04-04T14:51:05Z</time></trkpt><trkpt lat="41.531494096937216" lon="13.267164199686613"><ele>156.0</ele><time>2026-04-04T14:51:06Z</time></trkpt><trkpt lat="41.531785068034324" lon="13.267072193246436"><ele>156.0</ele><time>2026-04-04T14:51:07Z</time></trkpt><trkpt lat="41.53207173339048" lon="13.266982672363245"><ele>161.5</ele><time>2026-04-04T14:51:08Z</time></trkpt><trkpt lat="41.532347904376216" lon="13.266892448479153"><ele>167.0</ele><time>2026-04-04T14:51:09Z</time></trkpt><trkpt lat="41.53261857631441" lon="13.266805976906731"><ele>167.0</ele><time>2026-04-04T14:51:10Z</time></trkpt><trkpt lat="41.53288137616132" lon="13.26672728176771"><ele>167.0</ele><time>2026-04-04T14:51:11Z</time></trkpt><trkpt lat="41.53314044907735" lon="13.266660454455147"><ele>173.0</ele><time>2026-04-04T14:51:12Z</time></trkpt><trkpt lat="41.533400432927344" lon="13.266605765237632"><ele>179.0</ele><time>2026-04-04T14:51:13Z</time></trkpt><trkpt lat="41.53366542234093" lon="13.266568909584098"><ele>180.5</ele><time>2026-04-04T14:51:14Z</time></trkpt><trkpt lat="41.53392920911147" lon="13.266550754841553"><ele>182.0</ele><time>2026-04-04T14:51:15Z</time></trkpt><trkpt lat="41.53419822107107" lon="13.266550986489875"><ele>182.0</ele><time>2026-04-04T14:51:16Z</time></trkpt><trkpt lat="41.53446988575933" lon="13.266565840730822"><ele>182.0</ele><time>2026-04-04T14:51:17Z</time></trkpt><trkpt lat="41.53474454158183" lon="13.26659862753256"><ele>181.5</ele><time>2026-04-04T14:51:18Z</time></trkpt><trkpt lat="41.53502344080756" lon="13.26663308460559"><ele>181.0</ele><time>2026-04-04T14:51:19Z</time></trkpt><trkpt lat="41.535304503256306" lon="13.266667800987223"><ele>183.0</ele><time>2026-04-04T14:51:20Z</time></trkpt><trkpt lat="41.535584300134055" lon="13.266700276817703"><ele>185.0</ele><time>2026-04-04T14:51:21Z</time></trkpt><trkpt lat="41.535870890968205" lon="13.266734217173296"><ele>185.0</ele><time>2026-04-04T14:51:22Z</time></trkpt><trkpt lat="41.536168277499236" lon="13.266771773253938"><ele>185.0</ele><time>2026-04-04T14:51:22.999Z</time></trkpt><trkpt lat="41.536477104987796" lon="13.266813629358891"><ele>185.0</ele><time>2026-04-04T14:51:23.999Z</time></trkpt><trkpt lat="41.536795149961804" lon="13.266857876486572"><ele>185.0</ele><time>2026-04-04T14:51:24.999Z</time></trkpt><trkpt lat="41.53712995012045" lon="13.266898908304842"><ele>183.5</ele><time>2026-04-04T14:51:25.999Z</time></trkpt><trkpt lat="41.53748221224451" lon="13.266948665925922"><ele>182.0</ele><time>2026-04-04T14:51:26.999Z</time></trkpt><trkpt lat="41.537848081746844" lon="13.26699630924203"><ele>183.0</ele><time>2026-04-04T14:51:27.999Z</time></trkpt><trkpt lat="41.538224847547674" lon="13.267044509011606"><ele>184.0</ele><time>2026-04-04T14:51:28.999Z</time></trkpt><trkpt lat="41.53861307206176" lon="13.267095429794576"><ele>188.0</ele><time>2026-04-04T14:51:29.999Z</time></trkpt><trkpt lat="41.53896495828599" lon="13.267143991454008"><ele>192.0</ele><time>2026-04-04T14:51:30.999Z</time></trkpt><trkpt lat="41.539288031971545" lon="13.267181616823153"><ele>197.5</ele><time>2026-04-04T14:51:31.999Z</time></trkpt><trkpt lat="41.53959187199055" lon="13.267220117033064"><ele>203.0</ele><time>2026-04-04T14:51:32.999Z</time></trkpt><trkpt lat="41.53988827156737" lon="13.267267074032134"><ele>206.5</ele><time>2026-04-04T14:51:33.999Z</time></trkpt><trkpt lat="41.54018126397586" lon="13.26733064690661"><ele>210.0</ele><time>2026-04-04T14:51:34.999Z</time></trkpt><trkpt lat="41.54047103833868" lon="13.267413068064586"><ele>210.0</ele><time>2026-04-04T14:51:35.999Z</time></trkpt><trkpt lat="41.54075306227592" lon="13.267510495819133"><ele>210.0</ele><time>2026-04-04T14:51:36.999Z</time></trkpt><trkpt lat="41.54103362123504" lon="13.2676193487058"><ele>208.5</ele><time>2026-04-04T14:51:37.999Z</time></trkpt><trkpt lat="41.54131326799661" lon="13.26775137631621"><ele>207.0</ele><time>2026-04-04T14:51:38.999Z</time></trkpt><trkpt lat="41.541586451164946" lon="13.267881470556384"><ele>207.0</ele><time>2026-04-04T14:51:39.999Z</time></trkpt><trkpt lat="41.54185721853366" lon="13.268006596042301"><ele>207.0</ele><time>2026-04-04T14:51:40.999Z</time></trkpt><trkpt lat="41.5421221027737" lon="13.268134165897495"><ele>212.5</ele><time>2026-04-04T14:51:41.999Z</time></trkpt><trkpt lat="41.54238637177369" lon="13.268265269621002"><ele>218.0</ele><time>2026-04-04T14:51:42.999Z</time></trkpt><trkpt lat="41.54265035361931" lon="13.26839722663084"><ele>217.5</ele><time>2026-04-04T14:51:43.999Z</time></trkpt><trkpt lat="41.54291692836679" lon="13.26852638151171"><ele>217.0</ele><time>2026-04-04T14:51:44.999Z</time></trkpt><trkpt lat="41.543179817832325" lon="13.268653435123772"><ele>217.0</ele><time>2026-04-04T14:51:45.999Z</time></trkpt><trkpt lat="41.54344058221405" lon="13.268779085649054"><ele>217.0</ele><time>2026-04-04T14:51:46.999Z</time></trkpt><trkpt lat="41.54369441370746" lon="13.268901122074315"><ele>221.0</ele><time>2026-04-04T14:51:47.999Z</time></trkpt><trkpt lat="41.54394785296904" lon="13.269018821493106"><ele>225.0</ele><time>2026-04-04T14:51:48.999Z</time></trkpt><trkpt lat="41.54419569229793" lon="13.269131151815872"><ele>225.0</ele><time>2026-04-04T14:51:49.999Z</time></trkpt><trkpt lat="41.544441321502056" lon="13.269232574957456"><ele>225.0</ele><time>2026-04-04T14:51:50.999Z</time></trkpt><trkpt lat="41.544691555097096" lon="13.26932020956191"><ele>222.0</ele><time>2026-04-04T14:51:51.999Z</time></trkpt><trkpt lat="41.54493742186903" lon="13.269396133503887"><ele>219.0</ele><time>2026-04-04T14:51:52.999Z</time></trkpt><trkpt lat="41.545188322078154" lon="13.269459834434127"><ele>226.5</ele><time>2026-04-04T14:51:53.999Z</time></trkpt><trkpt lat="41.545438988399894" lon="13.26950967434713"><ele>234.0</ele><time>2026-04-04T14:51:54.999Z</time></trkpt><trkpt lat="41.54569299121553" lon="13.269543197270258"><ele>234.0</ele><time>2026-04-04T14:51:55.999Z</time></trkpt><trkpt lat="41.545946553428514" lon="13.26956537853024"><ele>234.0</ele><time>2026-04-04T14:51:56.999Z</time></trkpt><trkpt lat="41.54620376223484" lon="13.26957211530354"><ele>240.0</ele><time>2026-04-04T14:51:57.999Z</time></trkpt><trkpt lat="41.546476859461265" lon="13.26957134174458"><ele>246.0</ele><time>2026-04-04T14:51:58.999Z</time></trkpt><trkpt lat="41.54675092818562" lon="13.269566776456088"><ele>246.0</ele><time>2026-04-04T14:51:59.999Z</time></trkpt><trkpt lat="41.54702606339472" lon="13.269543181719618"><ele>246.0</ele><time>2026-04-04T14:52:00.999Z</time></trkpt><trkpt lat="41.54729924512518" lon="13.26950495156193"><ele>249.0</ele><time>2026-04-04T14:52:01.999Z</time></trkpt><trkpt lat="41.54756998306131" lon="13.269445222441416"><ele>252.0</ele><time>2026-04-04T14:52:02.999Z</time></trkpt><trkpt lat="41.547835209434574" lon="13.269370815033877"><ele>253.5</ele><time>2026-04-04T14:52:03.999Z</time></trkpt><trkpt lat="41.54809763595145" lon="13.269282737616223"><ele>255.0</ele><time>2026-04-04T14:52:04.999Z</time></trkpt><trkpt lat="41.548358085163834" lon="13.269176103016827"><ele>255.0</ele><time>2026-04-04T14:52:06Z</time></trkpt><trkpt lat="41.54861758851615" lon="13.269060570007651"><ele>255.0</ele><time>2026-04-04T14:52:07Z</time></trkpt><trkpt lat="41.54887695231834" lon="13.268947520783978"><ele>253.0</ele><time>2026-04-04T14:52:08Z</time></trkpt><trkpt lat="41.549139083325514" lon="13.268831672600474"><ele>251.0</ele><time>2026-04-04T14:52:09Z</time></trkpt><trkpt lat="41.549402067447446" lon="13.268717875753238"><ele>253.5</ele><time>2026-04-04T14:52:10Z</time></trkpt><trkpt lat="41.54967102732631" lon="13.268603882448048"><ele>256.0</ele><time>2026-04-04T14:52:11Z</time></trkpt><trkpt lat="41.54993961734599" lon="13.268489731287628"><ele>256.0</ele><time>2026-04-04T14:52:12Z</time></trkpt><trkpt lat="41.55020898478947" lon="13.268373686182509"><ele>256.0</ele><time>2026-04-04T14:52:13Z</time></trkpt><trkpt lat="41.55047766866134" lon="13.268254966786241"><ele>257.5</ele><time>2026-04-04T14:52:14Z</time></trkpt><trkpt lat="41.55074312381035" lon="13.268141100299125"><ele>259.0</ele><time>2026-04-04T14:52:15Z</time></trkpt><trkpt lat="41.5510075872812" lon="13.268025580165764"><ele>257.0</ele><time>2026-04-04T14:52:16Z</time></trkpt><trkpt lat="41.55127228917631" lon="13.267908146823972"><ele>255.0</ele><time>2026-04-04T14:52:17Z</time></trkpt><trkpt lat="41.551533826847475" lon="13.267790049549495"><ele>255.0</ele><time>2026-04-04T14:52:18Z</time></trkpt><trkpt lat="41.55179499700289" lon="13.267675593358145"><ele>255.0</ele><time>2026-04-04T14:52:19Z</time></trkpt><trkpt lat="41.552057614548055" lon="13.267558343500545"><ele>250.0</ele><time>2026-04-04T14:52:20Z</time></trkpt><trkpt lat="41.552319771789364" lon="13.267443741968481"><ele>245.0</ele><time>2026-04-04T14:52:21Z</time></trkpt><trkpt lat="41.552578768040625" lon="13.26732993095479"><ele>246.5</ele><time>2026-04-04T14:52:22Z</time></trkpt><trkpt lat="41.55283867352458" lon="13.267211341191725"><ele>248.0</ele><time>2026-04-04T14:52:23Z</time></trkpt><trkpt lat="41.55310045360397" lon="13.267090572010261"><ele>248.0</ele><time>2026-04-04T14:52:24Z</time></trkpt><trkpt lat="41.55335157331151" lon="13.26698075805678"><ele>248.0</ele><time>2026-04-04T14:52:25Z</time></trkpt><trkpt lat="41.553600138622066" lon="13.266879252573064"><ele>241.5</ele><time>2026-04-04T14:52:26Z</time></trkpt><trkpt lat="41.55385214089191" lon="13.266789458924297"><ele>235.0</ele><time>2026-04-04T14:52:27Z</time></trkpt><trkpt lat="41.55410113267824" lon="13.266715407206377"><ele>235.0</ele><time>2026-04-04T14:52:28Z</time></trkpt><trkpt lat="41.554350162154286" lon="13.26665743582534"><ele>235.0</ele><time>2026-04-04T14:52:29Z</time></trkpt><trkpt lat="41.55460104481853" lon="13.266611158508752"><ele>236.0</ele><time>2026-04-04T14:52:30Z</time></trkpt><trkpt lat="41.55484925459756" lon="13.266573577342518"><ele>237.0</ele><time>2026-04-04T14:52:31Z</time></trkpt><trkpt lat="41.55509994130487" lon="13.266538029642993"><ele>237.0</ele><time>2026-04-04T14:52:32Z</time></trkpt><trkpt lat="41.55536111677114" lon="13.266496851614974"><ele>237.0</ele><time>2026-04-04T14:52:33Z</time></trkpt><trkpt lat="41.55563308115133" lon="13.26646171367059"><ele>249.0</ele><time>2026-04-04T14:52:34Z</time></trkpt><trkpt lat="41.55591060383513" lon="13.266439588312165"><ele>261.0</ele><time>2026-04-04T14:52:35Z</time></trkpt><trkpt lat="41.556188158427396" lon="13.26641209273129"><ele>258.5</ele><time>2026-04-04T14:52:36Z</time></trkpt><trkpt lat="41.55644637479718" lon="13.266382486352496"><ele>256.0</ele><time>2026-04-04T14:52:37Z</time></trkpt><trkpt lat="41.55668871572651" lon="13.266348020647026"><ele>256.0</ele><time>2026-04-04T14:52:38Z</time></trkpt><trkpt lat="41.556929353580436" lon="13.266320306737585"><ele>256.0</ele><time>2026-04-04T14:52:39Z</time></trkpt><trkpt lat="41.55716376663072" lon="13.26629945729127"><ele>253.0</ele><time>2026-04-04T14:52:40Z</time></trkpt><trkpt lat="41.557383533902275" lon="13.266279697871967"><ele>250.0</ele><time>2026-04-04T14:52:41Z</time></trkpt><trkpt lat="41.55759280599048" lon="13.266262024191686"><ele>247.0</ele><time>2026-04-04T14:52:42Z</time></trkpt><trkpt lat="41.55779918127185" lon="13.266251409700274"><ele>242.33333333333331</ele><time>2026-04-04T14:52:43Z</time></trkpt><trkpt lat="41.55799303871278" lon="13.266256221158852"><ele>237.66666666666669</ele><time>2026-04-04T14:52:44Z</time></trkpt><trkpt lat="41.55817588130767" lon="13.266272126379622"><ele>233.0</ele><time>2026-04-04T14:52:45Z</time></trkpt><trkpt lat="41.558351565823166" lon="13.266297128840574"><ele>233.0</ele><time>2026-04-04T14:52:46Z</time></trkpt><trkpt lat="41.55852686338783" lon="13.266332018804107"><ele>233.0</ele><time>2026-04-04T14:52:47Z</time></trkpt><trkpt lat="41.55870064249281" lon="13.266372238464024"><ele>233.0</ele><time>2026-04-04T14:52:48Z</time></trkpt><trkpt lat="41.55888218754608" lon="13.266412902937109"><ele>230.66666666666669</ele><time>2026-04-04T14:52:49Z</time></trkpt><trkpt lat="41.55908807792487" lon="13.266486942131898"><ele>228.33333333333331</ele><time>2026-04-04T14:52:50Z</time></trkpt><trkpt lat="41.55931364300401" lon="13.266544762578201"><ele>226.0</ele><time>2026-04-04T14:52:51Z</time></trkpt><trkpt lat="41.55955560217578" lon="13.266594587363779"><ele>226.0</ele><time>2026-04-04T14:52:52Z</time></trkpt><trkpt lat="41.55979869813496" lon="13.266662580243072"><ele>226.0</ele><time>2026-04-04T14:52:53Z</time></trkpt><trkpt lat="41.560041903969534" lon="13.266728025117292"><ele>226.0</ele><time>2026-04-04T14:52:54Z</time></trkpt><trkpt lat="41.560286526313085" lon="13.266794108596299"><ele>226.0</ele><time>2026-04-04T14:52:55Z</time></trkpt><trkpt lat="41.56053331875926" lon="13.266857909845957"><ele>225.5</ele><time>2026-04-04T14:52:56Z</time></trkpt><trkpt lat="41.56078334729241" lon="13.266921513942712"><ele>225.0</ele><time>2026-04-04T14:52:57Z</time></trkpt><trkpt lat="41.5610302327597" lon="13.266986072477724"><ele>226.0</ele><time>2026-04-04T14:52:58Z</time></trkpt><trkpt lat="41.561263270866455" lon="13.267046425030049"><ele>227.0</ele><time>2026-04-04T14:52:59Z</time></trkpt><trkpt lat="41.56149958457548" lon="13.267108877358272"><ele>227.0</ele><time>2026-04-04T14:53:00Z</time></trkpt><trkpt lat="41.56173916180805" lon="13.267172822882827"><ele>227.0</ele><time>2026-04-04T14:53:01Z</time></trkpt><trkpt lat="41.56197495487272" lon="13.2672362188607"><ele>217.0</ele><time>2026-04-04T14:53:02Z</time></trkpt><trkpt lat="41.56221248915001" lon="13.267297583690079"><ele>207.0</ele><time>2026-04-04T14:53:03Z</time></trkpt><trkpt lat="41.56245203392264" lon="13.267362776260976"><ele>207.0</ele><time>2026-04-04T14:53:04Z</time></trkpt><trkpt lat="41.56268991542289" lon="13.267427734747395"><ele>207.0</ele><time>2026-04-04T14:53:05Z</time></trkpt><trkpt lat="41.56292750966056" lon="13.267495965118092"><ele>211.5</ele><time>2026-04-04T14:53:06Z</time></trkpt><trkpt lat="41.563170158058774" lon="13.267561954249272"><ele>216.0</ele><time>2026-04-04T14:53:07Z</time></trkpt><trkpt lat="41.56341705836041" lon="13.267627499160195"><ele>216.0</ele><time>2026-04-04T14:53:08Z</time></trkpt><trkpt lat="41.56366740850479" lon="13.267690510295015"><ele>216.0</ele><time>2026-04-04T14:53:09Z</time></trkpt><trkpt lat="41.563920965673425" lon="13.267740705951342"><ele>220.5</ele><time>2026-04-04T14:53:10Z</time></trkpt><trkpt lat="41.5641781749766" lon="13.267788114688727"><ele>225.0</ele><time>2026-04-04T14:53:11Z</time></trkpt><trkpt lat="41.56443959374437" lon="13.267830023267113"><ele>219.0</ele><time>2026-04-04T14:53:12Z</time></trkpt><trkpt lat="41.56469940068123" lon="13.267858352818841"><ele>213.0</ele><time>2026-04-04T14:53:13Z</time></trkpt><trkpt lat="41.56495943808403" lon="13.26787513935516"><ele>213.0</ele><time>2026-04-04T14:53:14Z</time></trkpt><trkpt lat="41.565220341098595" lon="13.267888423768937"><ele>213.0</ele><time>2026-04-04T14:53:15Z</time></trkpt><trkpt lat="41.56548107961042" lon="13.267901874213592"><ele>208.0</ele><time>2026-04-04T14:53:16Z</time></trkpt><trkpt lat="41.56572898231689" lon="13.267921506825065"><ele>203.0</ele><time>2026-04-04T14:53:17Z</time></trkpt><trkpt lat="41.56597811406869" lon="13.267936232895087"><ele>204.0</ele><time>2026-04-04T14:53:18Z</time></trkpt><trkpt lat="41.56622987866616" lon="13.267944352297127"><ele>205.0</ele><time>2026-04-04T14:53:19Z</time></trkpt><trkpt lat="41.56647542616319" lon="13.267953874538343"><ele>205.0</ele><time>2026-04-04T14:53:20Z</time></trkpt><trkpt lat="41.5667182094937" lon="13.267973669273665"><ele>205.0</ele><time>2026-04-04T14:53:21Z</time></trkpt><trkpt lat="41.56696216247568" lon="13.267995346942316"><ele>205.5</ele><time>2026-04-04T14:53:22Z</time></trkpt><trkpt lat="41.567212465608385" lon="13.268007736476266"><ele>206.0</ele><time>2026-04-04T14:53:23Z</time></trkpt><trkpt lat="41.56746267002412" lon="13.268016542960043"><ele>206.0</ele><time>2026-04-04T14:53:24Z</time></trkpt><trkpt lat="41.56771482062345" lon="13.268028330997845"><ele>206.0</ele><time>2026-04-04T14:53:25Z</time></trkpt><trkpt lat="41.567970133104296" lon="13.268040700618405"><ele>207.0</ele><time>2026-04-04T14:53:26Z</time></trkpt><trkpt lat="41.56822450255414" lon="13.268053348562068"><ele>208.0</ele><time>2026-04-04T14:53:27Z</time></trkpt><trkpt lat="41.5684803567473" lon="13.268065384976671"><ele>204.5</ele><time>2026-04-04T14:53:28Z</time></trkpt><trkpt lat="41.568732972931365" lon="13.268073510365122"><ele>201.0</ele><time>2026-04-04T14:53:29Z</time></trkpt><trkpt lat="41.56898375020189" lon="13.268086457489117"><ele>201.0</ele><time>2026-04-04T14:53:29.999Z</time></trkpt><trkpt lat="41.56923206799581" lon="13.268099578405375"><ele>201.0</ele><time>2026-04-04T14:53:30.999Z</time></trkpt><trkpt lat="41.569479104394816" lon="13.268125972524311"><ele>197.0</ele><time>2026-04-04T14:53:31.999Z</time></trkpt><trkpt lat="41.56972339215993" lon="13.268160520863301"><ele>193.0</ele><time>2026-04-04T14:53:32.999Z</time></trkpt><trkpt lat="41.56996651638055" lon="13.268201038572835"><ele>193.0</ele><time>2026-04-04T14:53:33.999Z</time></trkpt><trkpt lat="41.57021054573995" lon="13.268249982002901"><ele>193.0</ele><time>2026-04-04T14:53:34.999Z</time></trkpt><trkpt lat="41.57044231213253" lon="13.268306153598767"><ele>193.33333333333331</ele><time>2026-04-04T14:53:35.999Z</time></trkpt><trkpt lat="41.570660124228674" lon="13.268364720177606"><ele>193.66666666666669</ele><time>2026-04-04T14:53:36.999Z</time></trkpt><trkpt lat="41.5708711350462" lon="13.26842978271501"><ele>194.0</ele><time>2026-04-04T14:53:37.999Z</time></trkpt><trkpt lat="41.571081850361395" lon="13.268501070556491"><ele>195.66666666666669</ele><time>2026-04-04T14:53:38.999Z</time></trkpt><trkpt lat="41.5712912183388" lon="13.268571593990806"><ele>197.33333333333331</ele><time>2026-04-04T14:53:39.999Z</time></trkpt><trkpt lat="41.571501776643586" lon="13.268646929027138"><ele>199.0</ele><time>2026-04-04T14:53:40.999Z</time></trkpt><trkpt lat="41.57171517421955" lon="13.268731084849186"><ele>199.0</ele><time>2026-04-04T14:53:41.999Z</time></trkpt><trkpt lat="41.57193994714857" lon="13.268814937469788"><ele>199.0</ele><time>2026-04-04T14:53:42.999Z</time></trkpt><trkpt lat="41.57216766007838" lon="13.26889936863284"><ele>199.5</ele><time>2026-04-04T14:53:43.999Z</time></trkpt><trkpt lat="41.57239511513607" lon="13.26898701181875"><ele>200.0</ele><time>2026-04-04T14:53:44.999Z</time></trkpt><trkpt lat="41.57262127183492" lon="13.269069508224327"><ele>200.0</ele><time>2026-04-04T14:53:45.999Z</time></trkpt><trkpt lat="41.572841931074606" lon="13.26915148004244"><ele>200.0</ele><time>2026-04-04T14:53:46.999Z</time></trkpt><trkpt lat="41.573061267022716" lon="13.269237599166283"><ele>198.0</ele><time>2026-04-04T14:53:47.999Z</time></trkpt><trkpt lat="41.57328119465839" lon="13.269312119970872"><ele>196.0</ele><time>2026-04-04T14:53:48.999Z</time></trkpt><trkpt lat="41.573501583040944" lon="13.269384084659618"><ele>193.5</ele><time>2026-04-04T14:53:49.999Z</time></trkpt><trkpt lat="41.573725287414" lon="13.269458833607938"><ele>191.0</ele><time>2026-04-04T14:53:50.999Z</time></trkpt><trkpt lat="41.57394952180804" lon="13.269535692805675"><ele>191.0</ele><time>2026-04-04T14:53:51.999Z</time></trkpt><trkpt lat="41.57417542333913" lon="13.269616002841978"><ele>191.0</ele><time>2026-04-04T14:53:52.999Z</time></trkpt><trkpt lat="41.574401966746535" lon="13.269700955507401"><ele>184.0</ele><time>2026-04-04T14:53:53.999Z</time></trkpt><trkpt lat="41.57463037495901" lon="13.269786660243028"><ele>177.0</ele><time>2026-04-04T14:53:54.999Z</time></trkpt><trkpt lat="41.57485836133012" lon="13.269874895939575"><ele>177.0</ele><time>2026-04-04T14:53:55.999Z</time></trkpt><trkpt lat="41.57508537989807" lon="13.269962264510541"><ele>177.0</ele><time>2026-04-04T14:53:56.999Z</time></trkpt><trkpt lat="41.57531176473562" lon="13.270045507115963"><ele>177.0</ele><time>2026-04-04T14:53:57.999Z</time></trkpt><trkpt lat="41.57553774261029" lon="13.270132227361476"><ele>177.0</ele><time>2026-04-04T14:53:58.999Z</time></trkpt><trkpt lat="41.57576580792055" lon="13.2702174250036"><ele>177.0</ele><time>2026-04-04T14:53:59.999Z</time></trkpt><trkpt lat="41.57599415404751" lon="13.270302718353054"><ele>177.0</ele><time>2026-04-04T14:54:00.999Z</time></trkpt><trkpt lat="41.57621591018767" lon="13.270389122097203"><ele>173.0</ele><time>2026-04-04T14:54:01.999Z</time></trkpt><trkpt lat="41.576438838509866" lon="13.270483252270923"><ele>169.0</ele><time>2026-04-04T14:54:02.999Z</time></trkpt><trkpt lat="41.57666341895208" lon="13.27059845708505"><ele>167.5</ele><time>2026-04-04T14:54:03.999Z</time></trkpt><trkpt lat="41.57689297856701" lon="13.270728701674685"><ele>166.0</ele><time>2026-04-04T14:54:04.999Z</time></trkpt><trkpt lat="41.57712409724239" lon="13.270884795016746"><ele>164.0</ele><time>2026-04-04T14:54:05.999Z</time></trkpt><trkpt lat="41.577357885644915" lon="13.27105600287031"><ele>162.0</ele><time>2026-04-04T14:54:06.999Z</time></trkpt><trkpt lat="41.577578860575976" lon="13.271243831937072"><ele>162.0</ele><time>2026-04-04T14:54:07.999Z</time></trkpt><trkpt lat="41.57779836302408" lon="13.271437456911979"><ele>162.0</ele><time>2026-04-04T14:54:08.999Z</time></trkpt><trkpt lat="41.57800498746177" lon="13.271661085127032"><ele>159.5</ele><time>2026-04-04T14:54:09.999Z</time></trkpt><trkpt lat="41.578204993493635" lon="13.271895303941923"><ele>157.0</ele><time>2026-04-04T14:54:10.999Z</time></trkpt><trkpt lat="41.57839758491169" lon="13.272141956346525"><ele>155.5</ele><time>2026-04-04T14:54:12Z</time></trkpt><trkpt lat="41.57858077602654" lon="13.272401850344647"><ele>154.0</ele><time>2026-04-04T14:54:13Z</time></trkpt><trkpt lat="41.578757646680806" lon="13.272663503982265"><ele>152.5</ele><time>2026-04-04T14:54:14Z</time></trkpt><trkpt lat="41.57892885176999" lon="13.272928374954965"><ele>151.0</ele><time>2026-04-04T14:54:15Z</time></trkpt><trkpt lat="41.57908869330412" lon="13.27320081014271"><ele>151.0</ele><time>2026-04-04T14:54:16Z</time></trkpt><trkpt lat="41.579247951087886" lon="13.273468622113679"><ele>151.0</ele><time>2026-04-04T14:54:17Z</time></trkpt><trkpt lat="41.57941111363645" lon="13.273737856991087"><ele>149.5</ele><time>2026-04-04T14:54:18Z</time></trkpt><trkpt lat="41.57957258209826" lon="13.274000673112294"><ele>148.0</ele><time>2026-04-04T14:54:19Z</time></trkpt><trkpt lat="41.5797334433817" lon="13.27426177408244"><ele>148.0</ele><time>2026-04-04T14:54:20Z</time></trkpt><trkpt lat="41.57989145030865" lon="13.274523701472283"><ele>148.0</ele><time>2026-04-04T14:54:21Z</time></trkpt><trkpt lat="41.58004783991617" lon="13.274786982199794"><ele>147.5</ele><time>2026-04-04T14:54:22Z</time></trkpt><trkpt lat="41.58020544387514" lon="13.275049689525945"><ele>147.0</ele><time>2026-04-04T14:54:23Z</time></trkpt><trkpt lat="41.58036178542143" lon="13.275312912972392"><ele>147.0</ele><time>2026-04-04T14:54:24Z</time></trkpt><trkpt lat="41.58051537048547" lon="13.275579454731844"><ele>147.0</ele><time>2026-04-04T14:54:25Z</time></trkpt><trkpt lat="41.580669665585276" lon="13.27584348797455"><ele>147.0</ele><time>2026-04-04T14:54:26Z</time></trkpt><trkpt lat="41.58082382463254" lon="13.276101353699445"><ele>147.0</ele><time>2026-04-04T14:54:27Z</time></trkpt><trkpt lat="41.580978610150495" lon="13.27635347264186"><ele>146.0</ele><time>2026-04-04T14:54:28Z</time></trkpt><trkpt lat="41.58113154125768" lon="13.276607667011785"><ele>145.0</ele><time>2026-04-04T14:54:29Z</time></trkpt><trkpt lat="41.58128904057702" lon="13.276858520375406"><ele>146.5</ele><time>2026-04-04T14:54:30Z</time></trkpt><trkpt lat="41.5814509054792" lon="13.277107353133148"><ele>148.0</ele><time>2026-04-04T14:54:31Z</time></trkpt><trkpt lat="41.58161842970247" lon="13.277352169492875"><ele>148.0</ele><time>2026-04-04T14:54:32Z</time></trkpt><trkpt lat="41.581793998728315" lon="13.277589905822241"><ele>148.0</ele><time>2026-04-04T14:54:33Z</time></trkpt><trkpt lat="41.58197869118717" lon="13.277817737155898"><ele>149.0</ele><time>2026-04-04T14:54:34Z</time></trkpt><trkpt lat="41.58215435844473" lon="13.278056839409427"><ele>150.0</ele><time>2026-04-04T14:54:35Z</time></trkpt><trkpt lat="41.58235561327353" lon="13.278259824731508"><ele>150.0</ele><time>2026-04-04T14:54:36Z</time></trkpt><trkpt lat="41.58253603124037" lon="13.278499960655473"><ele>150.0</ele><time>2026-04-04T14:54:37Z</time></trkpt><trkpt lat="41.58272688726971" lon="13.278724546624694"><ele>149.0</ele><time>2026-04-04T14:54:38Z</time></trkpt><trkpt lat="41.582918457821606" lon="13.278949522469397"><ele>148.0</ele><time>2026-04-04T14:54:39Z</time></trkpt><trkpt lat="41.5831123448458" lon="13.279177218724286"><ele>148.0</ele><time>2026-04-04T14:54:40Z</time></trkpt><trkpt lat="41.58330512361848" lon="13.27940120121973"><ele>148.0</ele><time>2026-04-04T14:54:41Z</time></trkpt><trkpt lat="41.58349590056023" lon="13.279622614793785"><ele>146.5</ele><time>2026-04-04T14:54:42Z</time></trkpt><trkpt lat="41.58368508317453" lon="13.279845274165027"><ele>145.0</ele><time>2026-04-04T14:54:43Z</time></trkpt><trkpt lat="41.583873706840606" lon="13.280070324054366"><ele>145.0</ele><time>2026-04-04T14:54:44Z</time></trkpt><trkpt lat="41.58405644365037" lon="13.280295960569475"><ele>145.0</ele><time>2026-04-04T14:54:45Z</time></trkpt><trkpt lat="41.584234622512874" lon="13.28052395568069"><ele>143.5</ele><time>2026-04-04T14:54:46Z</time></trkpt><trkpt lat="41.584406896288435" lon="13.280754298867187"><ele>142.0</ele><time>2026-04-04T14:54:47Z</time></trkpt><trkpt lat="41.58457761414435" lon="13.280985081073673"><ele>141.5</ele><time>2026-04-04T14:54:48Z</time></trkpt><trkpt lat="41.584745056361044" lon="13.281216255354854"><ele>141.0</ele><time>2026-04-04T14:54:49Z</time></trkpt><trkpt lat="41.584908437914166" lon="13.281449655668878"><ele>141.0</ele><time>2026-04-04T14:54:50Z</time></trkpt><trkpt lat="41.585070564645115" lon="13.281682805467073"><ele>141.0</ele><time>2026-04-04T14:54:51Z</time></trkpt><trkpt lat="41.58523233903294" lon="13.28191618431343"><ele>141.0</ele><time>2026-04-04T14:54:52Z</time></trkpt><trkpt lat="41.585392800896244" lon="13.282147669689165"><ele>141.0</ele><time>2026-04-04T14:54:53Z</time></trkpt><trkpt lat="41.58555337126636" lon="13.282377319817273"><ele>140.0</ele><time>2026-04-04T14:54:54Z</time></trkpt><trkpt lat="41.585712243041236" lon="13.28260431048041"><ele>139.0</ele><time>2026-04-04T14:54:55Z</time></trkpt><trkpt lat="41.58587687190499" lon="13.28280378725495"><ele>139.0</ele><time>2026-04-04T14:54:56Z</time></trkpt><trkpt lat="41.58601739275844" lon="13.283008767194206"><ele>139.0</ele><time>2026-04-04T14:54:57Z</time></trkpt><trkpt lat="41.58615426667769" lon="13.283205923101432"><ele>139.0</ele><time>2026-04-04T14:54:58Z</time></trkpt><trkpt lat="41.58629327587084" lon="13.283401938007538"><ele>139.33333333333334</ele><time>2026-04-04T14:54:59Z</time></trkpt><trkpt lat="41.58642955989056" lon="13.283594981727697"><ele>139.66666666666666</ele><time>2026-04-04T14:55:00Z</time></trkpt><trkpt lat="41.58656175429675" lon="13.283770730514593"><ele>140.0</ele><time>2026-04-04T14:55:01Z</time></trkpt><trkpt lat="41.586689237273795" lon="13.283930580453873"><ele>140.0</ele><time>2026-04-04T14:55:02Z</time></trkpt><trkpt lat="41.58681081359234" lon="13.28407714686217"><ele>140.0</ele><time>2026-04-04T14:55:03Z</time></trkpt><trkpt lat="41.58693171974531" lon="13.284216570668143"><ele>140.0</ele><time>2026-04-04T14:55:04Z</time></trkpt><trkpt lat="41.58704860993128" lon="13.284377564632402"><ele>140.0</ele><time>2026-04-04T14:55:05Z</time></trkpt><trkpt lat="41.58717056438871" lon="13.284515393019719"><ele>140.0</ele><time>2026-04-04T14:55:06Z</time></trkpt><trkpt lat="41.58728269604354" lon="13.284641817785891"><ele>140.0</ele><time>2026-04-04T14:55:07Z</time></trkpt><trkpt lat="41.58739171657265" lon="13.284765884721939"><ele>139.5</ele><time>2026-04-04T14:55:08Z</time></trkpt><trkpt lat="41.587499550170605" lon="13.28488908335282"><ele>139.0</ele><time>2026-04-04T14:55:09Z</time></trkpt><trkpt lat="41.587606204459796" lon="13.285010983622865"><ele>138.5</ele><time>2026-04-04T14:55:10Z</time></trkpt><trkpt lat="41.58771629004307" lon="13.285136868996121"><ele>138.0</ele><time>2026-04-04T14:55:11Z</time></trkpt><trkpt lat="41.58782935106393" lon="13.285265324418122"><ele>138.0</ele><time>2026-04-04T14:55:12Z</time></trkpt><trkpt lat="41.587947556129016" lon="13.285398733095054"><ele>138.0</ele><time>2026-04-04T14:55:13Z</time></trkpt><trkpt lat="41.5880720380667" lon="13.285539225957015"><ele>138.0</ele><time>2026-04-04T14:55:14Z</time></trkpt><trkpt lat="41.588199589314456" lon="13.285683235665424"><ele>138.0</ele><time>2026-04-04T14:55:15Z</time></trkpt><trkpt lat="41.588338966528966" lon="13.285812203277283"><ele>138.0</ele><time>2026-04-04T14:55:16Z</time></trkpt><trkpt lat="41.58846492050985" lon="13.285960783497574"><ele>138.0</ele><time>2026-04-04T14:55:17Z</time></trkpt><trkpt lat="41.588591022982364" lon="13.286102772423089"><ele>138.0</ele><time>2026-04-04T14:55:18Z</time></trkpt><trkpt lat="41.58871797901713" lon="13.28624860752539"><ele>138.0</ele><time>2026-04-04T14:55:19Z</time></trkpt><trkpt lat="41.588845011879286" lon="13.286398113360153"><ele>138.0</ele><time>2026-04-04T14:55:20Z</time></trkpt><trkpt lat="41.58897052711674" lon="13.286548645308672"><ele>137.66666666666666</ele><time>2026-04-04T14:55:21Z</time></trkpt><trkpt lat="41.58909663107667" lon="13.286696710562095"><ele>137.33333333333331</ele><time>2026-04-04T14:55:22Z</time></trkpt><trkpt lat="41.589228203961476" lon="13.28684524876899"><ele>137.0</ele><time>2026-04-04T14:55:23Z</time></trkpt><trkpt lat="41.58935636405023" lon="13.286993114763353"><ele>137.0</ele><time>2026-04-04T14:55:24Z</time></trkpt><trkpt lat="41.58948555244611" lon="13.287147509641718"><ele>137.0</ele><time>2026-04-04T14:55:25Z</time></trkpt><trkpt lat="41.58962139394017" lon="13.287302553072376"><ele>137.0</ele><time>2026-04-04T14:55:26Z</time></trkpt><trkpt lat="41.58976341728699" lon="13.287455044025691"><ele>137.33333333333331</ele><time>2026-04-04T14:55:27Z</time></trkpt><trkpt lat="41.58990701802405" lon="13.287605042065882"><ele>137.66666666666666</ele><time>2026-04-04T14:55:28Z</time></trkpt><trkpt lat="41.59005060715744" lon="13.287759844509136"><ele>138.0</ele><time>2026-04-04T14:55:29Z</time></trkpt><trkpt lat="41.5901955038712" lon="13.287921651421012"><ele>138.0</ele><time>2026-04-04T14:55:30Z</time></trkpt><trkpt lat="41.59034018156246" lon="13.288086699407964"><ele>138.0</ele><time>2026-04-04T14:55:31Z</time></trkpt><trkpt lat="41.59048857015025" lon="13.288254604362029"><ele>138.0</ele><time>2026-04-04T14:55:32Z</time></trkpt><trkpt lat="41.59063932131834" lon="13.288421321721392"><ele>138.33333333333334</ele><time>2026-04-04T14:55:33Z</time></trkpt><trkpt lat="41.590787005573425" lon="13.288584913704776"><ele>138.66666666666669</ele><time>2026-04-04T14:55:33.999Z</time></trkpt><trkpt lat="41.590936561316305" lon="13.288751944654775"><ele>139.0</ele><time>2026-04-04T14:55:34.999Z</time></trkpt><trkpt lat="41.59108742031742" lon="13.288921666187187"><ele>140.0</ele><time>2026-04-04T14:55:35.999Z</time></trkpt><trkpt lat="41.59123731969218" lon="13.289099093911407"><ele>141.0</ele><time>2026-04-04T14:55:36.999Z</time></trkpt><trkpt lat="41.591386709235984" lon="13.28927548029295"><ele>142.0</ele><time>2026-04-04T14:55:37.999Z</time></trkpt><trkpt lat="41.591536999112535" lon="13.28944937147219"><ele>142.0</ele><time>2026-04-04T14:55:38.999Z</time></trkpt><trkpt lat="41.591689112939754" lon="13.289618145744463"><ele>142.0</ele><time>2026-04-04T14:55:39.999Z</time></trkpt><trkpt lat="41.59183473999768" lon="13.289782522352347"><ele>142.0</ele><time>2026-04-04T14:55:40.999Z</time></trkpt><trkpt lat="41.5919716371103" lon="13.289937441167519"><ele>141.0</ele><time>2026-04-04T14:55:41.999Z</time></trkpt><trkpt lat="41.592107937793585" lon="13.290079920067194"><ele>140.0</ele><time>2026-04-04T14:55:42.999Z</time></trkpt><trkpt lat="41.5922434209926" lon="13.290237110929358"><ele>139.0</ele><time>2026-04-04T14:55:43.999Z</time></trkpt><trkpt lat="41.59237984985994" lon="13.290389053096337"><ele>139.0</ele><time>2026-04-04T14:55:44.999Z</time></trkpt><trkpt lat="41.59251692653772" lon="13.290536860486586"><ele>139.0</ele><time>2026-04-04T14:55:45.999Z</time></trkpt><trkpt lat="41.59265448610103" lon="13.290663320104132"><ele>139.0</ele><time>2026-04-04T14:55:46.999Z</time></trkpt><trkpt lat="41.59279004479211" lon="13.290767688889288"><ele>139.33333333333334</ele><time>2026-04-04T14:55:47.999Z</time></trkpt><trkpt lat="41.59293230846735" lon="13.290862204967308"><ele>139.66666666666666</ele><time>2026-04-04T14:55:48.999Z</time></trkpt><trkpt lat="41.593083251471334" lon="13.290945165422452"><ele>140.0</ele><time>2026-04-04T14:55:49.999Z</time></trkpt><trkpt lat="41.59323125734126" lon="13.291012943774419"><ele>140.0</ele><time>2026-04-04T14:55:50.999Z</time></trkpt><trkpt lat="41.59338264496766" lon="13.2910694395087"><ele>140.0</ele><time>2026-04-04T14:55:51.999Z</time></trkpt><trkpt lat="41.59354164834321" lon="13.291120909463883"><ele>140.0</ele><time>2026-04-04T14:55:52.999Z</time></trkpt><trkpt lat="41.59370486288328" lon="13.29117839883513"><ele>139.0</ele><time>2026-04-04T14:55:53.999Z</time></trkpt><trkpt lat="41.593864804091986" lon="13.291239449102601"><ele>138.0</ele><time>2026-04-04T14:55:54.999Z</time></trkpt><trkpt lat="41.59401949802155" lon="13.291294311039794"><ele>137.0</ele><time>2026-04-04T14:55:55.999Z</time></trkpt><trkpt lat="41.594169870954076" lon="13.291348632493104"><ele>137.0</ele><time>2026-04-04T14:55:56.999Z</time></trkpt><trkpt lat="41.59431246433763" lon="13.291401468671035"><ele>137.0</ele><time>2026-04-04T14:55:57.999Z</time></trkpt><trkpt lat="41.59445909956262" lon="13.291459154078536"><ele>137.0</ele><time>2026-04-04T14:55:58.999Z</time></trkpt><trkpt lat="41.594608704580544" lon="13.29151753494306"><ele>136.0</ele><time>2026-04-04T14:55:59.999Z</time></trkpt><trkpt lat="41.594760368006085" lon="13.291574403081441"><ele>135.0</ele><time>2026-04-04T14:56:00.999Z</time></trkpt><trkpt lat="41.59491736062392" lon="13.29163479055856"><ele>134.0</ele><time>2026-04-04T14:56:01.999Z</time></trkpt><trkpt lat="41.595082601723824" lon="13.29169025844731"><ele>134.0</ele><time>2026-04-04T14:56:02.999Z</time></trkpt><trkpt lat="41.59524432957405" lon="13.291750618305327"><ele>134.0</ele><time>2026-04-04T14:56:03.999Z</time></trkpt><trkpt lat="41.59540069267103" lon="13.291811686687367"><ele>134.0</ele><time>2026-04-04T14:56:04.999Z</time></trkpt><trkpt lat="41.59555496764487" lon="13.291870697870714"><ele>133.33333333333331</ele><time>2026-04-04T14:56:05.999Z</time></trkpt><trkpt lat="41.59570933249785" lon="13.291928988713993"><ele>132.66666666666666</ele><time>2026-04-04T14:56:06.999Z</time></trkpt><trkpt lat="41.5958669369852" lon="13.291988766556074"><ele>132.0</ele><time>2026-04-04T14:56:07.999Z</time></trkpt><trkpt lat="41.5960291024893" lon="13.292050424524557"><ele>132.66666666666666</ele><time>2026-04-04T14:56:08.999Z</time></trkpt><trkpt lat="41.5961938754788" lon="13.292114049171472"><ele>133.33333333333331</ele><time>2026-04-04T14:56:09.999Z</time></trkpt><trkpt lat="41.59635965396514" lon="13.292175739838115"><ele>134.0</ele><time>2026-04-04T14:56:10.999Z</time></trkpt><trkpt lat="41.596526149070414" lon="13.292238588166407"><ele>133.66666666666666</ele><time>2026-04-04T14:56:11.999Z</time></trkpt><trkpt lat="41.59669157783064" lon="13.29229852782066"><ele>133.33333333333334</ele><time>2026-04-04T14:56:12.999Z</time></trkpt><trkpt lat="41.596845177965065" lon="13.292356167317523"><ele>133.0</ele><time>2026-04-04T14:56:13.999Z</time></trkpt><trkpt lat="41.59700008209229" lon="13.292413817256104"><ele>133.25</ele><time>2026-04-04T14:56:14.999Z</time></trkpt><trkpt lat="41.59714953915143" lon="13.292470289663756"><ele>133.5</ele><time>2026-04-04T14:56:15.999Z</time></trkpt><trkpt lat="41.59728845532013" lon="13.292518433207192"><ele>133.75</ele><time>2026-04-04T14:56:16.999Z</time></trkpt><trkpt lat="41.59741597835966" lon="13.292565186321715"><ele>134.0</ele><time>2026-04-04T14:56:18Z</time></trkpt><trkpt lat="41.59754100390511" lon="13.292612609555531"><ele>134.0</ele><time>2026-04-04T14:56:19Z</time></trkpt><trkpt lat="41.59766633989916" lon="13.292658988148885"><ele>134.0</ele><time>2026-04-04T14:56:20Z</time></trkpt><trkpt lat="41.59779222499785" lon="13.292706275471192"><ele>134.0</ele><time>2026-04-04T14:56:21Z</time></trkpt><trkpt lat="41.597925143205245" lon="13.292754691449064"><ele>134.0</ele><time>2026-04-04T14:56:22Z</time></trkpt><trkpt lat="41.59806215523928" lon="13.292804725744546"><ele>134.5</ele><time>2026-04-04T14:56:23Z</time></trkpt><trkpt lat="41.59820132951173" lon="13.292857601511676"><ele>135.0</ele><time>2026-04-04T14:56:24Z</time></trkpt><trkpt lat="41.59834570780659" lon="13.292909233965254"><ele>135.5</ele><time>2026-04-04T14:56:25Z</time></trkpt><trkpt lat="41.598494196745364" lon="13.29296308912463"><ele>136.0</ele><time>2026-04-04T14:56:26Z</time></trkpt><trkpt lat="41.598648778466774" lon="13.293020069583816"><ele>135.33333333333334</ele><time>2026-04-04T14:56:27Z</time></trkpt><trkpt lat="41.59880778419321" lon="13.2930808864741"><ele>134.66666666666666</ele><time>2026-04-04T14:56:28Z</time></trkpt><trkpt lat="41.59897206593412" lon="13.293141765007304"><ele>134.0</ele><time>2026-04-04T14:56:29Z</time></trkpt><trkpt lat="41.599137373079884" lon="13.293203330103378"><ele>134.0</ele><time>2026-04-04T14:56:30Z</time></trkpt><trkpt lat="41.599302403381344" lon="13.293265869253577"><ele>134.0</ele><time>2026-04-04T14:56:31Z</time></trkpt><trkpt lat="41.59945646529222" lon="13.293328876893842"><ele>134.0</ele><time>2026-04-04T14:56:32Z</time></trkpt><trkpt lat="41.59960236826749" lon="13.293400424549853"><ele>134.33333333333331</ele><time>2026-04-04T14:56:33Z</time></trkpt><trkpt lat="41.59974773269471" lon="13.2934826496634"><ele>134.66666666666666</ele><time>2026-04-04T14:56:34Z</time></trkpt><trkpt lat="41.59988728246241" lon="13.29357988495211"><ele>135.0</ele><time>2026-04-04T14:56:35Z</time></trkpt><trkpt lat="41.60002070895136" lon="13.29368617395448"><ele>135.0</ele><time>2026-04-04T14:56:36Z</time></trkpt><trkpt lat="41.6001476642327" lon="13.293805902849186"><ele>135.0</ele><time>2026-04-04T14:56:37Z</time></trkpt><trkpt lat="41.600265235708456" lon="13.293933002189704"><ele>135.0</ele><time>2026-04-04T14:56:38Z</time></trkpt><trkpt lat="41.60037927471983" lon="13.294069842552133"><ele>134.33333333333334</ele><time>2026-04-04T14:56:39Z</time></trkpt><trkpt lat="41.60048926309034" lon="13.294218405208367"><ele>133.66666666666669</ele><time>2026-04-04T14:56:40Z</time></trkpt><trkpt lat="41.60059093938766" lon="13.29438226449103"><ele>133.0</ele><time>2026-04-04T14:56:41Z</time></trkpt><trkpt lat="41.600684501680604" lon="13.294561917747773"><ele>133.0</ele><time>2026-04-04T14:56:42Z</time></trkpt><trkpt lat="41.60076700469083" lon="13.294754977427367"><ele>133.0</ele><time>2026-04-04T14:56:43Z</time></trkpt><trkpt lat="41.600838342382666" lon="13.294955418595485"><ele>133.0</ele><time>2026-04-04T14:56:44Z</time></trkpt><trkpt lat="41.600892879234365" lon="13.295161164104721"><ele>133.0</ele><time>2026-04-04T14:56:45Z</time></trkpt><trkpt lat="41.6009349468298" lon="13.29537061934068"><ele>133.0</ele><time>2026-04-04T14:56:46Z</time></trkpt><trkpt lat="41.60097093436512" lon="13.295577818230093"><ele>133.0</ele><time>2026-04-04T14:56:47Z</time></trkpt><trkpt lat="41.60099299261086" lon="13.29577413679294"><ele>132.75</ele><time>2026-04-04T14:56:48Z</time></trkpt><trkpt lat="41.601006878369866" lon="13.295954084692204"><ele>132.5</ele><time>2026-04-04T14:56:49Z</time></trkpt><trkpt lat="41.60101625326113" lon="13.296125811054662"><ele>132.25</ele><time>2026-04-04T14:56:50Z</time></trkpt><trkpt lat="41.60101785803047" lon="13.29629443654334"><ele>132.0</ele><time>2026-04-04T14:56:51Z</time></trkpt><trkpt lat="41.601016968311576" lon="13.296461674191761"><ele>131.5</ele><time>2026-04-04T14:56:52Z</time></trkpt><trkpt lat="41.6010173188605" lon="13.296631585848536"><ele>131.0</ele><time>2026-04-04T14:56:53Z</time></trkpt><trkpt lat="41.601020520939905" lon="13.296808930205053"><ele>130.5</ele><time>2026-04-04T14:56:54Z</time></trkpt><trkpt lat="41.60102093299088" lon="13.296991373341607"><ele>130.0</ele><time>2026-04-04T14:56:55Z</time></trkpt><trkpt lat="41.60101900398768" lon="13.29717993838511"><ele>130.25</ele><time>2026-04-04T14:56:56Z</time></trkpt><trkpt lat="41.601018108222554" lon="13.297372702657851"><ele>130.5</ele><time>2026-04-04T14:56:57Z</time></trkpt><trkpt lat="41.601021216482174" lon="13.297554358977568"><ele>130.75</ele><time>2026-04-04T14:56:58Z</time></trkpt><trkpt lat="41.60102242071406" lon="13.297738828584556"><ele>131.0</ele><time>2026-04-04T14:56:59Z</time></trkpt><trkpt lat="41.601009514364215" lon="13.297928259902308"><ele>132.0</ele><time>2026-04-04T14:57:00Z</time></trkpt><trkpt lat="41.601021152442016" lon="13.29812620294329"><ele>133.0</ele><time>2026-04-04T14:57:01Z</time></trkpt><trkpt lat="41.60105931214415" lon="13.29832456278182"><ele>134.0</ele><time>2026-04-04T14:57:02Z</time></trkpt><trkpt lat="41.601078064571794" lon="13.298534564339395"><ele>134.0</ele><time>2026-04-04T14:57:03Z</time></trkpt><trkpt lat="41.601134901717785" lon="13.29873903193539"><ele>134.0</ele><time>2026-04-04T14:57:04Z</time></trkpt><trkpt lat="41.601222690932616" lon="13.298934043966076"><ele>134.0</ele><time>2026-04-04T14:57:05Z</time></trkpt><trkpt lat="41.60130836176219" lon="13.299127696196223"><ele>135.0</ele><time>2026-04-04T14:57:06Z</time></trkpt><trkpt lat="41.60139793661775" lon="13.29929560092877"><ele>136.0</ele><time>2026-04-04T14:57:07Z</time></trkpt><trkpt lat="41.60149570290564" lon="13.299449144551268"><ele>137.0</ele><time>2026-04-04T14:57:08Z</time></trkpt><trkpt lat="41.601606249747505" lon="13.299590168663087"><ele>137.0</ele><time>2026-04-04T14:57:09Z</time></trkpt><trkpt lat="41.601724785909624" lon="13.299716913030327"><ele>137.0</ele><time>2026-04-04T14:57:10Z</time></trkpt><trkpt lat="41.601843603807154" lon="13.29982701038871"><ele>137.0</ele><time>2026-04-04T14:57:11Z</time></trkpt><trkpt lat="41.601972889420146" lon="13.299921894253854"><ele>137.0</ele><time>2026-04-04T14:57:12Z</time></trkpt><trkpt lat="41.602112691714574" lon="13.299997728541046"><ele>137.33333333333331</ele><time>2026-04-04T14:57:13Z</time></trkpt><trkpt lat="41.602259875217975" lon="13.300044063627412"><ele>137.66666666666666</ele><time>2026-04-04T14:57:14Z</time></trkpt><trkpt lat="41.602408137657044" lon="13.300074027776049"><ele>138.0</ele><time>2026-04-04T14:57:15Z</time></trkpt><trkpt lat="41.60255866565853" lon="13.30009781714211"><ele>138.0</ele><time>2026-04-04T14:57:16Z</time></trkpt><trkpt lat="41.60271447419355" lon="13.300116032212935"><ele>138.0</ele><time>2026-04-04T14:57:17Z</time></trkpt><trkpt lat="41.602872272324674" lon="13.30013398383581"><ele>138.0</ele><time>2026-04-04T14:57:18Z</time></trkpt><trkpt lat="41.60302100514678" lon="13.300148280583791"><ele>138.5</ele><time>2026-04-04T14:57:19Z</time></trkpt><trkpt lat="41.603156291816646" lon="13.300163494210326"><ele>139.0</ele><time>2026-04-04T14:57:20Z</time></trkpt><trkpt lat="41.6032892357639" lon="13.300176219164612"><ele>139.5</ele><time>2026-04-04T14:57:21Z</time></trkpt><trkpt lat="41.603423748805014" lon="13.300190682100888"><ele>140.0</ele><time>2026-04-04T14:57:22Z</time></trkpt><trkpt lat="41.603561427739045" lon="13.300205979670409"><ele>139.25</ele><time>2026-04-04T14:57:23Z</time></trkpt><trkpt lat="41.603699533521414" lon="13.300221454121475"><ele>138.5</ele><time>2026-04-04T14:57:24Z</time></trkpt><trkpt lat="41.60384050551801" lon="13.300234934057986"><ele>137.75</ele><time>2026-04-04T14:57:25Z</time></trkpt><trkpt lat="41.60398321844061" lon="13.30024921013045"><ele>137.0</ele><time>2026-04-04T14:57:26Z</time></trkpt><trkpt lat="41.604127409758696" lon="13.300264476934935"><ele>137.0</ele><time>2026-04-04T14:57:27Z</time></trkpt><trkpt lat="41.604272807066025" lon="13.30027788939218"><ele>137.0</ele><time>2026-04-04T14:57:28Z</time></trkpt><trkpt lat="41.60442151645807" lon="13.300293839701197"><ele>137.0</ele><time>2026-04-04T14:57:29Z</time></trkpt><trkpt lat="41.6045695770061" lon="13.300309976896001"><ele>137.0</ele><time>2026-04-04T14:57:30Z</time></trkpt><trkpt lat="41.60471514824382" lon="13.300323921612911"><ele>137.0</ele><time>2026-04-04T14:57:30.999Z</time></trkpt><trkpt lat="41.604859228107586" lon="13.300340330110972"><ele>137.0</ele><time>2026-04-04T14:57:31.999Z</time></trkpt><trkpt lat="41.60500294759541" lon="13.300356463309857"><ele>137.0</ele><time>2026-04-04T14:57:32.999Z</time></trkpt><trkpt lat="41.60515023320097" lon="13.300372082251249"><ele>137.0</ele><time>2026-04-04T14:57:33.999Z</time></trkpt><trkpt lat="41.60530033502543" lon="13.300386032188616"><ele>137.5</ele><time>2026-04-04T14:57:34.999Z</time></trkpt><trkpt lat="41.605448139531354" lon="13.300401263305597"><ele>138.0</ele><time>2026-04-04T14:57:35.999Z</time></trkpt><trkpt lat="41.605582671171135" lon="13.30041502001379"><ele>138.5</ele><time>2026-04-04T14:57:36.999Z</time></trkpt><trkpt lat="41.60570848682856" lon="13.300426142106973"><ele>139.0</ele><time>2026-04-04T14:57:37.999Z</time></trkpt><trkpt lat="41.60583731911737" lon="13.300438945239783"><ele>139.0</ele><time>2026-04-04T14:57:38.999Z</time></trkpt><trkpt lat="41.60597365553732" lon="13.300452644725807"><ele>139.0</ele><time>2026-04-04T14:57:39.999Z</time></trkpt><trkpt lat="41.60611422046883" lon="13.300465353280599"><ele>139.0</ele><time>2026-04-04T14:57:40.999Z</time></trkpt><trkpt lat="41.60624894619305" lon="13.300476135103654"><ele>139.0</ele><time>2026-04-04T14:57:41.999Z</time></trkpt><trkpt lat="41.60636032026735" lon="13.300485984067812"><ele>138.83333333333334</ele><time>2026-04-04T14:57:42.999Z</time></trkpt><trkpt lat="41.60645453762212" lon="13.300497528363882"><ele>138.66666666666669</ele><time>2026-04-04T14:57:43.999Z</time></trkpt><trkpt lat="41.60653304117301" lon="13.300507748550945"><ele>138.5</ele><time>2026-04-04T14:57:44.999Z</time></trkpt><trkpt lat="41.60659962567666" lon="13.300516056968192"><ele>138.33333333333334</ele><time>2026-04-04T14:57:45.999Z</time></trkpt><trkpt lat="41.60670652048656" lon="13.300526160488467"><ele>138.16666666666666</ele><time>2026-04-04T14:57:47.999Z</time></trkpt><trkpt lat="41.60678678539888" lon="13.3005371165476"><ele>138.0</ele><time>2026-04-04T14:57:49.999Z</time></trkpt><trkpt lat="41.60688617859484" lon="13.300552532911873"><ele>138.0</ele><time>2026-04-04T14:57:51.999Z</time></trkpt><trkpt lat="41.6069821064004" lon="13.300561310211275"><ele>138.0</ele><time>2026-04-04T14:57:53.999Z</time></trkpt><trkpt lat="41.60706202994831" lon="13.300570412015889"><ele>138.0</ele><time>2026-04-04T14:57:55.999Z</time></trkpt><trkpt lat="41.60713241345751" lon="13.300578655965783"><ele>138.0</ele><time>2026-04-04T14:57:58.999Z</time></trkpt><trkpt lat="41.607215777122875" lon="13.300592257256353"><ele>138.0</ele><time>2026-04-04T14:58:04.999Z</time></trkpt><trkpt lat="41.60731888258336" lon="13.30060637123463"><ele>138.0</ele><time>2026-04-04T14:58:06.999Z</time></trkpt><trkpt lat="41.60742218596098" lon="13.300413836282114"><ele>137.75</ele><time>2026-04-04T14:58:08.999Z</time></trkpt><trkpt lat="41.607472005600236" lon="13.300284639878459"><ele>137.5</ele><time>2026-04-04T14:58:09.999Z</time></trkpt><trkpt lat="41.60753957429361" lon="13.300128747876292"><ele>137.25</ele><time>2026-04-04T14:58:10.999Z</time></trkpt><trkpt lat="41.607616596380495" lon="13.299974602061052"><ele>137.0</ele><time>2026-04-04T14:58:11.999Z</time></trkpt><trkpt lat="41.607705881607345" lon="13.29980093322462"><ele>137.0</ele><time>2026-04-04T14:58:12.999Z</time></trkpt><trkpt lat="41.60781016324258" lon="13.299604354811018"><ele>137.0</ele><time>2026-04-04T14:58:13.999Z</time></trkpt><trkpt lat="41.60793179232978" lon="13.299402267591852"><ele>137.0</ele><time>2026-04-04T14:58:14.999Z</time></trkpt><trkpt lat="41.60806787881675" lon="13.299199304957293"><ele>137.0</ele><time>2026-04-04T14:58:15.999Z</time></trkpt><trkpt lat="41.60822064130498" lon="13.298988269840567"><ele>137.0</ele><time>2026-04-04T14:58:16.999Z</time></trkpt><trkpt lat="41.608384151927325" lon="13.298769215727267"><ele>137.5</ele><time>2026-04-04T14:58:17.999Z</time></trkpt><trkpt lat="41.60853484576701" lon="13.29858331965583"><ele>138.0</ele><time>2026-04-04T14:58:18.999Z</time></trkpt><trkpt lat="41.60873441811645" lon="13.298330742693347"><ele>138.5</ele><time>2026-04-04T14:58:19.999Z</time></trkpt><trkpt lat="41.60891229191277" lon="13.298108206252097"><ele>139.0</ele><time>2026-04-04T14:58:20.999Z</time></trkpt><trkpt lat="41.6090967739755" lon="13.297876996146895"><ele>139.0</ele><time>2026-04-04T14:58:21.999Z</time></trkpt><trkpt lat="41.60928227283239" lon="13.297638915825496"><ele>139.0</ele><time>2026-04-04T14:58:23Z</time></trkpt><trkpt lat="41.609463926797176" lon="13.29740945709499"><ele>138.5</ele><time>2026-04-04T14:58:24Z</time></trkpt><trkpt lat="41.60963930301711" lon="13.297195677865052"><ele>138.0</ele><time>2026-04-04T14:58:25Z</time></trkpt><trkpt lat="41.609803875009916" lon="13.296995570663604"><ele>138.0</ele><time>2026-04-04T14:58:26Z</time></trkpt><trkpt lat="41.60995177523884" lon="13.296806781405714"><ele>138.0</ele><time>2026-04-04T14:58:27Z</time></trkpt><trkpt lat="41.610085264318734" lon="13.296645863394634"><ele>138.0</ele><time>2026-04-04T14:58:28Z</time></trkpt><trkpt lat="41.610200241066586" lon="13.296508901708968"><ele>138.0</ele><time>2026-04-04T14:58:29Z</time></trkpt><trkpt lat="41.61030557950725" lon="13.296385279109188"><ele>138.0</ele><time>2026-04-04T14:58:30Z</time></trkpt><trkpt lat="41.61039268030396" lon="13.29627749696817"><ele>138.0</ele><time>2026-04-04T14:58:31Z</time></trkpt><trkpt lat="41.610465887403755" lon="13.296187734489298"><ele>138.0</ele><time>2026-04-04T14:58:32Z</time></trkpt><trkpt lat="41.610530318159796" lon="13.296112591056577"><ele>138.0</ele><time>2026-04-04T14:58:33Z</time></trkpt><trkpt lat="41.61061961522775" lon="13.296024837147108"><ele>138.16666666666666</ele><time>2026-04-04T14:58:35Z</time></trkpt><trkpt lat="41.610687710328584" lon="13.295942510076268"><ele>138.33333333333334</ele><time>2026-04-04T14:58:37Z</time></trkpt><trkpt lat="41.6107633214474" lon="13.295948449220637"><ele>138.5</ele><time>2026-04-04T14:58:38Z</time></trkpt><trkpt lat="41.61083018654899" lon="13.295943273897965"><ele>138.66666666666669</ele><time>2026-04-04T14:58:39Z</time></trkpt><trkpt lat="41.61089861610212" lon="13.29592641730926"><ele>138.83333333333334</ele><time>2026-04-04T14:58:40Z</time></trkpt><trkpt lat="41.6109620029652" lon="13.295896227562286"><ele>139.0</ele><time>2026-04-04T14:58:41Z</time></trkpt><trkpt lat="41.61099149411543" lon="13.295770154660437"><ele>139.0</ele><time>2026-04-04T14:58:42Z</time></trkpt><trkpt lat="41.611030922101044" lon="13.295676356542435"><ele>139.0</ele><time>2026-04-04T14:58:43Z</time></trkpt><trkpt lat="41.611036756009995" lon="13.29555776149609"><ele>139.0</ele><time>2026-04-04T14:58:44Z</time></trkpt><trkpt lat="41.6110595716431" lon="13.295436652242666"><ele>139.0</ele><time>2026-04-04T14:58:45Z</time></trkpt><trkpt lat="41.61112347025622" lon="13.295314214762401"><ele>139.0</ele><time>2026-04-04T14:58:46Z</time></trkpt><trkpt lat="41.61122265383295" lon="13.295187186686295"><ele>139.0</ele><time>2026-04-04T14:58:47Z</time></trkpt><trkpt lat="41.61133151112604" lon="13.295059192339902"><ele>139.0</ele><time>2026-04-04T14:58:48Z</time></trkpt><trkpt lat="41.61145201708135" lon="13.294905772516042"><ele>139.0</ele><time>2026-04-04T14:58:49Z</time></trkpt><trkpt lat="41.611588140701535" lon="13.294731311991661"><ele>139.0</ele><time>2026-04-04T14:58:50Z</time></trkpt><trkpt lat="41.61172604688416" lon="13.294555421068328"><ele>139.0</ele><time>2026-04-04T14:58:51Z</time></trkpt><trkpt lat="41.61187599219297" lon="13.294366232458621"><ele>139.0</ele><time>2026-04-04T14:58:52Z</time></trkpt><trkpt lat="41.61202821643674" lon="13.294175238123268"><ele>138.66666666666669</ele><time>2026-04-04T14:58:53Z</time></trkpt><trkpt lat="41.61218022436186" lon="13.293982476278133"><ele>138.33333333333334</ele><time>2026-04-04T14:58:54Z</time></trkpt><trkpt lat="41.61233239953503" lon="13.293792210124698"><ele>138.0</ele><time>2026-04-04T14:58:55Z</time></trkpt><trkpt lat="41.612479068078876" lon="13.293609531227156"><ele>138.0</ele><time>2026-04-04T14:58:56Z</time></trkpt><trkpt lat="41.612634206988545" lon="13.293416329432278"><ele>138.0</ele><time>2026-04-04T14:58:57Z</time></trkpt><trkpt lat="41.61279216592376" lon="13.293219610868952"><ele>138.0</ele><time>2026-04-04T14:58:58Z</time></trkpt><trkpt lat="41.612943313425916" lon="13.29299830399265"><ele>138.0</ele><time>2026-04-04T14:58:59Z</time></trkpt><trkpt lat="41.61310240816599" lon="13.292795303987004"><ele>138.0</ele><time>2026-04-04T14:59:00Z</time></trkpt><trkpt lat="41.613258694066346" lon="13.292597989508915"><ele>138.0</ele><time>2026-04-04T14:59:01Z</time></trkpt><trkpt lat="41.61342310061272" lon="13.2923904226491"><ele>138.0</ele><time>2026-04-04T14:59:02Z</time></trkpt><trkpt lat="41.61358933915155" lon="13.29217907140084"><ele>138.0</ele><time>2026-04-04T14:59:03Z</time></trkpt><trkpt lat="41.61375183553999" lon="13.291971565054004"><ele>138.0</ele><time>2026-04-04T14:59:04Z</time></trkpt><trkpt lat="41.61391033201262" lon="13.291769167307914"><ele>138.0</ele><time>2026-04-04T14:59:05Z</time></trkpt><trkpt lat="41.61405959275556" lon="13.291578562855324"><ele>138.0</ele><time>2026-04-04T14:59:06Z</time></trkpt><trkpt lat="41.61420260780731" lon="13.291395933800095"><ele>138.0</ele><time>2026-04-04T14:59:07Z</time></trkpt><trkpt lat="41.61437186313242" lon="13.291239532042681"><ele>138.0</ele><time>2026-04-04T14:59:08Z</time></trkpt><trkpt lat="41.614508595481524" lon="13.291066190331845"><ele>138.0</ele><time>2026-04-04T14:59:09Z</time></trkpt><trkpt lat="41.61464147908835" lon="13.290895587408118"><ele>138.0</ele><time>2026-04-04T14:59:10Z</time></trkpt><trkpt lat="41.61478972244831" lon="13.290704970187031"><ele>138.0</ele><time>2026-04-04T14:59:11Z</time></trkpt><trkpt lat="41.614925942003524" lon="13.29048381126059"><ele>138.0</ele><time>2026-04-04T14:59:12Z</time></trkpt><trkpt lat="41.61508478072101" lon="13.290282510448018"><ele>138.0</ele><time>2026-04-04T14:59:13Z</time></trkpt><trkpt lat="41.61524563011007" lon="13.290078660896205"><ele>138.0</ele><time>2026-04-04T14:59:14Z</time></trkpt><trkpt lat="41.61540491659643" lon="13.28987679238818"><ele>138.0</ele><time>2026-04-04T14:59:15Z</time></trkpt><trkpt lat="41.61557847262287" lon="13.289712021673171"><ele>138.33333333333334</ele><time>2026-04-04T14:59:16Z</time></trkpt><trkpt lat="41.61572095187444" lon="13.28953040764264"><ele>138.66666666666669</ele><time>2026-04-04T14:59:17Z</time></trkpt><trkpt lat="41.61586799826899" lon="13.289340090842613"><ele>139.0</ele><time>2026-04-04T14:59:18Z</time></trkpt><trkpt lat="41.616030682020146" lon="13.289139510535193"><ele>139.66666666666669</ele><time>2026-04-04T14:59:19Z</time></trkpt><trkpt lat="41.616175253861435" lon="13.28890299212791"><ele>140.33333333333334</ele><time>2026-04-04T14:59:20Z</time></trkpt><trkpt lat="41.616331126751625" lon="13.288711193059159"><ele>141.0</ele><time>2026-04-04T14:59:21Z</time></trkpt><trkpt lat="41.616489253725355" lon="13.288563321295584"><ele>141.0</ele><time>2026-04-04T14:59:22Z</time></trkpt><trkpt lat="41.61661857045774" lon="13.288400169612265"><ele>141.0</ele><time>2026-04-04T14:59:23Z</time></trkpt><trkpt lat="41.61674175811586" lon="13.288244637355868"><ele>141.0</ele><time>2026-04-04T14:59:24Z</time></trkpt><trkpt lat="41.61686123560691" lon="13.288094870100378"><ele>140.75</ele><time>2026-04-04T14:59:25Z</time></trkpt><trkpt lat="41.61696966467027" lon="13.287959358435796"><ele>140.5</ele><time>2026-04-04T14:59:26Z</time></trkpt><trkpt lat="41.61707000814136" lon="13.287832002836288"><ele>140.25</ele><time>2026-04-04T14:59:27Z</time></trkpt><trkpt lat="41.617157113629474" lon="13.287719655050273"><ele>140.0</ele><time>2026-04-04T14:59:28Z</time></trkpt><trkpt lat="41.617239308428225" lon="13.28762107613138"><ele>140.0</ele><time>2026-04-04T14:59:29Z</time></trkpt><trkpt lat="41.61730931775909" lon="13.287542152827525"><ele>140.0</ele><time>2026-04-04T14:59:30Z</time></trkpt><trkpt lat="41.61737529089537" lon="13.28747897910921"><ele>140.0</ele><time>2026-04-04T14:59:30.999Z</time></trkpt><trkpt lat="41.61744219512172" lon="13.287428934913516"><ele>140.0</ele><time>2026-04-04T14:59:31.999Z</time></trkpt><trkpt lat="41.61750173240227" lon="13.287357685155964"><ele>140.0</ele><time>2026-04-04T14:59:32.999Z</time></trkpt><trkpt lat="41.61758112952716" lon="13.287331460652366"><ele>140.0</ele><time>2026-04-04T14:59:33.999Z</time></trkpt><trkpt lat="41.6176436628637" lon="13.287254030874013"><ele>140.0</ele><time>2026-04-04T14:59:34.999Z</time></trkpt><trkpt lat="41.61768929555677" lon="13.287141220240441"><ele>140.0</ele><time>2026-04-04T14:59:35.999Z</time></trkpt><trkpt lat="41.61773410577885" lon="13.286998650559898"><ele>140.0</ele><time>2026-04-04T14:59:36.999Z</time></trkpt><trkpt lat="41.61782337430339" lon="13.286846983889843"><ele>140.0</ele><time>2026-04-04T14:59:37.999Z</time></trkpt><trkpt lat="41.61793883078312" lon="13.286697665135907"><ele>140.33333333333331</ele><time>2026-04-04T14:59:38.999Z</time></trkpt><trkpt lat="41.61806796549049" lon="13.28653345211672"><ele>140.66666666666666</ele><time>2026-04-04T14:59:39.999Z</time></trkpt><trkpt lat="41.61822028469227" lon="13.286334975742466"><ele>141.0</ele><time>2026-04-04T14:59:40.999Z</time></trkpt><trkpt lat="41.61840667320198" lon="13.286100943351348"><ele>141.5</ele><time>2026-04-04T14:59:41.999Z</time></trkpt><trkpt lat="41.61860123209882" lon="13.285856339361283"><ele>142.0</ele><time>2026-04-04T14:59:42.999Z</time></trkpt><trkpt lat="41.61881077498379" lon="13.285589392603617"><ele>143.0</ele><time>2026-04-04T14:59:43.999Z</time></trkpt><trkpt lat="41.61901731649208" lon="13.285327984124113"><ele>144.0</ele><time>2026-04-04T14:59:44.999Z</time></trkpt><trkpt lat="41.619195928826336" lon="13.285066448932746"><ele>144.0</ele><time>2026-04-04T14:59:45.999Z</time></trkpt><trkpt lat="41.61937093200657" lon="13.284838877158627"><ele>144.0</ele><time>2026-04-04T14:59:46.999Z</time></trkpt><trkpt lat="41.61953581773005" lon="13.284627527732468"><ele>143.33333333333334</ele><time>2026-04-04T14:59:47.999Z</time></trkpt><trkpt lat="41.619694955398394" lon="13.284423546096393"><ele>142.66666666666669</ele><time>2026-04-04T14:59:48.999Z</time></trkpt><trkpt lat="41.61985531785435" lon="13.284223897489705"><ele>142.0</ele><time>2026-04-04T14:59:49.999Z</time></trkpt><trkpt lat="41.620028232752844" lon="13.284040929397191"><ele>142.0</ele><time>2026-04-04T14:59:50.999Z</time></trkpt><trkpt lat="41.62018987537746" lon="13.283835140839285"><ele>142.0</ele><time>2026-04-04T14:59:51.999Z</time></trkpt><trkpt lat="41.62035601683285" lon="13.283619809233818"><ele>142.0</ele><time>2026-04-04T14:59:52.999Z</time></trkpt><trkpt lat="41.620524052924665" lon="13.283401887061622"><ele>142.0</ele><time>2026-04-04T14:59:53.999Z</time></trkpt><trkpt lat="41.62068370891753" lon="13.283200490559592"><ele>142.0</ele><time>2026-04-04T14:59:54.999Z</time></trkpt><trkpt lat="41.62084024575572" lon="13.283005434592473"><ele>142.0</ele><time>2026-04-04T14:59:55.999Z</time></trkpt><trkpt lat="41.620988609350384" lon="13.282819145657331"><ele>142.0</ele><time>2026-04-04T14:59:56.999Z</time></trkpt><trkpt lat="41.6211259128354" lon="13.282648556136817"><ele>141.75</ele><time>2026-04-04T14:59:57.999Z</time></trkpt><trkpt lat="41.62124512020575" lon="13.28249805294279"><ele>141.5</ele><time>2026-04-04T14:59:58.999Z</time></trkpt><trkpt lat="41.6213567988197" lon="13.282363254195355"><ele>141.25</ele><time>2026-04-04T14:59:59.999Z</time></trkpt><trkpt lat="41.621449915838866" lon="13.282258136246533"><ele>141.0</ele><time>2026-04-04T15:00:00.999Z</time></trkpt><trkpt lat="41.62153587159925" lon="13.282171814284808"><ele>141.75</ele><time>2026-04-04T15:00:01.999Z</time></trkpt><trkpt lat="41.621619947062726" lon="13.282103440613234"><ele>142.5</ele><time>2026-04-04T15:00:02.999Z</time></trkpt><trkpt lat="41.621707217331256" lon="13.282001538219117"><ele>143.25</ele><time>2026-04-04T15:00:03.999Z</time></trkpt><trkpt lat="41.62186085203604" lon="13.281990775721436"><ele>144.0</ele><time>2026-04-04T15:00:04.999Z</time></trkpt><trkpt lat="41.621969849576345" lon="13.281901263892594"><ele>143.5</ele><time>2026-04-04T15:00:05.999Z</time></trkpt><trkpt lat="41.62202621590229" lon="13.281774160342277"><ele>143.0</ele><time>2026-04-04T15:00:06.999Z</time></trkpt><trkpt lat="41.62207498940725" lon="13.281636027018767"><ele>142.5</ele><time>2026-04-04T15:00:07.999Z</time></trkpt><trkpt lat="41.62211730060262" lon="13.281443912155249"><ele>142.0</ele><time>2026-04-04T15:00:08.999Z</time></trkpt><trkpt lat="41.62221044784611" lon="13.281262044169932"><ele>141.66666666666669</ele><time>2026-04-04T15:00:09.999Z</time></trkpt><trkpt lat="41.62232862378087" lon="13.281081158811887"><ele>141.33333333333334</ele><time>2026-04-04T15:00:10.999Z</time></trkpt><trkpt lat="41.62247829537606" lon="13.28089079197383"><ele>141.0</ele><time>2026-04-04T15:00:11.999Z</time></trkpt><trkpt lat="41.62264591468247" lon="13.280677422447583"><ele>141.5</ele><time>2026-04-04T15:00:12.999Z</time></trkpt><trkpt lat="41.62282210144703" lon="13.280453998657979"><ele>142.0</ele><time>2026-04-04T15:00:13.999Z</time></trkpt><trkpt lat="41.62301056695041" lon="13.280214859564868"><ele>142.0</ele><time>2026-04-04T15:00:14.999Z</time></trkpt><trkpt lat="41.62319905919266" lon="13.279972007271114"><ele>142.0</ele><time>2026-04-04T15:00:15.999Z</time></trkpt><trkpt lat="41.62339087591727" lon="13.279724871381868"><ele>141.5</ele><time>2026-04-04T15:00:16.999Z</time></trkpt><trkpt lat="41.62358598733861" lon="13.279473313211742"><ele>141.0</ele><time>2026-04-04T15:00:17.999Z</time></trkpt><trkpt lat="41.623785011237615" lon="13.279220807332203"><ele>140.5</ele><time>2026-04-04T15:00:18.999Z</time></trkpt><trkpt lat="41.62398920380768" lon="13.278964198422296"><ele>140.0</ele><time>2026-04-04T15:00:19.999Z</time></trkpt><trkpt lat="41.62419621741778" lon="13.278704067800176"><ele>141.0</ele><time>2026-04-04T15:00:20.999Z</time></trkpt><trkpt lat="41.624406335588475" lon="13.278440036164259"><ele>142.0</ele><time>2026-04-04T15:00:21.999Z</time></trkpt><trkpt lat="41.62461334947731" lon="13.278179905346619"><ele>142.0</ele><time>2026-04-04T15:00:22.999Z</time></trkpt><trkpt lat="41.624821470661175" lon="13.277918383102984"><ele>142.0</ele><time>2026-04-04T15:00:23.999Z</time></trkpt><trkpt lat="41.62502993055294" lon="13.27765543048565"><ele>142.0</ele><time>2026-04-04T15:00:24.999Z</time></trkpt><trkpt lat="41.62523905226235" lon="13.277389039463706"><ele>142.0</ele><time>2026-04-04T15:00:25.999Z</time></trkpt><trkpt lat="41.62544892681617" lon="13.277122495802677"><ele>142.0</ele><time>2026-04-04T15:00:26.999Z</time></trkpt><trkpt lat="41.625656960861285" lon="13.276856962965585"><ele>142.0</ele><time>2026-04-04T15:00:27.999Z</time></trkpt><trkpt lat="41.625864846270375" lon="13.276591803527426"><ele>142.0</ele><time>2026-04-04T15:00:29Z</time></trkpt><trkpt lat="41.626070413200544" lon="13.276329601302956"><ele>142.0</ele><time>2026-04-04T15:00:30Z</time></trkpt><trkpt lat="41.62627389732085" lon="13.276070055728114"><ele>142.0</ele><time>2026-04-04T15:00:31Z</time></trkpt><trkpt lat="41.626478007703874" lon="13.275809711398818"><ele>142.0</ele><time>2026-04-04T15:00:32Z</time></trkpt><trkpt lat="41.62668020670311" lon="13.275551806453892"><ele>142.0</ele><time>2026-04-04T15:00:33Z</time></trkpt><trkpt lat="41.626880963459726" lon="13.27529502269711"><ele>142.0</ele><time>2026-04-04T15:00:34Z</time></trkpt><trkpt lat="41.62708116199235" lon="13.275039068843816"><ele>142.0</ele><time>2026-04-04T15:00:35Z</time></trkpt><trkpt lat="41.627279480975446" lon="13.274785518009343"><ele>142.0</ele><time>2026-04-04T15:00:36Z</time></trkpt><trkpt lat="41.627476758421686" lon="13.274533733069491"><ele>141.5</ele><time>2026-04-04T15:00:37Z</time></trkpt><trkpt lat="41.62767280502901" lon="13.274285076680709"><ele>141.0</ele><time>2026-04-04T15:00:38Z</time></trkpt><trkpt lat="41.62786420780004" lon="13.274042310291115"><ele>142.0</ele><time>2026-04-04T15:00:39Z</time></trkpt><trkpt lat="41.62804549658718" lon="13.27381237697341"><ele>143.0</ele><time>2026-04-04T15:00:40Z</time></trkpt><trkpt lat="41.62821398948859" lon="13.273598674768369"><ele>143.0</ele><time>2026-04-04T15:00:41Z</time></trkpt><trkpt lat="41.628374005540124" lon="13.27340001371904"><ele>143.0</ele><time>2026-04-04T15:00:42Z</time></trkpt><trkpt lat="41.62852493391584" lon="13.273212489645582"><ele>143.0</ele><time>2026-04-04T15:00:43Z</time></trkpt><trkpt lat="41.62869052656833" lon="13.27307378343627"><ele>142.33333333333331</ele><time>2026-04-04T15:00:44Z</time></trkpt><trkpt lat="41.62881844111945" lon="13.272908192753688"><ele>141.66666666666666</ele><time>2026-04-04T15:00:45Z</time></trkpt><trkpt lat="41.62893537288455" lon="13.272753457034293"><ele>141.0</ele><time>2026-04-04T15:00:46Z</time></trkpt><trkpt lat="41.62904542210277" lon="13.272609169043895"><ele>141.0</ele><time>2026-04-04T15:00:47Z</time></trkpt><trkpt lat="41.629148108507955" lon="13.272476845727923"><ele>141.0</ele><time>2026-04-04T15:00:48Z</time></trkpt><trkpt lat="41.62924296763528" lon="13.27235987716961"><ele>141.0</ele><time>2026-04-04T15:00:49Z</time></trkpt><trkpt lat="41.62933800131933" lon="13.272264223047205"><ele>141.0</ele><time>2026-04-04T15:00:50Z</time></trkpt><trkpt lat="41.62944039125934" lon="13.272193234217566"><ele>141.75</ele><time>2026-04-04T15:00:51Z</time></trkpt><trkpt lat="41.62954810998983" lon="13.272122437969744"><ele>142.5</ele><time>2026-04-04T15:00:52Z</time></trkpt><trkpt lat="41.62962871665599" lon="13.27202028711012"><ele>143.25</ele><time>2026-04-04T15:00:53Z</time></trkpt><trkpt lat="41.629687231884745" lon="13.2718809658163"><ele>144.0</ele><time>2026-04-04T15:00:54Z</time></trkpt><trkpt lat="41.62975615395782" lon="13.27171624462593"><ele>144.0</ele><time>2026-04-04T15:00:55Z</time></trkpt><trkpt lat="41.629871164821665" lon="13.27156244263668"><ele>144.0</ele><time>2026-04-04T15:00:56Z</time></trkpt><trkpt lat="41.63000874790132" lon="13.2713967798369"><ele>144.0</ele><time>2026-04-04T15:00:57Z</time></trkpt><trkpt lat="41.630143328060214" lon="13.271221771215737"><ele>144.0</ele><time>2026-04-04T15:00:58Z</time></trkpt><trkpt lat="41.63029123648729" lon="13.271036714211572"><ele>144.0</ele><time>2026-04-04T15:00:59Z</time></trkpt><trkpt lat="41.630449318419615" lon="13.27083727642208"><ele>144.0</ele><time>2026-04-04T15:01:00Z</time></trkpt><trkpt lat="41.63061727072648" lon="13.270623935188802"><ele>143.0</ele><time>2026-04-04T15:01:01Z</time></trkpt><trkpt lat="41.63079963329311" lon="13.27039052131466"><ele>142.0</ele><time>2026-04-04T15:01:02Z</time></trkpt><trkpt lat="41.6309797523939" lon="13.27015989988727"><ele>142.5</ele><time>2026-04-04T15:01:03Z</time></trkpt><trkpt lat="41.631163513304344" lon="13.26992815848619"><ele>143.0</ele><time>2026-04-04T15:01:04Z</time></trkpt><trkpt lat="41.631349005681244" lon="13.269689762818173"><ele>143.0</ele><time>2026-04-04T15:01:05Z</time></trkpt><trkpt lat="41.63153590670916" lon="13.269449293263381"><ele>143.0</ele><time>2026-04-04T15:01:06Z</time></trkpt><trkpt lat="41.63172371166518" lon="13.269211278878567"><ele>143.0</ele><time>2026-04-04T15:01:07Z</time></trkpt><trkpt lat="41.631912148172106" lon="13.268974607444953"><ele>143.0</ele><time>2026-04-04T15:01:08Z</time></trkpt><trkpt lat="41.63209803258333" lon="13.268737297393574"><ele>143.5</ele><time>2026-04-04T15:01:09Z</time></trkpt><trkpt lat="41.632286524106384" lon="13.268500949452159"><ele>144.0</ele><time>2026-04-04T15:01:10Z</time></trkpt><trkpt lat="41.632472648904134" lon="13.268262343925919"><ele>144.5</ele><time>2026-04-04T15:01:11Z</time></trkpt><trkpt lat="41.632655200769555" lon="13.268022072151716"><ele>145.0</ele><time>2026-04-04T15:01:12Z</time></trkpt><trkpt lat="41.632842603324235" lon="13.267782160265053"><ele>145.5</ele><time>2026-04-04T15:01:13Z</time></trkpt><trkpt lat="41.63303490546557" lon="13.267546114635767"><ele>146.0</ele><time>2026-04-04T15:01:14Z</time></trkpt><trkpt lat="41.63322654405811" lon="13.26730785937763"><ele>145.5</ele><time>2026-04-04T15:01:15Z</time></trkpt><trkpt lat="41.63342028548003" lon="13.267062247653923"><ele>145.0</ele><time>2026-04-04T15:01:16Z</time></trkpt><trkpt lat="41.63361389849439" lon="13.26681606830771"><ele>145.0</ele><time>2026-04-04T15:01:17Z</time></trkpt><trkpt lat="41.633807345643014" lon="13.26657229324291"><ele>145.0</ele><time>2026-04-04T15:01:18Z</time></trkpt><trkpt lat="41.634003273492084" lon="13.266324625805694"><ele>145.0</ele><time>2026-04-04T15:01:19Z</time></trkpt><trkpt lat="41.63419831749923" lon="13.26607701995559"><ele>145.0</ele><time>2026-04-04T15:01:20Z</time></trkpt><trkpt lat="41.63439304965837" lon="13.265826483077275"><ele>144.5</ele><time>2026-04-04T15:01:21Z</time></trkpt><trkpt lat="41.6345878893838" lon="13.26557305717126"><ele>144.0</ele><time>2026-04-04T15:01:22Z</time></trkpt><trkpt lat="41.634784471281" lon="13.265322086112494"><ele>144.0</ele><time>2026-04-04T15:01:23Z</time></trkpt><trkpt lat="41.63498216571266" lon="13.26507339008628"><ele>144.0</ele><time>2026-04-04T15:01:24Z</time></trkpt><trkpt lat="41.63517986651584" lon="13.264820616000922"><ele>143.5</ele><time>2026-04-04T15:01:25Z</time></trkpt><trkpt lat="41.63537416975417" lon="13.264560407706359"><ele>143.0</ele><time>2026-04-04T15:01:26Z</time></trkpt><trkpt lat="41.63557175786674" lon="13.264297796789144"><ele>143.0</ele><time>2026-04-04T15:01:27Z</time></trkpt><trkpt lat="41.635776676008774" lon="13.26403379688856"><ele>143.0</ele><time>2026-04-04T15:01:28Z</time></trkpt><trkpt lat="41.635993370343044" lon="13.263754820826204"><ele>141.5</ele><time>2026-04-04T15:01:29Z</time></trkpt><trkpt lat="41.63621381986645" lon="13.263476197422712"><ele>140.0</ele><time>2026-04-04T15:01:30Z</time></trkpt><trkpt lat="41.63642995144449" lon="13.26320104029516"><ele>141.5</ele><time>2026-04-04T15:01:31Z</time></trkpt><trkpt lat="41.63664948232769" lon="13.2629235727619"><ele>143.0</ele><time>2026-04-04T15:01:32Z</time></trkpt><trkpt lat="41.63687284900987" lon="13.262642377675302"><ele>143.5</ele><time>2026-04-04T15:01:33Z</time></trkpt><trkpt lat="41.637098522285434" lon="13.262356410193778"><ele>144.0</ele><time>2026-04-04T15:01:34Z</time></trkpt><trkpt lat="41.63732554605569" lon="13.262065483739566"><ele>144.0</ele><time>2026-04-04T15:01:35Z</time></trkpt><trkpt lat="41.637558095565176" lon="13.261766332079794"><ele>144.0</ele><time>2026-04-04T15:01:36Z</time></trkpt><trkpt lat="41.63779576615782" lon="13.261463364007932"><ele>144.0</ele><time>2026-04-04T15:01:37Z</time></trkpt><trkpt lat="41.63803492542439" lon="13.26116234481729"><ele>144.0</ele><time>2026-04-04T15:01:37.999Z</time></trkpt><trkpt lat="41.63826882684559" lon="13.260866318444187"><ele>143.5</ele><time>2026-04-04T15:01:38.999Z</time></trkpt><trkpt lat="41.638497337536194" lon="13.260577525335394"><ele>143.0</ele><time>2026-04-04T15:01:39.999Z</time></trkpt><trkpt lat="41.6387198401664" lon="13.26029196277394"><ele>142.5</ele><time>2026-04-04T15:01:40.999Z</time></trkpt><trkpt lat="41.63893722956786" lon="13.260011467430111"><ele>142.0</ele><time>2026-04-04T15:01:41.999Z</time></trkpt><trkpt lat="41.63915451932753" lon="13.25972783688054"><ele>142.0</ele><time>2026-04-04T15:01:42.999Z</time></trkpt><trkpt lat="41.63938620119861" lon="13.259430905488"><ele>142.0</ele><time>2026-04-04T15:01:43.999Z</time></trkpt><trkpt lat="41.63962731650885" lon="13.259125625234217"><ele>142.5</ele><time>2026-04-04T15:01:44.999Z</time></trkpt><trkpt lat="41.63987743019391" lon="13.258814041668085"><ele>143.0</ele><time>2026-04-04T15:01:45.999Z</time></trkpt><trkpt lat="41.64014105589042" lon="13.25848888289466"><ele>143.5</ele><time>2026-04-04T15:01:46.999Z</time></trkpt><trkpt lat="41.64041903997369" lon="13.25815013618175"><ele>144.0</ele><time>2026-04-04T15:01:47.999Z</time></trkpt><trkpt lat="41.64068264153995" lon="13.25777091255541"><ele>144.0</ele><time>2026-04-04T15:01:48.999Z</time></trkpt><trkpt lat="41.64094398743461" lon="13.25744266378928"><ele>144.0</ele><time>2026-04-04T15:01:49.999Z</time></trkpt><trkpt lat="41.641181493527114" lon="13.257142227203413"><ele>144.0</ele><time>2026-04-04T15:01:50.999Z</time></trkpt><trkpt lat="41.641402760868196" lon="13.256860390500638"><ele>144.0</ele><time>2026-04-04T15:01:51.999Z</time></trkpt><trkpt lat="41.641608684693395" lon="13.256598097418857"><ele>143.5</ele><time>2026-04-04T15:01:52.999Z</time></trkpt><trkpt lat="41.6417935031447" lon="13.25636576539114"><ele>143.0</ele><time>2026-04-04T15:01:53.999Z</time></trkpt><trkpt lat="41.64197109866426" lon="13.256149377372855"><ele>144.66666666666666</ele><time>2026-04-04T15:01:54.999Z</time></trkpt><trkpt lat="41.64213479290929" lon="13.255944083774681"><ele>146.33333333333334</ele><time>2026-04-04T15:01:55.999Z</time></trkpt><trkpt lat="41.64228784356142" lon="13.255749180483825"><ele>148.0</ele><time>2026-04-04T15:01:56.999Z</time></trkpt><trkpt lat="41.64243104671947" lon="13.255566731503798"><ele>148.0</ele><time>2026-04-04T15:01:57.999Z</time></trkpt><trkpt lat="41.64256379311991" lon="13.255397605026861"><ele>148.0</ele><time>2026-04-04T15:01:58.999Z</time></trkpt><trkpt lat="41.64268716576816" lon="13.25524042124517"><ele>148.0</ele><time>2026-04-04T15:01:59.999Z</time></trkpt><trkpt lat="41.64280178218769" lon="13.255094868702841"><ele>147.5</ele><time>2026-04-04T15:02:00.999Z</time></trkpt><trkpt lat="41.642911398338065" lon="13.254964068088256"><ele>147.0</ele><time>2026-04-04T15:02:01.999Z</time></trkpt><trkpt lat="41.64302860855772" lon="13.254863294838813"><ele>146.5</ele><time>2026-04-04T15:02:02.999Z</time></trkpt><trkpt lat="41.643139676375746" lon="13.254796176730212"><ele>146.0</ele><time>2026-04-04T15:02:03.999Z</time></trkpt><trkpt lat="41.64324873112219" lon="13.254735139140024"><ele>146.0</ele><time>2026-04-04T15:02:04.999Z</time></trkpt><trkpt lat="41.64339369750559" lon="13.254732579850833"><ele>146.0</ele><time>2026-04-04T15:02:05.999Z</time></trkpt><trkpt lat="41.643531961413025" lon="13.254691884828732"><ele>146.0</ele><time>2026-04-04T15:02:06.999Z</time></trkpt><trkpt lat="41.64366792871594" lon="13.25460800016898"><ele>146.0</ele><time>2026-04-04T15:02:07.999Z</time></trkpt><trkpt lat="41.643790987022406" lon="13.254482404119312"><ele>146.0</ele><time>2026-04-04T15:02:08.999Z</time></trkpt><trkpt lat="41.64387789590459" lon="13.254339955550108"><ele>146.0</ele><time>2026-04-04T15:02:09.999Z</time></trkpt><trkpt lat="41.64393705339452" lon="13.254190052628077"><ele>146.0</ele><time>2026-04-04T15:02:10.999Z</time></trkpt><trkpt lat="41.643974119460246" lon="13.25402882890832"><ele>146.0</ele><time>2026-04-04T15:02:11.999Z</time></trkpt><trkpt lat="41.64398978606963" lon="13.253871197427245"><ele>146.0</ele><time>2026-04-04T15:02:12.999Z</time></trkpt><trkpt lat="41.64404235008439" lon="13.253704056264603"><ele>146.0</ele><time>2026-04-04T15:02:13.999Z</time></trkpt><trkpt lat="41.64410367986283" lon="13.253601518025919"><ele>146.0</ele><time>2026-04-04T15:02:14.999Z</time></trkpt><trkpt lat="41.64415858612844" lon="13.253509719325798"><ele>146.0</ele><time>2026-04-04T15:02:15.999Z</time></trkpt><trkpt lat="41.64434218123285" lon="13.253574967550263"><ele>146.0</ele><time>2026-04-04T15:02:16.999Z</time></trkpt><trkpt lat="41.644453847572244" lon="13.25357728005356"><ele>146.0</ele><time>2026-04-04T15:02:17.999Z</time></trkpt><trkpt lat="41.64457447683783" lon="13.25359601087558"><ele>146.0</ele><time>2026-04-04T15:02:18.999Z</time></trkpt><trkpt lat="41.644696739565475" lon="13.253634012891723"><ele>146.0</ele><time>2026-04-04T15:02:19.999Z</time></trkpt><trkpt lat="41.644828422557964" lon="13.253670759506607"><ele>146.0</ele><time>2026-04-04T15:02:20.999Z</time></trkpt><trkpt lat="41.64496959297353" lon="13.253709058414541"><ele>146.0</ele><time>2026-04-04T15:02:21.999Z</time></trkpt><trkpt lat="41.6451185173606" lon="13.253760612276377"><ele>146.0</ele><time>2026-04-04T15:02:22.999Z</time></trkpt><trkpt lat="41.64528419314427" lon="13.253814664023041"><ele>145.75</ele><time>2026-04-04T15:02:23.999Z</time></trkpt><trkpt lat="41.645432563816115" lon="13.253860990487157"><ele>145.5</ele><time>2026-04-04T15:02:24.999Z</time></trkpt><trkpt lat="41.64557463223543" lon="13.253904798482884"><ele>145.25</ele><time>2026-04-04T15:02:25.999Z</time></trkpt><trkpt lat="41.64570169270668" lon="13.253940157345111"><ele>145.0</ele><time>2026-04-04T15:02:26.999Z</time></trkpt><trkpt lat="41.6458191202907" lon="13.25397054903534"><ele>146.0</ele><time>2026-04-04T15:02:27.999Z</time></trkpt><trkpt lat="41.645931075138286" lon="13.254005577942259"><ele>147.0</ele><time>2026-04-04T15:02:28.999Z</time></trkpt><trkpt lat="41.64605139608801" lon="13.254045999168751"><ele>148.0</ele><time>2026-04-04T15:02:29.999Z</time></trkpt><trkpt lat="41.64618383082535" lon="13.254071278845066"><ele>149.0</ele><time>2026-04-04T15:02:30.999Z</time></trkpt><trkpt lat="41.64632041542205" lon="13.254099292911699"><ele>149.0</ele><time>2026-04-04T15:02:31.999Z</time></trkpt><trkpt lat="41.64646544564748" lon="13.254121620165"><ele>149.0</ele><time>2026-04-04T15:02:32.999Z</time></trkpt><trkpt lat="41.646617164578416" lon="13.254142013075464"><ele>149.0</ele><time>2026-04-04T15:02:33.999Z</time></trkpt><trkpt lat="41.64677882883461" lon="13.254150183071781"><ele>149.0</ele><time>2026-04-04T15:02:35Z</time></trkpt><trkpt lat="41.64694998592367" lon="13.254145309444286"><ele>149.0</ele><time>2026-04-04T15:02:36Z</time></trkpt><trkpt lat="41.64712609719336" lon="13.254130117734205"><ele>149.0</ele><time>2026-04-04T15:02:37Z</time></trkpt><trkpt lat="41.64730464444205" lon="13.254104707644856"><ele>149.33333333333331</ele><time>2026-04-04T15:02:38Z</time></trkpt><trkpt lat="41.647484987215684" lon="13.254068141095576"><ele>149.66666666666666</ele><time>2026-04-04T15:02:39Z</time></trkpt><trkpt lat="41.64766156662577" lon="13.254032822227941"><ele>150.0</ele><time>2026-04-04T15:02:40Z</time></trkpt><trkpt lat="41.64783281442824" lon="13.253997462554342"><ele>150.0</ele><time>2026-04-04T15:02:41Z</time></trkpt><trkpt lat="41.64799339821187" lon="13.253962790854365"><ele>150.0</ele><time>2026-04-04T15:02:42Z</time></trkpt><trkpt lat="41.64813533384197" lon="13.253936540257111"><ele>150.0</ele><time>2026-04-04T15:02:43Z</time></trkpt><trkpt lat="41.648267651333434" lon="13.253918774698457"><ele>150.0</ele><time>2026-04-04T15:02:44Z</time></trkpt><trkpt lat="41.64837389136539" lon="13.253924814252098"><ele>150.0</ele><time>2026-04-04T15:02:45Z</time></trkpt><trkpt lat="41.64846476770366" lon="13.25391316366538"><ele>150.0</ele><time>2026-04-04T15:02:46Z</time></trkpt><trkpt lat="41.64854241878382" lon="13.254008801771208"><ele>150.0</ele><time>2026-04-04T15:02:47Z</time></trkpt><trkpt lat="41.648609475904756" lon="13.25411482267093"><ele>150.0</ele><time>2026-04-04T15:02:48Z</time></trkpt><trkpt lat="41.648668990806826" lon="13.254253245427918"><ele>150.0</ele><time>2026-04-04T15:02:49Z</time></trkpt><trkpt lat="41.648752981551084" lon="13.25438691498864"><ele>150.25</ele><time>2026-04-04T15:02:50Z</time></trkpt><trkpt lat="41.64886360691947" lon="13.25448865257396"><ele>150.5</ele><time>2026-04-04T15:02:51Z</time></trkpt><trkpt lat="41.64898918861549" lon="13.254549073730113"><ele>150.75</ele><time>2026-04-04T15:02:52Z</time></trkpt><trkpt lat="41.64912057454679" lon="13.25457819889865"><ele>151.0</ele><time>2026-04-04T15:02:53Z</time></trkpt><trkpt lat="41.64924661820252" lon="13.254575158423771"><ele>151.0</ele><time>2026-04-04T15:02:54Z</time></trkpt><trkpt lat="41.649324038026016" lon="13.254562898531338"><ele>151.0</ele><time>2026-04-04T15:02:55Z</time></trkpt><trkpt lat="41.649439413077914" lon="13.254765016812103"><ele>151.0</ele><time>2026-04-04T15:02:56Z</time></trkpt><trkpt lat="41.64956091811515" lon="13.254874206237542"><ele>151.0</ele><time>2026-04-04T15:02:57Z</time></trkpt><trkpt lat="41.64971336123928" lon="13.254898298333188"><ele>151.6</ele><time>2026-04-04T15:02:58Z</time></trkpt><trkpt lat="41.649832436395435" lon="13.254927191692694"><ele>152.2</ele><time>2026-04-04T15:02:59Z</time></trkpt><trkpt lat="41.649954865511006" lon="13.254960251822087"><ele>152.8</ele><time>2026-04-04T15:03:00Z</time></trkpt><trkpt lat="41.65003694230305" lon="13.254984345022665"><ele>153.4</ele><time>2026-04-04T15:03:01Z</time></trkpt><trkpt lat="41.650101011015835" lon="13.255076275051966"><ele>154.0</ele><time>2026-04-04T15:03:02Z</time></trkpt><trkpt lat="41.65011263182542" lon="13.2552690453498"><ele>154.0</ele><time>2026-04-04T15:03:04Z</time></trkpt><trkpt lat="41.65012027301755" lon="13.255413400197423"><ele>154.0</ele><time>2026-04-04T15:03:05Z</time></trkpt><trkpt lat="41.6500555718535" lon="13.255541164815135"><ele>154.0</ele><time>2026-04-04T15:03:06Z</time></trkpt><trkpt lat="41.64998029191627" lon="13.255750899200182"><ele>154.0</ele><time>2026-04-04T15:03:07Z</time></trkpt><trkpt lat="41.649914992678276" lon="13.25595350189252"><ele>154.66666666666669</ele><time>2026-04-04T15:03:08Z</time></trkpt><trkpt lat="41.649841003671845" lon="13.256196652313182"><ele>155.33333333333334</ele><time>2026-04-04T15:03:09Z</time></trkpt><trkpt lat="41.6497542455057" lon="13.25641732924445"><ele>156.0</ele><time>2026-04-04T15:03:10Z</time></trkpt><trkpt lat="41.64966710062831" lon="13.256634618485704"><ele>156.0</ele><time>2026-04-04T15:03:11Z</time></trkpt><trkpt lat="41.64956517757703" lon="13.256882113151898"><ele>156.0</ele><time>2026-04-04T15:03:12Z</time></trkpt><trkpt lat="41.64950617642122" lon="13.25712244566001"><ele>156.0</ele><time>2026-04-04T15:03:13Z</time></trkpt><trkpt lat="41.64939614409761" lon="13.257376960574515"><ele>156.0</ele><time>2026-04-04T15:03:14Z</time></trkpt><trkpt lat="41.649285775160706" lon="13.257634556587327"><ele>156.0</ele><time>2026-04-04T15:03:15Z</time></trkpt><trkpt lat="41.64917871150797" lon="13.25788749885553"><ele>156.0</ele><time>2026-04-04T15:03:16Z</time></trkpt><trkpt lat="41.64907307922596" lon="13.258147230067692"><ele>156.0</ele><time>2026-04-04T15:03:17Z</time></trkpt><trkpt lat="41.648963385986185" lon="13.258409143093665"><ele>156.0</ele><time>2026-04-04T15:03:18Z</time></trkpt><trkpt lat="41.648857378169474" lon="13.258667773735903"><ele>156.0</ele><time>2026-04-04T15:03:19Z</time></trkpt><trkpt lat="41.64874750864735" lon="13.258932605124786"><ele>156.0</ele><time>2026-04-04T15:03:20Z</time></trkpt><trkpt lat="41.64864254981178" lon="13.259194860900518"><ele>156.0</ele><time>2026-04-04T15:03:21Z</time></trkpt><trkpt lat="41.64853390392612" lon="13.259459895661426"><ele>156.0</ele><time>2026-04-04T15:03:22Z</time></trkpt><trkpt lat="41.64842509456187" lon="13.259723018348447"><ele>157.0</ele><time>2026-04-04T15:03:23Z</time></trkpt><trkpt lat="41.648317888736244" lon="13.259987286160037"><ele>158.0</ele><time>2026-04-04T15:03:24Z</time></trkpt><trkpt lat="41.648211119396784" lon="13.260245136630575"><ele>159.0</ele><time>2026-04-04T15:03:25Z</time></trkpt><trkpt lat="41.64809206243711" lon="13.260500487060954"><ele>159.0</ele><time>2026-04-04T15:03:26Z</time></trkpt><trkpt lat="41.64799866255632" lon="13.260771850066943"><ele>159.0</ele><time>2026-04-04T15:03:27Z</time></trkpt><trkpt lat="41.647893174928534" lon="13.261026790924936"><ele>159.0</ele><time>2026-04-04T15:03:28Z</time></trkpt><trkpt lat="41.647790873692784" lon="13.261287529144681"><ele>159.33333333333334</ele><time>2026-04-04T15:03:29Z</time></trkpt><trkpt lat="41.647687731086016" lon="13.261537900165168"><ele>159.66666666666669</ele><time>2026-04-04T15:03:30Z</time></trkpt><trkpt lat="41.647582897766114" lon="13.261792295623463"><ele>160.0</ele><time>2026-04-04T15:03:31Z</time></trkpt><trkpt lat="41.64747850783912" lon="13.262044457046224"><ele>160.33333333333334</ele><time>2026-04-04T15:03:32Z</time></trkpt><trkpt lat="41.64737360652769" lon="13.262296712715363"><ele>160.66666666666666</ele><time>2026-04-04T15:03:33Z</time></trkpt><trkpt lat="41.64726996556961" lon="13.262549729144226"><ele>161.0</ele><time>2026-04-04T15:03:34Z</time></trkpt><trkpt lat="41.64716773466474" lon="13.262797455138235"><ele>161.0</ele><time>2026-04-04T15:03:34.999Z</time></trkpt><trkpt lat="41.64706017436902" lon="13.26304549964341"><ele>161.0</ele><time>2026-04-04T15:03:35.999Z</time></trkpt><trkpt lat="41.64694902573406" lon="13.263287447676602"><ele>161.0</ele><time>2026-04-04T15:03:36.999Z</time></trkpt><trkpt lat="41.64683160699789" lon="13.263518538116747"><ele>161.0</ele><time>2026-04-04T15:03:37.999Z</time></trkpt><trkpt lat="41.646708135555514" lon="13.263734486112238"><ele>161.0</ele><time>2026-04-04T15:03:38.999Z</time></trkpt><trkpt lat="41.64658868978325" lon="13.263928094530197"><ele>161.0</ele><time>2026-04-04T15:03:39.999Z</time></trkpt><trkpt lat="41.6464699024212" lon="13.264103244586819"><ele>161.0</ele><time>2026-04-04T15:03:40.999Z</time></trkpt><trkpt lat="41.64635469552468" lon="13.264262014230397"><ele>161.0</ele><time>2026-04-04T15:03:41.999Z</time></trkpt><trkpt lat="41.646242563864334" lon="13.264405782808803"><ele>161.0</ele><time>2026-04-04T15:03:42.999Z</time></trkpt><trkpt lat="41.646135706295674" lon="13.264537654740849"><ele>161.20000000000002</ele><time>2026-04-04T15:03:43.999Z</time></trkpt><trkpt lat="41.64604169347546" lon="13.264655992399666"><ele>161.4</ele><time>2026-04-04T15:03:44.999Z</time></trkpt><trkpt lat="41.64596022272604" lon="13.264761688159895"><ele>161.6</ele><time>2026-04-04T15:03:45.999Z</time></trkpt><trkpt lat="41.645882985393214" lon="13.264831075712621"><ele>161.8</ele><time>2026-04-04T15:03:46.999Z</time></trkpt><trkpt lat="41.645819531060866" lon="13.264910153242173"><ele>162.0</ele><time>2026-04-04T15:03:47.999Z</time></trkpt><trkpt lat="41.645895717481096" lon="13.265101889854582"><ele>162.0</ele><time>2026-04-04T15:03:49.999Z</time></trkpt><trkpt lat="41.64588331127025" lon="13.265255552488997"><ele>162.0</ele><time>2026-04-04T15:03:51.999Z</time></trkpt><trkpt lat="41.64604597269503" lon="13.265248846326891"><ele>162.0</ele><time>2026-04-04T15:03:53.999Z</time></trkpt><trkpt lat="41.64612352559893" lon="13.265261225459984"><ele>162.0</ele><time>2026-04-04T15:03:55.999Z</time></trkpt><trkpt lat="41.6462094098517" lon="13.26521819519451"><ele>162.0</ele><time>2026-04-04T15:03:57.999Z</time></trkpt><trkpt lat="41.64625931979614" lon="13.265122425272274"><ele>162.2</ele><time>2026-04-04T15:03:59.999Z</time></trkpt><trkpt lat="41.646324116635135" lon="13.265017155659635"><ele>162.39999999999998</ele><time>2026-04-04T15:12:22.999Z</time></trkpt><trkpt lat="41.64626736628141" lon="13.264833346358893"><ele>162.60000000000002</ele><time>2026-04-04T15:26:05.999Z</time></trkpt><trkpt lat="41.646246346450845" lon="13.264747782095416"><ele>162.8</ele><time>2026-04-04T15:26:06.999Z</time></trkpt><trkpt lat="41.646232073906035" lon="13.26465134378166"><ele>163.0</ele><time>2026-04-04T15:26:08.999Z</time></trkpt><trkpt lat="41.64627930125687" lon="13.264495398471052"><ele>162.33333333333334</ele><time>2026-04-04T15:26:10.999Z</time></trkpt><trkpt lat="41.64632338719248" lon="13.264432073540682"><ele>161.66666666666666</ele><time>2026-04-04T15:26:11.999Z</time></trkpt><trkpt lat="41.646450209774514" lon="13.264267651536207"><ele>161.0</ele><time>2026-04-04T15:26:12.999Z</time></trkpt><trkpt lat="41.64662019851823" lon="13.264025680764595"><ele>160.0</ele><time>2026-04-04T15:26:13.999Z</time></trkpt><trkpt lat="41.6467715701013" lon="13.263748370159139"><ele>159.0</ele><time>2026-04-04T15:26:14.999Z</time></trkpt><trkpt lat="41.64691295982275" lon="13.263463623262876"><ele>160.0</ele><time>2026-04-04T15:26:15.999Z</time></trkpt><trkpt lat="41.64704747380765" lon="13.263155417133497"><ele>161.0</ele><time>2026-04-04T15:26:16.999Z</time></trkpt><trkpt lat="41.647170904384886" lon="13.262864008151908"><ele>161.0</ele><time>2026-04-04T15:26:17.999Z</time></trkpt><trkpt lat="41.647296850326576" lon="13.26256628144984"><ele>161.0</ele><time>2026-04-04T15:26:18.999Z</time></trkpt><trkpt lat="41.6474097947811" lon="13.262275753462378"><ele>160.66666666666666</ele><time>2026-04-04T15:26:19.999Z</time></trkpt><trkpt lat="41.647500119496" lon="13.262045842416065"><ele>160.33333333333334</ele><time>2026-04-04T15:26:20.999Z</time></trkpt><trkpt lat="41.64759527860161" lon="13.26180239420588"><ele>160.0</ele><time>2026-04-04T15:26:21.999Z</time></trkpt><trkpt lat="41.64767906771034" lon="13.261597965611209"><ele>159.66666666666669</ele><time>2026-04-04T15:26:22.999Z</time></trkpt><trkpt lat="41.647763087780454" lon="13.261397853953165"><ele>159.33333333333334</ele><time>2026-04-04T15:26:23.999Z</time></trkpt><trkpt lat="41.647844573739" lon="13.261189348582258"><ele>159.0</ele><time>2026-04-04T15:26:24.999Z</time></trkpt><trkpt lat="41.64792952834295" lon="13.260963826531937"><ele>159.0</ele><time>2026-04-04T15:26:25.999Z</time></trkpt><trkpt lat="41.648045367942956" lon="13.260736913752861"><ele>159.0</ele><time>2026-04-04T15:26:26.999Z</time></trkpt><trkpt lat="41.648136857452606" lon="13.260502560465117"><ele>159.0</ele><time>2026-04-04T15:26:27.999Z</time></trkpt><trkpt lat="41.648235526870366" lon="13.26025002229291"><ele>159.0</ele><time>2026-04-04T15:26:28.999Z</time></trkpt><trkpt lat="41.64834093428009" lon="13.25998619723025"><ele>159.0</ele><time>2026-04-04T15:26:29.999Z</time></trkpt><trkpt lat="41.64845034074249" lon="13.259719285021292"><ele>157.5</ele><time>2026-04-04T15:26:30.999Z</time></trkpt><trkpt lat="41.64856227089525" lon="13.259440890927127"><ele>156.0</ele><time>2026-04-04T15:26:31.999Z</time></trkpt><trkpt lat="41.64868688125788" lon="13.259136554760198"><ele>156.0</ele><time>2026-04-04T15:26:32.999Z</time></trkpt><trkpt lat="41.648823765432454" lon="13.258812566089697"><ele>156.0</ele><time>2026-04-04T15:26:33.999Z</time></trkpt><trkpt lat="41.648946300985635" lon="13.258515442284777"><ele>156.0</ele><time>2026-04-04T15:26:34.999Z</time></trkpt><trkpt lat="41.649048069789934" lon="13.258252246734456"><ele>156.0</ele><time>2026-04-04T15:26:35.999Z</time></trkpt><trkpt lat="41.649150066170684" lon="13.258008050896546"><ele>156.0</ele><time>2026-04-04T15:26:36.999Z</time></trkpt><trkpt lat="41.6492521243079" lon="13.257755918720745"><ele>156.0</ele><time>2026-04-04T15:26:37.999Z</time></trkpt><trkpt lat="41.64936907651191" lon="13.257497331981625"><ele>156.0</ele><time>2026-04-04T15:26:38.999Z</time></trkpt><trkpt lat="41.649486643143334" lon="13.257210704432179"><ele>156.0</ele><time>2026-04-04T15:26:39.999Z</time></trkpt><trkpt lat="41.64960747587681" lon="13.256916114488513"><ele>156.0</ele><time>2026-04-04T15:26:40.999Z</time></trkpt><trkpt lat="41.64972701703952" lon="13.256619748722809"><ele>156.0</ele><time>2026-04-04T15:26:41.999Z</time></trkpt><trkpt lat="41.649850983490566" lon="13.25632575895319"><ele>156.0</ele><time>2026-04-04T15:26:42.999Z</time></trkpt><trkpt lat="41.64995206523469" lon="13.256044858529728"><ele>156.0</ele><time>2026-04-04T15:26:43.999Z</time></trkpt><trkpt lat="41.650041051609605" lon="13.255793221290746"><ele>156.0</ele><time>2026-04-04T15:26:44.999Z</time></trkpt><trkpt lat="41.65011538790035" lon="13.255570108707738"><ele>156.0</ele><time>2026-04-04T15:26:45.999Z</time></trkpt><trkpt lat="41.65018402064281" lon="13.255375830002585"><ele>156.33333333333334</ele><time>2026-04-04T15:26:46.999Z</time></trkpt><trkpt lat="41.65025216012129" lon="13.2551991896505"><ele>156.66666666666669</ele><time>2026-04-04T15:26:47.999Z</time></trkpt><trkpt lat="41.650323428583185" lon="13.255003556199137"><ele>157.0</ele><time>2026-04-04T15:26:48.999Z</time></trkpt><trkpt lat="41.65038805369258" lon="13.254785688257014"><ele>157.0</ele><time>2026-04-04T15:26:49.999Z</time></trkpt><trkpt lat="41.65045489975841" lon="13.25455658969311"><ele>157.0</ele><time>2026-04-04T15:26:50.999Z</time></trkpt><trkpt lat="41.65052661214852" lon="13.254333941780523"><ele>157.0</ele><time>2026-04-04T15:26:51.999Z</time></trkpt><trkpt lat="41.65059065095928" lon="13.254137766325732"><ele>157.0</ele><time>2026-04-04T15:26:52.999Z</time></trkpt><trkpt lat="41.650650439751615" lon="13.25395766555222"><ele>157.0</ele><time>2026-04-04T15:26:53.999Z</time></trkpt><trkpt lat="41.650709782102886" lon="13.25380065001803"><ele>157.0</ele><time>2026-04-04T15:26:54.999Z</time></trkpt><trkpt lat="41.650767804419814" lon="13.253670041886872"><ele>157.0</ele><time>2026-04-04T15:26:55.999Z</time></trkpt><trkpt lat="41.650829476327665" lon="13.253559328293537"><ele>156.66666666666669</ele><time>2026-04-04T15:26:56.999Z</time></trkpt><trkpt lat="41.650893772343075" lon="13.253463079523552"><ele>156.33333333333334</ele><time>2026-04-04T15:26:57.999Z</time></trkpt><trkpt lat="41.65095780202888" lon="13.253393115913967"><ele>156.0</ele><time>2026-04-04T15:26:58.999Z</time></trkpt><trkpt lat="41.651022370700375" lon="13.253322068882376"><ele>155.66666666666666</ele><time>2026-04-04T15:26:59.999Z</time></trkpt><trkpt lat="41.6510700768479" lon="13.253229379813886"><ele>155.33333333333331</ele><time>2026-04-04T15:27:00.999Z</time></trkpt><trkpt lat="41.651080145607395" lon="13.25311777718593"><ele>155.0</ele><time>2026-04-04T15:27:01.999Z</time></trkpt><trkpt lat="41.651057935389716" lon="13.25300903483488"><ele>154.8</ele><time>2026-04-04T15:27:02.999Z</time></trkpt><trkpt lat="41.65105247402811" lon="13.252908720538487"><ele>154.6</ele><time>2026-04-04T15:27:03.999Z</time></trkpt><trkpt lat="41.650931343528434" lon="13.25285746902012"><ele>154.4</ele><time>2026-04-04T15:27:04.999Z</time></trkpt><trkpt lat="41.65081562207951" lon="13.252884955673943"><ele>154.2</ele><time>2026-04-04T15:27:06.999Z</time></trkpt><trkpt lat="41.650753289799276" lon="13.252923819402755"><ele>154.0</ele><time>2026-04-04T15:27:07.999Z</time></trkpt><trkpt lat="41.650726348315196" lon="13.253052087038254"><ele>154.25</ele><time>2026-04-04T15:27:08.999Z</time></trkpt><trkpt lat="41.65070390271995" lon="13.253209613286481"><ele>154.5</ele><time>2026-04-04T15:27:09.999Z</time></trkpt><trkpt lat="41.65072347060215" lon="13.253401173724795"><ele>154.75</ele><time>2026-04-04T15:27:10.999Z</time></trkpt><trkpt lat="41.65069266183866" lon="13.253602870551843"><ele>155.0</ele><time>2026-04-04T15:27:11.999Z</time></trkpt><trkpt lat="41.65063968526215" lon="13.253794202107041"><ele>155.5</ele><time>2026-04-04T15:27:12.999Z</time></trkpt><trkpt lat="41.650570262089616" lon="13.253979082554148"><ele>156.0</ele><time>2026-04-04T15:27:13.999Z</time></trkpt><trkpt lat="41.650506328941326" lon="13.254148938718219"><ele>156.5</ele><time>2026-04-04T15:27:14.999Z</time></trkpt><trkpt lat="41.65045561878964" lon="13.254309968372445"><ele>157.0</ele><time>2026-04-04T15:27:15.999Z</time></trkpt><trkpt lat="41.65040907936211" lon="13.254453162135336"><ele>157.0</ele><time>2026-04-04T15:27:16.999Z</time></trkpt><trkpt lat="41.65034810395171" lon="13.254604757016756"><ele>157.0</ele><time>2026-04-04T15:27:17.999Z</time></trkpt><trkpt lat="41.65028754138639" lon="13.254728419446785"><ele>157.0</ele><time>2026-04-04T15:27:18.999Z</time></trkpt><trkpt lat="41.650208815269536" lon="13.254823937290572"><ele>157.0</ele><time>2026-04-04T15:27:19.999Z</time></trkpt><trkpt lat="41.650112389575824" lon="13.254872597170042"><ele>157.0</ele><time>2026-04-04T15:27:20.999Z</time></trkpt><trkpt lat="41.6500094069259" lon="13.254918485321637"><ele>156.25</ele><time>2026-04-04T15:27:21.999Z</time></trkpt><trkpt lat="41.64986524655948" lon="13.254835207261845"><ele>155.5</ele><time>2026-04-04T15:27:22.999Z</time></trkpt><trkpt lat="41.6497250499077" lon="13.254811059454303"><ele>154.75</ele><time>2026-04-04T15:27:23.999Z</time></trkpt><trkpt lat="41.64960683084735" lon="13.254777294074554"><ele>154.0</ele><time>2026-04-04T15:27:24.999Z</time></trkpt><trkpt lat="41.649512044333164" lon="13.2547190077808"><ele>153.4</ele><time>2026-04-04T15:27:25.999Z</time></trkpt><trkpt lat="41.64944559037674" lon="13.254662154832399"><ele>152.8</ele><time>2026-04-04T15:27:26.999Z</time></trkpt><trkpt lat="41.649395554897374" lon="13.25460068665383"><ele>152.2</ele><time>2026-04-04T15:27:27.999Z</time></trkpt><trkpt lat="41.64934029395632" lon="13.25448984815422"><ele>151.6</ele><time>2026-04-04T15:27:29.999Z</time></trkpt><trkpt lat="41.64940835339334" lon="13.254326637133772"><ele>151.0</ele><time>2026-04-04T15:27:31.999Z</time></trkpt><trkpt lat="41.64947393469501" lon="13.254231011779568"><ele>150.5</ele><time>2026-04-04T15:27:32.999Z</time></trkpt><trkpt lat="41.64953983613836" lon="13.254106734097842"><ele>150.0</ele><time>2026-04-04T15:27:33.999Z</time></trkpt><trkpt lat="41.649582254964976" lon="13.25395701605719"><ele>149.5</ele><time>2026-04-04T15:27:34.999Z</time></trkpt><trkpt lat="41.64960335351146" lon="13.253791091700778"><ele>149.0</ele><time>2026-04-04T15:27:35.999Z</time></trkpt><trkpt lat="41.64959636534433" lon="13.253629482850213"><ele>149.0</ele><time>2026-04-04T15:27:36.999Z</time></trkpt><trkpt lat="41.64955016671223" lon="13.253471699142745"><ele>149.0</ele><time>2026-04-04T15:27:37.999Z</time></trkpt><trkpt lat="41.6494796453225" lon="13.253374272834963"><ele>149.0</ele><time>2026-04-04T15:27:38.999Z</time></trkpt><trkpt lat="41.6494210880581" lon="13.253300683965227"><ele>149.0</ele><time>2026-04-04T15:27:39.999Z</time></trkpt><trkpt lat="41.64944906125857" lon="13.253139253670684"><ele>149.0</ele><time>2026-04-04T15:27:40.999Z</time></trkpt><trkpt lat="41.649473647111705" lon="13.253029460326545"><ele>149.5</ele><time>2026-04-04T15:27:41.999Z</time></trkpt><trkpt lat="41.64953507651137" lon="13.252923856024182"><ele>150.0</ele><time>2026-04-04T15:27:42.999Z</time></trkpt><trkpt lat="41.64963259225136" lon="13.252843944529259"><ele>150.5</ele><time>2026-04-04T15:27:43.999Z</time></trkpt><trkpt lat="41.64975401176772" lon="13.252753979010594"><ele>151.0</ele><time>2026-04-04T15:27:44.999Z</time></trkpt><trkpt lat="41.64988531317104" lon="13.252660261777502"><ele>151.0</ele><time>2026-04-04T15:27:45.999Z</time></trkpt><trkpt lat="41.650022242175645" lon="13.252590999059645"><ele>151.0</ele><time>2026-04-04T15:27:47Z</time></trkpt><trkpt lat="41.65016561584254" lon="13.252538128748187"><ele>151.0</ele><time>2026-04-04T15:27:48Z</time></trkpt><trkpt lat="41.65031158901784" lon="13.25249631699133"><ele>151.0</ele><time>2026-04-04T15:27:49Z</time></trkpt><trkpt lat="41.65046231066606" lon="13.252469717089499"><ele>152.0</ele><time>2026-04-04T15:27:50Z</time></trkpt><trkpt lat="41.6506268683932" lon="13.252468073930517"><ele>153.0</ele><time>2026-04-04T15:27:51Z</time></trkpt><trkpt lat="41.65079596169753" lon="13.252484763916426"><ele>154.0</ele><time>2026-04-04T15:27:52Z</time></trkpt><trkpt lat="41.65097120232792" lon="13.252526028230442"><ele>155.33333333333334</ele><time>2026-04-04T15:27:53Z</time></trkpt><trkpt lat="41.65114755863618" lon="13.252587867244937"><ele>156.66666666666666</ele><time>2026-04-04T15:27:54Z</time></trkpt><trkpt lat="41.651325064540345" lon="13.252685396043535"><ele>158.0</ele><time>2026-04-04T15:27:55Z</time></trkpt><trkpt lat="41.65150200648332" lon="13.252803168930168"><ele>158.0</ele><time>2026-04-04T15:27:56Z</time></trkpt><trkpt lat="41.65167914956302" lon="13.252930508500949"><ele>158.0</ele><time>2026-04-04T15:27:57Z</time></trkpt><trkpt lat="41.651849499332364" lon="13.253049645959221"><ele>158.0</ele><time>2026-04-04T15:27:58Z</time></trkpt><trkpt lat="41.65203413958745" lon="13.253186423388824"><ele>160.0</ele><time>2026-04-04T15:27:59Z</time></trkpt><trkpt lat="41.65221366837733" lon="13.25331969153581"><ele>162.0</ele><time>2026-04-04T15:28:00Z</time></trkpt><trkpt lat="41.65239532300725" lon="13.253436777657015"><ele>164.0</ele><time>2026-04-04T15:28:01Z</time></trkpt><trkpt lat="41.65258539386044" lon="13.253563727923801"><ele>164.0</ele><time>2026-04-04T15:28:02Z</time></trkpt><trkpt lat="41.652769370710494" lon="13.253684298412413"><ele>164.0</ele><time>2026-04-04T15:28:03Z</time></trkpt><trkpt lat="41.65295978317559" lon="13.253794588802698"><ele>164.0</ele><time>2026-04-04T15:28:04Z</time></trkpt><trkpt lat="41.6531566728978" lon="13.253914417399352"><ele>164.0</ele><time>2026-04-04T15:28:05Z</time></trkpt><trkpt lat="41.65335906947113" lon="13.254025858886383"><ele>164.0</ele><time>2026-04-04T15:28:06Z</time></trkpt><trkpt lat="41.6535620475615" lon="13.25414347566121"><ele>164.0</ele><time>2026-04-04T15:28:07Z</time></trkpt><trkpt lat="41.653767510062735" lon="13.254271134177385"><ele>165.33333333333331</ele><time>2026-04-04T15:28:08Z</time></trkpt><trkpt lat="41.65397259676615" lon="13.254394319659283"><ele>166.66666666666666</ele><time>2026-04-04T15:28:09Z</time></trkpt><trkpt lat="41.654178249313766" lon="13.254511553716132"><ele>168.0</ele><time>2026-04-04T15:28:09.999Z</time></trkpt><trkpt lat="41.65439337701485" lon="13.254639691723597"><ele>169.5</ele><time>2026-04-04T15:28:10.999Z</time></trkpt><trkpt lat="41.654604365975906" lon="13.25475533869864"><ele>171.0</ele><time>2026-04-04T15:28:11.999Z</time></trkpt><trkpt lat="41.65480934976585" lon="13.254877880797725"><ele>171.33333333333334</ele><time>2026-04-04T15:28:12.999Z</time></trkpt><trkpt lat="41.655003862921085" lon="13.255019660881489"><ele>171.66666666666669</ele><time>2026-04-04T15:28:13.999Z</time></trkpt><trkpt lat="41.6552060525393" lon="13.255157527906368"><ele>172.0</ele><time>2026-04-04T15:28:14.999Z</time></trkpt><trkpt lat="41.65541394447745" lon="13.255293127919085"><ele>172.5</ele><time>2026-04-04T15:28:15.999Z</time></trkpt><trkpt lat="41.65562104196452" lon="13.255431881599211"><ele>173.0</ele><time>2026-04-04T15:28:16.999Z</time></trkpt><trkpt lat="41.65583160452042" lon="13.255577046304687"><ele>174.0</ele><time>2026-04-04T15:28:17.999Z</time></trkpt><trkpt lat="41.656041945888" lon="13.25572932354496"><ele>175.0</ele><time>2026-04-04T15:28:18.999Z</time></trkpt><trkpt lat="41.656249891470985" lon="13.255896779988955"><ele>177.0</ele><time>2026-04-04T15:28:19.999Z</time></trkpt><trkpt lat="41.656457251704225" lon="13.256071928722493"><ele>179.0</ele><time>2026-04-04T15:28:20.999Z</time></trkpt><trkpt lat="41.656663356081545" lon="13.256247847486003"><ele>179.0</ele><time>2026-04-04T15:28:21.999Z</time></trkpt><trkpt lat="41.65686729612287" lon="13.25643440989861"><ele>179.0</ele><time>2026-04-04T15:28:22.999Z</time></trkpt><trkpt lat="41.657069996186365" lon="13.25664261926423"><ele>182.0</ele><time>2026-04-04T15:28:23.999Z</time></trkpt><trkpt lat="41.65726965710331" lon="13.256869888368826"><ele>185.0</ele><time>2026-04-04T15:28:24.999Z</time></trkpt><trkpt lat="41.6574652548267" lon="13.257113371786494"><ele>185.0</ele><time>2026-04-04T15:28:25.999Z</time></trkpt><trkpt lat="41.65765481133789" lon="13.257371788400842"><ele>185.0</ele><time>2026-04-04T15:28:26.999Z</time></trkpt><trkpt lat="41.65783810201598" lon="13.257644519099987"><ele>186.0</ele><time>2026-04-04T15:28:27.999Z</time></trkpt><trkpt lat="41.65801242396353" lon="13.257939076168404"><ele>187.0</ele><time>2026-04-04T15:28:28.999Z</time></trkpt><trkpt lat="41.65817891425495" lon="13.25823840335483"><ele>188.5</ele><time>2026-04-04T15:28:29.999Z</time></trkpt><trkpt lat="41.65833604652747" lon="13.258544181607226"><ele>190.0</ele><time>2026-04-04T15:28:30.999Z</time></trkpt><trkpt lat="41.65847709240713" lon="13.258849733170313"><ele>191.5</ele><time>2026-04-04T15:28:31.999Z</time></trkpt><trkpt lat="41.6586078704655" lon="13.259172495468317"><ele>193.0</ele><time>2026-04-04T15:28:32.999Z</time></trkpt><trkpt lat="41.65873566539225" lon="13.259518758761125"><ele>194.5</ele><time>2026-04-04T15:28:33.999Z</time></trkpt><trkpt lat="41.6588543436435" lon="13.259887597183054"><ele>196.0</ele><time>2026-04-04T15:28:34.999Z</time></trkpt><trkpt lat="41.658973300057845" lon="13.260268183883623"><ele>197.0</ele><time>2026-04-04T15:28:35.999Z</time></trkpt><trkpt lat="41.6590722490883" lon="13.260644941560216"><ele>198.0</ele><time>2026-04-04T15:28:36.999Z</time></trkpt><trkpt lat="41.659161427642736" lon="13.261026882081968"><ele>198.0</ele><time>2026-04-04T15:28:37.999Z</time></trkpt><trkpt lat="41.65923867637721" lon="13.261417732713658"><ele>198.0</ele><time>2026-04-04T15:28:38.999Z</time></trkpt><trkpt lat="41.659304845008144" lon="13.261808314457367"><ele>197.5</ele><time>2026-04-04T15:28:39.999Z</time></trkpt><trkpt lat="41.65936666929888" lon="13.262203007581482"><ele>197.0</ele><time>2026-04-04T15:28:40.999Z</time></trkpt><trkpt lat="41.659423172270806" lon="13.262602138336245"><ele>198.0</ele><time>2026-04-04T15:28:41.999Z</time></trkpt><trkpt lat="41.65946465866828" lon="13.263008017096828"><ele>199.0</ele><time>2026-04-04T15:28:42.999Z</time></trkpt><trkpt lat="41.659496730396896" lon="13.263415218565942"><ele>199.0</ele><time>2026-04-04T15:28:43.999Z</time></trkpt><trkpt lat="41.65952228207188" lon="13.263828314573155"><ele>199.0</ele><time>2026-04-04T15:28:44.999Z</time></trkpt><trkpt lat="41.65954436966087" lon="13.264252299417517"><ele>199.5</ele><time>2026-04-04T15:28:46Z</time></trkpt><trkpt lat="41.659565221945314" lon="13.264683238992271"><ele>200.0</ele><time>2026-04-04T15:28:47Z</time></trkpt><trkpt lat="41.65958129787762" lon="13.265115379247925"><ele>199.5</ele><time>2026-04-04T15:28:48Z</time></trkpt><trkpt lat="41.659589383882846" lon="13.265541718519613"><ele>199.0</ele><time>2026-04-04T15:28:49Z</time></trkpt><trkpt lat="41.65959837398655" lon="13.265977541091003"><ele>199.0</ele><time>2026-04-04T15:28:50Z</time></trkpt><trkpt lat="41.65960340240094" lon="13.266410232973769"><ele>199.0</ele><time>2026-04-04T15:28:51Z</time></trkpt><trkpt lat="41.65960727906358" lon="13.266842087344681"><ele>199.0</ele><time>2026-04-04T15:28:52Z</time></trkpt><trkpt lat="41.659604809292944" lon="13.267272327167124"><ele>199.0</ele><time>2026-04-04T15:28:53Z</time></trkpt><trkpt lat="41.65960546594209" lon="13.26770235844109"><ele>199.5</ele><time>2026-04-04T15:28:54Z</time></trkpt><trkpt lat="41.659607442386196" lon="13.268136449822462"><ele>200.0</ele><time>2026-04-04T15:28:55Z</time></trkpt><trkpt lat="41.65961009834553" lon="13.268583559535156"><ele>200.5</ele><time>2026-04-04T15:28:56Z</time></trkpt><trkpt lat="41.659610979523585" lon="13.269033161306808"><ele>201.0</ele><time>2026-04-04T15:28:57Z</time></trkpt><trkpt lat="41.659614184081455" lon="13.269492343447679"><ele>201.5</ele><time>2026-04-04T15:28:58Z</time></trkpt><trkpt lat="41.65961309668053" lon="13.269962840968423"><ele>202.0</ele><time>2026-04-04T15:28:59Z</time></trkpt><trkpt lat="41.65961412804207" lon="13.27043746808838"><ele>202.0</ele><time>2026-04-04T15:29:00Z</time></trkpt><trkpt lat="41.65961591636343" lon="13.270912763376614"><ele>202.0</ele><time>2026-04-04T15:29:01Z</time></trkpt><trkpt lat="41.65961863933608" lon="13.271379288826834"><ele>201.0</ele><time>2026-04-04T15:29:02Z</time></trkpt><trkpt lat="41.659619636132184" lon="13.271843039656988"><ele>200.0</ele><time>2026-04-04T15:29:03Z</time></trkpt><trkpt lat="41.65962477079878" lon="13.272310121940144"><ele>200.0</ele><time>2026-04-04T15:29:04Z</time></trkpt><trkpt lat="41.659632998817436" lon="13.272774402663382"><ele>200.0</ele><time>2026-04-04T15:29:05Z</time></trkpt><trkpt lat="41.65964671991535" lon="13.273242304332284"><ele>200.5</ele><time>2026-04-04T15:29:06Z</time></trkpt><trkpt lat="41.65966113824719" lon="13.273712492154647"><ele>201.0</ele><time>2026-04-04T15:29:07Z</time></trkpt><trkpt lat="41.659682030318926" lon="13.274194462552993"><ele>201.0</ele><time>2026-04-04T15:29:08Z</time></trkpt><trkpt lat="41.6597138540437" lon="13.274684732186913"><ele>201.0</ele><time>2026-04-04T15:29:09Z</time></trkpt><trkpt lat="41.65975370252637" lon="13.275181255404718"><ele>201.0</ele><time>2026-04-04T15:29:10Z</time></trkpt><trkpt lat="41.65980168400646" lon="13.275679770908829"><ele>201.0</ele><time>2026-04-04T15:29:11Z</time></trkpt><trkpt lat="41.659857676076804" lon="13.276178433509106"><ele>201.5</ele><time>2026-04-04T15:29:12Z</time></trkpt><trkpt lat="41.65992162576581" lon="13.276673000273297"><ele>202.0</ele><time>2026-04-04T15:29:13Z</time></trkpt><trkpt lat="41.65998777258333" lon="13.277154450294104"><ele>201.5</ele><time>2026-04-04T15:29:14Z</time></trkpt><trkpt lat="41.66005854659499" lon="13.277633280433514"><ele>201.0</ele><time>2026-04-04T15:29:15Z</time></trkpt><trkpt lat="41.660138063930084" lon="13.278099613530395"><ele>201.0</ele><time>2026-04-04T15:29:16Z</time></trkpt><trkpt lat="41.66022583214825" lon="13.278552444092355"><ele>201.0</ele><time>2026-04-04T15:29:17Z</time></trkpt><trkpt lat="41.66031544623454" lon="13.278993345156172"><ele>201.5</ele><time>2026-04-04T15:29:18Z</time></trkpt><trkpt lat="41.66040952304489" lon="13.279420306066614"><ele>202.0</ele><time>2026-04-04T15:29:19Z</time></trkpt><trkpt lat="41.660509396510065" lon="13.279837754471759"><ele>203.0</ele><time>2026-04-04T15:29:20Z</time></trkpt><trkpt lat="41.66060962399427" lon="13.280248559814199"><ele>204.0</ele><time>2026-04-04T15:29:21Z</time></trkpt><trkpt lat="41.66071337376276" lon="13.280653875592167"><ele>204.5</ele><time>2026-04-04T15:29:22Z</time></trkpt><trkpt lat="41.660827948597834" lon="13.281055393436738"><ele>205.0</ele><time>2026-04-04T15:29:23Z</time></trkpt><trkpt lat="41.660944705656725" lon="13.281451806637676"><ele>205.5</ele><time>2026-04-04T15:29:24Z</time></trkpt><trkpt lat="41.66106706515803" lon="13.281842162095968"><ele>206.0</ele><time>2026-04-04T15:29:25Z</time></trkpt><trkpt lat="41.66119366204401" lon="13.282228505056468"><ele>206.5</ele><time>2026-04-04T15:29:26Z</time></trkpt><trkpt lat="41.66132718438662" lon="13.282606152079433"><ele>207.0</ele><time>2026-04-04T15:29:27Z</time></trkpt><trkpt lat="41.661462090285426" lon="13.28298258924365"><ele>207.0</ele><time>2026-04-04T15:29:28Z</time></trkpt><trkpt lat="41.66160259403385" lon="13.283356928664203"><ele>207.0</ele><time>2026-04-04T15:29:29Z</time></trkpt><trkpt lat="41.661746382914316" lon="13.283731429375807"><ele>206.0</ele><time>2026-04-04T15:29:30Z</time></trkpt><trkpt lat="41.6618950241666" lon="13.284100711548206"><ele>205.0</ele><time>2026-04-04T15:29:31Z</time></trkpt><trkpt lat="41.6620503949288" lon="13.284464469828217"><ele>207.5</ele><time>2026-04-04T15:29:32Z</time></trkpt><trkpt lat="41.6622077396261" lon="13.284830322307313"><ele>210.0</ele><time>2026-04-04T15:29:33Z</time></trkpt><trkpt lat="41.66237700524476" lon="13.285183022482133"><ele>210.0</ele><time>2026-04-04T15:29:34Z</time></trkpt><trkpt lat="41.66254437949893" lon="13.285531371890327"><ele>210.0</ele><time>2026-04-04T15:29:35Z</time></trkpt><trkpt lat="41.66271545046015" lon="13.285873638873662"><ele>211.0</ele><time>2026-04-04T15:29:36Z</time></trkpt><trkpt lat="41.662888308534946" lon="13.286214980881086"><ele>212.0</ele><time>2026-04-04T15:29:37Z</time></trkpt><trkpt lat="41.663069101085654" lon="13.286551904869496"><ele>212.5</ele><time>2026-04-04T15:29:38Z</time></trkpt><trkpt lat="41.663256302537434" lon="13.286881022763582"><ele>213.0</ele><time>2026-04-04T15:29:39Z</time></trkpt><trkpt lat="41.66344609015826" lon="13.28720288836101"><ele>213.5</ele><time>2026-04-04T15:29:40Z</time></trkpt><trkpt lat="41.66363026677903" lon="13.287516387830914"><ele>214.0</ele><time>2026-04-04T15:29:41Z</time></trkpt><trkpt lat="41.66380149363139" lon="13.287794029011746"><ele>214.0</ele><time>2026-04-04T15:29:42Z</time></trkpt><trkpt lat="41.66396880672776" lon="13.288046000264526"><ele>214.0</ele><time>2026-04-04T15:29:43Z</time></trkpt><trkpt lat="41.66412373608048" lon="13.28827580392662"><ele>213.5</ele><time>2026-04-04T15:29:44Z</time></trkpt><trkpt lat="41.6642760814818" lon="13.288513146084398"><ele>213.0</ele><time>2026-04-04T15:29:45Z</time></trkpt><trkpt lat="41.664435269993895" lon="13.288764014109136"><ele>214.5</ele><time>2026-04-04T15:29:46Z</time></trkpt><trkpt lat="41.664598471537275" lon="13.289005081329066"><ele>216.0</ele><time>2026-04-04T15:29:47Z</time></trkpt><trkpt lat="41.66476904134706" lon="13.289244765240026"><ele>216.0</ele><time>2026-04-04T15:29:48Z</time></trkpt><trkpt lat="41.664960834836" lon="13.289502121044293"><ele>216.0</ele><time>2026-04-04T15:29:49Z</time></trkpt><trkpt lat="41.66516530533882" lon="13.289768028211672"><ele>215.5</ele><time>2026-04-04T15:29:50Z</time></trkpt><trkpt lat="41.66537531224521" lon="13.290033319021184"><ele>215.0</ele><time>2026-04-04T15:29:51Z</time></trkpt><trkpt lat="41.66559017496117" lon="13.290308271799788"><ele>215.5</ele><time>2026-04-04T15:29:52Z</time></trkpt><trkpt lat="41.665814114479446" lon="13.290592627039201"><ele>216.0</ele><time>2026-04-04T15:29:53.001Z</time></trkpt><trkpt lat="41.66605074562313" lon="13.290891613094844"><ele>216.5</ele><time>2026-04-04T15:29:54.001Z</time></trkpt><trkpt lat="41.6662951769173" lon="13.29120394174566"><ele>217.0</ele><time>2026-04-04T15:29:55.001Z</time></trkpt><trkpt lat="41.666550982707946" lon="13.291528173652832"><ele>217.5</ele><time>2026-04-04T15:29:56.001Z</time></trkpt><trkpt lat="41.66681799779203" lon="13.29186363598804"><ele>218.0</ele><time>2026-04-04T15:29:57.001Z</time></trkpt><trkpt lat="41.66708634015919" lon="13.292206645623724"><ele>218.0</ele><time>2026-04-04T15:29:58.001Z</time></trkpt><trkpt lat="41.6673626317704" lon="13.292556659873341"><ele>218.0</ele><time>2026-04-04T15:29:59.001Z</time></trkpt><trkpt lat="41.6676409140306" lon="13.292913670951242"><ele>218.5</ele><time>2026-04-04T15:30:00.001Z</time></trkpt><trkpt lat="41.66791481223558" lon="13.293256931347269"><ele>219.0</ele><time>2026-04-04T15:30:01.001Z</time></trkpt><trkpt lat="41.66816374103771" lon="13.293572508764033"><ele>219.0</ele><time>2026-04-04T15:30:02.001Z</time></trkpt><trkpt lat="41.66839711770593" lon="13.293866329444443"><ele>219.0</ele><time>2026-04-04T15:30:03.001Z</time></trkpt><trkpt lat="41.66863195493007" lon="13.294161630655747"><ele>219.0</ele><time>2026-04-04T15:30:04.001Z</time></trkpt><trkpt lat="41.66887251378912" lon="13.294466675723973"><ele>219.0</ele><time>2026-04-04T15:30:05.001Z</time></trkpt><trkpt lat="41.66912176693398" lon="13.294786130530298"><ele>220.0</ele><time>2026-04-04T15:30:06.001Z</time></trkpt><trkpt lat="41.669377508193485" lon="13.295114966525132"><ele>221.0</ele><time>2026-04-04T15:30:07.001Z</time></trkpt><trkpt lat="41.66963083295993" lon="13.295474324490828"><ele>221.0</ele><time>2026-04-04T15:30:08.001Z</time></trkpt><trkpt lat="41.66987808453659" lon="13.295864613529075"><ele>221.0</ele><time>2026-04-04T15:30:09.001Z</time></trkpt><trkpt lat="41.6701175977117" lon="13.29627341614077"><ele>221.5</ele><time>2026-04-04T15:30:10.001Z</time></trkpt><trkpt lat="41.67034525298935" lon="13.296703382674314"><ele>222.0</ele><time>2026-04-04T15:30:11.001Z</time></trkpt><trkpt lat="41.67055920698459" lon="13.297137079490765"><ele>223.0</ele><time>2026-04-04T15:30:12.001Z</time></trkpt><trkpt lat="41.6707606997702" lon="13.297585027902329"><ele>224.0</ele><time>2026-04-04T15:30:13.001Z</time></trkpt><trkpt lat="41.6709448422331" lon="13.29805807624998"><ele>226.0</ele><time>2026-04-04T15:30:14.001Z</time></trkpt><trkpt lat="41.6711143703107" lon="13.298546441458528"><ele>228.0</ele><time>2026-04-04T15:30:15.001Z</time></trkpt><trkpt lat="41.67127044466158" lon="13.299049072086603"><ele>228.0</ele><time>2026-04-04T15:30:16.001Z</time></trkpt><trkpt lat="41.67140803893606" lon="13.299574781261676"><ele>228.0</ele><time>2026-04-04T15:30:17.001Z</time></trkpt><trkpt lat="41.67152812776644" lon="13.300110884517686"><ele>228.0</ele><time>2026-04-04T15:30:18Z</time></trkpt><trkpt lat="41.67163007382533" lon="13.300645896236377"><ele>228.0</ele><time>2026-04-04T15:30:19Z</time></trkpt><trkpt lat="41.67170412305388" lon="13.301165118573772"><ele>227.5</ele><time>2026-04-04T15:30:20Z</time></trkpt><trkpt lat="41.6717588776987" lon="13.30169179213366"><ele>227.0</ele><time>2026-04-04T15:30:21Z</time></trkpt><trkpt lat="41.67180195097692" lon="13.30222614689507"><ele>227.5</ele><time>2026-04-04T15:30:22Z</time></trkpt><trkpt lat="41.67182754670489" lon="13.302765927602584"><ele>228.0</ele><time>2026-04-04T15:30:23Z</time></trkpt><trkpt lat="41.671820297609486" lon="13.303314063682043"><ele>228.5</ele><time>2026-04-04T15:30:24Z</time></trkpt><trkpt lat="41.67180349926909" lon="13.30386665875195"><ele>229.0</ele><time>2026-04-04T15:30:25Z</time></trkpt><trkpt lat="41.6717658317908" lon="13.304418839162446"><ele>227.5</ele><time>2026-04-04T15:30:26Z</time></trkpt><trkpt lat="41.67171250075303" lon="13.304960959963333"><ele>226.0</ele><time>2026-04-04T15:30:27Z</time></trkpt><trkpt lat="41.67163692460875" lon="13.305495013844732"><ele>227.0</ele><time>2026-04-04T15:30:28Z</time></trkpt><trkpt lat="41.67155738383918" lon="13.306026732854063"><ele>228.0</ele><time>2026-04-04T15:30:29Z</time></trkpt><trkpt lat="41.67146955384791" lon="13.306543749114418"><ele>229.5</ele><time>2026-04-04T15:30:30Z</time></trkpt><trkpt lat="41.67137755362585" lon="13.307054906203373"><ele>231.0</ele><time>2026-04-04T15:30:31Z</time></trkpt><trkpt lat="41.67127958367016" lon="13.307564071194001"><ele>232.0</ele><time>2026-04-04T15:30:32Z</time></trkpt><trkpt lat="41.671174595991296" lon="13.308067929924876"><ele>233.0</ele><time>2026-04-04T15:30:33Z</time></trkpt><trkpt lat="41.671070069018455" lon="13.308569785693857"><ele>234.0</ele><time>2026-04-04T15:30:34Z</time></trkpt><trkpt lat="41.670970395686" lon="13.309064506317856"><ele>235.0</ele><time>2026-04-04T15:30:35Z</time></trkpt><trkpt lat="41.670870739760346" lon="13.309551662212337"><ele>236.5</ele><time>2026-04-04T15:30:36Z</time></trkpt><trkpt lat="41.67077126159091" lon="13.31002983009934"><ele>238.0</ele><time>2026-04-04T15:30:37Z</time></trkpt><trkpt lat="41.670677741559835" lon="13.310492299748876"><ele>238.5</ele><time>2026-04-04T15:30:38Z</time></trkpt><trkpt lat="41.67058533859472" lon="13.31095514794639"><ele>239.0</ele><time>2026-04-04T15:30:39Z</time></trkpt><trkpt lat="41.67049713554897" lon="13.311414330104334"><ele>239.5</ele><time>2026-04-04T15:30:40Z</time></trkpt><trkpt lat="41.67041805986739" lon="13.311867229610002"><ele>240.0</ele><time>2026-04-04T15:30:41Z</time></trkpt><trkpt lat="41.67034318626171" lon="13.312318916905246"><ele>239.0</ele><time>2026-04-04T15:30:42Z</time></trkpt><trkpt lat="41.670269125172034" lon="13.312778358264845"><ele>238.0</ele><time>2026-04-04T15:30:43Z</time></trkpt><trkpt lat="41.670195821103206" lon="13.313240451531064"><ele>238.0</ele><time>2026-04-04T15:30:44Z</time></trkpt><trkpt lat="41.6701272239608" lon="13.313699195082384"><ele>238.0</ele><time>2026-04-04T15:30:45Z</time></trkpt><trkpt lat="41.67006263376605" lon="13.314169451934848"><ele>241.5</ele><time>2026-04-04T15:30:46Z</time></trkpt><trkpt lat="41.66999884208498" lon="13.314657075480524"><ele>245.0</ele><time>2026-04-04T15:30:47Z</time></trkpt><trkpt lat="41.669938018039005" lon="13.315154327126505"><ele>245.5</ele><time>2026-04-04T15:30:48Z</time></trkpt><trkpt lat="41.66987750340501" lon="13.315663640747179"><ele>246.0</ele><time>2026-04-04T15:30:49Z</time></trkpt><trkpt lat="41.66981867948035" lon="13.316187976347962"><ele>246.0</ele><time>2026-04-04T15:30:50Z</time></trkpt><trkpt lat="41.66976127077337" lon="13.316728200348868"><ele>246.0</ele><time>2026-04-04T15:30:51Z</time></trkpt><trkpt lat="41.66969747564636" lon="13.31727866465005"><ele>244.5</ele><time>2026-04-04T15:30:52Z</time></trkpt><trkpt lat="41.66963770825703" lon="13.31782551229251"><ele>243.0</ele><time>2026-04-04T15:30:53Z</time></trkpt><trkpt lat="41.66959016767266" lon="13.318362664446118"><ele>241.5</ele><time>2026-04-04T15:30:54Z</time></trkpt><trkpt lat="41.6695583983512" lon="13.31890227549826"><ele>240.0</ele><time>2026-04-04T15:30:55Z</time></trkpt><trkpt lat="41.66954376150118" lon="13.319443022836115"><ele>243.0</ele><time>2026-04-04T15:30:56Z</time></trkpt><trkpt lat="41.66954388098614" lon="13.319973785973465"><ele>246.0</ele><time>2026-04-04T15:30:57Z</time></trkpt><trkpt lat="41.66956075147511" lon="13.3204881202061"><ele>248.0</ele><time>2026-04-04T15:30:58Z</time></trkpt><trkpt lat="41.669562021053125" lon="13.320999160295742"><ele>250.0</ele><time>2026-04-04T15:30:59Z</time></trkpt><trkpt lat="41.66961030924958" lon="13.321530372293818"><ele>251.5</ele><time>2026-04-04T15:31:00Z</time></trkpt><trkpt lat="41.669677081227604" lon="13.322060926582768"><ele>253.0</ele><time>2026-04-04T15:31:01Z</time></trkpt><trkpt lat="41.66977364590435" lon="13.322591305133002"><ele>256.5</ele><time>2026-04-04T15:31:02Z</time></trkpt><trkpt lat="41.669885104056384" lon="13.323115625133164"><ele>260.0</ele><time>2026-04-04T15:31:03Z</time></trkpt><trkpt lat="41.670018643575624" lon="13.323636395153873"><ele>260.0</ele><time>2026-04-04T15:31:04Z</time></trkpt><trkpt lat="41.67017026618173" lon="13.324165965186527"><ele>260.0</ele><time>2026-04-04T15:31:05Z</time></trkpt><trkpt lat="41.67033600258012" lon="13.32470432241698"><ele>260.5</ele><time>2026-04-04T15:31:06Z</time></trkpt><trkpt lat="41.67051540950386" lon="13.325235938827186"><ele>261.0</ele><time>2026-04-04T15:31:07Z</time></trkpt><trkpt lat="41.67068948951125" lon="13.325782567073173"><ele>259.0</ele><time>2026-04-04T15:31:08Z</time></trkpt><trkpt lat="41.67086615851289" lon="13.326339044694919"><ele>258.5</ele><time>2026-04-04T15:31:09Z</time></trkpt><trkpt lat="41.67104217678947" lon="13.32688859166399"><ele>258.0</ele><time>2026-04-04T15:31:10Z</time></trkpt><trkpt lat="41.67119883100135" lon="13.327367553985523"><ele>257.0</ele><time>2026-04-04T15:31:11Z</time></trkpt><trkpt lat="41.67133709335604" lon="13.327811377193125"><ele>256.0</ele><time>2026-04-04T15:31:12Z</time></trkpt><trkpt lat="41.67147366536547" lon="13.328259067823968"><ele>257.0</ele><time>2026-04-04T15:31:13Z</time></trkpt><trkpt lat="41.67161199102503" lon="13.328696736770716"><ele>258.0</ele><time>2026-04-04T15:31:14Z</time></trkpt><trkpt lat="41.67174659892212" lon="13.329123402277823"><ele>258.0</ele><time>2026-04-04T15:31:15Z</time></trkpt><trkpt lat="41.67187518144749" lon="13.329548152468265"><ele>258.0</ele><time>2026-04-04T15:31:16Z</time></trkpt><trkpt lat="41.67200191106799" lon="13.32995825601943"><ele>260.0</ele><time>2026-04-04T15:31:17Z</time></trkpt><trkpt lat="41.67213343639125" lon="13.330356828550093"><ele>262.0</ele><time>2026-04-04T15:31:18Z</time></trkpt><trkpt lat="41.672253633216904" lon="13.330757068694197"><ele>263.0</ele><time>2026-04-04T15:31:19Z</time></trkpt><trkpt lat="41.67237216706216" lon="13.331131474512038"><ele>264.0</ele><time>2026-04-04T15:31:20Z</time></trkpt><trkpt lat="41.672476941233384" lon="13.331488146245555"><ele>264.0</ele><time>2026-04-04T15:31:21Z</time></trkpt><trkpt lat="41.67258418367976" lon="13.331837157680532"><ele>264.0</ele><time>2026-04-04T15:31:22Z</time></trkpt><trkpt lat="41.67269167961258" lon="13.332188966729897"><ele>261.0</ele><time>2026-04-04T15:31:23Z</time></trkpt><trkpt lat="41.67279521395551" lon="13.332531480823524"><ele>258.0</ele><time>2026-04-04T15:31:24Z</time></trkpt><trkpt lat="41.672889143461795" lon="13.332865347984367"><ele>257.0</ele><time>2026-04-04T15:31:25Z</time></trkpt><trkpt lat="41.6729702671781" lon="13.33320541475201"><ele>256.0</ele><time>2026-04-04T15:31:26Z</time></trkpt><trkpt lat="41.673051426065385" lon="13.333550941975599"><ele>253.5</ele><time>2026-04-04T15:31:27Z</time></trkpt><trkpt lat="41.67313216094969" lon="13.333891813891222"><ele>251.0</ele><time>2026-04-04T15:31:28Z</time></trkpt><trkpt lat="41.673204038098454" lon="13.33424722788673"><ele>251.0</ele><time>2026-04-04T15:31:29Z</time></trkpt><trkpt lat="41.67326955781899" lon="13.334609990117421"><ele>251.0</ele><time>2026-04-04T15:31:30Z</time></trkpt><trkpt lat="41.673326049314134" lon="13.334981356871344"><ele>250.0</ele><time>2026-04-04T15:31:31Z</time></trkpt><trkpt lat="41.67337291844275" lon="13.33536541817079"><ele>249.0</ele><time>2026-04-04T15:31:32Z</time></trkpt><trkpt lat="41.673403050041145" lon="13.335763089576822"><ele>247.0</ele><time>2026-04-04T15:31:33Z</time></trkpt><trkpt lat="41.67342427270696" lon="13.336164663858579"><ele>245.0</ele><time>2026-04-04T15:31:34Z</time></trkpt><trkpt lat="41.67344239996916" lon="13.33657021549306"><ele>242.0</ele><time>2026-04-04T15:31:35Z</time></trkpt><trkpt lat="41.673450656803816" lon="13.336984734830798"><ele>239.0</ele><time>2026-04-04T15:31:36Z</time></trkpt><trkpt lat="41.67345619246282" lon="13.337400047923992"><ele>237.0</ele><time>2026-04-04T15:31:37Z</time></trkpt><trkpt lat="41.673457994388855" lon="13.337809783562898"><ele>235.0</ele><time>2026-04-04T15:31:38Z</time></trkpt><trkpt lat="41.67345991257575" lon="13.33821675086273"><ele>234.0</ele><time>2026-04-04T15:31:39Z</time></trkpt><trkpt lat="41.673467685633916" lon="13.338621342105744"><ele>233.0</ele><time>2026-04-04T15:31:40Z</time></trkpt><trkpt lat="41.673473046371" lon="13.33901738173469"><ele>233.0</ele><time>2026-04-04T15:31:41Z</time></trkpt><trkpt lat="41.67347880550432" lon="13.339409794751148"><ele>233.0</ele><time>2026-04-04T15:31:42Z</time></trkpt><trkpt lat="41.673483258456926" lon="13.339797415653816"><ele>233.5</ele><time>2026-04-04T15:31:43Z</time></trkpt><trkpt lat="41.67348136759032" lon="13.34019016033215"><ele>234.0</ele><time>2026-04-04T15:31:44Z</time></trkpt><trkpt lat="41.673469287697195" lon="13.340577725660259"><ele>234.0</ele><time>2026-04-04T15:31:45Z</time></trkpt><trkpt lat="41.6734515339523" lon="13.340962292257538"><ele>234.0</ele><time>2026-04-04T15:31:46Z</time></trkpt><trkpt lat="41.67342807652766" lon="13.341301890235542"><ele>231.0</ele><time>2026-04-04T15:31:47Z</time></trkpt><trkpt lat="41.67339943607687" lon="13.341629838686371"><ele>228.0</ele><time>2026-04-04T15:31:48Z</time></trkpt><trkpt lat="41.67336591007846" lon="13.341936341190165"><ele>227.0</ele><time>2026-04-04T15:31:49Z</time></trkpt><trkpt lat="41.67333442512618" lon="13.342292412861749"><ele>226.0</ele><time>2026-04-04T15:31:50Z</time></trkpt><trkpt lat="41.67329399243833" lon="13.342576176926109"><ele>226.0</ele><time>2026-04-04T15:31:51Z</time></trkpt><trkpt lat="41.67326651452269" lon="13.342849468338803"><ele>226.0</ele><time>2026-04-04T15:31:52Z</time></trkpt><trkpt lat="41.6732312298618" lon="13.343108806535849"><ele>226.0</ele><time>2026-04-04T15:31:53Z</time></trkpt><trkpt lat="41.67314754492603" lon="13.343353620569951"><ele>226.33333333333331</ele><time>2026-04-04T15:31:54Z</time></trkpt><trkpt lat="41.673088738438906" lon="13.343585910725336"><ele>226.66666666666669</ele><time>2026-04-04T15:31:55Z</time></trkpt><trkpt lat="41.67302728721716" lon="13.343804919178773"><ele>227.0</ele><time>2026-04-04T15:31:56Z</time></trkpt><trkpt lat="41.67295249011412" lon="13.344001510899563"><ele>227.0</ele><time>2026-04-04T15:31:57Z</time></trkpt><trkpt lat="41.67286635488735" lon="13.344211957821932"><ele>227.0</ele><time>2026-04-04T15:31:58Z</time></trkpt><trkpt lat="41.67275392324665" lon="13.344392418726382"><ele>227.0</ele><time>2026-04-04T15:31:59.001Z</time></trkpt><trkpt lat="41.67263133737582" lon="13.34455181775366"><ele>227.0</ele><time>2026-04-04T15:32:00.001Z</time></trkpt><trkpt lat="41.67250001421411" lon="13.344712405476507"><ele>227.0</ele><time>2026-04-04T15:32:01.001Z</time></trkpt><trkpt lat="41.672356312145276" lon="13.344871353551994"><ele>227.0</ele><time>2026-04-04T15:32:02.001Z</time></trkpt><trkpt lat="41.672220400302706" lon="13.34502435554298"><ele>227.0</ele><time>2026-04-04T15:32:03.001Z</time></trkpt><trkpt lat="41.67210930100866" lon="13.345173728854073"><ele>227.0</ele><time>2026-04-04T15:32:04.001Z</time></trkpt><trkpt lat="41.67199993613106" lon="13.345314093298102"><ele>227.0</ele><time>2026-04-04T15:32:05.001Z</time></trkpt><trkpt lat="41.6719221644597" lon="13.345471176792513"><ele>226.0</ele><time>2026-04-04T15:32:06.001Z</time></trkpt><trkpt lat="41.67174540094041" lon="13.345584581026475"><ele>225.0</ele><time>2026-04-04T15:32:07.001Z</time></trkpt><trkpt lat="41.67160054084582" lon="13.345726118177694"><ele>224.0</ele><time>2026-04-04T15:32:08.001Z</time></trkpt><trkpt lat="41.67147185572769" lon="13.345883920619755"><ele>224.0</ele><time>2026-04-04T15:32:09.001Z</time></trkpt><trkpt lat="41.671354778186306" lon="13.34601471662431"><ele>224.0</ele><time>2026-04-04T15:32:10.001Z</time></trkpt><trkpt lat="41.67125817539689" lon="13.346146056464647"><ele>224.0</ele><time>2026-04-04T15:32:11.001Z</time></trkpt><trkpt lat="41.67116862492977" lon="13.346268397635118"><ele>224.0</ele><time>2026-04-04T15:32:12.001Z</time></trkpt><trkpt lat="41.67108175874316" lon="13.34637843675763"><ele>224.2</ele><time>2026-04-04T15:32:13.001Z</time></trkpt><trkpt lat="41.67101424903123" lon="13.346489276843961"><ele>224.39999999999998</ele><time>2026-04-04T15:32:14.001Z</time></trkpt><trkpt lat="41.670981225402784" lon="13.346599440145122"><ele>224.6</ele><time>2026-04-04T15:32:15.001Z</time></trkpt><trkpt lat="41.67096859201671" lon="13.346697884297217"><ele>224.8</ele><time>2026-04-04T15:32:16.001Z</time></trkpt><trkpt lat="41.67097316586069" lon="13.346854246439372"><ele>225.0</ele><time>2026-04-04T15:32:18.001Z</time></trkpt><trkpt lat="41.670984206185615" lon="13.3469788418802"><ele>225.0</ele><time>2026-04-04T15:32:20Z</time></trkpt><trkpt lat="41.67099907794772" lon="13.347108049405792"><ele>225.0</ele><time>2026-04-04T15:32:22Z</time></trkpt><trkpt lat="41.67100761981307" lon="13.347239859237474"><ele>225.0</ele><time>2026-04-04T15:32:24Z</time></trkpt><trkpt lat="41.67101706219678" lon="13.347373038905747"><ele>225.0</ele><time>2026-04-04T15:32:26Z</time></trkpt><trkpt lat="41.67102654512316" lon="13.347480709483202"><ele>225.0</ele><time>2026-04-04T15:32:28Z</time></trkpt><trkpt lat="41.671035906556604" lon="13.347581552428814"><ele>225.0</ele><time>2026-04-04T15:32:31Z</time></trkpt><trkpt lat="41.67104409611597" lon="13.34768672029145"><ele>225.0</ele><time>2026-04-04T15:32:34Z</time></trkpt><trkpt lat="41.671068293245234" lon="13.347804467549752"><ele>225.0</ele><time>2026-04-04T15:32:44Z</time></trkpt><trkpt lat="41.67118126668927" lon="13.347869138359906"><ele>225.0</ele><time>2026-04-04T15:32:45Z</time></trkpt><trkpt lat="41.67137922370315" lon="13.347843101132007"><ele>225.6</ele><time>2026-04-04T15:32:47Z</time></trkpt><trkpt lat="41.67148531749799" lon="13.347829146627573"><ele>226.2</ele><time>2026-04-04T15:32:48Z</time></trkpt><trkpt lat="41.67157612277332" lon="13.347818519059699"><ele>226.8</ele><time>2026-04-04T15:32:49Z</time></trkpt><trkpt lat="41.67167258337162" lon="13.347787879279858"><ele>227.4</ele><time>2026-04-04T15:32:50Z</time></trkpt><trkpt lat="41.671784685033394" lon="13.347774993656346"><ele>228.0</ele><time>2026-04-04T15:32:51Z</time></trkpt><trkpt lat="41.67196114936544" lon="13.347777036164281"><ele>228.33333333333331</ele><time>2026-04-04T15:32:52Z</time></trkpt><trkpt lat="41.672154412341854" lon="13.34774466227753"><ele>228.66666666666666</ele><time>2026-04-04T15:32:53Z</time></trkpt><trkpt lat="41.67229900758849" lon="13.347739517667605"><ele>229.0</ele><time>2026-04-04T15:32:54Z</time></trkpt><trkpt lat="41.6724506155486" lon="13.347729607401508"><ele>229.0</ele><time>2026-04-04T15:32:55Z</time></trkpt><trkpt lat="41.67257165701233" lon="13.347715732141179"><ele>229.0</ele><time>2026-04-04T15:32:56Z</time></trkpt><trkpt lat="41.67270204631375" lon="13.347707629037268"><ele>229.0</ele><time>2026-04-04T15:32:57Z</time></trkpt><trkpt lat="41.67282802043298" lon="13.34770551352984"><ele>229.0</ele><time>2026-04-04T15:32:58Z</time></trkpt><trkpt lat="41.67297137114407" lon="13.347720296426603"><ele>229.2</ele><time>2026-04-04T15:32:59Z</time></trkpt><trkpt lat="41.67310727728797" lon="13.347736430479392"><ele>229.39999999999998</ele><time>2026-04-04T15:33:00Z</time></trkpt><trkpt lat="41.673216574723625" lon="13.347762941964262"><ele>229.6</ele><time>2026-04-04T15:33:01Z</time></trkpt><trkpt lat="41.67328710601135" lon="13.34778960204428"><ele>229.8</ele><time>2026-04-04T15:33:02Z</time></trkpt><trkpt lat="41.67337143494282" lon="13.34782201857954"><ele>230.0</ele><time>2026-04-04T15:33:03Z</time></trkpt><trkpt lat="41.673456100003904" lon="13.347848030911594"><ele>230.00000000000003</ele><time>2026-04-04T15:33:04Z</time></trkpt><trkpt lat="41.67353269261827" lon="13.347876315519864"><ele>230.0</ele><time>2026-04-04T15:33:05Z</time></trkpt><trkpt lat="41.67359838625083" lon="13.347917759629706"><ele>230.0</ele><time>2026-04-04T15:33:06Z</time></trkpt><trkpt lat="41.67363646346033" lon="13.347999211001643"><ele>230.0</ele><time>2026-04-04T15:33:07Z</time></trkpt><trkpt lat="41.673654799863016" lon="13.348106324941925"><ele>230.00000000000003</ele><time>2026-04-04T15:33:08Z</time></trkpt><trkpt lat="41.673627053014314" lon="13.34824764996539"><ele>230.0</ele><time>2026-04-04T15:33:09Z</time></trkpt><trkpt lat="41.67358725375176" lon="13.34845743058742"><ele>229.33333333333334</ele><time>2026-04-04T15:33:10Z</time></trkpt><trkpt lat="41.67351795424336" lon="13.348712119902345"><ele>228.66666666666669</ele><time>2026-04-04T15:33:11Z</time></trkpt><trkpt lat="41.67346016344939" lon="13.349011517949915"><ele>228.0</ele><time>2026-04-04T15:33:12Z</time></trkpt><trkpt lat="41.673400111669736" lon="13.349315074150827"><ele>228.0</ele><time>2026-04-04T15:33:13Z</time></trkpt><trkpt lat="41.67332449331574" lon="13.349684593845891"><ele>228.0</ele><time>2026-04-04T15:33:14Z</time></trkpt><trkpt lat="41.67326464143751" lon="13.349947094741937"><ele>228.33333333333331</ele><time>2026-04-04T15:33:15Z</time></trkpt><trkpt lat="41.67320365282856" lon="13.350204550425456"><ele>228.66666666666666</ele><time>2026-04-04T15:33:16Z</time></trkpt><trkpt lat="41.67314492222196" lon="13.350469912794162"><ele>229.0</ele><time>2026-04-04T15:33:17Z</time></trkpt><trkpt lat="41.67309403577372" lon="13.350737120263334"><ele>229.0</ele><time>2026-04-04T15:33:18Z</time></trkpt><trkpt lat="41.67305216378552" lon="13.35100526860324"><ele>229.0</ele><time>2026-04-04T15:33:19Z</time></trkpt><trkpt lat="41.67302613950671" lon="13.351249652547702"><ele>229.0</ele><time>2026-04-04T15:33:20Z</time></trkpt><trkpt lat="41.673008595361445" lon="13.351478888755098"><ele>229.0</ele><time>2026-04-04T15:33:21Z</time></trkpt><trkpt lat="41.673010961564785" lon="13.351687866422866"><ele>229.0</ele><time>2026-04-04T15:33:22Z</time></trkpt><trkpt lat="41.67301772627542" lon="13.351892607649212"><ele>229.0</ele><time>2026-04-04T15:33:23Z</time></trkpt><trkpt lat="41.6730220505472" lon="13.35209697743367"><ele>228.75</ele><time>2026-04-04T15:33:24Z</time></trkpt><trkpt lat="41.67302850558566" lon="13.352280944372257"><ele>228.5</ele><time>2026-04-04T15:33:25Z</time></trkpt><trkpt lat="41.673034726761024" lon="13.352431151548023"><ele>228.25</ele><time>2026-04-04T15:33:26Z</time></trkpt><trkpt lat="41.6730399214173" lon="13.352577707746113"><ele>228.0</ele><time>2026-04-04T15:33:27Z</time></trkpt><trkpt lat="41.67303621160647" lon="13.352732323865226"><ele>228.0</ele><time>2026-04-04T15:33:28Z</time></trkpt><trkpt lat="41.673018719366546" lon="13.352910117791906"><ele>228.0</ele><time>2026-04-04T15:33:29Z</time></trkpt><trkpt lat="41.67298794851265" lon="13.35310447140345"><ele>228.0</ele><time>2026-04-04T15:33:30Z</time></trkpt><trkpt lat="41.672967478194494" lon="13.353300877554204"><ele>228.0</ele><time>2026-04-04T15:33:31Z</time></trkpt><trkpt lat="41.6729450351402" lon="13.35346505940775"><ele>228.0</ele><time>2026-04-04T15:33:32Z</time></trkpt><trkpt lat="41.672921287271976" lon="13.353610819998304"><ele>228.0</ele><time>2026-04-04T15:33:33Z</time></trkpt><trkpt lat="41.672897704311616" lon="13.353770314382718"><ele>228.0</ele><time>2026-04-04T15:33:34Z</time></trkpt><trkpt lat="41.67286646885159" lon="13.353951284346504"><ele>228.0</ele><time>2026-04-04T15:33:35Z</time></trkpt><trkpt lat="41.67282603343747" lon="13.354152886520337"><ele>228.33333333333331</ele><time>2026-04-04T15:33:36Z</time></trkpt><trkpt lat="41.67277992722812" lon="13.354366036055414"><ele>228.66666666666666</ele><time>2026-04-04T15:33:37Z</time></trkpt><trkpt lat="41.67271893450691" lon="13.354604197978418"><ele>229.0</ele><time>2026-04-04T15:33:38Z</time></trkpt><trkpt lat="41.67264316921941" lon="13.354887871930552"><ele>229.0</ele><time>2026-04-04T15:33:39Z</time></trkpt><trkpt lat="41.67258904049372" lon="13.355217296537703"><ele>229.0</ele><time>2026-04-04T15:33:40Z</time></trkpt><trkpt lat="41.67251188237344" lon="13.355515545780055"><ele>228.66666666666666</ele><time>2026-04-04T15:33:41Z</time></trkpt><trkpt lat="41.67247355634043" lon="13.355789424607366"><ele>228.33333333333331</ele><time>2026-04-04T15:33:42Z</time></trkpt><trkpt lat="41.67241022675119" lon="13.356047825218335"><ele>228.0</ele><time>2026-04-04T15:33:43Z</time></trkpt><trkpt lat="41.67230421311163" lon="13.356297465302406"><ele>227.33333333333331</ele><time>2026-04-04T15:33:44Z</time></trkpt><trkpt lat="41.67221503122283" lon="13.35656168777455"><ele>226.66666666666666</ele><time>2026-04-04T15:33:45Z</time></trkpt><trkpt lat="41.67212069236756" lon="13.35680299398277"><ele>226.0</ele><time>2026-04-04T15:33:46Z</time></trkpt><trkpt lat="41.67204932424186" lon="13.357064100689042"><ele>226.5</ele><time>2026-04-04T15:33:47Z</time></trkpt><trkpt lat="41.671989449624895" lon="13.357358065391649"><ele>227.0</ele><time>2026-04-04T15:33:48Z</time></trkpt><trkpt lat="41.67192144286532" lon="13.357659700061246"><ele>227.0</ele><time>2026-04-04T15:33:49Z</time></trkpt><trkpt lat="41.67187056741851" lon="13.35793950139211"><ele>227.0</ele><time>2026-04-04T15:33:50Z</time></trkpt><trkpt lat="41.671843435529574" lon="13.358192898246166"><ele>227.0</ele><time>2026-04-04T15:33:51Z</time></trkpt><trkpt lat="41.671794487774314" lon="13.358423793118899"><ele>227.33333333333334</ele><time>2026-04-04T15:33:52Z</time></trkpt><trkpt lat="41.67173769650879" lon="13.358646166325254"><ele>227.66666666666669</ele><time>2026-04-04T15:33:53Z</time></trkpt><trkpt lat="41.67168410145108" lon="13.35886629000798"><ele>228.0</ele><time>2026-04-04T15:33:54Z</time></trkpt><trkpt lat="41.67163421294194" lon="13.35908030102604"><ele>228.0</ele><time>2026-04-04T15:33:55Z</time></trkpt><trkpt lat="41.67158831378659" lon="13.35927719806237"><ele>228.0</ele><time>2026-04-04T15:33:56Z</time></trkpt><trkpt lat="41.671546553497016" lon="13.359456932905786"><ele>228.0</ele><time>2026-04-04T15:33:57Z</time></trkpt><trkpt lat="41.67150804863145" lon="13.359623833262901"><ele>228.0</ele><time>2026-04-04T15:33:58Z</time></trkpt><trkpt lat="41.67146318366964" lon="13.35980098947114"><ele>228.0</ele><time>2026-04-04T15:33:59Z</time></trkpt><trkpt lat="41.67142032366251" lon="13.360003432154478"><ele>228.0</ele><time>2026-04-04T15:34:00Z</time></trkpt><trkpt lat="41.67138146623468" lon="13.360223544513607"><ele>228.0</ele><time>2026-04-04T15:34:01Z</time></trkpt><trkpt lat="41.671339700513215" lon="13.360465104151325"><ele>228.0</ele><time>2026-04-04T15:34:02Z</time></trkpt><trkpt lat="41.6713151007148" lon="13.360704412279738"><ele>228.0</ele><time>2026-04-04T15:34:03Z</time></trkpt><trkpt lat="41.67129323514629" lon="13.360945855623987"><ele>228.0</ele><time>2026-04-04T15:34:04Z</time></trkpt><trkpt lat="41.67126944260388" lon="13.361205334073137"><ele>227.33333333333331</ele><time>2026-04-04T15:34:05.001Z</time></trkpt><trkpt lat="41.67127379591635" lon="13.36149516279022"><ele>226.66666666666666</ele><time>2026-04-04T15:34:06.001Z</time></trkpt><trkpt lat="41.67128567473035" lon="13.361785559545021"><ele>226.0</ele><time>2026-04-04T15:34:07.001Z</time></trkpt><trkpt lat="41.671301751379296" lon="13.362074103846538"><ele>226.33333333333331</ele><time>2026-04-04T15:34:08.001Z</time></trkpt><trkpt lat="41.67131217574067" lon="13.362342530894987"><ele>226.66666666666669</ele><time>2026-04-04T15:34:09.001Z</time></trkpt><trkpt lat="41.671324343405296" lon="13.362584447126432"><ele>227.0</ele><time>2026-04-04T15:34:10.001Z</time></trkpt><trkpt lat="41.67133715833328" lon="13.36279911262877"><ele>227.0</ele><time>2026-04-04T15:34:11.001Z</time></trkpt><trkpt lat="41.671349948284245" lon="13.36299791268035"><ele>227.0</ele><time>2026-04-04T15:34:12.001Z</time></trkpt><trkpt lat="41.67135859121281" lon="13.363172748942938"><ele>227.0</ele><time>2026-04-04T15:34:13.001Z</time></trkpt><trkpt lat="41.671372283353755" lon="13.363326958171577"><ele>227.0</ele><time>2026-04-04T15:34:14.001Z</time></trkpt><trkpt lat="41.671405954858216" lon="13.363463149320483"><ele>227.5</ele><time>2026-04-04T15:34:15.001Z</time></trkpt><trkpt lat="41.67146005982937" lon="13.363601615751694"><ele>228.0</ele><time>2026-04-04T15:34:16.001Z</time></trkpt><trkpt lat="41.67152709175057" lon="13.36375022420384"><ele>228.5</ele><time>2026-04-04T15:34:17.001Z</time></trkpt><trkpt lat="41.671602419839836" lon="13.36392140714422"><ele>229.0</ele><time>2026-04-04T15:34:18.001Z</time></trkpt><trkpt lat="41.67167076023911" lon="13.36409430683852"><ele>229.39999999999998</ele><time>2026-04-04T15:34:19.001Z</time></trkpt><trkpt lat="41.67172667197548" lon="13.364242503039774"><ele>229.79999999999998</ele><time>2026-04-04T15:34:20.001Z</time></trkpt><trkpt lat="41.67177069178841" lon="13.364370517357145"><ele>230.20000000000002</ele><time>2026-04-04T15:34:21.001Z</time></trkpt><trkpt lat="41.67180793169853" lon="13.364480136535201"><ele>230.60000000000002</ele><time>2026-04-04T15:34:22Z</time></trkpt><trkpt lat="41.67184301656622" lon="13.364575626569248"><ele>231.0</ele><time>2026-04-04T15:34:23Z</time></trkpt><trkpt lat="41.67188894294842" lon="13.364705045107597"><ele>231.0</ele><time>2026-04-04T15:34:25Z</time></trkpt><trkpt lat="41.6719059994027" lon="13.364796885846795"><ele>231.00000000000003</ele><time>2026-04-04T15:34:27Z</time></trkpt><trkpt lat="41.67197542788262" lon="13.364884904074286"><ele>231.00000000000003</ele><time>2026-04-04T15:34:30Z</time></trkpt><trkpt lat="41.672050750090186" lon="13.364923100081155"><ele>231.0</ele><time>2026-04-04T15:34:31Z</time></trkpt><trkpt lat="41.67218960447317" lon="13.364946838454015"><ele>231.0</ele><time>2026-04-04T15:34:32Z</time></trkpt><trkpt lat="41.67235883374604" lon="13.364986142455814"><ele>231.0</ele><time>2026-04-04T15:34:33Z</time></trkpt><trkpt lat="41.67252905934884" lon="13.365000143265162"><ele>231.0</ele><time>2026-04-04T15:34:34Z</time></trkpt><trkpt lat="41.672660143995536" lon="13.365037790014037"><ele>231.0</ele><time>2026-04-04T15:34:35Z</time></trkpt><trkpt lat="41.67278121227844" lon="13.365044786645406"><ele>231.0</ele><time>2026-04-04T15:34:36Z</time></trkpt><trkpt lat="41.67295335942191" lon="13.365040198920054"><ele>231.66666666666669</ele><time>2026-04-04T15:34:37Z</time></trkpt><trkpt lat="41.67312910231378" lon="13.365029041473374"><ele>232.33333333333334</ele><time>2026-04-04T15:34:38Z</time></trkpt><trkpt lat="41.67329812535123" lon="13.365014912145645"><ele>233.0</ele><time>2026-04-04T15:34:39Z</time></trkpt><trkpt lat="41.67347720546383" lon="13.365005057290581"><ele>232.75</ele><time>2026-04-04T15:34:40Z</time></trkpt><trkpt lat="41.67360621608051" lon="13.364993805469826"><ele>232.5</ele><time>2026-04-04T15:34:41Z</time></trkpt><trkpt lat="41.673715309442905" lon="13.36499836344707"><ele>232.25</ele><time>2026-04-04T15:34:42Z</time></trkpt><trkpt lat="41.673797411761264" lon="13.365146353078014"><ele>232.0</ele><time>2026-04-04T15:34:44Z</time></trkpt><trkpt lat="41.6738648683115" lon="13.36528311684079"><ele>232.0</ele><time>2026-04-04T15:34:45Z</time></trkpt><trkpt lat="41.67398629802401" lon="13.365537267853343"><ele>232.0</ele><time>2026-04-04T15:34:46Z</time></trkpt><trkpt lat="41.67410291986908" lon="13.365761951349993"><ele>232.0</ele><time>2026-04-04T15:34:47Z</time></trkpt><trkpt lat="41.67419512079777" lon="13.36593004225691"><ele>232.0</ele><time>2026-04-04T15:34:48Z</time></trkpt><trkpt lat="41.67426597690721" lon="13.366075811166331"><ele>232.0</ele><time>2026-04-04T15:34:49Z</time></trkpt><trkpt lat="41.67429444663808" lon="13.366228417134618"><ele>232.0</ele><time>2026-04-04T15:34:50Z</time></trkpt><trkpt lat="41.674291356459484" lon="13.36640519697251"><ele>232.0</ele><time>2026-04-04T15:34:51Z</time></trkpt><trkpt lat="41.67429030147331" lon="13.366643022428267"><ele>231.33333333333331</ele><time>2026-04-04T15:34:52Z</time></trkpt><trkpt lat="41.67430960606099" lon="13.366890630971254"><ele>230.66666666666669</ele><time>2026-04-04T15:34:53Z</time></trkpt><trkpt lat="41.6743249122343" lon="13.36717164708689"><ele>230.0</ele><time>2026-04-04T15:34:54Z</time></trkpt><trkpt lat="41.6743224835689" lon="13.367414715061969"><ele>229.8</ele><time>2026-04-04T15:34:55Z</time></trkpt><trkpt lat="41.67433028944311" lon="13.367562201654343"><ele>229.6</ele><time>2026-04-04T15:34:56Z</time></trkpt><trkpt lat="41.674348018794596" lon="13.367727127132271"><ele>229.39999999999998</ele><time>2026-04-04T15:34:57Z</time></trkpt><trkpt lat="41.674362372299456" lon="13.367819336689571"><ele>229.2</ele><time>2026-04-04T15:34:58Z</time></trkpt><trkpt lat="41.67443064258484" lon="13.367894847519917"><ele>229.0</ele><time>2026-04-04T15:34:59Z</time></trkpt><trkpt lat="41.674511060801805" lon="13.367939637463396"><ele>229.0</ele><time>2026-04-04T15:35:00Z</time></trkpt><trkpt lat="41.67463384430378" lon="13.367959098398925"><ele>229.0</ele><time>2026-04-04T15:35:01Z</time></trkpt><trkpt lat="41.67479091163518" lon="13.367913193291985"><ele>229.0</ele><time>2026-04-04T15:35:02Z</time></trkpt><trkpt lat="41.67493705934979" lon="13.367886196427841"><ele>229.0</ele><time>2026-04-04T15:35:03Z</time></trkpt><trkpt lat="41.675079064455346" lon="13.367868834960701"><ele>229.0</ele><time>2026-04-04T15:35:04Z</time></trkpt><trkpt lat="41.675206293485495" lon="13.367885449697383"><ele>228.99999999999997</ele><time>2026-04-04T15:35:05Z</time></trkpt><trkpt lat="41.67530081907429" lon="13.36791233936598"><ele>228.99999999999997</ele><time>2026-04-04T15:35:06Z</time></trkpt><trkpt lat="41.67536447072035" lon="13.367967760258228"><ele>229.0</ele><time>2026-04-04T15:35:07Z</time></trkpt><trkpt lat="41.67544790975314" lon="13.368121211888687"><ele>229.0</ele><time>2026-04-04T15:35:08Z</time></trkpt><trkpt lat="41.675520351514656" lon="13.368335961009398"><ele>230.33333333333331</ele><time>2026-04-04T15:35:09Z</time></trkpt><trkpt lat="41.67561447720223" lon="13.368516422056173"><ele>231.66666666666669</ele><time>2026-04-04T15:35:10Z</time></trkpt><trkpt lat="41.675699122593564" lon="13.368693003717217"><ele>233.0</ele><time>2026-04-04T15:35:11Z</time></trkpt><trkpt lat="41.67578753804367" lon="13.368882079214053"><ele>233.25</ele><time>2026-04-04T15:35:12Z</time></trkpt><trkpt lat="41.67583779935152" lon="13.369055790296928"><ele>233.5</ele><time>2026-04-04T15:35:13Z</time></trkpt><trkpt lat="41.67585446523229" lon="13.369226499243732"><ele>233.75</ele><time>2026-04-04T15:35:14Z</time></trkpt><trkpt lat="41.675872675064866" lon="13.369408230585785"><ele>234.0</ele><time>2026-04-04T15:35:15Z</time></trkpt><trkpt lat="41.67587027528416" lon="13.369557037381838"><ele>234.2</ele><time>2026-04-04T15:35:16Z</time></trkpt><trkpt lat="41.67587486339711" lon="13.369714911773997"><ele>234.39999999999998</ele><time>2026-04-04T15:35:17Z</time></trkpt><trkpt lat="41.675881298089855" lon="13.369834706320683"><ele>234.6</ele><time>2026-04-04T15:35:18Z</time></trkpt><trkpt lat="41.67587998570441" lon="13.369932828985062"><ele>234.8</ele><time>2026-04-04T15:35:19Z</time></trkpt><trkpt lat="41.67589329271131" lon="13.370018212375836"><ele>235.0</ele><time>2026-04-04T15:35:20Z</time></trkpt><trkpt lat="41.67593835779925" lon="13.37015006273263"><ele>235.0</ele><time>2026-04-04T15:35:22Z</time></trkpt><trkpt lat="41.67599212259089" lon="13.370247542042607"><ele>235.0</ele><time>2026-04-04T15:35:26Z</time></trkpt><trkpt lat="41.67604166265816" lon="13.370333849026808"><ele>235.0</ele><time>2026-04-04T15:35:27Z</time></trkpt><trkpt lat="41.67608600913819" lon="13.370395266819802"><ele>235.0</ele><time>2026-04-04T15:35:28Z</time></trkpt><trkpt lat="41.67617896096169" lon="13.370510603663194"><ele>235.0</ele><time>2026-04-04T15:35:29Z</time></trkpt><trkpt lat="41.67626854350178" lon="13.37064666933629"><ele>234.66666666666666</ele><time>2026-04-04T15:35:30Z</time></trkpt><trkpt lat="41.67636243300707" lon="13.370788070724934"><ele>234.33333333333331</ele><time>2026-04-04T15:35:31Z</time></trkpt><trkpt lat="41.67649002539303" lon="13.370910771456733"><ele>234.0</ele><time>2026-04-04T15:35:32Z</time></trkpt><trkpt lat="41.676660684899424" lon="13.371017482568915"><ele>234.0</ele><time>2026-04-04T15:35:33Z</time></trkpt><trkpt lat="41.67688090996289" lon="13.371132942230709"><ele>234.0</ele><time>2026-04-04T15:35:34Z</time></trkpt><trkpt lat="41.677099709428546" lon="13.37122950841498"><ele>233.66666666666669</ele><time>2026-04-04T15:35:35Z</time></trkpt><trkpt lat="41.677288609430356" lon="13.371376234779484"><ele>233.33333333333334</ele><time>2026-04-04T15:35:36Z</time></trkpt><trkpt lat="41.67746700906416" lon="13.371499093510394"><ele>233.0</ele><time>2026-04-04T15:35:37Z</time></trkpt><trkpt lat="41.67762802881247" lon="13.371611950595995"><ele>233.0</ele><time>2026-04-04T15:35:38Z</time></trkpt><trkpt lat="41.67775327125517" lon="13.371701808293896"><ele>233.0</ele><time>2026-04-04T15:35:39Z</time></trkpt><trkpt lat="41.67791575307303" lon="13.371837809757505"><ele>233.0</ele><time>2026-04-04T15:35:40Z</time></trkpt><trkpt lat="41.678000404421965" lon="13.371946304215923"><ele>233.5</ele><time>2026-04-04T15:35:41Z</time></trkpt><trkpt lat="41.67808504669873" lon="13.372067365418994"><ele>234.0</ele><time>2026-04-04T15:35:42Z</time></trkpt><trkpt lat="41.67814469958687" lon="13.372237143005849"><ele>234.5</ele><time>2026-04-04T15:35:43Z</time></trkpt><trkpt lat="41.67820555718896" lon="13.372438394136395"><ele>235.0</ele><time>2026-04-04T15:35:44Z</time></trkpt><trkpt lat="41.67826470168584" lon="13.372612751892145"><ele>235.25</ele><time>2026-04-04T15:35:45Z</time></trkpt><trkpt lat="41.67833688878079" lon="13.372738158140955"><ele>235.5</ele><time>2026-04-04T15:35:46Z</time></trkpt><trkpt lat="41.678428696836825" lon="13.372826977806838"><ele>235.75</ele><time>2026-04-04T15:35:47Z</time></trkpt><trkpt lat="41.67854687128184" lon="13.37287882211383"><ele>236.0</ele><time>2026-04-04T15:35:48Z</time></trkpt><trkpt lat="41.67867337757404" lon="13.372906844758322"><ele>236.4</ele><time>2026-04-04T15:35:49Z</time></trkpt><trkpt lat="41.67879185597293" lon="13.37295430208596"><ele>236.8</ele><time>2026-04-04T15:35:50Z</time></trkpt><trkpt lat="41.67889417410028" lon="13.372974660375089"><ele>237.20000000000002</ele><time>2026-04-04T15:35:51Z</time></trkpt><trkpt lat="41.67897880831412" lon="13.37299309368657"><ele>237.60000000000002</ele><time>2026-04-04T15:35:52Z</time></trkpt><trkpt lat="41.67905065915923" lon="13.373033967920499"><ele>238.0</ele><time>2026-04-04T15:35:53Z</time></trkpt><trkpt lat="41.67910879821442" lon="13.373096415503973"><ele>238.60000000000002</ele><time>2026-04-04T15:35:54Z</time></trkpt><trkpt lat="41.67914495736314" lon="13.373195647792247"><ele>239.20000000000002</ele><time>2026-04-04T15:35:55Z</time></trkpt><trkpt lat="41.67917765768104" lon="13.373279475234074"><ele>239.8</ele><time>2026-04-04T15:35:56Z</time></trkpt><trkpt lat="41.679200154479496" lon="13.373388825906256"><ele>240.4</ele><time>2026-04-04T15:35:58Z</time></trkpt><trkpt lat="41.67933166196291" lon="13.373378479793116"><ele>241.0</ele><time>2026-04-04T15:36:00Z</time></trkpt><trkpt lat="41.67943818998823" lon="13.373350738961157"><ele>242.0</ele><time>2026-04-04T15:36:01Z</time></trkpt><trkpt lat="41.67958983452594" lon="13.373315354395011"><ele>243.0</ele><time>2026-04-04T15:36:02Z</time></trkpt><trkpt lat="41.679762427399325" lon="13.373280310876114"><ele>244.0</ele><time>2026-04-04T15:36:03Z</time></trkpt><trkpt lat="41.67988274736803" lon="13.373257645295354"><ele>243.99999999999997</ele><time>2026-04-04T15:36:04Z</time></trkpt><trkpt lat="41.67997735857999" lon="13.373239822660075"><ele>244.0</ele><time>2026-04-04T15:36:05Z</time></trkpt><trkpt lat="41.680054103958746" lon="13.373226438357651"><ele>244.0</ele><time>2026-04-04T15:36:06Z</time></trkpt><trkpt lat="41.68012258138438" lon="13.373215234334852"><ele>244.0</ele><time>2026-04-04T15:36:07Z</time></trkpt><trkpt lat="41.68022946017897" lon="13.373199858666327"><ele>243.99999999999997</ele><time>2026-04-04T15:36:09Z</time></trkpt><trkpt lat="41.68029698089747" lon="13.373195421065548"><ele>244.0</ele><time>2026-04-04T15:36:11Z</time></trkpt><trkpt lat="41.68013233610621" lon="13.373571869146048"><ele>244.0</ele><time>2026-04-04T15:36:35Z</time></trkpt><trkpt lat="41.680185704263" lon="13.373706766079334"><ele>244.0</ele><time>2026-04-04T15:36:37Z</time></trkpt><trkpt lat="41.68023127966463" lon="13.373821965522332"><ele>244.0</ele><time>2026-04-04T15:36:39Z</time></trkpt><trkpt lat="41.68049459972206" lon="13.373190893074327"><ele>244.39999999999998</ele><time>2026-04-04T15:36:41Z</time></trkpt><trkpt lat="41.68052779893738" lon="13.373277254856921"><ele>244.79999999999998</ele><time>2026-04-04T15:36:45Z</time></trkpt><trkpt lat="41.68053480160502" lon="13.373370724145975"><ele>245.20000000000002</ele><time>2026-04-04T15:37:02Z</time></trkpt><trkpt lat="41.680545542242776" lon="13.373630989276824"><ele>245.60000000000002</ele><time>2026-04-04T15:37:06Z</time></trkpt><trkpt lat="41.68052602398891" lon="13.373547055793189"><ele>246.0</ele><time>2026-04-04T15:37:17Z</time></trkpt><trkpt lat="41.68055502610431" lon="13.373465237025943"><ele>246.0</ele><time>2026-04-04T15:37:27Z</time></trkpt><trkpt lat="41.680565735534245" lon="13.373365729274632"><ele>246.0</ele><time>2026-04-04T15:37:34Z</time></trkpt><trkpt lat="41.68049927602798" lon="13.37335549969353"><ele>246.0</ele><time>2026-04-04T15:37:46Z</time></trkpt><trkpt lat="41.68045629582876" lon="13.373421274395186"><ele>246.0</ele><time>2026-04-04T15:38:03Z</time></trkpt><trkpt lat="41.680483933467976" lon="13.373499399228143"><ele>246.0</ele><time>2026-04-04T15:38:14Z</time></trkpt></trkseg><trkseg><trkpt lat="41.68050488906046" lon="13.373371017395476"><ele>245.1</ele><time>2026-04-04T20:34:10Z</time></trkpt></trkseg></trk></gpx>